<?xml version="1.0" encoding="UTF-8" standalone="no" ?>
<gpx xmlns="http://www.topografix.com/GPX/1/1" xmlns:xsi="http://www.w3.org/2001/XMLSchema-instance" xsi:schemaLocation="http://www.topografix.com/GPX/1/1 http://www.topografix.com/GPX/1/1/gpx.xsd" version="1.1" creator="VisuGPX - https://www.visugpx.com">
  <metadata>
    <name>Pointe de la Galoppaz en boucle à partir du parking du Lindar (Bauges)</name>
    <desc><![CDATA[Pointe de la Galoppaz en boucle à partir du parking du Lindar (Bauges) [19 septembre 2020]]]></desc>
  </metadata>
  <trk>
    <name><![CDATA[Pointe de la Galoppaz ]]></name>
    <trkseg>
      <trkpt lat="45.56976" lon="6.08474">
        <ele>1169.655</ele>
        <time>2020-09-19T09:16:35Z</time>
      </trkpt>
      <trkpt lat="45.56964" lon="6.08484">
        <ele>1170.006</ele>
        <time>2020-09-19T09:16:51Z</time>
      </trkpt>
      <trkpt lat="45.56959" lon="6.08494">
        <ele>1169.35</ele>
        <time>2020-09-19T09:16:59Z</time>
      </trkpt>
      <trkpt lat="45.56958" lon="6.08495">
        <ele>1168.949</ele>
        <time>2020-09-19T09:17:01Z</time>
      </trkpt>
      <trkpt lat="45.56957" lon="6.08498">
        <ele>1168.838</ele>
        <time>2020-09-19T09:17:04Z</time>
      </trkpt>
      <trkpt lat="45.56953" lon="6.08504">
        <ele>1168.903</ele>
        <time>2020-09-19T09:17:09Z</time>
      </trkpt>
      <trkpt lat="45.56949" lon="6.08506">
        <ele>1168.646</ele>
        <time>2020-09-19T09:17:11Z</time>
      </trkpt>
      <trkpt lat="45.56946" lon="6.08506">
        <ele>1168.55</ele>
        <time>2020-09-19T09:17:14Z</time>
      </trkpt>
      <trkpt lat="45.56942" lon="6.08507">
        <ele>1168.823</ele>
        <time>2020-09-19T09:17:17Z</time>
      </trkpt>
      <trkpt lat="45.56933" lon="6.08516">
        <ele>1169.782</ele>
        <time>2020-09-19T09:17:25Z</time>
      </trkpt>
      <trkpt lat="45.5693" lon="6.08517">
        <ele>1169.781</ele>
        <time>2020-09-19T09:17:27Z</time>
      </trkpt>
      <trkpt lat="45.56904" lon="6.08513">
        <ele>1169.409</ele>
        <time>2020-09-19T09:17:45Z</time>
      </trkpt>
      <trkpt lat="45.56902" lon="6.08512">
        <ele>1169.137</ele>
        <time>2020-09-19T09:17:50Z</time>
      </trkpt>
      <trkpt lat="45.56902" lon="6.0851">
        <ele>1169.173</ele>
        <time>2020-09-19T09:17:52Z</time>
      </trkpt>
      <trkpt lat="45.56891" lon="6.08508">
        <ele>1168.456</ele>
        <time>2020-09-19T09:18:04Z</time>
      </trkpt>
      <trkpt lat="45.56886" lon="6.08508">
        <ele>1168.618</ele>
        <time>2020-09-19T09:18:10Z</time>
      </trkpt>
      <trkpt lat="45.56885" lon="6.08506">
        <ele>1168.472</ele>
        <time>2020-09-19T09:18:14Z</time>
      </trkpt>
      <trkpt lat="45.56884" lon="6.08506">
        <ele>1168.331</ele>
        <time>2020-09-19T09:18:15Z</time>
      </trkpt>
      <trkpt lat="45.56879" lon="6.08506">
        <ele>1168.568</ele>
        <time>2020-09-19T09:18:23Z</time>
      </trkpt>
      <trkpt lat="45.56879" lon="6.08507">
        <ele>1168.072</ele>
        <time>2020-09-19T09:18:26Z</time>
      </trkpt>
      <trkpt lat="45.56873" lon="6.08503">
        <ele>1168.076</ele>
        <time>2020-09-19T09:18:33Z</time>
      </trkpt>
      <trkpt lat="45.5687" lon="6.085">
        <ele>1168.242</ele>
        <time>2020-09-19T09:18:37Z</time>
      </trkpt>
      <trkpt lat="45.56858" lon="6.08498">
        <ele>1169.232</ele>
        <time>2020-09-19T09:18:52Z</time>
      </trkpt>
      <trkpt lat="45.5685" lon="6.08501">
        <ele>1169.879</ele>
        <time>2020-09-19T09:19:01Z</time>
      </trkpt>
      <trkpt lat="45.56846" lon="6.08504">
        <ele>1170.143</ele>
        <time>2020-09-19T09:19:04Z</time>
      </trkpt>
      <trkpt lat="45.56839" lon="6.08507">
        <ele>1170.341</ele>
        <time>2020-09-19T09:19:09Z</time>
      </trkpt>
      <trkpt lat="45.56836" lon="6.0851">
        <ele>1170.583</ele>
        <time>2020-09-19T09:19:12Z</time>
      </trkpt>
      <trkpt lat="45.56829" lon="6.0851">
        <ele>1171.055</ele>
        <time>2020-09-19T09:19:19Z</time>
      </trkpt>
      <trkpt lat="45.56829" lon="6.0851">
        <ele>1171.226</ele>
        <time>2020-09-19T09:19:22Z</time>
      </trkpt>
      <trkpt lat="45.56828" lon="6.08508">
        <ele>1171.263</ele>
        <time>2020-09-19T09:19:23Z</time>
      </trkpt>
      <trkpt lat="45.56828" lon="6.08507">
        <ele>1170.997</ele>
        <time>2020-09-19T09:19:24Z</time>
      </trkpt>
      <trkpt lat="45.56825" lon="6.08505">
        <ele>1170.914</ele>
        <time>2020-09-19T09:19:26Z</time>
      </trkpt>
      <trkpt lat="45.5682" lon="6.08503">
        <ele>1171.104</ele>
        <time>2020-09-19T09:19:29Z</time>
      </trkpt>
      <trkpt lat="45.56813" lon="6.08499">
        <ele>1171.429</ele>
        <time>2020-09-19T09:19:33Z</time>
      </trkpt>
      <trkpt lat="45.56809" lon="6.08494">
        <ele>1171.197</ele>
        <time>2020-09-19T09:19:36Z</time>
      </trkpt>
      <trkpt lat="45.56808" lon="6.08484">
        <ele>1170.891</ele>
        <time>2020-09-19T09:19:38Z</time>
      </trkpt>
      <trkpt lat="45.56809" lon="6.0847">
        <ele>1170.844</ele>
        <time>2020-09-19T09:19:41Z</time>
      </trkpt>
      <trkpt lat="45.56811" lon="6.08468">
        <ele>1170.703</ele>
        <time>2020-09-19T09:19:42Z</time>
      </trkpt>
      <trkpt lat="45.56813" lon="6.08465">
        <ele>1171.041</ele>
        <time>2020-09-19T09:19:44Z</time>
      </trkpt>
      <trkpt lat="45.56815" lon="6.08459">
        <ele>1171.42</ele>
        <time>2020-09-19T09:19:48Z</time>
      </trkpt>
      <trkpt lat="45.56811" lon="6.0846">
        <ele>1171.158</ele>
        <time>2020-09-19T09:19:49Z</time>
      </trkpt>
      <trkpt lat="45.56807" lon="6.08461">
        <ele>1171.436</ele>
        <time>2020-09-19T09:19:50Z</time>
      </trkpt>
      <trkpt lat="45.56802" lon="6.08463">
        <ele>1171.835</ele>
        <time>2020-09-19T09:19:52Z</time>
      </trkpt>
      <trkpt lat="45.56799" lon="6.08466">
        <ele>1171.902</ele>
        <time>2020-09-19T09:19:55Z</time>
      </trkpt>
      <trkpt lat="45.56798" lon="6.08466">
        <ele>1172.322</ele>
        <time>2020-09-19T09:19:58Z</time>
      </trkpt>
      <trkpt lat="45.56797" lon="6.08458">
        <ele>1172.501</ele>
        <time>2020-09-19T09:20:05Z</time>
      </trkpt>
      <trkpt lat="45.56797" lon="6.08458">
        <ele>1172.555</ele>
        <time>2020-09-19T09:20:06Z</time>
      </trkpt>
      <trkpt lat="45.56797" lon="6.08458">
        <ele>1172.555</ele>
        <time>2020-09-19T09:20:06Z</time>
      </trkpt>
      <trkpt lat="45.56797" lon="6.08457">
        <ele>1172.675</ele>
        <time>2020-09-19T09:20:07Z</time>
      </trkpt>
      <trkpt lat="45.56796" lon="6.08454">
        <ele>1172.905</ele>
        <time>2020-09-19T09:20:09Z</time>
      </trkpt>
      <trkpt lat="45.56796" lon="6.08453">
        <ele>1173.107</ele>
        <time>2020-09-19T09:20:10Z</time>
      </trkpt>
      <trkpt lat="45.56793" lon="6.08457">
        <ele>1173.223</ele>
        <time>2020-09-19T09:20:13Z</time>
      </trkpt>
      <trkpt lat="45.56793" lon="6.08458">
        <ele>1173.341</ele>
        <time>2020-09-19T09:20:14Z</time>
      </trkpt>
      <trkpt lat="45.56792" lon="6.08458">
        <ele>1173.376</ele>
        <time>2020-09-19T09:20:15Z</time>
      </trkpt>
      <trkpt lat="45.56791" lon="6.08459">
        <ele>1173.256</ele>
        <time>2020-09-19T09:20:16Z</time>
      </trkpt>
      <trkpt lat="45.56785" lon="6.08459">
        <ele>1173.687</ele>
        <time>2020-09-19T09:20:20Z</time>
      </trkpt>
      <trkpt lat="45.56783" lon="6.08458">
        <ele>1173.709</ele>
        <time>2020-09-19T09:20:23Z</time>
      </trkpt>
      <trkpt lat="45.56782" lon="6.08456">
        <ele>1173.801</ele>
        <time>2020-09-19T09:20:24Z</time>
      </trkpt>
      <trkpt lat="45.56781" lon="6.08455">
        <ele>1173.658</ele>
        <time>2020-09-19T09:20:25Z</time>
      </trkpt>
      <trkpt lat="45.5678" lon="6.08454">
        <ele>1173.414</ele>
        <time>2020-09-19T09:20:26Z</time>
      </trkpt>
      <trkpt lat="45.56777" lon="6.08455">
        <ele>1173.629</ele>
        <time>2020-09-19T09:20:29Z</time>
      </trkpt>
      <trkpt lat="45.56776" lon="6.08454">
        <ele>1173.648</ele>
        <time>2020-09-19T09:20:30Z</time>
      </trkpt>
      <trkpt lat="45.56773" lon="6.08454">
        <ele>1173.638</ele>
        <time>2020-09-19T09:20:32Z</time>
      </trkpt>
      <trkpt lat="45.56771" lon="6.08454">
        <ele>1173.552</ele>
        <time>2020-09-19T09:20:33Z</time>
      </trkpt>
      <trkpt lat="45.56768" lon="6.08453">
        <ele>1173.405</ele>
        <time>2020-09-19T09:20:35Z</time>
      </trkpt>
      <trkpt lat="45.56767" lon="6.08453">
        <ele>1173.434</ele>
        <time>2020-09-19T09:20:36Z</time>
      </trkpt>
      <trkpt lat="45.56765" lon="6.08452">
        <ele>1173.531</ele>
        <time>2020-09-19T09:20:38Z</time>
      </trkpt>
      <trkpt lat="45.56765" lon="6.08452">
        <ele>1173.531</ele>
        <time>2020-09-19T09:20:38Z</time>
      </trkpt>
      <trkpt lat="45.56764" lon="6.08452">
        <ele>1173.921</ele>
        <time>2020-09-19T09:20:39Z</time>
      </trkpt>
      <trkpt lat="45.56764" lon="6.0845">
        <ele>1173.887</ele>
        <time>2020-09-19T09:20:40Z</time>
      </trkpt>
      <trkpt lat="45.5676" lon="6.08447">
        <ele>1173.527</ele>
        <time>2020-09-19T09:20:43Z</time>
      </trkpt>
      <trkpt lat="45.56756" lon="6.08447">
        <ele>1173.61</ele>
        <time>2020-09-19T09:20:44Z</time>
      </trkpt>
      <trkpt lat="45.56751" lon="6.08447">
        <ele>1174.039</ele>
        <time>2020-09-19T09:20:45Z</time>
      </trkpt>
      <trkpt lat="45.56742" lon="6.08448">
        <ele>1174.661</ele>
        <time>2020-09-19T09:20:48Z</time>
      </trkpt>
      <trkpt lat="45.56737" lon="6.08452">
        <ele>1175.015</ele>
        <time>2020-09-19T09:20:50Z</time>
      </trkpt>
      <trkpt lat="45.56736" lon="6.08453">
        <ele>1175.154</ele>
        <time>2020-09-19T09:20:55Z</time>
      </trkpt>
      <trkpt lat="45.56736" lon="6.08453">
        <ele>1175.154</ele>
        <time>2020-09-19T09:20:55Z</time>
      </trkpt>
      <trkpt lat="45.56736" lon="6.08452">
        <ele>1175.064</ele>
        <time>2020-09-19T09:20:56Z</time>
      </trkpt>
      <trkpt lat="45.56736" lon="6.08451">
        <ele>1175.439</ele>
        <time>2020-09-19T09:20:58Z</time>
      </trkpt>
      <trkpt lat="45.56732" lon="6.08451">
        <ele>1175.561</ele>
        <time>2020-09-19T09:21:03Z</time>
      </trkpt>
      <trkpt lat="45.56732" lon="6.0845">
        <ele>1175.514</ele>
        <time>2020-09-19T09:21:05Z</time>
      </trkpt>
      <trkpt lat="45.56731" lon="6.08449">
        <ele>1175.62</ele>
        <time>2020-09-19T09:21:06Z</time>
      </trkpt>
      <trkpt lat="45.56731" lon="6.08449">
        <ele>1175.58</ele>
        <time>2020-09-19T09:21:07Z</time>
      </trkpt>
      <trkpt lat="45.56731" lon="6.08449">
        <ele>1175.58</ele>
        <time>2020-09-19T09:21:07Z</time>
      </trkpt>
      <trkpt lat="45.5673" lon="6.08447">
        <ele>1175.514</ele>
        <time>2020-09-19T09:21:08Z</time>
      </trkpt>
      <trkpt lat="45.56727" lon="6.08443">
        <ele>1175.487</ele>
        <time>2020-09-19T09:21:10Z</time>
      </trkpt>
      <trkpt lat="45.56726" lon="6.08438">
        <ele>1175.911</ele>
        <time>2020-09-19T09:21:12Z</time>
      </trkpt>
      <trkpt lat="45.56725" lon="6.08433">
        <ele>1175.512</ele>
        <time>2020-09-19T09:21:15Z</time>
      </trkpt>
      <trkpt lat="45.56726" lon="6.08434">
        <ele>1175.736</ele>
        <time>2020-09-19T09:21:16Z</time>
      </trkpt>
      <trkpt lat="45.56729" lon="6.08435">
        <ele>1175.836</ele>
        <time>2020-09-19T09:21:18Z</time>
      </trkpt>
      <trkpt lat="45.56728" lon="6.08432">
        <ele>1175.868</ele>
        <time>2020-09-19T09:21:20Z</time>
      </trkpt>
      <trkpt lat="45.56724" lon="6.08431">
        <ele>1176.012</ele>
        <time>2020-09-19T09:21:21Z</time>
      </trkpt>
      <trkpt lat="45.56717" lon="6.08425">
        <ele>1176.215</ele>
        <time>2020-09-19T09:21:23Z</time>
      </trkpt>
      <trkpt lat="45.56711" lon="6.08416">
        <ele>1176.238</ele>
        <time>2020-09-19T09:21:25Z</time>
      </trkpt>
      <trkpt lat="45.56711" lon="6.08413">
        <ele>1176.639</ele>
        <time>2020-09-19T09:21:27Z</time>
      </trkpt>
      <trkpt lat="45.56708" lon="6.0841">
        <ele>1178.227</ele>
        <time>2020-09-19T09:21:33Z</time>
      </trkpt>
      <trkpt lat="45.56705" lon="6.08412">
        <ele>1178.084</ele>
        <time>2020-09-19T09:21:37Z</time>
      </trkpt>
      <trkpt lat="45.56704" lon="6.08409">
        <ele>1179.232</ele>
        <time>2020-09-19T09:21:41Z</time>
      </trkpt>
      <trkpt lat="45.56704" lon="6.08408">
        <ele>1179.575</ele>
        <time>2020-09-19T09:21:43Z</time>
      </trkpt>
      <trkpt lat="45.56703" lon="6.08409">
        <ele>1179.448</ele>
        <time>2020-09-19T09:21:44Z</time>
      </trkpt>
      <trkpt lat="45.56696" lon="6.0841">
        <ele>1181.391</ele>
        <time>2020-09-19T09:21:50Z</time>
      </trkpt>
      <trkpt lat="45.56696" lon="6.08409">
        <ele>1181.035</ele>
        <time>2020-09-19T09:21:51Z</time>
      </trkpt>
      <trkpt lat="45.56694" lon="6.08408">
        <ele>1181.106</ele>
        <time>2020-09-19T09:21:53Z</time>
      </trkpt>
      <trkpt lat="45.5669" lon="6.0841">
        <ele>1180.741</ele>
        <time>2020-09-19T09:21:55Z</time>
      </trkpt>
      <trkpt lat="45.56685" lon="6.08412">
        <ele>1181.57</ele>
        <time>2020-09-19T09:21:59Z</time>
      </trkpt>
      <trkpt lat="45.56685" lon="6.0841">
        <ele>1181.535</ele>
        <time>2020-09-19T09:22:03Z</time>
      </trkpt>
      <trkpt lat="45.56683" lon="6.0841">
        <ele>1180.425</ele>
        <time>2020-09-19T09:22:06Z</time>
      </trkpt>
      <trkpt lat="45.56671" lon="6.08408">
        <ele>1181.447</ele>
        <time>2020-09-19T09:22:17Z</time>
      </trkpt>
      <trkpt lat="45.56671" lon="6.08403">
        <ele>1181.366</ele>
        <time>2020-09-19T09:22:20Z</time>
      </trkpt>
      <trkpt lat="45.56669" lon="6.08398">
        <ele>1181.036</ele>
        <time>2020-09-19T09:22:23Z</time>
      </trkpt>
      <trkpt lat="45.56663" lon="6.08396">
        <ele>1180.28</ele>
        <time>2020-09-19T09:22:26Z</time>
      </trkpt>
      <trkpt lat="45.56651" lon="6.08392">
        <ele>1181.254</ele>
        <time>2020-09-19T09:22:32Z</time>
      </trkpt>
      <trkpt lat="45.56648" lon="6.08389">
        <ele>1181.783</ele>
        <time>2020-09-19T09:22:37Z</time>
      </trkpt>
      <trkpt lat="45.56647" lon="6.08385">
        <ele>1182.109</ele>
        <time>2020-09-19T09:22:40Z</time>
      </trkpt>
      <trkpt lat="45.56648" lon="6.0838">
        <ele>1183.044</ele>
        <time>2020-09-19T09:22:44Z</time>
      </trkpt>
      <trkpt lat="45.56645" lon="6.08378">
        <ele>1182.867</ele>
        <time>2020-09-19T09:22:47Z</time>
      </trkpt>
      <trkpt lat="45.56635" lon="6.08372">
        <ele>1182.291</ele>
        <time>2020-09-19T09:22:54Z</time>
      </trkpt>
      <trkpt lat="45.56635" lon="6.08362">
        <ele>1181.748</ele>
        <time>2020-09-19T09:23:00Z</time>
      </trkpt>
      <trkpt lat="45.56635" lon="6.08357">
        <ele>1181.422</ele>
        <time>2020-09-19T09:23:05Z</time>
      </trkpt>
      <trkpt lat="45.56631" lon="6.08356">
        <ele>1180.61</ele>
        <time>2020-09-19T09:23:09Z</time>
      </trkpt>
      <trkpt lat="45.56622" lon="6.08352">
        <ele>1178.573</ele>
        <time>2020-09-19T09:23:17Z</time>
      </trkpt>
      <trkpt lat="45.5662" lon="6.08348">
        <ele>1178.575</ele>
        <time>2020-09-19T09:23:20Z</time>
      </trkpt>
      <trkpt lat="45.56617" lon="6.08345">
        <ele>1178.572</ele>
        <time>2020-09-19T09:23:23Z</time>
      </trkpt>
      <trkpt lat="45.56596" lon="6.08332">
        <ele>1178.204</ele>
        <time>2020-09-19T09:23:40Z</time>
      </trkpt>
      <trkpt lat="45.56593" lon="6.0833">
        <ele>1177.924</ele>
        <time>2020-09-19T09:23:44Z</time>
      </trkpt>
      <trkpt lat="45.56583" lon="6.08316">
        <ele>1178.536</ele>
        <time>2020-09-19T09:23:57Z</time>
      </trkpt>
      <trkpt lat="45.56579" lon="6.08311">
        <ele>1178.281</ele>
        <time>2020-09-19T09:24:02Z</time>
      </trkpt>
      <trkpt lat="45.56562" lon="6.08286">
        <ele>1178.766</ele>
        <time>2020-09-19T09:24:26Z</time>
      </trkpt>
      <trkpt lat="45.56557" lon="6.08274">
        <ele>1179.368</ele>
        <time>2020-09-19T09:24:33Z</time>
      </trkpt>
      <trkpt lat="45.56554" lon="6.08271">
        <ele>1178.818</ele>
        <time>2020-09-19T09:24:37Z</time>
      </trkpt>
      <trkpt lat="45.56549" lon="6.08264">
        <ele>1178.713</ele>
        <time>2020-09-19T09:24:45Z</time>
      </trkpt>
      <trkpt lat="45.56545" lon="6.08265">
        <ele>1178.027</ele>
        <time>2020-09-19T09:24:48Z</time>
      </trkpt>
      <trkpt lat="45.56541" lon="6.08264">
        <ele>1177.984</ele>
        <time>2020-09-19T09:24:52Z</time>
      </trkpt>
      <trkpt lat="45.56538" lon="6.0826">
        <ele>1177.913</ele>
        <time>2020-09-19T09:24:56Z</time>
      </trkpt>
      <trkpt lat="45.56538" lon="6.0826">
        <ele>1178.388</ele>
        <time>2020-09-19T09:24:57Z</time>
      </trkpt>
      <trkpt lat="45.56538" lon="6.0826">
        <ele>1178.293</ele>
        <time>2020-09-19T09:24:58Z</time>
      </trkpt>
      <trkpt lat="45.56538" lon="6.0826">
        <ele>1178.293</ele>
        <time>2020-09-19T09:24:58Z</time>
      </trkpt>
      <trkpt lat="45.56538" lon="6.0826">
        <ele>1178.43</ele>
        <time>2020-09-19T09:24:59Z</time>
      </trkpt>
      <trkpt lat="45.56539" lon="6.0826">
        <ele>1178.284</ele>
        <time>2020-09-19T09:25:00Z</time>
      </trkpt>
      <trkpt lat="45.56541" lon="6.0826">
        <ele>1178.868</ele>
        <time>2020-09-19T09:25:03Z</time>
      </trkpt>
      <trkpt lat="45.56551" lon="6.0826">
        <ele>1179.613</ele>
        <time>2020-09-19T09:25:13Z</time>
      </trkpt>
      <trkpt lat="45.56551" lon="6.08261">
        <ele>1179.808</ele>
        <time>2020-09-19T09:25:15Z</time>
      </trkpt>
      <trkpt lat="45.56552" lon="6.08261">
        <ele>1180.156</ele>
        <time>2020-09-19T09:25:16Z</time>
      </trkpt>
      <trkpt lat="45.56552" lon="6.08261">
        <ele>1180.374</ele>
        <time>2020-09-19T09:25:17Z</time>
      </trkpt>
      <trkpt lat="45.56554" lon="6.08264">
        <ele>1181.364</ele>
        <time>2020-09-19T09:25:20Z</time>
      </trkpt>
      <trkpt lat="45.56556" lon="6.08266">
        <ele>1181.697</ele>
        <time>2020-09-19T09:25:22Z</time>
      </trkpt>
      <trkpt lat="45.56558" lon="6.08269">
        <ele>1181.54</ele>
        <time>2020-09-19T09:25:25Z</time>
      </trkpt>
      <trkpt lat="45.56558" lon="6.0827">
        <ele>1181.315</ele>
        <time>2020-09-19T09:25:27Z</time>
      </trkpt>
      <trkpt lat="45.56558" lon="6.0827">
        <ele>1181.315</ele>
        <time>2020-09-19T09:25:27Z</time>
      </trkpt>
      <trkpt lat="45.56558" lon="6.08271">
        <ele>1181.055</ele>
        <time>2020-09-19T09:25:28Z</time>
      </trkpt>
      <trkpt lat="45.56558" lon="6.08271">
        <ele>1181.375</ele>
        <time>2020-09-19T09:25:29Z</time>
      </trkpt>
      <trkpt lat="45.56558" lon="6.08271">
        <ele>1181.403</ele>
        <time>2020-09-19T09:25:36Z</time>
      </trkpt>
      <trkpt lat="45.56554" lon="6.0827">
        <ele>1181.459</ele>
        <time>2020-09-19T09:25:37Z</time>
      </trkpt>
      <trkpt lat="45.56555" lon="6.0827">
        <ele>1181.306</ele>
        <time>2020-09-19T09:25:38Z</time>
      </trkpt>
      <trkpt lat="45.56556" lon="6.0827">
        <ele>1181.62</ele>
        <time>2020-09-19T09:25:39Z</time>
      </trkpt>
      <trkpt lat="45.56558" lon="6.08269">
        <ele>1182.162</ele>
        <time>2020-09-19T09:25:40Z</time>
      </trkpt>
      <trkpt lat="45.56566" lon="6.08263">
        <ele>1181.442</ele>
        <time>2020-09-19T09:25:44Z</time>
      </trkpt>
      <trkpt lat="45.56567" lon="6.08262">
        <ele>1181.981</ele>
        <time>2020-09-19T09:25:45Z</time>
      </trkpt>
      <trkpt lat="45.56567" lon="6.08262">
        <ele>1182.662</ele>
        <time>2020-09-19T09:25:46Z</time>
      </trkpt>
      <trkpt lat="45.5657" lon="6.0826">
        <ele>1182.024</ele>
        <time>2020-09-19T09:25:49Z</time>
      </trkpt>
      <trkpt lat="45.56572" lon="6.0826">
        <ele>1182.501</ele>
        <time>2020-09-19T09:25:51Z</time>
      </trkpt>
      <trkpt lat="45.56572" lon="6.0826">
        <ele>1182.501</ele>
        <time>2020-09-19T09:25:51Z</time>
      </trkpt>
      <trkpt lat="45.56572" lon="6.0826">
        <ele>1182.521</ele>
        <time>2020-09-19T09:25:51Z</time>
      </trkpt>
      <trkpt lat="45.56572" lon="6.0826">
        <ele>1182.482</ele>
        <time>2020-09-19T09:25:54Z</time>
      </trkpt>
      <trkpt lat="45.56573" lon="6.08258">
        <ele>1182.039</ele>
        <time>2020-09-19T09:25:55Z</time>
      </trkpt>
      <trkpt lat="45.56573" lon="6.08258">
        <ele>1181.904</ele>
        <time>2020-09-19T09:25:56Z</time>
      </trkpt>
      <trkpt lat="45.56572" lon="6.08257">
        <ele>1181.891</ele>
        <time>2020-09-19T09:25:57Z</time>
      </trkpt>
      <trkpt lat="45.56572" lon="6.08257">
        <ele>1181.865</ele>
        <time>2020-09-19T09:25:58Z</time>
      </trkpt>
      <trkpt lat="45.56572" lon="6.08257">
        <ele>1181.959</ele>
        <time>2020-09-19T09:26:27Z</time>
      </trkpt>
      <trkpt lat="45.56571" lon="6.08254">
        <ele>1182.064</ele>
        <time>2020-09-19T09:26:28Z</time>
      </trkpt>
      <trkpt lat="45.56571" lon="6.08255">
        <ele>1181.988</ele>
        <time>2020-09-19T09:26:30Z</time>
      </trkpt>
      <trkpt lat="45.5657" lon="6.08254">
        <ele>1182.265</ele>
        <time>2020-09-19T09:26:31Z</time>
      </trkpt>
      <trkpt lat="45.56572" lon="6.08255">
        <ele>1182.824</ele>
        <time>2020-09-19T09:26:34Z</time>
      </trkpt>
      <trkpt lat="45.56573" lon="6.08255">
        <ele>1182.86</ele>
        <time>2020-09-19T09:26:36Z</time>
      </trkpt>
      <trkpt lat="45.56575" lon="6.08255">
        <ele>1183.241</ele>
        <time>2020-09-19T09:26:38Z</time>
      </trkpt>
      <trkpt lat="45.56576" lon="6.08255">
        <ele>1184.41</ele>
        <time>2020-09-19T09:26:39Z</time>
      </trkpt>
      <trkpt lat="45.56577" lon="6.08255">
        <ele>1184.226</ele>
        <time>2020-09-19T09:26:41Z</time>
      </trkpt>
      <trkpt lat="45.56577" lon="6.08255">
        <ele>1185.932</ele>
        <time>2020-09-19T09:26:43Z</time>
      </trkpt>
      <trkpt lat="45.56579" lon="6.08255">
        <ele>1185.884</ele>
        <time>2020-09-19T09:26:44Z</time>
      </trkpt>
      <trkpt lat="45.56581" lon="6.08254">
        <ele>1186.65</ele>
        <time>2020-09-19T09:26:47Z</time>
      </trkpt>
      <trkpt lat="45.56582" lon="6.08253">
        <ele>1186.308</ele>
        <time>2020-09-19T09:26:48Z</time>
      </trkpt>
      <trkpt lat="45.56584" lon="6.08253">
        <ele>1184.871</ele>
        <time>2020-09-19T09:26:51Z</time>
      </trkpt>
      <trkpt lat="45.56585" lon="6.08253">
        <ele>1183.916</ele>
        <time>2020-09-19T09:26:53Z</time>
      </trkpt>
      <trkpt lat="45.56585" lon="6.08253">
        <ele>1183.147</ele>
        <time>2020-09-19T09:26:54Z</time>
      </trkpt>
      <trkpt lat="45.56587" lon="6.08253">
        <ele>1180.957</ele>
        <time>2020-09-19T09:26:57Z</time>
      </trkpt>
      <trkpt lat="45.56588" lon="6.08254">
        <ele>1181.817</ele>
        <time>2020-09-19T09:26:59Z</time>
      </trkpt>
      <trkpt lat="45.56589" lon="6.08253">
        <ele>1182.206</ele>
        <time>2020-09-19T09:27:00Z</time>
      </trkpt>
      <trkpt lat="45.56599" lon="6.08253">
        <ele>1182.281</ele>
        <time>2020-09-19T09:27:06Z</time>
      </trkpt>
      <trkpt lat="45.56599" lon="6.08255">
        <ele>1181.75</ele>
        <time>2020-09-19T09:27:08Z</time>
      </trkpt>
      <trkpt lat="45.566" lon="6.08257">
        <ele>1181.83</ele>
        <time>2020-09-19T09:27:10Z</time>
      </trkpt>
      <trkpt lat="45.566" lon="6.08258">
        <ele>1180.566</ele>
        <time>2020-09-19T09:27:13Z</time>
      </trkpt>
      <trkpt lat="45.566" lon="6.08258">
        <ele>1180.595</ele>
        <time>2020-09-19T09:27:14Z</time>
      </trkpt>
      <trkpt lat="45.56604" lon="6.08258">
        <ele>1181.586</ele>
        <time>2020-09-19T09:27:21Z</time>
      </trkpt>
      <trkpt lat="45.56606" lon="6.08258">
        <ele>1182.847</ele>
        <time>2020-09-19T09:27:25Z</time>
      </trkpt>
      <trkpt lat="45.56607" lon="6.08257">
        <ele>1182.44</ele>
        <time>2020-09-19T09:27:26Z</time>
      </trkpt>
      <trkpt lat="45.5661" lon="6.08256">
        <ele>1183.508</ele>
        <time>2020-09-19T09:27:31Z</time>
      </trkpt>
      <trkpt lat="45.56613" lon="6.08257">
        <ele>1183.469</ele>
        <time>2020-09-19T09:27:35Z</time>
      </trkpt>
      <trkpt lat="45.56615" lon="6.08257">
        <ele>1183.476</ele>
        <time>2020-09-19T09:27:37Z</time>
      </trkpt>
      <trkpt lat="45.56619" lon="6.08256">
        <ele>1183.953</ele>
        <time>2020-09-19T09:27:40Z</time>
      </trkpt>
      <trkpt lat="45.56623" lon="6.08256">
        <ele>1184.07</ele>
        <time>2020-09-19T09:27:43Z</time>
      </trkpt>
      <trkpt lat="45.56626" lon="6.08256">
        <ele>1183.606</ele>
        <time>2020-09-19T09:27:46Z</time>
      </trkpt>
      <trkpt lat="45.56632" lon="6.08259">
        <ele>1184.931</ele>
        <time>2020-09-19T09:27:53Z</time>
      </trkpt>
      <trkpt lat="45.56633" lon="6.08261">
        <ele>1185.163</ele>
        <time>2020-09-19T09:27:54Z</time>
      </trkpt>
      <trkpt lat="45.56634" lon="6.08265">
        <ele>1184.348</ele>
        <time>2020-09-19T09:27:57Z</time>
      </trkpt>
      <trkpt lat="45.56634" lon="6.08265">
        <ele>1184.348</ele>
        <time>2020-09-19T09:27:57Z</time>
      </trkpt>
      <trkpt lat="45.56635" lon="6.08265">
        <ele>1184.07</ele>
        <time>2020-09-19T09:27:58Z</time>
      </trkpt>
      <trkpt lat="45.56636" lon="6.08266">
        <ele>1184.559</ele>
        <time>2020-09-19T09:27:59Z</time>
      </trkpt>
      <trkpt lat="45.56639" lon="6.08267">
        <ele>1183.818</ele>
        <time>2020-09-19T09:28:02Z</time>
      </trkpt>
      <trkpt lat="45.5664" lon="6.08267">
        <ele>1184.027</ele>
        <time>2020-09-19T09:28:03Z</time>
      </trkpt>
      <trkpt lat="45.56641" lon="6.08267">
        <ele>1184.336</ele>
        <time>2020-09-19T09:28:04Z</time>
      </trkpt>
      <trkpt lat="45.56644" lon="6.08265">
        <ele>1184.201</ele>
        <time>2020-09-19T09:28:09Z</time>
      </trkpt>
      <trkpt lat="45.56646" lon="6.08264">
        <ele>1184.369</ele>
        <time>2020-09-19T09:28:13Z</time>
      </trkpt>
      <trkpt lat="45.56647" lon="6.08263">
        <ele>1184.251</ele>
        <time>2020-09-19T09:28:15Z</time>
      </trkpt>
      <trkpt lat="45.56648" lon="6.08263">
        <ele>1184.39</ele>
        <time>2020-09-19T09:28:16Z</time>
      </trkpt>
      <trkpt lat="45.56648" lon="6.08263">
        <ele>1184.039</ele>
        <time>2020-09-19T09:28:17Z</time>
      </trkpt>
      <trkpt lat="45.56648" lon="6.08263">
        <ele>1184.039</ele>
        <time>2020-09-19T09:28:17Z</time>
      </trkpt>
      <trkpt lat="45.56648" lon="6.08264">
        <ele>1184.142</ele>
        <time>2020-09-19T09:28:18Z</time>
      </trkpt>
      <trkpt lat="45.56649" lon="6.08264">
        <ele>1184.131</ele>
        <time>2020-09-19T09:28:19Z</time>
      </trkpt>
      <trkpt lat="45.56652" lon="6.08264">
        <ele>1184.7</ele>
        <time>2020-09-19T09:28:23Z</time>
      </trkpt>
      <trkpt lat="45.56654" lon="6.08264">
        <ele>1184.413</ele>
        <time>2020-09-19T09:28:26Z</time>
      </trkpt>
      <trkpt lat="45.56655" lon="6.08265">
        <ele>1184.583</ele>
        <time>2020-09-19T09:28:29Z</time>
      </trkpt>
      <trkpt lat="45.56656" lon="6.08266">
        <ele>1184.11</ele>
        <time>2020-09-19T09:28:31Z</time>
      </trkpt>
      <trkpt lat="45.56656" lon="6.08266">
        <ele>1184.156</ele>
        <time>2020-09-19T09:28:32Z</time>
      </trkpt>
      <trkpt lat="45.56658" lon="6.08265">
        <ele>1184.476</ele>
        <time>2020-09-19T09:28:34Z</time>
      </trkpt>
      <trkpt lat="45.56659" lon="6.08265">
        <ele>1184.299</ele>
        <time>2020-09-19T09:28:36Z</time>
      </trkpt>
      <trkpt lat="45.56659" lon="6.08265">
        <ele>1184.359</ele>
        <time>2020-09-19T09:28:37Z</time>
      </trkpt>
      <trkpt lat="45.56659" lon="6.08265">
        <ele>1184.359</ele>
        <time>2020-09-19T09:28:37Z</time>
      </trkpt>
      <trkpt lat="45.5666" lon="6.08265">
        <ele>1183.952</ele>
        <time>2020-09-19T09:28:38Z</time>
      </trkpt>
      <trkpt lat="45.5666" lon="6.08265">
        <ele>1183.996</ele>
        <time>2020-09-19T09:28:39Z</time>
      </trkpt>
      <trkpt lat="45.5666" lon="6.08265">
        <ele>1184.542</ele>
        <time>2020-09-19T09:28:47Z</time>
      </trkpt>
      <trkpt lat="45.56665" lon="6.08263">
        <ele>1184.593</ele>
        <time>2020-09-19T09:28:48Z</time>
      </trkpt>
      <trkpt lat="45.56666" lon="6.08262">
        <ele>1183.905</ele>
        <time>2020-09-19T09:28:50Z</time>
      </trkpt>
      <trkpt lat="45.5667" lon="6.08262">
        <ele>1183.119</ele>
        <time>2020-09-19T09:28:53Z</time>
      </trkpt>
      <trkpt lat="45.56672" lon="6.08262">
        <ele>1182.639</ele>
        <time>2020-09-19T09:28:55Z</time>
      </trkpt>
      <trkpt lat="45.56673" lon="6.08261">
        <ele>1182.244</ele>
        <time>2020-09-19T09:28:56Z</time>
      </trkpt>
      <trkpt lat="45.56674" lon="6.08261">
        <ele>1182.196</ele>
        <time>2020-09-19T09:28:57Z</time>
      </trkpt>
      <trkpt lat="45.56677" lon="6.08261">
        <ele>1183.33</ele>
        <time>2020-09-19T09:29:01Z</time>
      </trkpt>
      <trkpt lat="45.56679" lon="6.08262">
        <ele>1182.829</ele>
        <time>2020-09-19T09:29:03Z</time>
      </trkpt>
      <trkpt lat="45.5668" lon="6.08262">
        <ele>1182.633</ele>
        <time>2020-09-19T09:29:04Z</time>
      </trkpt>
      <trkpt lat="45.56682" lon="6.08263">
        <ele>1183.06</ele>
        <time>2020-09-19T09:29:07Z</time>
      </trkpt>
      <trkpt lat="45.56683" lon="6.08264">
        <ele>1182.99</ele>
        <time>2020-09-19T09:29:08Z</time>
      </trkpt>
      <trkpt lat="45.56683" lon="6.08264">
        <ele>1182.678</ele>
        <time>2020-09-19T09:29:10Z</time>
      </trkpt>
      <trkpt lat="45.56683" lon="6.08264">
        <ele>1182.678</ele>
        <time>2020-09-19T09:29:10Z</time>
      </trkpt>
      <trkpt lat="45.56683" lon="6.08264">
        <ele>1182.037</ele>
        <time>2020-09-19T09:29:11Z</time>
      </trkpt>
      <trkpt lat="45.56683" lon="6.08264">
        <ele>1182.326</ele>
        <time>2020-09-19T09:29:13Z</time>
      </trkpt>
      <trkpt lat="45.56686" lon="6.08263">
        <ele>1182.407</ele>
        <time>2020-09-19T09:29:14Z</time>
      </trkpt>
      <trkpt lat="45.56689" lon="6.08263">
        <ele>1182.379</ele>
        <time>2020-09-19T09:29:17Z</time>
      </trkpt>
      <trkpt lat="45.56693" lon="6.08265">
        <ele>1182.176</ele>
        <time>2020-09-19T09:29:21Z</time>
      </trkpt>
      <trkpt lat="45.56696" lon="6.08265">
        <ele>1181.971</ele>
        <time>2020-09-19T09:29:24Z</time>
      </trkpt>
      <trkpt lat="45.56697" lon="6.08265">
        <ele>1182.321</ele>
        <time>2020-09-19T09:29:27Z</time>
      </trkpt>
      <trkpt lat="45.56697" lon="6.08265">
        <ele>1182.318</ele>
        <time>2020-09-19T09:29:28Z</time>
      </trkpt>
      <trkpt lat="45.56698" lon="6.08264">
        <ele>1182.387</ele>
        <time>2020-09-19T09:29:29Z</time>
      </trkpt>
      <trkpt lat="45.56707" lon="6.08264">
        <ele>1183.499</ele>
        <time>2020-09-19T09:29:37Z</time>
      </trkpt>
      <trkpt lat="45.5671" lon="6.08264">
        <ele>1183.081</ele>
        <time>2020-09-19T09:29:40Z</time>
      </trkpt>
      <trkpt lat="45.56713" lon="6.08265">
        <ele>1182.493</ele>
        <time>2020-09-19T09:29:42Z</time>
      </trkpt>
      <trkpt lat="45.56715" lon="6.08266">
        <ele>1182.578</ele>
        <time>2020-09-19T09:29:44Z</time>
      </trkpt>
      <trkpt lat="45.56716" lon="6.08266">
        <ele>1183.029</ele>
        <time>2020-09-19T09:29:45Z</time>
      </trkpt>
      <trkpt lat="45.5672" lon="6.08266">
        <ele>1183.04</ele>
        <time>2020-09-19T09:29:49Z</time>
      </trkpt>
      <trkpt lat="45.5672" lon="6.08266">
        <ele>1183.163</ele>
        <time>2020-09-19T09:29:50Z</time>
      </trkpt>
      <trkpt lat="45.5672" lon="6.08266">
        <ele>1183.163</ele>
        <time>2020-09-19T09:29:50Z</time>
      </trkpt>
      <trkpt lat="45.5672" lon="6.08267">
        <ele>1183</ele>
        <time>2020-09-19T09:29:51Z</time>
      </trkpt>
      <trkpt lat="45.5672" lon="6.08267">
        <ele>1183.008</ele>
        <time>2020-09-19T09:29:52Z</time>
      </trkpt>
      <trkpt lat="45.5672" lon="6.08267">
        <ele>1183.008</ele>
        <time>2020-09-19T09:29:52Z</time>
      </trkpt>
      <trkpt lat="45.56721" lon="6.08266">
        <ele>1182.802</ele>
        <time>2020-09-19T09:29:53Z</time>
      </trkpt>
      <trkpt lat="45.56722" lon="6.08266">
        <ele>1182.919</ele>
        <time>2020-09-19T09:29:54Z</time>
      </trkpt>
      <trkpt lat="45.56723" lon="6.08265">
        <ele>1182.694</ele>
        <time>2020-09-19T09:29:56Z</time>
      </trkpt>
      <trkpt lat="45.56723" lon="6.08265">
        <ele>1182.694</ele>
        <time>2020-09-19T09:29:56Z</time>
      </trkpt>
      <trkpt lat="45.56724" lon="6.08266">
        <ele>1182.274</ele>
        <time>2020-09-19T09:29:57Z</time>
      </trkpt>
      <trkpt lat="45.56727" lon="6.08267">
        <ele>1182.682</ele>
        <time>2020-09-19T09:29:59Z</time>
      </trkpt>
      <trkpt lat="45.56728" lon="6.08268">
        <ele>1182.5</ele>
        <time>2020-09-19T09:30:00Z</time>
      </trkpt>
      <trkpt lat="45.56728" lon="6.08268">
        <ele>1182.299</ele>
        <time>2020-09-19T09:30:01Z</time>
      </trkpt>
      <trkpt lat="45.56732" lon="6.08269">
        <ele>1182.073</ele>
        <time>2020-09-19T09:30:04Z</time>
      </trkpt>
      <trkpt lat="45.5675" lon="6.08277">
        <ele>1182.395</ele>
        <time>2020-09-19T09:30:19Z</time>
      </trkpt>
      <trkpt lat="45.5675" lon="6.08278">
        <ele>1182.738</ele>
        <time>2020-09-19T09:30:20Z</time>
      </trkpt>
      <trkpt lat="45.56751" lon="6.08279">
        <ele>1182.649</ele>
        <time>2020-09-19T09:30:21Z</time>
      </trkpt>
      <trkpt lat="45.56752" lon="6.0828">
        <ele>1182.818</ele>
        <time>2020-09-19T09:30:22Z</time>
      </trkpt>
      <trkpt lat="45.56756" lon="6.08282">
        <ele>1183.27</ele>
        <time>2020-09-19T09:30:26Z</time>
      </trkpt>
      <trkpt lat="45.56758" lon="6.08284">
        <ele>1182.302</ele>
        <time>2020-09-19T09:30:30Z</time>
      </trkpt>
      <trkpt lat="45.5676" lon="6.08286">
        <ele>1181.701</ele>
        <time>2020-09-19T09:30:33Z</time>
      </trkpt>
      <trkpt lat="45.56761" lon="6.08287">
        <ele>1181.544</ele>
        <time>2020-09-19T09:30:34Z</time>
      </trkpt>
      <trkpt lat="45.56768" lon="6.0829">
        <ele>1180.682</ele>
        <time>2020-09-19T09:30:44Z</time>
      </trkpt>
      <trkpt lat="45.56772" lon="6.08292">
        <ele>1180.735</ele>
        <time>2020-09-19T09:30:49Z</time>
      </trkpt>
      <trkpt lat="45.56772" lon="6.08293">
        <ele>1180.554</ele>
        <time>2020-09-19T09:30:50Z</time>
      </trkpt>
      <trkpt lat="45.56781" lon="6.08295">
        <ele>1178.516</ele>
        <time>2020-09-19T09:30:59Z</time>
      </trkpt>
      <trkpt lat="45.56793" lon="6.08291">
        <ele>1176.47</ele>
        <time>2020-09-19T09:31:13Z</time>
      </trkpt>
      <trkpt lat="45.56798" lon="6.0829">
        <ele>1175.656</ele>
        <time>2020-09-19T09:31:19Z</time>
      </trkpt>
      <trkpt lat="45.56801" lon="6.08289">
        <ele>1175.938</ele>
        <time>2020-09-19T09:31:23Z</time>
      </trkpt>
      <trkpt lat="45.56811" lon="6.08284">
        <ele>1174.147</ele>
        <time>2020-09-19T09:31:33Z</time>
      </trkpt>
      <trkpt lat="45.56814" lon="6.08284">
        <ele>1174.013</ele>
        <time>2020-09-19T09:31:35Z</time>
      </trkpt>
      <trkpt lat="45.56819" lon="6.08286">
        <ele>1174.472</ele>
        <time>2020-09-19T09:31:39Z</time>
      </trkpt>
      <trkpt lat="45.56824" lon="6.08286">
        <ele>1174.376</ele>
        <time>2020-09-19T09:31:42Z</time>
      </trkpt>
      <trkpt lat="45.56833" lon="6.08285">
        <ele>1174.42</ele>
        <time>2020-09-19T09:31:49Z</time>
      </trkpt>
      <trkpt lat="45.5684" lon="6.08286">
        <ele>1173.372</ele>
        <time>2020-09-19T09:31:56Z</time>
      </trkpt>
      <trkpt lat="45.56844" lon="6.08284">
        <ele>1172.433</ele>
        <time>2020-09-19T09:32:01Z</time>
      </trkpt>
      <trkpt lat="45.56849" lon="6.08282">
        <ele>1172.782</ele>
        <time>2020-09-19T09:32:08Z</time>
      </trkpt>
      <trkpt lat="45.56853" lon="6.08281">
        <ele>1172.367</ele>
        <time>2020-09-19T09:32:11Z</time>
      </trkpt>
      <trkpt lat="45.56868" lon="6.08266">
        <ele>1170.014</ele>
        <time>2020-09-19T09:32:27Z</time>
      </trkpt>
      <trkpt lat="45.56882" lon="6.0826">
        <ele>1169.976</ele>
        <time>2020-09-19T09:32:37Z</time>
      </trkpt>
      <trkpt lat="45.56884" lon="6.08261">
        <ele>1169.693</ele>
        <time>2020-09-19T09:32:38Z</time>
      </trkpt>
      <trkpt lat="45.56889" lon="6.0826">
        <ele>1170.249</ele>
        <time>2020-09-19T09:32:40Z</time>
      </trkpt>
      <trkpt lat="45.56892" lon="6.08258">
        <ele>1169.861</ele>
        <time>2020-09-19T09:32:44Z</time>
      </trkpt>
      <trkpt lat="45.56891" lon="6.08256">
        <ele>1169.824</ele>
        <time>2020-09-19T09:32:45Z</time>
      </trkpt>
      <trkpt lat="45.56887" lon="6.0825">
        <ele>1169.508</ele>
        <time>2020-09-19T09:32:47Z</time>
      </trkpt>
      <trkpt lat="45.56887" lon="6.0825">
        <ele>1169.554</ele>
        <time>2020-09-19T09:32:48Z</time>
      </trkpt>
      <trkpt lat="45.56887" lon="6.08249">
        <ele>1169.453</ele>
        <time>2020-09-19T09:32:49Z</time>
      </trkpt>
      <trkpt lat="45.5689" lon="6.08248">
        <ele>1169.367</ele>
        <time>2020-09-19T09:32:51Z</time>
      </trkpt>
      <trkpt lat="45.56899" lon="6.08245">
        <ele>1168.644</ele>
        <time>2020-09-19T09:32:58Z</time>
      </trkpt>
      <trkpt lat="45.56903" lon="6.0824">
        <ele>1167.04</ele>
        <time>2020-09-19T09:33:07Z</time>
      </trkpt>
      <trkpt lat="45.56907" lon="6.08238">
        <ele>1166.968</ele>
        <time>2020-09-19T09:33:11Z</time>
      </trkpt>
      <trkpt lat="45.56913" lon="6.08234">
        <ele>1165.557</ele>
        <time>2020-09-19T09:33:17Z</time>
      </trkpt>
      <trkpt lat="45.56918" lon="6.08231">
        <ele>1164.975</ele>
        <time>2020-09-19T09:33:23Z</time>
      </trkpt>
      <trkpt lat="45.56923" lon="6.08228">
        <ele>1164.621</ele>
        <time>2020-09-19T09:33:27Z</time>
      </trkpt>
      <trkpt lat="45.56931" lon="6.08226">
        <ele>1162.599</ele>
        <time>2020-09-19T09:33:34Z</time>
      </trkpt>
      <trkpt lat="45.56935" lon="6.08224">
        <ele>1161.858</ele>
        <time>2020-09-19T09:33:37Z</time>
      </trkpt>
      <trkpt lat="45.56938" lon="6.08219">
        <ele>1161.597</ele>
        <time>2020-09-19T09:33:40Z</time>
      </trkpt>
      <trkpt lat="45.56938" lon="6.08217">
        <ele>1161.56</ele>
        <time>2020-09-19T09:33:41Z</time>
      </trkpt>
      <trkpt lat="45.56938" lon="6.08215">
        <ele>1160.853</ele>
        <time>2020-09-19T09:33:43Z</time>
      </trkpt>
      <trkpt lat="45.56938" lon="6.08209">
        <ele>1160.731</ele>
        <time>2020-09-19T09:33:49Z</time>
      </trkpt>
      <trkpt lat="45.56937" lon="6.08205">
        <ele>1160.679</ele>
        <time>2020-09-19T09:33:51Z</time>
      </trkpt>
      <trkpt lat="45.56934" lon="6.08201">
        <ele>1160.752</ele>
        <time>2020-09-19T09:33:54Z</time>
      </trkpt>
      <trkpt lat="45.56931" lon="6.082">
        <ele>1160.92</ele>
        <time>2020-09-19T09:33:57Z</time>
      </trkpt>
      <trkpt lat="45.5693" lon="6.08198">
        <ele>1161.03</ele>
        <time>2020-09-19T09:33:58Z</time>
      </trkpt>
      <trkpt lat="45.56928" lon="6.08189">
        <ele>1160.406</ele>
        <time>2020-09-19T09:34:04Z</time>
      </trkpt>
      <trkpt lat="45.56925" lon="6.08187">
        <ele>1160.652</ele>
        <time>2020-09-19T09:34:07Z</time>
      </trkpt>
      <trkpt lat="45.56924" lon="6.08183">
        <ele>1159.728</ele>
        <time>2020-09-19T09:34:12Z</time>
      </trkpt>
      <trkpt lat="45.56924" lon="6.08183">
        <ele>1159.313</ele>
        <time>2020-09-19T09:34:13Z</time>
      </trkpt>
      <trkpt lat="45.56924" lon="6.08182">
        <ele>1159.323</ele>
        <time>2020-09-19T09:34:14Z</time>
      </trkpt>
      <trkpt lat="45.56923" lon="6.08176">
        <ele>1158.839</ele>
        <time>2020-09-19T09:34:19Z</time>
      </trkpt>
      <trkpt lat="45.56923" lon="6.08176">
        <ele>1158.723</ele>
        <time>2020-09-19T09:34:20Z</time>
      </trkpt>
      <trkpt lat="45.56922" lon="6.08173">
        <ele>1158.409</ele>
        <time>2020-09-19T09:34:22Z</time>
      </trkpt>
      <trkpt lat="45.56921" lon="6.08162">
        <ele>1158.212</ele>
        <time>2020-09-19T09:34:28Z</time>
      </trkpt>
      <trkpt lat="45.56923" lon="6.08154">
        <ele>1157.276</ele>
        <time>2020-09-19T09:34:33Z</time>
      </trkpt>
      <trkpt lat="45.56928" lon="6.08146">
        <ele>1156.618</ele>
        <time>2020-09-19T09:34:39Z</time>
      </trkpt>
      <trkpt lat="45.56929" lon="6.08146">
        <ele>1156.57</ele>
        <time>2020-09-19T09:34:40Z</time>
      </trkpt>
      <trkpt lat="45.56933" lon="6.08145">
        <ele>1156.898</ele>
        <time>2020-09-19T09:34:43Z</time>
      </trkpt>
      <trkpt lat="45.56938" lon="6.08145">
        <ele>1156.312</ele>
        <time>2020-09-19T09:34:49Z</time>
      </trkpt>
      <trkpt lat="45.56941" lon="6.08145">
        <ele>1155.819</ele>
        <time>2020-09-19T09:34:52Z</time>
      </trkpt>
      <trkpt lat="45.56946" lon="6.08146">
        <ele>1155.068</ele>
        <time>2020-09-19T09:34:57Z</time>
      </trkpt>
      <trkpt lat="45.56948" lon="6.08147">
        <ele>1154.591</ele>
        <time>2020-09-19T09:34:59Z</time>
      </trkpt>
      <trkpt lat="45.56948" lon="6.08147">
        <ele>1154.27</ele>
        <time>2020-09-19T09:35:01Z</time>
      </trkpt>
      <trkpt lat="45.56949" lon="6.08146">
        <ele>1154.129</ele>
        <time>2020-09-19T09:35:03Z</time>
      </trkpt>
      <trkpt lat="45.5695" lon="6.08145">
        <ele>1154.184</ele>
        <time>2020-09-19T09:35:04Z</time>
      </trkpt>
      <trkpt lat="45.56951" lon="6.08147">
        <ele>1153.957</ele>
        <time>2020-09-19T09:35:07Z</time>
      </trkpt>
      <trkpt lat="45.56952" lon="6.08147">
        <ele>1154.151</ele>
        <time>2020-09-19T09:35:09Z</time>
      </trkpt>
      <trkpt lat="45.56955" lon="6.08147">
        <ele>1153.513</ele>
        <time>2020-09-19T09:35:12Z</time>
      </trkpt>
      <trkpt lat="45.56959" lon="6.08147">
        <ele>1153.37</ele>
        <time>2020-09-19T09:35:15Z</time>
      </trkpt>
      <trkpt lat="45.56963" lon="6.08149">
        <ele>1153.52</ele>
        <time>2020-09-19T09:35:19Z</time>
      </trkpt>
      <trkpt lat="45.56964" lon="6.08148">
        <ele>1153.765</ele>
        <time>2020-09-19T09:35:20Z</time>
      </trkpt>
      <trkpt lat="45.56969" lon="6.0815">
        <ele>1153.302</ele>
        <time>2020-09-19T09:35:25Z</time>
      </trkpt>
      <trkpt lat="45.56971" lon="6.08153">
        <ele>1152.866</ele>
        <time>2020-09-19T09:35:29Z</time>
      </trkpt>
      <trkpt lat="45.56971" lon="6.08154">
        <ele>1153.005</ele>
        <time>2020-09-19T09:35:30Z</time>
      </trkpt>
      <trkpt lat="45.56974" lon="6.08156">
        <ele>1152.4</ele>
        <time>2020-09-19T09:35:34Z</time>
      </trkpt>
      <trkpt lat="45.56976" lon="6.08158">
        <ele>1152.334</ele>
        <time>2020-09-19T09:35:37Z</time>
      </trkpt>
      <trkpt lat="45.5698" lon="6.08161">
        <ele>1152.315</ele>
        <time>2020-09-19T09:35:41Z</time>
      </trkpt>
      <trkpt lat="45.56986" lon="6.0816">
        <ele>1151.86</ele>
        <time>2020-09-19T09:35:48Z</time>
      </trkpt>
      <trkpt lat="45.56987" lon="6.08159">
        <ele>1152.1</ele>
        <time>2020-09-19T09:35:49Z</time>
      </trkpt>
      <trkpt lat="45.56987" lon="6.08159">
        <ele>1152.135</ele>
        <time>2020-09-19T09:35:50Z</time>
      </trkpt>
      <trkpt lat="45.56991" lon="6.08158">
        <ele>1151.37</ele>
        <time>2020-09-19T09:35:57Z</time>
      </trkpt>
      <trkpt lat="45.56993" lon="6.08157">
        <ele>1151.494</ele>
        <time>2020-09-19T09:35:59Z</time>
      </trkpt>
      <trkpt lat="45.56997" lon="6.08157">
        <ele>1151.331</ele>
        <time>2020-09-19T09:36:02Z</time>
      </trkpt>
      <trkpt lat="45.56998" lon="6.08156">
        <ele>1151.381</ele>
        <time>2020-09-19T09:36:03Z</time>
      </trkpt>
      <trkpt lat="45.57001" lon="6.08155">
        <ele>1151.589</ele>
        <time>2020-09-19T09:36:06Z</time>
      </trkpt>
      <trkpt lat="45.57004" lon="6.08155">
        <ele>1150.842</ele>
        <time>2020-09-19T09:36:08Z</time>
      </trkpt>
      <trkpt lat="45.57005" lon="6.08154">
        <ele>1150.676</ele>
        <time>2020-09-19T09:36:11Z</time>
      </trkpt>
      <trkpt lat="45.57005" lon="6.08154">
        <ele>1150.654</ele>
        <time>2020-09-19T09:36:12Z</time>
      </trkpt>
      <trkpt lat="45.57005" lon="6.08153">
        <ele>1150.745</ele>
        <time>2020-09-19T09:36:13Z</time>
      </trkpt>
      <trkpt lat="45.57005" lon="6.08151">
        <ele>1151.1</ele>
        <time>2020-09-19T09:36:16Z</time>
      </trkpt>
      <trkpt lat="45.57006" lon="6.08151">
        <ele>1151.082</ele>
        <time>2020-09-19T09:36:17Z</time>
      </trkpt>
      <trkpt lat="45.57011" lon="6.08149">
        <ele>1150.962</ele>
        <time>2020-09-19T09:36:22Z</time>
      </trkpt>
      <trkpt lat="45.57014" lon="6.08145">
        <ele>1151.016</ele>
        <time>2020-09-19T09:36:26Z</time>
      </trkpt>
      <trkpt lat="45.57014" lon="6.08144">
        <ele>1151.487</ele>
        <time>2020-09-19T09:36:28Z</time>
      </trkpt>
      <trkpt lat="45.57015" lon="6.08143">
        <ele>1151.837</ele>
        <time>2020-09-19T09:36:30Z</time>
      </trkpt>
      <trkpt lat="45.57016" lon="6.08142">
        <ele>1152.539</ele>
        <time>2020-09-19T09:36:32Z</time>
      </trkpt>
      <trkpt lat="45.57016" lon="6.08142">
        <ele>1152.568</ele>
        <time>2020-09-19T09:36:33Z</time>
      </trkpt>
      <trkpt lat="45.57016" lon="6.08141">
        <ele>1152.514</ele>
        <time>2020-09-19T09:36:34Z</time>
      </trkpt>
      <trkpt lat="45.57019" lon="6.08141">
        <ele>1152.254</ele>
        <time>2020-09-19T09:36:37Z</time>
      </trkpt>
      <trkpt lat="45.57021" lon="6.08142">
        <ele>1152.27</ele>
        <time>2020-09-19T09:36:38Z</time>
      </trkpt>
      <trkpt lat="45.57024" lon="6.08141">
        <ele>1152.23</ele>
        <time>2020-09-19T09:36:39Z</time>
      </trkpt>
      <trkpt lat="45.57027" lon="6.08139">
        <ele>1152.055</ele>
        <time>2020-09-19T09:36:40Z</time>
      </trkpt>
      <trkpt lat="45.5703" lon="6.08135">
        <ele>1152.65</ele>
        <time>2020-09-19T09:36:43Z</time>
      </trkpt>
      <trkpt lat="45.57032" lon="6.08133">
        <ele>1152.418</ele>
        <time>2020-09-19T09:36:44Z</time>
      </trkpt>
      <trkpt lat="45.57036" lon="6.08128">
        <ele>1152.563</ele>
        <time>2020-09-19T09:36:47Z</time>
      </trkpt>
      <trkpt lat="45.57036" lon="6.08127">
        <ele>1152.627</ele>
        <time>2020-09-19T09:36:48Z</time>
      </trkpt>
      <trkpt lat="45.57036" lon="6.08127">
        <ele>1152.524</ele>
        <time>2020-09-19T09:36:49Z</time>
      </trkpt>
      <trkpt lat="45.57037" lon="6.08126">
        <ele>1152.662</ele>
        <time>2020-09-19T09:36:53Z</time>
      </trkpt>
      <trkpt lat="45.57037" lon="6.08126">
        <ele>1152.662</ele>
        <time>2020-09-19T09:36:53Z</time>
      </trkpt>
      <trkpt lat="45.57035" lon="6.08127">
        <ele>1152.688</ele>
        <time>2020-09-19T09:36:54Z</time>
      </trkpt>
      <trkpt lat="45.57035" lon="6.08128">
        <ele>1153.031</ele>
        <time>2020-09-19T09:36:55Z</time>
      </trkpt>
      <trkpt lat="45.57036" lon="6.08128">
        <ele>1153.27</ele>
        <time>2020-09-19T09:36:56Z</time>
      </trkpt>
      <trkpt lat="45.57037" lon="6.08129">
        <ele>1153.361</ele>
        <time>2020-09-19T09:36:57Z</time>
      </trkpt>
      <trkpt lat="45.57039" lon="6.08129">
        <ele>1153.516</ele>
        <time>2020-09-19T09:36:58Z</time>
      </trkpt>
      <trkpt lat="45.57039" lon="6.08129">
        <ele>1153.29</ele>
        <time>2020-09-19T09:36:59Z</time>
      </trkpt>
      <trkpt lat="45.5704" lon="6.08127">
        <ele>1152.838</ele>
        <time>2020-09-19T09:37:00Z</time>
      </trkpt>
      <trkpt lat="45.57041" lon="6.08124">
        <ele>1152.273</ele>
        <time>2020-09-19T09:37:03Z</time>
      </trkpt>
      <trkpt lat="45.57041" lon="6.08124">
        <ele>1152.273</ele>
        <time>2020-09-19T09:37:03Z</time>
      </trkpt>
      <trkpt lat="45.57042" lon="6.08124">
        <ele>1152.488</ele>
        <time>2020-09-19T09:37:04Z</time>
      </trkpt>
      <trkpt lat="45.57043" lon="6.08124">
        <ele>1152.538</ele>
        <time>2020-09-19T09:37:05Z</time>
      </trkpt>
      <trkpt lat="45.57042" lon="6.08123">
        <ele>1152.661</ele>
        <time>2020-09-19T09:37:06Z</time>
      </trkpt>
      <trkpt lat="45.57043" lon="6.08119">
        <ele>1153.205</ele>
        <time>2020-09-19T09:37:09Z</time>
      </trkpt>
      <trkpt lat="45.57044" lon="6.08118">
        <ele>1152.917</ele>
        <time>2020-09-19T09:37:10Z</time>
      </trkpt>
      <trkpt lat="45.57051" lon="6.08115">
        <ele>1153.093</ele>
        <time>2020-09-19T09:37:13Z</time>
      </trkpt>
      <trkpt lat="45.57053" lon="6.08112">
        <ele>1153.338</ele>
        <time>2020-09-19T09:37:14Z</time>
      </trkpt>
      <trkpt lat="45.57057" lon="6.08106">
        <ele>1153.432</ele>
        <time>2020-09-19T09:37:17Z</time>
      </trkpt>
      <trkpt lat="45.57056" lon="6.08105">
        <ele>1153.608</ele>
        <time>2020-09-19T09:37:18Z</time>
      </trkpt>
      <trkpt lat="45.57055" lon="6.08104">
        <ele>1153.505</ele>
        <time>2020-09-19T09:37:20Z</time>
      </trkpt>
      <trkpt lat="45.57055" lon="6.08104">
        <ele>1153.505</ele>
        <time>2020-09-19T09:37:20Z</time>
      </trkpt>
      <trkpt lat="45.57055" lon="6.08104">
        <ele>1153.492</ele>
        <time>2020-09-19T09:37:21Z</time>
      </trkpt>
      <trkpt lat="45.57055" lon="6.08103">
        <ele>1153.557</ele>
        <time>2020-09-19T09:37:23Z</time>
      </trkpt>
      <trkpt lat="45.57055" lon="6.08103">
        <ele>1153.954</ele>
        <time>2020-09-19T09:37:25Z</time>
      </trkpt>
      <trkpt lat="45.57056" lon="6.08102">
        <ele>1154.317</ele>
        <time>2020-09-19T09:37:28Z</time>
      </trkpt>
      <trkpt lat="45.57056" lon="6.08102">
        <ele>1154.317</ele>
        <time>2020-09-19T09:37:28Z</time>
      </trkpt>
      <trkpt lat="45.57056" lon="6.08101">
        <ele>1154.407</ele>
        <time>2020-09-19T09:37:29Z</time>
      </trkpt>
      <trkpt lat="45.57057" lon="6.081">
        <ele>1154.643</ele>
        <time>2020-09-19T09:37:34Z</time>
      </trkpt>
      <trkpt lat="45.5706" lon="6.08098">
        <ele>1155</ele>
        <time>2020-09-19T09:37:36Z</time>
      </trkpt>
      <trkpt lat="45.57065" lon="6.08094">
        <ele>1155.525</ele>
        <time>2020-09-19T09:37:40Z</time>
      </trkpt>
      <trkpt lat="45.57075" lon="6.08089">
        <ele>1155.623</ele>
        <time>2020-09-19T09:37:46Z</time>
      </trkpt>
      <trkpt lat="45.57085" lon="6.08082">
        <ele>1156.615</ele>
        <time>2020-09-19T09:37:56Z</time>
      </trkpt>
      <trkpt lat="45.57085" lon="6.08082">
        <ele>1156.615</ele>
        <time>2020-09-19T09:37:56Z</time>
      </trkpt>
      <trkpt lat="45.57085" lon="6.08081">
        <ele>1156.599</ele>
        <time>2020-09-19T09:37:57Z</time>
      </trkpt>
      <trkpt lat="45.57085" lon="6.08081">
        <ele>1156.586</ele>
        <time>2020-09-19T09:37:58Z</time>
      </trkpt>
      <trkpt lat="45.57087" lon="6.0808">
        <ele>1157.581</ele>
        <time>2020-09-19T09:38:04Z</time>
      </trkpt>
      <trkpt lat="45.57087" lon="6.0808">
        <ele>1157.581</ele>
        <time>2020-09-19T09:38:04Z</time>
      </trkpt>
      <trkpt lat="45.57088" lon="6.0808">
        <ele>1157.566</ele>
        <time>2020-09-19T09:38:06Z</time>
      </trkpt>
      <trkpt lat="45.57089" lon="6.0808">
        <ele>1157.333</ele>
        <time>2020-09-19T09:38:08Z</time>
      </trkpt>
      <trkpt lat="45.57089" lon="6.0808">
        <ele>1157.106</ele>
        <time>2020-09-19T09:38:09Z</time>
      </trkpt>
      <trkpt lat="45.57088" lon="6.0808">
        <ele>1157.009</ele>
        <time>2020-09-19T09:38:11Z</time>
      </trkpt>
      <trkpt lat="45.57088" lon="6.0808">
        <ele>1157.009</ele>
        <time>2020-09-19T09:38:11Z</time>
      </trkpt>
      <trkpt lat="45.57088" lon="6.08079">
        <ele>1156.92</ele>
        <time>2020-09-19T09:38:12Z</time>
      </trkpt>
      <trkpt lat="45.57088" lon="6.08079">
        <ele>1156.92</ele>
        <time>2020-09-19T09:38:12Z</time>
      </trkpt>
      <trkpt lat="45.57088" lon="6.08079">
        <ele>1156.733</ele>
        <time>2020-09-19T09:38:13Z</time>
      </trkpt>
      <trkpt lat="45.57088" lon="6.08079">
        <ele>1156.733</ele>
        <time>2020-09-19T09:38:13Z</time>
      </trkpt>
      <trkpt lat="45.57088" lon="6.08078">
        <ele>1156.323</ele>
        <time>2020-09-19T09:38:14Z</time>
      </trkpt>
      <trkpt lat="45.57088" lon="6.08078">
        <ele>1156.539</ele>
        <time>2020-09-19T09:38:15Z</time>
      </trkpt>
      <trkpt lat="45.57088" lon="6.08078">
        <ele>1156.539</ele>
        <time>2020-09-19T09:38:15Z</time>
      </trkpt>
      <trkpt lat="45.57088" lon="6.08078">
        <ele>1156.134</ele>
        <time>2020-09-19T09:38:16Z</time>
      </trkpt>
      <trkpt lat="45.57088" lon="6.08078">
        <ele>1156.134</ele>
        <time>2020-09-19T09:38:16Z</time>
      </trkpt>
      <trkpt lat="45.57089" lon="6.08077">
        <ele>1155.726</ele>
        <time>2020-09-19T09:38:17Z</time>
      </trkpt>
      <trkpt lat="45.57092" lon="6.08075">
        <ele>1154.616</ele>
        <time>2020-09-19T09:38:20Z</time>
      </trkpt>
      <trkpt lat="45.57095" lon="6.08075">
        <ele>1154.722</ele>
        <time>2020-09-19T09:38:22Z</time>
      </trkpt>
      <trkpt lat="45.57096" lon="6.08075">
        <ele>1154.825</ele>
        <time>2020-09-19T09:38:23Z</time>
      </trkpt>
      <trkpt lat="45.57099" lon="6.08074">
        <ele>1156.321</ele>
        <time>2020-09-19T09:38:27Z</time>
      </trkpt>
      <trkpt lat="45.571" lon="6.08073">
        <ele>1156.39</ele>
        <time>2020-09-19T09:38:30Z</time>
      </trkpt>
      <trkpt lat="45.57096" lon="6.08073">
        <ele>1156.7</ele>
        <time>2020-09-19T09:38:33Z</time>
      </trkpt>
      <trkpt lat="45.57096" lon="6.08073">
        <ele>1156.809</ele>
        <time>2020-09-19T09:38:34Z</time>
      </trkpt>
      <trkpt lat="45.57096" lon="6.08073">
        <ele>1156.809</ele>
        <time>2020-09-19T09:38:34Z</time>
      </trkpt>
      <trkpt lat="45.57095" lon="6.08072">
        <ele>1156.635</ele>
        <time>2020-09-19T09:38:35Z</time>
      </trkpt>
      <trkpt lat="45.57094" lon="6.08072">
        <ele>1156.82</ele>
        <time>2020-09-19T09:38:36Z</time>
      </trkpt>
      <trkpt lat="45.57093" lon="6.08071">
        <ele>1156.792</ele>
        <time>2020-09-19T09:38:38Z</time>
      </trkpt>
      <trkpt lat="45.57093" lon="6.08071">
        <ele>1156.88</ele>
        <time>2020-09-19T09:38:39Z</time>
      </trkpt>
      <trkpt lat="45.57093" lon="6.08069">
        <ele>1157.392</ele>
        <time>2020-09-19T09:38:43Z</time>
      </trkpt>
      <trkpt lat="45.57095" lon="6.08065">
        <ele>1158.988</ele>
        <time>2020-09-19T09:38:47Z</time>
      </trkpt>
      <trkpt lat="45.57097" lon="6.08063">
        <ele>1159.934</ele>
        <time>2020-09-19T09:38:51Z</time>
      </trkpt>
      <trkpt lat="45.57098" lon="6.08064">
        <ele>1160.234</ele>
        <time>2020-09-19T09:38:53Z</time>
      </trkpt>
      <trkpt lat="45.571" lon="6.08065">
        <ele>1161.238</ele>
        <time>2020-09-19T09:38:56Z</time>
      </trkpt>
      <trkpt lat="45.571" lon="6.08065">
        <ele>1161.184</ele>
        <time>2020-09-19T09:38:57Z</time>
      </trkpt>
      <trkpt lat="45.57099" lon="6.08066">
        <ele>1161.346</ele>
        <time>2020-09-19T09:38:58Z</time>
      </trkpt>
      <trkpt lat="45.57101" lon="6.08067">
        <ele>1161.329</ele>
        <time>2020-09-19T09:39:01Z</time>
      </trkpt>
      <trkpt lat="45.57105" lon="6.08069">
        <ele>1161.703</ele>
        <time>2020-09-19T09:39:04Z</time>
      </trkpt>
      <trkpt lat="45.57108" lon="6.08068">
        <ele>1161.584</ele>
        <time>2020-09-19T09:39:07Z</time>
      </trkpt>
      <trkpt lat="45.57109" lon="6.08066">
        <ele>1162.404</ele>
        <time>2020-09-19T09:39:10Z</time>
      </trkpt>
      <trkpt lat="45.57109" lon="6.08065">
        <ele>1162.195</ele>
        <time>2020-09-19T09:39:12Z</time>
      </trkpt>
      <trkpt lat="45.57108" lon="6.08066">
        <ele>1162.099</ele>
        <time>2020-09-19T09:39:13Z</time>
      </trkpt>
      <trkpt lat="45.57111" lon="6.08067">
        <ele>1162.006</ele>
        <time>2020-09-19T09:39:20Z</time>
      </trkpt>
      <trkpt lat="45.57114" lon="6.08066">
        <ele>1160.808</ele>
        <time>2020-09-19T09:39:26Z</time>
      </trkpt>
      <trkpt lat="45.57115" lon="6.08068">
        <ele>1160.157</ele>
        <time>2020-09-19T09:39:28Z</time>
      </trkpt>
      <trkpt lat="45.57118" lon="6.08069">
        <ele>1160.809</ele>
        <time>2020-09-19T09:39:31Z</time>
      </trkpt>
      <trkpt lat="45.57119" lon="6.08068">
        <ele>1161.65</ele>
        <time>2020-09-19T09:39:33Z</time>
      </trkpt>
      <trkpt lat="45.5712" lon="6.08068">
        <ele>1162.084</ele>
        <time>2020-09-19T09:39:35Z</time>
      </trkpt>
      <trkpt lat="45.57122" lon="6.08067">
        <ele>1162.174</ele>
        <time>2020-09-19T09:39:37Z</time>
      </trkpt>
      <trkpt lat="45.57122" lon="6.08067">
        <ele>1162.174</ele>
        <time>2020-09-19T09:39:37Z</time>
      </trkpt>
      <trkpt lat="45.57123" lon="6.08066">
        <ele>1161.255</ele>
        <time>2020-09-19T09:39:38Z</time>
      </trkpt>
      <trkpt lat="45.57124" lon="6.08064">
        <ele>1161.297</ele>
        <time>2020-09-19T09:39:40Z</time>
      </trkpt>
      <trkpt lat="45.57122" lon="6.08063">
        <ele>1162.757</ele>
        <time>2020-09-19T09:39:44Z</time>
      </trkpt>
      <trkpt lat="45.57119" lon="6.08064">
        <ele>1164.07</ele>
        <time>2020-09-19T09:39:48Z</time>
      </trkpt>
      <trkpt lat="45.57119" lon="6.08064">
        <ele>1164.23</ele>
        <time>2020-09-19T09:39:48Z</time>
      </trkpt>
      <trkpt lat="45.57119" lon="6.08064">
        <ele>1164.512</ele>
        <time>2020-09-19T09:39:49Z</time>
      </trkpt>
      <trkpt lat="45.57117" lon="6.08059">
        <ele>1165.111</ele>
        <time>2020-09-19T09:39:55Z</time>
      </trkpt>
      <trkpt lat="45.57113" lon="6.08056">
        <ele>1165.238</ele>
        <time>2020-09-19T09:39:58Z</time>
      </trkpt>
      <trkpt lat="45.57112" lon="6.08055">
        <ele>1165.451</ele>
        <time>2020-09-19T09:39:59Z</time>
      </trkpt>
      <trkpt lat="45.57112" lon="6.08055">
        <ele>1167.051</ele>
        <time>2020-09-19T09:40:02Z</time>
      </trkpt>
      <trkpt lat="45.57112" lon="6.08055">
        <ele>1167.051</ele>
        <time>2020-09-19T09:40:02Z</time>
      </trkpt>
      <trkpt lat="45.57111" lon="6.08055">
        <ele>1166.942</ele>
        <time>2020-09-19T09:40:03Z</time>
      </trkpt>
      <trkpt lat="45.57113" lon="6.08052">
        <ele>1166.923</ele>
        <time>2020-09-19T09:40:09Z</time>
      </trkpt>
      <trkpt lat="45.57116" lon="6.08053">
        <ele>1166.393</ele>
        <time>2020-09-19T09:40:12Z</time>
      </trkpt>
      <trkpt lat="45.57117" lon="6.08053">
        <ele>1166.282</ele>
        <time>2020-09-19T09:40:14Z</time>
      </trkpt>
      <trkpt lat="45.57117" lon="6.08053">
        <ele>1166.282</ele>
        <time>2020-09-19T09:40:14Z</time>
      </trkpt>
      <trkpt lat="45.57118" lon="6.08053">
        <ele>1166.854</ele>
        <time>2020-09-19T09:40:15Z</time>
      </trkpt>
      <trkpt lat="45.57121" lon="6.08051">
        <ele>1166.186</ele>
        <time>2020-09-19T09:40:19Z</time>
      </trkpt>
      <trkpt lat="45.57123" lon="6.08049">
        <ele>1166.402</ele>
        <time>2020-09-19T09:40:22Z</time>
      </trkpt>
      <trkpt lat="45.57124" lon="6.08048">
        <ele>1166.477</ele>
        <time>2020-09-19T09:40:24Z</time>
      </trkpt>
      <trkpt lat="45.57124" lon="6.08048">
        <ele>1166.189</ele>
        <time>2020-09-19T09:40:25Z</time>
      </trkpt>
      <trkpt lat="45.57123" lon="6.08047">
        <ele>1166.096</ele>
        <time>2020-09-19T09:40:27Z</time>
      </trkpt>
      <trkpt lat="45.57124" lon="6.08044">
        <ele>1166.046</ele>
        <time>2020-09-19T09:40:31Z</time>
      </trkpt>
      <trkpt lat="45.57126" lon="6.08043">
        <ele>1166.271</ele>
        <time>2020-09-19T09:40:34Z</time>
      </trkpt>
      <trkpt lat="45.57128" lon="6.08042">
        <ele>1166.935</ele>
        <time>2020-09-19T09:40:37Z</time>
      </trkpt>
      <trkpt lat="45.57128" lon="6.08041">
        <ele>1167.087</ele>
        <time>2020-09-19T09:40:39Z</time>
      </trkpt>
      <trkpt lat="45.57128" lon="6.08041">
        <ele>1167.087</ele>
        <time>2020-09-19T09:40:39Z</time>
      </trkpt>
      <trkpt lat="45.5713" lon="6.0804">
        <ele>1167.032</ele>
        <time>2020-09-19T09:40:40Z</time>
      </trkpt>
      <trkpt lat="45.57131" lon="6.0804">
        <ele>1167.535</ele>
        <time>2020-09-19T09:40:41Z</time>
      </trkpt>
      <trkpt lat="45.57132" lon="6.0804">
        <ele>1167.573</ele>
        <time>2020-09-19T09:40:42Z</time>
      </trkpt>
      <trkpt lat="45.57135" lon="6.08038">
        <ele>1168.172</ele>
        <time>2020-09-19T09:40:45Z</time>
      </trkpt>
      <trkpt lat="45.57137" lon="6.08036">
        <ele>1168.75</ele>
        <time>2020-09-19T09:40:49Z</time>
      </trkpt>
      <trkpt lat="45.57139" lon="6.08036">
        <ele>1168.514</ele>
        <time>2020-09-19T09:40:51Z</time>
      </trkpt>
      <trkpt lat="45.57145" lon="6.08035">
        <ele>1168.645</ele>
        <time>2020-09-19T09:40:56Z</time>
      </trkpt>
      <trkpt lat="45.57152" lon="6.08032">
        <ele>1168.689</ele>
        <time>2020-09-19T09:41:01Z</time>
      </trkpt>
      <trkpt lat="45.57156" lon="6.08029">
        <ele>1168.734</ele>
        <time>2020-09-19T09:41:04Z</time>
      </trkpt>
      <trkpt lat="45.57156" lon="6.08025">
        <ele>1168.654</ele>
        <time>2020-09-19T09:41:07Z</time>
      </trkpt>
      <trkpt lat="45.57155" lon="6.08022">
        <ele>1168.612</ele>
        <time>2020-09-19T09:41:10Z</time>
      </trkpt>
      <trkpt lat="45.57154" lon="6.08021">
        <ele>1169.032</ele>
        <time>2020-09-19T09:41:13Z</time>
      </trkpt>
      <trkpt lat="45.57156" lon="6.0802">
        <ele>1170.185</ele>
        <time>2020-09-19T09:41:17Z</time>
      </trkpt>
      <trkpt lat="45.57159" lon="6.08019">
        <ele>1170.562</ele>
        <time>2020-09-19T09:41:21Z</time>
      </trkpt>
      <trkpt lat="45.57159" lon="6.08022">
        <ele>1170.768</ele>
        <time>2020-09-19T09:41:24Z</time>
      </trkpt>
      <trkpt lat="45.5716" lon="6.08023">
        <ele>1171.344</ele>
        <time>2020-09-19T09:41:26Z</time>
      </trkpt>
      <trkpt lat="45.5716" lon="6.08021">
        <ele>1170.95</ele>
        <time>2020-09-19T09:41:32Z</time>
      </trkpt>
      <trkpt lat="45.5716" lon="6.08021">
        <ele>1171.442</ele>
        <time>2020-09-19T09:41:33Z</time>
      </trkpt>
      <trkpt lat="45.5716" lon="6.0802">
        <ele>1171.654</ele>
        <time>2020-09-19T09:41:34Z</time>
      </trkpt>
      <trkpt lat="45.57161" lon="6.08019">
        <ele>1171.122</ele>
        <time>2020-09-19T09:41:35Z</time>
      </trkpt>
      <trkpt lat="45.57161" lon="6.08018">
        <ele>1170.539</ele>
        <time>2020-09-19T09:41:36Z</time>
      </trkpt>
      <trkpt lat="45.57162" lon="6.08017">
        <ele>1170.736</ele>
        <time>2020-09-19T09:41:37Z</time>
      </trkpt>
      <trkpt lat="45.57163" lon="6.08014">
        <ele>1171.13</ele>
        <time>2020-09-19T09:41:40Z</time>
      </trkpt>
      <trkpt lat="45.57164" lon="6.08013">
        <ele>1171.272</ele>
        <time>2020-09-19T09:41:42Z</time>
      </trkpt>
      <trkpt lat="45.57165" lon="6.08013">
        <ele>1171.452</ele>
        <time>2020-09-19T09:41:43Z</time>
      </trkpt>
      <trkpt lat="45.57169" lon="6.08011">
        <ele>1171.12</ele>
        <time>2020-09-19T09:41:47Z</time>
      </trkpt>
      <trkpt lat="45.5717" lon="6.08012">
        <ele>1171.576</ele>
        <time>2020-09-19T09:41:49Z</time>
      </trkpt>
      <trkpt lat="45.5717" lon="6.08011">
        <ele>1172.474</ele>
        <time>2020-09-19T09:41:50Z</time>
      </trkpt>
      <trkpt lat="45.5717" lon="6.08011">
        <ele>1172.474</ele>
        <time>2020-09-19T09:41:50Z</time>
      </trkpt>
      <trkpt lat="45.57171" lon="6.08011">
        <ele>1172.908</ele>
        <time>2020-09-19T09:41:51Z</time>
      </trkpt>
      <trkpt lat="45.57172" lon="6.0801">
        <ele>1173.108</ele>
        <time>2020-09-19T09:41:52Z</time>
      </trkpt>
      <trkpt lat="45.57178" lon="6.08008">
        <ele>1173.677</ele>
        <time>2020-09-19T09:41:59Z</time>
      </trkpt>
      <trkpt lat="45.57178" lon="6.08008">
        <ele>1173.601</ele>
        <time>2020-09-19T09:42:00Z</time>
      </trkpt>
      <trkpt lat="45.57178" lon="6.08008">
        <ele>1173.601</ele>
        <time>2020-09-19T09:42:00Z</time>
      </trkpt>
      <trkpt lat="45.57179" lon="6.08008">
        <ele>1173.823</ele>
        <time>2020-09-19T09:42:01Z</time>
      </trkpt>
      <trkpt lat="45.5718" lon="6.08007">
        <ele>1173.645</ele>
        <time>2020-09-19T09:42:03Z</time>
      </trkpt>
      <trkpt lat="45.57179" lon="6.08006">
        <ele>1173.482</ele>
        <time>2020-09-19T09:42:04Z</time>
      </trkpt>
      <trkpt lat="45.57179" lon="6.08006">
        <ele>1173.482</ele>
        <time>2020-09-19T09:42:04Z</time>
      </trkpt>
      <trkpt lat="45.57179" lon="6.08005">
        <ele>1173.193</ele>
        <time>2020-09-19T09:42:05Z</time>
      </trkpt>
      <trkpt lat="45.57179" lon="6.08004">
        <ele>1174.173</ele>
        <time>2020-09-19T09:42:07Z</time>
      </trkpt>
      <trkpt lat="45.57179" lon="6.08003">
        <ele>1174.459</ele>
        <time>2020-09-19T09:42:09Z</time>
      </trkpt>
      <trkpt lat="45.57181" lon="6.08002">
        <ele>1174.379</ele>
        <time>2020-09-19T09:42:11Z</time>
      </trkpt>
      <trkpt lat="45.57183" lon="6.07997">
        <ele>1175.2</ele>
        <time>2020-09-19T09:42:16Z</time>
      </trkpt>
      <trkpt lat="45.57184" lon="6.07996">
        <ele>1174.93</ele>
        <time>2020-09-19T09:42:19Z</time>
      </trkpt>
      <trkpt lat="45.57186" lon="6.07999">
        <ele>1175.67</ele>
        <time>2020-09-19T09:42:22Z</time>
      </trkpt>
      <trkpt lat="45.57186" lon="6.08">
        <ele>1175.525</ele>
        <time>2020-09-19T09:42:23Z</time>
      </trkpt>
      <trkpt lat="45.57186" lon="6.08002">
        <ele>1175.766</ele>
        <time>2020-09-19T09:42:27Z</time>
      </trkpt>
      <trkpt lat="45.57186" lon="6.08002">
        <ele>1175.891</ele>
        <time>2020-09-19T09:42:29Z</time>
      </trkpt>
      <trkpt lat="45.57189" lon="6.08001">
        <ele>1175.569</ele>
        <time>2020-09-19T09:42:32Z</time>
      </trkpt>
      <trkpt lat="45.57192" lon="6.07999">
        <ele>1175.357</ele>
        <time>2020-09-19T09:42:35Z</time>
      </trkpt>
      <trkpt lat="45.57193" lon="6.07998">
        <ele>1175.332</ele>
        <time>2020-09-19T09:42:37Z</time>
      </trkpt>
      <trkpt lat="45.57193" lon="6.07997">
        <ele>1174.733</ele>
        <time>2020-09-19T09:42:38Z</time>
      </trkpt>
      <trkpt lat="45.57196" lon="6.07995">
        <ele>1174.732</ele>
        <time>2020-09-19T09:42:42Z</time>
      </trkpt>
      <trkpt lat="45.57196" lon="6.07993">
        <ele>1174.437</ele>
        <time>2020-09-19T09:42:45Z</time>
      </trkpt>
      <trkpt lat="45.57196" lon="6.07993">
        <ele>1174.437</ele>
        <time>2020-09-19T09:42:45Z</time>
      </trkpt>
      <trkpt lat="45.57196" lon="6.07993">
        <ele>1174.603</ele>
        <time>2020-09-19T09:42:46Z</time>
      </trkpt>
      <trkpt lat="45.57195" lon="6.07993">
        <ele>1174.613</ele>
        <time>2020-09-19T09:42:47Z</time>
      </trkpt>
      <trkpt lat="45.57195" lon="6.07992">
        <ele>1174.22</ele>
        <time>2020-09-19T09:42:48Z</time>
      </trkpt>
      <trkpt lat="45.57194" lon="6.07988">
        <ele>1174.34</ele>
        <time>2020-09-19T09:42:51Z</time>
      </trkpt>
      <trkpt lat="45.57193" lon="6.07988">
        <ele>1174.76</ele>
        <time>2020-09-19T09:42:52Z</time>
      </trkpt>
      <trkpt lat="45.57193" lon="6.07985">
        <ele>1175.022</ele>
        <time>2020-09-19T09:42:55Z</time>
      </trkpt>
      <trkpt lat="45.57194" lon="6.07984">
        <ele>1176.091</ele>
        <time>2020-09-19T09:42:57Z</time>
      </trkpt>
      <trkpt lat="45.57196" lon="6.07979">
        <ele>1176.509</ele>
        <time>2020-09-19T09:43:00Z</time>
      </trkpt>
      <trkpt lat="45.57199" lon="6.07976">
        <ele>1176.788</ele>
        <time>2020-09-19T09:43:04Z</time>
      </trkpt>
      <trkpt lat="45.57199" lon="6.07975">
        <ele>1177.054</ele>
        <time>2020-09-19T09:43:06Z</time>
      </trkpt>
      <trkpt lat="45.572" lon="6.07974">
        <ele>1176.968</ele>
        <time>2020-09-19T09:43:07Z</time>
      </trkpt>
      <trkpt lat="45.572" lon="6.07973">
        <ele>1176.729</ele>
        <time>2020-09-19T09:43:08Z</time>
      </trkpt>
      <trkpt lat="45.572" lon="6.07972">
        <ele>1177.505</ele>
        <time>2020-09-19T09:43:09Z</time>
      </trkpt>
      <trkpt lat="45.57201" lon="6.07971">
        <ele>1177.256</ele>
        <time>2020-09-19T09:43:12Z</time>
      </trkpt>
      <trkpt lat="45.57201" lon="6.07971">
        <ele>1177.256</ele>
        <time>2020-09-19T09:43:12Z</time>
      </trkpt>
      <trkpt lat="45.57202" lon="6.07971">
        <ele>1176.925</ele>
        <time>2020-09-19T09:43:13Z</time>
      </trkpt>
      <trkpt lat="45.57202" lon="6.07969">
        <ele>1176.717</ele>
        <time>2020-09-19T09:43:15Z</time>
      </trkpt>
      <trkpt lat="45.57202" lon="6.07969">
        <ele>1176.555</ele>
        <time>2020-09-19T09:43:16Z</time>
      </trkpt>
      <trkpt lat="45.57201" lon="6.07968">
        <ele>1176.713</ele>
        <time>2020-09-19T09:43:18Z</time>
      </trkpt>
      <trkpt lat="45.57204" lon="6.07965">
        <ele>1177.499</ele>
        <time>2020-09-19T09:43:23Z</time>
      </trkpt>
      <trkpt lat="45.57205" lon="6.07961">
        <ele>1177.35</ele>
        <time>2020-09-19T09:43:26Z</time>
      </trkpt>
      <trkpt lat="45.57205" lon="6.0796">
        <ele>1177.294</ele>
        <time>2020-09-19T09:43:27Z</time>
      </trkpt>
      <trkpt lat="45.57207" lon="6.07958">
        <ele>1177.836</ele>
        <time>2020-09-19T09:43:30Z</time>
      </trkpt>
      <trkpt lat="45.57208" lon="6.07957">
        <ele>1177.367</ele>
        <time>2020-09-19T09:43:32Z</time>
      </trkpt>
      <trkpt lat="45.5721" lon="6.07956">
        <ele>1177.393</ele>
        <time>2020-09-19T09:43:34Z</time>
      </trkpt>
      <trkpt lat="45.5721" lon="6.07959">
        <ele>1177.89</ele>
        <time>2020-09-19T09:43:37Z</time>
      </trkpt>
      <trkpt lat="45.57209" lon="6.0796">
        <ele>1177.982</ele>
        <time>2020-09-19T09:43:39Z</time>
      </trkpt>
      <trkpt lat="45.57207" lon="6.07961">
        <ele>1178.549</ele>
        <time>2020-09-19T09:43:41Z</time>
      </trkpt>
      <trkpt lat="45.57205" lon="6.07962">
        <ele>1179.168</ele>
        <time>2020-09-19T09:43:44Z</time>
      </trkpt>
      <trkpt lat="45.57203" lon="6.07964">
        <ele>1179.471</ele>
        <time>2020-09-19T09:43:47Z</time>
      </trkpt>
      <trkpt lat="45.57203" lon="6.07965">
        <ele>1179.602</ele>
        <time>2020-09-19T09:43:48Z</time>
      </trkpt>
      <trkpt lat="45.572" lon="6.07968">
        <ele>1180.48</ele>
        <time>2020-09-19T09:43:52Z</time>
      </trkpt>
      <trkpt lat="45.57197" lon="6.07969">
        <ele>1180.533</ele>
        <time>2020-09-19T09:43:55Z</time>
      </trkpt>
      <trkpt lat="45.57197" lon="6.07969">
        <ele>1180.694</ele>
        <time>2020-09-19T09:43:56Z</time>
      </trkpt>
      <trkpt lat="45.57197" lon="6.07969">
        <ele>1180.694</ele>
        <time>2020-09-19T09:43:56Z</time>
      </trkpt>
      <trkpt lat="45.57196" lon="6.07969">
        <ele>1180.854</ele>
        <time>2020-09-19T09:43:57Z</time>
      </trkpt>
      <trkpt lat="45.57193" lon="6.07972">
        <ele>1181.381</ele>
        <time>2020-09-19T09:44:01Z</time>
      </trkpt>
      <trkpt lat="45.57192" lon="6.07971">
        <ele>1181.173</ele>
        <time>2020-09-19T09:44:03Z</time>
      </trkpt>
      <trkpt lat="45.57192" lon="6.0797">
        <ele>1180.978</ele>
        <time>2020-09-19T09:44:04Z</time>
      </trkpt>
      <trkpt lat="45.57191" lon="6.0797">
        <ele>1181.021</ele>
        <time>2020-09-19T09:44:06Z</time>
      </trkpt>
      <trkpt lat="45.57189" lon="6.07969">
        <ele>1181.138</ele>
        <time>2020-09-19T09:44:08Z</time>
      </trkpt>
      <trkpt lat="45.57186" lon="6.07969">
        <ele>1182.22</ele>
        <time>2020-09-19T09:44:12Z</time>
      </trkpt>
      <trkpt lat="45.57183" lon="6.0797">
        <ele>1182.347</ele>
        <time>2020-09-19T09:44:15Z</time>
      </trkpt>
      <trkpt lat="45.57176" lon="6.07972">
        <ele>1183.331</ele>
        <time>2020-09-19T09:44:22Z</time>
      </trkpt>
      <trkpt lat="45.57175" lon="6.07973">
        <ele>1183.277</ele>
        <time>2020-09-19T09:44:24Z</time>
      </trkpt>
      <trkpt lat="45.57175" lon="6.07974">
        <ele>1183.217</ele>
        <time>2020-09-19T09:44:28Z</time>
      </trkpt>
      <trkpt lat="45.57175" lon="6.07974">
        <ele>1183.461</ele>
        <time>2020-09-19T09:44:29Z</time>
      </trkpt>
      <trkpt lat="45.57174" lon="6.07974">
        <ele>1183.268</ele>
        <time>2020-09-19T09:44:33Z</time>
      </trkpt>
      <trkpt lat="45.57174" lon="6.07974">
        <ele>1183.268</ele>
        <time>2020-09-19T09:44:33Z</time>
      </trkpt>
      <trkpt lat="45.57174" lon="6.07973">
        <ele>1183.548</ele>
        <time>2020-09-19T09:44:34Z</time>
      </trkpt>
      <trkpt lat="45.57174" lon="6.07973">
        <ele>1183.576</ele>
        <time>2020-09-19T09:44:35Z</time>
      </trkpt>
      <trkpt lat="45.57174" lon="6.07973">
        <ele>1183.576</ele>
        <time>2020-09-19T09:44:35Z</time>
      </trkpt>
      <trkpt lat="45.57174" lon="6.07971">
        <ele>1183.876</ele>
        <time>2020-09-19T09:44:36Z</time>
      </trkpt>
      <trkpt lat="45.57173" lon="6.07971">
        <ele>1183.747</ele>
        <time>2020-09-19T09:44:37Z</time>
      </trkpt>
      <trkpt lat="45.57173" lon="6.0797">
        <ele>1184.238</ele>
        <time>2020-09-19T09:44:38Z</time>
      </trkpt>
      <trkpt lat="45.57173" lon="6.07969">
        <ele>1184.545</ele>
        <time>2020-09-19T09:44:39Z</time>
      </trkpt>
      <trkpt lat="45.57172" lon="6.07968">
        <ele>1184.93</ele>
        <time>2020-09-19T09:44:40Z</time>
      </trkpt>
      <trkpt lat="45.57171" lon="6.07968">
        <ele>1185.145</ele>
        <time>2020-09-19T09:44:42Z</time>
      </trkpt>
      <trkpt lat="45.57171" lon="6.07968">
        <ele>1185.099</ele>
        <time>2020-09-19T09:44:43Z</time>
      </trkpt>
      <trkpt lat="45.57171" lon="6.07968">
        <ele>1185.282</ele>
        <time>2020-09-19T09:44:44Z</time>
      </trkpt>
      <trkpt lat="45.5717" lon="6.07968">
        <ele>1186.57</ele>
        <time>2020-09-19T09:44:47Z</time>
      </trkpt>
      <trkpt lat="45.57165" lon="6.07969">
        <ele>1186.957</ele>
        <time>2020-09-19T09:44:52Z</time>
      </trkpt>
      <trkpt lat="45.57161" lon="6.07968">
        <ele>1187.77</ele>
        <time>2020-09-19T09:44:56Z</time>
      </trkpt>
      <trkpt lat="45.57161" lon="6.07968">
        <ele>1187.77</ele>
        <time>2020-09-19T09:44:56Z</time>
      </trkpt>
      <trkpt lat="45.57161" lon="6.07968">
        <ele>1187.69</ele>
        <time>2020-09-19T09:44:57Z</time>
      </trkpt>
      <trkpt lat="45.57157" lon="6.07966">
        <ele>1188.878</ele>
        <time>2020-09-19T09:45:02Z</time>
      </trkpt>
      <trkpt lat="45.57156" lon="6.07964">
        <ele>1190.063</ele>
        <time>2020-09-19T09:45:05Z</time>
      </trkpt>
      <trkpt lat="45.57156" lon="6.07964">
        <ele>1190.266</ele>
        <time>2020-09-19T09:45:06Z</time>
      </trkpt>
      <trkpt lat="45.57156" lon="6.07964">
        <ele>1190.266</ele>
        <time>2020-09-19T09:45:06Z</time>
      </trkpt>
      <trkpt lat="45.57156" lon="6.07964">
        <ele>1190.226</ele>
        <time>2020-09-19T09:45:07Z</time>
      </trkpt>
      <trkpt lat="45.57155" lon="6.07963">
        <ele>1190.15</ele>
        <time>2020-09-19T09:45:09Z</time>
      </trkpt>
      <trkpt lat="45.57155" lon="6.07963">
        <ele>1190.15</ele>
        <time>2020-09-19T09:45:09Z</time>
      </trkpt>
      <trkpt lat="45.57155" lon="6.07962">
        <ele>1190.237</ele>
        <time>2020-09-19T09:45:10Z</time>
      </trkpt>
      <trkpt lat="45.57154" lon="6.0796">
        <ele>1190.887</ele>
        <time>2020-09-19T09:45:12Z</time>
      </trkpt>
      <trkpt lat="45.57153" lon="6.07958">
        <ele>1190.925</ele>
        <time>2020-09-19T09:45:15Z</time>
      </trkpt>
      <trkpt lat="45.5715" lon="6.07954">
        <ele>1190.426</ele>
        <time>2020-09-19T09:45:21Z</time>
      </trkpt>
      <trkpt lat="45.5715" lon="6.07953">
        <ele>1190.585</ele>
        <time>2020-09-19T09:45:23Z</time>
      </trkpt>
      <trkpt lat="45.57149" lon="6.07953">
        <ele>1190.789</ele>
        <time>2020-09-19T09:45:24Z</time>
      </trkpt>
      <trkpt lat="45.57148" lon="6.07952">
        <ele>1190.791</ele>
        <time>2020-09-19T09:45:26Z</time>
      </trkpt>
      <trkpt lat="45.57148" lon="6.07952">
        <ele>1190.879</ele>
        <time>2020-09-19T09:45:27Z</time>
      </trkpt>
      <trkpt lat="45.57147" lon="6.07952">
        <ele>1190.901</ele>
        <time>2020-09-19T09:45:31Z</time>
      </trkpt>
      <trkpt lat="45.57144" lon="6.07952">
        <ele>1191.529</ele>
        <time>2020-09-19T09:45:35Z</time>
      </trkpt>
      <trkpt lat="45.57144" lon="6.07951">
        <ele>1191.602</ele>
        <time>2020-09-19T09:45:37Z</time>
      </trkpt>
      <trkpt lat="45.57144" lon="6.07951">
        <ele>1191.602</ele>
        <time>2020-09-19T09:45:37Z</time>
      </trkpt>
      <trkpt lat="45.57144" lon="6.07949">
        <ele>1191.772</ele>
        <time>2020-09-19T09:45:38Z</time>
      </trkpt>
      <trkpt lat="45.57144" lon="6.07948">
        <ele>1191.67</ele>
        <time>2020-09-19T09:45:39Z</time>
      </trkpt>
      <trkpt lat="45.57143" lon="6.07948">
        <ele>1191.87</ele>
        <time>2020-09-19T09:45:40Z</time>
      </trkpt>
      <trkpt lat="45.5714" lon="6.07948">
        <ele>1191.669</ele>
        <time>2020-09-19T09:45:42Z</time>
      </trkpt>
      <trkpt lat="45.57139" lon="6.07948">
        <ele>1191.307</ele>
        <time>2020-09-19T09:45:44Z</time>
      </trkpt>
      <trkpt lat="45.57139" lon="6.07947">
        <ele>1191.73</ele>
        <time>2020-09-19T09:45:45Z</time>
      </trkpt>
      <trkpt lat="45.57139" lon="6.07945">
        <ele>1191.888</ele>
        <time>2020-09-19T09:45:48Z</time>
      </trkpt>
      <trkpt lat="45.5714" lon="6.07944">
        <ele>1192.019</ele>
        <time>2020-09-19T09:45:49Z</time>
      </trkpt>
      <trkpt lat="45.57141" lon="6.07939">
        <ele>1192.64</ele>
        <time>2020-09-19T09:45:53Z</time>
      </trkpt>
      <trkpt lat="45.57141" lon="6.07939">
        <ele>1192.64</ele>
        <time>2020-09-19T09:45:53Z</time>
      </trkpt>
      <trkpt lat="45.5714" lon="6.07938">
        <ele>1192.905</ele>
        <time>2020-09-19T09:45:54Z</time>
      </trkpt>
      <trkpt lat="45.5714" lon="6.07938">
        <ele>1193.353</ele>
        <time>2020-09-19T09:45:55Z</time>
      </trkpt>
      <trkpt lat="45.5714" lon="6.07938">
        <ele>1193.314</ele>
        <time>2020-09-19T09:45:56Z</time>
      </trkpt>
      <trkpt lat="45.57141" lon="6.07938">
        <ele>1193.396</ele>
        <time>2020-09-19T09:45:57Z</time>
      </trkpt>
      <trkpt lat="45.57141" lon="6.07937">
        <ele>1194.416</ele>
        <time>2020-09-19T09:45:59Z</time>
      </trkpt>
      <trkpt lat="45.57141" lon="6.07937">
        <ele>1194.109</ele>
        <time>2020-09-19T09:46:00Z</time>
      </trkpt>
      <trkpt lat="45.57141" lon="6.07937">
        <ele>1194.109</ele>
        <time>2020-09-19T09:46:00Z</time>
      </trkpt>
      <trkpt lat="45.57141" lon="6.07935">
        <ele>1193.742</ele>
        <time>2020-09-19T09:46:01Z</time>
      </trkpt>
      <trkpt lat="45.5714" lon="6.07933">
        <ele>1193.264</ele>
        <time>2020-09-19T09:46:02Z</time>
      </trkpt>
      <trkpt lat="45.57145" lon="6.07935">
        <ele>1193.61</ele>
        <time>2020-09-19T09:46:07Z</time>
      </trkpt>
      <trkpt lat="45.57153" lon="6.07934">
        <ele>1193.598</ele>
        <time>2020-09-19T09:46:10Z</time>
      </trkpt>
      <trkpt lat="45.57152" lon="6.07933">
        <ele>1193.755</ele>
        <time>2020-09-19T09:46:11Z</time>
      </trkpt>
      <trkpt lat="45.57151" lon="6.0793">
        <ele>1194.222</ele>
        <time>2020-09-19T09:46:13Z</time>
      </trkpt>
      <trkpt lat="45.57149" lon="6.07927">
        <ele>1194.283</ele>
        <time>2020-09-19T09:46:15Z</time>
      </trkpt>
      <trkpt lat="45.57149" lon="6.07927">
        <ele>1194.399</ele>
        <time>2020-09-19T09:46:16Z</time>
      </trkpt>
      <trkpt lat="45.57149" lon="6.07927">
        <ele>1194.399</ele>
        <time>2020-09-19T09:46:16Z</time>
      </trkpt>
      <trkpt lat="45.57148" lon="6.07926">
        <ele>1194.238</ele>
        <time>2020-09-19T09:46:17Z</time>
      </trkpt>
      <trkpt lat="45.57147" lon="6.07926">
        <ele>1194.41</ele>
        <time>2020-09-19T09:46:18Z</time>
      </trkpt>
      <trkpt lat="45.57145" lon="6.07928">
        <ele>1194.525</ele>
        <time>2020-09-19T09:46:21Z</time>
      </trkpt>
      <trkpt lat="45.57143" lon="6.07929">
        <ele>1194.993</ele>
        <time>2020-09-19T09:46:23Z</time>
      </trkpt>
      <trkpt lat="45.57141" lon="6.0793">
        <ele>1195.043</ele>
        <time>2020-09-19T09:46:26Z</time>
      </trkpt>
      <trkpt lat="45.57141" lon="6.07929">
        <ele>1195.418</ele>
        <time>2020-09-19T09:46:27Z</time>
      </trkpt>
      <trkpt lat="45.57138" lon="6.07927">
        <ele>1196.234</ele>
        <time>2020-09-19T09:46:29Z</time>
      </trkpt>
      <trkpt lat="45.57135" lon="6.07928">
        <ele>1196.575</ele>
        <time>2020-09-19T09:46:33Z</time>
      </trkpt>
      <trkpt lat="45.57133" lon="6.07929">
        <ele>1197.186</ele>
        <time>2020-09-19T09:46:35Z</time>
      </trkpt>
      <trkpt lat="45.57133" lon="6.07929">
        <ele>1197.239</ele>
        <time>2020-09-19T09:46:36Z</time>
      </trkpt>
      <trkpt lat="45.57133" lon="6.07929">
        <ele>1197.239</ele>
        <time>2020-09-19T09:46:36Z</time>
      </trkpt>
      <trkpt lat="45.57131" lon="6.07929">
        <ele>1197.058</ele>
        <time>2020-09-19T09:46:37Z</time>
      </trkpt>
      <trkpt lat="45.57126" lon="6.07929">
        <ele>1197.611</ele>
        <time>2020-09-19T09:46:40Z</time>
      </trkpt>
      <trkpt lat="45.57125" lon="6.07929">
        <ele>1198.122</ele>
        <time>2020-09-19T09:46:41Z</time>
      </trkpt>
      <trkpt lat="45.57124" lon="6.07928">
        <ele>1198.094</ele>
        <time>2020-09-19T09:46:42Z</time>
      </trkpt>
      <trkpt lat="45.57121" lon="6.07929">
        <ele>1198.451</ele>
        <time>2020-09-19T09:46:45Z</time>
      </trkpt>
      <trkpt lat="45.57121" lon="6.07929">
        <ele>1198.924</ele>
        <time>2020-09-19T09:46:46Z</time>
      </trkpt>
      <trkpt lat="45.5712" lon="6.07929">
        <ele>1199.161</ele>
        <time>2020-09-19T09:46:48Z</time>
      </trkpt>
      <trkpt lat="45.57121" lon="6.07928">
        <ele>1199.074</ele>
        <time>2020-09-19T09:46:50Z</time>
      </trkpt>
      <trkpt lat="45.57122" lon="6.07927">
        <ele>1199.956</ele>
        <time>2020-09-19T09:46:53Z</time>
      </trkpt>
      <trkpt lat="45.57122" lon="6.07927">
        <ele>1199.956</ele>
        <time>2020-09-19T09:46:53Z</time>
      </trkpt>
      <trkpt lat="45.57121" lon="6.07927">
        <ele>1199.928</ele>
        <time>2020-09-19T09:46:54Z</time>
      </trkpt>
      <trkpt lat="45.57119" lon="6.07928">
        <ele>1200.803</ele>
        <time>2020-09-19T09:46:56Z</time>
      </trkpt>
      <trkpt lat="45.57119" lon="6.07929">
        <ele>1200.546</ele>
        <time>2020-09-19T09:46:57Z</time>
      </trkpt>
      <trkpt lat="45.57118" lon="6.07929">
        <ele>1200.894</ele>
        <time>2020-09-19T09:46:58Z</time>
      </trkpt>
      <trkpt lat="45.57116" lon="6.07931">
        <ele>1201.143</ele>
        <time>2020-09-19T09:47:01Z</time>
      </trkpt>
      <trkpt lat="45.57112" lon="6.07931">
        <ele>1203.202</ele>
        <time>2020-09-19T09:47:04Z</time>
      </trkpt>
      <trkpt lat="45.57112" lon="6.07931">
        <ele>1203.227</ele>
        <time>2020-09-19T09:47:05Z</time>
      </trkpt>
      <trkpt lat="45.57112" lon="6.07931">
        <ele>1203.227</ele>
        <time>2020-09-19T09:47:05Z</time>
      </trkpt>
      <trkpt lat="45.57112" lon="6.07932">
        <ele>1203.619</ele>
        <time>2020-09-19T09:47:06Z</time>
      </trkpt>
      <trkpt lat="45.57113" lon="6.07931">
        <ele>1204.095</ele>
        <time>2020-09-19T09:47:10Z</time>
      </trkpt>
      <trkpt lat="45.57113" lon="6.07931">
        <ele>1203.345</ele>
        <time>2020-09-19T09:47:11Z</time>
      </trkpt>
      <trkpt lat="45.57113" lon="6.07931">
        <ele>1203.345</ele>
        <time>2020-09-19T09:47:11Z</time>
      </trkpt>
      <trkpt lat="45.57113" lon="6.07934">
        <ele>1204.213</ele>
        <time>2020-09-19T09:47:12Z</time>
      </trkpt>
      <trkpt lat="45.57114" lon="6.07935">
        <ele>1204.286</ele>
        <time>2020-09-19T09:47:13Z</time>
      </trkpt>
      <trkpt lat="45.57114" lon="6.07935">
        <ele>1204.148</ele>
        <time>2020-09-19T09:47:14Z</time>
      </trkpt>
      <trkpt lat="45.57114" lon="6.07935">
        <ele>1203.982</ele>
        <time>2020-09-19T09:47:15Z</time>
      </trkpt>
      <trkpt lat="45.57114" lon="6.07938">
        <ele>1203.64</ele>
        <time>2020-09-19T09:47:16Z</time>
      </trkpt>
      <trkpt lat="45.57111" lon="6.07938">
        <ele>1206.567</ele>
        <time>2020-09-19T09:47:20Z</time>
      </trkpt>
      <trkpt lat="45.57109" lon="6.07935">
        <ele>1207.357</ele>
        <time>2020-09-19T09:47:24Z</time>
      </trkpt>
      <trkpt lat="45.57107" lon="6.07933">
        <ele>1207.635</ele>
        <time>2020-09-19T09:47:28Z</time>
      </trkpt>
      <trkpt lat="45.57107" lon="6.07933">
        <ele>1207.42</ele>
        <time>2020-09-19T09:47:29Z</time>
      </trkpt>
      <trkpt lat="45.57107" lon="6.07932">
        <ele>1209.1</ele>
        <time>2020-09-19T09:47:31Z</time>
      </trkpt>
      <trkpt lat="45.57104" lon="6.0793">
        <ele>1211.119</ele>
        <time>2020-09-19T09:47:34Z</time>
      </trkpt>
      <trkpt lat="45.57103" lon="6.0793">
        <ele>1211.994</ele>
        <time>2020-09-19T09:47:36Z</time>
      </trkpt>
      <trkpt lat="45.57098" lon="6.07936">
        <ele>1211.406</ele>
        <time>2020-09-19T09:47:44Z</time>
      </trkpt>
      <trkpt lat="45.57099" lon="6.07935">
        <ele>1211.525</ele>
        <time>2020-09-19T09:47:47Z</time>
      </trkpt>
      <trkpt lat="45.57101" lon="6.07933">
        <ele>1211.771</ele>
        <time>2020-09-19T09:47:50Z</time>
      </trkpt>
      <trkpt lat="45.571" lon="6.07929">
        <ele>1212.806</ele>
        <time>2020-09-19T09:47:53Z</time>
      </trkpt>
      <trkpt lat="45.57096" lon="6.07929">
        <ele>1212.54</ele>
        <time>2020-09-19T09:47:56Z</time>
      </trkpt>
      <trkpt lat="45.57093" lon="6.07927">
        <ele>1211.613</ele>
        <time>2020-09-19T09:47:59Z</time>
      </trkpt>
      <trkpt lat="45.57092" lon="6.07924">
        <ele>1213.274</ele>
        <time>2020-09-19T09:48:01Z</time>
      </trkpt>
      <trkpt lat="45.57089" lon="6.07922">
        <ele>1214.147</ele>
        <time>2020-09-19T09:48:04Z</time>
      </trkpt>
      <trkpt lat="45.57088" lon="6.07922">
        <ele>1215.139</ele>
        <time>2020-09-19T09:48:05Z</time>
      </trkpt>
      <trkpt lat="45.57085" lon="6.07923">
        <ele>1214.717</ele>
        <time>2020-09-19T09:48:08Z</time>
      </trkpt>
      <trkpt lat="45.57083" lon="6.07923">
        <ele>1215.224</ele>
        <time>2020-09-19T09:48:10Z</time>
      </trkpt>
      <trkpt lat="45.57083" lon="6.07923">
        <ele>1215.47</ele>
        <time>2020-09-19T09:48:11Z</time>
      </trkpt>
      <trkpt lat="45.57084" lon="6.07922">
        <ele>1215.43</ele>
        <time>2020-09-19T09:48:12Z</time>
      </trkpt>
      <trkpt lat="45.57086" lon="6.0792">
        <ele>1215.567</ele>
        <time>2020-09-19T09:48:16Z</time>
      </trkpt>
      <trkpt lat="45.57086" lon="6.07919">
        <ele>1215.976</ele>
        <time>2020-09-19T09:48:17Z</time>
      </trkpt>
      <trkpt lat="45.57086" lon="6.07919">
        <ele>1216.672</ele>
        <time>2020-09-19T09:48:18Z</time>
      </trkpt>
      <trkpt lat="45.57086" lon="6.07918">
        <ele>1216.568</ele>
        <time>2020-09-19T09:48:19Z</time>
      </trkpt>
      <trkpt lat="45.57085" lon="6.07915">
        <ele>1217.386</ele>
        <time>2020-09-19T09:48:23Z</time>
      </trkpt>
      <trkpt lat="45.57085" lon="6.0791">
        <ele>1217.289</ele>
        <time>2020-09-19T09:48:28Z</time>
      </trkpt>
      <trkpt lat="45.57086" lon="6.0791">
        <ele>1217.66</ele>
        <time>2020-09-19T09:48:30Z</time>
      </trkpt>
      <trkpt lat="45.57086" lon="6.0791">
        <ele>1217.66</ele>
        <time>2020-09-19T09:48:30Z</time>
      </trkpt>
      <trkpt lat="45.57086" lon="6.07909">
        <ele>1217.794</ele>
        <time>2020-09-19T09:48:31Z</time>
      </trkpt>
      <trkpt lat="45.57085" lon="6.07909">
        <ele>1217.801</ele>
        <time>2020-09-19T09:48:33Z</time>
      </trkpt>
      <trkpt lat="45.57083" lon="6.07909">
        <ele>1217.881</ele>
        <time>2020-09-19T09:48:34Z</time>
      </trkpt>
      <trkpt lat="45.57082" lon="6.07908">
        <ele>1218.077</ele>
        <time>2020-09-19T09:48:35Z</time>
      </trkpt>
      <trkpt lat="45.57076" lon="6.07905">
        <ele>1218.108</ele>
        <time>2020-09-19T09:48:39Z</time>
      </trkpt>
      <trkpt lat="45.57074" lon="6.07904">
        <ele>1219.933</ele>
        <time>2020-09-19T09:48:42Z</time>
      </trkpt>
      <trkpt lat="45.57073" lon="6.07904">
        <ele>1219.893</ele>
        <time>2020-09-19T09:48:45Z</time>
      </trkpt>
      <trkpt lat="45.57073" lon="6.07904">
        <ele>1219.596</ele>
        <time>2020-09-19T09:48:46Z</time>
      </trkpt>
      <trkpt lat="45.57072" lon="6.07904">
        <ele>1219.877</ele>
        <time>2020-09-19T09:48:47Z</time>
      </trkpt>
      <trkpt lat="45.5707" lon="6.07904">
        <ele>1220.218</ele>
        <time>2020-09-19T09:48:50Z</time>
      </trkpt>
      <trkpt lat="45.5707" lon="6.07901">
        <ele>1220.592</ele>
        <time>2020-09-19T09:48:53Z</time>
      </trkpt>
      <trkpt lat="45.5707" lon="6.07899">
        <ele>1221.519</ele>
        <time>2020-09-19T09:48:55Z</time>
      </trkpt>
      <trkpt lat="45.57069" lon="6.07899">
        <ele>1221.356</ele>
        <time>2020-09-19T09:48:57Z</time>
      </trkpt>
      <trkpt lat="45.57067" lon="6.07898">
        <ele>1222.087</ele>
        <time>2020-09-19T09:49:00Z</time>
      </trkpt>
      <trkpt lat="45.57067" lon="6.07898">
        <ele>1222.067</ele>
        <time>2020-09-19T09:49:01Z</time>
      </trkpt>
      <trkpt lat="45.57067" lon="6.07898">
        <ele>1222.035</ele>
        <time>2020-09-19T09:49:02Z</time>
      </trkpt>
      <trkpt lat="45.57068" lon="6.07896">
        <ele>1222.512</ele>
        <time>2020-09-19T09:49:05Z</time>
      </trkpt>
      <trkpt lat="45.57071" lon="6.07893">
        <ele>1222.892</ele>
        <time>2020-09-19T09:49:07Z</time>
      </trkpt>
      <trkpt lat="45.57075" lon="6.0789">
        <ele>1223.196</ele>
        <time>2020-09-19T09:49:10Z</time>
      </trkpt>
      <trkpt lat="45.57081" lon="6.07886">
        <ele>1223.588</ele>
        <time>2020-09-19T09:49:15Z</time>
      </trkpt>
      <trkpt lat="45.57082" lon="6.07886">
        <ele>1223.572</ele>
        <time>2020-09-19T09:49:16Z</time>
      </trkpt>
      <trkpt lat="45.57082" lon="6.07886">
        <ele>1223.52</ele>
        <time>2020-09-19T09:49:17Z</time>
      </trkpt>
      <trkpt lat="45.57082" lon="6.07886">
        <ele>1223.52</ele>
        <time>2020-09-19T09:49:17Z</time>
      </trkpt>
      <trkpt lat="45.57083" lon="6.07885">
        <ele>1223.432</ele>
        <time>2020-09-19T09:49:18Z</time>
      </trkpt>
      <trkpt lat="45.57084" lon="6.07885">
        <ele>1223.404</ele>
        <time>2020-09-19T09:49:19Z</time>
      </trkpt>
      <trkpt lat="45.57085" lon="6.07885">
        <ele>1223.72</ele>
        <time>2020-09-19T09:49:20Z</time>
      </trkpt>
      <trkpt lat="45.57086" lon="6.07888">
        <ele>1224.25</ele>
        <time>2020-09-19T09:49:23Z</time>
      </trkpt>
      <trkpt lat="45.57086" lon="6.07888">
        <ele>1224.355</ele>
        <time>2020-09-19T09:49:24Z</time>
      </trkpt>
      <trkpt lat="45.57086" lon="6.07888">
        <ele>1224.355</ele>
        <time>2020-09-19T09:49:24Z</time>
      </trkpt>
      <trkpt lat="45.57086" lon="6.07889">
        <ele>1224.396</ele>
        <time>2020-09-19T09:49:25Z</time>
      </trkpt>
      <trkpt lat="45.57086" lon="6.0789">
        <ele>1224.613</ele>
        <time>2020-09-19T09:49:26Z</time>
      </trkpt>
      <trkpt lat="45.57081" lon="6.07893">
        <ele>1224.917</ele>
        <time>2020-09-19T09:49:30Z</time>
      </trkpt>
      <trkpt lat="45.57081" lon="6.07893">
        <ele>1225.013</ele>
        <time>2020-09-19T09:49:32Z</time>
      </trkpt>
      <trkpt lat="45.57082" lon="6.07893">
        <ele>1225.576</ele>
        <time>2020-09-19T09:49:33Z</time>
      </trkpt>
      <trkpt lat="45.57082" lon="6.07893">
        <ele>1225.957</ele>
        <time>2020-09-19T09:49:34Z</time>
      </trkpt>
      <trkpt lat="45.57082" lon="6.07893">
        <ele>1225.957</ele>
        <time>2020-09-19T09:49:34Z</time>
      </trkpt>
      <trkpt lat="45.57083" lon="6.07893">
        <ele>1225.344</ele>
        <time>2020-09-19T09:49:35Z</time>
      </trkpt>
      <trkpt lat="45.57083" lon="6.07893">
        <ele>1225.451</ele>
        <time>2020-09-19T09:49:36Z</time>
      </trkpt>
      <trkpt lat="45.57083" lon="6.07893">
        <ele>1225.451</ele>
        <time>2020-09-19T09:49:36Z</time>
      </trkpt>
      <trkpt lat="45.57084" lon="6.07893">
        <ele>1225.75</ele>
        <time>2020-09-19T09:49:37Z</time>
      </trkpt>
      <trkpt lat="45.57085" lon="6.07893">
        <ele>1226.359</ele>
        <time>2020-09-19T09:49:39Z</time>
      </trkpt>
      <trkpt lat="45.57085" lon="6.07893">
        <ele>1226.977</ele>
        <time>2020-09-19T09:49:43Z</time>
      </trkpt>
      <trkpt lat="45.57085" lon="6.07893">
        <ele>1226.778</ele>
        <time>2020-09-19T09:49:44Z</time>
      </trkpt>
      <trkpt lat="45.57084" lon="6.07893">
        <ele>1226.883</ele>
        <time>2020-09-19T09:49:45Z</time>
      </trkpt>
      <trkpt lat="45.57081" lon="6.0789">
        <ele>1226.77</ele>
        <time>2020-09-19T09:49:50Z</time>
      </trkpt>
      <trkpt lat="45.57082" lon="6.07889">
        <ele>1227.144</ele>
        <time>2020-09-19T09:49:52Z</time>
      </trkpt>
      <trkpt lat="45.57082" lon="6.07889">
        <ele>1227.144</ele>
        <time>2020-09-19T09:49:52Z</time>
      </trkpt>
      <trkpt lat="45.57082" lon="6.07888">
        <ele>1227.227</ele>
        <time>2020-09-19T09:49:53Z</time>
      </trkpt>
      <trkpt lat="45.57085" lon="6.07886">
        <ele>1227.679</ele>
        <time>2020-09-19T09:49:55Z</time>
      </trkpt>
      <trkpt lat="45.57086" lon="6.07885">
        <ele>1227.947</ele>
        <time>2020-09-19T09:49:56Z</time>
      </trkpt>
      <trkpt lat="45.57088" lon="6.07884">
        <ele>1227.844</ele>
        <time>2020-09-19T09:49:57Z</time>
      </trkpt>
      <trkpt lat="45.57091" lon="6.07882">
        <ele>1227.997</ele>
        <time>2020-09-19T09:50:00Z</time>
      </trkpt>
      <trkpt lat="45.57094" lon="6.07882">
        <ele>1228.096</ele>
        <time>2020-09-19T09:50:03Z</time>
      </trkpt>
      <trkpt lat="45.57094" lon="6.07882">
        <ele>1227.971</ele>
        <time>2020-09-19T09:50:04Z</time>
      </trkpt>
      <trkpt lat="45.57094" lon="6.07881">
        <ele>1228.474</ele>
        <time>2020-09-19T09:50:05Z</time>
      </trkpt>
      <trkpt lat="45.57095" lon="6.0788">
        <ele>1228.357</ele>
        <time>2020-09-19T09:50:06Z</time>
      </trkpt>
      <trkpt lat="45.57096" lon="6.0788">
        <ele>1228.521</ele>
        <time>2020-09-19T09:50:07Z</time>
      </trkpt>
      <trkpt lat="45.57096" lon="6.0788">
        <ele>1229.063</ele>
        <time>2020-09-19T09:50:09Z</time>
      </trkpt>
      <trkpt lat="45.57096" lon="6.07879">
        <ele>1229.334</ele>
        <time>2020-09-19T09:50:11Z</time>
      </trkpt>
      <trkpt lat="45.57096" lon="6.07876">
        <ele>1228.739</ele>
        <time>2020-09-19T09:50:14Z</time>
      </trkpt>
      <trkpt lat="45.57096" lon="6.07876">
        <ele>1228.739</ele>
        <time>2020-09-19T09:50:14Z</time>
      </trkpt>
      <trkpt lat="45.57096" lon="6.07876">
        <ele>1229.742</ele>
        <time>2020-09-19T09:50:15Z</time>
      </trkpt>
      <trkpt lat="45.57097" lon="6.07875">
        <ele>1229.796</ele>
        <time>2020-09-19T09:50:16Z</time>
      </trkpt>
      <trkpt lat="45.57097" lon="6.07874">
        <ele>1229.832</ele>
        <time>2020-09-19T09:50:17Z</time>
      </trkpt>
      <trkpt lat="45.57098" lon="6.07874">
        <ele>1229.914</ele>
        <time>2020-09-19T09:50:18Z</time>
      </trkpt>
      <trkpt lat="45.57098" lon="6.07874">
        <ele>1230.016</ele>
        <time>2020-09-19T09:50:19Z</time>
      </trkpt>
      <trkpt lat="45.57098" lon="6.07874">
        <ele>1230.016</ele>
        <time>2020-09-19T09:50:19Z</time>
      </trkpt>
      <trkpt lat="45.57098" lon="6.07874">
        <ele>1230.238</ele>
        <time>2020-09-19T09:50:20Z</time>
      </trkpt>
      <trkpt lat="45.571" lon="6.07875">
        <ele>1230.739</ele>
        <time>2020-09-19T09:50:23Z</time>
      </trkpt>
      <trkpt lat="45.57101" lon="6.07875">
        <ele>1230.733</ele>
        <time>2020-09-19T09:50:25Z</time>
      </trkpt>
      <trkpt lat="45.57101" lon="6.07875">
        <ele>1231.032</ele>
        <time>2020-09-19T09:50:26Z</time>
      </trkpt>
      <trkpt lat="45.57101" lon="6.07873">
        <ele>1231.75</ele>
        <time>2020-09-19T09:50:29Z</time>
      </trkpt>
      <trkpt lat="45.57101" lon="6.07873">
        <ele>1231.75</ele>
        <time>2020-09-19T09:50:29Z</time>
      </trkpt>
      <trkpt lat="45.57101" lon="6.07874">
        <ele>1231.809</ele>
        <time>2020-09-19T09:50:30Z</time>
      </trkpt>
      <trkpt lat="45.57102" lon="6.07874">
        <ele>1231.825</ele>
        <time>2020-09-19T09:50:31Z</time>
      </trkpt>
      <trkpt lat="45.57102" lon="6.07875">
        <ele>1231.669</ele>
        <time>2020-09-19T09:50:32Z</time>
      </trkpt>
      <trkpt lat="45.57104" lon="6.07874">
        <ele>1231.881</ele>
        <time>2020-09-19T09:50:35Z</time>
      </trkpt>
      <trkpt lat="45.57111" lon="6.07869">
        <ele>1232.614</ele>
        <time>2020-09-19T09:50:40Z</time>
      </trkpt>
      <trkpt lat="45.57113" lon="6.07864">
        <ele>1233.024</ele>
        <time>2020-09-19T09:50:43Z</time>
      </trkpt>
      <trkpt lat="45.57113" lon="6.07864">
        <ele>1233.05</ele>
        <time>2020-09-19T09:50:45Z</time>
      </trkpt>
      <trkpt lat="45.57114" lon="6.07863">
        <ele>1233.41</ele>
        <time>2020-09-19T09:50:48Z</time>
      </trkpt>
      <trkpt lat="45.57117" lon="6.07856">
        <ele>1234.354</ele>
        <time>2020-09-19T09:50:53Z</time>
      </trkpt>
      <trkpt lat="45.57119" lon="6.07854">
        <ele>1235.031</ele>
        <time>2020-09-19T09:50:55Z</time>
      </trkpt>
      <trkpt lat="45.57123" lon="6.07851">
        <ele>1236.128</ele>
        <time>2020-09-19T09:50:59Z</time>
      </trkpt>
      <trkpt lat="45.57124" lon="6.07851">
        <ele>1236.076</ele>
        <time>2020-09-19T09:51:00Z</time>
      </trkpt>
      <trkpt lat="45.57123" lon="6.07851">
        <ele>1235.956</ele>
        <time>2020-09-19T09:51:01Z</time>
      </trkpt>
      <trkpt lat="45.57121" lon="6.07851">
        <ele>1237.007</ele>
        <time>2020-09-19T09:51:06Z</time>
      </trkpt>
      <trkpt lat="45.57121" lon="6.07851">
        <ele>1237.374</ele>
        <time>2020-09-19T09:51:07Z</time>
      </trkpt>
      <trkpt lat="45.57121" lon="6.07851">
        <ele>1236.815</ele>
        <time>2020-09-19T09:51:15Z</time>
      </trkpt>
      <trkpt lat="45.5712" lon="6.07856">
        <ele>1236.702</ele>
        <time>2020-09-19T09:51:16Z</time>
      </trkpt>
      <trkpt lat="45.57121" lon="6.07856">
        <ele>1236.008</ele>
        <time>2020-09-19T09:51:23Z</time>
      </trkpt>
      <trkpt lat="45.57121" lon="6.07856">
        <ele>1236.578</ele>
        <time>2020-09-19T09:52:28Z</time>
      </trkpt>
      <trkpt lat="45.57121" lon="6.07854">
        <ele>1236.578</ele>
        <time>2020-09-19T09:52:29Z</time>
      </trkpt>
      <trkpt lat="45.5712" lon="6.07853">
        <ele>1237.109</ele>
        <time>2020-09-19T09:52:30Z</time>
      </trkpt>
      <trkpt lat="45.57123" lon="6.0785">
        <ele>1236.957</ele>
        <time>2020-09-19T09:52:34Z</time>
      </trkpt>
      <trkpt lat="45.57124" lon="6.0785">
        <ele>1236.898</ele>
        <time>2020-09-19T09:52:35Z</time>
      </trkpt>
      <trkpt lat="45.57124" lon="6.0785">
        <ele>1236.912</ele>
        <time>2020-09-19T09:52:36Z</time>
      </trkpt>
      <trkpt lat="45.57124" lon="6.0785">
        <ele>1236.912</ele>
        <time>2020-09-19T09:52:36Z</time>
      </trkpt>
      <trkpt lat="45.57124" lon="6.0785">
        <ele>1236.63</ele>
        <time>2020-09-19T09:52:37Z</time>
      </trkpt>
      <trkpt lat="45.57124" lon="6.0785">
        <ele>1237.598</ele>
        <time>2020-09-19T09:52:38Z</time>
      </trkpt>
      <trkpt lat="45.57126" lon="6.07846">
        <ele>1239.984</ele>
        <time>2020-09-19T09:52:44Z</time>
      </trkpt>
      <trkpt lat="45.57126" lon="6.07845">
        <ele>1240.08</ele>
        <time>2020-09-19T09:52:45Z</time>
      </trkpt>
      <trkpt lat="45.57128" lon="6.07848">
        <ele>1239.966</ele>
        <time>2020-09-19T09:52:48Z</time>
      </trkpt>
      <trkpt lat="45.5713" lon="6.07849">
        <ele>1240.157</ele>
        <time>2020-09-19T09:52:49Z</time>
      </trkpt>
      <trkpt lat="45.5713" lon="6.0785">
        <ele>1240</ele>
        <time>2020-09-19T09:52:50Z</time>
      </trkpt>
      <trkpt lat="45.5713" lon="6.07849">
        <ele>1239.163</ele>
        <time>2020-09-19T09:52:54Z</time>
      </trkpt>
      <trkpt lat="45.5713" lon="6.07849">
        <ele>1239.336</ele>
        <time>2020-09-19T09:52:55Z</time>
      </trkpt>
      <trkpt lat="45.57131" lon="6.07848">
        <ele>1239.075</ele>
        <time>2020-09-19T09:52:56Z</time>
      </trkpt>
      <trkpt lat="45.57131" lon="6.07848">
        <ele>1239.242</ele>
        <time>2020-09-19T09:52:57Z</time>
      </trkpt>
      <trkpt lat="45.57132" lon="6.07847">
        <ele>1239.822</ele>
        <time>2020-09-19T09:52:58Z</time>
      </trkpt>
      <trkpt lat="45.57134" lon="6.07846">
        <ele>1239.371</ele>
        <time>2020-09-19T09:53:00Z</time>
      </trkpt>
      <trkpt lat="45.57135" lon="6.07846">
        <ele>1239.384</ele>
        <time>2020-09-19T09:53:02Z</time>
      </trkpt>
      <trkpt lat="45.57134" lon="6.07845">
        <ele>1239.303</ele>
        <time>2020-09-19T09:53:04Z</time>
      </trkpt>
      <trkpt lat="45.57134" lon="6.07844">
        <ele>1239.134</ele>
        <time>2020-09-19T09:53:05Z</time>
      </trkpt>
      <trkpt lat="45.57135" lon="6.07844">
        <ele>1239.075</ele>
        <time>2020-09-19T09:53:06Z</time>
      </trkpt>
      <trkpt lat="45.57135" lon="6.07845">
        <ele>1239.997</ele>
        <time>2020-09-19T09:53:09Z</time>
      </trkpt>
      <trkpt lat="45.57135" lon="6.07845">
        <ele>1239.997</ele>
        <time>2020-09-19T09:53:09Z</time>
      </trkpt>
      <trkpt lat="45.57135" lon="6.07845">
        <ele>1239.901</ele>
        <time>2020-09-19T09:53:10Z</time>
      </trkpt>
      <trkpt lat="45.57135" lon="6.07845">
        <ele>1241.117</ele>
        <time>2020-09-19T09:53:13Z</time>
      </trkpt>
      <trkpt lat="45.57135" lon="6.07845">
        <ele>1241.117</ele>
        <time>2020-09-19T09:53:13Z</time>
      </trkpt>
      <trkpt lat="45.57136" lon="6.07845">
        <ele>1240.717</ele>
        <time>2020-09-19T09:53:14Z</time>
      </trkpt>
      <trkpt lat="45.57137" lon="6.07845">
        <ele>1240.876</ele>
        <time>2020-09-19T09:53:15Z</time>
      </trkpt>
      <trkpt lat="45.57137" lon="6.07844">
        <ele>1241.095</ele>
        <time>2020-09-19T09:53:16Z</time>
      </trkpt>
      <trkpt lat="45.57137" lon="6.07843">
        <ele>1241.172</ele>
        <time>2020-09-19T09:53:17Z</time>
      </trkpt>
      <trkpt lat="45.57139" lon="6.07841">
        <ele>1242.384</ele>
        <time>2020-09-19T09:53:24Z</time>
      </trkpt>
      <trkpt lat="45.57139" lon="6.07841">
        <ele>1241.971</ele>
        <time>2020-09-19T09:53:25Z</time>
      </trkpt>
      <trkpt lat="45.57139" lon="6.07841">
        <ele>1241.971</ele>
        <time>2020-09-19T09:53:25Z</time>
      </trkpt>
      <trkpt lat="45.57139" lon="6.07841">
        <ele>1241.702</ele>
        <time>2020-09-19T09:53:26Z</time>
      </trkpt>
      <trkpt lat="45.5714" lon="6.07841">
        <ele>1241.932</ele>
        <time>2020-09-19T09:53:28Z</time>
      </trkpt>
      <trkpt lat="45.57141" lon="6.0784">
        <ele>1242.175</ele>
        <time>2020-09-19T09:53:30Z</time>
      </trkpt>
      <trkpt lat="45.57142" lon="6.07835">
        <ele>1241.629</ele>
        <time>2020-09-19T09:53:35Z</time>
      </trkpt>
      <trkpt lat="45.57145" lon="6.07834">
        <ele>1242.325</ele>
        <time>2020-09-19T09:53:38Z</time>
      </trkpt>
      <trkpt lat="45.57148" lon="6.07832">
        <ele>1242.73</ele>
        <time>2020-09-19T09:53:41Z</time>
      </trkpt>
      <trkpt lat="45.57148" lon="6.07832">
        <ele>1242.73</ele>
        <time>2020-09-19T09:53:41Z</time>
      </trkpt>
      <trkpt lat="45.57149" lon="6.07832">
        <ele>1242.864</ele>
        <time>2020-09-19T09:53:42Z</time>
      </trkpt>
      <trkpt lat="45.57149" lon="6.07832">
        <ele>1242.309</ele>
        <time>2020-09-19T09:53:43Z</time>
      </trkpt>
      <trkpt lat="45.57149" lon="6.07831">
        <ele>1242.788</ele>
        <time>2020-09-19T09:53:44Z</time>
      </trkpt>
      <trkpt lat="45.57149" lon="6.07831">
        <ele>1242.611</ele>
        <time>2020-09-19T09:53:45Z</time>
      </trkpt>
      <trkpt lat="45.57149" lon="6.0783">
        <ele>1242.779</ele>
        <time>2020-09-19T09:53:46Z</time>
      </trkpt>
      <trkpt lat="45.57148" lon="6.07827">
        <ele>1242.947</ele>
        <time>2020-09-19T09:53:50Z</time>
      </trkpt>
      <trkpt lat="45.57145" lon="6.07825">
        <ele>1243.526</ele>
        <time>2020-09-19T09:53:53Z</time>
      </trkpt>
      <trkpt lat="45.57146" lon="6.07822">
        <ele>1245.222</ele>
        <time>2020-09-19T09:54:00Z</time>
      </trkpt>
      <trkpt lat="45.57147" lon="6.0782">
        <ele>1245.59</ele>
        <time>2020-09-19T09:54:04Z</time>
      </trkpt>
      <trkpt lat="45.5715" lon="6.07816">
        <ele>1245.662</ele>
        <time>2020-09-19T09:54:06Z</time>
      </trkpt>
      <trkpt lat="45.57152" lon="6.07813">
        <ele>1245.69</ele>
        <time>2020-09-19T09:54:08Z</time>
      </trkpt>
      <trkpt lat="45.57152" lon="6.0781">
        <ele>1245.474</ele>
        <time>2020-09-19T09:54:12Z</time>
      </trkpt>
      <trkpt lat="45.57154" lon="6.07807">
        <ele>1245.432</ele>
        <time>2020-09-19T09:54:15Z</time>
      </trkpt>
      <trkpt lat="45.57155" lon="6.07807">
        <ele>1245.354</ele>
        <time>2020-09-19T09:54:17Z</time>
      </trkpt>
      <trkpt lat="45.57155" lon="6.07807">
        <ele>1245.354</ele>
        <time>2020-09-19T09:54:17Z</time>
      </trkpt>
      <trkpt lat="45.57156" lon="6.07807">
        <ele>1245.804</ele>
        <time>2020-09-19T09:54:18Z</time>
      </trkpt>
      <trkpt lat="45.57157" lon="6.07804">
        <ele>1245.75</ele>
        <time>2020-09-19T09:54:20Z</time>
      </trkpt>
      <trkpt lat="45.57158" lon="6.07802">
        <ele>1246.209</ele>
        <time>2020-09-19T09:54:23Z</time>
      </trkpt>
      <trkpt lat="45.57158" lon="6.07802">
        <ele>1246.209</ele>
        <time>2020-09-19T09:54:23Z</time>
      </trkpt>
      <trkpt lat="45.5716" lon="6.07803">
        <ele>1246.252</ele>
        <time>2020-09-19T09:54:24Z</time>
      </trkpt>
      <trkpt lat="45.5716" lon="6.07803">
        <ele>1246.515</ele>
        <time>2020-09-19T09:54:24Z</time>
      </trkpt>
      <trkpt lat="45.57159" lon="6.07806">
        <ele>1246.993</ele>
        <time>2020-09-19T09:54:29Z</time>
      </trkpt>
      <trkpt lat="45.57158" lon="6.07807">
        <ele>1246.842</ele>
        <time>2020-09-19T09:54:30Z</time>
      </trkpt>
      <trkpt lat="45.57158" lon="6.07807">
        <ele>1247.003</ele>
        <time>2020-09-19T09:54:31Z</time>
      </trkpt>
      <trkpt lat="45.57157" lon="6.07808">
        <ele>1247.156</ele>
        <time>2020-09-19T09:54:34Z</time>
      </trkpt>
      <trkpt lat="45.57157" lon="6.07808">
        <ele>1247.156</ele>
        <time>2020-09-19T09:54:34Z</time>
      </trkpt>
      <trkpt lat="45.57157" lon="6.07808">
        <ele>1247.314</ele>
        <time>2020-09-19T09:54:35Z</time>
      </trkpt>
      <trkpt lat="45.57156" lon="6.07808">
        <ele>1247.278</ele>
        <time>2020-09-19T09:54:36Z</time>
      </trkpt>
      <trkpt lat="45.57156" lon="6.07807">
        <ele>1246.976</ele>
        <time>2020-09-19T09:54:37Z</time>
      </trkpt>
      <trkpt lat="45.57156" lon="6.07805">
        <ele>1246.921</ele>
        <time>2020-09-19T09:54:38Z</time>
      </trkpt>
      <trkpt lat="45.57154" lon="6.07804">
        <ele>1247.067</ele>
        <time>2020-09-19T09:54:40Z</time>
      </trkpt>
      <trkpt lat="45.5715" lon="6.07806">
        <ele>1247.687</ele>
        <time>2020-09-19T09:54:42Z</time>
      </trkpt>
      <trkpt lat="45.57149" lon="6.07807">
        <ele>1247.81</ele>
        <time>2020-09-19T09:54:44Z</time>
      </trkpt>
      <trkpt lat="45.57148" lon="6.07809">
        <ele>1247.921</ele>
        <time>2020-09-19T09:54:46Z</time>
      </trkpt>
      <trkpt lat="45.57147" lon="6.0781">
        <ele>1247.954</ele>
        <time>2020-09-19T09:54:48Z</time>
      </trkpt>
      <trkpt lat="45.57145" lon="6.0781">
        <ele>1247.98</ele>
        <time>2020-09-19T09:54:49Z</time>
      </trkpt>
      <trkpt lat="45.57143" lon="6.0781">
        <ele>1248.519</ele>
        <time>2020-09-19T09:54:53Z</time>
      </trkpt>
      <trkpt lat="45.57143" lon="6.0781">
        <ele>1248.743</ele>
        <time>2020-09-19T09:54:54Z</time>
      </trkpt>
      <trkpt lat="45.57145" lon="6.07809">
        <ele>1248.581</ele>
        <time>2020-09-19T09:54:55Z</time>
      </trkpt>
      <trkpt lat="45.57143" lon="6.0781">
        <ele>1248.081</ele>
        <time>2020-09-19T09:54:57Z</time>
      </trkpt>
      <trkpt lat="45.57141" lon="6.07814">
        <ele>1248.54</ele>
        <time>2020-09-19T09:54:59Z</time>
      </trkpt>
      <trkpt lat="45.5714" lon="6.0781">
        <ele>1248.863</ele>
        <time>2020-09-19T09:55:03Z</time>
      </trkpt>
      <trkpt lat="45.57139" lon="6.07811">
        <ele>1248.539</ele>
        <time>2020-09-19T09:55:04Z</time>
      </trkpt>
      <trkpt lat="45.57139" lon="6.07811">
        <ele>1249.145</ele>
        <time>2020-09-19T09:55:05Z</time>
      </trkpt>
      <trkpt lat="45.57139" lon="6.07811">
        <ele>1249.145</ele>
        <time>2020-09-19T09:55:05Z</time>
      </trkpt>
      <trkpt lat="45.57138" lon="6.07812">
        <ele>1249.479</ele>
        <time>2020-09-19T09:55:06Z</time>
      </trkpt>
      <trkpt lat="45.57137" lon="6.07812">
        <ele>1249.525</ele>
        <time>2020-09-19T09:55:07Z</time>
      </trkpt>
      <trkpt lat="45.57137" lon="6.07812">
        <ele>1249.763</ele>
        <time>2020-09-19T09:55:08Z</time>
      </trkpt>
      <trkpt lat="45.57136" lon="6.07811">
        <ele>1249.652</ele>
        <time>2020-09-19T09:55:10Z</time>
      </trkpt>
      <trkpt lat="45.57133" lon="6.07804">
        <ele>1250.294</ele>
        <time>2020-09-19T09:55:17Z</time>
      </trkpt>
      <trkpt lat="45.57132" lon="6.07802">
        <ele>1250.68</ele>
        <time>2020-09-19T09:55:19Z</time>
      </trkpt>
      <trkpt lat="45.57132" lon="6.078">
        <ele>1251.229</ele>
        <time>2020-09-19T09:55:21Z</time>
      </trkpt>
      <trkpt lat="45.57129" lon="6.07796">
        <ele>1251.151</ele>
        <time>2020-09-19T09:55:27Z</time>
      </trkpt>
      <trkpt lat="45.57128" lon="6.07795">
        <ele>1250.996</ele>
        <time>2020-09-19T09:55:29Z</time>
      </trkpt>
      <trkpt lat="45.57126" lon="6.07794">
        <ele>1251.294</ele>
        <time>2020-09-19T09:55:32Z</time>
      </trkpt>
      <trkpt lat="45.57125" lon="6.07793">
        <ele>1251.212</ele>
        <time>2020-09-19T09:55:34Z</time>
      </trkpt>
      <trkpt lat="45.57125" lon="6.07792">
        <ele>1251.277</ele>
        <time>2020-09-19T09:55:35Z</time>
      </trkpt>
      <trkpt lat="45.57124" lon="6.0779">
        <ele>1251.432</ele>
        <time>2020-09-19T09:55:37Z</time>
      </trkpt>
      <trkpt lat="45.57123" lon="6.0779">
        <ele>1251.947</ele>
        <time>2020-09-19T09:55:39Z</time>
      </trkpt>
      <trkpt lat="45.57123" lon="6.0779">
        <ele>1251.947</ele>
        <time>2020-09-19T09:55:39Z</time>
      </trkpt>
      <trkpt lat="45.57122" lon="6.07791">
        <ele>1252.794</ele>
        <time>2020-09-19T09:55:40Z</time>
      </trkpt>
      <trkpt lat="45.57122" lon="6.07791">
        <ele>1252.599</ele>
        <time>2020-09-19T09:55:41Z</time>
      </trkpt>
      <trkpt lat="45.57121" lon="6.0779">
        <ele>1252.1</ele>
        <time>2020-09-19T09:55:44Z</time>
      </trkpt>
      <trkpt lat="45.57121" lon="6.07789">
        <ele>1252.413</ele>
        <time>2020-09-19T09:55:46Z</time>
      </trkpt>
      <trkpt lat="45.5712" lon="6.07787">
        <ele>1252.122</ele>
        <time>2020-09-19T09:55:50Z</time>
      </trkpt>
      <trkpt lat="45.5712" lon="6.07786">
        <ele>1252.054</ele>
        <time>2020-09-19T09:55:51Z</time>
      </trkpt>
      <trkpt lat="45.57119" lon="6.07785">
        <ele>1252.816</ele>
        <time>2020-09-19T09:55:54Z</time>
      </trkpt>
      <trkpt lat="45.57119" lon="6.07785">
        <ele>1252.816</ele>
        <time>2020-09-19T09:55:54Z</time>
      </trkpt>
      <trkpt lat="45.57119" lon="6.07784">
        <ele>1252.786</ele>
        <time>2020-09-19T09:55:55Z</time>
      </trkpt>
      <trkpt lat="45.57119" lon="6.07784">
        <ele>1253.794</ele>
        <time>2020-09-19T09:55:58Z</time>
      </trkpt>
      <trkpt lat="45.57119" lon="6.07784">
        <ele>1253.794</ele>
        <time>2020-09-19T09:55:58Z</time>
      </trkpt>
      <trkpt lat="45.57119" lon="6.07786">
        <ele>1254.527</ele>
        <time>2020-09-19T09:55:59Z</time>
      </trkpt>
      <trkpt lat="45.57119" lon="6.07786">
        <ele>1254.791</ele>
        <time>2020-09-19T09:56:00Z</time>
      </trkpt>
      <trkpt lat="45.57119" lon="6.07786">
        <ele>1255.268</ele>
        <time>2020-09-19T09:56:01Z</time>
      </trkpt>
      <trkpt lat="45.57119" lon="6.07786">
        <ele>1255.377</ele>
        <time>2020-09-19T09:56:03Z</time>
      </trkpt>
      <trkpt lat="45.57117" lon="6.07788">
        <ele>1255.479</ele>
        <time>2020-09-19T09:56:04Z</time>
      </trkpt>
      <trkpt lat="45.57115" lon="6.07788">
        <ele>1255.197</ele>
        <time>2020-09-19T09:56:07Z</time>
      </trkpt>
      <trkpt lat="45.57112" lon="6.0779">
        <ele>1255.014</ele>
        <time>2020-09-19T09:56:10Z</time>
      </trkpt>
      <trkpt lat="45.57111" lon="6.0779">
        <ele>1254.823</ele>
        <time>2020-09-19T09:56:12Z</time>
      </trkpt>
      <trkpt lat="45.57111" lon="6.0779">
        <ele>1254.823</ele>
        <time>2020-09-19T09:56:12Z</time>
      </trkpt>
      <trkpt lat="45.5711" lon="6.0779">
        <ele>1255.004</ele>
        <time>2020-09-19T09:56:13Z</time>
      </trkpt>
      <trkpt lat="45.5711" lon="6.0779">
        <ele>1255.347</ele>
        <time>2020-09-19T09:56:14Z</time>
      </trkpt>
      <trkpt lat="45.5711" lon="6.0779">
        <ele>1256.007</ele>
        <time>2020-09-19T09:56:17Z</time>
      </trkpt>
      <trkpt lat="45.57109" lon="6.07787">
        <ele>1256.217</ele>
        <time>2020-09-19T09:56:18Z</time>
      </trkpt>
      <trkpt lat="45.57108" lon="6.07788">
        <ele>1256.194</ele>
        <time>2020-09-19T09:56:21Z</time>
      </trkpt>
      <trkpt lat="45.57107" lon="6.07787">
        <ele>1256.35</ele>
        <time>2020-09-19T09:56:22Z</time>
      </trkpt>
      <trkpt lat="45.57107" lon="6.07786">
        <ele>1256.152</ele>
        <time>2020-09-19T09:56:23Z</time>
      </trkpt>
      <trkpt lat="45.57106" lon="6.07786">
        <ele>1256.325</ele>
        <time>2020-09-19T09:56:24Z</time>
      </trkpt>
      <trkpt lat="45.57103" lon="6.07782">
        <ele>1257.229</ele>
        <time>2020-09-19T09:56:28Z</time>
      </trkpt>
      <trkpt lat="45.57098" lon="6.0778">
        <ele>1257.15</ele>
        <time>2020-09-19T09:56:32Z</time>
      </trkpt>
      <trkpt lat="45.57098" lon="6.07779">
        <ele>1257.239</ele>
        <time>2020-09-19T09:56:33Z</time>
      </trkpt>
      <trkpt lat="45.57097" lon="6.07778">
        <ele>1257.292</ele>
        <time>2020-09-19T09:56:34Z</time>
      </trkpt>
      <trkpt lat="45.57094" lon="6.07777">
        <ele>1258.252</ele>
        <time>2020-09-19T09:56:37Z</time>
      </trkpt>
      <trkpt lat="45.57093" lon="6.07778">
        <ele>1258.659</ele>
        <time>2020-09-19T09:56:40Z</time>
      </trkpt>
      <trkpt lat="45.57093" lon="6.07778">
        <ele>1258.705</ele>
        <time>2020-09-19T09:56:41Z</time>
      </trkpt>
      <trkpt lat="45.57093" lon="6.07778">
        <ele>1258.705</ele>
        <time>2020-09-19T09:56:41Z</time>
      </trkpt>
      <trkpt lat="45.57093" lon="6.07778">
        <ele>1258.515</ele>
        <time>2020-09-19T09:56:42Z</time>
      </trkpt>
      <trkpt lat="45.57092" lon="6.07778">
        <ele>1258.758</ele>
        <time>2020-09-19T09:56:43Z</time>
      </trkpt>
      <trkpt lat="45.5709" lon="6.07777">
        <ele>1258.944</ele>
        <time>2020-09-19T09:56:44Z</time>
      </trkpt>
      <trkpt lat="45.57085" lon="6.07777">
        <ele>1258.554</ele>
        <time>2020-09-19T09:56:47Z</time>
      </trkpt>
      <trkpt lat="45.57082" lon="6.07778">
        <ele>1258.56</ele>
        <time>2020-09-19T09:56:50Z</time>
      </trkpt>
      <trkpt lat="45.57081" lon="6.07777">
        <ele>1259.325</ele>
        <time>2020-09-19T09:56:53Z</time>
      </trkpt>
      <trkpt lat="45.5708" lon="6.07777">
        <ele>1259.195</ele>
        <time>2020-09-19T09:56:54Z</time>
      </trkpt>
      <trkpt lat="45.57079" lon="6.07778">
        <ele>1259.661</ele>
        <time>2020-09-19T09:56:57Z</time>
      </trkpt>
      <trkpt lat="45.57079" lon="6.07778">
        <ele>1259.956</ele>
        <time>2020-09-19T09:56:58Z</time>
      </trkpt>
      <trkpt lat="45.57079" lon="6.07778">
        <ele>1259.956</ele>
        <time>2020-09-19T09:56:58Z</time>
      </trkpt>
      <trkpt lat="45.57079" lon="6.0778">
        <ele>1260.154</ele>
        <time>2020-09-19T09:56:59Z</time>
      </trkpt>
      <trkpt lat="45.57079" lon="6.0778">
        <ele>1260.34</ele>
        <time>2020-09-19T09:57:00Z</time>
      </trkpt>
      <trkpt lat="45.57078" lon="6.0778">
        <ele>1260.351</ele>
        <time>2020-09-19T09:57:01Z</time>
      </trkpt>
      <trkpt lat="45.57078" lon="6.0778">
        <ele>1260.543</ele>
        <time>2020-09-19T09:57:02Z</time>
      </trkpt>
      <trkpt lat="45.57078" lon="6.0778">
        <ele>1260.543</ele>
        <time>2020-09-19T09:57:02Z</time>
      </trkpt>
      <trkpt lat="45.57077" lon="6.0778">
        <ele>1260.997</ele>
        <time>2020-09-19T09:57:03Z</time>
      </trkpt>
      <trkpt lat="45.57076" lon="6.0778">
        <ele>1260.79</ele>
        <time>2020-09-19T09:57:05Z</time>
      </trkpt>
      <trkpt lat="45.57075" lon="6.07781">
        <ele>1261.515</ele>
        <time>2020-09-19T09:57:07Z</time>
      </trkpt>
      <trkpt lat="45.57073" lon="6.07779">
        <ele>1261.939</ele>
        <time>2020-09-19T09:57:13Z</time>
      </trkpt>
      <trkpt lat="45.57073" lon="6.07778">
        <ele>1262.325</ele>
        <time>2020-09-19T09:57:14Z</time>
      </trkpt>
      <trkpt lat="45.57073" lon="6.07776">
        <ele>1261.897</ele>
        <time>2020-09-19T09:57:15Z</time>
      </trkpt>
      <trkpt lat="45.57076" lon="6.07774">
        <ele>1262.566</ele>
        <time>2020-09-19T09:57:18Z</time>
      </trkpt>
      <trkpt lat="45.57077" lon="6.07773">
        <ele>1262.519</ele>
        <time>2020-09-19T09:57:20Z</time>
      </trkpt>
      <trkpt lat="45.57077" lon="6.07773">
        <ele>1262.519</ele>
        <time>2020-09-19T09:57:20Z</time>
      </trkpt>
      <trkpt lat="45.57078" lon="6.07772">
        <ele>1262.536</ele>
        <time>2020-09-19T09:57:21Z</time>
      </trkpt>
      <trkpt lat="45.57079" lon="6.07771">
        <ele>1262.597</ele>
        <time>2020-09-19T09:57:23Z</time>
      </trkpt>
      <trkpt lat="45.57079" lon="6.07771">
        <ele>1262.963</ele>
        <time>2020-09-19T09:57:24Z</time>
      </trkpt>
      <trkpt lat="45.57079" lon="6.07771">
        <ele>1262.963</ele>
        <time>2020-09-19T09:57:24Z</time>
      </trkpt>
      <trkpt lat="45.57079" lon="6.07771">
        <ele>1263.052</ele>
        <time>2020-09-19T09:57:25Z</time>
      </trkpt>
      <trkpt lat="45.57079" lon="6.07771">
        <ele>1263.052</ele>
        <time>2020-09-19T09:57:25Z</time>
      </trkpt>
      <trkpt lat="45.57079" lon="6.0777">
        <ele>1263.148</ele>
        <time>2020-09-19T09:57:26Z</time>
      </trkpt>
      <trkpt lat="45.57079" lon="6.0777">
        <ele>1263.148</ele>
        <time>2020-09-19T09:57:26Z</time>
      </trkpt>
      <trkpt lat="45.57079" lon="6.07767">
        <ele>1263.352</ele>
        <time>2020-09-19T09:57:27Z</time>
      </trkpt>
      <trkpt lat="45.57082" lon="6.07764">
        <ele>1264.637</ele>
        <time>2020-09-19T09:57:31Z</time>
      </trkpt>
      <trkpt lat="45.57084" lon="6.07763">
        <ele>1265.643</ele>
        <time>2020-09-19T09:57:33Z</time>
      </trkpt>
      <trkpt lat="45.57088" lon="6.07761">
        <ele>1266.651</ele>
        <time>2020-09-19T09:57:36Z</time>
      </trkpt>
      <trkpt lat="45.5709" lon="6.07759">
        <ele>1267.303</ele>
        <time>2020-09-19T09:57:38Z</time>
      </trkpt>
      <trkpt lat="45.57091" lon="6.07758">
        <ele>1267.292</ele>
        <time>2020-09-19T09:57:39Z</time>
      </trkpt>
      <trkpt lat="45.57093" lon="6.07753">
        <ele>1268.106</ele>
        <time>2020-09-19T09:57:44Z</time>
      </trkpt>
      <trkpt lat="45.57093" lon="6.07748">
        <ele>1268.223</ele>
        <time>2020-09-19T09:57:49Z</time>
      </trkpt>
      <trkpt lat="45.57092" lon="6.07744">
        <ele>1267.86</ele>
        <time>2020-09-19T09:57:52Z</time>
      </trkpt>
      <trkpt lat="45.57093" lon="6.07742">
        <ele>1268.736</ele>
        <time>2020-09-19T09:57:56Z</time>
      </trkpt>
      <trkpt lat="45.57093" lon="6.0774">
        <ele>1268.581</ele>
        <time>2020-09-19T09:57:58Z</time>
      </trkpt>
      <trkpt lat="45.57094" lon="6.07734">
        <ele>1269.417</ele>
        <time>2020-09-19T09:58:02Z</time>
      </trkpt>
      <trkpt lat="45.57097" lon="6.07736">
        <ele>1270.735</ele>
        <time>2020-09-19T09:58:04Z</time>
      </trkpt>
      <trkpt lat="45.57105" lon="6.07739">
        <ele>1270.632</ele>
        <time>2020-09-19T09:58:08Z</time>
      </trkpt>
      <trkpt lat="45.57105" lon="6.0774">
        <ele>1270.282</ele>
        <time>2020-09-19T09:58:09Z</time>
      </trkpt>
      <trkpt lat="45.57104" lon="6.07741">
        <ele>1270.711</ele>
        <time>2020-09-19T09:58:12Z</time>
      </trkpt>
      <trkpt lat="45.57104" lon="6.07741">
        <ele>1270.711</ele>
        <time>2020-09-19T09:58:12Z</time>
      </trkpt>
      <trkpt lat="45.57103" lon="6.0774">
        <ele>1270.751</ele>
        <time>2020-09-19T09:58:13Z</time>
      </trkpt>
      <trkpt lat="45.57104" lon="6.07735">
        <ele>1269.885</ele>
        <time>2020-09-19T09:58:16Z</time>
      </trkpt>
      <trkpt lat="45.57106" lon="6.07733">
        <ele>1271.127</ele>
        <time>2020-09-19T09:58:18Z</time>
      </trkpt>
      <trkpt lat="45.57109" lon="6.07731">
        <ele>1271.676</ele>
        <time>2020-09-19T09:58:22Z</time>
      </trkpt>
      <trkpt lat="45.57109" lon="6.07731">
        <ele>1271.94</ele>
        <time>2020-09-19T09:58:23Z</time>
      </trkpt>
      <trkpt lat="45.57108" lon="6.07728">
        <ele>1271.996</ele>
        <time>2020-09-19T09:58:27Z</time>
      </trkpt>
      <trkpt lat="45.57105" lon="6.07726">
        <ele>1272.097</ele>
        <time>2020-09-19T09:58:31Z</time>
      </trkpt>
      <trkpt lat="45.57105" lon="6.07726">
        <ele>1272.437</ele>
        <time>2020-09-19T09:58:32Z</time>
      </trkpt>
      <trkpt lat="45.57105" lon="6.07726">
        <ele>1272.437</ele>
        <time>2020-09-19T09:58:32Z</time>
      </trkpt>
      <trkpt lat="45.57104" lon="6.07727">
        <ele>1272.248</ele>
        <time>2020-09-19T09:58:33Z</time>
      </trkpt>
      <trkpt lat="45.57102" lon="6.07727">
        <ele>1272.744</ele>
        <time>2020-09-19T09:58:34Z</time>
      </trkpt>
      <trkpt lat="45.57098" lon="6.07723">
        <ele>1273.285</ele>
        <time>2020-09-19T09:58:40Z</time>
      </trkpt>
      <trkpt lat="45.57098" lon="6.07722">
        <ele>1273.685</ele>
        <time>2020-09-19T09:58:41Z</time>
      </trkpt>
      <trkpt lat="45.57099" lon="6.07722">
        <ele>1274.098</ele>
        <time>2020-09-19T09:58:43Z</time>
      </trkpt>
      <trkpt lat="45.57099" lon="6.07722">
        <ele>1273.413</ele>
        <time>2020-09-19T09:58:51Z</time>
      </trkpt>
      <trkpt lat="45.57099" lon="6.07722">
        <ele>1273.352</ele>
        <time>2020-09-19T09:58:52Z</time>
      </trkpt>
      <trkpt lat="45.57099" lon="6.07721">
        <ele>1273.923</ele>
        <time>2020-09-19T09:58:53Z</time>
      </trkpt>
      <trkpt lat="45.571" lon="6.07718">
        <ele>1274.999</ele>
        <time>2020-09-19T09:58:57Z</time>
      </trkpt>
      <trkpt lat="45.57099" lon="6.07717">
        <ele>1275.057</ele>
        <time>2020-09-19T09:58:59Z</time>
      </trkpt>
      <trkpt lat="45.57099" lon="6.07717">
        <ele>1275.057</ele>
        <time>2020-09-19T09:58:59Z</time>
      </trkpt>
      <trkpt lat="45.57099" lon="6.07717">
        <ele>1275.497</ele>
        <time>2020-09-19T09:59:00Z</time>
      </trkpt>
      <trkpt lat="45.57099" lon="6.07717">
        <ele>1275.497</ele>
        <time>2020-09-19T09:59:00Z</time>
      </trkpt>
      <trkpt lat="45.57099" lon="6.07717">
        <ele>1275.634</ele>
        <time>2020-09-19T09:59:01Z</time>
      </trkpt>
      <trkpt lat="45.57099" lon="6.07717">
        <ele>1275.634</ele>
        <time>2020-09-19T09:59:01Z</time>
      </trkpt>
      <trkpt lat="45.57099" lon="6.07717">
        <ele>1275.85</ele>
        <time>2020-09-19T09:59:02Z</time>
      </trkpt>
      <trkpt lat="45.57099" lon="6.07718">
        <ele>1276.224</ele>
        <time>2020-09-19T09:59:03Z</time>
      </trkpt>
      <trkpt lat="45.57098" lon="6.07717">
        <ele>1276.536</ele>
        <time>2020-09-19T09:59:06Z</time>
      </trkpt>
      <trkpt lat="45.57098" lon="6.07716">
        <ele>1277.101</ele>
        <time>2020-09-19T09:59:08Z</time>
      </trkpt>
      <trkpt lat="45.57099" lon="6.07716">
        <ele>1277.131</ele>
        <time>2020-09-19T09:59:10Z</time>
      </trkpt>
      <trkpt lat="45.57099" lon="6.07716">
        <ele>1277.604</ele>
        <time>2020-09-19T09:59:11Z</time>
      </trkpt>
      <trkpt lat="45.57099" lon="6.07716">
        <ele>1277.916</ele>
        <time>2020-09-19T09:59:12Z</time>
      </trkpt>
      <trkpt lat="45.57101" lon="6.07715">
        <ele>1277.765</ele>
        <time>2020-09-19T09:59:13Z</time>
      </trkpt>
      <trkpt lat="45.571" lon="6.07713">
        <ele>1278</ele>
        <time>2020-09-19T09:59:16Z</time>
      </trkpt>
      <trkpt lat="45.571" lon="6.07712">
        <ele>1277.829</ele>
        <time>2020-09-19T09:59:17Z</time>
      </trkpt>
      <trkpt lat="45.571" lon="6.07711">
        <ele>1277.77</ele>
        <time>2020-09-19T09:59:18Z</time>
      </trkpt>
      <trkpt lat="45.57099" lon="6.07711">
        <ele>1278.316</ele>
        <time>2020-09-19T09:59:19Z</time>
      </trkpt>
      <trkpt lat="45.57099" lon="6.07711">
        <ele>1278.316</ele>
        <time>2020-09-19T09:59:19Z</time>
      </trkpt>
      <trkpt lat="45.57099" lon="6.07712">
        <ele>1278.51</ele>
        <time>2020-09-19T09:59:20Z</time>
      </trkpt>
      <trkpt lat="45.57101" lon="6.07711">
        <ele>1278.78</ele>
        <time>2020-09-19T09:59:28Z</time>
      </trkpt>
      <trkpt lat="45.57101" lon="6.07713">
        <ele>1278.978</ele>
        <time>2020-09-19T09:59:31Z</time>
      </trkpt>
      <trkpt lat="45.57099" lon="6.07714">
        <ele>1279.844</ele>
        <time>2020-09-19T09:59:33Z</time>
      </trkpt>
      <trkpt lat="45.57098" lon="6.07714">
        <ele>1279.775</ele>
        <time>2020-09-19T09:59:35Z</time>
      </trkpt>
      <trkpt lat="45.57097" lon="6.07713">
        <ele>1280.66</ele>
        <time>2020-09-19T09:59:36Z</time>
      </trkpt>
      <trkpt lat="45.57096" lon="6.07712">
        <ele>1280.724</ele>
        <time>2020-09-19T09:59:37Z</time>
      </trkpt>
      <trkpt lat="45.57096" lon="6.07712">
        <ele>1281.069</ele>
        <time>2020-09-19T09:59:39Z</time>
      </trkpt>
      <trkpt lat="45.57101" lon="6.07713">
        <ele>1279.928</ele>
        <time>2020-09-19T09:59:44Z</time>
      </trkpt>
      <trkpt lat="45.57101" lon="6.07713">
        <ele>1279.983</ele>
        <time>2020-09-19T09:59:45Z</time>
      </trkpt>
      <trkpt lat="45.57101" lon="6.07713">
        <ele>1279.205</ele>
        <time>2020-09-19T09:59:53Z</time>
      </trkpt>
      <trkpt lat="45.57104" lon="6.07714">
        <ele>1279.592</ele>
        <time>2020-09-19T09:59:54Z</time>
      </trkpt>
      <trkpt lat="45.57102" lon="6.07713">
        <ele>1279.698</ele>
        <time>2020-09-19T09:59:56Z</time>
      </trkpt>
      <trkpt lat="45.57101" lon="6.07713">
        <ele>1280.684</ele>
        <time>2020-09-19T09:59:57Z</time>
      </trkpt>
      <trkpt lat="45.571" lon="6.07713">
        <ele>1280.623</ele>
        <time>2020-09-19T09:59:59Z</time>
      </trkpt>
      <trkpt lat="45.571" lon="6.07713">
        <ele>1280.623</ele>
        <time>2020-09-19T09:59:59Z</time>
      </trkpt>
      <trkpt lat="45.57101" lon="6.07713">
        <ele>1281.438</ele>
        <time>2020-09-19T10:00:00Z</time>
      </trkpt>
      <trkpt lat="45.57101" lon="6.07713">
        <ele>1281.663</ele>
        <time>2020-09-19T10:00:01Z</time>
      </trkpt>
      <trkpt lat="45.57101" lon="6.07711">
        <ele>1282.31</ele>
        <time>2020-09-19T10:00:03Z</time>
      </trkpt>
      <trkpt lat="45.57101" lon="6.07711">
        <ele>1282.615</ele>
        <time>2020-09-19T10:00:04Z</time>
      </trkpt>
      <trkpt lat="45.57101" lon="6.07711">
        <ele>1282.615</ele>
        <time>2020-09-19T10:00:04Z</time>
      </trkpt>
      <trkpt lat="45.57101" lon="6.0771">
        <ele>1282.944</ele>
        <time>2020-09-19T10:00:05Z</time>
      </trkpt>
      <trkpt lat="45.57101" lon="6.07709">
        <ele>1284.2</ele>
        <time>2020-09-19T10:00:07Z</time>
      </trkpt>
      <trkpt lat="45.57101" lon="6.07709">
        <ele>1285.628</ele>
        <time>2020-09-19T10:00:09Z</time>
      </trkpt>
      <trkpt lat="45.57102" lon="6.07713">
        <ele>1286.564</ele>
        <time>2020-09-19T10:00:10Z</time>
      </trkpt>
      <trkpt lat="45.57104" lon="6.07716">
        <ele>1286.499</ele>
        <time>2020-09-19T10:00:12Z</time>
      </trkpt>
      <trkpt lat="45.57104" lon="6.07716">
        <ele>1286.499</ele>
        <time>2020-09-19T10:00:12Z</time>
      </trkpt>
      <trkpt lat="45.57105" lon="6.07717">
        <ele>1287.619</ele>
        <time>2020-09-19T10:00:13Z</time>
      </trkpt>
      <trkpt lat="45.57105" lon="6.07717">
        <ele>1288.248</ele>
        <time>2020-09-19T10:00:15Z</time>
      </trkpt>
      <trkpt lat="45.57105" lon="6.07717">
        <ele>1289.521</ele>
        <time>2020-09-19T10:00:16Z</time>
      </trkpt>
      <trkpt lat="45.57105" lon="6.07717">
        <ele>1290.364</ele>
        <time>2020-09-19T10:00:18Z</time>
      </trkpt>
      <trkpt lat="45.57107" lon="6.07717">
        <ele>1290.62</ele>
        <time>2020-09-19T10:00:19Z</time>
      </trkpt>
      <trkpt lat="45.57107" lon="6.07717">
        <ele>1290.656</ele>
        <time>2020-09-19T10:00:20Z</time>
      </trkpt>
      <trkpt lat="45.57107" lon="6.07717">
        <ele>1289.572</ele>
        <time>2020-09-19T10:00:34Z</time>
      </trkpt>
      <trkpt lat="45.57109" lon="6.07717">
        <ele>1289.894</ele>
        <time>2020-09-19T10:00:35Z</time>
      </trkpt>
      <trkpt lat="45.57112" lon="6.07717">
        <ele>1292.276</ele>
        <time>2020-09-19T10:00:39Z</time>
      </trkpt>
      <trkpt lat="45.57112" lon="6.07717">
        <ele>1293.186</ele>
        <time>2020-09-19T10:00:40Z</time>
      </trkpt>
      <trkpt lat="45.57112" lon="6.07717">
        <ele>1292.999</ele>
        <time>2020-09-19T10:00:41Z</time>
      </trkpt>
      <trkpt lat="45.57112" lon="6.07717">
        <ele>1292.999</ele>
        <time>2020-09-19T10:00:41Z</time>
      </trkpt>
      <trkpt lat="45.57113" lon="6.07718">
        <ele>1292.575</ele>
        <time>2020-09-19T10:00:42Z</time>
      </trkpt>
      <trkpt lat="45.57113" lon="6.07718">
        <ele>1292.561</ele>
        <time>2020-09-19T10:00:43Z</time>
      </trkpt>
      <trkpt lat="45.57113" lon="6.07718">
        <ele>1292.636</ele>
        <time>2020-09-19T10:01:07Z</time>
      </trkpt>
      <trkpt lat="45.57113" lon="6.07718">
        <ele>1293.16</ele>
        <time>2020-09-19T10:01:08Z</time>
      </trkpt>
      <trkpt lat="45.57113" lon="6.07718">
        <ele>1293.16</ele>
        <time>2020-09-19T10:01:08Z</time>
      </trkpt>
      <trkpt lat="45.57113" lon="6.07718">
        <ele>1292.995</ele>
        <time>2020-09-19T10:01:09Z</time>
      </trkpt>
      <trkpt lat="45.57113" lon="6.07718">
        <ele>1292.995</ele>
        <time>2020-09-19T10:01:09Z</time>
      </trkpt>
      <trkpt lat="45.57112" lon="6.07718">
        <ele>1293.309</ele>
        <time>2020-09-19T10:01:10Z</time>
      </trkpt>
      <trkpt lat="45.57112" lon="6.07717">
        <ele>1293.742</ele>
        <time>2020-09-19T10:01:11Z</time>
      </trkpt>
      <trkpt lat="45.57111" lon="6.07714">
        <ele>1295.844</ele>
        <time>2020-09-19T10:01:15Z</time>
      </trkpt>
      <trkpt lat="45.57111" lon="6.07714">
        <ele>1295.425</ele>
        <time>2020-09-19T10:01:16Z</time>
      </trkpt>
      <trkpt lat="45.57111" lon="6.07714">
        <ele>1295.425</ele>
        <time>2020-09-19T10:01:16Z</time>
      </trkpt>
      <trkpt lat="45.5711" lon="6.07714">
        <ele>1295.794</ele>
        <time>2020-09-19T10:01:17Z</time>
      </trkpt>
      <trkpt lat="45.57107" lon="6.07715">
        <ele>1296.506</ele>
        <time>2020-09-19T10:01:20Z</time>
      </trkpt>
      <trkpt lat="45.571" lon="6.07712">
        <ele>1296.056</ele>
        <time>2020-09-19T10:01:26Z</time>
      </trkpt>
      <trkpt lat="45.57093" lon="6.07709">
        <ele>1296.585</ele>
        <time>2020-09-19T10:01:33Z</time>
      </trkpt>
      <trkpt lat="45.57093" lon="6.07709">
        <ele>1296.585</ele>
        <time>2020-09-19T10:01:33Z</time>
      </trkpt>
      <trkpt lat="45.57092" lon="6.0771">
        <ele>1297.055</ele>
        <time>2020-09-19T10:01:34Z</time>
      </trkpt>
      <trkpt lat="45.57091" lon="6.07708">
        <ele>1297.108</ele>
        <time>2020-09-19T10:01:38Z</time>
      </trkpt>
      <trkpt lat="45.5709" lon="6.07707">
        <ele>1297.626</ele>
        <time>2020-09-19T10:01:41Z</time>
      </trkpt>
      <trkpt lat="45.5709" lon="6.07707">
        <ele>1296.835</ele>
        <time>2020-09-19T10:01:42Z</time>
      </trkpt>
      <trkpt lat="45.57089" lon="6.07705">
        <ele>1296.938</ele>
        <time>2020-09-19T10:01:43Z</time>
      </trkpt>
      <trkpt lat="45.57088" lon="6.07705">
        <ele>1296.739</ele>
        <time>2020-09-19T10:01:47Z</time>
      </trkpt>
      <trkpt lat="45.57088" lon="6.07705">
        <ele>1296.739</ele>
        <time>2020-09-19T10:01:47Z</time>
      </trkpt>
      <trkpt lat="45.57087" lon="6.07704">
        <ele>1297.018</ele>
        <time>2020-09-19T10:01:48Z</time>
      </trkpt>
      <trkpt lat="45.57086" lon="6.07703">
        <ele>1296.978</ele>
        <time>2020-09-19T10:01:49Z</time>
      </trkpt>
      <trkpt lat="45.57084" lon="6.07701">
        <ele>1298.223</ele>
        <time>2020-09-19T10:01:52Z</time>
      </trkpt>
      <trkpt lat="45.57081" lon="6.07699">
        <ele>1300.252</ele>
        <time>2020-09-19T10:01:55Z</time>
      </trkpt>
      <trkpt lat="45.57078" lon="6.07698">
        <ele>1300.009</ele>
        <time>2020-09-19T10:01:59Z</time>
      </trkpt>
      <trkpt lat="45.57075" lon="6.07698">
        <ele>1300.345</ele>
        <time>2020-09-19T10:02:01Z</time>
      </trkpt>
      <trkpt lat="45.57068" lon="6.07691">
        <ele>1299.797</ele>
        <time>2020-09-19T10:02:07Z</time>
      </trkpt>
      <trkpt lat="45.57069" lon="6.07689">
        <ele>1299.962</ele>
        <time>2020-09-19T10:02:09Z</time>
      </trkpt>
      <trkpt lat="45.5707" lon="6.07689">
        <ele>1300.352</ele>
        <time>2020-09-19T10:02:10Z</time>
      </trkpt>
      <trkpt lat="45.5707" lon="6.07689">
        <ele>1300.711</ele>
        <time>2020-09-19T10:02:11Z</time>
      </trkpt>
      <trkpt lat="45.5707" lon="6.07689">
        <ele>1300.711</ele>
        <time>2020-09-19T10:02:11Z</time>
      </trkpt>
      <trkpt lat="45.57072" lon="6.0769">
        <ele>1300.638</ele>
        <time>2020-09-19T10:02:12Z</time>
      </trkpt>
      <trkpt lat="45.57073" lon="6.07691">
        <ele>1301.23</ele>
        <time>2020-09-19T10:02:14Z</time>
      </trkpt>
      <trkpt lat="45.57068" lon="6.0769">
        <ele>1301.922</ele>
        <time>2020-09-19T10:02:21Z</time>
      </trkpt>
      <trkpt lat="45.57066" lon="6.07686">
        <ele>1301.395</ele>
        <time>2020-09-19T10:02:24Z</time>
      </trkpt>
      <trkpt lat="45.57066" lon="6.07684">
        <ele>1301.85</ele>
        <time>2020-09-19T10:02:27Z</time>
      </trkpt>
      <trkpt lat="45.57066" lon="6.07684">
        <ele>1301.85</ele>
        <time>2020-09-19T10:02:27Z</time>
      </trkpt>
      <trkpt lat="45.57066" lon="6.07683">
        <ele>1301.369</ele>
        <time>2020-09-19T10:02:28Z</time>
      </trkpt>
      <trkpt lat="45.57067" lon="6.07683">
        <ele>1301.212</ele>
        <time>2020-09-19T10:02:29Z</time>
      </trkpt>
      <trkpt lat="45.57067" lon="6.07682">
        <ele>1302.294</ele>
        <time>2020-09-19T10:02:31Z</time>
      </trkpt>
      <trkpt lat="45.57067" lon="6.07681">
        <ele>1302.509</ele>
        <time>2020-09-19T10:02:32Z</time>
      </trkpt>
      <trkpt lat="45.57067" lon="6.07681">
        <ele>1302.651</ele>
        <time>2020-09-19T10:02:33Z</time>
      </trkpt>
      <trkpt lat="45.57067" lon="6.07681">
        <ele>1302.649</ele>
        <time>2020-09-19T10:02:34Z</time>
      </trkpt>
      <trkpt lat="45.57068" lon="6.07678">
        <ele>1302.421</ele>
        <time>2020-09-19T10:02:35Z</time>
      </trkpt>
      <trkpt lat="45.57069" lon="6.07676">
        <ele>1302.639</ele>
        <time>2020-09-19T10:02:37Z</time>
      </trkpt>
      <trkpt lat="45.57069" lon="6.07676">
        <ele>1303.256</ele>
        <time>2020-09-19T10:02:38Z</time>
      </trkpt>
      <trkpt lat="45.57069" lon="6.07676">
        <ele>1303.256</ele>
        <time>2020-09-19T10:02:38Z</time>
      </trkpt>
      <trkpt lat="45.57069" lon="6.07675">
        <ele>1303.439</ele>
        <time>2020-09-19T10:02:39Z</time>
      </trkpt>
      <trkpt lat="45.5707" lon="6.07676">
        <ele>1303.473</ele>
        <time>2020-09-19T10:02:40Z</time>
      </trkpt>
      <trkpt lat="45.5707" lon="6.07676">
        <ele>1304.036</ele>
        <time>2020-09-19T10:02:41Z</time>
      </trkpt>
      <trkpt lat="45.5707" lon="6.07676">
        <ele>1304.036</ele>
        <time>2020-09-19T10:02:41Z</time>
      </trkpt>
      <trkpt lat="45.5707" lon="6.07676">
        <ele>1303.692</ele>
        <time>2020-09-19T10:02:42Z</time>
      </trkpt>
      <trkpt lat="45.57073" lon="6.07676">
        <ele>1304.313</ele>
        <time>2020-09-19T10:02:44Z</time>
      </trkpt>
      <trkpt lat="45.57074" lon="6.07675">
        <ele>1304.419</ele>
        <time>2020-09-19T10:02:47Z</time>
      </trkpt>
      <trkpt lat="45.57074" lon="6.07676">
        <ele>1305.363</ele>
        <time>2020-09-19T10:02:49Z</time>
      </trkpt>
      <trkpt lat="45.57074" lon="6.07677">
        <ele>1305.746</ele>
        <time>2020-09-19T10:02:51Z</time>
      </trkpt>
      <trkpt lat="45.57077" lon="6.07675">
        <ele>1305.928</ele>
        <time>2020-09-19T10:02:54Z</time>
      </trkpt>
      <trkpt lat="45.57078" lon="6.07674">
        <ele>1306.062</ele>
        <time>2020-09-19T10:02:55Z</time>
      </trkpt>
      <trkpt lat="45.57086" lon="6.07674">
        <ele>1306.572</ele>
        <time>2020-09-19T10:02:57Z</time>
      </trkpt>
      <trkpt lat="45.57087" lon="6.07674">
        <ele>1306.57</ele>
        <time>2020-09-19T10:02:59Z</time>
      </trkpt>
      <trkpt lat="45.57088" lon="6.07674">
        <ele>1306.578</ele>
        <time>2020-09-19T10:03:00Z</time>
      </trkpt>
      <trkpt lat="45.57089" lon="6.07673">
        <ele>1306.676</ele>
        <time>2020-09-19T10:03:04Z</time>
      </trkpt>
      <trkpt lat="45.5709" lon="6.07674">
        <ele>1305.978</ele>
        <time>2020-09-19T10:03:07Z</time>
      </trkpt>
      <trkpt lat="45.57089" lon="6.07678">
        <ele>1306.285</ele>
        <time>2020-09-19T10:03:11Z</time>
      </trkpt>
      <trkpt lat="45.57089" lon="6.07678">
        <ele>1306.212</ele>
        <time>2020-09-19T10:03:12Z</time>
      </trkpt>
      <trkpt lat="45.57089" lon="6.07678">
        <ele>1305.447</ele>
        <time>2020-09-19T10:03:37Z</time>
      </trkpt>
      <trkpt lat="45.57088" lon="6.07681">
        <ele>1305.232</ele>
        <time>2020-09-19T10:03:38Z</time>
      </trkpt>
      <trkpt lat="45.5709" lon="6.07678">
        <ele>1305.524</ele>
        <time>2020-09-19T10:03:42Z</time>
      </trkpt>
      <trkpt lat="45.5709" lon="6.07678">
        <ele>1305.644</ele>
        <time>2020-09-19T10:03:44Z</time>
      </trkpt>
      <trkpt lat="45.5709" lon="6.07678">
        <ele>1305.644</ele>
        <time>2020-09-19T10:03:44Z</time>
      </trkpt>
      <trkpt lat="45.5709" lon="6.07677">
        <ele>1305.722</ele>
        <time>2020-09-19T10:03:45Z</time>
      </trkpt>
      <trkpt lat="45.57091" lon="6.07676">
        <ele>1305.752</ele>
        <time>2020-09-19T10:03:46Z</time>
      </trkpt>
      <trkpt lat="45.57092" lon="6.07676">
        <ele>1305.992</ele>
        <time>2020-09-19T10:03:47Z</time>
      </trkpt>
      <trkpt lat="45.57094" lon="6.07673">
        <ele>1306.163</ele>
        <time>2020-09-19T10:03:49Z</time>
      </trkpt>
      <trkpt lat="45.57098" lon="6.07671">
        <ele>1306.393</ele>
        <time>2020-09-19T10:03:53Z</time>
      </trkpt>
      <trkpt lat="45.57099" lon="6.07671">
        <ele>1306.38</ele>
        <time>2020-09-19T10:03:55Z</time>
      </trkpt>
      <trkpt lat="45.57099" lon="6.07671">
        <ele>1306.38</ele>
        <time>2020-09-19T10:03:55Z</time>
      </trkpt>
      <trkpt lat="45.57099" lon="6.0767">
        <ele>1306.374</ele>
        <time>2020-09-19T10:03:56Z</time>
      </trkpt>
      <trkpt lat="45.57099" lon="6.07669">
        <ele>1306.445</ele>
        <time>2020-09-19T10:03:57Z</time>
      </trkpt>
      <trkpt lat="45.57099" lon="6.07668">
        <ele>1306.468</ele>
        <time>2020-09-19T10:03:58Z</time>
      </trkpt>
      <trkpt lat="45.571" lon="6.07667">
        <ele>1307.049</ele>
        <time>2020-09-19T10:04:00Z</time>
      </trkpt>
      <trkpt lat="45.571" lon="6.07666">
        <ele>1307.692</ele>
        <time>2020-09-19T10:04:04Z</time>
      </trkpt>
      <trkpt lat="45.571" lon="6.07666">
        <ele>1307.692</ele>
        <time>2020-09-19T10:04:04Z</time>
      </trkpt>
      <trkpt lat="45.571" lon="6.07665">
        <ele>1308.237</ele>
        <time>2020-09-19T10:04:05Z</time>
      </trkpt>
      <trkpt lat="45.57098" lon="6.07666">
        <ele>1308.61</ele>
        <time>2020-09-19T10:04:08Z</time>
      </trkpt>
      <trkpt lat="45.57096" lon="6.0767">
        <ele>1309.063</ele>
        <time>2020-09-19T10:04:11Z</time>
      </trkpt>
      <trkpt lat="45.57094" lon="6.07674">
        <ele>1309.057</ele>
        <time>2020-09-19T10:04:14Z</time>
      </trkpt>
      <trkpt lat="45.57089" lon="6.07676">
        <ele>1309.694</ele>
        <time>2020-09-19T10:04:19Z</time>
      </trkpt>
      <trkpt lat="45.57089" lon="6.07674">
        <ele>1309.717</ele>
        <time>2020-09-19T10:04:20Z</time>
      </trkpt>
      <trkpt lat="45.57088" lon="6.07672">
        <ele>1309.977</ele>
        <time>2020-09-19T10:04:22Z</time>
      </trkpt>
      <trkpt lat="45.57088" lon="6.0767">
        <ele>1310.175</ele>
        <time>2020-09-19T10:04:24Z</time>
      </trkpt>
      <trkpt lat="45.57087" lon="6.07669">
        <ele>1310.507</ele>
        <time>2020-09-19T10:04:28Z</time>
      </trkpt>
      <trkpt lat="45.57087" lon="6.07669">
        <ele>1310.363</ele>
        <time>2020-09-19T10:04:29Z</time>
      </trkpt>
      <trkpt lat="45.57087" lon="6.07668">
        <ele>1310.279</ele>
        <time>2020-09-19T10:04:30Z</time>
      </trkpt>
      <trkpt lat="45.57087" lon="6.07667">
        <ele>1310.639</ele>
        <time>2020-09-19T10:04:31Z</time>
      </trkpt>
      <trkpt lat="45.57087" lon="6.07665">
        <ele>1310.826</ele>
        <time>2020-09-19T10:04:32Z</time>
      </trkpt>
      <trkpt lat="45.57088" lon="6.07664">
        <ele>1310.958</ele>
        <time>2020-09-19T10:04:33Z</time>
      </trkpt>
      <trkpt lat="45.57091" lon="6.07661">
        <ele>1311.294</ele>
        <time>2020-09-19T10:04:37Z</time>
      </trkpt>
      <trkpt lat="45.57092" lon="6.0766">
        <ele>1311.504</ele>
        <time>2020-09-19T10:04:39Z</time>
      </trkpt>
      <trkpt lat="45.57092" lon="6.0766">
        <ele>1311.504</ele>
        <time>2020-09-19T10:04:39Z</time>
      </trkpt>
      <trkpt lat="45.57092" lon="6.07659">
        <ele>1311.728</ele>
        <time>2020-09-19T10:04:40Z</time>
      </trkpt>
      <trkpt lat="45.57094" lon="6.07659">
        <ele>1311.823</ele>
        <time>2020-09-19T10:04:43Z</time>
      </trkpt>
      <trkpt lat="45.57094" lon="6.07658">
        <ele>1312.164</ele>
        <time>2020-09-19T10:04:46Z</time>
      </trkpt>
      <trkpt lat="45.57092" lon="6.07655">
        <ele>1312.259</ele>
        <time>2020-09-19T10:04:48Z</time>
      </trkpt>
      <trkpt lat="45.57092" lon="6.0765">
        <ele>1313.248</ele>
        <time>2020-09-19T10:04:52Z</time>
      </trkpt>
      <trkpt lat="45.57093" lon="6.07648">
        <ele>1313.574</ele>
        <time>2020-09-19T10:04:53Z</time>
      </trkpt>
      <trkpt lat="45.57094" lon="6.07646">
        <ele>1313.946</ele>
        <time>2020-09-19T10:04:55Z</time>
      </trkpt>
      <trkpt lat="45.57095" lon="6.07643">
        <ele>1313.902</ele>
        <time>2020-09-19T10:04:58Z</time>
      </trkpt>
      <trkpt lat="45.57095" lon="6.07642">
        <ele>1314.084</ele>
        <time>2020-09-19T10:05:00Z</time>
      </trkpt>
      <trkpt lat="45.57095" lon="6.07642">
        <ele>1314.084</ele>
        <time>2020-09-19T10:05:00Z</time>
      </trkpt>
      <trkpt lat="45.57096" lon="6.07642">
        <ele>1314.036</ele>
        <time>2020-09-19T10:05:01Z</time>
      </trkpt>
      <trkpt lat="45.57096" lon="6.07642">
        <ele>1314.094</ele>
        <time>2020-09-19T10:05:02Z</time>
      </trkpt>
      <trkpt lat="45.57096" lon="6.07642">
        <ele>1314.094</ele>
        <time>2020-09-19T10:05:02Z</time>
      </trkpt>
      <trkpt lat="45.57097" lon="6.07641">
        <ele>1314.155</ele>
        <time>2020-09-19T10:05:03Z</time>
      </trkpt>
      <trkpt lat="45.57096" lon="6.07638">
        <ele>1314.654</ele>
        <time>2020-09-19T10:05:08Z</time>
      </trkpt>
      <trkpt lat="45.571" lon="6.07632">
        <ele>1315.385</ele>
        <time>2020-09-19T10:05:15Z</time>
      </trkpt>
      <trkpt lat="45.57101" lon="6.0763">
        <ele>1315.936</ele>
        <time>2020-09-19T10:05:20Z</time>
      </trkpt>
      <trkpt lat="45.57101" lon="6.0763">
        <ele>1316.081</ele>
        <time>2020-09-19T10:05:21Z</time>
      </trkpt>
      <trkpt lat="45.57101" lon="6.0763">
        <ele>1315.974</ele>
        <time>2020-09-19T10:05:22Z</time>
      </trkpt>
      <trkpt lat="45.571" lon="6.0763">
        <ele>1316.196</ele>
        <time>2020-09-19T10:05:23Z</time>
      </trkpt>
      <trkpt lat="45.57099" lon="6.07629">
        <ele>1316.522</ele>
        <time>2020-09-19T10:05:25Z</time>
      </trkpt>
      <trkpt lat="45.57099" lon="6.07629">
        <ele>1316.701</ele>
        <time>2020-09-19T10:05:26Z</time>
      </trkpt>
      <trkpt lat="45.57099" lon="6.07629">
        <ele>1316.652</ele>
        <time>2020-09-19T10:05:27Z</time>
      </trkpt>
      <trkpt lat="45.57099" lon="6.07629">
        <ele>1316.652</ele>
        <time>2020-09-19T10:05:27Z</time>
      </trkpt>
      <trkpt lat="45.571" lon="6.07628">
        <ele>1316.678</ele>
        <time>2020-09-19T10:05:28Z</time>
      </trkpt>
      <trkpt lat="45.571" lon="6.07628">
        <ele>1316.437</ele>
        <time>2020-09-19T10:05:30Z</time>
      </trkpt>
      <trkpt lat="45.571" lon="6.07628">
        <ele>1316.437</ele>
        <time>2020-09-19T10:05:30Z</time>
      </trkpt>
      <trkpt lat="45.57102" lon="6.07627">
        <ele>1316.874</ele>
        <time>2020-09-19T10:05:31Z</time>
      </trkpt>
      <trkpt lat="45.57102" lon="6.07626">
        <ele>1316.588</ele>
        <time>2020-09-19T10:05:32Z</time>
      </trkpt>
      <trkpt lat="45.57102" lon="6.07625">
        <ele>1316.353</ele>
        <time>2020-09-19T10:05:33Z</time>
      </trkpt>
      <trkpt lat="45.571" lon="6.07623">
        <ele>1317.137</ele>
        <time>2020-09-19T10:05:37Z</time>
      </trkpt>
      <trkpt lat="45.57097" lon="6.07626">
        <ele>1317.92</ele>
        <time>2020-09-19T10:05:40Z</time>
      </trkpt>
      <trkpt lat="45.57095" lon="6.07625">
        <ele>1318.287</ele>
        <time>2020-09-19T10:05:43Z</time>
      </trkpt>
      <trkpt lat="45.57095" lon="6.07624">
        <ele>1318.849</ele>
        <time>2020-09-19T10:05:45Z</time>
      </trkpt>
      <trkpt lat="45.57095" lon="6.07624">
        <ele>1318.849</ele>
        <time>2020-09-19T10:05:45Z</time>
      </trkpt>
      <trkpt lat="45.57094" lon="6.07624">
        <ele>1319.121</ele>
        <time>2020-09-19T10:05:46Z</time>
      </trkpt>
      <trkpt lat="45.57092" lon="6.07621">
        <ele>1319.083</ele>
        <time>2020-09-19T10:05:48Z</time>
      </trkpt>
      <trkpt lat="45.57092" lon="6.07618">
        <ele>1318.801</ele>
        <time>2020-09-19T10:05:51Z</time>
      </trkpt>
      <trkpt lat="45.57094" lon="6.07616">
        <ele>1320.717</ele>
        <time>2020-09-19T10:05:53Z</time>
      </trkpt>
      <trkpt lat="45.57095" lon="6.07611">
        <ele>1320.846</ele>
        <time>2020-09-19T10:05:56Z</time>
      </trkpt>
      <trkpt lat="45.57095" lon="6.0761">
        <ele>1320.467</ele>
        <time>2020-09-19T10:05:57Z</time>
      </trkpt>
      <trkpt lat="45.57095" lon="6.0761">
        <ele>1320.467</ele>
        <time>2020-09-19T10:05:57Z</time>
      </trkpt>
      <trkpt lat="45.57095" lon="6.0761">
        <ele>1320.292</ele>
        <time>2020-09-19T10:05:58Z</time>
      </trkpt>
      <trkpt lat="45.57095" lon="6.0761">
        <ele>1320.292</ele>
        <time>2020-09-19T10:05:58Z</time>
      </trkpt>
      <trkpt lat="45.57096" lon="6.07609">
        <ele>1320.026</ele>
        <time>2020-09-19T10:05:59Z</time>
      </trkpt>
      <trkpt lat="45.57097" lon="6.07609">
        <ele>1321.523</ele>
        <time>2020-09-19T10:06:00Z</time>
      </trkpt>
      <trkpt lat="45.57098" lon="6.07608">
        <ele>1321.192</ele>
        <time>2020-09-19T10:06:02Z</time>
      </trkpt>
      <trkpt lat="45.57098" lon="6.07608">
        <ele>1321.192</ele>
        <time>2020-09-19T10:06:02Z</time>
      </trkpt>
      <trkpt lat="45.57098" lon="6.07607">
        <ele>1321.249</ele>
        <time>2020-09-19T10:06:03Z</time>
      </trkpt>
      <trkpt lat="45.571" lon="6.07603">
        <ele>1321.91</ele>
        <time>2020-09-19T10:06:06Z</time>
      </trkpt>
      <trkpt lat="45.57102" lon="6.07598">
        <ele>1322.115</ele>
        <time>2020-09-19T10:06:10Z</time>
      </trkpt>
      <trkpt lat="45.57102" lon="6.07598">
        <ele>1322.252</ele>
        <time>2020-09-19T10:06:11Z</time>
      </trkpt>
      <trkpt lat="45.57102" lon="6.07599">
        <ele>1322.155</ele>
        <time>2020-09-19T10:06:13Z</time>
      </trkpt>
      <trkpt lat="45.57103" lon="6.07606">
        <ele>1322.705</ele>
        <time>2020-09-19T10:06:17Z</time>
      </trkpt>
      <trkpt lat="45.57102" lon="6.07613">
        <ele>1321.364</ele>
        <time>2020-09-19T10:06:20Z</time>
      </trkpt>
      <trkpt lat="45.57101" lon="6.07613">
        <ele>1321.348</ele>
        <time>2020-09-19T10:06:23Z</time>
      </trkpt>
      <trkpt lat="45.57101" lon="6.07613">
        <ele>1321.348</ele>
        <time>2020-09-19T10:06:23Z</time>
      </trkpt>
      <trkpt lat="45.57099" lon="6.07613">
        <ele>1321.684</ele>
        <time>2020-09-19T10:06:24Z</time>
      </trkpt>
      <trkpt lat="45.57096" lon="6.07612">
        <ele>1321.978</ele>
        <time>2020-09-19T10:06:27Z</time>
      </trkpt>
      <trkpt lat="45.57094" lon="6.07613">
        <ele>1321.868</ele>
        <time>2020-09-19T10:06:29Z</time>
      </trkpt>
      <trkpt lat="45.57093" lon="6.07613">
        <ele>1322.869</ele>
        <time>2020-09-19T10:06:30Z</time>
      </trkpt>
      <trkpt lat="45.57092" lon="6.07613">
        <ele>1322.639</ele>
        <time>2020-09-19T10:06:32Z</time>
      </trkpt>
      <trkpt lat="45.57092" lon="6.07613">
        <ele>1322.653</ele>
        <time>2020-09-19T10:06:34Z</time>
      </trkpt>
      <trkpt lat="45.57092" lon="6.07609">
        <ele>1322.323</ele>
        <time>2020-09-19T10:06:35Z</time>
      </trkpt>
      <trkpt lat="45.57091" lon="6.07604">
        <ele>1323.084</ele>
        <time>2020-09-19T10:06:38Z</time>
      </trkpt>
      <trkpt lat="45.57088" lon="6.07603">
        <ele>1323.428</ele>
        <time>2020-09-19T10:06:42Z</time>
      </trkpt>
      <trkpt lat="45.57088" lon="6.07604">
        <ele>1323.545</ele>
        <time>2020-09-19T10:06:43Z</time>
      </trkpt>
      <trkpt lat="45.57088" lon="6.076">
        <ele>1326.556</ele>
        <time>2020-09-19T10:06:47Z</time>
      </trkpt>
      <trkpt lat="45.57087" lon="6.07596">
        <ele>1327.623</ele>
        <time>2020-09-19T10:06:51Z</time>
      </trkpt>
      <trkpt lat="45.57087" lon="6.07595">
        <ele>1326.548</ele>
        <time>2020-09-19T10:06:52Z</time>
      </trkpt>
      <trkpt lat="45.57087" lon="6.07595">
        <ele>1327.436</ele>
        <time>2020-09-19T10:06:53Z</time>
      </trkpt>
      <trkpt lat="45.57087" lon="6.07595">
        <ele>1327.436</ele>
        <time>2020-09-19T10:06:53Z</time>
      </trkpt>
      <trkpt lat="45.57087" lon="6.07593">
        <ele>1327.308</ele>
        <time>2020-09-19T10:06:54Z</time>
      </trkpt>
      <trkpt lat="45.57086" lon="6.0759">
        <ele>1329.898</ele>
        <time>2020-09-19T10:06:58Z</time>
      </trkpt>
      <trkpt lat="45.57085" lon="6.07593">
        <ele>1331.264</ele>
        <time>2020-09-19T10:07:04Z</time>
      </trkpt>
      <trkpt lat="45.57085" lon="6.07593">
        <ele>1331.453</ele>
        <time>2020-09-19T10:07:05Z</time>
      </trkpt>
      <trkpt lat="45.57085" lon="6.07593">
        <ele>1331.453</ele>
        <time>2020-09-19T10:07:05Z</time>
      </trkpt>
      <trkpt lat="45.57084" lon="6.07596">
        <ele>1331.509</ele>
        <time>2020-09-19T10:07:06Z</time>
      </trkpt>
      <trkpt lat="45.57085" lon="6.07598">
        <ele>1330.67</ele>
        <time>2020-09-19T10:07:08Z</time>
      </trkpt>
      <trkpt lat="45.57084" lon="6.07598">
        <ele>1330.363</ele>
        <time>2020-09-19T10:07:09Z</time>
      </trkpt>
      <trkpt lat="45.57084" lon="6.07598">
        <ele>1330.705</ele>
        <time>2020-09-19T10:07:10Z</time>
      </trkpt>
      <trkpt lat="45.57084" lon="6.07598">
        <ele>1330.186</ele>
        <time>2020-09-19T10:07:13Z</time>
      </trkpt>
      <trkpt lat="45.57082" lon="6.07599">
        <ele>1330.209</ele>
        <time>2020-09-19T10:07:14Z</time>
      </trkpt>
      <trkpt lat="45.57081" lon="6.07598">
        <ele>1330.276</ele>
        <time>2020-09-19T10:07:15Z</time>
      </trkpt>
      <trkpt lat="45.57081" lon="6.07598">
        <ele>1330.326</ele>
        <time>2020-09-19T10:07:16Z</time>
      </trkpt>
      <trkpt lat="45.5708" lon="6.07597">
        <ele>1331.264</ele>
        <time>2020-09-19T10:07:19Z</time>
      </trkpt>
      <trkpt lat="45.5708" lon="6.07597">
        <ele>1331.635</ele>
        <time>2020-09-19T10:07:20Z</time>
      </trkpt>
      <trkpt lat="45.5708" lon="6.07597">
        <ele>1331.635</ele>
        <time>2020-09-19T10:07:20Z</time>
      </trkpt>
      <trkpt lat="45.5708" lon="6.07597">
        <ele>1332.006</ele>
        <time>2020-09-19T10:07:21Z</time>
      </trkpt>
      <trkpt lat="45.5708" lon="6.07595">
        <ele>1332.143</ele>
        <time>2020-09-19T10:07:23Z</time>
      </trkpt>
      <trkpt lat="45.5708" lon="6.07593">
        <ele>1331.756</ele>
        <time>2020-09-19T10:07:26Z</time>
      </trkpt>
      <trkpt lat="45.5708" lon="6.07593">
        <ele>1331.756</ele>
        <time>2020-09-19T10:07:26Z</time>
      </trkpt>
      <trkpt lat="45.5708" lon="6.07593">
        <ele>1331.78</ele>
        <time>2020-09-19T10:07:27Z</time>
      </trkpt>
      <trkpt lat="45.5708" lon="6.07591">
        <ele>1332.03</ele>
        <time>2020-09-19T10:07:29Z</time>
      </trkpt>
      <trkpt lat="45.57081" lon="6.07587">
        <ele>1331.988</ele>
        <time>2020-09-19T10:07:31Z</time>
      </trkpt>
      <trkpt lat="45.57082" lon="6.07586">
        <ele>1332.487</ele>
        <time>2020-09-19T10:07:33Z</time>
      </trkpt>
      <trkpt lat="45.57084" lon="6.07582">
        <ele>1332.802</ele>
        <time>2020-09-19T10:07:37Z</time>
      </trkpt>
      <trkpt lat="45.57085" lon="6.07579">
        <ele>1332.458</ele>
        <time>2020-09-19T10:07:41Z</time>
      </trkpt>
      <trkpt lat="45.57087" lon="6.07578">
        <ele>1334.446</ele>
        <time>2020-09-19T10:07:45Z</time>
      </trkpt>
      <trkpt lat="45.57087" lon="6.07578">
        <ele>1334.591</ele>
        <time>2020-09-19T10:07:47Z</time>
      </trkpt>
      <trkpt lat="45.57087" lon="6.07578">
        <ele>1334.591</ele>
        <time>2020-09-19T10:07:47Z</time>
      </trkpt>
      <trkpt lat="45.57088" lon="6.07578">
        <ele>1335.138</ele>
        <time>2020-09-19T10:07:48Z</time>
      </trkpt>
      <trkpt lat="45.57088" lon="6.07577">
        <ele>1334.986</ele>
        <time>2020-09-19T10:07:49Z</time>
      </trkpt>
      <trkpt lat="45.57089" lon="6.07576">
        <ele>1335.207</ele>
        <time>2020-09-19T10:07:50Z</time>
      </trkpt>
      <trkpt lat="45.57087" lon="6.07574">
        <ele>1335.865</ele>
        <time>2020-09-19T10:07:53Z</time>
      </trkpt>
      <trkpt lat="45.57086" lon="6.07572">
        <ele>1336.175</ele>
        <time>2020-09-19T10:07:56Z</time>
      </trkpt>
      <trkpt lat="45.57084" lon="6.07572">
        <ele>1336.216</ele>
        <time>2020-09-19T10:08:00Z</time>
      </trkpt>
      <trkpt lat="45.57084" lon="6.07572">
        <ele>1336.216</ele>
        <time>2020-09-19T10:08:00Z</time>
      </trkpt>
      <trkpt lat="45.57083" lon="6.07571">
        <ele>1336.49</ele>
        <time>2020-09-19T10:08:01Z</time>
      </trkpt>
      <trkpt lat="45.57083" lon="6.0757">
        <ele>1336.544</ele>
        <time>2020-09-19T10:08:03Z</time>
      </trkpt>
      <trkpt lat="45.57085" lon="6.0757">
        <ele>1337.422</ele>
        <time>2020-09-19T10:08:07Z</time>
      </trkpt>
      <trkpt lat="45.57085" lon="6.0757">
        <ele>1337.517</ele>
        <time>2020-09-19T10:08:08Z</time>
      </trkpt>
      <trkpt lat="45.57085" lon="6.0757">
        <ele>1337.517</ele>
        <time>2020-09-19T10:08:08Z</time>
      </trkpt>
      <trkpt lat="45.57085" lon="6.0757">
        <ele>1337.421</ele>
        <time>2020-09-19T10:08:09Z</time>
      </trkpt>
      <trkpt lat="45.57086" lon="6.07569">
        <ele>1337.349</ele>
        <time>2020-09-19T10:08:10Z</time>
      </trkpt>
      <trkpt lat="45.57085" lon="6.07567">
        <ele>1337.556</ele>
        <time>2020-09-19T10:08:11Z</time>
      </trkpt>
      <trkpt lat="45.57087" lon="6.07562">
        <ele>1337.484</ele>
        <time>2020-09-19T10:08:13Z</time>
      </trkpt>
      <trkpt lat="45.57087" lon="6.07561">
        <ele>1338.011</ele>
        <time>2020-09-19T10:08:15Z</time>
      </trkpt>
      <trkpt lat="45.57087" lon="6.07561">
        <ele>1338.011</ele>
        <time>2020-09-19T10:08:15Z</time>
      </trkpt>
      <trkpt lat="45.57088" lon="6.07563">
        <ele>1338.563</ele>
        <time>2020-09-19T10:08:16Z</time>
      </trkpt>
      <trkpt lat="45.57087" lon="6.07563">
        <ele>1337.926</ele>
        <time>2020-09-19T10:08:17Z</time>
      </trkpt>
      <trkpt lat="45.57086" lon="6.07564">
        <ele>1338.702</ele>
        <time>2020-09-19T10:08:18Z</time>
      </trkpt>
      <trkpt lat="45.57082" lon="6.07569">
        <ele>1339.302</ele>
        <time>2020-09-19T10:08:23Z</time>
      </trkpt>
      <trkpt lat="45.57082" lon="6.0757">
        <ele>1339.539</ele>
        <time>2020-09-19T10:08:25Z</time>
      </trkpt>
      <trkpt lat="45.57082" lon="6.07572">
        <ele>1339.435</ele>
        <time>2020-09-19T10:08:28Z</time>
      </trkpt>
      <trkpt lat="45.57081" lon="6.0757">
        <ele>1339.327</ele>
        <time>2020-09-19T10:08:33Z</time>
      </trkpt>
      <trkpt lat="45.57078" lon="6.07567">
        <ele>1340.391</ele>
        <time>2020-09-19T10:08:37Z</time>
      </trkpt>
      <trkpt lat="45.57078" lon="6.07567">
        <ele>1341.04</ele>
        <time>2020-09-19T10:08:38Z</time>
      </trkpt>
      <trkpt lat="45.57078" lon="6.07566">
        <ele>1341.563</ele>
        <time>2020-09-19T10:08:39Z</time>
      </trkpt>
      <trkpt lat="45.57078" lon="6.07566">
        <ele>1341.956</ele>
        <time>2020-09-19T10:08:42Z</time>
      </trkpt>
      <trkpt lat="45.57078" lon="6.07566">
        <ele>1341.956</ele>
        <time>2020-09-19T10:08:42Z</time>
      </trkpt>
      <trkpt lat="45.57079" lon="6.07567">
        <ele>1341.895</ele>
        <time>2020-09-19T10:08:43Z</time>
      </trkpt>
      <trkpt lat="45.57078" lon="6.07566">
        <ele>1342.765</ele>
        <time>2020-09-19T10:08:46Z</time>
      </trkpt>
      <trkpt lat="45.57077" lon="6.07566">
        <ele>1342.887</ele>
        <time>2020-09-19T10:08:47Z</time>
      </trkpt>
      <trkpt lat="45.57077" lon="6.07565">
        <ele>1342.901</ele>
        <time>2020-09-19T10:08:48Z</time>
      </trkpt>
      <trkpt lat="45.57074" lon="6.07563">
        <ele>1342.399</ele>
        <time>2020-09-19T10:08:50Z</time>
      </trkpt>
      <trkpt lat="45.57073" lon="6.07563">
        <ele>1342.787</ele>
        <time>2020-09-19T10:08:52Z</time>
      </trkpt>
      <trkpt lat="45.57073" lon="6.07564">
        <ele>1342.658</ele>
        <time>2020-09-19T10:08:53Z</time>
      </trkpt>
      <trkpt lat="45.57072" lon="6.07565">
        <ele>1342.563</ele>
        <time>2020-09-19T10:08:54Z</time>
      </trkpt>
      <trkpt lat="45.57072" lon="6.07566">
        <ele>1343.047</ele>
        <time>2020-09-19T10:08:55Z</time>
      </trkpt>
      <trkpt lat="45.57072" lon="6.07568">
        <ele>1343.766</ele>
        <time>2020-09-19T10:08:57Z</time>
      </trkpt>
      <trkpt lat="45.57071" lon="6.07569">
        <ele>1343.278</ele>
        <time>2020-09-19T10:08:58Z</time>
      </trkpt>
      <trkpt lat="45.57071" lon="6.07569">
        <ele>1343.278</ele>
        <time>2020-09-19T10:08:58Z</time>
      </trkpt>
      <trkpt lat="45.57071" lon="6.0757">
        <ele>1343.31</ele>
        <time>2020-09-19T10:08:59Z</time>
      </trkpt>
      <trkpt lat="45.57068" lon="6.0757">
        <ele>1345.008</ele>
        <time>2020-09-19T10:09:02Z</time>
      </trkpt>
      <trkpt lat="45.57065" lon="6.07569">
        <ele>1345.506</ele>
        <time>2020-09-19T10:09:05Z</time>
      </trkpt>
      <trkpt lat="45.57065" lon="6.07569">
        <ele>1345.872</ele>
        <time>2020-09-19T10:09:07Z</time>
      </trkpt>
      <trkpt lat="45.57065" lon="6.07569">
        <ele>1345.872</ele>
        <time>2020-09-19T10:09:07Z</time>
      </trkpt>
      <trkpt lat="45.57064" lon="6.07568">
        <ele>1346.159</ele>
        <time>2020-09-19T10:09:08Z</time>
      </trkpt>
      <trkpt lat="45.57064" lon="6.07568">
        <ele>1346.137</ele>
        <time>2020-09-19T10:09:09Z</time>
      </trkpt>
      <trkpt lat="45.57063" lon="6.07566">
        <ele>1346.028</ele>
        <time>2020-09-19T10:09:10Z</time>
      </trkpt>
      <trkpt lat="45.5706" lon="6.07561">
        <ele>1346.852</ele>
        <time>2020-09-19T10:09:13Z</time>
      </trkpt>
      <trkpt lat="45.57052" lon="6.07551">
        <ele>1348.024</ele>
        <time>2020-09-19T10:09:18Z</time>
      </trkpt>
      <trkpt lat="45.57047" lon="6.07548">
        <ele>1349.957</ele>
        <time>2020-09-19T10:09:22Z</time>
      </trkpt>
      <trkpt lat="45.57045" lon="6.07548">
        <ele>1350.012</ele>
        <time>2020-09-19T10:09:25Z</time>
      </trkpt>
      <trkpt lat="45.57046" lon="6.07548">
        <ele>1350.076</ele>
        <time>2020-09-19T10:09:26Z</time>
      </trkpt>
      <trkpt lat="45.57046" lon="6.07548">
        <ele>1350.568</ele>
        <time>2020-09-19T10:09:27Z</time>
      </trkpt>
      <trkpt lat="45.57048" lon="6.07548">
        <ele>1350.628</ele>
        <time>2020-09-19T10:09:29Z</time>
      </trkpt>
      <trkpt lat="45.5705" lon="6.07545">
        <ele>1350.395</ele>
        <time>2020-09-19T10:09:31Z</time>
      </trkpt>
      <trkpt lat="45.57048" lon="6.07542">
        <ele>1350.302</ele>
        <time>2020-09-19T10:09:36Z</time>
      </trkpt>
      <trkpt lat="45.57047" lon="6.07542">
        <ele>1350.53</ele>
        <time>2020-09-19T10:09:37Z</time>
      </trkpt>
      <trkpt lat="45.57047" lon="6.0754">
        <ele>1351.083</ele>
        <time>2020-09-19T10:09:41Z</time>
      </trkpt>
      <trkpt lat="45.57047" lon="6.07539">
        <ele>1350.715</ele>
        <time>2020-09-19T10:09:44Z</time>
      </trkpt>
      <trkpt lat="45.57047" lon="6.07539">
        <ele>1350.715</ele>
        <time>2020-09-19T10:09:44Z</time>
      </trkpt>
      <trkpt lat="45.57046" lon="6.07539">
        <ele>1350.639</ele>
        <time>2020-09-19T10:09:45Z</time>
      </trkpt>
      <trkpt lat="45.57046" lon="6.07539">
        <ele>1351.694</ele>
        <time>2020-09-19T10:09:46Z</time>
      </trkpt>
      <trkpt lat="45.57046" lon="6.07539">
        <ele>1351.694</ele>
        <time>2020-09-19T10:09:46Z</time>
      </trkpt>
      <trkpt lat="45.57045" lon="6.07539">
        <ele>1351.934</ele>
        <time>2020-09-19T10:09:47Z</time>
      </trkpt>
      <trkpt lat="45.57045" lon="6.07539">
        <ele>1351.934</ele>
        <time>2020-09-19T10:09:47Z</time>
      </trkpt>
      <trkpt lat="45.57045" lon="6.07539">
        <ele>1352.241</ele>
        <time>2020-09-19T10:09:48Z</time>
      </trkpt>
      <trkpt lat="45.57044" lon="6.07536">
        <ele>1352.746</ele>
        <time>2020-09-19T10:09:53Z</time>
      </trkpt>
      <trkpt lat="45.57044" lon="6.07535">
        <ele>1352.688</ele>
        <time>2020-09-19T10:09:54Z</time>
      </trkpt>
      <trkpt lat="45.57044" lon="6.07535">
        <ele>1352.822</ele>
        <time>2020-09-19T10:09:55Z</time>
      </trkpt>
      <trkpt lat="45.57044" lon="6.07535">
        <ele>1352.946</ele>
        <time>2020-09-19T10:09:56Z</time>
      </trkpt>
      <trkpt lat="45.57043" lon="6.07533">
        <ele>1352.879</ele>
        <time>2020-09-19T10:09:57Z</time>
      </trkpt>
      <trkpt lat="45.57045" lon="6.07534">
        <ele>1353.484</ele>
        <time>2020-09-19T10:10:00Z</time>
      </trkpt>
      <trkpt lat="45.57045" lon="6.07535">
        <ele>1353.869</ele>
        <time>2020-09-19T10:10:02Z</time>
      </trkpt>
      <trkpt lat="45.57046" lon="6.07535">
        <ele>1354.246</ele>
        <time>2020-09-19T10:10:03Z</time>
      </trkpt>
      <trkpt lat="45.57048" lon="6.07534">
        <ele>1354.719</ele>
        <time>2020-09-19T10:10:07Z</time>
      </trkpt>
      <trkpt lat="45.57048" lon="6.07534">
        <ele>1354.719</ele>
        <time>2020-09-19T10:10:07Z</time>
      </trkpt>
      <trkpt lat="45.57049" lon="6.07534">
        <ele>1355.161</ele>
        <time>2020-09-19T10:10:08Z</time>
      </trkpt>
      <trkpt lat="45.57049" lon="6.07534">
        <ele>1355.055</ele>
        <time>2020-09-19T10:10:09Z</time>
      </trkpt>
      <trkpt lat="45.57051" lon="6.07534">
        <ele>1355.298</ele>
        <time>2020-09-19T10:10:10Z</time>
      </trkpt>
      <trkpt lat="45.57052" lon="6.07535">
        <ele>1355.162</ele>
        <time>2020-09-19T10:10:11Z</time>
      </trkpt>
      <trkpt lat="45.57055" lon="6.07535">
        <ele>1355.211</ele>
        <time>2020-09-19T10:10:14Z</time>
      </trkpt>
      <trkpt lat="45.57058" lon="6.07531">
        <ele>1355.259</ele>
        <time>2020-09-19T10:10:17Z</time>
      </trkpt>
      <trkpt lat="45.5706" lon="6.07528">
        <ele>1355.975</ele>
        <time>2020-09-19T10:10:20Z</time>
      </trkpt>
      <trkpt lat="45.5706" lon="6.07527">
        <ele>1355.976</ele>
        <time>2020-09-19T10:10:24Z</time>
      </trkpt>
      <trkpt lat="45.57061" lon="6.07527">
        <ele>1356.509</ele>
        <time>2020-09-19T10:10:26Z</time>
      </trkpt>
      <trkpt lat="45.57064" lon="6.07526">
        <ele>1355.528</ele>
        <time>2020-09-19T10:10:32Z</time>
      </trkpt>
      <trkpt lat="45.57064" lon="6.07529">
        <ele>1356.37</ele>
        <time>2020-09-19T10:10:36Z</time>
      </trkpt>
      <trkpt lat="45.57064" lon="6.07529">
        <ele>1356.199</ele>
        <time>2020-09-19T10:10:37Z</time>
      </trkpt>
      <trkpt lat="45.57063" lon="6.0753">
        <ele>1356.291</ele>
        <time>2020-09-19T10:10:38Z</time>
      </trkpt>
      <trkpt lat="45.57063" lon="6.0753">
        <ele>1355.917</ele>
        <time>2020-09-19T10:10:41Z</time>
      </trkpt>
      <trkpt lat="45.57063" lon="6.0753">
        <ele>1355.917</ele>
        <time>2020-09-19T10:10:41Z</time>
      </trkpt>
      <trkpt lat="45.57064" lon="6.0753">
        <ele>1355.866</ele>
        <time>2020-09-19T10:10:42Z</time>
      </trkpt>
      <trkpt lat="45.57067" lon="6.0753">
        <ele>1356.626</ele>
        <time>2020-09-19T10:10:45Z</time>
      </trkpt>
      <trkpt lat="45.57069" lon="6.07528">
        <ele>1356.151</ele>
        <time>2020-09-19T10:10:48Z</time>
      </trkpt>
      <trkpt lat="45.57071" lon="6.07524">
        <ele>1356.152</ele>
        <time>2020-09-19T10:10:51Z</time>
      </trkpt>
      <trkpt lat="45.57074" lon="6.07522">
        <ele>1357.699</ele>
        <time>2020-09-19T10:10:54Z</time>
      </trkpt>
      <trkpt lat="45.57076" lon="6.07521">
        <ele>1358.14</ele>
        <time>2020-09-19T10:10:57Z</time>
      </trkpt>
      <trkpt lat="45.57076" lon="6.0752">
        <ele>1358.051</ele>
        <time>2020-09-19T10:10:58Z</time>
      </trkpt>
      <trkpt lat="45.57075" lon="6.07517">
        <ele>1357.991</ele>
        <time>2020-09-19T10:11:01Z</time>
      </trkpt>
      <trkpt lat="45.57076" lon="6.07513">
        <ele>1359.097</ele>
        <time>2020-09-19T10:11:04Z</time>
      </trkpt>
      <trkpt lat="45.57079" lon="6.07512">
        <ele>1359.439</ele>
        <time>2020-09-19T10:11:07Z</time>
      </trkpt>
      <trkpt lat="45.5708" lon="6.07513">
        <ele>1361.985</ele>
        <time>2020-09-19T10:11:12Z</time>
      </trkpt>
      <trkpt lat="45.57082" lon="6.07515">
        <ele>1363.57</ele>
        <time>2020-09-19T10:11:15Z</time>
      </trkpt>
      <trkpt lat="45.57081" lon="6.07517">
        <ele>1363.119</ele>
        <time>2020-09-19T10:11:16Z</time>
      </trkpt>
      <trkpt lat="45.57078" lon="6.07521">
        <ele>1362.816</ele>
        <time>2020-09-19T10:11:18Z</time>
      </trkpt>
      <trkpt lat="45.57074" lon="6.07524">
        <ele>1365.117</ele>
        <time>2020-09-19T10:11:23Z</time>
      </trkpt>
      <trkpt lat="45.57073" lon="6.07524">
        <ele>1365.853</ele>
        <time>2020-09-19T10:11:24Z</time>
      </trkpt>
      <trkpt lat="45.57073" lon="6.07524">
        <ele>1366.9</ele>
        <time>2020-09-19T10:11:27Z</time>
      </trkpt>
      <trkpt lat="45.57072" lon="6.07523">
        <ele>1367.111</ele>
        <time>2020-09-19T10:11:31Z</time>
      </trkpt>
      <trkpt lat="45.57071" lon="6.07516">
        <ele>1367.47</ele>
        <time>2020-09-19T10:11:39Z</time>
      </trkpt>
      <trkpt lat="45.57069" lon="6.07514">
        <ele>1368.72</ele>
        <time>2020-09-19T10:11:42Z</time>
      </trkpt>
      <trkpt lat="45.57066" lon="6.07516">
        <ele>1370.594</ele>
        <time>2020-09-19T10:11:44Z</time>
      </trkpt>
      <trkpt lat="45.57066" lon="6.07518">
        <ele>1370.882</ele>
        <time>2020-09-19T10:11:49Z</time>
      </trkpt>
      <trkpt lat="45.57065" lon="6.07522">
        <ele>1370.655</ele>
        <time>2020-09-19T10:11:51Z</time>
      </trkpt>
      <trkpt lat="45.57063" lon="6.07524">
        <ele>1370.976</ele>
        <time>2020-09-19T10:11:56Z</time>
      </trkpt>
      <trkpt lat="45.57063" lon="6.07524">
        <ele>1370.977</ele>
        <time>2020-09-19T10:11:57Z</time>
      </trkpt>
      <trkpt lat="45.57062" lon="6.07522">
        <ele>1371.363</ele>
        <time>2020-09-19T10:11:58Z</time>
      </trkpt>
      <trkpt lat="45.57063" lon="6.07519">
        <ele>1375.088</ele>
        <time>2020-09-19T10:12:04Z</time>
      </trkpt>
      <trkpt lat="45.57063" lon="6.07519">
        <ele>1375.662</ele>
        <time>2020-09-19T10:12:05Z</time>
      </trkpt>
      <trkpt lat="45.57063" lon="6.07519">
        <ele>1375.662</ele>
        <time>2020-09-19T10:12:05Z</time>
      </trkpt>
      <trkpt lat="45.57063" lon="6.07519">
        <ele>1375.188</ele>
        <time>2020-09-19T10:12:06Z</time>
      </trkpt>
      <trkpt lat="45.57063" lon="6.07519">
        <ele>1375.188</ele>
        <time>2020-09-19T10:12:06Z</time>
      </trkpt>
      <trkpt lat="45.57063" lon="6.07519">
        <ele>1375.38</ele>
        <time>2020-09-19T10:12:07Z</time>
      </trkpt>
      <trkpt lat="45.57063" lon="6.07519">
        <ele>1376.877</ele>
        <time>2020-09-19T10:12:13Z</time>
      </trkpt>
      <trkpt lat="45.57063" lon="6.0752">
        <ele>1377.236</ele>
        <time>2020-09-19T10:12:14Z</time>
      </trkpt>
      <trkpt lat="45.57063" lon="6.0752">
        <ele>1376.632</ele>
        <time>2020-09-19T10:12:15Z</time>
      </trkpt>
      <trkpt lat="45.57063" lon="6.0752">
        <ele>1376.632</ele>
        <time>2020-09-19T10:12:15Z</time>
      </trkpt>
      <trkpt lat="45.57063" lon="6.0752">
        <ele>1377.136</ele>
        <time>2020-09-19T10:12:16Z</time>
      </trkpt>
      <trkpt lat="45.57062" lon="6.07516">
        <ele>1377.657</ele>
        <time>2020-09-19T10:12:20Z</time>
      </trkpt>
      <trkpt lat="45.57063" lon="6.07514">
        <ele>1378.087</ele>
        <time>2020-09-19T10:12:24Z</time>
      </trkpt>
      <trkpt lat="45.57063" lon="6.07514">
        <ele>1378.155</ele>
        <time>2020-09-19T10:12:29Z</time>
      </trkpt>
      <trkpt lat="45.57063" lon="6.07515">
        <ele>1378.282</ele>
        <time>2020-09-19T10:12:30Z</time>
      </trkpt>
      <trkpt lat="45.57064" lon="6.07515">
        <ele>1378.165</ele>
        <time>2020-09-19T10:12:31Z</time>
      </trkpt>
      <trkpt lat="45.57064" lon="6.07515">
        <ele>1377.799</ele>
        <time>2020-09-19T10:12:32Z</time>
      </trkpt>
      <trkpt lat="45.57064" lon="6.07515">
        <ele>1377.799</ele>
        <time>2020-09-19T10:12:32Z</time>
      </trkpt>
      <trkpt lat="45.57064" lon="6.07514">
        <ele>1377.807</ele>
        <time>2020-09-19T10:12:33Z</time>
      </trkpt>
      <trkpt lat="45.57063" lon="6.07513">
        <ele>1378.399</ele>
        <time>2020-09-19T10:12:36Z</time>
      </trkpt>
      <trkpt lat="45.57063" lon="6.07513">
        <ele>1378.303</ele>
        <time>2020-09-19T10:12:37Z</time>
      </trkpt>
      <trkpt lat="45.57063" lon="6.07513">
        <ele>1378.536</ele>
        <time>2020-09-19T10:13:16Z</time>
      </trkpt>
      <trkpt lat="45.57061" lon="6.07513">
        <ele>1378.659</ele>
        <time>2020-09-19T10:13:17Z</time>
      </trkpt>
      <trkpt lat="45.57059" lon="6.07512">
        <ele>1379.115</ele>
        <time>2020-09-19T10:13:20Z</time>
      </trkpt>
      <trkpt lat="45.57058" lon="6.0751">
        <ele>1379.452</ele>
        <time>2020-09-19T10:13:21Z</time>
      </trkpt>
      <trkpt lat="45.57058" lon="6.0751">
        <ele>1379.699</ele>
        <time>2020-09-19T10:13:23Z</time>
      </trkpt>
      <trkpt lat="45.57058" lon="6.0751">
        <ele>1379.384</ele>
        <time>2020-09-19T10:13:25Z</time>
      </trkpt>
      <trkpt lat="45.57058" lon="6.0751">
        <ele>1379.736</ele>
        <time>2020-09-19T10:13:26Z</time>
      </trkpt>
      <trkpt lat="45.57057" lon="6.0751">
        <ele>1380.954</ele>
        <time>2020-09-19T10:13:31Z</time>
      </trkpt>
      <trkpt lat="45.57056" lon="6.07506">
        <ele>1379.689</ele>
        <time>2020-09-19T10:13:35Z</time>
      </trkpt>
      <trkpt lat="45.57056" lon="6.07506">
        <ele>1378.278</ele>
        <time>2020-09-19T10:13:38Z</time>
      </trkpt>
      <trkpt lat="45.57057" lon="6.07505">
        <ele>1379.017</ele>
        <time>2020-09-19T10:13:40Z</time>
      </trkpt>
      <trkpt lat="45.57058" lon="6.07504">
        <ele>1379.412</ele>
        <time>2020-09-19T10:13:41Z</time>
      </trkpt>
      <trkpt lat="45.5706" lon="6.07505">
        <ele>1379.616</ele>
        <time>2020-09-19T10:13:43Z</time>
      </trkpt>
      <trkpt lat="45.57061" lon="6.07505">
        <ele>1379.854</ele>
        <time>2020-09-19T10:13:46Z</time>
      </trkpt>
      <trkpt lat="45.57059" lon="6.07502">
        <ele>1381.143</ele>
        <time>2020-09-19T10:13:54Z</time>
      </trkpt>
      <trkpt lat="45.57058" lon="6.07502">
        <ele>1379.917</ele>
        <time>2020-09-19T10:13:55Z</time>
      </trkpt>
      <trkpt lat="45.57058" lon="6.07501">
        <ele>1380.202</ele>
        <time>2020-09-19T10:13:57Z</time>
      </trkpt>
      <trkpt lat="45.57058" lon="6.07499">
        <ele>1380.217</ele>
        <time>2020-09-19T10:14:01Z</time>
      </trkpt>
      <trkpt lat="45.57054" lon="6.07496">
        <ele>1380.322</ele>
        <time>2020-09-19T10:14:05Z</time>
      </trkpt>
      <trkpt lat="45.57054" lon="6.07496">
        <ele>1380.933</ele>
        <time>2020-09-19T10:14:06Z</time>
      </trkpt>
      <trkpt lat="45.57053" lon="6.07495">
        <ele>1380.754</ele>
        <time>2020-09-19T10:14:07Z</time>
      </trkpt>
      <trkpt lat="45.57053" lon="6.07491">
        <ele>1380.874</ele>
        <time>2020-09-19T10:14:10Z</time>
      </trkpt>
      <trkpt lat="45.57053" lon="6.07486">
        <ele>1380.333</ele>
        <time>2020-09-19T10:14:13Z</time>
      </trkpt>
      <trkpt lat="45.5705" lon="6.07483">
        <ele>1382.945</ele>
        <time>2020-09-19T10:14:16Z</time>
      </trkpt>
      <trkpt lat="45.57048" lon="6.07484">
        <ele>1382.499</ele>
        <time>2020-09-19T10:14:19Z</time>
      </trkpt>
      <trkpt lat="45.57047" lon="6.07483">
        <ele>1383.661</ele>
        <time>2020-09-19T10:14:22Z</time>
      </trkpt>
      <trkpt lat="45.57047" lon="6.0748">
        <ele>1383.752</ele>
        <time>2020-09-19T10:14:25Z</time>
      </trkpt>
      <trkpt lat="45.57045" lon="6.0748">
        <ele>1385.264</ele>
        <time>2020-09-19T10:14:28Z</time>
      </trkpt>
      <trkpt lat="45.57045" lon="6.0748">
        <ele>1385.264</ele>
        <time>2020-09-19T10:14:28Z</time>
      </trkpt>
      <trkpt lat="45.57044" lon="6.07481">
        <ele>1384.669</ele>
        <time>2020-09-19T10:14:29Z</time>
      </trkpt>
      <trkpt lat="45.57045" lon="6.07483">
        <ele>1384.673</ele>
        <time>2020-09-19T10:14:31Z</time>
      </trkpt>
      <trkpt lat="45.57047" lon="6.07487">
        <ele>1385.018</ele>
        <time>2020-09-19T10:14:36Z</time>
      </trkpt>
      <trkpt lat="45.57049" lon="6.07488">
        <ele>1385.549</ele>
        <time>2020-09-19T10:14:41Z</time>
      </trkpt>
      <trkpt lat="45.57051" lon="6.0749">
        <ele>1385.661</ele>
        <time>2020-09-19T10:14:46Z</time>
      </trkpt>
      <trkpt lat="45.57052" lon="6.07489">
        <ele>1385.596</ele>
        <time>2020-09-19T10:14:47Z</time>
      </trkpt>
      <trkpt lat="45.57052" lon="6.07488">
        <ele>1385.585</ele>
        <time>2020-09-19T10:14:48Z</time>
      </trkpt>
      <trkpt lat="45.57051" lon="6.07487">
        <ele>1385.753</ele>
        <time>2020-09-19T10:14:52Z</time>
      </trkpt>
      <trkpt lat="45.57051" lon="6.07486">
        <ele>1385.65</ele>
        <time>2020-09-19T10:14:53Z</time>
      </trkpt>
      <trkpt lat="45.5705" lon="6.07485">
        <ele>1385.582</ele>
        <time>2020-09-19T10:14:54Z</time>
      </trkpt>
      <trkpt lat="45.5705" lon="6.07485">
        <ele>1385.411</ele>
        <time>2020-09-19T10:14:55Z</time>
      </trkpt>
      <trkpt lat="45.57049" lon="6.07484">
        <ele>1385.397</ele>
        <time>2020-09-19T10:14:56Z</time>
      </trkpt>
      <trkpt lat="45.57046" lon="6.07481">
        <ele>1385.826</ele>
        <time>2020-09-19T10:14:59Z</time>
      </trkpt>
      <trkpt lat="45.57046" lon="6.07479">
        <ele>1386.063</ele>
        <time>2020-09-19T10:15:01Z</time>
      </trkpt>
      <trkpt lat="45.57045" lon="6.07476">
        <ele>1386.981</ele>
        <time>2020-09-19T10:15:04Z</time>
      </trkpt>
      <trkpt lat="45.57046" lon="6.07471">
        <ele>1386.319</ele>
        <time>2020-09-19T10:15:08Z</time>
      </trkpt>
      <trkpt lat="45.57048" lon="6.0747">
        <ele>1387.677</ele>
        <time>2020-09-19T10:15:10Z</time>
      </trkpt>
      <trkpt lat="45.5705" lon="6.07469">
        <ele>1387.765</ele>
        <time>2020-09-19T10:15:11Z</time>
      </trkpt>
      <trkpt lat="45.57052" lon="6.07466">
        <ele>1387.444</ele>
        <time>2020-09-19T10:15:14Z</time>
      </trkpt>
      <trkpt lat="45.57055" lon="6.07463">
        <ele>1386.617</ele>
        <time>2020-09-19T10:15:17Z</time>
      </trkpt>
      <trkpt lat="45.57057" lon="6.07461">
        <ele>1388.378</ele>
        <time>2020-09-19T10:15:19Z</time>
      </trkpt>
      <trkpt lat="45.5706" lon="6.07459">
        <ele>1388.701</ele>
        <time>2020-09-19T10:15:21Z</time>
      </trkpt>
      <trkpt lat="45.57061" lon="6.07458">
        <ele>1388.988</ele>
        <time>2020-09-19T10:15:22Z</time>
      </trkpt>
      <trkpt lat="45.57061" lon="6.07456">
        <ele>1388.408</ele>
        <time>2020-09-19T10:15:23Z</time>
      </trkpt>
      <trkpt lat="45.57062" lon="6.07454">
        <ele>1388.185</ele>
        <time>2020-09-19T10:15:25Z</time>
      </trkpt>
      <trkpt lat="45.57063" lon="6.07454">
        <ele>1387.667</ele>
        <time>2020-09-19T10:15:26Z</time>
      </trkpt>
      <trkpt lat="45.57067" lon="6.07452">
        <ele>1389.92</ele>
        <time>2020-09-19T10:15:29Z</time>
      </trkpt>
      <trkpt lat="45.57071" lon="6.07451">
        <ele>1390.058</ele>
        <time>2020-09-19T10:15:33Z</time>
      </trkpt>
      <trkpt lat="45.57071" lon="6.07451">
        <ele>1390.105</ele>
        <time>2020-09-19T10:15:35Z</time>
      </trkpt>
      <trkpt lat="45.57074" lon="6.07449">
        <ele>1389.257</ele>
        <time>2020-09-19T10:15:36Z</time>
      </trkpt>
      <trkpt lat="45.57075" lon="6.07448">
        <ele>1389.413</ele>
        <time>2020-09-19T10:15:39Z</time>
      </trkpt>
      <trkpt lat="45.57075" lon="6.07448">
        <ele>1388.528</ele>
        <time>2020-09-19T10:15:42Z</time>
      </trkpt>
      <trkpt lat="45.57076" lon="6.07449">
        <ele>1389.996</ele>
        <time>2020-09-19T10:15:43Z</time>
      </trkpt>
      <trkpt lat="45.57076" lon="6.07449">
        <ele>1389.996</ele>
        <time>2020-09-19T10:15:43Z</time>
      </trkpt>
      <trkpt lat="45.57076" lon="6.07449">
        <ele>1390.189</ele>
        <time>2020-09-19T10:15:44Z</time>
      </trkpt>
      <trkpt lat="45.57076" lon="6.07449">
        <ele>1390.189</ele>
        <time>2020-09-19T10:15:44Z</time>
      </trkpt>
      <trkpt lat="45.57076" lon="6.07449">
        <ele>1390.06</ele>
        <time>2020-09-19T10:15:45Z</time>
      </trkpt>
      <trkpt lat="45.57076" lon="6.07449">
        <ele>1390.06</ele>
        <time>2020-09-19T10:15:45Z</time>
      </trkpt>
      <trkpt lat="45.57075" lon="6.07448">
        <ele>1389.92</ele>
        <time>2020-09-19T10:15:46Z</time>
      </trkpt>
      <trkpt lat="45.57075" lon="6.07445">
        <ele>1389.883</ele>
        <time>2020-09-19T10:15:50Z</time>
      </trkpt>
      <trkpt lat="45.57075" lon="6.07445">
        <ele>1389.883</ele>
        <time>2020-09-19T10:15:50Z</time>
      </trkpt>
      <trkpt lat="45.57076" lon="6.07444">
        <ele>1390.145</ele>
        <time>2020-09-19T10:15:51Z</time>
      </trkpt>
      <trkpt lat="45.57076" lon="6.07443">
        <ele>1390.582</ele>
        <time>2020-09-19T10:15:52Z</time>
      </trkpt>
      <trkpt lat="45.57076" lon="6.07443">
        <ele>1390.801</ele>
        <time>2020-09-19T10:15:53Z</time>
      </trkpt>
      <trkpt lat="45.57076" lon="6.07443">
        <ele>1390.801</ele>
        <time>2020-09-19T10:15:53Z</time>
      </trkpt>
      <trkpt lat="45.57076" lon="6.07441">
        <ele>1390.572</ele>
        <time>2020-09-19T10:15:54Z</time>
      </trkpt>
      <trkpt lat="45.57077" lon="6.0744">
        <ele>1391.946</ele>
        <time>2020-09-19T10:15:57Z</time>
      </trkpt>
      <trkpt lat="45.57077" lon="6.0744">
        <ele>1391.946</ele>
        <time>2020-09-19T10:15:57Z</time>
      </trkpt>
      <trkpt lat="45.57079" lon="6.0744">
        <ele>1392.301</ele>
        <time>2020-09-19T10:15:58Z</time>
      </trkpt>
      <trkpt lat="45.5708" lon="6.07439">
        <ele>1391.781</ele>
        <time>2020-09-19T10:15:59Z</time>
      </trkpt>
      <trkpt lat="45.57081" lon="6.07439">
        <ele>1391.512</ele>
        <time>2020-09-19T10:16:00Z</time>
      </trkpt>
      <trkpt lat="45.57081" lon="6.07438">
        <ele>1391.447</ele>
        <time>2020-09-19T10:16:01Z</time>
      </trkpt>
      <trkpt lat="45.57081" lon="6.07438">
        <ele>1391.473</ele>
        <time>2020-09-19T10:16:02Z</time>
      </trkpt>
      <trkpt lat="45.57081" lon="6.07438">
        <ele>1391.473</ele>
        <time>2020-09-19T10:16:02Z</time>
      </trkpt>
      <trkpt lat="45.57081" lon="6.07438">
        <ele>1390.769</ele>
        <time>2020-09-19T10:16:03Z</time>
      </trkpt>
      <trkpt lat="45.57083" lon="6.07436">
        <ele>1393.736</ele>
        <time>2020-09-19T10:16:10Z</time>
      </trkpt>
      <trkpt lat="45.57083" lon="6.07435">
        <ele>1393.299</ele>
        <time>2020-09-19T10:16:11Z</time>
      </trkpt>
      <trkpt lat="45.57083" lon="6.07435">
        <ele>1393.219</ele>
        <time>2020-09-19T10:16:12Z</time>
      </trkpt>
      <trkpt lat="45.57082" lon="6.07434">
        <ele>1392.993</ele>
        <time>2020-09-19T10:16:13Z</time>
      </trkpt>
      <trkpt lat="45.57082" lon="6.07432">
        <ele>1393.032</ele>
        <time>2020-09-19T10:16:15Z</time>
      </trkpt>
      <trkpt lat="45.57082" lon="6.07432">
        <ele>1392.963</ele>
        <time>2020-09-19T10:16:17Z</time>
      </trkpt>
      <trkpt lat="45.57082" lon="6.07432">
        <ele>1392.752</ele>
        <time>2020-09-19T10:16:18Z</time>
      </trkpt>
      <trkpt lat="45.57082" lon="6.0743">
        <ele>1392.488</ele>
        <time>2020-09-19T10:16:20Z</time>
      </trkpt>
      <trkpt lat="45.57081" lon="6.07433">
        <ele>1395.155</ele>
        <time>2020-09-19T10:16:25Z</time>
      </trkpt>
      <trkpt lat="45.57083" lon="6.07433">
        <ele>1394.276</ele>
        <time>2020-09-19T10:16:29Z</time>
      </trkpt>
      <trkpt lat="45.57085" lon="6.07431">
        <ele>1395.288</ele>
        <time>2020-09-19T10:16:31Z</time>
      </trkpt>
      <trkpt lat="45.57089" lon="6.07427">
        <ele>1395.727</ele>
        <time>2020-09-19T10:16:36Z</time>
      </trkpt>
      <trkpt lat="45.57089" lon="6.07427">
        <ele>1396.144</ele>
        <time>2020-09-19T10:16:38Z</time>
      </trkpt>
      <trkpt lat="45.5709" lon="6.07426">
        <ele>1396.162</ele>
        <time>2020-09-19T10:16:39Z</time>
      </trkpt>
      <trkpt lat="45.57092" lon="6.07426">
        <ele>1395.939</ele>
        <time>2020-09-19T10:16:40Z</time>
      </trkpt>
      <trkpt lat="45.57093" lon="6.07423">
        <ele>1394.896</ele>
        <time>2020-09-19T10:16:42Z</time>
      </trkpt>
      <trkpt lat="45.57094" lon="6.07419">
        <ele>1395.67</ele>
        <time>2020-09-19T10:16:44Z</time>
      </trkpt>
      <trkpt lat="45.57096" lon="6.07416">
        <ele>1396.177</ele>
        <time>2020-09-19T10:16:46Z</time>
      </trkpt>
      <trkpt lat="45.57101" lon="6.07412">
        <ele>1395.393</ele>
        <time>2020-09-19T10:16:50Z</time>
      </trkpt>
      <trkpt lat="45.571" lon="6.07406">
        <ele>1396.746</ele>
        <time>2020-09-19T10:16:53Z</time>
      </trkpt>
      <trkpt lat="45.57099" lon="6.07403">
        <ele>1397.832</ele>
        <time>2020-09-19T10:16:56Z</time>
      </trkpt>
      <trkpt lat="45.57099" lon="6.07403">
        <ele>1397.832</ele>
        <time>2020-09-19T10:16:56Z</time>
      </trkpt>
      <trkpt lat="45.57099" lon="6.07403">
        <ele>1397.71</ele>
        <time>2020-09-19T10:16:57Z</time>
      </trkpt>
      <trkpt lat="45.57098" lon="6.07402">
        <ele>1398.007</ele>
        <time>2020-09-19T10:17:00Z</time>
      </trkpt>
      <trkpt lat="45.57101" lon="6.07401">
        <ele>1397.943</ele>
        <time>2020-09-19T10:17:03Z</time>
      </trkpt>
      <trkpt lat="45.571" lon="6.07398">
        <ele>1397.683</ele>
        <time>2020-09-19T10:17:08Z</time>
      </trkpt>
      <trkpt lat="45.571" lon="6.07398">
        <ele>1397.683</ele>
        <time>2020-09-19T10:17:08Z</time>
      </trkpt>
      <trkpt lat="45.571" lon="6.07397">
        <ele>1397.643</ele>
        <time>2020-09-19T10:17:09Z</time>
      </trkpt>
      <trkpt lat="45.57101" lon="6.07396">
        <ele>1398.284</ele>
        <time>2020-09-19T10:17:10Z</time>
      </trkpt>
      <trkpt lat="45.571" lon="6.07395">
        <ele>1398.718</ele>
        <time>2020-09-19T10:17:13Z</time>
      </trkpt>
      <trkpt lat="45.571" lon="6.07395">
        <ele>1398.282</ele>
        <time>2020-09-19T10:17:14Z</time>
      </trkpt>
      <trkpt lat="45.57099" lon="6.07395">
        <ele>1398.528</ele>
        <time>2020-09-19T10:17:15Z</time>
      </trkpt>
      <trkpt lat="45.57098" lon="6.07395">
        <ele>1398.083</ele>
        <time>2020-09-19T10:17:18Z</time>
      </trkpt>
      <trkpt lat="45.57098" lon="6.07392">
        <ele>1397.872</ele>
        <time>2020-09-19T10:17:21Z</time>
      </trkpt>
      <trkpt lat="45.57097" lon="6.07388">
        <ele>1398.695</ele>
        <time>2020-09-19T10:17:24Z</time>
      </trkpt>
      <trkpt lat="45.57098" lon="6.07388">
        <ele>1398.926</ele>
        <time>2020-09-19T10:17:25Z</time>
      </trkpt>
      <trkpt lat="45.57099" lon="6.07388">
        <ele>1400.385</ele>
        <time>2020-09-19T10:17:28Z</time>
      </trkpt>
      <trkpt lat="45.571" lon="6.07389">
        <ele>1402.017</ele>
        <time>2020-09-19T10:17:30Z</time>
      </trkpt>
      <trkpt lat="45.57103" lon="6.07389">
        <ele>1401.708</ele>
        <time>2020-09-19T10:17:32Z</time>
      </trkpt>
      <trkpt lat="45.57106" lon="6.07387">
        <ele>1401.532</ele>
        <time>2020-09-19T10:17:33Z</time>
      </trkpt>
      <trkpt lat="45.57112" lon="6.07386">
        <ele>1400.879</ele>
        <time>2020-09-19T10:17:35Z</time>
      </trkpt>
      <trkpt lat="45.57112" lon="6.07387">
        <ele>1400.51</ele>
        <time>2020-09-19T10:17:36Z</time>
      </trkpt>
      <trkpt lat="45.57112" lon="6.07387">
        <ele>1400.576</ele>
        <time>2020-09-19T10:17:37Z</time>
      </trkpt>
      <trkpt lat="45.57112" lon="6.07387">
        <ele>1400.576</ele>
        <time>2020-09-19T10:17:37Z</time>
      </trkpt>
      <trkpt lat="45.57112" lon="6.07387">
        <ele>1400.571</ele>
        <time>2020-09-19T10:17:38Z</time>
      </trkpt>
      <trkpt lat="45.57113" lon="6.07386">
        <ele>1400.459</ele>
        <time>2020-09-19T10:17:39Z</time>
      </trkpt>
      <trkpt lat="45.57115" lon="6.07385">
        <ele>1400.712</ele>
        <time>2020-09-19T10:17:41Z</time>
      </trkpt>
      <trkpt lat="45.57115" lon="6.07384">
        <ele>1400.965</ele>
        <time>2020-09-19T10:17:43Z</time>
      </trkpt>
      <trkpt lat="45.57115" lon="6.07384">
        <ele>1400.965</ele>
        <time>2020-09-19T10:17:43Z</time>
      </trkpt>
      <trkpt lat="45.57116" lon="6.07384">
        <ele>1400.791</ele>
        <time>2020-09-19T10:17:44Z</time>
      </trkpt>
      <trkpt lat="45.57116" lon="6.07385">
        <ele>1400.775</ele>
        <time>2020-09-19T10:17:45Z</time>
      </trkpt>
      <trkpt lat="45.5712" lon="6.07385">
        <ele>1402.061</ele>
        <time>2020-09-19T10:17:51Z</time>
      </trkpt>
      <trkpt lat="45.5712" lon="6.07385">
        <ele>1402.094</ele>
        <time>2020-09-19T10:17:52Z</time>
      </trkpt>
      <trkpt lat="45.57121" lon="6.07382">
        <ele>1402.308</ele>
        <time>2020-09-19T10:17:54Z</time>
      </trkpt>
      <trkpt lat="45.57123" lon="6.0738">
        <ele>1402.145</ele>
        <time>2020-09-19T10:17:57Z</time>
      </trkpt>
      <trkpt lat="45.57123" lon="6.07378">
        <ele>1402.675</ele>
        <time>2020-09-19T10:18:00Z</time>
      </trkpt>
      <trkpt lat="45.5712" lon="6.07374">
        <ele>1403.006</ele>
        <time>2020-09-19T10:18:04Z</time>
      </trkpt>
      <trkpt lat="45.57119" lon="6.07372">
        <ele>1403.105</ele>
        <time>2020-09-19T10:18:05Z</time>
      </trkpt>
      <trkpt lat="45.57117" lon="6.0737">
        <ele>1401.789</ele>
        <time>2020-09-19T10:18:07Z</time>
      </trkpt>
      <trkpt lat="45.57115" lon="6.07368">
        <ele>1405.131</ele>
        <time>2020-09-19T10:18:10Z</time>
      </trkpt>
      <trkpt lat="45.57113" lon="6.07364">
        <ele>1404.799</ele>
        <time>2020-09-19T10:18:14Z</time>
      </trkpt>
      <trkpt lat="45.57113" lon="6.07362">
        <ele>1406.705</ele>
        <time>2020-09-19T10:18:19Z</time>
      </trkpt>
      <trkpt lat="45.57114" lon="6.07361">
        <ele>1406.783</ele>
        <time>2020-09-19T10:18:21Z</time>
      </trkpt>
      <trkpt lat="45.57114" lon="6.07361">
        <ele>1404.283</ele>
        <time>2020-09-19T10:18:24Z</time>
      </trkpt>
      <trkpt lat="45.57113" lon="6.07362">
        <ele>1403.975</ele>
        <time>2020-09-19T10:18:26Z</time>
      </trkpt>
      <trkpt lat="45.57112" lon="6.07361">
        <ele>1401.881</ele>
        <time>2020-09-19T10:18:30Z</time>
      </trkpt>
      <trkpt lat="45.57111" lon="6.07359">
        <ele>1401.286</ele>
        <time>2020-09-19T10:18:34Z</time>
      </trkpt>
      <trkpt lat="45.57111" lon="6.0736">
        <ele>1400.879</ele>
        <time>2020-09-19T10:18:35Z</time>
      </trkpt>
      <trkpt lat="45.57113" lon="6.07356">
        <ele>1403.363</ele>
        <time>2020-09-19T10:18:43Z</time>
      </trkpt>
      <trkpt lat="45.57113" lon="6.07354">
        <ele>1402.563</ele>
        <time>2020-09-19T10:18:44Z</time>
      </trkpt>
      <trkpt lat="45.57114" lon="6.07352">
        <ele>1401.897</ele>
        <time>2020-09-19T10:18:45Z</time>
      </trkpt>
      <trkpt lat="45.57115" lon="6.07346">
        <ele>1401.11</ele>
        <time>2020-09-19T10:18:47Z</time>
      </trkpt>
      <trkpt lat="45.57117" lon="6.07343">
        <ele>1409.057</ele>
        <time>2020-09-19T10:18:50Z</time>
      </trkpt>
      <trkpt lat="45.57118" lon="6.07343">
        <ele>1408.287</ele>
        <time>2020-09-19T10:18:53Z</time>
      </trkpt>
      <trkpt lat="45.57118" lon="6.07343">
        <ele>1408.287</ele>
        <time>2020-09-19T10:18:53Z</time>
      </trkpt>
      <trkpt lat="45.57118" lon="6.07341">
        <ele>1407.389</ele>
        <time>2020-09-19T10:18:54Z</time>
      </trkpt>
      <trkpt lat="45.57117" lon="6.07341">
        <ele>1405.453</ele>
        <time>2020-09-19T10:18:56Z</time>
      </trkpt>
      <trkpt lat="45.57117" lon="6.07342">
        <ele>1409.387</ele>
        <time>2020-09-19T10:19:00Z</time>
      </trkpt>
      <trkpt lat="45.57118" lon="6.07344">
        <ele>1407.28</ele>
        <time>2020-09-19T10:19:03Z</time>
      </trkpt>
      <trkpt lat="45.57118" lon="6.07344">
        <ele>1407.28</ele>
        <time>2020-09-19T10:19:03Z</time>
      </trkpt>
      <trkpt lat="45.57116" lon="6.07344">
        <ele>1406.092</ele>
        <time>2020-09-19T10:19:04Z</time>
      </trkpt>
      <trkpt lat="45.57114" lon="6.07344">
        <ele>1408.921</ele>
        <time>2020-09-19T10:19:05Z</time>
      </trkpt>
      <trkpt lat="45.57113" lon="6.07342">
        <ele>1406.075</ele>
        <time>2020-09-19T10:19:07Z</time>
      </trkpt>
      <trkpt lat="45.57112" lon="6.07341">
        <ele>1405.179</ele>
        <time>2020-09-19T10:19:08Z</time>
      </trkpt>
      <trkpt lat="45.57114" lon="6.07338">
        <ele>1409.632</ele>
        <time>2020-09-19T10:19:10Z</time>
      </trkpt>
      <trkpt lat="45.57117" lon="6.07334">
        <ele>1408.117</ele>
        <time>2020-09-19T10:19:13Z</time>
      </trkpt>
      <trkpt lat="45.57117" lon="6.07332">
        <ele>1408.838</ele>
        <time>2020-09-19T10:19:15Z</time>
      </trkpt>
      <trkpt lat="45.57118" lon="6.07329">
        <ele>1410.749</ele>
        <time>2020-09-19T10:19:19Z</time>
      </trkpt>
      <trkpt lat="45.57119" lon="6.07328">
        <ele>1411.344</ele>
        <time>2020-09-19T10:19:21Z</time>
      </trkpt>
      <trkpt lat="45.57119" lon="6.07327">
        <ele>1412.035</ele>
        <time>2020-09-19T10:19:23Z</time>
      </trkpt>
      <trkpt lat="45.57119" lon="6.07327">
        <ele>1412.035</ele>
        <time>2020-09-19T10:19:23Z</time>
      </trkpt>
      <trkpt lat="45.5712" lon="6.07325">
        <ele>1412.582</ele>
        <time>2020-09-19T10:19:24Z</time>
      </trkpt>
      <trkpt lat="45.5712" lon="6.07323">
        <ele>1413.283</ele>
        <time>2020-09-19T10:19:26Z</time>
      </trkpt>
      <trkpt lat="45.57124" lon="6.07318">
        <ele>1414.747</ele>
        <time>2020-09-19T10:19:31Z</time>
      </trkpt>
      <trkpt lat="45.57126" lon="6.07316">
        <ele>1413.761</ele>
        <time>2020-09-19T10:19:33Z</time>
      </trkpt>
      <trkpt lat="45.57131" lon="6.07317">
        <ele>1412.499</ele>
        <time>2020-09-19T10:19:35Z</time>
      </trkpt>
      <trkpt lat="45.57137" lon="6.07319">
        <ele>1412.434</ele>
        <time>2020-09-19T10:19:38Z</time>
      </trkpt>
      <trkpt lat="45.57139" lon="6.07317">
        <ele>1410.056</ele>
        <time>2020-09-19T10:19:40Z</time>
      </trkpt>
      <trkpt lat="45.57138" lon="6.07316">
        <ele>1409.808</ele>
        <time>2020-09-19T10:19:41Z</time>
      </trkpt>
      <trkpt lat="45.57137" lon="6.07315">
        <ele>1409.464</ele>
        <time>2020-09-19T10:19:42Z</time>
      </trkpt>
      <trkpt lat="45.57135" lon="6.07315">
        <ele>1410.144</ele>
        <time>2020-09-19T10:19:45Z</time>
      </trkpt>
      <trkpt lat="45.57134" lon="6.07316">
        <ele>1410.344</ele>
        <time>2020-09-19T10:19:47Z</time>
      </trkpt>
      <trkpt lat="45.57135" lon="6.07316">
        <ele>1410.651</ele>
        <time>2020-09-19T10:19:48Z</time>
      </trkpt>
      <trkpt lat="45.57135" lon="6.07317">
        <ele>1409.739</ele>
        <time>2020-09-19T10:19:51Z</time>
      </trkpt>
      <trkpt lat="45.57135" lon="6.07317">
        <ele>1409.739</ele>
        <time>2020-09-19T10:19:51Z</time>
      </trkpt>
      <trkpt lat="45.57135" lon="6.07318">
        <ele>1409.266</ele>
        <time>2020-09-19T10:19:52Z</time>
      </trkpt>
      <trkpt lat="45.57134" lon="6.07319">
        <ele>1409.86</ele>
        <time>2020-09-19T10:19:53Z</time>
      </trkpt>
      <trkpt lat="45.57133" lon="6.07319">
        <ele>1410.478</ele>
        <time>2020-09-19T10:19:54Z</time>
      </trkpt>
      <trkpt lat="45.57133" lon="6.07319">
        <ele>1411.194</ele>
        <time>2020-09-19T10:19:55Z</time>
      </trkpt>
      <trkpt lat="45.57132" lon="6.07319">
        <ele>1410.916</ele>
        <time>2020-09-19T10:19:56Z</time>
      </trkpt>
      <trkpt lat="45.57132" lon="6.07322">
        <ele>1410.853</ele>
        <time>2020-09-19T10:20:01Z</time>
      </trkpt>
      <trkpt lat="45.57132" lon="6.07323">
        <ele>1411.15</ele>
        <time>2020-09-19T10:20:02Z</time>
      </trkpt>
      <trkpt lat="45.57131" lon="6.07325">
        <ele>1411.051</ele>
        <time>2020-09-19T10:20:05Z</time>
      </trkpt>
      <trkpt lat="45.57127" lon="6.07324">
        <ele>1412.748</ele>
        <time>2020-09-19T10:20:12Z</time>
      </trkpt>
      <trkpt lat="45.57127" lon="6.07324">
        <ele>1413.341</ele>
        <time>2020-09-19T10:20:14Z</time>
      </trkpt>
      <trkpt lat="45.57127" lon="6.07324">
        <ele>1413.211</ele>
        <time>2020-09-19T10:20:15Z</time>
      </trkpt>
      <trkpt lat="45.57127" lon="6.07323">
        <ele>1413.146</ele>
        <time>2020-09-19T10:20:16Z</time>
      </trkpt>
      <trkpt lat="45.57127" lon="6.07322">
        <ele>1413.303</ele>
        <time>2020-09-19T10:20:19Z</time>
      </trkpt>
      <trkpt lat="45.57127" lon="6.07322">
        <ele>1413.303</ele>
        <time>2020-09-19T10:20:19Z</time>
      </trkpt>
      <trkpt lat="45.57126" lon="6.07322">
        <ele>1413.402</ele>
        <time>2020-09-19T10:20:20Z</time>
      </trkpt>
      <trkpt lat="45.57126" lon="6.07322">
        <ele>1413.756</ele>
        <time>2020-09-19T10:20:21Z</time>
      </trkpt>
      <trkpt lat="45.57123" lon="6.0732">
        <ele>1414.214</ele>
        <time>2020-09-19T10:20:23Z</time>
      </trkpt>
      <trkpt lat="45.57121" lon="6.0732">
        <ele>1414.216</ele>
        <time>2020-09-19T10:20:25Z</time>
      </trkpt>
      <trkpt lat="45.57118" lon="6.0732">
        <ele>1414.299</ele>
        <time>2020-09-19T10:20:28Z</time>
      </trkpt>
      <trkpt lat="45.57113" lon="6.07318">
        <ele>1414.312</ele>
        <time>2020-09-19T10:20:34Z</time>
      </trkpt>
      <trkpt lat="45.57113" lon="6.07318">
        <ele>1413.977</ele>
        <time>2020-09-19T10:20:35Z</time>
      </trkpt>
      <trkpt lat="45.57115" lon="6.07314">
        <ele>1415.072</ele>
        <time>2020-09-19T10:20:38Z</time>
      </trkpt>
      <trkpt lat="45.57116" lon="6.07313">
        <ele>1414.882</ele>
        <time>2020-09-19T10:20:40Z</time>
      </trkpt>
      <trkpt lat="45.57116" lon="6.07313">
        <ele>1414.882</ele>
        <time>2020-09-19T10:20:40Z</time>
      </trkpt>
      <trkpt lat="45.57117" lon="6.07313">
        <ele>1414.964</ele>
        <time>2020-09-19T10:20:41Z</time>
      </trkpt>
      <trkpt lat="45.57118" lon="6.07314">
        <ele>1414.7</ele>
        <time>2020-09-19T10:20:43Z</time>
      </trkpt>
      <trkpt lat="45.57118" lon="6.07314">
        <ele>1414.7</ele>
        <time>2020-09-19T10:20:43Z</time>
      </trkpt>
      <trkpt lat="45.57119" lon="6.07315">
        <ele>1414.436</ele>
        <time>2020-09-19T10:20:44Z</time>
      </trkpt>
      <trkpt lat="45.57119" lon="6.07315">
        <ele>1414.406</ele>
        <time>2020-09-19T10:20:45Z</time>
      </trkpt>
      <trkpt lat="45.57119" lon="6.07315">
        <ele>1414.737</ele>
        <time>2020-09-19T10:20:47Z</time>
      </trkpt>
      <trkpt lat="45.57117" lon="6.07314">
        <ele>1414.4</ele>
        <time>2020-09-19T10:20:49Z</time>
      </trkpt>
      <trkpt lat="45.57117" lon="6.07311">
        <ele>1413.938</ele>
        <time>2020-09-19T10:20:52Z</time>
      </trkpt>
      <trkpt lat="45.57117" lon="6.07311">
        <ele>1414.042</ele>
        <time>2020-09-19T10:20:53Z</time>
      </trkpt>
      <trkpt lat="45.57117" lon="6.07308">
        <ele>1414.718</ele>
        <time>2020-09-19T10:20:55Z</time>
      </trkpt>
      <trkpt lat="45.57118" lon="6.07307">
        <ele>1414.836</ele>
        <time>2020-09-19T10:20:56Z</time>
      </trkpt>
      <trkpt lat="45.57118" lon="6.07307">
        <ele>1414.836</ele>
        <time>2020-09-19T10:20:56Z</time>
      </trkpt>
      <trkpt lat="45.57119" lon="6.07307">
        <ele>1414.815</ele>
        <time>2020-09-19T10:20:57Z</time>
      </trkpt>
      <trkpt lat="45.57122" lon="6.07304">
        <ele>1414.979</ele>
        <time>2020-09-19T10:21:00Z</time>
      </trkpt>
      <trkpt lat="45.57124" lon="6.07302">
        <ele>1414.346</ele>
        <time>2020-09-19T10:21:01Z</time>
      </trkpt>
      <trkpt lat="45.57126" lon="6.07297">
        <ele>1415.484</ele>
        <time>2020-09-19T10:21:03Z</time>
      </trkpt>
      <trkpt lat="45.57126" lon="6.07297">
        <ele>1416.679</ele>
        <time>2020-09-19T10:21:04Z</time>
      </trkpt>
      <trkpt lat="45.57127" lon="6.07297">
        <ele>1417.055</ele>
        <time>2020-09-19T10:21:05Z</time>
      </trkpt>
      <trkpt lat="45.57127" lon="6.07296">
        <ele>1416.674</ele>
        <time>2020-09-19T10:21:06Z</time>
      </trkpt>
      <trkpt lat="45.57126" lon="6.07294">
        <ele>1417.416</ele>
        <time>2020-09-19T10:21:10Z</time>
      </trkpt>
      <trkpt lat="45.57126" lon="6.07288">
        <ele>1416.621</ele>
        <time>2020-09-19T10:21:13Z</time>
      </trkpt>
      <trkpt lat="45.57125" lon="6.07284">
        <ele>1418.411</ele>
        <time>2020-09-19T10:21:15Z</time>
      </trkpt>
      <trkpt lat="45.57127" lon="6.0728">
        <ele>1417.765</ele>
        <time>2020-09-19T10:21:18Z</time>
      </trkpt>
      <trkpt lat="45.5713" lon="6.0728">
        <ele>1418.006</ele>
        <time>2020-09-19T10:21:20Z</time>
      </trkpt>
      <trkpt lat="45.57132" lon="6.07279">
        <ele>1418.219</ele>
        <time>2020-09-19T10:21:21Z</time>
      </trkpt>
      <trkpt lat="45.57133" lon="6.0728">
        <ele>1418.285</ele>
        <time>2020-09-19T10:21:22Z</time>
      </trkpt>
      <trkpt lat="45.57133" lon="6.0728">
        <ele>1418.602</ele>
        <time>2020-09-19T10:21:23Z</time>
      </trkpt>
      <trkpt lat="45.57133" lon="6.07278">
        <ele>1419.298</ele>
        <time>2020-09-19T10:21:28Z</time>
      </trkpt>
      <trkpt lat="45.57133" lon="6.07272">
        <ele>1418.204</ele>
        <time>2020-09-19T10:21:31Z</time>
      </trkpt>
      <trkpt lat="45.57133" lon="6.07271">
        <ele>1419.065</ele>
        <time>2020-09-19T10:21:32Z</time>
      </trkpt>
      <trkpt lat="45.57133" lon="6.07269">
        <ele>1420.312</ele>
        <time>2020-09-19T10:21:35Z</time>
      </trkpt>
      <trkpt lat="45.57133" lon="6.07269">
        <ele>1420.382</ele>
        <time>2020-09-19T10:21:36Z</time>
      </trkpt>
      <trkpt lat="45.57133" lon="6.07269">
        <ele>1420.382</ele>
        <time>2020-09-19T10:21:36Z</time>
      </trkpt>
      <trkpt lat="45.57131" lon="6.0727">
        <ele>1420.415</ele>
        <time>2020-09-19T10:21:37Z</time>
      </trkpt>
      <trkpt lat="45.57132" lon="6.07271">
        <ele>1420.695</ele>
        <time>2020-09-19T10:21:38Z</time>
      </trkpt>
      <trkpt lat="45.57132" lon="6.07275">
        <ele>1420.704</ele>
        <time>2020-09-19T10:21:43Z</time>
      </trkpt>
      <trkpt lat="45.57132" lon="6.07279">
        <ele>1420.295</ele>
        <time>2020-09-19T10:21:46Z</time>
      </trkpt>
      <trkpt lat="45.57133" lon="6.07279">
        <ele>1420.351</ele>
        <time>2020-09-19T10:21:47Z</time>
      </trkpt>
      <trkpt lat="45.57133" lon="6.07279">
        <ele>1420.456</ele>
        <time>2020-09-19T10:21:50Z</time>
      </trkpt>
      <trkpt lat="45.57133" lon="6.07279">
        <ele>1420.456</ele>
        <time>2020-09-19T10:21:50Z</time>
      </trkpt>
      <trkpt lat="45.57133" lon="6.07279">
        <ele>1420.121</ele>
        <time>2020-09-19T10:21:51Z</time>
      </trkpt>
      <trkpt lat="45.57137" lon="6.07278">
        <ele>1422.65</ele>
        <time>2020-09-19T10:21:57Z</time>
      </trkpt>
      <trkpt lat="45.57137" lon="6.07281">
        <ele>1422.347</ele>
        <time>2020-09-19T10:22:00Z</time>
      </trkpt>
      <trkpt lat="45.57137" lon="6.07281">
        <ele>1421.45</ele>
        <time>2020-09-19T10:22:01Z</time>
      </trkpt>
      <trkpt lat="45.57137" lon="6.07281">
        <ele>1421.45</ele>
        <time>2020-09-19T10:22:01Z</time>
      </trkpt>
      <trkpt lat="45.57137" lon="6.07284">
        <ele>1421.762</ele>
        <time>2020-09-19T10:22:02Z</time>
      </trkpt>
      <trkpt lat="45.57139" lon="6.07285">
        <ele>1421.913</ele>
        <time>2020-09-19T10:22:03Z</time>
      </trkpt>
      <trkpt lat="45.57141" lon="6.07286">
        <ele>1421.911</ele>
        <time>2020-09-19T10:22:04Z</time>
      </trkpt>
      <trkpt lat="45.57146" lon="6.07287">
        <ele>1422.084</ele>
        <time>2020-09-19T10:22:08Z</time>
      </trkpt>
      <trkpt lat="45.57147" lon="6.07286">
        <ele>1422.258</ele>
        <time>2020-09-19T10:22:10Z</time>
      </trkpt>
      <trkpt lat="45.57147" lon="6.07286">
        <ele>1422.213</ele>
        <time>2020-09-19T10:22:11Z</time>
      </trkpt>
      <trkpt lat="45.57147" lon="6.07286">
        <ele>1422.213</ele>
        <time>2020-09-19T10:22:11Z</time>
      </trkpt>
      <trkpt lat="45.57147" lon="6.07286">
        <ele>1422.083</ele>
        <time>2020-09-19T10:22:12Z</time>
      </trkpt>
      <trkpt lat="45.57149" lon="6.07284">
        <ele>1420.455</ele>
        <time>2020-09-19T10:22:14Z</time>
      </trkpt>
      <trkpt lat="45.5715" lon="6.07284">
        <ele>1421.795</ele>
        <time>2020-09-19T10:22:15Z</time>
      </trkpt>
      <trkpt lat="45.57151" lon="6.07285">
        <ele>1421.749</ele>
        <time>2020-09-19T10:22:17Z</time>
      </trkpt>
      <trkpt lat="45.57151" lon="6.07285">
        <ele>1421.749</ele>
        <time>2020-09-19T10:22:17Z</time>
      </trkpt>
      <trkpt lat="45.57152" lon="6.07285">
        <ele>1420.93</ele>
        <time>2020-09-19T10:22:18Z</time>
      </trkpt>
      <trkpt lat="45.57153" lon="6.07285">
        <ele>1421.399</ele>
        <time>2020-09-19T10:22:21Z</time>
      </trkpt>
      <trkpt lat="45.57153" lon="6.07285">
        <ele>1421.702</ele>
        <time>2020-09-19T10:22:23Z</time>
      </trkpt>
      <trkpt lat="45.57153" lon="6.07285">
        <ele>1420.508</ele>
        <time>2020-09-19T10:23:06Z</time>
      </trkpt>
      <trkpt lat="45.57156" lon="6.07283">
        <ele>1420.73</ele>
        <time>2020-09-19T10:23:07Z</time>
      </trkpt>
      <trkpt lat="45.57158" lon="6.07283">
        <ele>1419.868</ele>
        <time>2020-09-19T10:23:09Z</time>
      </trkpt>
      <trkpt lat="45.57162" lon="6.07284">
        <ele>1420.13</ele>
        <time>2020-09-19T10:23:12Z</time>
      </trkpt>
      <trkpt lat="45.57166" lon="6.07283">
        <ele>1419.932</ele>
        <time>2020-09-19T10:23:15Z</time>
      </trkpt>
      <trkpt lat="45.57169" lon="6.07283">
        <ele>1419.878</ele>
        <time>2020-09-19T10:23:18Z</time>
      </trkpt>
      <trkpt lat="45.57173" lon="6.07286">
        <ele>1420.963</ele>
        <time>2020-09-19T10:23:22Z</time>
      </trkpt>
      <trkpt lat="45.57177" lon="6.07292">
        <ele>1420.137</ele>
        <time>2020-09-19T10:23:27Z</time>
      </trkpt>
      <trkpt lat="45.57177" lon="6.07298">
        <ele>1420.705</ele>
        <time>2020-09-19T10:23:32Z</time>
      </trkpt>
      <trkpt lat="45.57177" lon="6.07299">
        <ele>1420.367</ele>
        <time>2020-09-19T10:23:34Z</time>
      </trkpt>
      <trkpt lat="45.57177" lon="6.07297">
        <ele>1421.329</ele>
        <time>2020-09-19T10:23:38Z</time>
      </trkpt>
      <trkpt lat="45.5718" lon="6.07296">
        <ele>1421.697</ele>
        <time>2020-09-19T10:23:41Z</time>
      </trkpt>
      <trkpt lat="45.57183" lon="6.07298">
        <ele>1421.415</ele>
        <time>2020-09-19T10:23:43Z</time>
      </trkpt>
      <trkpt lat="45.57186" lon="6.073">
        <ele>1421.387</ele>
        <time>2020-09-19T10:23:45Z</time>
      </trkpt>
      <trkpt lat="45.57189" lon="6.07301">
        <ele>1421.845</ele>
        <time>2020-09-19T10:23:47Z</time>
      </trkpt>
      <trkpt lat="45.57199" lon="6.073">
        <ele>1421.239</ele>
        <time>2020-09-19T10:23:54Z</time>
      </trkpt>
      <trkpt lat="45.57202" lon="6.07301">
        <ele>1421.561</ele>
        <time>2020-09-19T10:23:57Z</time>
      </trkpt>
      <trkpt lat="45.57205" lon="6.073">
        <ele>1421.768</ele>
        <time>2020-09-19T10:24:01Z</time>
      </trkpt>
      <trkpt lat="45.57207" lon="6.073">
        <ele>1422.18</ele>
        <time>2020-09-19T10:24:04Z</time>
      </trkpt>
      <trkpt lat="45.5721" lon="6.073">
        <ele>1421.488</ele>
        <time>2020-09-19T10:24:08Z</time>
      </trkpt>
      <trkpt lat="45.57211" lon="6.073">
        <ele>1420.768</ele>
        <time>2020-09-19T10:24:09Z</time>
      </trkpt>
      <trkpt lat="45.57215" lon="6.07299">
        <ele>1421.38</ele>
        <time>2020-09-19T10:24:14Z</time>
      </trkpt>
      <trkpt lat="45.57216" lon="6.07299">
        <ele>1421.832</ele>
        <time>2020-09-19T10:24:16Z</time>
      </trkpt>
      <trkpt lat="45.57217" lon="6.07299">
        <ele>1421.801</ele>
        <time>2020-09-19T10:24:17Z</time>
      </trkpt>
      <trkpt lat="45.57217" lon="6.07299">
        <ele>1421.624</ele>
        <time>2020-09-19T10:24:18Z</time>
      </trkpt>
      <trkpt lat="45.57217" lon="6.07299">
        <ele>1421.523</ele>
        <time>2020-09-19T10:24:19Z</time>
      </trkpt>
      <trkpt lat="45.57217" lon="6.073">
        <ele>1421.526</ele>
        <time>2020-09-19T10:24:20Z</time>
      </trkpt>
      <trkpt lat="45.57217" lon="6.073">
        <ele>1421.388</ele>
        <time>2020-09-19T10:24:21Z</time>
      </trkpt>
      <trkpt lat="45.57217" lon="6.073">
        <ele>1421.855</ele>
        <time>2020-09-19T10:24:22Z</time>
      </trkpt>
      <trkpt lat="45.57218" lon="6.07301">
        <ele>1422.426</ele>
        <time>2020-09-19T10:24:23Z</time>
      </trkpt>
      <trkpt lat="45.57219" lon="6.07301">
        <ele>1421.935</ele>
        <time>2020-09-19T10:24:24Z</time>
      </trkpt>
      <trkpt lat="45.57221" lon="6.07303">
        <ele>1422.028</ele>
        <time>2020-09-19T10:24:26Z</time>
      </trkpt>
      <trkpt lat="45.57223" lon="6.07305">
        <ele>1421.495</ele>
        <time>2020-09-19T10:24:28Z</time>
      </trkpt>
      <trkpt lat="45.57227" lon="6.07307">
        <ele>1421.069</ele>
        <time>2020-09-19T10:24:31Z</time>
      </trkpt>
      <trkpt lat="45.5723" lon="6.07307">
        <ele>1421.06</ele>
        <time>2020-09-19T10:24:33Z</time>
      </trkpt>
      <trkpt lat="45.57233" lon="6.07307">
        <ele>1422.3</ele>
        <time>2020-09-19T10:24:36Z</time>
      </trkpt>
      <trkpt lat="45.57234" lon="6.07307">
        <ele>1422.289</ele>
        <time>2020-09-19T10:24:38Z</time>
      </trkpt>
      <trkpt lat="45.57236" lon="6.07309">
        <ele>1422.29</ele>
        <time>2020-09-19T10:24:41Z</time>
      </trkpt>
      <trkpt lat="45.57237" lon="6.07308">
        <ele>1422.221</ele>
        <time>2020-09-19T10:24:43Z</time>
      </trkpt>
      <trkpt lat="45.57239" lon="6.07307">
        <ele>1422.395</ele>
        <time>2020-09-19T10:24:44Z</time>
      </trkpt>
      <trkpt lat="45.5724" lon="6.07307">
        <ele>1422.861</ele>
        <time>2020-09-19T10:24:45Z</time>
      </trkpt>
      <trkpt lat="45.5724" lon="6.07307">
        <ele>1422.528</ele>
        <time>2020-09-19T10:24:46Z</time>
      </trkpt>
      <trkpt lat="45.5724" lon="6.07307">
        <ele>1422.528</ele>
        <time>2020-09-19T10:24:46Z</time>
      </trkpt>
      <trkpt lat="45.57241" lon="6.07307">
        <ele>1422.84</ele>
        <time>2020-09-19T10:24:47Z</time>
      </trkpt>
      <trkpt lat="45.57243" lon="6.07308">
        <ele>1422.847</ele>
        <time>2020-09-19T10:24:48Z</time>
      </trkpt>
      <trkpt lat="45.57248" lon="6.07311">
        <ele>1423.116</ele>
        <time>2020-09-19T10:24:52Z</time>
      </trkpt>
      <trkpt lat="45.57249" lon="6.07312">
        <ele>1423.178</ele>
        <time>2020-09-19T10:24:55Z</time>
      </trkpt>
      <trkpt lat="45.57253" lon="6.07311">
        <ele>1423.028</ele>
        <time>2020-09-19T10:24:58Z</time>
      </trkpt>
      <trkpt lat="45.57255" lon="6.07311">
        <ele>1422.945</ele>
        <time>2020-09-19T10:25:00Z</time>
      </trkpt>
      <trkpt lat="45.57256" lon="6.07311">
        <ele>1422.972</ele>
        <time>2020-09-19T10:25:01Z</time>
      </trkpt>
      <trkpt lat="45.57256" lon="6.07311">
        <ele>1422.972</ele>
        <time>2020-09-19T10:25:01Z</time>
      </trkpt>
      <trkpt lat="45.57256" lon="6.07311">
        <ele>1423.09</ele>
        <time>2020-09-19T10:25:02Z</time>
      </trkpt>
      <trkpt lat="45.57256" lon="6.07311">
        <ele>1423.09</ele>
        <time>2020-09-19T10:25:02Z</time>
      </trkpt>
      <trkpt lat="45.57257" lon="6.0731">
        <ele>1423.305</ele>
        <time>2020-09-19T10:25:03Z</time>
      </trkpt>
      <trkpt lat="45.57257" lon="6.0731">
        <ele>1423.305</ele>
        <time>2020-09-19T10:25:03Z</time>
      </trkpt>
      <trkpt lat="45.57259" lon="6.07309">
        <ele>1423.499</ele>
        <time>2020-09-19T10:25:04Z</time>
      </trkpt>
      <trkpt lat="45.5726" lon="6.07308">
        <ele>1423.555</ele>
        <time>2020-09-19T10:25:05Z</time>
      </trkpt>
      <trkpt lat="45.57261" lon="6.07308">
        <ele>1423.786</ele>
        <time>2020-09-19T10:25:06Z</time>
      </trkpt>
      <trkpt lat="45.57263" lon="6.07308">
        <ele>1423.63</ele>
        <time>2020-09-19T10:25:08Z</time>
      </trkpt>
      <trkpt lat="45.57264" lon="6.07305">
        <ele>1423.78</ele>
        <time>2020-09-19T10:25:12Z</time>
      </trkpt>
      <trkpt lat="45.57265" lon="6.07304">
        <ele>1423.71</ele>
        <time>2020-09-19T10:25:13Z</time>
      </trkpt>
      <trkpt lat="45.5727" lon="6.07301">
        <ele>1424.397</ele>
        <time>2020-09-19T10:25:17Z</time>
      </trkpt>
      <trkpt lat="45.57273" lon="6.07301">
        <ele>1424.194</ele>
        <time>2020-09-19T10:25:19Z</time>
      </trkpt>
      <trkpt lat="45.57277" lon="6.07302">
        <ele>1423.603</ele>
        <time>2020-09-19T10:25:23Z</time>
      </trkpt>
      <trkpt lat="45.57279" lon="6.07303">
        <ele>1423.613</ele>
        <time>2020-09-19T10:25:27Z</time>
      </trkpt>
      <trkpt lat="45.57279" lon="6.07304">
        <ele>1423.437</ele>
        <time>2020-09-19T10:25:28Z</time>
      </trkpt>
      <trkpt lat="45.57282" lon="6.07303">
        <ele>1423.614</ele>
        <time>2020-09-19T10:25:32Z</time>
      </trkpt>
      <trkpt lat="45.57283" lon="6.07303">
        <ele>1423.996</ele>
        <time>2020-09-19T10:25:33Z</time>
      </trkpt>
      <trkpt lat="45.57286" lon="6.07302">
        <ele>1423.993</ele>
        <time>2020-09-19T10:25:36Z</time>
      </trkpt>
      <trkpt lat="45.57288" lon="6.073">
        <ele>1424.17</ele>
        <time>2020-09-19T10:25:40Z</time>
      </trkpt>
      <trkpt lat="45.57292" lon="6.07298">
        <ele>1424.626</ele>
        <time>2020-09-19T10:25:44Z</time>
      </trkpt>
      <trkpt lat="45.57292" lon="6.07298">
        <ele>1424.849</ele>
        <time>2020-09-19T10:25:45Z</time>
      </trkpt>
      <trkpt lat="45.57295" lon="6.07297">
        <ele>1424.788</ele>
        <time>2020-09-19T10:25:48Z</time>
      </trkpt>
      <trkpt lat="45.57295" lon="6.07297">
        <ele>1424.822</ele>
        <time>2020-09-19T10:25:49Z</time>
      </trkpt>
      <trkpt lat="45.57295" lon="6.07297">
        <ele>1424.822</ele>
        <time>2020-09-19T10:25:49Z</time>
      </trkpt>
      <trkpt lat="45.57297" lon="6.07296">
        <ele>1424.446</ele>
        <time>2020-09-19T10:25:50Z</time>
      </trkpt>
      <trkpt lat="45.57301" lon="6.07297">
        <ele>1424.572</ele>
        <time>2020-09-19T10:25:52Z</time>
      </trkpt>
      <trkpt lat="45.57308" lon="6.07299">
        <ele>1425.426</ele>
        <time>2020-09-19T10:25:58Z</time>
      </trkpt>
      <trkpt lat="45.57309" lon="6.07299">
        <ele>1425.135</ele>
        <time>2020-09-19T10:25:59Z</time>
      </trkpt>
      <trkpt lat="45.5731" lon="6.073">
        <ele>1424.922</ele>
        <time>2020-09-19T10:26:01Z</time>
      </trkpt>
      <trkpt lat="45.57313" lon="6.07298">
        <ele>1424.923</ele>
        <time>2020-09-19T10:26:05Z</time>
      </trkpt>
      <trkpt lat="45.57315" lon="6.07299">
        <ele>1425.001</ele>
        <time>2020-09-19T10:26:09Z</time>
      </trkpt>
      <trkpt lat="45.57316" lon="6.07299">
        <ele>1425.595</ele>
        <time>2020-09-19T10:26:11Z</time>
      </trkpt>
      <trkpt lat="45.5732" lon="6.07298">
        <ele>1425.765</ele>
        <time>2020-09-19T10:26:16Z</time>
      </trkpt>
      <trkpt lat="45.57328" lon="6.07295">
        <ele>1426.207</ele>
        <time>2020-09-19T10:26:22Z</time>
      </trkpt>
      <trkpt lat="45.57351" lon="6.07301">
        <ele>1427.131</ele>
        <time>2020-09-19T10:26:37Z</time>
      </trkpt>
      <trkpt lat="45.57356" lon="6.07301">
        <ele>1425.652</ele>
        <time>2020-09-19T10:26:40Z</time>
      </trkpt>
      <trkpt lat="45.57358" lon="6.07296">
        <ele>1426.114</ele>
        <time>2020-09-19T10:26:43Z</time>
      </trkpt>
      <trkpt lat="45.57361" lon="6.07293">
        <ele>1426.93</ele>
        <time>2020-09-19T10:26:48Z</time>
      </trkpt>
      <trkpt lat="45.57368" lon="6.07288">
        <ele>1426.699</ele>
        <time>2020-09-19T10:26:55Z</time>
      </trkpt>
      <trkpt lat="45.57377" lon="6.07284">
        <ele>1426.486</ele>
        <time>2020-09-19T10:27:04Z</time>
      </trkpt>
      <trkpt lat="45.57378" lon="6.07283">
        <ele>1426.031</ele>
        <time>2020-09-19T10:27:06Z</time>
      </trkpt>
      <trkpt lat="45.57378" lon="6.07281">
        <ele>1424.999</ele>
        <time>2020-09-19T10:27:10Z</time>
      </trkpt>
      <trkpt lat="45.57378" lon="6.07279">
        <ele>1423.822</ele>
        <time>2020-09-19T10:27:12Z</time>
      </trkpt>
      <trkpt lat="45.57377" lon="6.0728">
        <ele>1422.742</ele>
        <time>2020-09-19T10:27:20Z</time>
      </trkpt>
      <trkpt lat="45.57377" lon="6.0728">
        <ele>1422.742</ele>
        <time>2020-09-19T10:27:20Z</time>
      </trkpt>
      <trkpt lat="45.57377" lon="6.07279">
        <ele>1423.357</ele>
        <time>2020-09-19T10:27:21Z</time>
      </trkpt>
      <trkpt lat="45.57394" lon="6.07281">
        <ele>1422.678</ele>
        <time>2020-09-19T10:27:36Z</time>
      </trkpt>
      <trkpt lat="45.57399" lon="6.07279">
        <ele>1422.787</ele>
        <time>2020-09-19T10:27:40Z</time>
      </trkpt>
      <trkpt lat="45.57401" lon="6.07279">
        <ele>1422.915</ele>
        <time>2020-09-19T10:27:42Z</time>
      </trkpt>
      <trkpt lat="45.57404" lon="6.07279">
        <ele>1423.907</ele>
        <time>2020-09-19T10:27:45Z</time>
      </trkpt>
      <trkpt lat="45.57409" lon="6.07278">
        <ele>1424.007</ele>
        <time>2020-09-19T10:27:51Z</time>
      </trkpt>
      <trkpt lat="45.5741" lon="6.07278">
        <ele>1423.539</ele>
        <time>2020-09-19T10:27:52Z</time>
      </trkpt>
      <trkpt lat="45.57412" lon="6.07279">
        <ele>1423.251</ele>
        <time>2020-09-19T10:27:56Z</time>
      </trkpt>
      <trkpt lat="45.57413" lon="6.07279">
        <ele>1422.757</ele>
        <time>2020-09-19T10:27:57Z</time>
      </trkpt>
      <trkpt lat="45.57414" lon="6.07279">
        <ele>1422.803</ele>
        <time>2020-09-19T10:27:59Z</time>
      </trkpt>
      <trkpt lat="45.57415" lon="6.07279">
        <ele>1422.103</ele>
        <time>2020-09-19T10:28:00Z</time>
      </trkpt>
      <trkpt lat="45.57415" lon="6.0728">
        <ele>1421.838</ele>
        <time>2020-09-19T10:28:01Z</time>
      </trkpt>
      <trkpt lat="45.57417" lon="6.0728">
        <ele>1421.924</ele>
        <time>2020-09-19T10:28:02Z</time>
      </trkpt>
      <trkpt lat="45.57419" lon="6.0728">
        <ele>1421.981</ele>
        <time>2020-09-19T10:28:03Z</time>
      </trkpt>
      <trkpt lat="45.57428" lon="6.07282">
        <ele>1422.26</ele>
        <time>2020-09-19T10:28:07Z</time>
      </trkpt>
      <trkpt lat="45.5743" lon="6.07281">
        <ele>1423.339</ele>
        <time>2020-09-19T10:28:09Z</time>
      </trkpt>
      <trkpt lat="45.57429" lon="6.07281">
        <ele>1423.075</ele>
        <time>2020-09-19T10:28:10Z</time>
      </trkpt>
      <trkpt lat="45.5743" lon="6.07282">
        <ele>1422.901</ele>
        <time>2020-09-19T10:28:12Z</time>
      </trkpt>
      <trkpt lat="45.5743" lon="6.07282">
        <ele>1422.861</ele>
        <time>2020-09-19T10:28:15Z</time>
      </trkpt>
      <trkpt lat="45.57429" lon="6.07282">
        <ele>1422.755</ele>
        <time>2020-09-19T10:28:16Z</time>
      </trkpt>
      <trkpt lat="45.57428" lon="6.07281">
        <ele>1422.714</ele>
        <time>2020-09-19T10:28:18Z</time>
      </trkpt>
      <trkpt lat="45.57428" lon="6.0728">
        <ele>1422.701</ele>
        <time>2020-09-19T10:28:21Z</time>
      </trkpt>
      <trkpt lat="45.57428" lon="6.0728">
        <ele>1422.925</ele>
        <time>2020-09-19T10:28:23Z</time>
      </trkpt>
      <trkpt lat="45.57428" lon="6.0728">
        <ele>1422.925</ele>
        <time>2020-09-19T10:28:23Z</time>
      </trkpt>
      <trkpt lat="45.57428" lon="6.07279">
        <ele>1422.784</ele>
        <time>2020-09-19T10:28:24Z</time>
      </trkpt>
      <trkpt lat="45.57427" lon="6.07275">
        <ele>1423.001</ele>
        <time>2020-09-19T10:28:28Z</time>
      </trkpt>
      <trkpt lat="45.57425" lon="6.07271">
        <ele>1423.896</ele>
        <time>2020-09-19T10:28:33Z</time>
      </trkpt>
      <trkpt lat="45.57425" lon="6.0727">
        <ele>1424.278</ele>
        <time>2020-09-19T10:28:34Z</time>
      </trkpt>
      <trkpt lat="45.57418" lon="6.0726">
        <ele>1426.559</ele>
        <time>2020-09-19T10:28:46Z</time>
      </trkpt>
      <trkpt lat="45.57416" lon="6.07251">
        <ele>1428.732</ele>
        <time>2020-09-19T10:28:58Z</time>
      </trkpt>
      <trkpt lat="45.57416" lon="6.07251">
        <ele>1428.566</ele>
        <time>2020-09-19T10:28:59Z</time>
      </trkpt>
      <trkpt lat="45.57414" lon="6.07249">
        <ele>1429.208</ele>
        <time>2020-09-19T10:29:03Z</time>
      </trkpt>
      <trkpt lat="45.57413" lon="6.07249">
        <ele>1429.67</ele>
        <time>2020-09-19T10:29:05Z</time>
      </trkpt>
      <trkpt lat="45.57413" lon="6.07249">
        <ele>1429.67</ele>
        <time>2020-09-19T10:29:05Z</time>
      </trkpt>
      <trkpt lat="45.57413" lon="6.07249">
        <ele>1430.022</ele>
        <time>2020-09-19T10:29:06Z</time>
      </trkpt>
      <trkpt lat="45.57413" lon="6.07249">
        <ele>1430.022</ele>
        <time>2020-09-19T10:29:06Z</time>
      </trkpt>
      <trkpt lat="45.57413" lon="6.07249">
        <ele>1430.225</ele>
        <time>2020-09-19T10:29:07Z</time>
      </trkpt>
      <trkpt lat="45.57413" lon="6.07249">
        <ele>1431.868</ele>
        <time>2020-09-19T10:29:13Z</time>
      </trkpt>
      <trkpt lat="45.57413" lon="6.07249">
        <ele>1431.725</ele>
        <time>2020-09-19T10:29:14Z</time>
      </trkpt>
      <trkpt lat="45.57413" lon="6.07249">
        <ele>1431.725</ele>
        <time>2020-09-19T10:29:14Z</time>
      </trkpt>
      <trkpt lat="45.57413" lon="6.07249">
        <ele>1432.125</ele>
        <time>2020-09-19T10:29:15Z</time>
      </trkpt>
      <trkpt lat="45.57413" lon="6.07249">
        <ele>1432.125</ele>
        <time>2020-09-19T10:29:15Z</time>
      </trkpt>
      <trkpt lat="45.57412" lon="6.07249">
        <ele>1432.356</ele>
        <time>2020-09-19T10:29:16Z</time>
      </trkpt>
      <trkpt lat="45.57412" lon="6.07249">
        <ele>1432.356</ele>
        <time>2020-09-19T10:29:16Z</time>
      </trkpt>
      <trkpt lat="45.57412" lon="6.07249">
        <ele>1432.241</ele>
        <time>2020-09-19T10:29:17Z</time>
      </trkpt>
      <trkpt lat="45.57412" lon="6.07249">
        <ele>1432.52</ele>
        <time>2020-09-19T10:29:20Z</time>
      </trkpt>
      <trkpt lat="45.57412" lon="6.07249">
        <ele>1432.379</ele>
        <time>2020-09-19T10:29:21Z</time>
      </trkpt>
      <trkpt lat="45.57412" lon="6.07249">
        <ele>1432.357</ele>
        <time>2020-09-19T10:29:22Z</time>
      </trkpt>
      <trkpt lat="45.57412" lon="6.07249">
        <ele>1432.136</ele>
        <time>2020-09-19T10:29:25Z</time>
      </trkpt>
      <trkpt lat="45.57411" lon="6.07249">
        <ele>1431.78</ele>
        <time>2020-09-19T10:29:26Z</time>
      </trkpt>
      <trkpt lat="45.57411" lon="6.07249">
        <ele>1431.867</ele>
        <time>2020-09-19T10:29:27Z</time>
      </trkpt>
      <trkpt lat="45.57411" lon="6.07249">
        <ele>1431.867</ele>
        <time>2020-09-19T10:29:27Z</time>
      </trkpt>
      <trkpt lat="45.57412" lon="6.07248">
        <ele>1432.187</ele>
        <time>2020-09-19T10:29:28Z</time>
      </trkpt>
      <trkpt lat="45.57412" lon="6.07248">
        <ele>1432.187</ele>
        <time>2020-09-19T10:29:28Z</time>
      </trkpt>
      <trkpt lat="45.57412" lon="6.07248">
        <ele>1432.782</ele>
        <time>2020-09-19T10:29:29Z</time>
      </trkpt>
      <trkpt lat="45.57412" lon="6.07248">
        <ele>1432.73</ele>
        <time>2020-09-19T10:29:38Z</time>
      </trkpt>
      <trkpt lat="45.57412" lon="6.07249">
        <ele>1432.821</ele>
        <time>2020-09-19T10:29:39Z</time>
      </trkpt>
      <trkpt lat="45.57412" lon="6.0725">
        <ele>1433.248</ele>
        <time>2020-09-19T10:29:41Z</time>
      </trkpt>
      <trkpt lat="45.57412" lon="6.0725">
        <ele>1433.243</ele>
        <time>2020-09-19T10:29:42Z</time>
      </trkpt>
      <trkpt lat="45.57412" lon="6.0725">
        <ele>1433.305</ele>
        <time>2020-09-19T10:30:22Z</time>
      </trkpt>
      <trkpt lat="45.57411" lon="6.07249">
        <ele>1432.847</ele>
        <time>2020-09-19T10:30:23Z</time>
      </trkpt>
      <trkpt lat="45.57402" lon="6.07243">
        <ele>1433.547</ele>
        <time>2020-09-19T10:30:38Z</time>
      </trkpt>
      <trkpt lat="45.57393" lon="6.07242">
        <ele>1435.712</ele>
        <time>2020-09-19T10:30:49Z</time>
      </trkpt>
      <trkpt lat="45.57383" lon="6.07237">
        <ele>1438.769</ele>
        <time>2020-09-19T10:31:00Z</time>
      </trkpt>
      <trkpt lat="45.57382" lon="6.07238">
        <ele>1438.671</ele>
        <time>2020-09-19T10:31:03Z</time>
      </trkpt>
      <trkpt lat="45.57382" lon="6.07239">
        <ele>1438.496</ele>
        <time>2020-09-19T10:31:05Z</time>
      </trkpt>
      <trkpt lat="45.57365" lon="6.07223">
        <ele>1439.823</ele>
        <time>2020-09-19T10:31:25Z</time>
      </trkpt>
      <trkpt lat="45.57362" lon="6.0722">
        <ele>1439.946</ele>
        <time>2020-09-19T10:31:30Z</time>
      </trkpt>
      <trkpt lat="45.57362" lon="6.07219">
        <ele>1440.317</ele>
        <time>2020-09-19T10:31:31Z</time>
      </trkpt>
      <trkpt lat="45.57362" lon="6.07218">
        <ele>1440.481</ele>
        <time>2020-09-19T10:31:32Z</time>
      </trkpt>
      <trkpt lat="45.57362" lon="6.07215">
        <ele>1440.707</ele>
        <time>2020-09-19T10:31:35Z</time>
      </trkpt>
      <trkpt lat="45.5736" lon="6.07206">
        <ele>1441.424</ele>
        <time>2020-09-19T10:31:41Z</time>
      </trkpt>
      <trkpt lat="45.57359" lon="6.07205">
        <ele>1441.673</ele>
        <time>2020-09-19T10:31:44Z</time>
      </trkpt>
      <trkpt lat="45.57358" lon="6.07204">
        <ele>1441.859</ele>
        <time>2020-09-19T10:31:45Z</time>
      </trkpt>
      <trkpt lat="45.57356" lon="6.07205">
        <ele>1441.69</ele>
        <time>2020-09-19T10:31:49Z</time>
      </trkpt>
      <trkpt lat="45.57353" lon="6.07206">
        <ele>1442.165</ele>
        <time>2020-09-19T10:31:53Z</time>
      </trkpt>
      <trkpt lat="45.57353" lon="6.07206">
        <ele>1442.781</ele>
        <time>2020-09-19T10:31:59Z</time>
      </trkpt>
      <trkpt lat="45.57352" lon="6.07207">
        <ele>1442.768</ele>
        <time>2020-09-19T10:32:00Z</time>
      </trkpt>
      <trkpt lat="45.57353" lon="6.07207">
        <ele>1443.074</ele>
        <time>2020-09-19T10:32:01Z</time>
      </trkpt>
      <trkpt lat="45.57353" lon="6.07207">
        <ele>1443.027</ele>
        <time>2020-09-19T10:32:02Z</time>
      </trkpt>
      <trkpt lat="45.57353" lon="6.07207">
        <ele>1443.282</ele>
        <time>2020-09-19T10:32:56Z</time>
      </trkpt>
      <trkpt lat="45.57352" lon="6.07207">
        <ele>1443.41</ele>
        <time>2020-09-19T10:32:57Z</time>
      </trkpt>
      <trkpt lat="45.57352" lon="6.07207">
        <ele>1443.554</ele>
        <time>2020-09-19T10:32:58Z</time>
      </trkpt>
      <trkpt lat="45.57352" lon="6.07207">
        <ele>1443.554</ele>
        <time>2020-09-19T10:32:58Z</time>
      </trkpt>
      <trkpt lat="45.57352" lon="6.07205">
        <ele>1443.392</ele>
        <time>2020-09-19T10:32:59Z</time>
      </trkpt>
      <trkpt lat="45.57352" lon="6.07205">
        <ele>1442.939</ele>
        <time>2020-09-19T10:33:00Z</time>
      </trkpt>
      <trkpt lat="45.57352" lon="6.07205">
        <ele>1442.635</ele>
        <time>2020-09-19T10:33:01Z</time>
      </trkpt>
      <trkpt lat="45.57352" lon="6.07205">
        <ele>1442.676</ele>
        <time>2020-09-19T10:33:05Z</time>
      </trkpt>
      <trkpt lat="45.57351" lon="6.07204">
        <ele>1443.08</ele>
        <time>2020-09-19T10:33:06Z</time>
      </trkpt>
      <trkpt lat="45.57351" lon="6.07204">
        <ele>1443.275</ele>
        <time>2020-09-19T10:33:07Z</time>
      </trkpt>
      <trkpt lat="45.5735" lon="6.07204">
        <ele>1443.658</ele>
        <time>2020-09-19T10:33:08Z</time>
      </trkpt>
      <trkpt lat="45.5735" lon="6.07204">
        <ele>1443.658</ele>
        <time>2020-09-19T10:33:08Z</time>
      </trkpt>
      <trkpt lat="45.5735" lon="6.07205">
        <ele>1443.355</ele>
        <time>2020-09-19T10:33:09Z</time>
      </trkpt>
      <trkpt lat="45.5735" lon="6.07205">
        <ele>1443.354</ele>
        <time>2020-09-19T10:33:10Z</time>
      </trkpt>
      <trkpt lat="45.5735" lon="6.07205">
        <ele>1443.166</ele>
        <time>2020-09-19T10:34:12Z</time>
      </trkpt>
      <trkpt lat="45.57348" lon="6.07205">
        <ele>1444.396</ele>
        <time>2020-09-19T10:34:13Z</time>
      </trkpt>
      <trkpt lat="45.57348" lon="6.07205">
        <ele>1444.01</ele>
        <time>2020-09-19T10:34:14Z</time>
      </trkpt>
      <trkpt lat="45.57348" lon="6.07205">
        <ele>1444.01</ele>
        <time>2020-09-19T10:34:14Z</time>
      </trkpt>
      <trkpt lat="45.57348" lon="6.07205">
        <ele>1444.548</ele>
        <time>2020-09-19T10:34:15Z</time>
      </trkpt>
      <trkpt lat="45.57348" lon="6.07205">
        <ele>1445.565</ele>
        <time>2020-09-19T10:34:16Z</time>
      </trkpt>
      <trkpt lat="45.57348" lon="6.07205">
        <ele>1445.56</ele>
        <time>2020-09-19T10:34:17Z</time>
      </trkpt>
      <trkpt lat="45.57348" lon="6.07205">
        <ele>1446.637</ele>
        <time>2020-09-19T11:08:37Z</time>
      </trkpt>
      <trkpt lat="45.57348" lon="6.07205">
        <ele>1446.868</ele>
        <time>2020-09-19T11:08:38Z</time>
      </trkpt>
      <trkpt lat="45.57348" lon="6.07205">
        <ele>1446.99</ele>
        <time>2020-09-19T11:08:39Z</time>
      </trkpt>
      <trkpt lat="45.57348" lon="6.07205">
        <ele>1446.714</ele>
        <time>2020-09-19T11:13:13Z</time>
      </trkpt>
      <trkpt lat="45.57348" lon="6.07205">
        <ele>1446.506</ele>
        <time>2020-09-19T11:13:14Z</time>
      </trkpt>
      <trkpt lat="45.57348" lon="6.07205">
        <ele>1446.451</ele>
        <time>2020-09-19T11:13:15Z</time>
      </trkpt>
      <trkpt lat="45.57348" lon="6.07205">
        <ele>1446.478</ele>
        <time>2020-09-19T11:13:19Z</time>
      </trkpt>
      <trkpt lat="45.57347" lon="6.07206">
        <ele>1446.411</ele>
        <time>2020-09-19T11:13:20Z</time>
      </trkpt>
      <trkpt lat="45.57347" lon="6.07206">
        <ele>1446.406</ele>
        <time>2020-09-19T11:13:21Z</time>
      </trkpt>
      <trkpt lat="45.57347" lon="6.07206">
        <ele>1445.769</ele>
        <time>2020-09-19T11:16:03Z</time>
      </trkpt>
      <trkpt lat="45.57348" lon="6.07206">
        <ele>1445.778</ele>
        <time>2020-09-19T11:16:04Z</time>
      </trkpt>
      <trkpt lat="45.57348" lon="6.07206">
        <ele>1445.778</ele>
        <time>2020-09-19T11:16:04Z</time>
      </trkpt>
      <trkpt lat="45.57348" lon="6.07206">
        <ele>1445.841</ele>
        <time>2020-09-19T11:16:05Z</time>
      </trkpt>
      <trkpt lat="45.57348" lon="6.07206">
        <ele>1445.879</ele>
        <time>2020-09-19T11:16:12Z</time>
      </trkpt>
      <trkpt lat="45.57348" lon="6.07207">
        <ele>1445.785</ele>
        <time>2020-09-19T11:16:13Z</time>
      </trkpt>
      <trkpt lat="45.57348" lon="6.07207">
        <ele>1446.368</ele>
        <time>2020-09-19T11:16:14Z</time>
      </trkpt>
      <trkpt lat="45.57348" lon="6.07208">
        <ele>1446.608</ele>
        <time>2020-09-19T11:16:15Z</time>
      </trkpt>
      <trkpt lat="45.57348" lon="6.07208">
        <ele>1446.883</ele>
        <time>2020-09-19T11:16:17Z</time>
      </trkpt>
      <trkpt lat="45.57348" lon="6.07208">
        <ele>1446.826</ele>
        <time>2020-09-19T11:16:18Z</time>
      </trkpt>
      <trkpt lat="45.57348" lon="6.07208">
        <ele>1446.514</ele>
        <time>2020-09-19T11:16:26Z</time>
      </trkpt>
      <trkpt lat="45.57348" lon="6.07208">
        <ele>1447.049</ele>
        <time>2020-09-19T11:16:27Z</time>
      </trkpt>
      <trkpt lat="45.57348" lon="6.07208">
        <ele>1447.554</ele>
        <time>2020-09-19T11:16:29Z</time>
      </trkpt>
      <trkpt lat="45.57348" lon="6.07208">
        <ele>1447.554</ele>
        <time>2020-09-19T11:16:29Z</time>
      </trkpt>
      <trkpt lat="45.57348" lon="6.07208">
        <ele>1447.636</ele>
        <time>2020-09-19T11:16:30Z</time>
      </trkpt>
      <trkpt lat="45.57348" lon="6.07207">
        <ele>1447.394</ele>
        <time>2020-09-19T11:16:31Z</time>
      </trkpt>
      <trkpt lat="45.57348" lon="6.07207">
        <ele>1447.306</ele>
        <time>2020-09-19T11:16:33Z</time>
      </trkpt>
      <trkpt lat="45.57348" lon="6.07207">
        <ele>1446.921</ele>
        <time>2020-09-19T11:16:35Z</time>
      </trkpt>
      <trkpt lat="45.57349" lon="6.07207">
        <ele>1447.143</ele>
        <time>2020-09-19T11:16:36Z</time>
      </trkpt>
      <trkpt lat="45.57349" lon="6.07207">
        <ele>1446.573</ele>
        <time>2020-09-19T11:16:37Z</time>
      </trkpt>
      <trkpt lat="45.57349" lon="6.07207">
        <ele>1446.538</ele>
        <time>2020-09-19T11:16:53Z</time>
      </trkpt>
      <trkpt lat="45.57349" lon="6.07205">
        <ele>1445.232</ele>
        <time>2020-09-19T11:16:54Z</time>
      </trkpt>
      <trkpt lat="45.57349" lon="6.07204">
        <ele>1445.864</ele>
        <time>2020-09-19T11:16:55Z</time>
      </trkpt>
      <trkpt lat="45.57349" lon="6.07204">
        <ele>1445.676</ele>
        <time>2020-09-19T11:16:56Z</time>
      </trkpt>
      <trkpt lat="45.57349" lon="6.07204">
        <ele>1445.676</ele>
        <time>2020-09-19T11:16:56Z</time>
      </trkpt>
      <trkpt lat="45.57349" lon="6.07203">
        <ele>1445.276</ele>
        <time>2020-09-19T11:16:57Z</time>
      </trkpt>
      <trkpt lat="45.57349" lon="6.07203">
        <ele>1445.247</ele>
        <time>2020-09-19T11:16:58Z</time>
      </trkpt>
      <trkpt lat="45.57349" lon="6.07203">
        <ele>1444.912</ele>
        <time>2020-09-19T11:17:20Z</time>
      </trkpt>
      <trkpt lat="45.57349" lon="6.07201">
        <ele>1444.647</ele>
        <time>2020-09-19T11:17:21Z</time>
      </trkpt>
      <trkpt lat="45.57349" lon="6.07201">
        <ele>1444.698</ele>
        <time>2020-09-19T11:17:22Z</time>
      </trkpt>
      <trkpt lat="45.5735" lon="6.072">
        <ele>1443.703</ele>
        <time>2020-09-19T11:17:34Z</time>
      </trkpt>
      <trkpt lat="45.57352" lon="6.07201">
        <ele>1443.532</ele>
        <time>2020-09-19T11:17:35Z</time>
      </trkpt>
      <trkpt lat="45.57352" lon="6.07201">
        <ele>1443.449</ele>
        <time>2020-09-19T11:17:36Z</time>
      </trkpt>
      <trkpt lat="45.57352" lon="6.07201">
        <ele>1442.114</ele>
        <time>2020-09-19T11:18:17Z</time>
      </trkpt>
      <trkpt lat="45.57351" lon="6.07201">
        <ele>1442.194</ele>
        <time>2020-09-19T11:18:18Z</time>
      </trkpt>
      <trkpt lat="45.57351" lon="6.07201">
        <ele>1442.194</ele>
        <time>2020-09-19T11:18:18Z</time>
      </trkpt>
      <trkpt lat="45.57351" lon="6.07201">
        <ele>1442.142</ele>
        <time>2020-09-19T11:18:19Z</time>
      </trkpt>
      <trkpt lat="45.57351" lon="6.07201">
        <ele>1441.976</ele>
        <time>2020-09-19T11:18:42Z</time>
      </trkpt>
      <trkpt lat="45.5735" lon="6.07202">
        <ele>1442.462</ele>
        <time>2020-09-19T11:18:43Z</time>
      </trkpt>
      <trkpt lat="45.5735" lon="6.07202">
        <ele>1442.571</ele>
        <time>2020-09-19T11:18:44Z</time>
      </trkpt>
      <trkpt lat="45.5735" lon="6.07202">
        <ele>1443.405</ele>
        <time>2020-09-19T11:18:57Z</time>
      </trkpt>
      <trkpt lat="45.5735" lon="6.07205">
        <ele>1444.093</ele>
        <time>2020-09-19T11:18:58Z</time>
      </trkpt>
      <trkpt lat="45.57349" lon="6.07205">
        <ele>1443.292</ele>
        <time>2020-09-19T11:18:59Z</time>
      </trkpt>
      <trkpt lat="45.57349" lon="6.07204">
        <ele>1444.322</ele>
        <time>2020-09-19T11:19:00Z</time>
      </trkpt>
      <trkpt lat="45.57347" lon="6.07201">
        <ele>1444.197</ele>
        <time>2020-09-19T11:19:03Z</time>
      </trkpt>
      <trkpt lat="45.57347" lon="6.072">
        <ele>1444.879</ele>
        <time>2020-09-19T11:19:05Z</time>
      </trkpt>
      <trkpt lat="45.57346" lon="6.07199">
        <ele>1444.522</ele>
        <time>2020-09-19T11:19:06Z</time>
      </trkpt>
      <trkpt lat="45.57345" lon="6.07191">
        <ele>1444.594</ele>
        <time>2020-09-19T11:19:10Z</time>
      </trkpt>
      <trkpt lat="45.57343" lon="6.07194">
        <ele>1443.787</ele>
        <time>2020-09-19T11:19:16Z</time>
      </trkpt>
      <trkpt lat="45.57343" lon="6.07194">
        <ele>1443.689</ele>
        <time>2020-09-19T11:19:17Z</time>
      </trkpt>
      <trkpt lat="45.57342" lon="6.07194">
        <ele>1444.377</ele>
        <time>2020-09-19T11:19:18Z</time>
      </trkpt>
      <trkpt lat="45.57342" lon="6.07194">
        <ele>1445.582</ele>
        <time>2020-09-19T11:19:19Z</time>
      </trkpt>
      <trkpt lat="45.57341" lon="6.07194">
        <ele>1445.933</ele>
        <time>2020-09-19T11:19:20Z</time>
      </trkpt>
      <trkpt lat="45.5734" lon="6.07194">
        <ele>1447.172</ele>
        <time>2020-09-19T11:19:21Z</time>
      </trkpt>
      <trkpt lat="45.5734" lon="6.07195">
        <ele>1447.566</ele>
        <time>2020-09-19T11:19:22Z</time>
      </trkpt>
      <trkpt lat="45.57339" lon="6.07195">
        <ele>1448.241</ele>
        <time>2020-09-19T11:19:23Z</time>
      </trkpt>
      <trkpt lat="45.57338" lon="6.07198">
        <ele>1449.882</ele>
        <time>2020-09-19T11:19:27Z</time>
      </trkpt>
      <trkpt lat="45.57336" lon="6.07198">
        <ele>1451.183</ele>
        <time>2020-09-19T11:19:30Z</time>
      </trkpt>
      <trkpt lat="45.57333" lon="6.072">
        <ele>1453.317</ele>
        <time>2020-09-19T11:19:38Z</time>
      </trkpt>
      <trkpt lat="45.57331" lon="6.07202">
        <ele>1451.865</ele>
        <time>2020-09-19T11:19:45Z</time>
      </trkpt>
      <trkpt lat="45.57328" lon="6.07204">
        <ele>1452.346</ele>
        <time>2020-09-19T11:19:50Z</time>
      </trkpt>
      <trkpt lat="45.57323" lon="6.0721">
        <ele>1452.295</ele>
        <time>2020-09-19T11:19:57Z</time>
      </trkpt>
      <trkpt lat="45.57321" lon="6.07211">
        <ele>1452.312</ele>
        <time>2020-09-19T11:20:01Z</time>
      </trkpt>
      <trkpt lat="45.5732" lon="6.07213">
        <ele>1452.312</ele>
        <time>2020-09-19T11:20:04Z</time>
      </trkpt>
      <trkpt lat="45.57319" lon="6.07214">
        <ele>1452.527</ele>
        <time>2020-09-19T11:20:11Z</time>
      </trkpt>
      <trkpt lat="45.57317" lon="6.07214">
        <ele>1451.843</ele>
        <time>2020-09-19T11:20:15Z</time>
      </trkpt>
      <trkpt lat="45.57316" lon="6.07214">
        <ele>1452.155</ele>
        <time>2020-09-19T11:20:19Z</time>
      </trkpt>
      <trkpt lat="45.57316" lon="6.07213">
        <ele>1452.521</ele>
        <time>2020-09-19T11:20:20Z</time>
      </trkpt>
      <trkpt lat="45.57313" lon="6.07209">
        <ele>1453.849</ele>
        <time>2020-09-19T11:20:25Z</time>
      </trkpt>
      <trkpt lat="45.5731" lon="6.07206">
        <ele>1454.405</ele>
        <time>2020-09-19T11:20:29Z</time>
      </trkpt>
      <trkpt lat="45.57305" lon="6.07205">
        <ele>1454.861</ele>
        <time>2020-09-19T11:20:35Z</time>
      </trkpt>
      <trkpt lat="45.57304" lon="6.07205">
        <ele>1454.682</ele>
        <time>2020-09-19T11:20:38Z</time>
      </trkpt>
      <trkpt lat="45.57302" lon="6.07205">
        <ele>1454.456</ele>
        <time>2020-09-19T11:20:41Z</time>
      </trkpt>
      <trkpt lat="45.573" lon="6.07206">
        <ele>1454.76</ele>
        <time>2020-09-19T11:20:44Z</time>
      </trkpt>
      <trkpt lat="45.57299" lon="6.07207">
        <ele>1455.509</ele>
        <time>2020-09-19T11:20:47Z</time>
      </trkpt>
      <trkpt lat="45.57298" lon="6.07209">
        <ele>1455.829</ele>
        <time>2020-09-19T11:20:50Z</time>
      </trkpt>
      <trkpt lat="45.57296" lon="6.07208">
        <ele>1455.749</ele>
        <time>2020-09-19T11:20:53Z</time>
      </trkpt>
      <trkpt lat="45.57292" lon="6.07206">
        <ele>1455.717</ele>
        <time>2020-09-19T11:20:59Z</time>
      </trkpt>
      <trkpt lat="45.57292" lon="6.07206">
        <ele>1455.717</ele>
        <time>2020-09-19T11:20:59Z</time>
      </trkpt>
      <trkpt lat="45.57292" lon="6.07207">
        <ele>1455.515</ele>
        <time>2020-09-19T11:21:00Z</time>
      </trkpt>
      <trkpt lat="45.57291" lon="6.07207">
        <ele>1455.505</ele>
        <time>2020-09-19T11:21:01Z</time>
      </trkpt>
      <trkpt lat="45.57291" lon="6.07208">
        <ele>1455.514</ele>
        <time>2020-09-19T11:21:02Z</time>
      </trkpt>
      <trkpt lat="45.57293" lon="6.0721">
        <ele>1455.799</ele>
        <time>2020-09-19T11:21:05Z</time>
      </trkpt>
      <trkpt lat="45.57295" lon="6.07214">
        <ele>1456.587</ele>
        <time>2020-09-19T11:21:11Z</time>
      </trkpt>
      <trkpt lat="45.57296" lon="6.07218">
        <ele>1456.126</ele>
        <time>2020-09-19T11:21:13Z</time>
      </trkpt>
      <trkpt lat="45.57293" lon="6.07215">
        <ele>1455.94</ele>
        <time>2020-09-19T11:21:16Z</time>
      </trkpt>
      <trkpt lat="45.57288" lon="6.07208">
        <ele>1455.968</ele>
        <time>2020-09-19T11:21:18Z</time>
      </trkpt>
      <trkpt lat="45.57284" lon="6.07206">
        <ele>1455.918</ele>
        <time>2020-09-19T11:21:20Z</time>
      </trkpt>
      <trkpt lat="45.57279" lon="6.07206">
        <ele>1456.325</ele>
        <time>2020-09-19T11:21:23Z</time>
      </trkpt>
      <trkpt lat="45.57278" lon="6.07207">
        <ele>1456.273</ele>
        <time>2020-09-19T11:21:25Z</time>
      </trkpt>
      <trkpt lat="45.57277" lon="6.07207">
        <ele>1456.015</ele>
        <time>2020-09-19T11:21:29Z</time>
      </trkpt>
      <trkpt lat="45.57276" lon="6.07208">
        <ele>1456.163</ele>
        <time>2020-09-19T11:21:30Z</time>
      </trkpt>
      <trkpt lat="45.57275" lon="6.07209">
        <ele>1456.561</ele>
        <time>2020-09-19T11:21:33Z</time>
      </trkpt>
      <trkpt lat="45.57274" lon="6.0721">
        <ele>1456.974</ele>
        <time>2020-09-19T11:21:36Z</time>
      </trkpt>
      <trkpt lat="45.57274" lon="6.0721">
        <ele>1457.443</ele>
        <time>2020-09-19T11:21:37Z</time>
      </trkpt>
      <trkpt lat="45.57273" lon="6.07211">
        <ele>1457.618</ele>
        <time>2020-09-19T11:21:38Z</time>
      </trkpt>
      <trkpt lat="45.57272" lon="6.07213">
        <ele>1457.977</ele>
        <time>2020-09-19T11:21:40Z</time>
      </trkpt>
      <trkpt lat="45.57269" lon="6.07212">
        <ele>1458.298</ele>
        <time>2020-09-19T11:21:44Z</time>
      </trkpt>
      <trkpt lat="45.57268" lon="6.07212">
        <ele>1458.26</ele>
        <time>2020-09-19T11:21:45Z</time>
      </trkpt>
      <trkpt lat="45.57267" lon="6.07213">
        <ele>1457.885</ele>
        <time>2020-09-19T11:21:46Z</time>
      </trkpt>
      <trkpt lat="45.57265" lon="6.07214">
        <ele>1457.873</ele>
        <time>2020-09-19T11:21:49Z</time>
      </trkpt>
      <trkpt lat="45.57265" lon="6.07212">
        <ele>1458.261</ele>
        <time>2020-09-19T11:21:52Z</time>
      </trkpt>
      <trkpt lat="45.57265" lon="6.07212">
        <ele>1458.261</ele>
        <time>2020-09-19T11:21:52Z</time>
      </trkpt>
      <trkpt lat="45.57265" lon="6.07212">
        <ele>1458.04</ele>
        <time>2020-09-19T11:21:53Z</time>
      </trkpt>
      <trkpt lat="45.57264" lon="6.07211">
        <ele>1458.832</ele>
        <time>2020-09-19T11:21:55Z</time>
      </trkpt>
      <trkpt lat="45.57263" lon="6.07209">
        <ele>1460.013</ele>
        <time>2020-09-19T11:22:00Z</time>
      </trkpt>
      <trkpt lat="45.57262" lon="6.07208">
        <ele>1461.137</ele>
        <time>2020-09-19T11:22:01Z</time>
      </trkpt>
      <trkpt lat="45.57262" lon="6.07208">
        <ele>1462.208</ele>
        <time>2020-09-19T11:22:02Z</time>
      </trkpt>
      <trkpt lat="45.57262" lon="6.07208">
        <ele>1462.208</ele>
        <time>2020-09-19T11:22:02Z</time>
      </trkpt>
      <trkpt lat="45.57262" lon="6.07208">
        <ele>1462.486</ele>
        <time>2020-09-19T11:22:03Z</time>
      </trkpt>
      <trkpt lat="45.57259" lon="6.07206">
        <ele>1463.34</ele>
        <time>2020-09-19T11:22:09Z</time>
      </trkpt>
      <trkpt lat="45.57259" lon="6.07205">
        <ele>1463.233</ele>
        <time>2020-09-19T11:22:10Z</time>
      </trkpt>
      <trkpt lat="45.57259" lon="6.07205">
        <ele>1463.242</ele>
        <time>2020-09-19T11:22:11Z</time>
      </trkpt>
      <trkpt lat="45.57259" lon="6.07205">
        <ele>1463.242</ele>
        <time>2020-09-19T11:22:11Z</time>
      </trkpt>
      <trkpt lat="45.5726" lon="6.07204">
        <ele>1463.491</ele>
        <time>2020-09-19T11:22:12Z</time>
      </trkpt>
      <trkpt lat="45.5726" lon="6.07202">
        <ele>1463.648</ele>
        <time>2020-09-19T11:22:15Z</time>
      </trkpt>
      <trkpt lat="45.5726" lon="6.07203">
        <ele>1464.224</ele>
        <time>2020-09-19T11:22:18Z</time>
      </trkpt>
      <trkpt lat="45.5726" lon="6.07205">
        <ele>1463.536</ele>
        <time>2020-09-19T11:22:21Z</time>
      </trkpt>
      <trkpt lat="45.57258" lon="6.07205">
        <ele>1463.679</ele>
        <time>2020-09-19T11:22:25Z</time>
      </trkpt>
      <trkpt lat="45.57257" lon="6.07205">
        <ele>1463.766</ele>
        <time>2020-09-19T11:22:27Z</time>
      </trkpt>
      <trkpt lat="45.57257" lon="6.07203">
        <ele>1464.3</ele>
        <time>2020-09-19T11:22:31Z</time>
      </trkpt>
      <trkpt lat="45.57256" lon="6.07202">
        <ele>1463.359</ele>
        <time>2020-09-19T11:22:32Z</time>
      </trkpt>
      <trkpt lat="45.57256" lon="6.07201">
        <ele>1463.866</ele>
        <time>2020-09-19T11:22:33Z</time>
      </trkpt>
      <trkpt lat="45.57255" lon="6.07199">
        <ele>1463.694</ele>
        <time>2020-09-19T11:22:35Z</time>
      </trkpt>
      <trkpt lat="45.57253" lon="6.07198">
        <ele>1463.816</ele>
        <time>2020-09-19T11:22:38Z</time>
      </trkpt>
      <trkpt lat="45.57251" lon="6.07196">
        <ele>1464.036</ele>
        <time>2020-09-19T11:22:40Z</time>
      </trkpt>
      <trkpt lat="45.57248" lon="6.07195">
        <ele>1465.477</ele>
        <time>2020-09-19T11:22:43Z</time>
      </trkpt>
      <trkpt lat="45.57246" lon="6.07198">
        <ele>1465.7</ele>
        <time>2020-09-19T11:22:50Z</time>
      </trkpt>
      <trkpt lat="45.57245" lon="6.07198">
        <ele>1466.591</ele>
        <time>2020-09-19T11:22:52Z</time>
      </trkpt>
      <trkpt lat="45.57245" lon="6.07198">
        <ele>1465.622</ele>
        <time>2020-09-19T11:22:54Z</time>
      </trkpt>
      <trkpt lat="45.57245" lon="6.07198">
        <ele>1466.549</ele>
        <time>2020-09-19T11:22:55Z</time>
      </trkpt>
      <trkpt lat="45.57242" lon="6.07193">
        <ele>1466.583</ele>
        <time>2020-09-19T11:23:01Z</time>
      </trkpt>
      <trkpt lat="45.5724" lon="6.07189">
        <ele>1468.191</ele>
        <time>2020-09-19T11:23:04Z</time>
      </trkpt>
      <trkpt lat="45.57232" lon="6.07183">
        <ele>1468.473</ele>
        <time>2020-09-19T11:23:13Z</time>
      </trkpt>
      <trkpt lat="45.57232" lon="6.07184">
        <ele>1468.715</ele>
        <time>2020-09-19T11:23:15Z</time>
      </trkpt>
      <trkpt lat="45.57232" lon="6.07184">
        <ele>1468.459</ele>
        <time>2020-09-19T11:23:16Z</time>
      </trkpt>
      <trkpt lat="45.57232" lon="6.07184">
        <ele>1468.459</ele>
        <time>2020-09-19T11:23:16Z</time>
      </trkpt>
      <trkpt lat="45.57231" lon="6.07183">
        <ele>1468.559</ele>
        <time>2020-09-19T11:23:17Z</time>
      </trkpt>
      <trkpt lat="45.57231" lon="6.07183">
        <ele>1469.299</ele>
        <time>2020-09-19T11:23:18Z</time>
      </trkpt>
      <trkpt lat="45.57231" lon="6.07183">
        <ele>1469.103</ele>
        <time>2020-09-19T11:23:22Z</time>
      </trkpt>
      <trkpt lat="45.57231" lon="6.07183">
        <ele>1469.103</ele>
        <time>2020-09-19T11:23:22Z</time>
      </trkpt>
      <trkpt lat="45.57231" lon="6.07183">
        <ele>1469.602</ele>
        <time>2020-09-19T11:23:23Z</time>
      </trkpt>
      <trkpt lat="45.5723" lon="6.07183">
        <ele>1469.824</ele>
        <time>2020-09-19T11:23:25Z</time>
      </trkpt>
      <trkpt lat="45.5723" lon="6.07184">
        <ele>1470.67</ele>
        <time>2020-09-19T11:23:27Z</time>
      </trkpt>
      <trkpt lat="45.57229" lon="6.07183">
        <ele>1470.56</ele>
        <time>2020-09-19T11:23:30Z</time>
      </trkpt>
      <trkpt lat="45.57227" lon="6.07182">
        <ele>1469.682</ele>
        <time>2020-09-19T11:23:34Z</time>
      </trkpt>
      <trkpt lat="45.57226" lon="6.07182">
        <ele>1470.32</ele>
        <time>2020-09-19T11:23:36Z</time>
      </trkpt>
      <trkpt lat="45.57226" lon="6.07182">
        <ele>1470.32</ele>
        <time>2020-09-19T11:23:36Z</time>
      </trkpt>
      <trkpt lat="45.57226" lon="6.07181">
        <ele>1470.277</ele>
        <time>2020-09-19T11:23:37Z</time>
      </trkpt>
      <trkpt lat="45.57225" lon="6.0718">
        <ele>1470.815</ele>
        <time>2020-09-19T11:23:39Z</time>
      </trkpt>
      <trkpt lat="45.57224" lon="6.07179">
        <ele>1470.98</ele>
        <time>2020-09-19T11:23:40Z</time>
      </trkpt>
      <trkpt lat="45.57222" lon="6.07177">
        <ele>1471.271</ele>
        <time>2020-09-19T11:23:43Z</time>
      </trkpt>
      <trkpt lat="45.57222" lon="6.07177">
        <ele>1471.445</ele>
        <time>2020-09-19T11:23:44Z</time>
      </trkpt>
      <trkpt lat="45.57222" lon="6.07177">
        <ele>1471.297</ele>
        <time>2020-09-19T11:23:45Z</time>
      </trkpt>
      <trkpt lat="45.57221" lon="6.07176">
        <ele>1470.817</ele>
        <time>2020-09-19T11:23:48Z</time>
      </trkpt>
      <trkpt lat="45.5722" lon="6.07175">
        <ele>1471.024</ele>
        <time>2020-09-19T11:23:50Z</time>
      </trkpt>
      <trkpt lat="45.5722" lon="6.07175">
        <ele>1470.943</ele>
        <time>2020-09-19T11:23:51Z</time>
      </trkpt>
      <trkpt lat="45.5722" lon="6.07175">
        <ele>1470.943</ele>
        <time>2020-09-19T11:23:51Z</time>
      </trkpt>
      <trkpt lat="45.57219" lon="6.07175">
        <ele>1471.177</ele>
        <time>2020-09-19T11:23:52Z</time>
      </trkpt>
      <trkpt lat="45.57218" lon="6.07174">
        <ele>1471.211</ele>
        <time>2020-09-19T11:23:53Z</time>
      </trkpt>
      <trkpt lat="45.57216" lon="6.07174">
        <ele>1472.135</ele>
        <time>2020-09-19T11:23:58Z</time>
      </trkpt>
      <trkpt lat="45.57216" lon="6.07174">
        <ele>1472.442</ele>
        <time>2020-09-19T11:24:00Z</time>
      </trkpt>
      <trkpt lat="45.57216" lon="6.07173">
        <ele>1472.413</ele>
        <time>2020-09-19T11:24:01Z</time>
      </trkpt>
      <trkpt lat="45.57213" lon="6.07171">
        <ele>1473.046</ele>
        <time>2020-09-19T11:24:05Z</time>
      </trkpt>
      <trkpt lat="45.57213" lon="6.07171">
        <ele>1473.046</ele>
        <time>2020-09-19T11:24:05Z</time>
      </trkpt>
      <trkpt lat="45.57212" lon="6.0717">
        <ele>1472.946</ele>
        <time>2020-09-19T11:24:06Z</time>
      </trkpt>
      <trkpt lat="45.5721" lon="6.07169">
        <ele>1473.378</ele>
        <time>2020-09-19T11:24:09Z</time>
      </trkpt>
      <trkpt lat="45.5721" lon="6.07169">
        <ele>1473.581</ele>
        <time>2020-09-19T11:24:10Z</time>
      </trkpt>
      <trkpt lat="45.57207" lon="6.0717">
        <ele>1474.224</ele>
        <time>2020-09-19T11:24:15Z</time>
      </trkpt>
      <trkpt lat="45.57204" lon="6.07169">
        <ele>1475.332</ele>
        <time>2020-09-19T11:24:19Z</time>
      </trkpt>
      <trkpt lat="45.57198" lon="6.07167">
        <ele>1475.8</ele>
        <time>2020-09-19T11:24:24Z</time>
      </trkpt>
      <trkpt lat="45.57198" lon="6.07166">
        <ele>1476.47</ele>
        <time>2020-09-19T11:24:25Z</time>
      </trkpt>
      <trkpt lat="45.57197" lon="6.07167">
        <ele>1476.213</ele>
        <time>2020-09-19T11:24:28Z</time>
      </trkpt>
      <trkpt lat="45.57197" lon="6.07168">
        <ele>1475.803</ele>
        <time>2020-09-19T11:24:29Z</time>
      </trkpt>
      <trkpt lat="45.57196" lon="6.07169">
        <ele>1475.875</ele>
        <time>2020-09-19T11:24:30Z</time>
      </trkpt>
      <trkpt lat="45.57196" lon="6.07169">
        <ele>1476.525</ele>
        <time>2020-09-19T11:24:31Z</time>
      </trkpt>
      <trkpt lat="45.57192" lon="6.07167">
        <ele>1477.366</ele>
        <time>2020-09-19T11:24:35Z</time>
      </trkpt>
      <trkpt lat="45.57189" lon="6.07164">
        <ele>1477.639</ele>
        <time>2020-09-19T11:24:38Z</time>
      </trkpt>
      <trkpt lat="45.57187" lon="6.07161">
        <ele>1477.664</ele>
        <time>2020-09-19T11:24:41Z</time>
      </trkpt>
      <trkpt lat="45.57187" lon="6.07161">
        <ele>1477.891</ele>
        <time>2020-09-19T11:24:43Z</time>
      </trkpt>
      <trkpt lat="45.57187" lon="6.07161">
        <ele>1478.164</ele>
        <time>2020-09-19T11:24:44Z</time>
      </trkpt>
      <trkpt lat="45.57187" lon="6.07161">
        <ele>1478.164</ele>
        <time>2020-09-19T11:24:44Z</time>
      </trkpt>
      <trkpt lat="45.57187" lon="6.0716">
        <ele>1478.292</ele>
        <time>2020-09-19T11:24:45Z</time>
      </trkpt>
      <trkpt lat="45.57186" lon="6.07159">
        <ele>1478.91</ele>
        <time>2020-09-19T11:24:49Z</time>
      </trkpt>
      <trkpt lat="45.57186" lon="6.07158">
        <ele>1479.044</ele>
        <time>2020-09-19T11:24:50Z</time>
      </trkpt>
      <trkpt lat="45.57187" lon="6.07156">
        <ele>1478.795</ele>
        <time>2020-09-19T11:24:52Z</time>
      </trkpt>
      <trkpt lat="45.57186" lon="6.07155">
        <ele>1478.872</ele>
        <time>2020-09-19T11:24:58Z</time>
      </trkpt>
      <trkpt lat="45.57186" lon="6.07155">
        <ele>1478.872</ele>
        <time>2020-09-19T11:24:58Z</time>
      </trkpt>
      <trkpt lat="45.57186" lon="6.07154">
        <ele>1478.722</ele>
        <time>2020-09-19T11:24:59Z</time>
      </trkpt>
      <trkpt lat="45.57185" lon="6.07154">
        <ele>1478.977</ele>
        <time>2020-09-19T11:25:01Z</time>
      </trkpt>
      <trkpt lat="45.57182" lon="6.07153">
        <ele>1479.436</ele>
        <time>2020-09-19T11:25:06Z</time>
      </trkpt>
      <trkpt lat="45.57182" lon="6.07152">
        <ele>1479.373</ele>
        <time>2020-09-19T11:25:08Z</time>
      </trkpt>
      <trkpt lat="45.57182" lon="6.07152">
        <ele>1479.373</ele>
        <time>2020-09-19T11:25:08Z</time>
      </trkpt>
      <trkpt lat="45.57181" lon="6.07152">
        <ele>1479.252</ele>
        <time>2020-09-19T11:25:09Z</time>
      </trkpt>
      <trkpt lat="45.57181" lon="6.07152">
        <ele>1479.252</ele>
        <time>2020-09-19T11:25:09Z</time>
      </trkpt>
      <trkpt lat="45.57181" lon="6.07152">
        <ele>1479.272</ele>
        <time>2020-09-19T11:25:10Z</time>
      </trkpt>
      <trkpt lat="45.57181" lon="6.07152">
        <ele>1479.272</ele>
        <time>2020-09-19T11:25:10Z</time>
      </trkpt>
      <trkpt lat="45.5718" lon="6.07153">
        <ele>1479.259</ele>
        <time>2020-09-19T11:25:11Z</time>
      </trkpt>
      <trkpt lat="45.5718" lon="6.07153">
        <ele>1479.441</ele>
        <time>2020-09-19T11:25:12Z</time>
      </trkpt>
      <trkpt lat="45.5718" lon="6.07153">
        <ele>1480.74</ele>
        <time>2020-09-19T11:25:13Z</time>
      </trkpt>
      <trkpt lat="45.57181" lon="6.07153">
        <ele>1480.809</ele>
        <time>2020-09-19T11:25:14Z</time>
      </trkpt>
      <trkpt lat="45.57181" lon="6.07153">
        <ele>1480.809</ele>
        <time>2020-09-19T11:25:14Z</time>
      </trkpt>
      <trkpt lat="45.57181" lon="6.07153">
        <ele>1480.83</ele>
        <time>2020-09-19T11:25:15Z</time>
      </trkpt>
      <trkpt lat="45.57182" lon="6.07153">
        <ele>1481.272</ele>
        <time>2020-09-19T11:25:17Z</time>
      </trkpt>
      <trkpt lat="45.57182" lon="6.07153">
        <ele>1481.272</ele>
        <time>2020-09-19T11:25:17Z</time>
      </trkpt>
      <trkpt lat="45.57182" lon="6.07152">
        <ele>1480.999</ele>
        <time>2020-09-19T11:25:18Z</time>
      </trkpt>
      <trkpt lat="45.57181" lon="6.07151">
        <ele>1482.156</ele>
        <time>2020-09-19T11:25:20Z</time>
      </trkpt>
      <trkpt lat="45.5718" lon="6.07149">
        <ele>1485.04</ele>
        <time>2020-09-19T11:25:25Z</time>
      </trkpt>
      <trkpt lat="45.5718" lon="6.07149">
        <ele>1485.04</ele>
        <time>2020-09-19T11:25:25Z</time>
      </trkpt>
      <trkpt lat="45.5718" lon="6.07148">
        <ele>1484.597</ele>
        <time>2020-09-19T11:25:26Z</time>
      </trkpt>
      <trkpt lat="45.57179" lon="6.07146">
        <ele>1485.027</ele>
        <time>2020-09-19T11:25:30Z</time>
      </trkpt>
      <trkpt lat="45.57177" lon="6.07144">
        <ele>1484.767</ele>
        <time>2020-09-19T11:25:36Z</time>
      </trkpt>
      <trkpt lat="45.57177" lon="6.07144">
        <ele>1485.854</ele>
        <time>2020-09-19T11:25:39Z</time>
      </trkpt>
      <trkpt lat="45.57177" lon="6.07144">
        <ele>1485.163</ele>
        <time>2020-09-19T11:25:42Z</time>
      </trkpt>
      <trkpt lat="45.57176" lon="6.07144">
        <ele>1485.962</ele>
        <time>2020-09-19T11:25:43Z</time>
      </trkpt>
      <trkpt lat="45.57176" lon="6.07144">
        <ele>1485.659</ele>
        <time>2020-09-19T11:25:44Z</time>
      </trkpt>
      <trkpt lat="45.57175" lon="6.07144">
        <ele>1485.98</ele>
        <time>2020-09-19T11:25:45Z</time>
      </trkpt>
      <trkpt lat="45.57174" lon="6.07143">
        <ele>1486.245</ele>
        <time>2020-09-19T11:25:48Z</time>
      </trkpt>
      <trkpt lat="45.57171" lon="6.07141">
        <ele>1487.272</ele>
        <time>2020-09-19T11:25:51Z</time>
      </trkpt>
      <trkpt lat="45.5717" lon="6.07139">
        <ele>1487.833</ele>
        <time>2020-09-19T11:25:54Z</time>
      </trkpt>
      <trkpt lat="45.57169" lon="6.07139">
        <ele>1487.194</ele>
        <time>2020-09-19T11:25:56Z</time>
      </trkpt>
      <trkpt lat="45.57168" lon="6.0714">
        <ele>1488.43</ele>
        <time>2020-09-19T11:25:59Z</time>
      </trkpt>
      <trkpt lat="45.57168" lon="6.0714">
        <ele>1488.45</ele>
        <time>2020-09-19T11:26:00Z</time>
      </trkpt>
      <trkpt lat="45.57168" lon="6.0714">
        <ele>1488.45</ele>
        <time>2020-09-19T11:26:00Z</time>
      </trkpt>
      <trkpt lat="45.57167" lon="6.0714">
        <ele>1488.156</ele>
        <time>2020-09-19T11:26:01Z</time>
      </trkpt>
      <trkpt lat="45.57167" lon="6.07138">
        <ele>1488.51</ele>
        <time>2020-09-19T11:26:03Z</time>
      </trkpt>
      <trkpt lat="45.57166" lon="6.07138">
        <ele>1488.597</ele>
        <time>2020-09-19T11:26:04Z</time>
      </trkpt>
      <trkpt lat="45.57166" lon="6.07137">
        <ele>1488.676</ele>
        <time>2020-09-19T11:26:05Z</time>
      </trkpt>
      <trkpt lat="45.57165" lon="6.07138">
        <ele>1488.804</ele>
        <time>2020-09-19T11:26:06Z</time>
      </trkpt>
      <trkpt lat="45.57166" lon="6.07139">
        <ele>1488.005</ele>
        <time>2020-09-19T11:26:12Z</time>
      </trkpt>
      <trkpt lat="45.57163" lon="6.07137">
        <ele>1488.204</ele>
        <time>2020-09-19T11:26:16Z</time>
      </trkpt>
      <trkpt lat="45.57162" lon="6.07135">
        <ele>1488.339</ele>
        <time>2020-09-19T11:26:18Z</time>
      </trkpt>
      <trkpt lat="45.57161" lon="6.07135">
        <ele>1488.345</ele>
        <time>2020-09-19T11:26:19Z</time>
      </trkpt>
      <trkpt lat="45.57158" lon="6.07132">
        <ele>1487.525</ele>
        <time>2020-09-19T11:26:24Z</time>
      </trkpt>
      <trkpt lat="45.57157" lon="6.0713">
        <ele>1487.742</ele>
        <time>2020-09-19T11:26:27Z</time>
      </trkpt>
      <trkpt lat="45.57156" lon="6.0713">
        <ele>1487.614</ele>
        <time>2020-09-19T11:26:28Z</time>
      </trkpt>
      <trkpt lat="45.57156" lon="6.07128">
        <ele>1487.919</ele>
        <time>2020-09-19T11:26:30Z</time>
      </trkpt>
      <trkpt lat="45.57154" lon="6.07124">
        <ele>1488.893</ele>
        <time>2020-09-19T11:26:35Z</time>
      </trkpt>
      <trkpt lat="45.57153" lon="6.07124">
        <ele>1489.091</ele>
        <time>2020-09-19T11:26:36Z</time>
      </trkpt>
      <trkpt lat="45.57151" lon="6.07121">
        <ele>1489.015</ele>
        <time>2020-09-19T11:26:39Z</time>
      </trkpt>
      <trkpt lat="45.5715" lon="6.0712">
        <ele>1489.181</ele>
        <time>2020-09-19T11:26:41Z</time>
      </trkpt>
      <trkpt lat="45.5715" lon="6.07119">
        <ele>1490.284</ele>
        <time>2020-09-19T11:26:43Z</time>
      </trkpt>
      <trkpt lat="45.5715" lon="6.07117">
        <ele>1490.47</ele>
        <time>2020-09-19T11:26:48Z</time>
      </trkpt>
      <trkpt lat="45.5715" lon="6.07116">
        <ele>1490.278</ele>
        <time>2020-09-19T11:26:49Z</time>
      </trkpt>
      <trkpt lat="45.57148" lon="6.07113">
        <ele>1492.66</ele>
        <time>2020-09-19T11:26:54Z</time>
      </trkpt>
      <trkpt lat="45.57147" lon="6.07109">
        <ele>1493.866</ele>
        <time>2020-09-19T11:26:59Z</time>
      </trkpt>
      <trkpt lat="45.57146" lon="6.07108">
        <ele>1494.067</ele>
        <time>2020-09-19T11:27:00Z</time>
      </trkpt>
      <trkpt lat="45.57146" lon="6.07107">
        <ele>1494.009</ele>
        <time>2020-09-19T11:27:03Z</time>
      </trkpt>
      <trkpt lat="45.57147" lon="6.07107">
        <ele>1494.113</ele>
        <time>2020-09-19T11:27:06Z</time>
      </trkpt>
      <trkpt lat="45.57147" lon="6.07107">
        <ele>1494.113</ele>
        <time>2020-09-19T11:27:06Z</time>
      </trkpt>
      <trkpt lat="45.57146" lon="6.07107">
        <ele>1494.275</ele>
        <time>2020-09-19T11:27:07Z</time>
      </trkpt>
      <trkpt lat="45.57146" lon="6.07106">
        <ele>1494.363</ele>
        <time>2020-09-19T11:27:09Z</time>
      </trkpt>
      <trkpt lat="45.57146" lon="6.07106">
        <ele>1494.212</ele>
        <time>2020-09-19T11:27:10Z</time>
      </trkpt>
      <trkpt lat="45.57146" lon="6.07106">
        <ele>1494.212</ele>
        <time>2020-09-19T11:27:10Z</time>
      </trkpt>
      <trkpt lat="45.57146" lon="6.07105">
        <ele>1493.983</ele>
        <time>2020-09-19T11:27:11Z</time>
      </trkpt>
      <trkpt lat="45.57146" lon="6.07104">
        <ele>1494.247</ele>
        <time>2020-09-19T11:27:13Z</time>
      </trkpt>
      <trkpt lat="45.57146" lon="6.07104">
        <ele>1494.247</ele>
        <time>2020-09-19T11:27:13Z</time>
      </trkpt>
      <trkpt lat="45.57146" lon="6.07104">
        <ele>1494.544</ele>
        <time>2020-09-19T11:27:14Z</time>
      </trkpt>
      <trkpt lat="45.57146" lon="6.07104">
        <ele>1494.528</ele>
        <time>2020-09-19T11:27:16Z</time>
      </trkpt>
      <trkpt lat="45.5715" lon="6.07103">
        <ele>1494.509</ele>
        <time>2020-09-19T11:27:17Z</time>
      </trkpt>
      <trkpt lat="45.57151" lon="6.07101">
        <ele>1494.723</ele>
        <time>2020-09-19T11:27:19Z</time>
      </trkpt>
      <trkpt lat="45.57151" lon="6.07101">
        <ele>1494.794</ele>
        <time>2020-09-19T11:27:20Z</time>
      </trkpt>
      <trkpt lat="45.57149" lon="6.07099">
        <ele>1495.051</ele>
        <time>2020-09-19T11:27:23Z</time>
      </trkpt>
      <trkpt lat="45.57149" lon="6.07099">
        <ele>1494.777</ele>
        <time>2020-09-19T11:27:24Z</time>
      </trkpt>
      <trkpt lat="45.57148" lon="6.07098">
        <ele>1495.328</ele>
        <time>2020-09-19T11:27:25Z</time>
      </trkpt>
      <trkpt lat="45.57148" lon="6.07098">
        <ele>1495.328</ele>
        <time>2020-09-19T11:27:25Z</time>
      </trkpt>
      <trkpt lat="45.57148" lon="6.07097">
        <ele>1495.511</ele>
        <time>2020-09-19T11:27:26Z</time>
      </trkpt>
      <trkpt lat="45.57147" lon="6.07096">
        <ele>1495.597</ele>
        <time>2020-09-19T11:27:28Z</time>
      </trkpt>
      <trkpt lat="45.57146" lon="6.07095">
        <ele>1495.939</ele>
        <time>2020-09-19T11:27:29Z</time>
      </trkpt>
      <trkpt lat="45.57145" lon="6.07094">
        <ele>1495.483</ele>
        <time>2020-09-19T11:27:33Z</time>
      </trkpt>
      <trkpt lat="45.57145" lon="6.07094">
        <ele>1495.483</ele>
        <time>2020-09-19T11:27:33Z</time>
      </trkpt>
      <trkpt lat="45.57143" lon="6.07094">
        <ele>1495.608</ele>
        <time>2020-09-19T11:27:34Z</time>
      </trkpt>
      <trkpt lat="45.57142" lon="6.07094">
        <ele>1495.693</ele>
        <time>2020-09-19T11:27:36Z</time>
      </trkpt>
      <trkpt lat="45.57142" lon="6.07093">
        <ele>1495.641</ele>
        <time>2020-09-19T11:27:37Z</time>
      </trkpt>
      <trkpt lat="45.57142" lon="6.07093">
        <ele>1495.978</ele>
        <time>2020-09-19T11:27:38Z</time>
      </trkpt>
      <trkpt lat="45.57142" lon="6.07093">
        <ele>1495.978</ele>
        <time>2020-09-19T11:27:38Z</time>
      </trkpt>
      <trkpt lat="45.57141" lon="6.07091">
        <ele>1495.329</ele>
        <time>2020-09-19T11:27:39Z</time>
      </trkpt>
      <trkpt lat="45.5714" lon="6.07088">
        <ele>1495.715</ele>
        <time>2020-09-19T11:27:41Z</time>
      </trkpt>
      <trkpt lat="45.57138" lon="6.07084">
        <ele>1496.466</ele>
        <time>2020-09-19T11:27:44Z</time>
      </trkpt>
      <trkpt lat="45.57138" lon="6.07082">
        <ele>1496.444</ele>
        <time>2020-09-19T11:27:45Z</time>
      </trkpt>
      <trkpt lat="45.57137" lon="6.07081">
        <ele>1497.081</ele>
        <time>2020-09-19T11:27:46Z</time>
      </trkpt>
      <trkpt lat="45.57137" lon="6.07081">
        <ele>1497.43</ele>
        <time>2020-09-19T11:27:47Z</time>
      </trkpt>
      <trkpt lat="45.57136" lon="6.07079">
        <ele>1497.765</ele>
        <time>2020-09-19T11:27:49Z</time>
      </trkpt>
      <trkpt lat="45.57135" lon="6.07078">
        <ele>1497.888</ele>
        <time>2020-09-19T11:27:51Z</time>
      </trkpt>
      <trkpt lat="45.57135" lon="6.07078">
        <ele>1497.888</ele>
        <time>2020-09-19T11:27:51Z</time>
      </trkpt>
      <trkpt lat="45.57135" lon="6.07076">
        <ele>1497.986</ele>
        <time>2020-09-19T11:27:52Z</time>
      </trkpt>
      <trkpt lat="45.57135" lon="6.07076">
        <ele>1498.503</ele>
        <time>2020-09-19T11:27:53Z</time>
      </trkpt>
      <trkpt lat="45.57135" lon="6.07076">
        <ele>1498.715</ele>
        <time>2020-09-19T11:27:54Z</time>
      </trkpt>
      <trkpt lat="45.57135" lon="6.07074">
        <ele>1499.284</ele>
        <time>2020-09-19T11:27:55Z</time>
      </trkpt>
      <trkpt lat="45.57135" lon="6.07072">
        <ele>1499.223</ele>
        <time>2020-09-19T11:27:57Z</time>
      </trkpt>
      <trkpt lat="45.57133" lon="6.07071">
        <ele>1499.33</ele>
        <time>2020-09-19T11:27:59Z</time>
      </trkpt>
      <trkpt lat="45.57132" lon="6.07069">
        <ele>1499.587</ele>
        <time>2020-09-19T11:28:02Z</time>
      </trkpt>
      <trkpt lat="45.5713" lon="6.07067">
        <ele>1500.081</ele>
        <time>2020-09-19T11:28:07Z</time>
      </trkpt>
      <trkpt lat="45.5713" lon="6.07067">
        <ele>1500.375</ele>
        <time>2020-09-19T11:28:09Z</time>
      </trkpt>
      <trkpt lat="45.5713" lon="6.07067">
        <ele>1500.375</ele>
        <time>2020-09-19T11:28:09Z</time>
      </trkpt>
      <trkpt lat="45.5713" lon="6.07067">
        <ele>1500.483</ele>
        <time>2020-09-19T11:28:10Z</time>
      </trkpt>
      <trkpt lat="45.5713" lon="6.07065">
        <ele>1500.263</ele>
        <time>2020-09-19T11:28:15Z</time>
      </trkpt>
      <trkpt lat="45.57132" lon="6.07063">
        <ele>1500.118</ele>
        <time>2020-09-19T11:28:18Z</time>
      </trkpt>
      <trkpt lat="45.57132" lon="6.07062">
        <ele>1500.116</ele>
        <time>2020-09-19T11:28:19Z</time>
      </trkpt>
      <trkpt lat="45.57131" lon="6.07061">
        <ele>1500.343</ele>
        <time>2020-09-19T11:28:21Z</time>
      </trkpt>
      <trkpt lat="45.57131" lon="6.07061">
        <ele>1501.022</ele>
        <time>2020-09-19T11:28:24Z</time>
      </trkpt>
      <trkpt lat="45.57131" lon="6.07061">
        <ele>1500.773</ele>
        <time>2020-09-19T11:28:25Z</time>
      </trkpt>
      <trkpt lat="45.57131" lon="6.07061">
        <ele>1500.773</ele>
        <time>2020-09-19T11:28:25Z</time>
      </trkpt>
      <trkpt lat="45.57131" lon="6.07061">
        <ele>1502.136</ele>
        <time>2020-09-19T11:28:26Z</time>
      </trkpt>
      <trkpt lat="45.57132" lon="6.07059">
        <ele>1502.803</ele>
        <time>2020-09-19T11:28:28Z</time>
      </trkpt>
      <trkpt lat="45.57131" lon="6.07057">
        <ele>1502.93</ele>
        <time>2020-09-19T11:28:30Z</time>
      </trkpt>
      <trkpt lat="45.57132" lon="6.07053">
        <ele>1503.863</ele>
        <time>2020-09-19T11:28:33Z</time>
      </trkpt>
      <trkpt lat="45.57132" lon="6.07048">
        <ele>1503.644</ele>
        <time>2020-09-19T11:28:37Z</time>
      </trkpt>
      <trkpt lat="45.57131" lon="6.07046">
        <ele>1503.72</ele>
        <time>2020-09-19T11:28:38Z</time>
      </trkpt>
      <trkpt lat="45.5713" lon="6.07043">
        <ele>1503.661</ele>
        <time>2020-09-19T11:28:42Z</time>
      </trkpt>
      <trkpt lat="45.5713" lon="6.07043">
        <ele>1503.661</ele>
        <time>2020-09-19T11:28:42Z</time>
      </trkpt>
      <trkpt lat="45.5713" lon="6.07043">
        <ele>1504.043</ele>
        <time>2020-09-19T11:28:43Z</time>
      </trkpt>
      <trkpt lat="45.5713" lon="6.07043">
        <ele>1504.165</ele>
        <time>2020-09-19T11:28:44Z</time>
      </trkpt>
      <trkpt lat="45.57132" lon="6.07044">
        <ele>1504.186</ele>
        <time>2020-09-19T11:28:46Z</time>
      </trkpt>
      <trkpt lat="45.57132" lon="6.07046">
        <ele>1504.605</ele>
        <time>2020-09-19T11:28:48Z</time>
      </trkpt>
      <trkpt lat="45.57132" lon="6.07046">
        <ele>1505.161</ele>
        <time>2020-09-19T11:28:50Z</time>
      </trkpt>
      <trkpt lat="45.57132" lon="6.07046">
        <ele>1505.161</ele>
        <time>2020-09-19T11:28:50Z</time>
      </trkpt>
      <trkpt lat="45.57133" lon="6.07047">
        <ele>1505.539</ele>
        <time>2020-09-19T11:28:51Z</time>
      </trkpt>
      <trkpt lat="45.57133" lon="6.07047">
        <ele>1505.473</ele>
        <time>2020-09-19T11:28:52Z</time>
      </trkpt>
      <trkpt lat="45.57133" lon="6.07047">
        <ele>1505.292</ele>
        <time>2020-09-19T11:28:53Z</time>
      </trkpt>
      <trkpt lat="45.57133" lon="6.07047">
        <ele>1505.297</ele>
        <time>2020-09-19T11:28:54Z</time>
      </trkpt>
      <trkpt lat="45.57133" lon="6.07047">
        <ele>1505.549</ele>
        <time>2020-09-19T11:28:55Z</time>
      </trkpt>
      <trkpt lat="45.57133" lon="6.07047">
        <ele>1505.696</ele>
        <time>2020-09-19T11:28:56Z</time>
      </trkpt>
      <trkpt lat="45.57133" lon="6.07047">
        <ele>1505.089</ele>
        <time>2020-09-19T11:29:36Z</time>
      </trkpt>
      <trkpt lat="45.57131" lon="6.07047">
        <ele>1505.777</ele>
        <time>2020-09-19T11:29:37Z</time>
      </trkpt>
      <trkpt lat="45.5713" lon="6.07047">
        <ele>1506.787</ele>
        <time>2020-09-19T11:29:39Z</time>
      </trkpt>
      <trkpt lat="45.5713" lon="6.07047">
        <ele>1506.787</ele>
        <time>2020-09-19T11:29:39Z</time>
      </trkpt>
      <trkpt lat="45.5713" lon="6.07047">
        <ele>1507.75</ele>
        <time>2020-09-19T11:29:40Z</time>
      </trkpt>
      <trkpt lat="45.5713" lon="6.07047">
        <ele>1513.976</ele>
        <time>2020-09-19T11:30:25Z</time>
      </trkpt>
      <trkpt lat="45.57128" lon="6.07043">
        <ele>1514.23</ele>
        <time>2020-09-19T11:30:26Z</time>
      </trkpt>
      <trkpt lat="45.57127" lon="6.07043">
        <ele>1513.713</ele>
        <time>2020-09-19T11:30:27Z</time>
      </trkpt>
      <trkpt lat="45.57127" lon="6.07042">
        <ele>1513.866</ele>
        <time>2020-09-19T11:30:28Z</time>
      </trkpt>
      <trkpt lat="45.57126" lon="6.07042">
        <ele>1514.041</ele>
        <time>2020-09-19T11:30:29Z</time>
      </trkpt>
      <trkpt lat="45.57124" lon="6.07039">
        <ele>1515.625</ele>
        <time>2020-09-19T11:30:33Z</time>
      </trkpt>
      <trkpt lat="45.57123" lon="6.07038">
        <ele>1515.714</ele>
        <time>2020-09-19T11:30:34Z</time>
      </trkpt>
      <trkpt lat="45.57122" lon="6.07035">
        <ele>1518.035</ele>
        <time>2020-09-19T11:30:37Z</time>
      </trkpt>
      <trkpt lat="45.57121" lon="6.07031">
        <ele>1517.115</ele>
        <time>2020-09-19T11:30:42Z</time>
      </trkpt>
      <trkpt lat="45.5712" lon="6.07033">
        <ele>1518.095</ele>
        <time>2020-09-19T11:30:44Z</time>
      </trkpt>
      <trkpt lat="45.5712" lon="6.07032">
        <ele>1518.122</ele>
        <time>2020-09-19T11:30:45Z</time>
      </trkpt>
      <trkpt lat="45.57119" lon="6.07028">
        <ele>1517.361</ele>
        <time>2020-09-19T11:30:48Z</time>
      </trkpt>
      <trkpt lat="45.57118" lon="6.07024">
        <ele>1517.695</ele>
        <time>2020-09-19T11:30:51Z</time>
      </trkpt>
      <trkpt lat="45.57116" lon="6.07023">
        <ele>1517.779</ele>
        <time>2020-09-19T11:30:54Z</time>
      </trkpt>
      <trkpt lat="45.57115" lon="6.07022">
        <ele>1517.994</ele>
        <time>2020-09-19T11:30:55Z</time>
      </trkpt>
      <trkpt lat="45.57113" lon="6.07019">
        <ele>1519.037</ele>
        <time>2020-09-19T11:30:57Z</time>
      </trkpt>
      <trkpt lat="45.57106" lon="6.07009">
        <ele>1520.027</ele>
        <time>2020-09-19T11:31:04Z</time>
      </trkpt>
      <trkpt lat="45.57105" lon="6.07008">
        <ele>1520.079</ele>
        <time>2020-09-19T11:31:05Z</time>
      </trkpt>
      <trkpt lat="45.57101" lon="6.07002">
        <ele>1520.983</ele>
        <time>2020-09-19T11:31:10Z</time>
      </trkpt>
      <trkpt lat="45.57099" lon="6.06999">
        <ele>1522.024</ele>
        <time>2020-09-19T11:31:14Z</time>
      </trkpt>
      <trkpt lat="45.57098" lon="6.06999">
        <ele>1522.257</ele>
        <time>2020-09-19T11:31:16Z</time>
      </trkpt>
      <trkpt lat="45.57097" lon="6.06999">
        <ele>1522.706</ele>
        <time>2020-09-19T11:31:18Z</time>
      </trkpt>
      <trkpt lat="45.57094" lon="6.06996">
        <ele>1523.57</ele>
        <time>2020-09-19T11:31:26Z</time>
      </trkpt>
      <trkpt lat="45.57093" lon="6.06996">
        <ele>1523.789</ele>
        <time>2020-09-19T11:31:28Z</time>
      </trkpt>
      <trkpt lat="45.57093" lon="6.06997">
        <ele>1523.804</ele>
        <time>2020-09-19T11:31:29Z</time>
      </trkpt>
      <trkpt lat="45.57093" lon="6.06997">
        <ele>1523.804</ele>
        <time>2020-09-19T11:31:29Z</time>
      </trkpt>
      <trkpt lat="45.57093" lon="6.06997">
        <ele>1524.361</ele>
        <time>2020-09-19T11:31:30Z</time>
      </trkpt>
      <trkpt lat="45.57092" lon="6.06998">
        <ele>1523.972</ele>
        <time>2020-09-19T11:31:32Z</time>
      </trkpt>
      <trkpt lat="45.57092" lon="6.06998">
        <ele>1524.03</ele>
        <time>2020-09-19T11:31:33Z</time>
      </trkpt>
      <trkpt lat="45.57089" lon="6.06996">
        <ele>1524.181</ele>
        <time>2020-09-19T11:31:35Z</time>
      </trkpt>
      <trkpt lat="45.57084" lon="6.06988">
        <ele>1523.618</ele>
        <time>2020-09-19T11:31:39Z</time>
      </trkpt>
      <trkpt lat="45.5708" lon="6.06987">
        <ele>1523.005</ele>
        <time>2020-09-19T11:31:43Z</time>
      </trkpt>
      <trkpt lat="45.57078" lon="6.06985">
        <ele>1522.394</ele>
        <time>2020-09-19T11:31:48Z</time>
      </trkpt>
      <trkpt lat="45.57078" lon="6.06984">
        <ele>1522.351</ele>
        <time>2020-09-19T11:31:51Z</time>
      </trkpt>
      <trkpt lat="45.57076" lon="6.06983">
        <ele>1523.12</ele>
        <time>2020-09-19T11:31:54Z</time>
      </trkpt>
      <trkpt lat="45.57072" lon="6.06978">
        <ele>1523.777</ele>
        <time>2020-09-19T11:31:59Z</time>
      </trkpt>
      <trkpt lat="45.57072" lon="6.06978">
        <ele>1523.8</ele>
        <time>2020-09-19T11:32:00Z</time>
      </trkpt>
      <trkpt lat="45.57072" lon="6.06978">
        <ele>1523.8</ele>
        <time>2020-09-19T11:32:00Z</time>
      </trkpt>
      <trkpt lat="45.57071" lon="6.06977">
        <ele>1523.729</ele>
        <time>2020-09-19T11:32:01Z</time>
      </trkpt>
      <trkpt lat="45.5707" lon="6.06976">
        <ele>1523.714</ele>
        <time>2020-09-19T11:32:03Z</time>
      </trkpt>
      <trkpt lat="45.57067" lon="6.06974">
        <ele>1524.158</ele>
        <time>2020-09-19T11:32:06Z</time>
      </trkpt>
      <trkpt lat="45.57066" lon="6.06972">
        <ele>1524.314</ele>
        <time>2020-09-19T11:32:08Z</time>
      </trkpt>
      <trkpt lat="45.57065" lon="6.06968">
        <ele>1524.95</ele>
        <time>2020-09-19T11:32:12Z</time>
      </trkpt>
      <trkpt lat="45.57064" lon="6.06967">
        <ele>1525.022</ele>
        <time>2020-09-19T11:32:13Z</time>
      </trkpt>
      <trkpt lat="45.57063" lon="6.06966">
        <ele>1525.17</ele>
        <time>2020-09-19T11:32:14Z</time>
      </trkpt>
      <trkpt lat="45.57062" lon="6.06966">
        <ele>1525.48</ele>
        <time>2020-09-19T11:32:15Z</time>
      </trkpt>
      <trkpt lat="45.57062" lon="6.06966">
        <ele>1525.213</ele>
        <time>2020-09-19T11:32:16Z</time>
      </trkpt>
      <trkpt lat="45.57062" lon="6.06968">
        <ele>1525.306</ele>
        <time>2020-09-19T11:32:17Z</time>
      </trkpt>
      <trkpt lat="45.57062" lon="6.0697">
        <ele>1525.314</ele>
        <time>2020-09-19T11:32:18Z</time>
      </trkpt>
      <trkpt lat="45.57062" lon="6.0697">
        <ele>1525.395</ele>
        <time>2020-09-19T11:32:19Z</time>
      </trkpt>
      <trkpt lat="45.57062" lon="6.0697">
        <ele>1525.395</ele>
        <time>2020-09-19T11:32:19Z</time>
      </trkpt>
      <trkpt lat="45.57062" lon="6.06971">
        <ele>1525.626</ele>
        <time>2020-09-19T11:32:20Z</time>
      </trkpt>
      <trkpt lat="45.57061" lon="6.06969">
        <ele>1525.423</ele>
        <time>2020-09-19T11:32:25Z</time>
      </trkpt>
      <trkpt lat="45.57061" lon="6.06969">
        <ele>1525.219</ele>
        <time>2020-09-19T11:32:26Z</time>
      </trkpt>
      <trkpt lat="45.57061" lon="6.06968">
        <ele>1524.982</ele>
        <time>2020-09-19T11:32:29Z</time>
      </trkpt>
      <trkpt lat="45.57059" lon="6.06967">
        <ele>1525.097</ele>
        <time>2020-09-19T11:32:32Z</time>
      </trkpt>
      <trkpt lat="45.57054" lon="6.06966">
        <ele>1526.013</ele>
        <time>2020-09-19T11:32:35Z</time>
      </trkpt>
      <trkpt lat="45.57053" lon="6.06961">
        <ele>1526.261</ele>
        <time>2020-09-19T11:32:40Z</time>
      </trkpt>
      <trkpt lat="45.5705" lon="6.06954">
        <ele>1526.003</ele>
        <time>2020-09-19T11:32:43Z</time>
      </trkpt>
      <trkpt lat="45.57047" lon="6.06951">
        <ele>1526.165</ele>
        <time>2020-09-19T11:32:45Z</time>
      </trkpt>
      <trkpt lat="45.57043" lon="6.06947">
        <ele>1526.65</ele>
        <time>2020-09-19T11:32:50Z</time>
      </trkpt>
      <trkpt lat="45.57043" lon="6.06947">
        <ele>1526.65</ele>
        <time>2020-09-19T11:32:50Z</time>
      </trkpt>
      <trkpt lat="45.57043" lon="6.06946">
        <ele>1527.176</ele>
        <time>2020-09-19T11:32:51Z</time>
      </trkpt>
      <trkpt lat="45.57041" lon="6.06945">
        <ele>1526.954</ele>
        <time>2020-09-19T11:32:53Z</time>
      </trkpt>
      <trkpt lat="45.5704" lon="6.06944">
        <ele>1526.915</ele>
        <time>2020-09-19T11:32:55Z</time>
      </trkpt>
      <trkpt lat="45.5704" lon="6.06945">
        <ele>1526.929</ele>
        <time>2020-09-19T11:32:56Z</time>
      </trkpt>
      <trkpt lat="45.57038" lon="6.06943">
        <ele>1526.789</ele>
        <time>2020-09-19T11:32:58Z</time>
      </trkpt>
      <trkpt lat="45.57033" lon="6.06939">
        <ele>1526.876</ele>
        <time>2020-09-19T11:33:03Z</time>
      </trkpt>
      <trkpt lat="45.57033" lon="6.06939">
        <ele>1526.748</ele>
        <time>2020-09-19T11:33:04Z</time>
      </trkpt>
      <trkpt lat="45.57033" lon="6.06939">
        <ele>1526.748</ele>
        <time>2020-09-19T11:33:04Z</time>
      </trkpt>
      <trkpt lat="45.57033" lon="6.06937">
        <ele>1526.884</ele>
        <time>2020-09-19T11:33:05Z</time>
      </trkpt>
      <trkpt lat="45.57033" lon="6.06937">
        <ele>1526.884</ele>
        <time>2020-09-19T11:33:05Z</time>
      </trkpt>
      <trkpt lat="45.57033" lon="6.06937">
        <ele>1526.76</ele>
        <time>2020-09-19T11:33:06Z</time>
      </trkpt>
      <trkpt lat="45.57033" lon="6.06937">
        <ele>1526.831</ele>
        <time>2020-09-19T11:33:07Z</time>
      </trkpt>
      <trkpt lat="45.57033" lon="6.06937">
        <ele>1526.764</ele>
        <time>2020-09-19T11:33:08Z</time>
      </trkpt>
      <trkpt lat="45.57033" lon="6.06936">
        <ele>1526.577</ele>
        <time>2020-09-19T11:33:09Z</time>
      </trkpt>
      <trkpt lat="45.57033" lon="6.06936">
        <ele>1527.282</ele>
        <time>2020-09-19T11:33:11Z</time>
      </trkpt>
      <trkpt lat="45.57033" lon="6.06936">
        <ele>1527.286</ele>
        <time>2020-09-19T11:33:12Z</time>
      </trkpt>
      <trkpt lat="45.57032" lon="6.06936">
        <ele>1527.486</ele>
        <time>2020-09-19T11:33:13Z</time>
      </trkpt>
      <trkpt lat="45.57031" lon="6.06933">
        <ele>1528.586</ele>
        <time>2020-09-19T11:33:16Z</time>
      </trkpt>
      <trkpt lat="45.57031" lon="6.06933">
        <ele>1528.965</ele>
        <time>2020-09-19T11:33:17Z</time>
      </trkpt>
      <trkpt lat="45.57031" lon="6.06933">
        <ele>1528.965</ele>
        <time>2020-09-19T11:33:17Z</time>
      </trkpt>
      <trkpt lat="45.57031" lon="6.06933">
        <ele>1529.006</ele>
        <time>2020-09-19T11:33:18Z</time>
      </trkpt>
      <trkpt lat="45.57031" lon="6.06933">
        <ele>1528.402</ele>
        <time>2020-09-19T11:33:19Z</time>
      </trkpt>
      <trkpt lat="45.57031" lon="6.06933">
        <ele>1528.402</ele>
        <time>2020-09-19T11:33:19Z</time>
      </trkpt>
      <trkpt lat="45.5703" lon="6.06933">
        <ele>1528.539</ele>
        <time>2020-09-19T11:33:20Z</time>
      </trkpt>
      <trkpt lat="45.5703" lon="6.06932">
        <ele>1528.978</ele>
        <time>2020-09-19T11:33:21Z</time>
      </trkpt>
      <trkpt lat="45.57029" lon="6.06928">
        <ele>1528.892</ele>
        <time>2020-09-19T11:33:24Z</time>
      </trkpt>
      <trkpt lat="45.57027" lon="6.06928">
        <ele>1528.627</ele>
        <time>2020-09-19T11:33:27Z</time>
      </trkpt>
      <trkpt lat="45.57027" lon="6.06928">
        <ele>1527.709</ele>
        <time>2020-09-19T11:33:28Z</time>
      </trkpt>
      <trkpt lat="45.57027" lon="6.06928">
        <ele>1527.546</ele>
        <time>2020-09-19T11:33:29Z</time>
      </trkpt>
      <trkpt lat="45.57027" lon="6.06928">
        <ele>1528.859</ele>
        <time>2020-09-19T11:33:30Z</time>
      </trkpt>
      <trkpt lat="45.57027" lon="6.06927">
        <ele>1529.663</ele>
        <time>2020-09-19T11:33:33Z</time>
      </trkpt>
      <trkpt lat="45.57027" lon="6.06927">
        <ele>1529.302</ele>
        <time>2020-09-19T11:33:36Z</time>
      </trkpt>
      <trkpt lat="45.57024" lon="6.06927">
        <ele>1529.279</ele>
        <time>2020-09-19T11:33:37Z</time>
      </trkpt>
      <trkpt lat="45.57023" lon="6.06927">
        <ele>1528.744</ele>
        <time>2020-09-19T11:33:38Z</time>
      </trkpt>
      <trkpt lat="45.57023" lon="6.06927">
        <ele>1528.663</ele>
        <time>2020-09-19T11:33:39Z</time>
      </trkpt>
      <trkpt lat="45.57022" lon="6.06928">
        <ele>1528.517</ele>
        <time>2020-09-19T11:33:40Z</time>
      </trkpt>
      <trkpt lat="45.57022" lon="6.06928">
        <ele>1528.517</ele>
        <time>2020-09-19T11:33:40Z</time>
      </trkpt>
      <trkpt lat="45.57022" lon="6.06928">
        <ele>1528.176</ele>
        <time>2020-09-19T11:33:41Z</time>
      </trkpt>
      <trkpt lat="45.57022" lon="6.06928">
        <ele>1527.783</ele>
        <time>2020-09-19T11:33:42Z</time>
      </trkpt>
      <trkpt lat="45.57022" lon="6.06928">
        <ele>1527.783</ele>
        <time>2020-09-19T11:33:42Z</time>
      </trkpt>
      <trkpt lat="45.57022" lon="6.06927">
        <ele>1527.41</ele>
        <time>2020-09-19T11:33:43Z</time>
      </trkpt>
      <trkpt lat="45.57022" lon="6.06926">
        <ele>1528.968</ele>
        <time>2020-09-19T11:33:45Z</time>
      </trkpt>
      <trkpt lat="45.57022" lon="6.06925">
        <ele>1529.552</ele>
        <time>2020-09-19T11:33:46Z</time>
      </trkpt>
      <trkpt lat="45.57022" lon="6.06925">
        <ele>1529.755</ele>
        <time>2020-09-19T11:33:47Z</time>
      </trkpt>
      <trkpt lat="45.57022" lon="6.06925">
        <ele>1529.44</ele>
        <time>2020-09-19T11:33:48Z</time>
      </trkpt>
      <trkpt lat="45.57022" lon="6.06924">
        <ele>1529.052</ele>
        <time>2020-09-19T11:33:49Z</time>
      </trkpt>
      <trkpt lat="45.57022" lon="6.06924">
        <ele>1528.681</ele>
        <time>2020-09-19T11:33:50Z</time>
      </trkpt>
      <trkpt lat="45.57022" lon="6.06924">
        <ele>1528.27</ele>
        <time>2020-09-19T11:33:51Z</time>
      </trkpt>
      <trkpt lat="45.57021" lon="6.06922">
        <ele>1529.445</ele>
        <time>2020-09-19T11:33:54Z</time>
      </trkpt>
      <trkpt lat="45.57018" lon="6.06919">
        <ele>1530.158</ele>
        <time>2020-09-19T11:33:58Z</time>
      </trkpt>
      <trkpt lat="45.57018" lon="6.06917">
        <ele>1530.003</ele>
        <time>2020-09-19T11:34:00Z</time>
      </trkpt>
      <trkpt lat="45.5702" lon="6.06914">
        <ele>1528.805</ele>
        <time>2020-09-19T11:34:03Z</time>
      </trkpt>
      <trkpt lat="45.5702" lon="6.06915">
        <ele>1528.628</ele>
        <time>2020-09-19T11:34:13Z</time>
      </trkpt>
      <trkpt lat="45.5702" lon="6.06915">
        <ele>1527.983</ele>
        <time>2020-09-19T11:34:14Z</time>
      </trkpt>
      <trkpt lat="45.5702" lon="6.06915">
        <ele>1527.983</ele>
        <time>2020-09-19T11:34:14Z</time>
      </trkpt>
      <trkpt lat="45.5702" lon="6.06914">
        <ele>1527.729</ele>
        <time>2020-09-19T11:34:15Z</time>
      </trkpt>
      <trkpt lat="45.57019" lon="6.06915">
        <ele>1526.853</ele>
        <time>2020-09-19T11:34:17Z</time>
      </trkpt>
      <trkpt lat="45.57019" lon="6.06915">
        <ele>1526.209</ele>
        <time>2020-09-19T11:34:18Z</time>
      </trkpt>
      <trkpt lat="45.57016" lon="6.06912">
        <ele>1526.817</ele>
        <time>2020-09-19T11:34:21Z</time>
      </trkpt>
      <trkpt lat="45.57015" lon="6.0691">
        <ele>1526.912</ele>
        <time>2020-09-19T11:34:23Z</time>
      </trkpt>
      <trkpt lat="45.57013" lon="6.06908">
        <ele>1527.58</ele>
        <time>2020-09-19T11:34:28Z</time>
      </trkpt>
      <trkpt lat="45.57012" lon="6.06908">
        <ele>1527.719</ele>
        <time>2020-09-19T11:34:30Z</time>
      </trkpt>
      <trkpt lat="45.57012" lon="6.06908">
        <ele>1527.719</ele>
        <time>2020-09-19T11:34:30Z</time>
      </trkpt>
      <trkpt lat="45.57012" lon="6.06908">
        <ele>1527.492</ele>
        <time>2020-09-19T11:34:31Z</time>
      </trkpt>
      <trkpt lat="45.5701" lon="6.06906">
        <ele>1529.015</ele>
        <time>2020-09-19T11:34:35Z</time>
      </trkpt>
      <trkpt lat="45.57009" lon="6.06905">
        <ele>1529.387</ele>
        <time>2020-09-19T11:34:37Z</time>
      </trkpt>
      <trkpt lat="45.57009" lon="6.06905">
        <ele>1529.387</ele>
        <time>2020-09-19T11:34:37Z</time>
      </trkpt>
      <trkpt lat="45.57009" lon="6.06904">
        <ele>1529.62</ele>
        <time>2020-09-19T11:34:38Z</time>
      </trkpt>
      <trkpt lat="45.57007" lon="6.06901">
        <ele>1531.41</ele>
        <time>2020-09-19T11:34:42Z</time>
      </trkpt>
      <trkpt lat="45.57006" lon="6.069">
        <ele>1531.189</ele>
        <time>2020-09-19T11:34:43Z</time>
      </trkpt>
      <trkpt lat="45.57005" lon="6.069">
        <ele>1531.683</ele>
        <time>2020-09-19T11:34:44Z</time>
      </trkpt>
      <trkpt lat="45.57003" lon="6.06896">
        <ele>1531.575</ele>
        <time>2020-09-19T11:34:48Z</time>
      </trkpt>
      <trkpt lat="45.57002" lon="6.06894">
        <ele>1531.776</ele>
        <time>2020-09-19T11:34:52Z</time>
      </trkpt>
      <trkpt lat="45.57002" lon="6.06892">
        <ele>1532.816</ele>
        <time>2020-09-19T11:34:56Z</time>
      </trkpt>
      <trkpt lat="45.57002" lon="6.06892">
        <ele>1532.816</ele>
        <time>2020-09-19T11:34:56Z</time>
      </trkpt>
      <trkpt lat="45.57003" lon="6.06892">
        <ele>1532.08</ele>
        <time>2020-09-19T11:34:57Z</time>
      </trkpt>
      <trkpt lat="45.57003" lon="6.06891">
        <ele>1531.971</ele>
        <time>2020-09-19T11:34:58Z</time>
      </trkpt>
      <trkpt lat="45.57003" lon="6.06891">
        <ele>1532.411</ele>
        <time>2020-09-19T11:34:59Z</time>
      </trkpt>
      <trkpt lat="45.57003" lon="6.0689">
        <ele>1532.422</ele>
        <time>2020-09-19T11:35:00Z</time>
      </trkpt>
      <trkpt lat="45.57002" lon="6.06889">
        <ele>1533.995</ele>
        <time>2020-09-19T11:35:03Z</time>
      </trkpt>
      <trkpt lat="45.57" lon="6.06889">
        <ele>1534.854</ele>
        <time>2020-09-19T11:35:06Z</time>
      </trkpt>
      <trkpt lat="45.57" lon="6.06889">
        <ele>1535.346</ele>
        <time>2020-09-19T11:35:11Z</time>
      </trkpt>
      <trkpt lat="45.56999" lon="6.0689">
        <ele>1535.722</ele>
        <time>2020-09-19T11:35:13Z</time>
      </trkpt>
      <trkpt lat="45.56999" lon="6.0689">
        <ele>1535.861</ele>
        <time>2020-09-19T11:35:15Z</time>
      </trkpt>
      <trkpt lat="45.56999" lon="6.0689">
        <ele>1535.555</ele>
        <time>2020-09-19T11:35:17Z</time>
      </trkpt>
      <trkpt lat="45.56998" lon="6.06888">
        <ele>1535.97</ele>
        <time>2020-09-19T11:35:18Z</time>
      </trkpt>
      <trkpt lat="45.56996" lon="6.06886">
        <ele>1536.381</ele>
        <time>2020-09-19T11:35:22Z</time>
      </trkpt>
      <trkpt lat="45.56995" lon="6.06884">
        <ele>1536.851</ele>
        <time>2020-09-19T11:35:24Z</time>
      </trkpt>
      <trkpt lat="45.56994" lon="6.06883">
        <ele>1537.387</ele>
        <time>2020-09-19T11:35:25Z</time>
      </trkpt>
      <trkpt lat="45.56994" lon="6.06883">
        <ele>1537.802</ele>
        <time>2020-09-19T11:35:26Z</time>
      </trkpt>
      <trkpt lat="45.56993" lon="6.06883">
        <ele>1537.883</ele>
        <time>2020-09-19T11:35:29Z</time>
      </trkpt>
      <trkpt lat="45.56991" lon="6.06882">
        <ele>1538.206</ele>
        <time>2020-09-19T11:35:31Z</time>
      </trkpt>
      <trkpt lat="45.56984" lon="6.06874">
        <ele>1539.041</ele>
        <time>2020-09-19T11:35:38Z</time>
      </trkpt>
      <trkpt lat="45.56981" lon="6.06871">
        <ele>1539.195</ele>
        <time>2020-09-19T11:35:42Z</time>
      </trkpt>
      <trkpt lat="45.5698" lon="6.0687">
        <ele>1539.775</ele>
        <time>2020-09-19T11:35:45Z</time>
      </trkpt>
      <trkpt lat="45.5698" lon="6.0687">
        <ele>1540.119</ele>
        <time>2020-09-19T11:35:46Z</time>
      </trkpt>
      <trkpt lat="45.5698" lon="6.0687">
        <ele>1540.272</ele>
        <time>2020-09-19T11:35:47Z</time>
      </trkpt>
      <trkpt lat="45.5698" lon="6.0687">
        <ele>1539.851</ele>
        <time>2020-09-19T11:35:48Z</time>
      </trkpt>
      <trkpt lat="45.5698" lon="6.06868">
        <ele>1540.968</ele>
        <time>2020-09-19T11:35:52Z</time>
      </trkpt>
      <trkpt lat="45.56981" lon="6.0687">
        <ele>1540.746</ele>
        <time>2020-09-19T11:35:57Z</time>
      </trkpt>
      <trkpt lat="45.56979" lon="6.06865">
        <ele>1540.781</ele>
        <time>2020-09-19T11:36:02Z</time>
      </trkpt>
      <trkpt lat="45.56979" lon="6.06864">
        <ele>1541.11</ele>
        <time>2020-09-19T11:36:04Z</time>
      </trkpt>
      <trkpt lat="45.56978" lon="6.06865">
        <ele>1541.942</ele>
        <time>2020-09-19T11:36:07Z</time>
      </trkpt>
      <trkpt lat="45.56977" lon="6.06865">
        <ele>1542.333</ele>
        <time>2020-09-19T11:36:09Z</time>
      </trkpt>
      <trkpt lat="45.56977" lon="6.06866">
        <ele>1542.331</ele>
        <time>2020-09-19T11:36:11Z</time>
      </trkpt>
      <trkpt lat="45.56977" lon="6.06866">
        <ele>1542.652</ele>
        <time>2020-09-19T11:36:12Z</time>
      </trkpt>
      <trkpt lat="45.56977" lon="6.06866">
        <ele>1543.418</ele>
        <time>2020-09-19T11:36:13Z</time>
      </trkpt>
      <trkpt lat="45.56975" lon="6.06865">
        <ele>1544.353</ele>
        <time>2020-09-19T11:36:16Z</time>
      </trkpt>
      <trkpt lat="45.56974" lon="6.06865">
        <ele>1543.849</ele>
        <time>2020-09-19T11:36:17Z</time>
      </trkpt>
      <trkpt lat="45.56972" lon="6.06864">
        <ele>1545.566</ele>
        <time>2020-09-19T11:36:21Z</time>
      </trkpt>
      <trkpt lat="45.56972" lon="6.06863">
        <ele>1546.599</ele>
        <time>2020-09-19T11:36:23Z</time>
      </trkpt>
      <trkpt lat="45.56969" lon="6.06862">
        <ele>1548.105</ele>
        <time>2020-09-19T11:36:27Z</time>
      </trkpt>
      <trkpt lat="45.56966" lon="6.06859">
        <ele>1548.464</ele>
        <time>2020-09-19T11:36:30Z</time>
      </trkpt>
      <trkpt lat="45.56965" lon="6.06858">
        <ele>1549.781</ele>
        <time>2020-09-19T11:36:32Z</time>
      </trkpt>
      <trkpt lat="45.56964" lon="6.06857">
        <ele>1549.492</ele>
        <time>2020-09-19T11:36:33Z</time>
      </trkpt>
      <trkpt lat="45.56962" lon="6.06856">
        <ele>1549.681</ele>
        <time>2020-09-19T11:36:39Z</time>
      </trkpt>
      <trkpt lat="45.56962" lon="6.06856">
        <ele>1550.371</ele>
        <time>2020-09-19T11:36:41Z</time>
      </trkpt>
      <trkpt lat="45.56962" lon="6.06857">
        <ele>1550.586</ele>
        <time>2020-09-19T11:36:43Z</time>
      </trkpt>
      <trkpt lat="45.56961" lon="6.06857">
        <ele>1550.545</ele>
        <time>2020-09-19T11:36:44Z</time>
      </trkpt>
      <trkpt lat="45.56961" lon="6.06858">
        <ele>1550.505</ele>
        <time>2020-09-19T11:36:45Z</time>
      </trkpt>
      <trkpt lat="45.5696" lon="6.06859">
        <ele>1550.23</ele>
        <time>2020-09-19T11:36:46Z</time>
      </trkpt>
      <trkpt lat="45.5696" lon="6.06859">
        <ele>1550.263</ele>
        <time>2020-09-19T11:36:47Z</time>
      </trkpt>
      <trkpt lat="45.56957" lon="6.06858">
        <ele>1551.364</ele>
        <time>2020-09-19T11:36:50Z</time>
      </trkpt>
      <trkpt lat="45.56956" lon="6.06859">
        <ele>1551.513</ele>
        <time>2020-09-19T11:36:51Z</time>
      </trkpt>
      <trkpt lat="45.56955" lon="6.06859">
        <ele>1551.987</ele>
        <time>2020-09-19T11:36:52Z</time>
      </trkpt>
      <trkpt lat="45.56953" lon="6.06858">
        <ele>1553.087</ele>
        <time>2020-09-19T11:36:55Z</time>
      </trkpt>
      <trkpt lat="45.56952" lon="6.06857">
        <ele>1553.249</ele>
        <time>2020-09-19T11:36:56Z</time>
      </trkpt>
      <trkpt lat="45.56951" lon="6.06855">
        <ele>1554.089</ele>
        <time>2020-09-19T11:36:58Z</time>
      </trkpt>
      <trkpt lat="45.56947" lon="6.0685">
        <ele>1554.229</ele>
        <time>2020-09-19T11:37:02Z</time>
      </trkpt>
      <trkpt lat="45.56947" lon="6.0685">
        <ele>1554.388</ele>
        <time>2020-09-19T11:37:03Z</time>
      </trkpt>
      <trkpt lat="45.56947" lon="6.06849">
        <ele>1554.133</ele>
        <time>2020-09-19T11:37:04Z</time>
      </trkpt>
      <trkpt lat="45.56945" lon="6.06845">
        <ele>1555.409</ele>
        <time>2020-09-19T11:37:09Z</time>
      </trkpt>
      <trkpt lat="45.56944" lon="6.06844">
        <ele>1555.054</ele>
        <time>2020-09-19T11:37:12Z</time>
      </trkpt>
      <trkpt lat="45.56944" lon="6.06844">
        <ele>1555.054</ele>
        <time>2020-09-19T11:37:12Z</time>
      </trkpt>
      <trkpt lat="45.56944" lon="6.06845">
        <ele>1555.205</ele>
        <time>2020-09-19T11:37:13Z</time>
      </trkpt>
      <trkpt lat="45.56943" lon="6.06845">
        <ele>1555.158</ele>
        <time>2020-09-19T11:37:14Z</time>
      </trkpt>
      <trkpt lat="45.56943" lon="6.06844">
        <ele>1555.719</ele>
        <time>2020-09-19T11:37:16Z</time>
      </trkpt>
      <trkpt lat="45.56943" lon="6.06844">
        <ele>1555.726</ele>
        <time>2020-09-19T11:37:18Z</time>
      </trkpt>
      <trkpt lat="45.56943" lon="6.06843">
        <ele>1555.648</ele>
        <time>2020-09-19T11:37:19Z</time>
      </trkpt>
      <trkpt lat="45.56943" lon="6.06842">
        <ele>1555.621</ele>
        <time>2020-09-19T11:37:20Z</time>
      </trkpt>
      <trkpt lat="45.56942" lon="6.0684">
        <ele>1556.24</ele>
        <time>2020-09-19T11:37:22Z</time>
      </trkpt>
      <trkpt lat="45.56941" lon="6.06839">
        <ele>1556.383</ele>
        <time>2020-09-19T11:37:24Z</time>
      </trkpt>
      <trkpt lat="45.56941" lon="6.06839">
        <ele>1556.383</ele>
        <time>2020-09-19T11:37:24Z</time>
      </trkpt>
      <trkpt lat="45.56941" lon="6.06838">
        <ele>1556.218</ele>
        <time>2020-09-19T11:37:25Z</time>
      </trkpt>
      <trkpt lat="45.56941" lon="6.06837">
        <ele>1556.192</ele>
        <time>2020-09-19T11:37:26Z</time>
      </trkpt>
      <trkpt lat="45.56939" lon="6.06834">
        <ele>1556.345</ele>
        <time>2020-09-19T11:37:31Z</time>
      </trkpt>
      <trkpt lat="45.56939" lon="6.06833">
        <ele>1556.211</ele>
        <time>2020-09-19T11:37:32Z</time>
      </trkpt>
      <trkpt lat="45.56938" lon="6.06832">
        <ele>1556.379</ele>
        <time>2020-09-19T11:37:34Z</time>
      </trkpt>
      <trkpt lat="45.56938" lon="6.06832">
        <ele>1556.379</ele>
        <time>2020-09-19T11:37:34Z</time>
      </trkpt>
      <trkpt lat="45.56938" lon="6.06831">
        <ele>1556.191</ele>
        <time>2020-09-19T11:37:35Z</time>
      </trkpt>
      <trkpt lat="45.56938" lon="6.06831">
        <ele>1556.444</ele>
        <time>2020-09-19T11:37:36Z</time>
      </trkpt>
      <trkpt lat="45.56935" lon="6.0683">
        <ele>1556.912</ele>
        <time>2020-09-19T11:37:41Z</time>
      </trkpt>
      <trkpt lat="45.56933" lon="6.06828">
        <ele>1558.262</ele>
        <time>2020-09-19T11:37:44Z</time>
      </trkpt>
      <trkpt lat="45.56932" lon="6.06828">
        <ele>1557.998</ele>
        <time>2020-09-19T11:37:45Z</time>
      </trkpt>
      <trkpt lat="45.5693" lon="6.06828">
        <ele>1559.756</ele>
        <time>2020-09-19T11:37:53Z</time>
      </trkpt>
      <trkpt lat="45.56927" lon="6.06827">
        <ele>1559.458</ele>
        <time>2020-09-19T11:37:59Z</time>
      </trkpt>
      <trkpt lat="45.56925" lon="6.06827">
        <ele>1560.604</ele>
        <time>2020-09-19T11:38:02Z</time>
      </trkpt>
      <trkpt lat="45.56924" lon="6.06827">
        <ele>1561.233</ele>
        <time>2020-09-19T11:38:04Z</time>
      </trkpt>
      <trkpt lat="45.56923" lon="6.06827">
        <ele>1561.597</ele>
        <time>2020-09-19T11:38:07Z</time>
      </trkpt>
      <trkpt lat="45.5692" lon="6.06827">
        <ele>1563.169</ele>
        <time>2020-09-19T11:38:12Z</time>
      </trkpt>
      <trkpt lat="45.56917" lon="6.06825">
        <ele>1562.834</ele>
        <time>2020-09-19T11:38:16Z</time>
      </trkpt>
      <trkpt lat="45.56913" lon="6.06824">
        <ele>1564.573</ele>
        <time>2020-09-19T11:38:22Z</time>
      </trkpt>
      <trkpt lat="45.56912" lon="6.06824">
        <ele>1564.721</ele>
        <time>2020-09-19T11:38:25Z</time>
      </trkpt>
      <trkpt lat="45.56912" lon="6.06824">
        <ele>1564.376</ele>
        <time>2020-09-19T11:38:26Z</time>
      </trkpt>
      <trkpt lat="45.56909" lon="6.06823">
        <ele>1565.547</ele>
        <time>2020-09-19T11:38:32Z</time>
      </trkpt>
      <trkpt lat="45.56908" lon="6.06822">
        <ele>1565.374</ele>
        <time>2020-09-19T11:38:33Z</time>
      </trkpt>
      <trkpt lat="45.56905" lon="6.06819">
        <ele>1565.717</ele>
        <time>2020-09-19T11:38:37Z</time>
      </trkpt>
      <trkpt lat="45.56904" lon="6.0682">
        <ele>1564.648</ele>
        <time>2020-09-19T11:38:40Z</time>
      </trkpt>
      <trkpt lat="45.56903" lon="6.0682">
        <ele>1565.027</ele>
        <time>2020-09-19T11:38:42Z</time>
      </trkpt>
      <trkpt lat="45.56901" lon="6.06818">
        <ele>1565.322</ele>
        <time>2020-09-19T11:38:47Z</time>
      </trkpt>
      <trkpt lat="45.56901" lon="6.06818">
        <ele>1565.246</ele>
        <time>2020-09-19T11:38:49Z</time>
      </trkpt>
      <trkpt lat="45.569" lon="6.06818">
        <ele>1565.756</ele>
        <time>2020-09-19T11:38:50Z</time>
      </trkpt>
      <trkpt lat="45.569" lon="6.06819">
        <ele>1565.244</ele>
        <time>2020-09-19T11:38:51Z</time>
      </trkpt>
      <trkpt lat="45.56899" lon="6.06817">
        <ele>1563.839</ele>
        <time>2020-09-19T11:38:57Z</time>
      </trkpt>
      <trkpt lat="45.56897" lon="6.06817">
        <ele>1565.498</ele>
        <time>2020-09-19T11:39:01Z</time>
      </trkpt>
      <trkpt lat="45.56895" lon="6.06818">
        <ele>1567.419</ele>
        <time>2020-09-19T11:39:06Z</time>
      </trkpt>
      <trkpt lat="45.56894" lon="6.06819">
        <ele>1568.897</ele>
        <time>2020-09-19T11:39:11Z</time>
      </trkpt>
      <trkpt lat="45.56894" lon="6.0682">
        <ele>1569.591</ele>
        <time>2020-09-19T11:39:12Z</time>
      </trkpt>
      <trkpt lat="45.56893" lon="6.06821">
        <ele>1570.373</ele>
        <time>2020-09-19T11:39:18Z</time>
      </trkpt>
      <trkpt lat="45.56893" lon="6.06821">
        <ele>1570.658</ele>
        <time>2020-09-19T11:39:19Z</time>
      </trkpt>
      <trkpt lat="45.56892" lon="6.06821">
        <ele>1570.751</ele>
        <time>2020-09-19T11:39:20Z</time>
      </trkpt>
      <trkpt lat="45.5689" lon="6.0682">
        <ele>1571.09</ele>
        <time>2020-09-19T11:39:26Z</time>
      </trkpt>
      <trkpt lat="45.5689" lon="6.0682">
        <ele>1571.896</ele>
        <time>2020-09-19T11:39:36Z</time>
      </trkpt>
      <trkpt lat="45.56889" lon="6.0682">
        <ele>1572.294</ele>
        <time>2020-09-19T11:39:37Z</time>
      </trkpt>
      <trkpt lat="45.56888" lon="6.0682">
        <ele>1572.318</ele>
        <time>2020-09-19T11:39:39Z</time>
      </trkpt>
      <trkpt lat="45.56888" lon="6.06821">
        <ele>1572.055</ele>
        <time>2020-09-19T11:39:41Z</time>
      </trkpt>
      <trkpt lat="45.56888" lon="6.06821">
        <ele>1571.871</ele>
        <time>2020-09-19T11:39:45Z</time>
      </trkpt>
      <trkpt lat="45.56888" lon="6.06821">
        <ele>1571.731</ele>
        <time>2020-09-19T11:39:46Z</time>
      </trkpt>
      <trkpt lat="45.56888" lon="6.06821">
        <ele>1571.78</ele>
        <time>2020-09-19T11:39:47Z</time>
      </trkpt>
      <trkpt lat="45.56886" lon="6.06821">
        <ele>1572.366</ele>
        <time>2020-09-19T11:39:50Z</time>
      </trkpt>
      <trkpt lat="45.56886" lon="6.06821">
        <ele>1572.294</ele>
        <time>2020-09-19T11:39:51Z</time>
      </trkpt>
      <trkpt lat="45.56886" lon="6.06821">
        <ele>1572.319</ele>
        <time>2020-09-19T11:39:52Z</time>
      </trkpt>
      <trkpt lat="45.56886" lon="6.06822">
        <ele>1572.582</ele>
        <time>2020-09-19T11:39:53Z</time>
      </trkpt>
      <trkpt lat="45.56885" lon="6.06822">
        <ele>1573.757</ele>
        <time>2020-09-19T11:39:54Z</time>
      </trkpt>
      <trkpt lat="45.56885" lon="6.06822">
        <ele>1574.132</ele>
        <time>2020-09-19T11:39:55Z</time>
      </trkpt>
      <trkpt lat="45.56885" lon="6.06822">
        <ele>1574.944</ele>
        <time>2020-09-19T11:40:06Z</time>
      </trkpt>
      <trkpt lat="45.56884" lon="6.06821">
        <ele>1575.228</ele>
        <time>2020-09-19T11:40:07Z</time>
      </trkpt>
      <trkpt lat="45.56882" lon="6.0682">
        <ele>1576.608</ele>
        <time>2020-09-19T11:40:11Z</time>
      </trkpt>
      <trkpt lat="45.56881" lon="6.06818">
        <ele>1577.063</ele>
        <time>2020-09-19T11:40:15Z</time>
      </trkpt>
      <trkpt lat="45.5688" lon="6.06817">
        <ele>1577.226</ele>
        <time>2020-09-19T11:40:16Z</time>
      </trkpt>
      <trkpt lat="45.56879" lon="6.06816">
        <ele>1577.598</ele>
        <time>2020-09-19T11:40:17Z</time>
      </trkpt>
      <trkpt lat="45.56879" lon="6.06816">
        <ele>1577.655</ele>
        <time>2020-09-19T11:40:18Z</time>
      </trkpt>
      <trkpt lat="45.56878" lon="6.06815">
        <ele>1577.778</ele>
        <time>2020-09-19T11:40:20Z</time>
      </trkpt>
      <trkpt lat="45.56878" lon="6.06815">
        <ele>1579.451</ele>
        <time>2020-09-19T11:40:22Z</time>
      </trkpt>
      <trkpt lat="45.56878" lon="6.06815">
        <ele>1579.51</ele>
        <time>2020-09-19T11:40:39Z</time>
      </trkpt>
      <trkpt lat="45.56877" lon="6.06815">
        <ele>1578.921</ele>
        <time>2020-09-19T11:40:40Z</time>
      </trkpt>
      <trkpt lat="45.56875" lon="6.06815">
        <ele>1580.515</ele>
        <time>2020-09-19T11:40:44Z</time>
      </trkpt>
      <trkpt lat="45.56872" lon="6.06816">
        <ele>1580.446</ele>
        <time>2020-09-19T11:40:49Z</time>
      </trkpt>
      <trkpt lat="45.56869" lon="6.06814">
        <ele>1581.634</ele>
        <time>2020-09-19T11:40:53Z</time>
      </trkpt>
      <trkpt lat="45.56867" lon="6.06812">
        <ele>1583.137</ele>
        <time>2020-09-19T11:40:56Z</time>
      </trkpt>
      <trkpt lat="45.56867" lon="6.06812">
        <ele>1582.915</ele>
        <time>2020-09-19T11:40:57Z</time>
      </trkpt>
      <trkpt lat="45.56867" lon="6.06812">
        <ele>1582.915</ele>
        <time>2020-09-19T11:40:57Z</time>
      </trkpt>
      <trkpt lat="45.56867" lon="6.06812">
        <ele>1582.503</ele>
        <time>2020-09-19T11:40:58Z</time>
      </trkpt>
      <trkpt lat="45.56867" lon="6.06812">
        <ele>1582.838</ele>
        <time>2020-09-19T11:41:00Z</time>
      </trkpt>
      <trkpt lat="45.56867" lon="6.06813">
        <ele>1583.448</ele>
        <time>2020-09-19T11:41:01Z</time>
      </trkpt>
      <trkpt lat="45.56866" lon="6.06813">
        <ele>1583.564</ele>
        <time>2020-09-19T11:41:02Z</time>
      </trkpt>
      <trkpt lat="45.56866" lon="6.06812">
        <ele>1584.618</ele>
        <time>2020-09-19T11:41:05Z</time>
      </trkpt>
      <trkpt lat="45.56865" lon="6.06812">
        <ele>1584.251</ele>
        <time>2020-09-19T11:41:06Z</time>
      </trkpt>
      <trkpt lat="45.56863" lon="6.06812">
        <ele>1583.873</ele>
        <time>2020-09-19T11:41:10Z</time>
      </trkpt>
      <trkpt lat="45.56862" lon="6.06811">
        <ele>1584.651</ele>
        <time>2020-09-19T11:41:12Z</time>
      </trkpt>
      <trkpt lat="45.56861" lon="6.06811">
        <ele>1584.795</ele>
        <time>2020-09-19T11:41:14Z</time>
      </trkpt>
      <trkpt lat="45.56861" lon="6.06811">
        <ele>1584.795</ele>
        <time>2020-09-19T11:41:14Z</time>
      </trkpt>
      <trkpt lat="45.5686" lon="6.0681">
        <ele>1584.684</ele>
        <time>2020-09-19T11:41:15Z</time>
      </trkpt>
      <trkpt lat="45.5686" lon="6.0681">
        <ele>1584.417</ele>
        <time>2020-09-19T11:41:16Z</time>
      </trkpt>
      <trkpt lat="45.56859" lon="6.06809">
        <ele>1583.847</ele>
        <time>2020-09-19T11:41:17Z</time>
      </trkpt>
      <trkpt lat="45.56856" lon="6.06808">
        <ele>1583.693</ele>
        <time>2020-09-19T11:41:21Z</time>
      </trkpt>
      <trkpt lat="45.56853" lon="6.06808">
        <ele>1583.886</ele>
        <time>2020-09-19T11:41:27Z</time>
      </trkpt>
      <trkpt lat="45.56853" lon="6.06809">
        <ele>1584.103</ele>
        <time>2020-09-19T11:41:28Z</time>
      </trkpt>
      <trkpt lat="45.56853" lon="6.06809">
        <ele>1583.991</ele>
        <time>2020-09-19T11:41:29Z</time>
      </trkpt>
      <trkpt lat="45.56853" lon="6.06809">
        <ele>1583.991</ele>
        <time>2020-09-19T11:41:29Z</time>
      </trkpt>
      <trkpt lat="45.56853" lon="6.06809">
        <ele>1583.586</ele>
        <time>2020-09-19T11:41:30Z</time>
      </trkpt>
      <trkpt lat="45.56853" lon="6.06809">
        <ele>1583.364</ele>
        <time>2020-09-19T11:41:34Z</time>
      </trkpt>
      <trkpt lat="45.56853" lon="6.06809">
        <ele>1583.364</ele>
        <time>2020-09-19T11:41:34Z</time>
      </trkpt>
      <trkpt lat="45.56853" lon="6.06809">
        <ele>1583.078</ele>
        <time>2020-09-19T11:41:35Z</time>
      </trkpt>
      <trkpt lat="45.56853" lon="6.06809">
        <ele>1583.078</ele>
        <time>2020-09-19T11:41:35Z</time>
      </trkpt>
      <trkpt lat="45.56853" lon="6.0681">
        <ele>1583.413</ele>
        <time>2020-09-19T11:41:36Z</time>
      </trkpt>
      <trkpt lat="45.56853" lon="6.06811">
        <ele>1583.63</ele>
        <time>2020-09-19T11:41:38Z</time>
      </trkpt>
      <trkpt lat="45.56853" lon="6.06811">
        <ele>1583.769</ele>
        <time>2020-09-19T11:42:34Z</time>
      </trkpt>
      <trkpt lat="45.56852" lon="6.06814">
        <ele>1583.473</ele>
        <time>2020-09-19T11:42:35Z</time>
      </trkpt>
      <trkpt lat="45.56851" lon="6.06813">
        <ele>1583.073</ele>
        <time>2020-09-19T11:42:37Z</time>
      </trkpt>
      <trkpt lat="45.5685" lon="6.06812">
        <ele>1583.736</ele>
        <time>2020-09-19T11:42:39Z</time>
      </trkpt>
      <trkpt lat="45.5685" lon="6.06812">
        <ele>1583.736</ele>
        <time>2020-09-19T11:42:39Z</time>
      </trkpt>
      <trkpt lat="45.5685" lon="6.06812">
        <ele>1583.862</ele>
        <time>2020-09-19T11:42:40Z</time>
      </trkpt>
      <trkpt lat="45.5685" lon="6.06812">
        <ele>1583.656</ele>
        <time>2020-09-19T11:44:31Z</time>
      </trkpt>
      <trkpt lat="45.56849" lon="6.06809">
        <ele>1583.993</ele>
        <time>2020-09-19T11:44:32Z</time>
      </trkpt>
      <trkpt lat="45.56849" lon="6.06809">
        <ele>1584.499</ele>
        <time>2020-09-19T11:44:33Z</time>
      </trkpt>
      <trkpt lat="45.56849" lon="6.06809">
        <ele>1584.499</ele>
        <time>2020-09-19T11:44:33Z</time>
      </trkpt>
      <trkpt lat="45.56849" lon="6.06809">
        <ele>1585.436</ele>
        <time>2020-09-19T11:44:34Z</time>
      </trkpt>
      <trkpt lat="45.56849" lon="6.06809">
        <ele>1584.982</ele>
        <time>2020-09-19T11:44:35Z</time>
      </trkpt>
      <trkpt lat="45.56849" lon="6.06809">
        <ele>1586.073</ele>
        <time>2020-09-19T11:44:37Z</time>
      </trkpt>
      <trkpt lat="45.56849" lon="6.06811">
        <ele>1586.445</ele>
        <time>2020-09-19T11:44:38Z</time>
      </trkpt>
      <trkpt lat="45.56849" lon="6.06811">
        <ele>1585.741</ele>
        <time>2020-09-19T11:44:39Z</time>
      </trkpt>
      <trkpt lat="45.56849" lon="6.06811">
        <ele>1586.328</ele>
        <time>2020-09-19T11:44:57Z</time>
      </trkpt>
      <trkpt lat="45.56849" lon="6.06813">
        <ele>1586.215</ele>
        <time>2020-09-19T11:44:58Z</time>
      </trkpt>
      <trkpt lat="45.56849" lon="6.06813">
        <ele>1586.209</ele>
        <time>2020-09-19T11:44:59Z</time>
      </trkpt>
      <trkpt lat="45.56849" lon="6.06813">
        <ele>1585.749</ele>
        <time>2020-09-19T11:45:40Z</time>
      </trkpt>
      <trkpt lat="45.56849" lon="6.06815">
        <ele>1585.779</ele>
        <time>2020-09-19T11:45:41Z</time>
      </trkpt>
      <trkpt lat="45.56849" lon="6.06815">
        <ele>1585.746</ele>
        <time>2020-09-19T11:45:42Z</time>
      </trkpt>
      <trkpt lat="45.56849" lon="6.06815">
        <ele>1585.793</ele>
        <time>2020-09-19T11:46:02Z</time>
      </trkpt>
      <trkpt lat="45.56849" lon="6.06815">
        <ele>1585.953</ele>
        <time>2020-09-19T11:46:03Z</time>
      </trkpt>
      <trkpt lat="45.56849" lon="6.06815">
        <ele>1585.953</ele>
        <time>2020-09-19T11:46:03Z</time>
      </trkpt>
      <trkpt lat="45.56849" lon="6.06815">
        <ele>1585.949</ele>
        <time>2020-09-19T11:46:04Z</time>
      </trkpt>
      <trkpt lat="45.56849" lon="6.06815">
        <ele>1585.628</ele>
        <time>2020-09-19T11:46:35Z</time>
      </trkpt>
      <trkpt lat="45.56848" lon="6.06816">
        <ele>1585.772</ele>
        <time>2020-09-19T11:46:36Z</time>
      </trkpt>
      <trkpt lat="45.56845" lon="6.06822">
        <ele>1584.631</ele>
        <time>2020-09-19T11:46:44Z</time>
      </trkpt>
      <trkpt lat="45.56842" lon="6.06824">
        <ele>1585.337</ele>
        <time>2020-09-19T11:46:48Z</time>
      </trkpt>
      <trkpt lat="45.56839" lon="6.06828">
        <ele>1585.212</ele>
        <time>2020-09-19T11:46:52Z</time>
      </trkpt>
      <trkpt lat="45.56837" lon="6.06832">
        <ele>1585.643</ele>
        <time>2020-09-19T11:46:55Z</time>
      </trkpt>
      <trkpt lat="45.56835" lon="6.06835">
        <ele>1585.609</ele>
        <time>2020-09-19T11:46:59Z</time>
      </trkpt>
      <trkpt lat="45.56832" lon="6.06837">
        <ele>1585.764</ele>
        <time>2020-09-19T11:47:03Z</time>
      </trkpt>
      <trkpt lat="45.5683" lon="6.06839">
        <ele>1586.047</ele>
        <time>2020-09-19T11:47:07Z</time>
      </trkpt>
      <trkpt lat="45.56828" lon="6.06844">
        <ele>1586.266</ele>
        <time>2020-09-19T11:47:12Z</time>
      </trkpt>
      <trkpt lat="45.56826" lon="6.06847">
        <ele>1585.69</ele>
        <time>2020-09-19T11:47:16Z</time>
      </trkpt>
      <trkpt lat="45.56825" lon="6.06849">
        <ele>1585.805</ele>
        <time>2020-09-19T11:47:19Z</time>
      </trkpt>
      <trkpt lat="45.56825" lon="6.06851">
        <ele>1586.287</ele>
        <time>2020-09-19T11:47:22Z</time>
      </trkpt>
      <trkpt lat="45.56822" lon="6.06857">
        <ele>1586.992</ele>
        <time>2020-09-19T11:47:30Z</time>
      </trkpt>
      <trkpt lat="45.56821" lon="6.0686">
        <ele>1586.832</ele>
        <time>2020-09-19T11:47:35Z</time>
      </trkpt>
      <trkpt lat="45.5682" lon="6.06862">
        <ele>1586.472</ele>
        <time>2020-09-19T11:47:37Z</time>
      </trkpt>
      <trkpt lat="45.56818" lon="6.06866">
        <ele>1586.952</ele>
        <time>2020-09-19T11:47:43Z</time>
      </trkpt>
      <trkpt lat="45.56817" lon="6.06875">
        <ele>1587.605</ele>
        <time>2020-09-19T11:47:52Z</time>
      </trkpt>
      <trkpt lat="45.56816" lon="6.06877">
        <ele>1586.867</ele>
        <time>2020-09-19T11:47:55Z</time>
      </trkpt>
      <trkpt lat="45.56816" lon="6.06878">
        <ele>1586.982</ele>
        <time>2020-09-19T11:47:56Z</time>
      </trkpt>
      <trkpt lat="45.56813" lon="6.06884">
        <ele>1586.43</ele>
        <time>2020-09-19T11:48:02Z</time>
      </trkpt>
      <trkpt lat="45.56812" lon="6.06887">
        <ele>1586.706</ele>
        <time>2020-09-19T11:48:05Z</time>
      </trkpt>
      <trkpt lat="45.56812" lon="6.06889">
        <ele>1587.023</ele>
        <time>2020-09-19T11:48:07Z</time>
      </trkpt>
      <trkpt lat="45.5681" lon="6.06891">
        <ele>1586.844</ele>
        <time>2020-09-19T11:48:12Z</time>
      </trkpt>
      <trkpt lat="45.5681" lon="6.06893">
        <ele>1586.56</ele>
        <time>2020-09-19T11:48:15Z</time>
      </trkpt>
      <trkpt lat="45.5681" lon="6.06895">
        <ele>1586.723</ele>
        <time>2020-09-19T11:48:17Z</time>
      </trkpt>
      <trkpt lat="45.56809" lon="6.06898">
        <ele>1587.622</ele>
        <time>2020-09-19T11:48:21Z</time>
      </trkpt>
      <trkpt lat="45.56809" lon="6.069">
        <ele>1587.78</ele>
        <time>2020-09-19T11:48:24Z</time>
      </trkpt>
      <trkpt lat="45.56809" lon="6.069">
        <ele>1587.481</ele>
        <time>2020-09-19T11:48:25Z</time>
      </trkpt>
      <trkpt lat="45.56808" lon="6.06903">
        <ele>1588.083</ele>
        <time>2020-09-19T11:48:30Z</time>
      </trkpt>
      <trkpt lat="45.56807" lon="6.06905">
        <ele>1589.202</ele>
        <time>2020-09-19T11:48:33Z</time>
      </trkpt>
      <trkpt lat="45.56802" lon="6.06911">
        <ele>1590.854</ele>
        <time>2020-09-19T11:48:40Z</time>
      </trkpt>
      <trkpt lat="45.56802" lon="6.06912">
        <ele>1591.43</ele>
        <time>2020-09-19T11:48:42Z</time>
      </trkpt>
      <trkpt lat="45.568" lon="6.06915">
        <ele>1593.064</ele>
        <time>2020-09-19T11:48:47Z</time>
      </trkpt>
      <trkpt lat="45.568" lon="6.06915">
        <ele>1592.92</ele>
        <time>2020-09-19T11:48:48Z</time>
      </trkpt>
      <trkpt lat="45.568" lon="6.06915">
        <ele>1593.671</ele>
        <time>2020-09-19T11:48:52Z</time>
      </trkpt>
      <trkpt lat="45.568" lon="6.06916">
        <ele>1593.427</ele>
        <time>2020-09-19T11:48:53Z</time>
      </trkpt>
      <trkpt lat="45.568" lon="6.06917">
        <ele>1594.424</ele>
        <time>2020-09-19T11:48:56Z</time>
      </trkpt>
      <trkpt lat="45.568" lon="6.06918">
        <ele>1594.401</ele>
        <time>2020-09-19T11:48:57Z</time>
      </trkpt>
      <trkpt lat="45.56798" lon="6.06921">
        <ele>1595.308</ele>
        <time>2020-09-19T11:49:02Z</time>
      </trkpt>
      <trkpt lat="45.56795" lon="6.06922">
        <ele>1596.604</ele>
        <time>2020-09-19T11:49:09Z</time>
      </trkpt>
      <trkpt lat="45.56795" lon="6.06922">
        <ele>1596.878</ele>
        <time>2020-09-19T11:49:15Z</time>
      </trkpt>
      <trkpt lat="45.56794" lon="6.06919">
        <ele>1597.344</ele>
        <time>2020-09-19T11:49:16Z</time>
      </trkpt>
      <trkpt lat="45.56792" lon="6.06915">
        <ele>1598.519</ele>
        <time>2020-09-19T11:49:21Z</time>
      </trkpt>
      <trkpt lat="45.5679" lon="6.06912">
        <ele>1600.253</ele>
        <time>2020-09-19T11:49:26Z</time>
      </trkpt>
      <trkpt lat="45.56789" lon="6.0691">
        <ele>1600.897</ele>
        <time>2020-09-19T11:49:30Z</time>
      </trkpt>
      <trkpt lat="45.56788" lon="6.0691">
        <ele>1601.4</ele>
        <time>2020-09-19T11:49:32Z</time>
      </trkpt>
      <trkpt lat="45.56784" lon="6.06911">
        <ele>1601.792</ele>
        <time>2020-09-19T11:49:40Z</time>
      </trkpt>
      <trkpt lat="45.56783" lon="6.06911">
        <ele>1601.355</ele>
        <time>2020-09-19T11:49:42Z</time>
      </trkpt>
      <trkpt lat="45.56781" lon="6.06911">
        <ele>1601.857</ele>
        <time>2020-09-19T11:49:46Z</time>
      </trkpt>
      <trkpt lat="45.56778" lon="6.0691">
        <ele>1602.514</ele>
        <time>2020-09-19T11:49:50Z</time>
      </trkpt>
      <trkpt lat="45.56775" lon="6.06909">
        <ele>1603.456</ele>
        <time>2020-09-19T11:49:55Z</time>
      </trkpt>
      <trkpt lat="45.56774" lon="6.06909">
        <ele>1603.535</ele>
        <time>2020-09-19T11:49:57Z</time>
      </trkpt>
      <trkpt lat="45.56766" lon="6.06906">
        <ele>1604.514</ele>
        <time>2020-09-19T11:50:11Z</time>
      </trkpt>
      <trkpt lat="45.56763" lon="6.06905">
        <ele>1604.408</ele>
        <time>2020-09-19T11:50:17Z</time>
      </trkpt>
      <trkpt lat="45.5676" lon="6.06904">
        <ele>1605.5</ele>
        <time>2020-09-19T11:50:21Z</time>
      </trkpt>
      <trkpt lat="45.56759" lon="6.06904">
        <ele>1605.668</ele>
        <time>2020-09-19T11:50:22Z</time>
      </trkpt>
      <trkpt lat="45.56758" lon="6.06904">
        <ele>1606.218</ele>
        <time>2020-09-19T11:50:27Z</time>
      </trkpt>
      <trkpt lat="45.56755" lon="6.06905">
        <ele>1605.876</ele>
        <time>2020-09-19T11:50:32Z</time>
      </trkpt>
      <trkpt lat="45.56755" lon="6.06905">
        <ele>1605.876</ele>
        <time>2020-09-19T11:50:32Z</time>
      </trkpt>
      <trkpt lat="45.56755" lon="6.06905">
        <ele>1605.92</ele>
        <time>2020-09-19T11:50:33Z</time>
      </trkpt>
      <trkpt lat="45.56754" lon="6.06904">
        <ele>1606.56</ele>
        <time>2020-09-19T11:50:35Z</time>
      </trkpt>
      <trkpt lat="45.56753" lon="6.06904">
        <ele>1606.842</ele>
        <time>2020-09-19T11:50:37Z</time>
      </trkpt>
      <trkpt lat="45.56747" lon="6.069">
        <ele>1609.13</ele>
        <time>2020-09-19T11:50:49Z</time>
      </trkpt>
      <trkpt lat="45.56746" lon="6.069">
        <ele>1609.524</ele>
        <time>2020-09-19T11:50:51Z</time>
      </trkpt>
      <trkpt lat="45.56746" lon="6.069">
        <ele>1611.517</ele>
        <time>2020-09-19T11:52:46Z</time>
      </trkpt>
      <trkpt lat="45.56745" lon="6.06899">
        <ele>1611.975</ele>
        <time>2020-09-19T11:52:47Z</time>
      </trkpt>
      <trkpt lat="45.56744" lon="6.06898">
        <ele>1612.459</ele>
        <time>2020-09-19T11:52:49Z</time>
      </trkpt>
      <trkpt lat="45.56743" lon="6.06896">
        <ele>1613.089</ele>
        <time>2020-09-19T11:52:52Z</time>
      </trkpt>
      <trkpt lat="45.56742" lon="6.06896">
        <ele>1613.163</ele>
        <time>2020-09-19T11:52:54Z</time>
      </trkpt>
      <trkpt lat="45.56742" lon="6.06896">
        <ele>1613.163</ele>
        <time>2020-09-19T11:52:54Z</time>
      </trkpt>
      <trkpt lat="45.56742" lon="6.06896">
        <ele>1613.695</ele>
        <time>2020-09-19T11:52:55Z</time>
      </trkpt>
      <trkpt lat="45.56741" lon="6.06896">
        <ele>1613.995</ele>
        <time>2020-09-19T11:52:57Z</time>
      </trkpt>
      <trkpt lat="45.56737" lon="6.06894">
        <ele>1616.323</ele>
        <time>2020-09-19T11:53:05Z</time>
      </trkpt>
      <trkpt lat="45.56737" lon="6.06893">
        <ele>1617.843</ele>
        <time>2020-09-19T11:53:07Z</time>
      </trkpt>
      <trkpt lat="45.56736" lon="6.06893">
        <ele>1618.389</ele>
        <time>2020-09-19T11:53:08Z</time>
      </trkpt>
      <trkpt lat="45.56736" lon="6.06893">
        <ele>1618.18</ele>
        <time>2020-09-19T11:53:09Z</time>
      </trkpt>
      <trkpt lat="45.56736" lon="6.06893">
        <ele>1618.847</ele>
        <time>2020-09-19T11:53:10Z</time>
      </trkpt>
      <trkpt lat="45.56734" lon="6.06894">
        <ele>1619.381</ele>
        <time>2020-09-19T11:53:15Z</time>
      </trkpt>
      <trkpt lat="45.56733" lon="6.06894">
        <ele>1619.204</ele>
        <time>2020-09-19T11:53:17Z</time>
      </trkpt>
      <trkpt lat="45.56733" lon="6.06894">
        <ele>1618.979</ele>
        <time>2020-09-19T11:53:18Z</time>
      </trkpt>
      <trkpt lat="45.56733" lon="6.06894">
        <ele>1618.979</ele>
        <time>2020-09-19T11:53:18Z</time>
      </trkpt>
      <trkpt lat="45.56733" lon="6.06894">
        <ele>1618.894</ele>
        <time>2020-09-19T11:53:19Z</time>
      </trkpt>
      <trkpt lat="45.56733" lon="6.06894">
        <ele>1618.894</ele>
        <time>2020-09-19T11:53:19Z</time>
      </trkpt>
      <trkpt lat="45.56733" lon="6.06894">
        <ele>1618.893</ele>
        <time>2020-09-19T11:53:20Z</time>
      </trkpt>
      <trkpt lat="45.56733" lon="6.06894">
        <ele>1618.917</ele>
        <time>2020-09-19T11:53:22Z</time>
      </trkpt>
      <trkpt lat="45.56732" lon="6.06894">
        <ele>1618.812</ele>
        <time>2020-09-19T11:53:23Z</time>
      </trkpt>
      <trkpt lat="45.56731" lon="6.06894">
        <ele>1620.375</ele>
        <time>2020-09-19T11:53:27Z</time>
      </trkpt>
      <trkpt lat="45.56729" lon="6.06893">
        <ele>1622.849</ele>
        <time>2020-09-19T11:53:32Z</time>
      </trkpt>
      <trkpt lat="45.56728" lon="6.06893">
        <ele>1623.554</ele>
        <time>2020-09-19T11:53:33Z</time>
      </trkpt>
      <trkpt lat="45.56728" lon="6.06893">
        <ele>1623.828</ele>
        <time>2020-09-19T11:53:34Z</time>
      </trkpt>
      <trkpt lat="45.56727" lon="6.06893">
        <ele>1625.514</ele>
        <time>2020-09-19T11:53:37Z</time>
      </trkpt>
      <trkpt lat="45.56723" lon="6.0689">
        <ele>1625.371</ele>
        <time>2020-09-19T11:53:42Z</time>
      </trkpt>
      <trkpt lat="45.56722" lon="6.0689">
        <ele>1625.65</ele>
        <time>2020-09-19T11:53:43Z</time>
      </trkpt>
      <trkpt lat="45.56722" lon="6.06889">
        <ele>1625.964</ele>
        <time>2020-09-19T11:53:44Z</time>
      </trkpt>
      <trkpt lat="45.5672" lon="6.06887">
        <ele>1627.215</ele>
        <time>2020-09-19T11:53:48Z</time>
      </trkpt>
      <trkpt lat="45.56719" lon="6.06886">
        <ele>1627.261</ele>
        <time>2020-09-19T11:53:49Z</time>
      </trkpt>
      <trkpt lat="45.56719" lon="6.06886">
        <ele>1627.307</ele>
        <time>2020-09-19T11:53:51Z</time>
      </trkpt>
      <trkpt lat="45.56719" lon="6.06886">
        <ele>1627.262</ele>
        <time>2020-09-19T11:54:01Z</time>
      </trkpt>
      <trkpt lat="45.56717" lon="6.06885">
        <ele>1626.785</ele>
        <time>2020-09-19T11:54:02Z</time>
      </trkpt>
      <trkpt lat="45.56716" lon="6.06884">
        <ele>1627.257</ele>
        <time>2020-09-19T11:54:05Z</time>
      </trkpt>
      <trkpt lat="45.56715" lon="6.06883">
        <ele>1628.285</ele>
        <time>2020-09-19T11:54:07Z</time>
      </trkpt>
      <trkpt lat="45.56714" lon="6.06882">
        <ele>1628.912</ele>
        <time>2020-09-19T11:54:08Z</time>
      </trkpt>
      <trkpt lat="45.56714" lon="6.06882">
        <ele>1628.791</ele>
        <time>2020-09-19T11:54:09Z</time>
      </trkpt>
      <trkpt lat="45.56714" lon="6.06882">
        <ele>1628.82</ele>
        <time>2020-09-19T11:54:32Z</time>
      </trkpt>
      <trkpt lat="45.56713" lon="6.06882">
        <ele>1628.781</ele>
        <time>2020-09-19T11:54:33Z</time>
      </trkpt>
      <trkpt lat="45.56712" lon="6.06881">
        <ele>1628.51</ele>
        <time>2020-09-19T11:54:35Z</time>
      </trkpt>
      <trkpt lat="45.56712" lon="6.06881">
        <ele>1628.706</ele>
        <time>2020-09-19T11:54:36Z</time>
      </trkpt>
      <trkpt lat="45.56711" lon="6.06881">
        <ele>1628.366</ele>
        <time>2020-09-19T11:54:37Z</time>
      </trkpt>
      <trkpt lat="45.56712" lon="6.06879">
        <ele>1628.929</ele>
        <time>2020-09-19T11:54:42Z</time>
      </trkpt>
      <trkpt lat="45.56712" lon="6.06879">
        <ele>1630.71</ele>
        <time>2020-09-19T11:54:43Z</time>
      </trkpt>
      <trkpt lat="45.56712" lon="6.06879">
        <ele>1630.71</ele>
        <time>2020-09-19T11:54:43Z</time>
      </trkpt>
      <trkpt lat="45.56712" lon="6.06879">
        <ele>1629.595</ele>
        <time>2020-09-19T11:54:44Z</time>
      </trkpt>
      <trkpt lat="45.56712" lon="6.06879">
        <ele>1629.636</ele>
        <time>2020-09-19T11:54:45Z</time>
      </trkpt>
      <trkpt lat="45.56712" lon="6.06879">
        <ele>1629.685</ele>
        <time>2020-09-19T11:54:46Z</time>
      </trkpt>
      <trkpt lat="45.5671" lon="6.06878">
        <ele>1629.022</ele>
        <time>2020-09-19T11:54:46Z</time>
      </trkpt>
      <trkpt lat="45.56711" lon="6.0688">
        <ele>1628.089</ele>
        <time>2020-09-19T11:54:49Z</time>
      </trkpt>
      <trkpt lat="45.56711" lon="6.0688">
        <ele>1627.951</ele>
        <time>2020-09-19T11:54:50Z</time>
      </trkpt>
      <trkpt lat="45.56711" lon="6.0688">
        <ele>1627.951</ele>
        <time>2020-09-19T11:54:50Z</time>
      </trkpt>
      <trkpt lat="45.56711" lon="6.0688">
        <ele>1627.919</ele>
        <time>2020-09-19T11:54:51Z</time>
      </trkpt>
      <trkpt lat="45.56711" lon="6.0688">
        <ele>1627.956</ele>
        <time>2020-09-19T11:55:11Z</time>
      </trkpt>
      <trkpt lat="45.5671" lon="6.06881">
        <ele>1628.073</ele>
        <time>2020-09-19T11:55:12Z</time>
      </trkpt>
      <trkpt lat="45.56711" lon="6.0688">
        <ele>1630.02</ele>
        <time>2020-09-19T11:55:13Z</time>
      </trkpt>
      <trkpt lat="45.56711" lon="6.0688">
        <ele>1630.02</ele>
        <time>2020-09-19T11:55:13Z</time>
      </trkpt>
      <trkpt lat="45.56711" lon="6.0688">
        <ele>1630.56</ele>
        <time>2020-09-19T11:55:14Z</time>
      </trkpt>
      <trkpt lat="45.56711" lon="6.0688">
        <ele>1630.687</ele>
        <time>2020-09-19T11:56:40Z</time>
      </trkpt>
      <trkpt lat="45.56712" lon="6.0688">
        <ele>1630.887</ele>
        <time>2020-09-19T11:56:41Z</time>
      </trkpt>
      <trkpt lat="45.56711" lon="6.0688">
        <ele>1631.691</ele>
        <time>2020-09-19T11:56:42Z</time>
      </trkpt>
      <trkpt lat="45.56708" lon="6.06878">
        <ele>1631.775</ele>
        <time>2020-09-19T11:56:46Z</time>
      </trkpt>
      <trkpt lat="45.56706" lon="6.06876">
        <ele>1633.556</ele>
        <time>2020-09-19T11:56:54Z</time>
      </trkpt>
      <trkpt lat="45.56706" lon="6.06876">
        <ele>1632.618</ele>
        <time>2020-09-19T11:56:56Z</time>
      </trkpt>
      <trkpt lat="45.56706" lon="6.06876">
        <ele>1632.618</ele>
        <time>2020-09-19T11:56:56Z</time>
      </trkpt>
      <trkpt lat="45.56705" lon="6.06875">
        <ele>1633.764</ele>
        <time>2020-09-19T11:56:57Z</time>
      </trkpt>
      <trkpt lat="45.56706" lon="6.06875">
        <ele>1634.056</ele>
        <time>2020-09-19T11:56:59Z</time>
      </trkpt>
      <trkpt lat="45.56705" lon="6.06873">
        <ele>1633.764</ele>
        <time>2020-09-19T11:57:03Z</time>
      </trkpt>
      <trkpt lat="45.56704" lon="6.06872">
        <ele>1633.587</ele>
        <time>2020-09-19T11:57:04Z</time>
      </trkpt>
      <trkpt lat="45.56704" lon="6.06872">
        <ele>1634.121</ele>
        <time>2020-09-19T11:57:05Z</time>
      </trkpt>
      <trkpt lat="45.56703" lon="6.06871">
        <ele>1635.465</ele>
        <time>2020-09-19T11:57:06Z</time>
      </trkpt>
      <trkpt lat="45.56701" lon="6.0687">
        <ele>1636.094</ele>
        <time>2020-09-19T11:57:10Z</time>
      </trkpt>
      <trkpt lat="45.567" lon="6.06869">
        <ele>1636.467</ele>
        <time>2020-09-19T11:57:12Z</time>
      </trkpt>
      <trkpt lat="45.567" lon="6.06869">
        <ele>1640.365</ele>
        <time>2020-09-19T11:57:14Z</time>
      </trkpt>
      <trkpt lat="45.56699" lon="6.06868">
        <ele>1640.218</ele>
        <time>2020-09-19T11:57:15Z</time>
      </trkpt>
      <trkpt lat="45.56698" lon="6.06868">
        <ele>1640.834</ele>
        <time>2020-09-19T11:57:16Z</time>
      </trkpt>
      <trkpt lat="45.56695" lon="6.06867">
        <ele>1640.009</ele>
        <time>2020-09-19T11:57:19Z</time>
      </trkpt>
      <trkpt lat="45.56694" lon="6.06866">
        <ele>1640.76</ele>
        <time>2020-09-19T11:57:22Z</time>
      </trkpt>
      <trkpt lat="45.56694" lon="6.06866">
        <ele>1641.075</ele>
        <time>2020-09-19T11:57:23Z</time>
      </trkpt>
      <trkpt lat="45.56693" lon="6.06866">
        <ele>1640.994</ele>
        <time>2020-09-19T11:57:26Z</time>
      </trkpt>
      <trkpt lat="45.56692" lon="6.06866">
        <ele>1640.633</ele>
        <time>2020-09-19T11:57:28Z</time>
      </trkpt>
      <trkpt lat="45.56691" lon="6.06865">
        <ele>1640.577</ele>
        <time>2020-09-19T11:57:31Z</time>
      </trkpt>
      <trkpt lat="45.56689" lon="6.06863">
        <ele>1640.637</ele>
        <time>2020-09-19T11:57:36Z</time>
      </trkpt>
      <trkpt lat="45.56688" lon="6.06862">
        <ele>1641.433</ele>
        <time>2020-09-19T11:57:37Z</time>
      </trkpt>
      <trkpt lat="45.56686" lon="6.06861">
        <ele>1641.737</ele>
        <time>2020-09-19T11:57:41Z</time>
      </trkpt>
      <trkpt lat="45.56683" lon="6.0686">
        <ele>1641.611</ele>
        <time>2020-09-19T11:57:44Z</time>
      </trkpt>
      <trkpt lat="45.56682" lon="6.06859">
        <ele>1643.304</ele>
        <time>2020-09-19T11:57:46Z</time>
      </trkpt>
      <trkpt lat="45.5668" lon="6.0686">
        <ele>1643.592</ele>
        <time>2020-09-19T11:57:50Z</time>
      </trkpt>
      <trkpt lat="45.5668" lon="6.06859">
        <ele>1643.334</ele>
        <time>2020-09-19T11:57:51Z</time>
      </trkpt>
      <trkpt lat="45.56678" lon="6.06855">
        <ele>1643.629</ele>
        <time>2020-09-19T11:57:56Z</time>
      </trkpt>
      <trkpt lat="45.56678" lon="6.06855">
        <ele>1644.24</ele>
        <time>2020-09-19T11:57:57Z</time>
      </trkpt>
      <trkpt lat="45.56678" lon="6.06855">
        <ele>1644.24</ele>
        <time>2020-09-19T11:57:57Z</time>
      </trkpt>
      <trkpt lat="45.56677" lon="6.06853">
        <ele>1644.482</ele>
        <time>2020-09-19T11:57:58Z</time>
      </trkpt>
      <trkpt lat="45.56677" lon="6.06853">
        <ele>1644.55</ele>
        <time>2020-09-19T11:58:00Z</time>
      </trkpt>
      <trkpt lat="45.56677" lon="6.06853">
        <ele>1644.839</ele>
        <time>2020-09-19T11:58:01Z</time>
      </trkpt>
      <trkpt lat="45.56677" lon="6.06853">
        <ele>1644.839</ele>
        <time>2020-09-19T11:58:01Z</time>
      </trkpt>
      <trkpt lat="45.56677" lon="6.06854">
        <ele>1645.057</ele>
        <time>2020-09-19T11:58:02Z</time>
      </trkpt>
      <trkpt lat="45.56677" lon="6.06852">
        <ele>1645.131</ele>
        <time>2020-09-19T11:58:04Z</time>
      </trkpt>
      <trkpt lat="45.56677" lon="6.06851">
        <ele>1645.602</ele>
        <time>2020-09-19T11:58:06Z</time>
      </trkpt>
      <trkpt lat="45.56677" lon="6.06849">
        <ele>1645.932</ele>
        <time>2020-09-19T11:58:09Z</time>
      </trkpt>
      <trkpt lat="45.56677" lon="6.06849">
        <ele>1646.553</ele>
        <time>2020-09-19T11:58:10Z</time>
      </trkpt>
      <trkpt lat="45.56677" lon="6.06848">
        <ele>1646.191</ele>
        <time>2020-09-19T11:58:11Z</time>
      </trkpt>
      <trkpt lat="45.56675" lon="6.06847">
        <ele>1647.112</ele>
        <time>2020-09-19T11:58:14Z</time>
      </trkpt>
      <trkpt lat="45.56675" lon="6.06846">
        <ele>1646.924</ele>
        <time>2020-09-19T11:58:15Z</time>
      </trkpt>
      <trkpt lat="45.56675" lon="6.06846">
        <ele>1646.725</ele>
        <time>2020-09-19T11:58:16Z</time>
      </trkpt>
      <trkpt lat="45.56675" lon="6.06845">
        <ele>1646.461</ele>
        <time>2020-09-19T11:58:17Z</time>
      </trkpt>
      <trkpt lat="45.56673" lon="6.06842">
        <ele>1647.407</ele>
        <time>2020-09-19T11:58:22Z</time>
      </trkpt>
      <trkpt lat="45.56673" lon="6.06842">
        <ele>1647.239</ele>
        <time>2020-09-19T11:58:23Z</time>
      </trkpt>
      <trkpt lat="45.56672" lon="6.06841">
        <ele>1647.243</ele>
        <time>2020-09-19T11:58:25Z</time>
      </trkpt>
      <trkpt lat="45.56672" lon="6.06841">
        <ele>1647.505</ele>
        <time>2020-09-19T11:58:26Z</time>
      </trkpt>
      <trkpt lat="45.56672" lon="6.06841">
        <ele>1647.524</ele>
        <time>2020-09-19T11:58:27Z</time>
      </trkpt>
      <trkpt lat="45.56671" lon="6.06842">
        <ele>1647.55</ele>
        <time>2020-09-19T11:58:31Z</time>
      </trkpt>
      <trkpt lat="45.56671" lon="6.06842">
        <ele>1648.262</ele>
        <time>2020-09-19T11:58:32Z</time>
      </trkpt>
      <trkpt lat="45.5667" lon="6.06842">
        <ele>1648.928</ele>
        <time>2020-09-19T11:58:34Z</time>
      </trkpt>
      <trkpt lat="45.5667" lon="6.06842">
        <ele>1648.928</ele>
        <time>2020-09-19T11:58:34Z</time>
      </trkpt>
      <trkpt lat="45.5667" lon="6.06842">
        <ele>1649.433</ele>
        <time>2020-09-19T11:58:35Z</time>
      </trkpt>
      <trkpt lat="45.56668" lon="6.06841">
        <ele>1650.857</ele>
        <time>2020-09-19T11:58:39Z</time>
      </trkpt>
      <trkpt lat="45.56667" lon="6.0684">
        <ele>1649.411</ele>
        <time>2020-09-19T11:58:41Z</time>
      </trkpt>
      <trkpt lat="45.56666" lon="6.06838">
        <ele>1650.439</ele>
        <time>2020-09-19T11:58:45Z</time>
      </trkpt>
      <trkpt lat="45.56665" lon="6.06838">
        <ele>1649.903</ele>
        <time>2020-09-19T11:58:48Z</time>
      </trkpt>
      <trkpt lat="45.56665" lon="6.06838">
        <ele>1649.903</ele>
        <time>2020-09-19T11:58:48Z</time>
      </trkpt>
      <trkpt lat="45.56665" lon="6.06838">
        <ele>1651.125</ele>
        <time>2020-09-19T11:58:49Z</time>
      </trkpt>
      <trkpt lat="45.56664" lon="6.06837">
        <ele>1651.005</ele>
        <time>2020-09-19T11:58:50Z</time>
      </trkpt>
      <trkpt lat="45.56662" lon="6.06835">
        <ele>1652.167</ele>
        <time>2020-09-19T11:58:54Z</time>
      </trkpt>
      <trkpt lat="45.56662" lon="6.06835">
        <ele>1652.626</ele>
        <time>2020-09-19T11:58:56Z</time>
      </trkpt>
      <trkpt lat="45.56662" lon="6.06835">
        <ele>1652.626</ele>
        <time>2020-09-19T11:58:56Z</time>
      </trkpt>
      <trkpt lat="45.56662" lon="6.06835">
        <ele>1652.836</ele>
        <time>2020-09-19T11:58:57Z</time>
      </trkpt>
      <trkpt lat="45.56662" lon="6.06834">
        <ele>1653.683</ele>
        <time>2020-09-19T11:59:01Z</time>
      </trkpt>
      <trkpt lat="45.56661" lon="6.06833">
        <ele>1653.938</ele>
        <time>2020-09-19T11:59:03Z</time>
      </trkpt>
      <trkpt lat="45.56661" lon="6.06833">
        <ele>1654.029</ele>
        <time>2020-09-19T11:59:04Z</time>
      </trkpt>
      <trkpt lat="45.56659" lon="6.06833">
        <ele>1654.924</ele>
        <time>2020-09-19T11:59:11Z</time>
      </trkpt>
      <trkpt lat="45.56657" lon="6.06831">
        <ele>1655.386</ele>
        <time>2020-09-19T11:59:15Z</time>
      </trkpt>
      <trkpt lat="45.56655" lon="6.06828">
        <ele>1656.249</ele>
        <time>2020-09-19T11:59:20Z</time>
      </trkpt>
      <trkpt lat="45.56653" lon="6.06825">
        <ele>1657.306</ele>
        <time>2020-09-19T11:59:26Z</time>
      </trkpt>
      <trkpt lat="45.56652" lon="6.06824">
        <ele>1657.318</ele>
        <time>2020-09-19T11:59:27Z</time>
      </trkpt>
      <trkpt lat="45.56651" lon="6.06824">
        <ele>1657.377</ele>
        <time>2020-09-19T11:59:28Z</time>
      </trkpt>
      <trkpt lat="45.5665" lon="6.06822">
        <ele>1658.183</ele>
        <time>2020-09-19T11:59:31Z</time>
      </trkpt>
      <trkpt lat="45.5665" lon="6.06821">
        <ele>1658.68</ele>
        <time>2020-09-19T11:59:32Z</time>
      </trkpt>
      <trkpt lat="45.56648" lon="6.06819">
        <ele>1659.578</ele>
        <time>2020-09-19T11:59:36Z</time>
      </trkpt>
      <trkpt lat="45.56647" lon="6.06818">
        <ele>1659.741</ele>
        <time>2020-09-19T11:59:40Z</time>
      </trkpt>
      <trkpt lat="45.56645" lon="6.06815">
        <ele>1660.335</ele>
        <time>2020-09-19T11:59:47Z</time>
      </trkpt>
      <trkpt lat="45.56644" lon="6.0681">
        <ele>1661.904</ele>
        <time>2020-09-19T11:59:54Z</time>
      </trkpt>
      <trkpt lat="45.56644" lon="6.06809">
        <ele>1662.276</ele>
        <time>2020-09-19T11:59:56Z</time>
      </trkpt>
      <trkpt lat="45.56641" lon="6.06804">
        <ele>1662.661</ele>
        <time>2020-09-19T12:00:05Z</time>
      </trkpt>
      <trkpt lat="45.5664" lon="6.06803">
        <ele>1663.026</ele>
        <time>2020-09-19T12:00:07Z</time>
      </trkpt>
      <trkpt lat="45.56639" lon="6.06802">
        <ele>1663.235</ele>
        <time>2020-09-19T12:00:09Z</time>
      </trkpt>
      <trkpt lat="45.56639" lon="6.06802">
        <ele>1663.235</ele>
        <time>2020-09-19T12:00:09Z</time>
      </trkpt>
      <trkpt lat="45.56639" lon="6.06802">
        <ele>1663.301</ele>
        <time>2020-09-19T12:00:10Z</time>
      </trkpt>
      <trkpt lat="45.56638" lon="6.06802">
        <ele>1663.555</ele>
        <time>2020-09-19T12:00:11Z</time>
      </trkpt>
      <trkpt lat="45.56638" lon="6.06802">
        <ele>1663.693</ele>
        <time>2020-09-19T12:00:12Z</time>
      </trkpt>
      <trkpt lat="45.56636" lon="6.06799">
        <ele>1663.841</ele>
        <time>2020-09-19T12:00:18Z</time>
      </trkpt>
      <trkpt lat="45.56635" lon="6.06799">
        <ele>1663.601</ele>
        <time>2020-09-19T12:00:19Z</time>
      </trkpt>
      <trkpt lat="45.56634" lon="6.068">
        <ele>1663.863</ele>
        <time>2020-09-19T12:00:22Z</time>
      </trkpt>
      <trkpt lat="45.56634" lon="6.068">
        <ele>1664.19</ele>
        <time>2020-09-19T12:00:24Z</time>
      </trkpt>
      <trkpt lat="45.56633" lon="6.06799">
        <ele>1664.127</ele>
        <time>2020-09-19T12:00:26Z</time>
      </trkpt>
      <trkpt lat="45.56631" lon="6.06797">
        <ele>1664.24</ele>
        <time>2020-09-19T12:00:32Z</time>
      </trkpt>
      <trkpt lat="45.56631" lon="6.06797">
        <ele>1664.402</ele>
        <time>2020-09-19T12:00:33Z</time>
      </trkpt>
      <trkpt lat="45.56631" lon="6.06797">
        <ele>1664.406</ele>
        <time>2020-09-19T12:00:37Z</time>
      </trkpt>
      <trkpt lat="45.56632" lon="6.06798">
        <ele>1664.326</ele>
        <time>2020-09-19T12:00:38Z</time>
      </trkpt>
      <trkpt lat="45.56631" lon="6.06798">
        <ele>1664.627</ele>
        <time>2020-09-19T12:00:40Z</time>
      </trkpt>
      <trkpt lat="45.56631" lon="6.06798">
        <ele>1664.911</ele>
        <time>2020-09-19T12:00:41Z</time>
      </trkpt>
      <trkpt lat="45.56631" lon="6.06798">
        <ele>1664.911</ele>
        <time>2020-09-19T12:00:41Z</time>
      </trkpt>
      <trkpt lat="45.5663" lon="6.06797">
        <ele>1665.239</ele>
        <time>2020-09-19T12:00:42Z</time>
      </trkpt>
      <trkpt lat="45.56624" lon="6.06786">
        <ele>1665.605</ele>
        <time>2020-09-19T12:00:56Z</time>
      </trkpt>
      <trkpt lat="45.56624" lon="6.06786">
        <ele>1665.622</ele>
        <time>2020-09-19T12:00:57Z</time>
      </trkpt>
      <trkpt lat="45.56625" lon="6.06786">
        <ele>1665.712</ele>
        <time>2020-09-19T12:00:58Z</time>
      </trkpt>
      <trkpt lat="45.56625" lon="6.06786">
        <ele>1665.689</ele>
        <time>2020-09-19T12:00:59Z</time>
      </trkpt>
      <trkpt lat="45.56625" lon="6.06786">
        <ele>1665.715</ele>
        <time>2020-09-19T12:01:22Z</time>
      </trkpt>
      <trkpt lat="45.56625" lon="6.06784">
        <ele>1665.956</ele>
        <time>2020-09-19T12:01:23Z</time>
      </trkpt>
      <trkpt lat="45.56625" lon="6.06782">
        <ele>1665.997</ele>
        <time>2020-09-19T12:01:25Z</time>
      </trkpt>
      <trkpt lat="45.56625" lon="6.0678">
        <ele>1665.857</ele>
        <time>2020-09-19T12:01:26Z</time>
      </trkpt>
      <trkpt lat="45.56622" lon="6.06773">
        <ele>1667.906</ele>
        <time>2020-09-19T12:01:32Z</time>
      </trkpt>
      <trkpt lat="45.56623" lon="6.06768">
        <ele>1668.53</ele>
        <time>2020-09-19T12:01:37Z</time>
      </trkpt>
      <trkpt lat="45.56623" lon="6.06767">
        <ele>1668.379</ele>
        <time>2020-09-19T12:01:38Z</time>
      </trkpt>
      <trkpt lat="45.56623" lon="6.06767">
        <ele>1669.004</ele>
        <time>2020-09-19T12:01:40Z</time>
      </trkpt>
      <trkpt lat="45.56623" lon="6.06767">
        <ele>1668.734</ele>
        <time>2020-09-19T12:01:42Z</time>
      </trkpt>
      <trkpt lat="45.56623" lon="6.06766">
        <ele>1668.861</ele>
        <time>2020-09-19T12:01:43Z</time>
      </trkpt>
      <trkpt lat="45.56622" lon="6.06762">
        <ele>1669.169</ele>
        <time>2020-09-19T12:01:47Z</time>
      </trkpt>
      <trkpt lat="45.56622" lon="6.06759">
        <ele>1669.58</ele>
        <time>2020-09-19T12:01:52Z</time>
      </trkpt>
      <trkpt lat="45.56622" lon="6.06759">
        <ele>1669.333</ele>
        <time>2020-09-19T12:01:53Z</time>
      </trkpt>
      <trkpt lat="45.56622" lon="6.06758">
        <ele>1669.501</ele>
        <time>2020-09-19T12:01:54Z</time>
      </trkpt>
      <trkpt lat="45.56621" lon="6.06757">
        <ele>1670.363</ele>
        <time>2020-09-19T12:01:55Z</time>
      </trkpt>
      <trkpt lat="45.56621" lon="6.06756">
        <ele>1670.21</ele>
        <time>2020-09-19T12:01:56Z</time>
      </trkpt>
      <trkpt lat="45.56621" lon="6.06756">
        <ele>1669.996</ele>
        <time>2020-09-19T12:01:57Z</time>
      </trkpt>
      <trkpt lat="45.56621" lon="6.06756">
        <ele>1670.258</ele>
        <time>2020-09-19T12:01:58Z</time>
      </trkpt>
      <trkpt lat="45.56621" lon="6.06756">
        <ele>1670.256</ele>
        <time>2020-09-19T12:02:02Z</time>
      </trkpt>
      <trkpt lat="45.5662" lon="6.06756">
        <ele>1670.181</ele>
        <time>2020-09-19T12:02:03Z</time>
      </trkpt>
      <trkpt lat="45.5662" lon="6.06754">
        <ele>1670.478</ele>
        <time>2020-09-19T12:02:06Z</time>
      </trkpt>
      <trkpt lat="45.5662" lon="6.06753">
        <ele>1670.701</ele>
        <time>2020-09-19T12:02:07Z</time>
      </trkpt>
      <trkpt lat="45.56618" lon="6.06748">
        <ele>1671.398</ele>
        <time>2020-09-19T12:02:14Z</time>
      </trkpt>
      <trkpt lat="45.56618" lon="6.06748">
        <ele>1671.542</ele>
        <time>2020-09-19T12:02:14Z</time>
      </trkpt>
      <trkpt lat="45.56618" lon="6.06748">
        <ele>1671.542</ele>
        <time>2020-09-19T12:02:14Z</time>
      </trkpt>
      <trkpt lat="45.56617" lon="6.06747">
        <ele>1671.879</ele>
        <time>2020-09-19T12:02:15Z</time>
      </trkpt>
      <trkpt lat="45.56617" lon="6.06747">
        <ele>1672.031</ele>
        <time>2020-09-19T12:02:16Z</time>
      </trkpt>
      <trkpt lat="45.56616" lon="6.06747">
        <ele>1672.33</ele>
        <time>2020-09-19T12:02:17Z</time>
      </trkpt>
      <trkpt lat="45.56616" lon="6.06744">
        <ele>1671.974</ele>
        <time>2020-09-19T12:02:21Z</time>
      </trkpt>
      <trkpt lat="45.56615" lon="6.06741">
        <ele>1672.094</ele>
        <time>2020-09-19T12:02:24Z</time>
      </trkpt>
      <trkpt lat="45.56614" lon="6.0674">
        <ele>1673.073</ele>
        <time>2020-09-19T12:02:26Z</time>
      </trkpt>
      <trkpt lat="45.56613" lon="6.06739">
        <ele>1673.641</ele>
        <time>2020-09-19T12:02:29Z</time>
      </trkpt>
      <trkpt lat="45.56612" lon="6.06738">
        <ele>1674.035</ele>
        <time>2020-09-19T12:02:31Z</time>
      </trkpt>
      <trkpt lat="45.56612" lon="6.06738">
        <ele>1673.891</ele>
        <time>2020-09-19T12:02:32Z</time>
      </trkpt>
      <trkpt lat="45.56608" lon="6.06733">
        <ele>1674.065</ele>
        <time>2020-09-19T12:02:39Z</time>
      </trkpt>
      <trkpt lat="45.56607" lon="6.0673">
        <ele>1674.319</ele>
        <time>2020-09-19T12:02:42Z</time>
      </trkpt>
      <trkpt lat="45.56605" lon="6.06727">
        <ele>1674.268</ele>
        <time>2020-09-19T12:02:48Z</time>
      </trkpt>
      <trkpt lat="45.56605" lon="6.06725">
        <ele>1674.718</ele>
        <time>2020-09-19T12:02:50Z</time>
      </trkpt>
      <trkpt lat="45.56605" lon="6.06722">
        <ele>1674.632</ele>
        <time>2020-09-19T12:02:54Z</time>
      </trkpt>
      <trkpt lat="45.56605" lon="6.06722">
        <ele>1675.022</ele>
        <time>2020-09-19T12:02:56Z</time>
      </trkpt>
      <trkpt lat="45.56605" lon="6.06722">
        <ele>1675.324</ele>
        <time>2020-09-19T12:03:09Z</time>
      </trkpt>
      <trkpt lat="45.56606" lon="6.06722">
        <ele>1675.181</ele>
        <time>2020-09-19T12:03:10Z</time>
      </trkpt>
      <trkpt lat="45.56606" lon="6.06719">
        <ele>1675.664</ele>
        <time>2020-09-19T12:03:15Z</time>
      </trkpt>
      <trkpt lat="45.56605" lon="6.06718">
        <ele>1676.045</ele>
        <time>2020-09-19T12:03:18Z</time>
      </trkpt>
      <trkpt lat="45.56605" lon="6.06718">
        <ele>1676.045</ele>
        <time>2020-09-19T12:03:18Z</time>
      </trkpt>
      <trkpt lat="45.56605" lon="6.06718">
        <ele>1676.041</ele>
        <time>2020-09-19T12:03:19Z</time>
      </trkpt>
      <trkpt lat="45.56605" lon="6.06718">
        <ele>1676.025</ele>
        <time>2020-09-19T12:03:24Z</time>
      </trkpt>
      <trkpt lat="45.56604" lon="6.06717">
        <ele>1675.938</ele>
        <time>2020-09-19T12:03:25Z</time>
      </trkpt>
      <trkpt lat="45.56603" lon="6.06716">
        <ele>1675.992</ele>
        <time>2020-09-19T12:03:26Z</time>
      </trkpt>
      <trkpt lat="45.56601" lon="6.06711">
        <ele>1675.849</ele>
        <time>2020-09-19T12:03:29Z</time>
      </trkpt>
      <trkpt lat="45.56601" lon="6.06709">
        <ele>1675.769</ele>
        <time>2020-09-19T12:03:31Z</time>
      </trkpt>
      <trkpt lat="45.56601" lon="6.06709">
        <ele>1675.693</ele>
        <time>2020-09-19T12:03:32Z</time>
      </trkpt>
      <trkpt lat="45.566" lon="6.06706">
        <ele>1675.928</ele>
        <time>2020-09-19T12:03:35Z</time>
      </trkpt>
      <trkpt lat="45.56598" lon="6.06701">
        <ele>1675.669</ele>
        <time>2020-09-19T12:03:39Z</time>
      </trkpt>
      <trkpt lat="45.56598" lon="6.06699">
        <ele>1675.587</ele>
        <time>2020-09-19T12:03:41Z</time>
      </trkpt>
      <trkpt lat="45.56596" lon="6.06688">
        <ele>1675.637</ele>
        <time>2020-09-19T12:03:49Z</time>
      </trkpt>
      <trkpt lat="45.56594" lon="6.06684">
        <ele>1676.419</ele>
        <time>2020-09-19T12:03:53Z</time>
      </trkpt>
      <trkpt lat="45.56591" lon="6.06665">
        <ele>1677.695</ele>
        <time>2020-09-19T12:04:11Z</time>
      </trkpt>
      <trkpt lat="45.56591" lon="6.06663">
        <ele>1678.071</ele>
        <time>2020-09-19T12:04:14Z</time>
      </trkpt>
      <trkpt lat="45.56591" lon="6.06663">
        <ele>1678.743</ele>
        <time>2020-09-19T12:04:38Z</time>
      </trkpt>
      <trkpt lat="45.56592" lon="6.06663">
        <ele>1678.812</ele>
        <time>2020-09-19T12:04:39Z</time>
      </trkpt>
      <trkpt lat="45.56592" lon="6.06663">
        <ele>1678.8</ele>
        <time>2020-09-19T12:04:40Z</time>
      </trkpt>
      <trkpt lat="45.56592" lon="6.06663">
        <ele>1678.799</ele>
        <time>2020-09-19T12:04:53Z</time>
      </trkpt>
      <trkpt lat="45.56592" lon="6.06663">
        <ele>1678.658</ele>
        <time>2020-09-19T12:04:54Z</time>
      </trkpt>
      <trkpt lat="45.56592" lon="6.06663">
        <ele>1678.658</ele>
        <time>2020-09-19T12:04:54Z</time>
      </trkpt>
      <trkpt lat="45.56592" lon="6.06663">
        <ele>1678.65</ele>
        <time>2020-09-19T12:04:55Z</time>
      </trkpt>
      <trkpt lat="45.56592" lon="6.06663">
        <ele>1680.004</ele>
        <time>2020-09-19T12:05:42Z</time>
      </trkpt>
      <trkpt lat="45.56591" lon="6.06665">
        <ele>1680.394</ele>
        <time>2020-09-19T12:05:43Z</time>
      </trkpt>
      <trkpt lat="45.56591" lon="6.06665">
        <ele>1680.654</ele>
        <time>2020-09-19T12:05:44Z</time>
      </trkpt>
      <trkpt lat="45.56591" lon="6.06665">
        <ele>1680.659</ele>
        <time>2020-09-19T12:06:17Z</time>
      </trkpt>
      <trkpt lat="45.56591" lon="6.06666">
        <ele>1681.179</ele>
        <time>2020-09-19T12:06:18Z</time>
      </trkpt>
      <trkpt lat="45.56591" lon="6.06666">
        <ele>1681.179</ele>
        <time>2020-09-19T12:06:18Z</time>
      </trkpt>
      <trkpt lat="45.56591" lon="6.06666">
        <ele>1681.411</ele>
        <time>2020-09-19T12:06:19Z</time>
      </trkpt>
      <trkpt lat="45.56591" lon="6.06666">
        <ele>1681.404</ele>
        <time>2020-09-19T12:06:27Z</time>
      </trkpt>
      <trkpt lat="45.56591" lon="6.06666">
        <ele>1681.67</ele>
        <time>2020-09-19T12:06:28Z</time>
      </trkpt>
      <trkpt lat="45.56591" lon="6.06666">
        <ele>1681.813</ele>
        <time>2020-09-19T12:06:29Z</time>
      </trkpt>
      <trkpt lat="45.56591" lon="6.06666">
        <ele>1681.814</ele>
        <time>2020-09-19T12:06:32Z</time>
      </trkpt>
      <trkpt lat="45.56591" lon="6.06667">
        <ele>1681.677</ele>
        <time>2020-09-19T12:06:33Z</time>
      </trkpt>
      <trkpt lat="45.56591" lon="6.06667">
        <ele>1681.577</ele>
        <time>2020-09-19T12:06:34Z</time>
      </trkpt>
      <trkpt lat="45.56591" lon="6.06667">
        <ele>1681.943</ele>
        <time>2020-09-19T12:06:41Z</time>
      </trkpt>
      <trkpt lat="45.5659" lon="6.06666">
        <ele>1682.51</ele>
        <time>2020-09-19T12:06:42Z</time>
      </trkpt>
      <trkpt lat="45.56589" lon="6.06665">
        <ele>1683.05</ele>
        <time>2020-09-19T12:06:44Z</time>
      </trkpt>
      <trkpt lat="45.56589" lon="6.06665">
        <ele>1683.542</ele>
        <time>2020-09-19T12:06:46Z</time>
      </trkpt>
      <trkpt lat="45.5659" lon="6.06666">
        <ele>1682.944</ele>
        <time>2020-09-19T12:06:47Z</time>
      </trkpt>
      <trkpt lat="45.5659" lon="6.06666">
        <ele>1682.789</ele>
        <time>2020-09-19T12:06:48Z</time>
      </trkpt>
      <trkpt lat="45.56589" lon="6.06667">
        <ele>1682.072</ele>
        <time>2020-09-19T12:06:51Z</time>
      </trkpt>
      <trkpt lat="45.56589" lon="6.06667">
        <ele>1682.275</ele>
        <time>2020-09-19T12:07:51Z</time>
      </trkpt>
      <trkpt lat="45.56589" lon="6.06666">
        <ele>1682.405</ele>
        <time>2020-09-19T12:07:52Z</time>
      </trkpt>
      <trkpt lat="45.56589" lon="6.06666">
        <ele>1682.298</ele>
        <time>2020-09-19T12:07:53Z</time>
      </trkpt>
      <trkpt lat="45.56589" lon="6.06666">
        <ele>1681.844</ele>
        <time>2020-09-19T12:08:01Z</time>
      </trkpt>
      <trkpt lat="45.56589" lon="6.06665">
        <ele>1682.079</ele>
        <time>2020-09-19T12:08:02Z</time>
      </trkpt>
      <trkpt lat="45.56589" lon="6.06665">
        <ele>1682.123</ele>
        <time>2020-09-19T12:08:03Z</time>
      </trkpt>
      <trkpt lat="45.56589" lon="6.06665">
        <ele>1682.235</ele>
        <time>2020-09-19T12:08:33Z</time>
      </trkpt>
      <trkpt lat="45.56589" lon="6.06666">
        <ele>1682.058</ele>
        <time>2020-09-19T12:08:34Z</time>
      </trkpt>
      <trkpt lat="45.56589" lon="6.06666">
        <ele>1682.023</ele>
        <time>2020-09-19T12:08:35Z</time>
      </trkpt>
      <trkpt lat="45.56589" lon="6.06666">
        <ele>1682.377</ele>
        <time>2020-09-19T12:08:36Z</time>
      </trkpt>
      <trkpt lat="45.56589" lon="6.06666">
        <ele>1682.485</ele>
        <time>2020-09-19T12:08:37Z</time>
      </trkpt>
      <trkpt lat="45.56589" lon="6.06666">
        <ele>1681.85</ele>
        <time>2020-09-19T12:08:48Z</time>
      </trkpt>
      <trkpt lat="45.56589" lon="6.06665">
        <ele>1682.098</ele>
        <time>2020-09-19T12:08:49Z</time>
      </trkpt>
      <trkpt lat="45.56589" lon="6.06665">
        <ele>1681.836</ele>
        <time>2020-09-19T12:08:51Z</time>
      </trkpt>
      <trkpt lat="45.56589" lon="6.06665">
        <ele>1681.651</ele>
        <time>2020-09-19T12:08:52Z</time>
      </trkpt>
      <trkpt lat="45.56589" lon="6.06666">
        <ele>1681.466</ele>
        <time>2020-09-19T12:08:53Z</time>
      </trkpt>
      <trkpt lat="45.56588" lon="6.06665">
        <ele>1681.749</ele>
        <time>2020-09-19T12:08:55Z</time>
      </trkpt>
      <trkpt lat="45.56588" lon="6.06665">
        <ele>1682.148</ele>
        <time>2020-09-19T12:08:56Z</time>
      </trkpt>
      <trkpt lat="45.56588" lon="6.06665">
        <ele>1682.148</ele>
        <time>2020-09-19T12:08:56Z</time>
      </trkpt>
      <trkpt lat="45.56588" lon="6.06665">
        <ele>1682.039</ele>
        <time>2020-09-19T12:08:57Z</time>
      </trkpt>
      <trkpt lat="45.56589" lon="6.06664">
        <ele>1681.284</ele>
        <time>2020-09-19T12:08:58Z</time>
      </trkpt>
      <trkpt lat="45.56589" lon="6.06664">
        <ele>1681.59</ele>
        <time>2020-09-19T12:08:59Z</time>
      </trkpt>
      <trkpt lat="45.56589" lon="6.06664">
        <ele>1683.213</ele>
        <time>2020-09-19T12:09:06Z</time>
      </trkpt>
      <trkpt lat="45.5659" lon="6.06662">
        <ele>1682.863</ele>
        <time>2020-09-19T12:09:07Z</time>
      </trkpt>
      <trkpt lat="45.56589" lon="6.06662">
        <ele>1682.791</ele>
        <time>2020-09-19T12:09:08Z</time>
      </trkpt>
      <trkpt lat="45.56589" lon="6.06662">
        <ele>1683.009</ele>
        <time>2020-09-19T12:09:09Z</time>
      </trkpt>
      <trkpt lat="45.56588" lon="6.06663">
        <ele>1683.85</ele>
        <time>2020-09-19T12:09:16Z</time>
      </trkpt>
      <trkpt lat="45.56589" lon="6.06662">
        <ele>1683.341</ele>
        <time>2020-09-19T12:09:17Z</time>
      </trkpt>
      <trkpt lat="45.56588" lon="6.06661">
        <ele>1680.453</ele>
        <time>2020-09-19T12:09:22Z</time>
      </trkpt>
      <trkpt lat="45.56588" lon="6.06661">
        <ele>1681.632</ele>
        <time>2020-09-19T12:09:56Z</time>
      </trkpt>
      <trkpt lat="45.56587" lon="6.06661">
        <ele>1681.305</ele>
        <time>2020-09-19T12:09:57Z</time>
      </trkpt>
      <trkpt lat="45.56587" lon="6.06661">
        <ele>1681.425</ele>
        <time>2020-09-19T12:09:58Z</time>
      </trkpt>
      <trkpt lat="45.56587" lon="6.06661">
        <ele>1680.327</ele>
        <time>2020-09-19T12:10:26Z</time>
      </trkpt>
      <trkpt lat="45.56588" lon="6.06662">
        <ele>1681.034</ele>
        <time>2020-09-19T12:10:27Z</time>
      </trkpt>
      <trkpt lat="45.56588" lon="6.06662">
        <ele>1680.984</ele>
        <time>2020-09-19T12:10:28Z</time>
      </trkpt>
      <trkpt lat="45.56588" lon="6.06662">
        <ele>1680.984</ele>
        <time>2020-09-19T12:10:28Z</time>
      </trkpt>
      <trkpt lat="45.56588" lon="6.06662">
        <ele>1680.938</ele>
        <time>2020-09-19T12:10:29Z</time>
      </trkpt>
      <trkpt lat="45.56588" lon="6.06662">
        <ele>1680.938</ele>
        <time>2020-09-19T12:10:29Z</time>
      </trkpt>
      <trkpt lat="45.56588" lon="6.06662">
        <ele>1681.039</ele>
        <time>2020-09-19T12:10:30Z</time>
      </trkpt>
      <trkpt lat="45.56588" lon="6.06662">
        <ele>1681.139</ele>
        <time>2020-09-19T12:10:32Z</time>
      </trkpt>
      <trkpt lat="45.56588" lon="6.06662">
        <ele>1681.017</ele>
        <time>2020-09-19T12:10:33Z</time>
      </trkpt>
      <trkpt lat="45.56588" lon="6.06662">
        <ele>1681.423</ele>
        <time>2020-09-19T12:10:34Z</time>
      </trkpt>
      <trkpt lat="45.56588" lon="6.06662">
        <ele>1682.05</ele>
        <time>2020-09-19T12:10:36Z</time>
      </trkpt>
      <trkpt lat="45.56588" lon="6.06661">
        <ele>1681.966</ele>
        <time>2020-09-19T12:10:37Z</time>
      </trkpt>
      <trkpt lat="45.56588" lon="6.06662">
        <ele>1682.299</ele>
        <time>2020-09-19T12:10:39Z</time>
      </trkpt>
      <trkpt lat="45.56588" lon="6.06662">
        <ele>1682.113</ele>
        <time>2020-09-19T12:10:42Z</time>
      </trkpt>
      <trkpt lat="45.56588" lon="6.06661">
        <ele>1681.819</ele>
        <time>2020-09-19T12:10:43Z</time>
      </trkpt>
      <trkpt lat="45.56588" lon="6.06661">
        <ele>1681.775</ele>
        <time>2020-09-19T12:10:44Z</time>
      </trkpt>
      <trkpt lat="45.56588" lon="6.06661">
        <ele>1681.859</ele>
        <time>2020-09-19T12:10:46Z</time>
      </trkpt>
      <trkpt lat="45.56588" lon="6.06662">
        <ele>1681.743</ele>
        <time>2020-09-19T12:10:47Z</time>
      </trkpt>
      <trkpt lat="45.56588" lon="6.06662">
        <ele>1681.775</ele>
        <time>2020-09-19T12:10:48Z</time>
      </trkpt>
      <trkpt lat="45.56588" lon="6.06662">
        <ele>1681.776</ele>
        <time>2020-09-19T12:11:16Z</time>
      </trkpt>
      <trkpt lat="45.56589" lon="6.06661">
        <ele>1681.577</ele>
        <time>2020-09-19T12:11:17Z</time>
      </trkpt>
      <trkpt lat="45.56589" lon="6.06661">
        <ele>1681.426</ele>
        <time>2020-09-19T12:11:18Z</time>
      </trkpt>
      <trkpt lat="45.56589" lon="6.06661">
        <ele>1681.426</ele>
        <time>2020-09-19T12:11:18Z</time>
      </trkpt>
      <trkpt lat="45.56589" lon="6.06661">
        <ele>1681.409</ele>
        <time>2020-09-19T12:11:19Z</time>
      </trkpt>
      <trkpt lat="45.56589" lon="6.06661">
        <ele>1681.405</ele>
        <time>2020-09-19T12:11:20Z</time>
      </trkpt>
      <trkpt lat="45.56589" lon="6.06661">
        <ele>1681.351</ele>
        <time>2020-09-19T12:11:30Z</time>
      </trkpt>
      <trkpt lat="45.56588" lon="6.06662">
        <ele>1681.024</ele>
        <time>2020-09-19T12:11:31Z</time>
      </trkpt>
      <trkpt lat="45.56588" lon="6.06662">
        <ele>1681.024</ele>
        <time>2020-09-19T12:11:31Z</time>
      </trkpt>
      <trkpt lat="45.56588" lon="6.06662">
        <ele>1680.951</ele>
        <time>2020-09-19T12:11:32Z</time>
      </trkpt>
      <trkpt lat="45.56588" lon="6.06662">
        <ele>1680.854</ele>
        <time>2020-09-19T12:11:37Z</time>
      </trkpt>
      <trkpt lat="45.56588" lon="6.06662">
        <ele>1680.914</ele>
        <time>2020-09-19T12:11:38Z</time>
      </trkpt>
      <trkpt lat="45.56589" lon="6.06662">
        <ele>1681.188</ele>
        <time>2020-09-19T12:11:39Z</time>
      </trkpt>
      <trkpt lat="45.56589" lon="6.06662">
        <ele>1681.026</ele>
        <time>2020-09-19T12:11:42Z</time>
      </trkpt>
      <trkpt lat="45.56589" lon="6.06662">
        <ele>1680.486</ele>
        <time>2020-09-19T12:11:43Z</time>
      </trkpt>
      <trkpt lat="45.56589" lon="6.06662">
        <ele>1681.645</ele>
        <time>2020-09-19T12:12:19Z</time>
      </trkpt>
      <trkpt lat="45.5659" lon="6.06662">
        <ele>1681.467</ele>
        <time>2020-09-19T12:12:20Z</time>
      </trkpt>
      <trkpt lat="45.5659" lon="6.06662">
        <ele>1680.71</ele>
        <time>2020-09-19T12:12:21Z</time>
      </trkpt>
      <trkpt lat="45.5659" lon="6.06662">
        <ele>1679.857</ele>
        <time>2020-09-19T12:12:22Z</time>
      </trkpt>
      <trkpt lat="45.56591" lon="6.06661">
        <ele>1680.358</ele>
        <time>2020-09-19T12:12:23Z</time>
      </trkpt>
      <trkpt lat="45.56591" lon="6.06661">
        <ele>1679.749</ele>
        <time>2020-09-19T12:12:25Z</time>
      </trkpt>
      <trkpt lat="45.56591" lon="6.06661">
        <ele>1678.671</ele>
        <time>2020-09-19T12:12:26Z</time>
      </trkpt>
      <trkpt lat="45.56591" lon="6.06661">
        <ele>1678.962</ele>
        <time>2020-09-19T12:13:02Z</time>
      </trkpt>
      <trkpt lat="45.56591" lon="6.0666">
        <ele>1679.139</ele>
        <time>2020-09-19T12:13:03Z</time>
      </trkpt>
      <trkpt lat="45.56591" lon="6.0666">
        <ele>1679.139</ele>
        <time>2020-09-19T12:13:03Z</time>
      </trkpt>
      <trkpt lat="45.56591" lon="6.0666">
        <ele>1680.397</ele>
        <time>2020-09-19T12:13:04Z</time>
      </trkpt>
      <trkpt lat="45.56591" lon="6.0666">
        <ele>1680.397</ele>
        <time>2020-09-19T12:13:04Z</time>
      </trkpt>
      <trkpt lat="45.56591" lon="6.0666">
        <ele>1679.971</ele>
        <time>2020-09-19T12:13:05Z</time>
      </trkpt>
      <trkpt lat="45.56591" lon="6.0666">
        <ele>1679.413</ele>
        <time>2020-09-19T12:13:08Z</time>
      </trkpt>
      <trkpt lat="45.56591" lon="6.0666">
        <ele>1677.685</ele>
        <time>2020-09-19T12:13:15Z</time>
      </trkpt>
      <trkpt lat="45.56591" lon="6.0666">
        <ele>1677.235</ele>
        <time>2020-09-19T12:13:16Z</time>
      </trkpt>
      <trkpt lat="45.56591" lon="6.0666">
        <ele>1677.161</ele>
        <time>2020-09-19T12:13:17Z</time>
      </trkpt>
      <trkpt lat="45.56591" lon="6.0666">
        <ele>1677.541</ele>
        <time>2020-09-19T12:13:27Z</time>
      </trkpt>
      <trkpt lat="45.56591" lon="6.06658">
        <ele>1678.023</ele>
        <time>2020-09-19T12:13:28Z</time>
      </trkpt>
      <trkpt lat="45.5659" lon="6.06658">
        <ele>1678.954</ele>
        <time>2020-09-19T12:13:32Z</time>
      </trkpt>
      <trkpt lat="45.56589" lon="6.06658">
        <ele>1677.565</ele>
        <time>2020-09-19T12:13:34Z</time>
      </trkpt>
      <trkpt lat="45.56589" lon="6.06658">
        <ele>1677.565</ele>
        <time>2020-09-19T12:13:34Z</time>
      </trkpt>
      <trkpt lat="45.56588" lon="6.06658">
        <ele>1677.256</ele>
        <time>2020-09-19T12:13:35Z</time>
      </trkpt>
      <trkpt lat="45.56586" lon="6.06659">
        <ele>1677.042</ele>
        <time>2020-09-19T12:13:39Z</time>
      </trkpt>
      <trkpt lat="45.56586" lon="6.06661">
        <ele>1677.178</ele>
        <time>2020-09-19T12:13:47Z</time>
      </trkpt>
      <trkpt lat="45.56586" lon="6.06661">
        <ele>1677.508</ele>
        <time>2020-09-19T12:13:48Z</time>
      </trkpt>
      <trkpt lat="45.56586" lon="6.06661">
        <ele>1677.321</ele>
        <time>2020-09-19T12:13:49Z</time>
      </trkpt>
      <trkpt lat="45.56586" lon="6.06661">
        <ele>1677.425</ele>
        <time>2020-09-19T12:13:50Z</time>
      </trkpt>
      <trkpt lat="45.56586" lon="6.06661">
        <ele>1677.11</ele>
        <time>2020-09-19T12:13:52Z</time>
      </trkpt>
      <trkpt lat="45.56587" lon="6.06661">
        <ele>1677.113</ele>
        <time>2020-09-19T12:13:53Z</time>
      </trkpt>
      <trkpt lat="45.56587" lon="6.0666">
        <ele>1677.031</ele>
        <time>2020-09-19T12:13:54Z</time>
      </trkpt>
      <trkpt lat="45.56587" lon="6.0666">
        <ele>1677.144</ele>
        <time>2020-09-19T12:13:55Z</time>
      </trkpt>
      <trkpt lat="45.56587" lon="6.06661">
        <ele>1677.446</ele>
        <time>2020-09-19T12:13:56Z</time>
      </trkpt>
      <trkpt lat="45.56588" lon="6.06662">
        <ele>1677.093</ele>
        <time>2020-09-19T12:13:57Z</time>
      </trkpt>
      <trkpt lat="45.5659" lon="6.06665">
        <ele>1677.5</ele>
        <time>2020-09-19T12:14:01Z</time>
      </trkpt>
      <trkpt lat="45.5659" lon="6.06664">
        <ele>1676.641</ele>
        <time>2020-09-19T12:14:02Z</time>
      </trkpt>
      <trkpt lat="45.5659" lon="6.06664">
        <ele>1676.042</ele>
        <time>2020-09-19T12:14:03Z</time>
      </trkpt>
      <trkpt lat="45.5659" lon="6.06664">
        <ele>1675.93</ele>
        <time>2020-09-19T12:14:06Z</time>
      </trkpt>
      <trkpt lat="45.56589" lon="6.06664">
        <ele>1676.504</ele>
        <time>2020-09-19T12:14:07Z</time>
      </trkpt>
      <trkpt lat="45.56587" lon="6.06663">
        <ele>1674.922</ele>
        <time>2020-09-19T12:14:11Z</time>
      </trkpt>
      <trkpt lat="45.56587" lon="6.06663">
        <ele>1675.178</ele>
        <time>2020-09-19T12:14:12Z</time>
      </trkpt>
      <trkpt lat="45.56587" lon="6.06663">
        <ele>1675.992</ele>
        <time>2020-09-19T12:14:14Z</time>
      </trkpt>
      <trkpt lat="45.56587" lon="6.06663">
        <ele>1676.119</ele>
        <time>2020-09-19T12:14:15Z</time>
      </trkpt>
      <trkpt lat="45.56587" lon="6.06663">
        <ele>1676.081</ele>
        <time>2020-09-19T12:14:26Z</time>
      </trkpt>
      <trkpt lat="45.56587" lon="6.06663">
        <ele>1675.743</ele>
        <time>2020-09-19T12:14:27Z</time>
      </trkpt>
      <trkpt lat="45.56587" lon="6.06663">
        <ele>1675.743</ele>
        <time>2020-09-19T12:14:27Z</time>
      </trkpt>
      <trkpt lat="45.56587" lon="6.06663">
        <ele>1676.072</ele>
        <time>2020-09-19T12:14:28Z</time>
      </trkpt>
      <trkpt lat="45.56587" lon="6.06663">
        <ele>1676.072</ele>
        <time>2020-09-19T12:14:28Z</time>
      </trkpt>
      <trkpt lat="45.56586" lon="6.06663">
        <ele>1676.396</ele>
        <time>2020-09-19T12:14:29Z</time>
      </trkpt>
      <trkpt lat="45.56586" lon="6.06663">
        <ele>1676.396</ele>
        <time>2020-09-19T12:14:29Z</time>
      </trkpt>
      <trkpt lat="45.56586" lon="6.06663">
        <ele>1676.391</ele>
        <time>2020-09-19T12:14:30Z</time>
      </trkpt>
      <trkpt lat="45.56586" lon="6.06663">
        <ele>1677.145</ele>
        <time>2020-09-19T12:15:41Z</time>
      </trkpt>
      <trkpt lat="45.56588" lon="6.06663">
        <ele>1677.664</ele>
        <time>2020-09-19T12:15:42Z</time>
      </trkpt>
      <trkpt lat="45.56588" lon="6.06663">
        <ele>1677.832</ele>
        <time>2020-09-19T12:15:44Z</time>
      </trkpt>
      <trkpt lat="45.56588" lon="6.06663">
        <ele>1676.789</ele>
        <time>2020-09-19T12:15:45Z</time>
      </trkpt>
      <trkpt lat="45.56589" lon="6.06665">
        <ele>1676.784</ele>
        <time>2020-09-19T12:15:46Z</time>
      </trkpt>
      <trkpt lat="45.56589" lon="6.06665">
        <ele>1676.763</ele>
        <time>2020-09-19T12:15:47Z</time>
      </trkpt>
      <trkpt lat="45.56589" lon="6.06665">
        <ele>1678.087</ele>
        <time>2020-09-19T12:16:24Z</time>
      </trkpt>
      <trkpt lat="45.56589" lon="6.06666">
        <ele>1678.038</ele>
        <time>2020-09-19T12:16:25Z</time>
      </trkpt>
      <trkpt lat="45.56588" lon="6.06668">
        <ele>1678.2</ele>
        <time>2020-09-19T12:16:27Z</time>
      </trkpt>
      <trkpt lat="45.56584" lon="6.06672">
        <ele>1678.954</ele>
        <time>2020-09-19T12:16:30Z</time>
      </trkpt>
      <trkpt lat="45.56582" lon="6.06675">
        <ele>1679.551</ele>
        <time>2020-09-19T12:16:33Z</time>
      </trkpt>
      <trkpt lat="45.56582" lon="6.06675">
        <ele>1679.014</ele>
        <time>2020-09-19T12:16:34Z</time>
      </trkpt>
      <trkpt lat="45.56582" lon="6.06675">
        <ele>1679.014</ele>
        <time>2020-09-19T12:16:34Z</time>
      </trkpt>
      <trkpt lat="45.56584" lon="6.06671">
        <ele>1678.392</ele>
        <time>2020-09-19T12:16:35Z</time>
      </trkpt>
      <trkpt lat="45.56586" lon="6.06667">
        <ele>1677.596</ele>
        <time>2020-09-19T12:16:36Z</time>
      </trkpt>
      <trkpt lat="45.5659" lon="6.06659">
        <ele>1678.328</ele>
        <time>2020-09-19T12:16:39Z</time>
      </trkpt>
      <trkpt lat="45.5659" lon="6.06658">
        <ele>1676.489</ele>
        <time>2020-09-19T12:16:43Z</time>
      </trkpt>
      <trkpt lat="45.56589" lon="6.06659">
        <ele>1676.236</ele>
        <time>2020-09-19T12:16:44Z</time>
      </trkpt>
      <trkpt lat="45.56589" lon="6.06659">
        <ele>1676.236</ele>
        <time>2020-09-19T12:16:44Z</time>
      </trkpt>
      <trkpt lat="45.5659" lon="6.06659">
        <ele>1676.502</ele>
        <time>2020-09-19T12:16:45Z</time>
      </trkpt>
      <trkpt lat="45.5659" lon="6.06659">
        <ele>1676.73</ele>
        <time>2020-09-19T12:16:46Z</time>
      </trkpt>
      <trkpt lat="45.5659" lon="6.06659">
        <ele>1676.73</ele>
        <time>2020-09-19T12:16:46Z</time>
      </trkpt>
      <trkpt lat="45.56591" lon="6.06659">
        <ele>1675.486</ele>
        <time>2020-09-19T12:16:47Z</time>
      </trkpt>
      <trkpt lat="45.56591" lon="6.06659">
        <ele>1675.382</ele>
        <time>2020-09-19T12:16:48Z</time>
      </trkpt>
      <trkpt lat="45.56591" lon="6.06659">
        <ele>1675.061</ele>
        <time>2020-09-19T12:16:51Z</time>
      </trkpt>
      <trkpt lat="45.56592" lon="6.06659">
        <ele>1675.135</ele>
        <time>2020-09-19T12:16:52Z</time>
      </trkpt>
      <trkpt lat="45.56592" lon="6.06659">
        <ele>1675.402</ele>
        <time>2020-09-19T12:16:53Z</time>
      </trkpt>
      <trkpt lat="45.56592" lon="6.06658">
        <ele>1675.309</ele>
        <time>2020-09-19T12:16:54Z</time>
      </trkpt>
      <trkpt lat="45.56592" lon="6.06657">
        <ele>1674.775</ele>
        <time>2020-09-19T12:16:55Z</time>
      </trkpt>
      <trkpt lat="45.56592" lon="6.06656">
        <ele>1675.343</ele>
        <time>2020-09-19T12:16:56Z</time>
      </trkpt>
      <trkpt lat="45.56592" lon="6.06656">
        <ele>1675.343</ele>
        <time>2020-09-19T12:16:56Z</time>
      </trkpt>
      <trkpt lat="45.56592" lon="6.06656">
        <ele>1675.455</ele>
        <time>2020-09-19T12:16:57Z</time>
      </trkpt>
      <trkpt lat="45.56592" lon="6.06656">
        <ele>1675.28</ele>
        <time>2020-09-19T12:17:37Z</time>
      </trkpt>
      <trkpt lat="45.56592" lon="6.06658">
        <ele>1675.965</ele>
        <time>2020-09-19T12:17:38Z</time>
      </trkpt>
      <trkpt lat="45.56592" lon="6.06658">
        <ele>1676.497</ele>
        <time>2020-09-19T12:17:39Z</time>
      </trkpt>
      <trkpt lat="45.56592" lon="6.06658">
        <ele>1676.497</ele>
        <time>2020-09-19T12:17:39Z</time>
      </trkpt>
      <trkpt lat="45.56592" lon="6.06659">
        <ele>1676.984</ele>
        <time>2020-09-19T12:17:40Z</time>
      </trkpt>
      <trkpt lat="45.56592" lon="6.06658">
        <ele>1676.225</ele>
        <time>2020-09-19T12:17:41Z</time>
      </trkpt>
      <trkpt lat="45.56592" lon="6.06658">
        <ele>1672.993</ele>
        <time>2020-09-19T12:17:42Z</time>
      </trkpt>
      <trkpt lat="45.56592" lon="6.06658">
        <ele>1673.954</ele>
        <time>2020-09-19T12:17:43Z</time>
      </trkpt>
      <trkpt lat="45.56591" lon="6.06659">
        <ele>1672.608</ele>
        <time>2020-09-19T12:17:44Z</time>
      </trkpt>
      <trkpt lat="45.56591" lon="6.06661">
        <ele>1673.596</ele>
        <time>2020-09-19T12:17:46Z</time>
      </trkpt>
      <trkpt lat="45.56591" lon="6.06661">
        <ele>1673.75</ele>
        <time>2020-09-19T12:17:47Z</time>
      </trkpt>
      <trkpt lat="45.56591" lon="6.06661">
        <ele>1674.03</ele>
        <time>2020-09-19T12:18:00Z</time>
      </trkpt>
      <trkpt lat="45.56591" lon="6.06662">
        <ele>1673.596</ele>
        <time>2020-09-19T12:18:01Z</time>
      </trkpt>
      <trkpt lat="45.56591" lon="6.06662">
        <ele>1673.596</ele>
        <time>2020-09-19T12:18:01Z</time>
      </trkpt>
      <trkpt lat="45.56591" lon="6.06662">
        <ele>1673.563</ele>
        <time>2020-09-19T12:18:02Z</time>
      </trkpt>
      <trkpt lat="45.56591" lon="6.06662">
        <ele>1673.418</ele>
        <time>2020-09-19T12:18:50Z</time>
      </trkpt>
      <trkpt lat="45.56591" lon="6.06661">
        <ele>1673.502</ele>
        <time>2020-09-19T12:18:51Z</time>
      </trkpt>
      <trkpt lat="45.56591" lon="6.06661">
        <ele>1673.471</ele>
        <time>2020-09-19T12:18:52Z</time>
      </trkpt>
      <trkpt lat="45.56591" lon="6.06661">
        <ele>1674.875</ele>
        <time>2020-09-19T12:19:08Z</time>
      </trkpt>
      <trkpt lat="45.56592" lon="6.0666">
        <ele>1674.856</ele>
        <time>2020-09-19T12:19:09Z</time>
      </trkpt>
      <trkpt lat="45.56592" lon="6.06661">
        <ele>1675.448</ele>
        <time>2020-09-19T12:19:11Z</time>
      </trkpt>
      <trkpt lat="45.56592" lon="6.06661">
        <ele>1675.646</ele>
        <time>2020-09-19T12:19:12Z</time>
      </trkpt>
      <trkpt lat="45.56592" lon="6.06661">
        <ele>1675.288</ele>
        <time>2020-09-19T12:19:23Z</time>
      </trkpt>
      <trkpt lat="45.56593" lon="6.06662">
        <ele>1674.94</ele>
        <time>2020-09-19T12:19:24Z</time>
      </trkpt>
      <trkpt lat="45.56593" lon="6.06662">
        <ele>1675.051</ele>
        <time>2020-09-19T12:19:25Z</time>
      </trkpt>
      <trkpt lat="45.56593" lon="6.06662">
        <ele>1675.051</ele>
        <time>2020-09-19T12:19:25Z</time>
      </trkpt>
      <trkpt lat="45.56593" lon="6.06662">
        <ele>1675.273</ele>
        <time>2020-09-19T12:19:26Z</time>
      </trkpt>
      <trkpt lat="45.56593" lon="6.06662">
        <ele>1675.354</ele>
        <time>2020-09-19T12:19:27Z</time>
      </trkpt>
      <trkpt lat="45.56593" lon="6.06662">
        <ele>1675.273</ele>
        <time>2020-09-19T12:19:35Z</time>
      </trkpt>
      <trkpt lat="45.56593" lon="6.06661">
        <ele>1675.359</ele>
        <time>2020-09-19T12:19:36Z</time>
      </trkpt>
      <trkpt lat="45.56593" lon="6.06661">
        <ele>1675.066</ele>
        <time>2020-09-19T12:19:37Z</time>
      </trkpt>
      <trkpt lat="45.56593" lon="6.06661">
        <ele>1675.066</ele>
        <time>2020-09-19T12:19:37Z</time>
      </trkpt>
      <trkpt lat="45.56593" lon="6.06661">
        <ele>1674.409</ele>
        <time>2020-09-19T12:19:38Z</time>
      </trkpt>
      <trkpt lat="45.56593" lon="6.06661">
        <ele>1675.212</ele>
        <time>2020-09-19T12:19:39Z</time>
      </trkpt>
      <trkpt lat="45.56593" lon="6.06661">
        <ele>1675.359</ele>
        <time>2020-09-19T12:19:41Z</time>
      </trkpt>
      <trkpt lat="45.56594" lon="6.06661">
        <ele>1675.854</ele>
        <time>2020-09-19T12:19:42Z</time>
      </trkpt>
      <trkpt lat="45.56594" lon="6.06661">
        <ele>1675.828</ele>
        <time>2020-09-19T12:19:43Z</time>
      </trkpt>
      <trkpt lat="45.56594" lon="6.06661">
        <ele>1675.828</ele>
        <time>2020-09-19T12:19:43Z</time>
      </trkpt>
      <trkpt lat="45.56594" lon="6.06661">
        <ele>1676.169</ele>
        <time>2020-09-19T12:19:44Z</time>
      </trkpt>
      <trkpt lat="45.56594" lon="6.06663">
        <ele>1673.701</ele>
        <time>2020-09-19T12:19:46Z</time>
      </trkpt>
      <trkpt lat="45.56594" lon="6.06664">
        <ele>1673.482</ele>
        <time>2020-09-19T12:19:48Z</time>
      </trkpt>
      <trkpt lat="45.56594" lon="6.06664">
        <ele>1673.482</ele>
        <time>2020-09-19T12:19:48Z</time>
      </trkpt>
      <trkpt lat="45.56594" lon="6.06665">
        <ele>1673.225</ele>
        <time>2020-09-19T12:19:49Z</time>
      </trkpt>
      <trkpt lat="45.56595" lon="6.06666">
        <ele>1673.055</ele>
        <time>2020-09-19T12:19:50Z</time>
      </trkpt>
      <trkpt lat="45.56595" lon="6.06667">
        <ele>1673.434</ele>
        <time>2020-09-19T12:19:51Z</time>
      </trkpt>
      <trkpt lat="45.56597" lon="6.0667">
        <ele>1673.971</ele>
        <time>2020-09-19T12:19:54Z</time>
      </trkpt>
      <trkpt lat="45.56597" lon="6.06671">
        <ele>1673.762</ele>
        <time>2020-09-19T12:19:55Z</time>
      </trkpt>
      <trkpt lat="45.56597" lon="6.06672">
        <ele>1674.374</ele>
        <time>2020-09-19T12:19:56Z</time>
      </trkpt>
      <trkpt lat="45.56597" lon="6.06673">
        <ele>1674.436</ele>
        <time>2020-09-19T12:19:57Z</time>
      </trkpt>
      <trkpt lat="45.56596" lon="6.06674">
        <ele>1672.831</ele>
        <time>2020-09-19T12:20:01Z</time>
      </trkpt>
      <trkpt lat="45.56596" lon="6.06674">
        <ele>1673.129</ele>
        <time>2020-09-19T12:20:02Z</time>
      </trkpt>
      <trkpt lat="45.56596" lon="6.06674">
        <ele>1673.109</ele>
        <time>2020-09-19T12:20:03Z</time>
      </trkpt>
      <trkpt lat="45.56596" lon="6.06675">
        <ele>1672.976</ele>
        <time>2020-09-19T12:20:05Z</time>
      </trkpt>
      <trkpt lat="45.56596" lon="6.06679">
        <ele>1673.083</ele>
        <time>2020-09-19T12:20:09Z</time>
      </trkpt>
      <trkpt lat="45.56596" lon="6.06685">
        <ele>1673.806</ele>
        <time>2020-09-19T12:20:14Z</time>
      </trkpt>
      <trkpt lat="45.56596" lon="6.06685">
        <ele>1673.806</ele>
        <time>2020-09-19T12:20:14Z</time>
      </trkpt>
      <trkpt lat="45.56595" lon="6.06686">
        <ele>1673.549</ele>
        <time>2020-09-19T12:20:15Z</time>
      </trkpt>
      <trkpt lat="45.56595" lon="6.06686">
        <ele>1673.499</ele>
        <time>2020-09-19T12:20:16Z</time>
      </trkpt>
      <trkpt lat="45.56595" lon="6.06686">
        <ele>1673.499</ele>
        <time>2020-09-19T12:20:16Z</time>
      </trkpt>
      <trkpt lat="45.56594" lon="6.06688">
        <ele>1673.676</ele>
        <time>2020-09-19T12:20:17Z</time>
      </trkpt>
      <trkpt lat="45.56594" lon="6.06688">
        <ele>1673.676</ele>
        <time>2020-09-19T12:20:17Z</time>
      </trkpt>
      <trkpt lat="45.56594" lon="6.06688">
        <ele>1673.358</ele>
        <time>2020-09-19T12:20:18Z</time>
      </trkpt>
      <trkpt lat="45.56594" lon="6.06688">
        <ele>1673.165</ele>
        <time>2020-09-19T12:20:52Z</time>
      </trkpt>
      <trkpt lat="45.56593" lon="6.06689">
        <ele>1673.774</ele>
        <time>2020-09-19T12:20:53Z</time>
      </trkpt>
      <trkpt lat="45.56593" lon="6.06689">
        <ele>1673.84</ele>
        <time>2020-09-19T12:20:55Z</time>
      </trkpt>
      <trkpt lat="45.56593" lon="6.06689">
        <ele>1673.535</ele>
        <time>2020-09-19T12:21:23Z</time>
      </trkpt>
      <trkpt lat="45.56594" lon="6.06689">
        <ele>1673.927</ele>
        <time>2020-09-19T12:21:24Z</time>
      </trkpt>
      <trkpt lat="45.56595" lon="6.06691">
        <ele>1673.612</ele>
        <time>2020-09-19T12:21:27Z</time>
      </trkpt>
      <trkpt lat="45.56595" lon="6.06691">
        <ele>1673.398</ele>
        <time>2020-09-19T12:21:28Z</time>
      </trkpt>
      <trkpt lat="45.56595" lon="6.06691">
        <ele>1673.212</ele>
        <time>2020-09-19T12:21:33Z</time>
      </trkpt>
      <trkpt lat="45.56597" lon="6.06692">
        <ele>1672.969</ele>
        <time>2020-09-19T12:21:34Z</time>
      </trkpt>
      <trkpt lat="45.56597" lon="6.06694">
        <ele>1673.413</ele>
        <time>2020-09-19T12:21:35Z</time>
      </trkpt>
      <trkpt lat="45.56596" lon="6.06696">
        <ele>1672.279</ele>
        <time>2020-09-19T12:21:38Z</time>
      </trkpt>
      <trkpt lat="45.56595" lon="6.06696">
        <ele>1672.087</ele>
        <time>2020-09-19T12:21:39Z</time>
      </trkpt>
      <trkpt lat="45.56595" lon="6.06696">
        <ele>1672.282</ele>
        <time>2020-09-19T12:21:40Z</time>
      </trkpt>
      <trkpt lat="45.56595" lon="6.06696">
        <ele>1672.077</ele>
        <time>2020-09-19T12:21:44Z</time>
      </trkpt>
      <trkpt lat="45.56596" lon="6.06696">
        <ele>1671.626</ele>
        <time>2020-09-19T12:21:45Z</time>
      </trkpt>
      <trkpt lat="45.56596" lon="6.06696">
        <ele>1671.574</ele>
        <time>2020-09-19T12:21:46Z</time>
      </trkpt>
      <trkpt lat="45.56596" lon="6.06696">
        <ele>1671.574</ele>
        <time>2020-09-19T12:21:46Z</time>
      </trkpt>
      <trkpt lat="45.56596" lon="6.06697">
        <ele>1671.965</ele>
        <time>2020-09-19T12:21:47Z</time>
      </trkpt>
      <trkpt lat="45.56597" lon="6.067">
        <ele>1673.32</ele>
        <time>2020-09-19T12:21:52Z</time>
      </trkpt>
      <trkpt lat="45.56597" lon="6.067">
        <ele>1673.32</ele>
        <time>2020-09-19T12:21:52Z</time>
      </trkpt>
      <trkpt lat="45.56598" lon="6.067">
        <ele>1672.993</ele>
        <time>2020-09-19T12:21:53Z</time>
      </trkpt>
      <trkpt lat="45.56599" lon="6.06701">
        <ele>1673.65</ele>
        <time>2020-09-19T12:21:54Z</time>
      </trkpt>
      <trkpt lat="45.56599" lon="6.06701">
        <ele>1673.234</ele>
        <time>2020-09-19T12:21:56Z</time>
      </trkpt>
      <trkpt lat="45.56599" lon="6.06701">
        <ele>1673.321</ele>
        <time>2020-09-19T12:21:58Z</time>
      </trkpt>
      <trkpt lat="45.56599" lon="6.06703">
        <ele>1672.05</ele>
        <time>2020-09-19T12:21:59Z</time>
      </trkpt>
      <trkpt lat="45.566" lon="6.06702">
        <ele>1671.737</ele>
        <time>2020-09-19T12:22:02Z</time>
      </trkpt>
      <trkpt lat="45.56601" lon="6.06701">
        <ele>1672.078</ele>
        <time>2020-09-19T12:22:04Z</time>
      </trkpt>
      <trkpt lat="45.56602" lon="6.06703">
        <ele>1673.574</ele>
        <time>2020-09-19T12:22:10Z</time>
      </trkpt>
      <trkpt lat="45.56602" lon="6.06704">
        <ele>1673.735</ele>
        <time>2020-09-19T12:22:11Z</time>
      </trkpt>
      <trkpt lat="45.56602" lon="6.06705">
        <ele>1673.706</ele>
        <time>2020-09-19T12:22:12Z</time>
      </trkpt>
      <trkpt lat="45.56603" lon="6.06708">
        <ele>1673.334</ele>
        <time>2020-09-19T12:22:16Z</time>
      </trkpt>
      <trkpt lat="45.56603" lon="6.06708">
        <ele>1672.847</ele>
        <time>2020-09-19T12:22:17Z</time>
      </trkpt>
      <trkpt lat="45.56603" lon="6.06708">
        <ele>1672.992</ele>
        <time>2020-09-19T12:22:18Z</time>
      </trkpt>
      <trkpt lat="45.56602" lon="6.06711">
        <ele>1672.033</ele>
        <time>2020-09-19T12:22:23Z</time>
      </trkpt>
      <trkpt lat="45.56602" lon="6.06711">
        <ele>1672.064</ele>
        <time>2020-09-19T12:22:24Z</time>
      </trkpt>
      <trkpt lat="45.56602" lon="6.06711">
        <ele>1672.064</ele>
        <time>2020-09-19T12:22:24Z</time>
      </trkpt>
      <trkpt lat="45.56602" lon="6.06712">
        <ele>1672.022</ele>
        <time>2020-09-19T12:22:25Z</time>
      </trkpt>
      <trkpt lat="45.56604" lon="6.06713">
        <ele>1671.531</ele>
        <time>2020-09-19T12:22:28Z</time>
      </trkpt>
      <trkpt lat="45.56606" lon="6.06713">
        <ele>1670.378</ele>
        <time>2020-09-19T12:22:31Z</time>
      </trkpt>
      <trkpt lat="45.56608" lon="6.06715">
        <ele>1670.18</ele>
        <time>2020-09-19T12:22:34Z</time>
      </trkpt>
      <trkpt lat="45.56608" lon="6.06717">
        <ele>1670.073</ele>
        <time>2020-09-19T12:22:40Z</time>
      </trkpt>
      <trkpt lat="45.56608" lon="6.06717">
        <ele>1670.073</ele>
        <time>2020-09-19T12:22:40Z</time>
      </trkpt>
      <trkpt lat="45.56608" lon="6.06718">
        <ele>1669.961</ele>
        <time>2020-09-19T12:22:41Z</time>
      </trkpt>
      <trkpt lat="45.56607" lon="6.06719">
        <ele>1669.931</ele>
        <time>2020-09-19T12:22:43Z</time>
      </trkpt>
      <trkpt lat="45.56607" lon="6.06724">
        <ele>1669.201</ele>
        <time>2020-09-19T12:22:47Z</time>
      </trkpt>
      <trkpt lat="45.56608" lon="6.06729">
        <ele>1668.755</ele>
        <time>2020-09-19T12:22:52Z</time>
      </trkpt>
      <trkpt lat="45.5661" lon="6.06733">
        <ele>1668.158</ele>
        <time>2020-09-19T12:22:58Z</time>
      </trkpt>
      <trkpt lat="45.56615" lon="6.06741">
        <ele>1666.936</ele>
        <time>2020-09-19T12:23:11Z</time>
      </trkpt>
      <trkpt lat="45.56615" lon="6.06742">
        <ele>1667.041</ele>
        <time>2020-09-19T12:23:13Z</time>
      </trkpt>
      <trkpt lat="45.56616" lon="6.06742">
        <ele>1666.637</ele>
        <time>2020-09-19T12:23:14Z</time>
      </trkpt>
      <trkpt lat="45.56616" lon="6.06742">
        <ele>1666.557</ele>
        <time>2020-09-19T12:23:15Z</time>
      </trkpt>
      <trkpt lat="45.56616" lon="6.06745">
        <ele>1667.219</ele>
        <time>2020-09-19T12:23:17Z</time>
      </trkpt>
      <trkpt lat="45.56616" lon="6.06745">
        <ele>1667.276</ele>
        <time>2020-09-19T12:23:18Z</time>
      </trkpt>
      <trkpt lat="45.56616" lon="6.06746">
        <ele>1667.235</ele>
        <time>2020-09-19T12:23:19Z</time>
      </trkpt>
      <trkpt lat="45.56616" lon="6.06746">
        <ele>1667.346</ele>
        <time>2020-09-19T12:23:22Z</time>
      </trkpt>
      <trkpt lat="45.56616" lon="6.06746">
        <ele>1667.362</ele>
        <time>2020-09-19T12:23:23Z</time>
      </trkpt>
      <trkpt lat="45.56616" lon="6.06746">
        <ele>1667.362</ele>
        <time>2020-09-19T12:23:23Z</time>
      </trkpt>
      <trkpt lat="45.56616" lon="6.06746">
        <ele>1667.57</ele>
        <time>2020-09-19T12:23:24Z</time>
      </trkpt>
      <trkpt lat="45.56617" lon="6.06748">
        <ele>1667.61</ele>
        <time>2020-09-19T12:23:26Z</time>
      </trkpt>
      <trkpt lat="45.56617" lon="6.06748">
        <ele>1667.457</ele>
        <time>2020-09-19T12:23:27Z</time>
      </trkpt>
      <trkpt lat="45.56619" lon="6.0675">
        <ele>1666.807</ele>
        <time>2020-09-19T12:23:34Z</time>
      </trkpt>
      <trkpt lat="45.56619" lon="6.06751">
        <ele>1666.577</ele>
        <time>2020-09-19T12:23:36Z</time>
      </trkpt>
      <trkpt lat="45.56619" lon="6.06752">
        <ele>1666.584</ele>
        <time>2020-09-19T12:23:37Z</time>
      </trkpt>
      <trkpt lat="45.56619" lon="6.06753">
        <ele>1666.947</ele>
        <time>2020-09-19T12:23:39Z</time>
      </trkpt>
      <trkpt lat="45.56619" lon="6.06754">
        <ele>1666.407</ele>
        <time>2020-09-19T12:23:42Z</time>
      </trkpt>
      <trkpt lat="45.56619" lon="6.06754">
        <ele>1665.797</ele>
        <time>2020-09-19T12:23:44Z</time>
      </trkpt>
      <trkpt lat="45.56619" lon="6.06755">
        <ele>1665.56</ele>
        <time>2020-09-19T12:23:46Z</time>
      </trkpt>
      <trkpt lat="45.56619" lon="6.06755">
        <ele>1665.592</ele>
        <time>2020-09-19T12:23:47Z</time>
      </trkpt>
      <trkpt lat="45.56619" lon="6.06755">
        <ele>1665.592</ele>
        <time>2020-09-19T12:23:47Z</time>
      </trkpt>
      <trkpt lat="45.5662" lon="6.06755">
        <ele>1665.118</ele>
        <time>2020-09-19T12:23:48Z</time>
      </trkpt>
      <trkpt lat="45.56621" lon="6.06756">
        <ele>1664.901</ele>
        <time>2020-09-19T12:23:51Z</time>
      </trkpt>
      <trkpt lat="45.56622" lon="6.06757">
        <ele>1664.929</ele>
        <time>2020-09-19T12:23:55Z</time>
      </trkpt>
      <trkpt lat="45.56622" lon="6.06758">
        <ele>1664.907</ele>
        <time>2020-09-19T12:23:57Z</time>
      </trkpt>
      <trkpt lat="45.56622" lon="6.06758">
        <ele>1665.022</ele>
        <time>2020-09-19T12:23:58Z</time>
      </trkpt>
      <trkpt lat="45.56622" lon="6.06758">
        <ele>1665.022</ele>
        <time>2020-09-19T12:23:58Z</time>
      </trkpt>
      <trkpt lat="45.56623" lon="6.06757">
        <ele>1664.688</ele>
        <time>2020-09-19T12:23:59Z</time>
      </trkpt>
      <trkpt lat="45.56623" lon="6.06756">
        <ele>1664.993</ele>
        <time>2020-09-19T12:24:00Z</time>
      </trkpt>
      <trkpt lat="45.56624" lon="6.06755">
        <ele>1664.782</ele>
        <time>2020-09-19T12:24:04Z</time>
      </trkpt>
      <trkpt lat="45.56624" lon="6.06755">
        <ele>1664.782</ele>
        <time>2020-09-19T12:24:04Z</time>
      </trkpt>
      <trkpt lat="45.56624" lon="6.06755">
        <ele>1664.974</ele>
        <time>2020-09-19T12:24:05Z</time>
      </trkpt>
      <trkpt lat="45.56624" lon="6.06755">
        <ele>1664.441</ele>
        <time>2020-09-19T12:24:06Z</time>
      </trkpt>
      <trkpt lat="45.56624" lon="6.06755">
        <ele>1664.724</ele>
        <time>2020-09-19T12:24:14Z</time>
      </trkpt>
      <trkpt lat="45.56624" lon="6.06755">
        <ele>1665.019</ele>
        <time>2020-09-19T12:24:15Z</time>
      </trkpt>
      <trkpt lat="45.56625" lon="6.06756">
        <ele>1665.421</ele>
        <time>2020-09-19T12:24:16Z</time>
      </trkpt>
      <trkpt lat="45.56625" lon="6.06756">
        <ele>1665.337</ele>
        <time>2020-09-19T12:24:17Z</time>
      </trkpt>
      <trkpt lat="45.56625" lon="6.06757">
        <ele>1665.194</ele>
        <time>2020-09-19T12:24:19Z</time>
      </trkpt>
      <trkpt lat="45.56625" lon="6.06757">
        <ele>1665.194</ele>
        <time>2020-09-19T12:24:19Z</time>
      </trkpt>
      <trkpt lat="45.56625" lon="6.06757">
        <ele>1664.997</ele>
        <time>2020-09-19T12:24:20Z</time>
      </trkpt>
      <trkpt lat="45.56625" lon="6.06757">
        <ele>1664.997</ele>
        <time>2020-09-19T12:24:20Z</time>
      </trkpt>
      <trkpt lat="45.56625" lon="6.06758">
        <ele>1664.607</ele>
        <time>2020-09-19T12:24:21Z</time>
      </trkpt>
      <trkpt lat="45.56625" lon="6.06758">
        <ele>1664.578</ele>
        <time>2020-09-19T12:24:22Z</time>
      </trkpt>
      <trkpt lat="45.56625" lon="6.06758">
        <ele>1664.493</ele>
        <time>2020-09-19T12:24:26Z</time>
      </trkpt>
      <trkpt lat="45.56626" lon="6.06759">
        <ele>1663.97</ele>
        <time>2020-09-19T12:24:27Z</time>
      </trkpt>
      <trkpt lat="45.56626" lon="6.0676">
        <ele>1664.119</ele>
        <time>2020-09-19T12:24:28Z</time>
      </trkpt>
      <trkpt lat="45.56626" lon="6.06761">
        <ele>1664.305</ele>
        <time>2020-09-19T12:24:29Z</time>
      </trkpt>
      <trkpt lat="45.56626" lon="6.06762">
        <ele>1664.237</ele>
        <time>2020-09-19T12:24:30Z</time>
      </trkpt>
      <trkpt lat="45.56627" lon="6.06762">
        <ele>1663.545</ele>
        <time>2020-09-19T12:24:31Z</time>
      </trkpt>
      <trkpt lat="45.56627" lon="6.06763">
        <ele>1663.236</ele>
        <time>2020-09-19T12:24:32Z</time>
      </trkpt>
      <trkpt lat="45.56627" lon="6.06763">
        <ele>1662.897</ele>
        <time>2020-09-19T12:24:33Z</time>
      </trkpt>
      <trkpt lat="45.56627" lon="6.06763">
        <ele>1662.897</ele>
        <time>2020-09-19T12:24:33Z</time>
      </trkpt>
      <trkpt lat="45.56627" lon="6.06764">
        <ele>1662.671</ele>
        <time>2020-09-19T12:24:34Z</time>
      </trkpt>
      <trkpt lat="45.56626" lon="6.0678">
        <ele>1663.06</ele>
        <time>2020-09-19T12:24:48Z</time>
      </trkpt>
      <trkpt lat="45.56627" lon="6.06782">
        <ele>1662.867</ele>
        <time>2020-09-19T12:24:50Z</time>
      </trkpt>
      <trkpt lat="45.56628" lon="6.06782">
        <ele>1662.737</ele>
        <time>2020-09-19T12:24:51Z</time>
      </trkpt>
      <trkpt lat="45.56628" lon="6.06785">
        <ele>1662.709</ele>
        <time>2020-09-19T12:24:53Z</time>
      </trkpt>
      <trkpt lat="45.56631" lon="6.06799">
        <ele>1663.046</ele>
        <time>2020-09-19T12:25:03Z</time>
      </trkpt>
      <trkpt lat="45.56635" lon="6.06802">
        <ele>1663.336</ele>
        <time>2020-09-19T12:25:13Z</time>
      </trkpt>
      <trkpt lat="45.56636" lon="6.06802">
        <ele>1662.766</ele>
        <time>2020-09-19T12:25:15Z</time>
      </trkpt>
      <trkpt lat="45.56636" lon="6.06802">
        <ele>1662.685</ele>
        <time>2020-09-19T12:25:16Z</time>
      </trkpt>
      <trkpt lat="45.56636" lon="6.06802">
        <ele>1663.474</ele>
        <time>2020-09-19T12:25:17Z</time>
      </trkpt>
      <trkpt lat="45.56636" lon="6.06802">
        <ele>1663.474</ele>
        <time>2020-09-19T12:25:17Z</time>
      </trkpt>
      <trkpt lat="45.56637" lon="6.06801">
        <ele>1663.314</ele>
        <time>2020-09-19T12:25:18Z</time>
      </trkpt>
      <trkpt lat="45.56637" lon="6.06801">
        <ele>1663.821</ele>
        <time>2020-09-19T12:25:20Z</time>
      </trkpt>
      <trkpt lat="45.56637" lon="6.06801">
        <ele>1663.821</ele>
        <time>2020-09-19T12:25:20Z</time>
      </trkpt>
      <trkpt lat="45.56637" lon="6.068">
        <ele>1663.734</ele>
        <time>2020-09-19T12:25:21Z</time>
      </trkpt>
      <trkpt lat="45.56637" lon="6.068">
        <ele>1663.381</ele>
        <time>2020-09-19T12:25:23Z</time>
      </trkpt>
      <trkpt lat="45.56638" lon="6.06799">
        <ele>1663.238</ele>
        <time>2020-09-19T12:25:24Z</time>
      </trkpt>
      <trkpt lat="45.56638" lon="6.06799">
        <ele>1662.833</ele>
        <time>2020-09-19T12:25:25Z</time>
      </trkpt>
      <trkpt lat="45.56642" lon="6.068">
        <ele>1662.305</ele>
        <time>2020-09-19T12:25:30Z</time>
      </trkpt>
      <trkpt lat="45.56643" lon="6.06803">
        <ele>1661.716</ele>
        <time>2020-09-19T12:25:36Z</time>
      </trkpt>
      <trkpt lat="45.56643" lon="6.06804">
        <ele>1661.641</ele>
        <time>2020-09-19T12:25:37Z</time>
      </trkpt>
      <trkpt lat="45.56644" lon="6.06806">
        <ele>1661.506</ele>
        <time>2020-09-19T12:25:40Z</time>
      </trkpt>
      <trkpt lat="45.56644" lon="6.06807">
        <ele>1661.424</ele>
        <time>2020-09-19T12:25:41Z</time>
      </trkpt>
      <trkpt lat="45.56645" lon="6.06807">
        <ele>1661.179</ele>
        <time>2020-09-19T12:25:43Z</time>
      </trkpt>
      <trkpt lat="45.56645" lon="6.06807">
        <ele>1661.084</ele>
        <time>2020-09-19T12:25:44Z</time>
      </trkpt>
      <trkpt lat="45.56645" lon="6.06807">
        <ele>1660.738</ele>
        <time>2020-09-19T12:25:45Z</time>
      </trkpt>
      <trkpt lat="45.56645" lon="6.06807">
        <ele>1660.768</ele>
        <time>2020-09-19T12:25:46Z</time>
      </trkpt>
      <trkpt lat="45.56645" lon="6.06807">
        <ele>1660.731</ele>
        <time>2020-09-19T12:25:47Z</time>
      </trkpt>
      <trkpt lat="45.56646" lon="6.06808">
        <ele>1660.549</ele>
        <time>2020-09-19T12:25:48Z</time>
      </trkpt>
      <trkpt lat="45.56646" lon="6.06809">
        <ele>1660.417</ele>
        <time>2020-09-19T12:25:49Z</time>
      </trkpt>
      <trkpt lat="45.56648" lon="6.06812">
        <ele>1659.672</ele>
        <time>2020-09-19T12:25:53Z</time>
      </trkpt>
      <trkpt lat="45.56647" lon="6.06812">
        <ele>1660.043</ele>
        <time>2020-09-19T12:25:56Z</time>
      </trkpt>
      <trkpt lat="45.56647" lon="6.06814">
        <ele>1660.01</ele>
        <time>2020-09-19T12:25:58Z</time>
      </trkpt>
      <trkpt lat="45.56648" lon="6.06814">
        <ele>1659.955</ele>
        <time>2020-09-19T12:26:00Z</time>
      </trkpt>
      <trkpt lat="45.56649" lon="6.06815">
        <ele>1660.203</ele>
        <time>2020-09-19T12:26:02Z</time>
      </trkpt>
      <trkpt lat="45.56654" lon="6.06823">
        <ele>1659.012</ele>
        <time>2020-09-19T12:26:13Z</time>
      </trkpt>
      <trkpt lat="45.56656" lon="6.06825">
        <ele>1658.534</ele>
        <time>2020-09-19T12:26:18Z</time>
      </trkpt>
      <trkpt lat="45.56657" lon="6.06827">
        <ele>1657.969</ele>
        <time>2020-09-19T12:26:24Z</time>
      </trkpt>
      <trkpt lat="45.56657" lon="6.06829">
        <ele>1657.862</ele>
        <time>2020-09-19T12:26:26Z</time>
      </trkpt>
      <trkpt lat="45.56658" lon="6.0683">
        <ele>1657.038</ele>
        <time>2020-09-19T12:26:28Z</time>
      </trkpt>
      <trkpt lat="45.56658" lon="6.06831">
        <ele>1656.956</ele>
        <time>2020-09-19T12:26:30Z</time>
      </trkpt>
      <trkpt lat="45.56657" lon="6.06835">
        <ele>1656.996</ele>
        <time>2020-09-19T12:26:34Z</time>
      </trkpt>
      <trkpt lat="45.56659" lon="6.06839">
        <ele>1656.418</ele>
        <time>2020-09-19T12:26:39Z</time>
      </trkpt>
      <trkpt lat="45.56662" lon="6.06837">
        <ele>1655.54</ele>
        <time>2020-09-19T12:26:43Z</time>
      </trkpt>
      <trkpt lat="45.56663" lon="6.0684">
        <ele>1654.222</ele>
        <time>2020-09-19T12:26:50Z</time>
      </trkpt>
      <trkpt lat="45.56663" lon="6.06845">
        <ele>1653.363</ele>
        <time>2020-09-19T12:26:54Z</time>
      </trkpt>
      <trkpt lat="45.56664" lon="6.06846">
        <ele>1653.025</ele>
        <time>2020-09-19T12:26:55Z</time>
      </trkpt>
      <trkpt lat="45.56664" lon="6.06846">
        <ele>1652.927</ele>
        <time>2020-09-19T12:26:56Z</time>
      </trkpt>
      <trkpt lat="45.56664" lon="6.06847">
        <ele>1652.762</ele>
        <time>2020-09-19T12:26:57Z</time>
      </trkpt>
      <trkpt lat="45.56664" lon="6.06848">
        <ele>1652.758</ele>
        <time>2020-09-19T12:26:59Z</time>
      </trkpt>
      <trkpt lat="45.56665" lon="6.06849">
        <ele>1652.408</ele>
        <time>2020-09-19T12:27:03Z</time>
      </trkpt>
      <trkpt lat="45.56665" lon="6.0685">
        <ele>1652.413</ele>
        <time>2020-09-19T12:27:04Z</time>
      </trkpt>
      <trkpt lat="45.56665" lon="6.06852">
        <ele>1652.198</ele>
        <time>2020-09-19T12:27:07Z</time>
      </trkpt>
      <trkpt lat="45.56666" lon="6.06852">
        <ele>1652.289</ele>
        <time>2020-09-19T12:27:08Z</time>
      </trkpt>
      <trkpt lat="45.56668" lon="6.06855">
        <ele>1651.74</ele>
        <time>2020-09-19T12:27:14Z</time>
      </trkpt>
      <trkpt lat="45.56671" lon="6.06853">
        <ele>1650.106</ele>
        <time>2020-09-19T12:27:19Z</time>
      </trkpt>
      <trkpt lat="45.56672" lon="6.06851">
        <ele>1649.698</ele>
        <time>2020-09-19T12:27:22Z</time>
      </trkpt>
      <trkpt lat="45.56672" lon="6.06851">
        <ele>1649.659</ele>
        <time>2020-09-19T12:27:23Z</time>
      </trkpt>
      <trkpt lat="45.56672" lon="6.06851">
        <ele>1649.534</ele>
        <time>2020-09-19T12:27:24Z</time>
      </trkpt>
      <trkpt lat="45.56671" lon="6.06849">
        <ele>1649.558</ele>
        <time>2020-09-19T12:27:25Z</time>
      </trkpt>
      <trkpt lat="45.56672" lon="6.06848">
        <ele>1649.28</ele>
        <time>2020-09-19T12:27:27Z</time>
      </trkpt>
      <trkpt lat="45.56672" lon="6.06849">
        <ele>1648.902</ele>
        <time>2020-09-19T12:27:29Z</time>
      </trkpt>
      <trkpt lat="45.56672" lon="6.06849">
        <ele>1648.747</ele>
        <time>2020-09-19T12:27:31Z</time>
      </trkpt>
      <trkpt lat="45.56671" lon="6.06848">
        <ele>1648.504</ele>
        <time>2020-09-19T12:27:32Z</time>
      </trkpt>
      <trkpt lat="45.56671" lon="6.06848">
        <ele>1648.504</ele>
        <time>2020-09-19T12:27:32Z</time>
      </trkpt>
      <trkpt lat="45.56671" lon="6.06848">
        <ele>1648.499</ele>
        <time>2020-09-19T12:27:33Z</time>
      </trkpt>
      <trkpt lat="45.56671" lon="6.06848">
        <ele>1648.507</ele>
        <time>2020-09-19T12:27:34Z</time>
      </trkpt>
      <trkpt lat="45.5667" lon="6.06848">
        <ele>1648.649</ele>
        <time>2020-09-19T12:27:35Z</time>
      </trkpt>
      <trkpt lat="45.5667" lon="6.06848">
        <ele>1648.649</ele>
        <time>2020-09-19T12:27:35Z</time>
      </trkpt>
      <trkpt lat="45.5667" lon="6.06848">
        <ele>1648.642</ele>
        <time>2020-09-19T12:27:36Z</time>
      </trkpt>
      <trkpt lat="45.5667" lon="6.06848">
        <ele>1648.545</ele>
        <time>2020-09-19T12:27:50Z</time>
      </trkpt>
      <trkpt lat="45.56671" lon="6.06848">
        <ele>1648.249</ele>
        <time>2020-09-19T12:27:51Z</time>
      </trkpt>
      <trkpt lat="45.56673" lon="6.06851">
        <ele>1646.802</ele>
        <time>2020-09-19T12:27:56Z</time>
      </trkpt>
      <trkpt lat="45.56673" lon="6.06851">
        <ele>1646.476</ele>
        <time>2020-09-19T12:27:57Z</time>
      </trkpt>
      <trkpt lat="45.56674" lon="6.06851">
        <ele>1646.19</ele>
        <time>2020-09-19T12:27:59Z</time>
      </trkpt>
      <trkpt lat="45.56675" lon="6.06853">
        <ele>1642.04</ele>
        <time>2020-09-19T12:28:07Z</time>
      </trkpt>
      <trkpt lat="45.56675" lon="6.06857">
        <ele>1641.823</ele>
        <time>2020-09-19T12:28:13Z</time>
      </trkpt>
      <trkpt lat="45.56677" lon="6.06858">
        <ele>1641.649</ele>
        <time>2020-09-19T12:28:15Z</time>
      </trkpt>
      <trkpt lat="45.56677" lon="6.06859">
        <ele>1641.57</ele>
        <time>2020-09-19T12:28:16Z</time>
      </trkpt>
      <trkpt lat="45.5668" lon="6.06859">
        <ele>1640.753</ele>
        <time>2020-09-19T12:28:20Z</time>
      </trkpt>
      <trkpt lat="45.56682" lon="6.06861">
        <ele>1639.96</ele>
        <time>2020-09-19T12:28:25Z</time>
      </trkpt>
      <trkpt lat="45.56683" lon="6.06862">
        <ele>1640.047</ele>
        <time>2020-09-19T12:28:28Z</time>
      </trkpt>
      <trkpt lat="45.56684" lon="6.06863">
        <ele>1639.239</ele>
        <time>2020-09-19T12:28:31Z</time>
      </trkpt>
      <trkpt lat="45.56687" lon="6.06865">
        <ele>1638.233</ele>
        <time>2020-09-19T12:28:36Z</time>
      </trkpt>
      <trkpt lat="45.56691" lon="6.06866">
        <ele>1637.104</ele>
        <time>2020-09-19T12:28:42Z</time>
      </trkpt>
      <trkpt lat="45.56691" lon="6.06866">
        <ele>1637.042</ele>
        <time>2020-09-19T12:28:44Z</time>
      </trkpt>
      <trkpt lat="45.56691" lon="6.06866">
        <ele>1636.923</ele>
        <time>2020-09-19T12:28:45Z</time>
      </trkpt>
      <trkpt lat="45.56691" lon="6.06867">
        <ele>1637.304</ele>
        <time>2020-09-19T12:28:46Z</time>
      </trkpt>
      <trkpt lat="45.56691" lon="6.06867">
        <ele>1637.381</ele>
        <time>2020-09-19T12:28:47Z</time>
      </trkpt>
      <trkpt lat="45.56691" lon="6.06868">
        <ele>1637.369</ele>
        <time>2020-09-19T12:28:48Z</time>
      </trkpt>
      <trkpt lat="45.56693" lon="6.06869">
        <ele>1636.912</ele>
        <time>2020-09-19T12:28:51Z</time>
      </trkpt>
      <trkpt lat="45.56693" lon="6.06869">
        <ele>1636.56</ele>
        <time>2020-09-19T12:28:52Z</time>
      </trkpt>
      <trkpt lat="45.56701" lon="6.06876">
        <ele>1634.867</ele>
        <time>2020-09-19T12:29:05Z</time>
      </trkpt>
      <trkpt lat="45.56704" lon="6.06877">
        <ele>1634.035</ele>
        <time>2020-09-19T12:29:08Z</time>
      </trkpt>
      <trkpt lat="45.56707" lon="6.06879">
        <ele>1633.096</ele>
        <time>2020-09-19T12:29:13Z</time>
      </trkpt>
      <trkpt lat="45.56712" lon="6.06882">
        <ele>1631.701</ele>
        <time>2020-09-19T12:29:20Z</time>
      </trkpt>
      <trkpt lat="45.56719" lon="6.06886">
        <ele>1629.596</ele>
        <time>2020-09-19T12:29:32Z</time>
      </trkpt>
      <trkpt lat="45.56726" lon="6.0689">
        <ele>1627.269</ele>
        <time>2020-09-19T12:29:45Z</time>
      </trkpt>
      <trkpt lat="45.56733" lon="6.06895">
        <ele>1625.227</ele>
        <time>2020-09-19T12:29:55Z</time>
      </trkpt>
      <trkpt lat="45.5674" lon="6.06899">
        <ele>1623.068</ele>
        <time>2020-09-19T12:30:05Z</time>
      </trkpt>
      <trkpt lat="45.56749" lon="6.06904">
        <ele>1621.007</ele>
        <time>2020-09-19T12:30:19Z</time>
      </trkpt>
      <trkpt lat="45.56752" lon="6.06906">
        <ele>1619.544</ele>
        <time>2020-09-19T12:30:24Z</time>
      </trkpt>
      <trkpt lat="45.56757" lon="6.06908">
        <ele>1617.511</ele>
        <time>2020-09-19T12:30:31Z</time>
      </trkpt>
      <trkpt lat="45.56762" lon="6.06909">
        <ele>1615.058</ele>
        <time>2020-09-19T12:30:38Z</time>
      </trkpt>
      <trkpt lat="45.5677" lon="6.0691">
        <ele>1612.899</ele>
        <time>2020-09-19T12:30:49Z</time>
      </trkpt>
      <trkpt lat="45.56774" lon="6.06911">
        <ele>1610.68</ele>
        <time>2020-09-19T12:30:59Z</time>
      </trkpt>
      <trkpt lat="45.56786" lon="6.06911">
        <ele>1608.403</ele>
        <time>2020-09-19T12:31:15Z</time>
      </trkpt>
      <trkpt lat="45.56786" lon="6.06911">
        <ele>1608.115</ele>
        <time>2020-09-19T12:31:16Z</time>
      </trkpt>
      <trkpt lat="45.56787" lon="6.06911">
        <ele>1608.084</ele>
        <time>2020-09-19T12:31:17Z</time>
      </trkpt>
      <trkpt lat="45.56788" lon="6.06911">
        <ele>1607.237</ele>
        <time>2020-09-19T12:31:20Z</time>
      </trkpt>
      <trkpt lat="45.56789" lon="6.06911">
        <ele>1606.764</ele>
        <time>2020-09-19T12:31:22Z</time>
      </trkpt>
      <trkpt lat="45.56789" lon="6.06911">
        <ele>1606.764</ele>
        <time>2020-09-19T12:31:22Z</time>
      </trkpt>
      <trkpt lat="45.56789" lon="6.06911">
        <ele>1606.978</ele>
        <time>2020-09-19T12:31:23Z</time>
      </trkpt>
      <trkpt lat="45.5679" lon="6.06912">
        <ele>1606.526</ele>
        <time>2020-09-19T12:31:25Z</time>
      </trkpt>
      <trkpt lat="45.5679" lon="6.06914">
        <ele>1605.522</ele>
        <time>2020-09-19T12:31:28Z</time>
      </trkpt>
      <trkpt lat="45.5679" lon="6.06914">
        <ele>1605.397</ele>
        <time>2020-09-19T12:31:29Z</time>
      </trkpt>
      <trkpt lat="45.5679" lon="6.06914">
        <ele>1605.397</ele>
        <time>2020-09-19T12:31:29Z</time>
      </trkpt>
      <trkpt lat="45.5679" lon="6.06914">
        <ele>1605.317</ele>
        <time>2020-09-19T12:31:30Z</time>
      </trkpt>
      <trkpt lat="45.5679" lon="6.06914">
        <ele>1605.317</ele>
        <time>2020-09-19T12:31:30Z</time>
      </trkpt>
      <trkpt lat="45.5679" lon="6.06914">
        <ele>1605.289</ele>
        <time>2020-09-19T12:31:31Z</time>
      </trkpt>
      <trkpt lat="45.56791" lon="6.06915">
        <ele>1604.816</ele>
        <time>2020-09-19T12:31:33Z</time>
      </trkpt>
      <trkpt lat="45.56793" lon="6.06917">
        <ele>1603.88</ele>
        <time>2020-09-19T12:31:39Z</time>
      </trkpt>
      <trkpt lat="45.56794" lon="6.06917">
        <ele>1603.221</ele>
        <time>2020-09-19T12:31:40Z</time>
      </trkpt>
      <trkpt lat="45.56794" lon="6.06917">
        <ele>1603.221</ele>
        <time>2020-09-19T12:31:40Z</time>
      </trkpt>
      <trkpt lat="45.56794" lon="6.06917">
        <ele>1602.954</ele>
        <time>2020-09-19T12:31:41Z</time>
      </trkpt>
      <trkpt lat="45.56794" lon="6.06917">
        <ele>1602.532</ele>
        <time>2020-09-19T12:31:43Z</time>
      </trkpt>
      <trkpt lat="45.56795" lon="6.06918">
        <ele>1602.473</ele>
        <time>2020-09-19T12:31:45Z</time>
      </trkpt>
      <trkpt lat="45.56798" lon="6.06918">
        <ele>1602.718</ele>
        <time>2020-09-19T12:31:50Z</time>
      </trkpt>
      <trkpt lat="45.568" lon="6.06915">
        <ele>1602.278</ele>
        <time>2020-09-19T12:31:55Z</time>
      </trkpt>
      <trkpt lat="45.56803" lon="6.06915">
        <ele>1602.425</ele>
        <time>2020-09-19T12:31:58Z</time>
      </trkpt>
      <trkpt lat="45.56803" lon="6.06915">
        <ele>1602.285</ele>
        <time>2020-09-19T12:31:59Z</time>
      </trkpt>
      <trkpt lat="45.56803" lon="6.06915">
        <ele>1602.566</ele>
        <time>2020-09-19T12:32:02Z</time>
      </trkpt>
      <trkpt lat="45.56802" lon="6.06915">
        <ele>1602.635</ele>
        <time>2020-09-19T12:32:03Z</time>
      </trkpt>
      <trkpt lat="45.56802" lon="6.06915">
        <ele>1602.635</ele>
        <time>2020-09-19T12:32:03Z</time>
      </trkpt>
      <trkpt lat="45.56802" lon="6.06915">
        <ele>1602.83</ele>
        <time>2020-09-19T12:32:04Z</time>
      </trkpt>
      <trkpt lat="45.56802" lon="6.06915">
        <ele>1602.83</ele>
        <time>2020-09-19T12:32:04Z</time>
      </trkpt>
      <trkpt lat="45.56802" lon="6.06916">
        <ele>1602.744</ele>
        <time>2020-09-19T12:32:05Z</time>
      </trkpt>
      <trkpt lat="45.56802" lon="6.06916">
        <ele>1602.734</ele>
        <time>2020-09-19T12:32:06Z</time>
      </trkpt>
      <trkpt lat="45.56802" lon="6.06916">
        <ele>1602.794</ele>
        <time>2020-09-19T12:32:59Z</time>
      </trkpt>
      <trkpt lat="45.56802" lon="6.06916">
        <ele>1602.572</ele>
        <time>2020-09-19T12:33:00Z</time>
      </trkpt>
      <trkpt lat="45.56802" lon="6.06916">
        <ele>1602.302</ele>
        <time>2020-09-19T12:33:01Z</time>
      </trkpt>
      <trkpt lat="45.56802" lon="6.06916">
        <ele>1602.421</ele>
        <time>2020-09-19T12:33:24Z</time>
      </trkpt>
      <trkpt lat="45.56803" lon="6.06915">
        <ele>1602.949</ele>
        <time>2020-09-19T12:33:25Z</time>
      </trkpt>
      <trkpt lat="45.56803" lon="6.06914">
        <ele>1603.148</ele>
        <time>2020-09-19T12:33:27Z</time>
      </trkpt>
      <trkpt lat="45.56803" lon="6.06914">
        <ele>1603.154</ele>
        <time>2020-09-19T12:33:28Z</time>
      </trkpt>
      <trkpt lat="45.56803" lon="6.06914">
        <ele>1603.025</ele>
        <time>2020-09-19T12:33:29Z</time>
      </trkpt>
      <trkpt lat="45.56803" lon="6.06913">
        <ele>1603.639</ele>
        <time>2020-09-19T12:33:30Z</time>
      </trkpt>
      <trkpt lat="45.56803" lon="6.06913">
        <ele>1602.985</ele>
        <time>2020-09-19T12:33:31Z</time>
      </trkpt>
      <trkpt lat="45.56803" lon="6.06913">
        <ele>1602.932</ele>
        <time>2020-09-19T12:33:32Z</time>
      </trkpt>
      <trkpt lat="45.56803" lon="6.06913">
        <ele>1602.566</ele>
        <time>2020-09-19T12:33:43Z</time>
      </trkpt>
      <trkpt lat="45.56804" lon="6.06913">
        <ele>1602.716</ele>
        <time>2020-09-19T12:33:44Z</time>
      </trkpt>
      <trkpt lat="45.56804" lon="6.06913">
        <ele>1602.716</ele>
        <time>2020-09-19T12:33:44Z</time>
      </trkpt>
      <trkpt lat="45.56804" lon="6.06913">
        <ele>1602.457</ele>
        <time>2020-09-19T12:33:45Z</time>
      </trkpt>
      <trkpt lat="45.56804" lon="6.06913">
        <ele>1602.893</ele>
        <time>2020-09-19T12:33:57Z</time>
      </trkpt>
      <trkpt lat="45.56804" lon="6.06912">
        <ele>1602.607</ele>
        <time>2020-09-19T12:33:58Z</time>
      </trkpt>
      <trkpt lat="45.56807" lon="6.0691">
        <ele>1602.876</ele>
        <time>2020-09-19T12:34:01Z</time>
      </trkpt>
      <trkpt lat="45.56809" lon="6.06907">
        <ele>1602.828</ele>
        <time>2020-09-19T12:34:03Z</time>
      </trkpt>
      <trkpt lat="45.5681" lon="6.06905">
        <ele>1603.029</ele>
        <time>2020-09-19T12:34:05Z</time>
      </trkpt>
      <trkpt lat="45.5681" lon="6.069">
        <ele>1600.528</ele>
        <time>2020-09-19T12:34:09Z</time>
      </trkpt>
      <trkpt lat="45.56809" lon="6.06895">
        <ele>1600.94</ele>
        <time>2020-09-19T12:34:12Z</time>
      </trkpt>
      <trkpt lat="45.56809" lon="6.0689">
        <ele>1600.742</ele>
        <time>2020-09-19T12:34:16Z</time>
      </trkpt>
      <trkpt lat="45.56812" lon="6.06885">
        <ele>1600.013</ele>
        <time>2020-09-19T12:34:23Z</time>
      </trkpt>
      <trkpt lat="45.56812" lon="6.06885">
        <ele>1599.982</ele>
        <time>2020-09-19T12:34:24Z</time>
      </trkpt>
      <trkpt lat="45.56812" lon="6.06885">
        <ele>1599.982</ele>
        <time>2020-09-19T12:34:24Z</time>
      </trkpt>
      <trkpt lat="45.56812" lon="6.06885">
        <ele>1599.975</ele>
        <time>2020-09-19T12:34:25Z</time>
      </trkpt>
      <trkpt lat="45.56812" lon="6.06884">
        <ele>1600.042</ele>
        <time>2020-09-19T12:34:26Z</time>
      </trkpt>
      <trkpt lat="45.56812" lon="6.06883">
        <ele>1599.98</ele>
        <time>2020-09-19T12:34:27Z</time>
      </trkpt>
      <trkpt lat="45.56814" lon="6.06878">
        <ele>1600.02</ele>
        <time>2020-09-19T12:34:33Z</time>
      </trkpt>
      <trkpt lat="45.56817" lon="6.06876">
        <ele>1599.563</ele>
        <time>2020-09-19T12:34:37Z</time>
      </trkpt>
      <trkpt lat="45.5682" lon="6.06872">
        <ele>1599.691</ele>
        <time>2020-09-19T12:34:43Z</time>
      </trkpt>
      <trkpt lat="45.56822" lon="6.06868">
        <ele>1599.251</ele>
        <time>2020-09-19T12:34:48Z</time>
      </trkpt>
      <trkpt lat="45.56823" lon="6.06862">
        <ele>1599.099</ele>
        <time>2020-09-19T12:34:53Z</time>
      </trkpt>
      <trkpt lat="45.5683" lon="6.06848">
        <ele>1597.566</ele>
        <time>2020-09-19T12:35:08Z</time>
      </trkpt>
      <trkpt lat="45.56829" lon="6.06845">
        <ele>1596.533</ele>
        <time>2020-09-19T12:35:13Z</time>
      </trkpt>
      <trkpt lat="45.56833" lon="6.06836">
        <ele>1594.896</ele>
        <time>2020-09-19T12:35:24Z</time>
      </trkpt>
      <trkpt lat="45.56841" lon="6.06825">
        <ele>1592.695</ele>
        <time>2020-09-19T12:35:40Z</time>
      </trkpt>
      <trkpt lat="45.56851" lon="6.0681">
        <ele>1591.207</ele>
        <time>2020-09-19T12:36:00Z</time>
      </trkpt>
      <trkpt lat="45.56854" lon="6.06809">
        <ele>1590.581</ele>
        <time>2020-09-19T12:36:04Z</time>
      </trkpt>
      <trkpt lat="45.56864" lon="6.06808">
        <ele>1589.319</ele>
        <time>2020-09-19T12:36:18Z</time>
      </trkpt>
      <trkpt lat="45.56864" lon="6.06808">
        <ele>1588.832</ele>
        <time>2020-09-19T12:36:20Z</time>
      </trkpt>
      <trkpt lat="45.56864" lon="6.06808">
        <ele>1588.672</ele>
        <time>2020-09-19T12:36:21Z</time>
      </trkpt>
      <trkpt lat="45.56865" lon="6.06809">
        <ele>1588.806</ele>
        <time>2020-09-19T12:36:23Z</time>
      </trkpt>
      <trkpt lat="45.56866" lon="6.06809">
        <ele>1588.455</ele>
        <time>2020-09-19T12:36:25Z</time>
      </trkpt>
      <trkpt lat="45.56866" lon="6.06809">
        <ele>1587.837</ele>
        <time>2020-09-19T12:36:26Z</time>
      </trkpt>
      <trkpt lat="45.56866" lon="6.06809">
        <ele>1587.837</ele>
        <time>2020-09-19T12:36:26Z</time>
      </trkpt>
      <trkpt lat="45.56866" lon="6.06809">
        <ele>1587.679</ele>
        <time>2020-09-19T12:36:27Z</time>
      </trkpt>
      <trkpt lat="45.56867" lon="6.06809">
        <ele>1587.745</ele>
        <time>2020-09-19T12:36:28Z</time>
      </trkpt>
      <trkpt lat="45.5687" lon="6.0681">
        <ele>1587.867</ele>
        <time>2020-09-19T12:36:31Z</time>
      </trkpt>
      <trkpt lat="45.56871" lon="6.0681">
        <ele>1587.962</ele>
        <time>2020-09-19T12:36:33Z</time>
      </trkpt>
      <trkpt lat="45.56871" lon="6.0681">
        <ele>1587.75</ele>
        <time>2020-09-19T12:36:34Z</time>
      </trkpt>
      <trkpt lat="45.56871" lon="6.0681">
        <ele>1587.571</ele>
        <time>2020-09-19T12:36:35Z</time>
      </trkpt>
      <trkpt lat="45.56871" lon="6.0681">
        <ele>1587.476</ele>
        <time>2020-09-19T12:36:36Z</time>
      </trkpt>
      <trkpt lat="45.56872" lon="6.0681">
        <ele>1587.213</ele>
        <time>2020-09-19T12:36:38Z</time>
      </trkpt>
      <trkpt lat="45.56873" lon="6.06811">
        <ele>1587.18</ele>
        <time>2020-09-19T12:36:42Z</time>
      </trkpt>
      <trkpt lat="45.56873" lon="6.06812">
        <ele>1587.148</ele>
        <time>2020-09-19T12:36:43Z</time>
      </trkpt>
      <trkpt lat="45.56874" lon="6.06812">
        <ele>1586.806</ele>
        <time>2020-09-19T12:36:46Z</time>
      </trkpt>
      <trkpt lat="45.56874" lon="6.06812">
        <ele>1586.987</ele>
        <time>2020-09-19T12:36:58Z</time>
      </trkpt>
      <trkpt lat="45.56874" lon="6.06813">
        <ele>1586.954</ele>
        <time>2020-09-19T12:36:59Z</time>
      </trkpt>
      <trkpt lat="45.56875" lon="6.06812">
        <ele>1586.201</ele>
        <time>2020-09-19T12:37:01Z</time>
      </trkpt>
      <trkpt lat="45.56877" lon="6.06812">
        <ele>1584.724</ele>
        <time>2020-09-19T12:37:04Z</time>
      </trkpt>
      <trkpt lat="45.5688" lon="6.06814">
        <ele>1584.509</ele>
        <time>2020-09-19T12:37:07Z</time>
      </trkpt>
      <trkpt lat="45.5688" lon="6.06814">
        <ele>1583.509</ele>
        <time>2020-09-19T12:37:08Z</time>
      </trkpt>
      <trkpt lat="45.56881" lon="6.06814">
        <ele>1583.124</ele>
        <time>2020-09-19T12:37:11Z</time>
      </trkpt>
      <trkpt lat="45.56881" lon="6.06814">
        <ele>1582.358</ele>
        <time>2020-09-19T12:37:15Z</time>
      </trkpt>
      <trkpt lat="45.56881" lon="6.06814">
        <ele>1582.149</ele>
        <time>2020-09-19T12:37:16Z</time>
      </trkpt>
      <trkpt lat="45.56882" lon="6.06815">
        <ele>1581.896</ele>
        <time>2020-09-19T12:37:17Z</time>
      </trkpt>
      <trkpt lat="45.56885" lon="6.06816">
        <ele>1580.61</ele>
        <time>2020-09-19T12:37:21Z</time>
      </trkpt>
      <trkpt lat="45.56886" lon="6.06817">
        <ele>1580.013</ele>
        <time>2020-09-19T12:37:23Z</time>
      </trkpt>
      <trkpt lat="45.56887" lon="6.06818">
        <ele>1580.048</ele>
        <time>2020-09-19T12:37:26Z</time>
      </trkpt>
      <trkpt lat="45.56887" lon="6.06818">
        <ele>1580.048</ele>
        <time>2020-09-19T12:37:26Z</time>
      </trkpt>
      <trkpt lat="45.56887" lon="6.06818">
        <ele>1580.592</ele>
        <time>2020-09-19T12:37:27Z</time>
      </trkpt>
      <trkpt lat="45.56887" lon="6.06818">
        <ele>1580.34</ele>
        <time>2020-09-19T12:37:28Z</time>
      </trkpt>
      <trkpt lat="45.5689" lon="6.06819">
        <ele>1579.497</ele>
        <time>2020-09-19T12:37:33Z</time>
      </trkpt>
      <trkpt lat="45.56892" lon="6.06819">
        <ele>1579.49</ele>
        <time>2020-09-19T12:37:37Z</time>
      </trkpt>
      <trkpt lat="45.56893" lon="6.06819">
        <ele>1580.125</ele>
        <time>2020-09-19T12:37:38Z</time>
      </trkpt>
      <trkpt lat="45.56902" lon="6.0682">
        <ele>1579.699</ele>
        <time>2020-09-19T12:37:48Z</time>
      </trkpt>
      <trkpt lat="45.56903" lon="6.0682">
        <ele>1578.904</ele>
        <time>2020-09-19T12:37:51Z</time>
      </trkpt>
      <trkpt lat="45.56913" lon="6.06823">
        <ele>1576.547</ele>
        <time>2020-09-19T12:38:07Z</time>
      </trkpt>
      <trkpt lat="45.56913" lon="6.06823">
        <ele>1576.286</ele>
        <time>2020-09-19T12:38:08Z</time>
      </trkpt>
      <trkpt lat="45.56915" lon="6.06824">
        <ele>1576.051</ele>
        <time>2020-09-19T12:38:12Z</time>
      </trkpt>
      <trkpt lat="45.56922" lon="6.06825">
        <ele>1575.056</ele>
        <time>2020-09-19T12:38:19Z</time>
      </trkpt>
      <trkpt lat="45.56926" lon="6.06824">
        <ele>1574.36</ele>
        <time>2020-09-19T12:38:23Z</time>
      </trkpt>
      <trkpt lat="45.56931" lon="6.06823">
        <ele>1573.84</ele>
        <time>2020-09-19T12:38:28Z</time>
      </trkpt>
      <trkpt lat="45.56932" lon="6.06824">
        <ele>1573.484</ele>
        <time>2020-09-19T12:38:31Z</time>
      </trkpt>
      <trkpt lat="45.56937" lon="6.06824">
        <ele>1570.943</ele>
        <time>2020-09-19T12:38:37Z</time>
      </trkpt>
      <trkpt lat="45.56937" lon="6.06824">
        <ele>1570.607</ele>
        <time>2020-09-19T12:38:38Z</time>
      </trkpt>
      <trkpt lat="45.56938" lon="6.06825">
        <ele>1570.768</ele>
        <time>2020-09-19T12:38:39Z</time>
      </trkpt>
      <trkpt lat="45.56944" lon="6.06831">
        <ele>1570.003</ele>
        <time>2020-09-19T12:38:47Z</time>
      </trkpt>
      <trkpt lat="45.56946" lon="6.06835">
        <ele>1570.009</ele>
        <time>2020-09-19T12:38:50Z</time>
      </trkpt>
      <trkpt lat="45.56948" lon="6.06838">
        <ele>1568.487</ele>
        <time>2020-09-19T12:38:54Z</time>
      </trkpt>
      <trkpt lat="45.56955" lon="6.06845">
        <ele>1566.88</ele>
        <time>2020-09-19T12:39:06Z</time>
      </trkpt>
      <trkpt lat="45.56958" lon="6.06847">
        <ele>1564.277</ele>
        <time>2020-09-19T12:39:11Z</time>
      </trkpt>
      <trkpt lat="45.56961" lon="6.06851">
        <ele>1563.583</ele>
        <time>2020-09-19T12:39:18Z</time>
      </trkpt>
      <trkpt lat="45.56963" lon="6.06853">
        <ele>1562.929</ele>
        <time>2020-09-19T12:39:21Z</time>
      </trkpt>
      <trkpt lat="45.56968" lon="6.06854">
        <ele>1561.741</ele>
        <time>2020-09-19T12:39:28Z</time>
      </trkpt>
      <trkpt lat="45.56968" lon="6.06854">
        <ele>1561.528</ele>
        <time>2020-09-19T12:39:29Z</time>
      </trkpt>
      <trkpt lat="45.56972" lon="6.06857">
        <ele>1561.41</ele>
        <time>2020-09-19T12:39:35Z</time>
      </trkpt>
      <trkpt lat="45.56976" lon="6.0686">
        <ele>1561.503</ele>
        <time>2020-09-19T12:39:39Z</time>
      </trkpt>
      <trkpt lat="45.5698" lon="6.0686">
        <ele>1561.579</ele>
        <time>2020-09-19T12:39:41Z</time>
      </trkpt>
      <trkpt lat="45.56981" lon="6.06861">
        <ele>1560.774</ele>
        <time>2020-09-19T12:39:42Z</time>
      </trkpt>
      <trkpt lat="45.56984" lon="6.06863">
        <ele>1560.694</ele>
        <time>2020-09-19T12:39:47Z</time>
      </trkpt>
      <trkpt lat="45.56989" lon="6.06867">
        <ele>1558.497</ele>
        <time>2020-09-19T12:39:55Z</time>
      </trkpt>
      <trkpt lat="45.56996" lon="6.06872">
        <ele>1556.566</ele>
        <time>2020-09-19T12:40:02Z</time>
      </trkpt>
      <trkpt lat="45.56997" lon="6.06875">
        <ele>1555.814</ele>
        <time>2020-09-19T12:40:05Z</time>
      </trkpt>
      <trkpt lat="45.56998" lon="6.06878">
        <ele>1555.632</ele>
        <time>2020-09-19T12:40:07Z</time>
      </trkpt>
      <trkpt lat="45.57002" lon="6.06879">
        <ele>1555.268</ele>
        <time>2020-09-19T12:40:10Z</time>
      </trkpt>
      <trkpt lat="45.57002" lon="6.06879">
        <ele>1555.329</ele>
        <time>2020-09-19T12:40:11Z</time>
      </trkpt>
      <trkpt lat="45.57002" lon="6.0688">
        <ele>1554.911</ele>
        <time>2020-09-19T12:40:12Z</time>
      </trkpt>
      <trkpt lat="45.57005" lon="6.06881">
        <ele>1554.434</ele>
        <time>2020-09-19T12:40:16Z</time>
      </trkpt>
      <trkpt lat="45.57012" lon="6.06883">
        <ele>1553.636</ele>
        <time>2020-09-19T12:40:22Z</time>
      </trkpt>
      <trkpt lat="45.57011" lon="6.06887">
        <ele>1552.572</ele>
        <time>2020-09-19T12:40:27Z</time>
      </trkpt>
      <trkpt lat="45.57012" lon="6.06889">
        <ele>1552.354</ele>
        <time>2020-09-19T12:40:30Z</time>
      </trkpt>
      <trkpt lat="45.57014" lon="6.06893">
        <ele>1551.865</ele>
        <time>2020-09-19T12:40:35Z</time>
      </trkpt>
      <trkpt lat="45.57014" lon="6.06893">
        <ele>1551.572</ele>
        <time>2020-09-19T12:40:36Z</time>
      </trkpt>
      <trkpt lat="45.57014" lon="6.06893">
        <ele>1551.572</ele>
        <time>2020-09-19T12:40:36Z</time>
      </trkpt>
      <trkpt lat="45.57014" lon="6.06894">
        <ele>1551.804</ele>
        <time>2020-09-19T12:40:37Z</time>
      </trkpt>
      <trkpt lat="45.57014" lon="6.06894">
        <ele>1551.674</ele>
        <time>2020-09-19T12:40:38Z</time>
      </trkpt>
      <trkpt lat="45.57016" lon="6.06895">
        <ele>1550.973</ele>
        <time>2020-09-19T12:40:42Z</time>
      </trkpt>
      <trkpt lat="45.57016" lon="6.06895">
        <ele>1550.55</ele>
        <time>2020-09-19T12:40:43Z</time>
      </trkpt>
      <trkpt lat="45.57016" lon="6.06896">
        <ele>1550.602</ele>
        <time>2020-09-19T12:40:44Z</time>
      </trkpt>
      <trkpt lat="45.57016" lon="6.06896">
        <ele>1550.362</ele>
        <time>2020-09-19T12:40:45Z</time>
      </trkpt>
      <trkpt lat="45.57019" lon="6.06898">
        <ele>1550.662</ele>
        <time>2020-09-19T12:40:49Z</time>
      </trkpt>
      <trkpt lat="45.5702" lon="6.06899">
        <ele>1550.422</ele>
        <time>2020-09-19T12:40:51Z</time>
      </trkpt>
      <trkpt lat="45.5702" lon="6.06899">
        <ele>1550.29</ele>
        <time>2020-09-19T12:40:52Z</time>
      </trkpt>
      <trkpt lat="45.5702" lon="6.06899">
        <ele>1550.269</ele>
        <time>2020-09-19T12:40:53Z</time>
      </trkpt>
      <trkpt lat="45.57022" lon="6.069">
        <ele>1549.514</ele>
        <time>2020-09-19T12:40:56Z</time>
      </trkpt>
      <trkpt lat="45.57023" lon="6.06901">
        <ele>1549.201</ele>
        <time>2020-09-19T12:40:58Z</time>
      </trkpt>
      <trkpt lat="45.57024" lon="6.06902">
        <ele>1548.799</ele>
        <time>2020-09-19T12:41:02Z</time>
      </trkpt>
      <trkpt lat="45.57024" lon="6.06903">
        <ele>1548.69</ele>
        <time>2020-09-19T12:41:03Z</time>
      </trkpt>
      <trkpt lat="45.57024" lon="6.06905">
        <ele>1548.492</ele>
        <time>2020-09-19T12:41:05Z</time>
      </trkpt>
      <trkpt lat="45.57024" lon="6.06905">
        <ele>1548.448</ele>
        <time>2020-09-19T12:41:06Z</time>
      </trkpt>
      <trkpt lat="45.57024" lon="6.06905">
        <ele>1548.481</ele>
        <time>2020-09-19T12:41:07Z</time>
      </trkpt>
      <trkpt lat="45.57023" lon="6.06905">
        <ele>1548.719</ele>
        <time>2020-09-19T12:41:08Z</time>
      </trkpt>
      <trkpt lat="45.57023" lon="6.06905">
        <ele>1548.731</ele>
        <time>2020-09-19T12:41:09Z</time>
      </trkpt>
      <trkpt lat="45.57023" lon="6.06905">
        <ele>1549.04</ele>
        <time>2020-09-19T12:41:16Z</time>
      </trkpt>
      <trkpt lat="45.57023" lon="6.06906">
        <ele>1548.342</ele>
        <time>2020-09-19T12:41:17Z</time>
      </trkpt>
      <trkpt lat="45.57024" lon="6.06906">
        <ele>1548.59</ele>
        <time>2020-09-19T12:41:18Z</time>
      </trkpt>
      <trkpt lat="45.57025" lon="6.06907">
        <ele>1548.425</ele>
        <time>2020-09-19T12:41:20Z</time>
      </trkpt>
      <trkpt lat="45.57026" lon="6.06907">
        <ele>1548.423</ele>
        <time>2020-09-19T12:41:21Z</time>
      </trkpt>
      <trkpt lat="45.57026" lon="6.06907">
        <ele>1547.909</ele>
        <time>2020-09-19T12:41:22Z</time>
      </trkpt>
      <trkpt lat="45.57027" lon="6.06908">
        <ele>1547.775</ele>
        <time>2020-09-19T12:41:24Z</time>
      </trkpt>
      <trkpt lat="45.57027" lon="6.06908">
        <ele>1547.07</ele>
        <time>2020-09-19T12:41:25Z</time>
      </trkpt>
      <trkpt lat="45.57027" lon="6.06908">
        <ele>1547.435</ele>
        <time>2020-09-19T12:41:28Z</time>
      </trkpt>
      <trkpt lat="45.57028" lon="6.06907">
        <ele>1547.835</ele>
        <time>2020-09-19T12:41:29Z</time>
      </trkpt>
      <trkpt lat="45.57028" lon="6.06907">
        <ele>1547.561</ele>
        <time>2020-09-19T12:41:30Z</time>
      </trkpt>
      <trkpt lat="45.57028" lon="6.06907">
        <ele>1547.691</ele>
        <time>2020-09-19T12:41:31Z</time>
      </trkpt>
      <trkpt lat="45.57028" lon="6.06907">
        <ele>1548.048</ele>
        <time>2020-09-19T12:41:32Z</time>
      </trkpt>
      <trkpt lat="45.57028" lon="6.06907">
        <ele>1548.249</ele>
        <time>2020-09-19T12:41:33Z</time>
      </trkpt>
      <trkpt lat="45.57028" lon="6.06907">
        <ele>1548.166</ele>
        <time>2020-09-19T12:41:41Z</time>
      </trkpt>
      <trkpt lat="45.57026" lon="6.06907">
        <ele>1547.544</ele>
        <time>2020-09-19T12:41:42Z</time>
      </trkpt>
      <trkpt lat="45.57026" lon="6.06907">
        <ele>1546.04</ele>
        <time>2020-09-19T12:41:44Z</time>
      </trkpt>
      <trkpt lat="45.57026" lon="6.06907">
        <ele>1546.04</ele>
        <time>2020-09-19T12:41:44Z</time>
      </trkpt>
      <trkpt lat="45.57025" lon="6.06908">
        <ele>1545.123</ele>
        <time>2020-09-19T12:41:45Z</time>
      </trkpt>
      <trkpt lat="45.57025" lon="6.06909">
        <ele>1544.765</ele>
        <time>2020-09-19T12:41:46Z</time>
      </trkpt>
      <trkpt lat="45.57025" lon="6.06909">
        <ele>1545.452</ele>
        <time>2020-09-19T12:41:47Z</time>
      </trkpt>
      <trkpt lat="45.57026" lon="6.06911">
        <ele>1545.067</ele>
        <time>2020-09-19T12:41:49Z</time>
      </trkpt>
      <trkpt lat="45.57025" lon="6.06913">
        <ele>1542.633</ele>
        <time>2020-09-19T12:41:52Z</time>
      </trkpt>
      <trkpt lat="45.57024" lon="6.06915">
        <ele>1541.121</ele>
        <time>2020-09-19T12:41:55Z</time>
      </trkpt>
      <trkpt lat="45.57025" lon="6.06916">
        <ele>1540.817</ele>
        <time>2020-09-19T12:41:56Z</time>
      </trkpt>
      <trkpt lat="45.57027" lon="6.06916">
        <ele>1540.741</ele>
        <time>2020-09-19T12:41:57Z</time>
      </trkpt>
      <trkpt lat="45.57029" lon="6.06915">
        <ele>1540.104</ele>
        <time>2020-09-19T12:41:58Z</time>
      </trkpt>
      <trkpt lat="45.57029" lon="6.06915">
        <ele>1538.373</ele>
        <time>2020-09-19T12:41:59Z</time>
      </trkpt>
      <trkpt lat="45.57029" lon="6.06915">
        <ele>1537.266</ele>
        <time>2020-09-19T12:42:00Z</time>
      </trkpt>
      <trkpt lat="45.57029" lon="6.06915">
        <ele>1537.02</ele>
        <time>2020-09-19T12:42:01Z</time>
      </trkpt>
      <trkpt lat="45.57028" lon="6.06915">
        <ele>1536.91</ele>
        <time>2020-09-19T12:42:02Z</time>
      </trkpt>
      <trkpt lat="45.57028" lon="6.06915">
        <ele>1537.393</ele>
        <time>2020-09-19T12:42:03Z</time>
      </trkpt>
      <trkpt lat="45.57028" lon="6.06915">
        <ele>1538.368</ele>
        <time>2020-09-19T12:42:06Z</time>
      </trkpt>
      <trkpt lat="45.57028" lon="6.06915">
        <ele>1538.721</ele>
        <time>2020-09-19T12:42:07Z</time>
      </trkpt>
      <trkpt lat="45.57027" lon="6.06915">
        <ele>1538.095</ele>
        <time>2020-09-19T12:42:09Z</time>
      </trkpt>
      <trkpt lat="45.57027" lon="6.06915">
        <ele>1538.095</ele>
        <time>2020-09-19T12:42:09Z</time>
      </trkpt>
      <trkpt lat="45.57027" lon="6.06916">
        <ele>1538.556</ele>
        <time>2020-09-19T12:42:10Z</time>
      </trkpt>
      <trkpt lat="45.57028" lon="6.06915">
        <ele>1538.359</ele>
        <time>2020-09-19T12:42:12Z</time>
      </trkpt>
      <trkpt lat="45.57028" lon="6.06915">
        <ele>1538.511</ele>
        <time>2020-09-19T12:42:16Z</time>
      </trkpt>
      <trkpt lat="45.57029" lon="6.06916">
        <ele>1538.567</ele>
        <time>2020-09-19T12:42:17Z</time>
      </trkpt>
      <trkpt lat="45.57029" lon="6.06916">
        <ele>1538.224</ele>
        <time>2020-09-19T12:42:18Z</time>
      </trkpt>
      <trkpt lat="45.57029" lon="6.06916">
        <ele>1538.224</ele>
        <time>2020-09-19T12:42:18Z</time>
      </trkpt>
      <trkpt lat="45.57029" lon="6.06916">
        <ele>1537.999</ele>
        <time>2020-09-19T12:42:19Z</time>
      </trkpt>
      <trkpt lat="45.5703" lon="6.06916">
        <ele>1538.267</ele>
        <time>2020-09-19T12:42:20Z</time>
      </trkpt>
      <trkpt lat="45.5703" lon="6.06916">
        <ele>1538.108</ele>
        <time>2020-09-19T12:42:21Z</time>
      </trkpt>
      <trkpt lat="45.5703" lon="6.06916">
        <ele>1538.096</ele>
        <time>2020-09-19T12:42:57Z</time>
      </trkpt>
      <trkpt lat="45.57031" lon="6.06916">
        <ele>1538.24</ele>
        <time>2020-09-19T12:42:58Z</time>
      </trkpt>
      <trkpt lat="45.57031" lon="6.06916">
        <ele>1538.204</ele>
        <time>2020-09-19T12:42:59Z</time>
      </trkpt>
      <trkpt lat="45.57031" lon="6.06916">
        <ele>1537.614</ele>
        <time>2020-09-19T12:43:12Z</time>
      </trkpt>
      <trkpt lat="45.57032" lon="6.06916">
        <ele>1537.519</ele>
        <time>2020-09-19T12:43:13Z</time>
      </trkpt>
      <trkpt lat="45.57032" lon="6.06916">
        <ele>1536.969</ele>
        <time>2020-09-19T12:43:14Z</time>
      </trkpt>
      <trkpt lat="45.57032" lon="6.06915">
        <ele>1536.464</ele>
        <time>2020-09-19T12:43:16Z</time>
      </trkpt>
      <trkpt lat="45.57032" lon="6.06915">
        <ele>1536.464</ele>
        <time>2020-09-19T12:43:16Z</time>
      </trkpt>
      <trkpt lat="45.57032" lon="6.06915">
        <ele>1536.949</ele>
        <time>2020-09-19T12:43:17Z</time>
      </trkpt>
      <trkpt lat="45.57032" lon="6.06915">
        <ele>1536.653</ele>
        <time>2020-09-19T12:43:18Z</time>
      </trkpt>
      <trkpt lat="45.57032" lon="6.06915">
        <ele>1536.316</ele>
        <time>2020-09-19T12:43:19Z</time>
      </trkpt>
      <trkpt lat="45.57033" lon="6.06916">
        <ele>1535.071</ele>
        <time>2020-09-19T12:43:24Z</time>
      </trkpt>
      <trkpt lat="45.57033" lon="6.06916">
        <ele>1533.773</ele>
        <time>2020-09-19T12:43:25Z</time>
      </trkpt>
      <trkpt lat="45.57033" lon="6.06916">
        <ele>1532.913</ele>
        <time>2020-09-19T12:43:26Z</time>
      </trkpt>
      <trkpt lat="45.57033" lon="6.06916">
        <ele>1533.232</ele>
        <time>2020-09-19T12:43:28Z</time>
      </trkpt>
      <trkpt lat="45.57034" lon="6.06918">
        <ele>1533.716</ele>
        <time>2020-09-19T12:43:31Z</time>
      </trkpt>
      <trkpt lat="45.57035" lon="6.06918">
        <ele>1534.529</ele>
        <time>2020-09-19T12:43:32Z</time>
      </trkpt>
      <trkpt lat="45.57036" lon="6.06919">
        <ele>1534.623</ele>
        <time>2020-09-19T12:43:35Z</time>
      </trkpt>
      <trkpt lat="45.57037" lon="6.0692">
        <ele>1534.881</ele>
        <time>2020-09-19T12:43:37Z</time>
      </trkpt>
      <trkpt lat="45.5704" lon="6.06922">
        <ele>1535.459</ele>
        <time>2020-09-19T12:43:41Z</time>
      </trkpt>
      <trkpt lat="45.57042" lon="6.06925">
        <ele>1534.85</ele>
        <time>2020-09-19T12:43:45Z</time>
      </trkpt>
      <trkpt lat="45.57044" lon="6.06928">
        <ele>1535.305</ele>
        <time>2020-09-19T12:43:49Z</time>
      </trkpt>
      <trkpt lat="45.57046" lon="6.06933">
        <ele>1535.553</ele>
        <time>2020-09-19T12:43:54Z</time>
      </trkpt>
      <trkpt lat="45.57048" lon="6.06938">
        <ele>1535.381</ele>
        <time>2020-09-19T12:43:58Z</time>
      </trkpt>
      <trkpt lat="45.57054" lon="6.06942">
        <ele>1536.168</ele>
        <time>2020-09-19T12:44:04Z</time>
      </trkpt>
      <trkpt lat="45.57057" lon="6.06944">
        <ele>1535.216</ele>
        <time>2020-09-19T12:44:08Z</time>
      </trkpt>
      <trkpt lat="45.57059" lon="6.06952">
        <ele>1534.899</ele>
        <time>2020-09-19T12:44:15Z</time>
      </trkpt>
      <trkpt lat="45.57062" lon="6.06954">
        <ele>1535.372</ele>
        <time>2020-09-19T12:44:18Z</time>
      </trkpt>
      <trkpt lat="45.57068" lon="6.06957">
        <ele>1535.036</ele>
        <time>2020-09-19T12:44:24Z</time>
      </trkpt>
      <trkpt lat="45.57078" lon="6.06971">
        <ele>1533.993</ele>
        <time>2020-09-19T12:44:36Z</time>
      </trkpt>
      <trkpt lat="45.5709" lon="6.06989">
        <ele>1531.596</ele>
        <time>2020-09-19T12:44:53Z</time>
      </trkpt>
      <trkpt lat="45.57091" lon="6.06992">
        <ele>1530.661</ele>
        <time>2020-09-19T12:44:57Z</time>
      </trkpt>
      <trkpt lat="45.57097" lon="6.07001">
        <ele>1529.277</ele>
        <time>2020-09-19T12:45:10Z</time>
      </trkpt>
      <trkpt lat="45.57097" lon="6.07005">
        <ele>1529.204</ele>
        <time>2020-09-19T12:45:13Z</time>
      </trkpt>
      <trkpt lat="45.571" lon="6.07007">
        <ele>1528.861</ele>
        <time>2020-09-19T12:45:16Z</time>
      </trkpt>
      <trkpt lat="45.57103" lon="6.07007">
        <ele>1528.614</ele>
        <time>2020-09-19T12:45:19Z</time>
      </trkpt>
      <trkpt lat="45.57106" lon="6.07009">
        <ele>1528.303</ele>
        <time>2020-09-19T12:45:23Z</time>
      </trkpt>
      <trkpt lat="45.57118" lon="6.07023">
        <ele>1527.123</ele>
        <time>2020-09-19T12:45:38Z</time>
      </trkpt>
      <trkpt lat="45.57127" lon="6.07037">
        <ele>1526.545</ele>
        <time>2020-09-19T12:45:52Z</time>
      </trkpt>
      <trkpt lat="45.57127" lon="6.07038">
        <ele>1526.568</ele>
        <time>2020-09-19T12:45:53Z</time>
      </trkpt>
      <trkpt lat="45.57129" lon="6.07042">
        <ele>1526.539</ele>
        <time>2020-09-19T12:45:57Z</time>
      </trkpt>
      <trkpt lat="45.57129" lon="6.07042">
        <ele>1526.62</ele>
        <time>2020-09-19T12:45:58Z</time>
      </trkpt>
      <trkpt lat="45.5713" lon="6.07041">
        <ele>1526.263</ele>
        <time>2020-09-19T12:45:59Z</time>
      </trkpt>
      <trkpt lat="45.57133" lon="6.07042">
        <ele>1525.486</ele>
        <time>2020-09-19T12:46:07Z</time>
      </trkpt>
      <trkpt lat="45.57132" lon="6.07043">
        <ele>1525.75</ele>
        <time>2020-09-19T12:46:08Z</time>
      </trkpt>
      <trkpt lat="45.57132" lon="6.07043">
        <ele>1525.862</ele>
        <time>2020-09-19T12:46:09Z</time>
      </trkpt>
      <trkpt lat="45.57132" lon="6.07043">
        <ele>1526.037</ele>
        <time>2020-09-19T12:46:11Z</time>
      </trkpt>
      <trkpt lat="45.57132" lon="6.07043">
        <ele>1526.204</ele>
        <time>2020-09-19T12:46:12Z</time>
      </trkpt>
      <trkpt lat="45.57132" lon="6.07043">
        <ele>1526.142</ele>
        <time>2020-09-19T12:46:13Z</time>
      </trkpt>
      <trkpt lat="45.57132" lon="6.07043">
        <ele>1526.196</ele>
        <time>2020-09-19T12:46:14Z</time>
      </trkpt>
      <trkpt lat="45.57132" lon="6.07043">
        <ele>1526.237</ele>
        <time>2020-09-19T12:46:16Z</time>
      </trkpt>
      <trkpt lat="45.57132" lon="6.07043">
        <ele>1525.732</ele>
        <time>2020-09-19T12:46:17Z</time>
      </trkpt>
      <trkpt lat="45.57132" lon="6.07043">
        <ele>1525.738</ele>
        <time>2020-09-19T12:46:18Z</time>
      </trkpt>
      <trkpt lat="45.57132" lon="6.07043">
        <ele>1525.765</ele>
        <time>2020-09-19T12:46:19Z</time>
      </trkpt>
      <trkpt lat="45.57132" lon="6.07044">
        <ele>1525.758</ele>
        <time>2020-09-19T12:46:20Z</time>
      </trkpt>
      <trkpt lat="45.57132" lon="6.07045">
        <ele>1525.092</ele>
        <time>2020-09-19T12:46:22Z</time>
      </trkpt>
      <trkpt lat="45.57131" lon="6.07045">
        <ele>1524.798</ele>
        <time>2020-09-19T12:46:23Z</time>
      </trkpt>
      <trkpt lat="45.5713" lon="6.07047">
        <ele>1523.958</ele>
        <time>2020-09-19T12:46:25Z</time>
      </trkpt>
      <trkpt lat="45.5713" lon="6.07048">
        <ele>1524.445</ele>
        <time>2020-09-19T12:46:27Z</time>
      </trkpt>
      <trkpt lat="45.57131" lon="6.07052">
        <ele>1523.87</ele>
        <time>2020-09-19T12:46:32Z</time>
      </trkpt>
      <trkpt lat="45.57132" lon="6.07052">
        <ele>1522.813</ele>
        <time>2020-09-19T12:46:34Z</time>
      </trkpt>
      <trkpt lat="45.57132" lon="6.07052">
        <ele>1522.547</ele>
        <time>2020-09-19T12:51:15Z</time>
      </trkpt>
      <trkpt lat="45.57134" lon="6.07051">
        <ele>1522.228</ele>
        <time>2020-09-19T12:51:16Z</time>
      </trkpt>
      <trkpt lat="45.57135" lon="6.07051">
        <ele>1521.386</ele>
        <time>2020-09-19T12:51:17Z</time>
      </trkpt>
      <trkpt lat="45.57137" lon="6.07051">
        <ele>1520.827</ele>
        <time>2020-09-19T12:51:20Z</time>
      </trkpt>
      <trkpt lat="45.57138" lon="6.07053">
        <ele>1516.956</ele>
        <time>2020-09-19T12:51:23Z</time>
      </trkpt>
      <trkpt lat="45.57138" lon="6.07055">
        <ele>1516.025</ele>
        <time>2020-09-19T12:51:25Z</time>
      </trkpt>
      <trkpt lat="45.57138" lon="6.07056">
        <ele>1515.227</ele>
        <time>2020-09-19T12:51:27Z</time>
      </trkpt>
      <trkpt lat="45.57138" lon="6.07057">
        <ele>1514.754</ele>
        <time>2020-09-19T12:51:32Z</time>
      </trkpt>
      <trkpt lat="45.57138" lon="6.07057">
        <ele>1514.619</ele>
        <time>2020-09-19T12:51:34Z</time>
      </trkpt>
      <trkpt lat="45.57138" lon="6.07058">
        <ele>1514.227</ele>
        <time>2020-09-19T12:51:35Z</time>
      </trkpt>
      <trkpt lat="45.57138" lon="6.07059">
        <ele>1513.949</ele>
        <time>2020-09-19T12:51:37Z</time>
      </trkpt>
      <trkpt lat="45.57138" lon="6.07059">
        <ele>1513.949</ele>
        <time>2020-09-19T12:51:37Z</time>
      </trkpt>
      <trkpt lat="45.57138" lon="6.07059">
        <ele>1514.067</ele>
        <time>2020-09-19T12:51:38Z</time>
      </trkpt>
      <trkpt lat="45.57138" lon="6.07059">
        <ele>1514.043</ele>
        <time>2020-09-19T12:51:39Z</time>
      </trkpt>
      <trkpt lat="45.57138" lon="6.07059">
        <ele>1514.043</ele>
        <time>2020-09-19T12:51:39Z</time>
      </trkpt>
      <trkpt lat="45.57139" lon="6.0706">
        <ele>1513.726</ele>
        <time>2020-09-19T12:51:40Z</time>
      </trkpt>
      <trkpt lat="45.57139" lon="6.0706">
        <ele>1514.198</ele>
        <time>2020-09-19T12:51:41Z</time>
      </trkpt>
      <trkpt lat="45.5714" lon="6.0706">
        <ele>1514.536</ele>
        <time>2020-09-19T12:51:44Z</time>
      </trkpt>
      <trkpt lat="45.5714" lon="6.07061">
        <ele>1514.879</ele>
        <time>2020-09-19T12:51:45Z</time>
      </trkpt>
      <trkpt lat="45.5714" lon="6.07062">
        <ele>1515.228</ele>
        <time>2020-09-19T12:51:48Z</time>
      </trkpt>
      <trkpt lat="45.5714" lon="6.07062">
        <ele>1515.228</ele>
        <time>2020-09-19T12:51:48Z</time>
      </trkpt>
      <trkpt lat="45.57141" lon="6.07064">
        <ele>1515.194</ele>
        <time>2020-09-19T12:51:49Z</time>
      </trkpt>
      <trkpt lat="45.57141" lon="6.07065">
        <ele>1514.471</ele>
        <time>2020-09-19T12:51:50Z</time>
      </trkpt>
      <trkpt lat="45.57141" lon="6.07066">
        <ele>1512.812</ele>
        <time>2020-09-19T12:51:53Z</time>
      </trkpt>
      <trkpt lat="45.57143" lon="6.07065">
        <ele>1512.334</ele>
        <time>2020-09-19T12:51:57Z</time>
      </trkpt>
      <trkpt lat="45.57143" lon="6.07065">
        <ele>1512.334</ele>
        <time>2020-09-19T12:51:57Z</time>
      </trkpt>
      <trkpt lat="45.57143" lon="6.07066">
        <ele>1511.574</ele>
        <time>2020-09-19T12:51:58Z</time>
      </trkpt>
      <trkpt lat="45.57143" lon="6.07067">
        <ele>1511.78</ele>
        <time>2020-09-19T12:52:00Z</time>
      </trkpt>
      <trkpt lat="45.57144" lon="6.07068">
        <ele>1511.207</ele>
        <time>2020-09-19T12:52:02Z</time>
      </trkpt>
      <trkpt lat="45.57144" lon="6.0707">
        <ele>1510.662</ele>
        <time>2020-09-19T12:52:05Z</time>
      </trkpt>
      <trkpt lat="45.57144" lon="6.0707">
        <ele>1510.662</ele>
        <time>2020-09-19T12:52:05Z</time>
      </trkpt>
      <trkpt lat="45.57144" lon="6.07071">
        <ele>1510.33</ele>
        <time>2020-09-19T12:52:06Z</time>
      </trkpt>
      <trkpt lat="45.57144" lon="6.07073">
        <ele>1508.936</ele>
        <time>2020-09-19T12:52:10Z</time>
      </trkpt>
      <trkpt lat="45.57145" lon="6.07074">
        <ele>1508.881</ele>
        <time>2020-09-19T12:52:12Z</time>
      </trkpt>
      <trkpt lat="45.57146" lon="6.07075">
        <ele>1509.722</ele>
        <time>2020-09-19T12:52:15Z</time>
      </trkpt>
      <trkpt lat="45.57148" lon="6.07076">
        <ele>1507.917</ele>
        <time>2020-09-19T12:52:18Z</time>
      </trkpt>
      <trkpt lat="45.57148" lon="6.07077">
        <ele>1507.608</ele>
        <time>2020-09-19T12:52:20Z</time>
      </trkpt>
      <trkpt lat="45.57148" lon="6.07077">
        <ele>1507.608</ele>
        <time>2020-09-19T12:52:20Z</time>
      </trkpt>
      <trkpt lat="45.57149" lon="6.07077">
        <ele>1508.216</ele>
        <time>2020-09-19T12:52:21Z</time>
      </trkpt>
      <trkpt lat="45.57149" lon="6.07078">
        <ele>1508.725</ele>
        <time>2020-09-19T12:52:22Z</time>
      </trkpt>
      <trkpt lat="45.57149" lon="6.07078">
        <ele>1508.412</ele>
        <time>2020-09-19T12:52:23Z</time>
      </trkpt>
      <trkpt lat="45.57149" lon="6.0708">
        <ele>1507.64</ele>
        <time>2020-09-19T12:52:25Z</time>
      </trkpt>
      <trkpt lat="45.57149" lon="6.07082">
        <ele>1507.609</ele>
        <time>2020-09-19T12:52:27Z</time>
      </trkpt>
      <trkpt lat="45.57149" lon="6.07084">
        <ele>1507.131</ele>
        <time>2020-09-19T12:52:29Z</time>
      </trkpt>
      <trkpt lat="45.5715" lon="6.07084">
        <ele>1507.695</ele>
        <time>2020-09-19T12:52:30Z</time>
      </trkpt>
      <trkpt lat="45.57152" lon="6.07093">
        <ele>1505.379</ele>
        <time>2020-09-19T12:52:39Z</time>
      </trkpt>
      <trkpt lat="45.57156" lon="6.07097">
        <ele>1506.336</ele>
        <time>2020-09-19T12:52:47Z</time>
      </trkpt>
      <trkpt lat="45.57157" lon="6.071">
        <ele>1506.255</ele>
        <time>2020-09-19T12:52:50Z</time>
      </trkpt>
      <trkpt lat="45.57162" lon="6.07115">
        <ele>1506.157</ele>
        <time>2020-09-19T12:53:04Z</time>
      </trkpt>
      <trkpt lat="45.57162" lon="6.07117">
        <ele>1504.679</ele>
        <time>2020-09-19T12:53:08Z</time>
      </trkpt>
      <trkpt lat="45.57163" lon="6.07125">
        <ele>1502.249</ele>
        <time>2020-09-19T12:53:17Z</time>
      </trkpt>
      <trkpt lat="45.57164" lon="6.07129">
        <ele>1502.436</ele>
        <time>2020-09-19T12:53:22Z</time>
      </trkpt>
      <trkpt lat="45.57165" lon="6.07132">
        <ele>1501.261</ele>
        <time>2020-09-19T12:53:27Z</time>
      </trkpt>
      <trkpt lat="45.57165" lon="6.07132">
        <ele>1501.226</ele>
        <time>2020-09-19T12:53:28Z</time>
      </trkpt>
      <trkpt lat="45.57165" lon="6.07132">
        <ele>1501.138</ele>
        <time>2020-09-19T12:53:29Z</time>
      </trkpt>
      <trkpt lat="45.5717" lon="6.07142">
        <ele>1499.875</ele>
        <time>2020-09-19T12:53:39Z</time>
      </trkpt>
      <trkpt lat="45.57173" lon="6.07145">
        <ele>1498.569</ele>
        <time>2020-09-19T12:53:44Z</time>
      </trkpt>
      <trkpt lat="45.57174" lon="6.07147">
        <ele>1497.013</ele>
        <time>2020-09-19T12:53:48Z</time>
      </trkpt>
      <trkpt lat="45.57174" lon="6.07147">
        <ele>1496.984</ele>
        <time>2020-09-19T12:53:49Z</time>
      </trkpt>
      <trkpt lat="45.57174" lon="6.07148">
        <ele>1496.921</ele>
        <time>2020-09-19T12:53:50Z</time>
      </trkpt>
      <trkpt lat="45.57176" lon="6.07149">
        <ele>1496.453</ele>
        <time>2020-09-19T12:53:55Z</time>
      </trkpt>
      <trkpt lat="45.57175" lon="6.07149">
        <ele>1496.151</ele>
        <time>2020-09-19T12:53:56Z</time>
      </trkpt>
      <trkpt lat="45.57175" lon="6.07149">
        <ele>1496.151</ele>
        <time>2020-09-19T12:53:56Z</time>
      </trkpt>
      <trkpt lat="45.57176" lon="6.07149">
        <ele>1495.969</ele>
        <time>2020-09-19T12:53:57Z</time>
      </trkpt>
      <trkpt lat="45.57176" lon="6.07149">
        <ele>1495.608</ele>
        <time>2020-09-19T12:53:59Z</time>
      </trkpt>
      <trkpt lat="45.57176" lon="6.07149">
        <ele>1495.608</ele>
        <time>2020-09-19T12:53:59Z</time>
      </trkpt>
      <trkpt lat="45.57176" lon="6.07149">
        <ele>1495.518</ele>
        <time>2020-09-19T12:54:00Z</time>
      </trkpt>
      <trkpt lat="45.57176" lon="6.07149">
        <ele>1495.518</ele>
        <time>2020-09-19T12:54:00Z</time>
      </trkpt>
      <trkpt lat="45.57176" lon="6.07149">
        <ele>1495.371</ele>
        <time>2020-09-19T12:54:01Z</time>
      </trkpt>
      <trkpt lat="45.57177" lon="6.07149">
        <ele>1495.097</ele>
        <time>2020-09-19T12:54:03Z</time>
      </trkpt>
      <trkpt lat="45.57179" lon="6.0715">
        <ele>1495.09</ele>
        <time>2020-09-19T12:54:08Z</time>
      </trkpt>
      <trkpt lat="45.57182" lon="6.07152">
        <ele>1494.46</ele>
        <time>2020-09-19T12:54:13Z</time>
      </trkpt>
      <trkpt lat="45.57184" lon="6.0715">
        <ele>1493.42</ele>
        <time>2020-09-19T12:54:17Z</time>
      </trkpt>
      <trkpt lat="45.57185" lon="6.07149">
        <ele>1493.337</ele>
        <time>2020-09-19T12:54:18Z</time>
      </trkpt>
      <trkpt lat="45.57186" lon="6.07149">
        <ele>1492.783</ele>
        <time>2020-09-19T12:54:20Z</time>
      </trkpt>
      <trkpt lat="45.57188" lon="6.07148">
        <ele>1492.012</ele>
        <time>2020-09-19T12:54:23Z</time>
      </trkpt>
      <trkpt lat="45.57189" lon="6.07148">
        <ele>1492.435</ele>
        <time>2020-09-19T12:54:25Z</time>
      </trkpt>
      <trkpt lat="45.5719" lon="6.07149">
        <ele>1491.639</ele>
        <time>2020-09-19T12:54:28Z</time>
      </trkpt>
      <trkpt lat="45.57191" lon="6.07151">
        <ele>1491.17</ele>
        <time>2020-09-19T12:54:30Z</time>
      </trkpt>
      <trkpt lat="45.57192" lon="6.07153">
        <ele>1490.227</ele>
        <time>2020-09-19T12:54:33Z</time>
      </trkpt>
      <trkpt lat="45.57193" lon="6.07155">
        <ele>1489.87</ele>
        <time>2020-09-19T12:54:35Z</time>
      </trkpt>
      <trkpt lat="45.57196" lon="6.07158">
        <ele>1490.392</ele>
        <time>2020-09-19T12:54:39Z</time>
      </trkpt>
      <trkpt lat="45.57197" lon="6.07162">
        <ele>1490.535</ele>
        <time>2020-09-19T12:54:43Z</time>
      </trkpt>
      <trkpt lat="45.57198" lon="6.07162">
        <ele>1490.124</ele>
        <time>2020-09-19T12:54:44Z</time>
      </trkpt>
      <trkpt lat="45.57201" lon="6.07163">
        <ele>1489.864</ele>
        <time>2020-09-19T12:54:47Z</time>
      </trkpt>
      <trkpt lat="45.5721" lon="6.07162">
        <ele>1488.197</ele>
        <time>2020-09-19T12:54:56Z</time>
      </trkpt>
      <trkpt lat="45.57213" lon="6.07163">
        <ele>1487.938</ele>
        <time>2020-09-19T12:55:01Z</time>
      </trkpt>
      <trkpt lat="45.57217" lon="6.07164">
        <ele>1487.783</ele>
        <time>2020-09-19T12:55:06Z</time>
      </trkpt>
      <trkpt lat="45.57218" lon="6.07164">
        <ele>1487.133</ele>
        <time>2020-09-19T12:55:08Z</time>
      </trkpt>
      <trkpt lat="45.57222" lon="6.07167">
        <ele>1486.651</ele>
        <time>2020-09-19T12:55:12Z</time>
      </trkpt>
      <trkpt lat="45.57224" lon="6.0717">
        <ele>1486.707</ele>
        <time>2020-09-19T12:55:16Z</time>
      </trkpt>
      <trkpt lat="45.57226" lon="6.07172">
        <ele>1485.838</ele>
        <time>2020-09-19T12:55:20Z</time>
      </trkpt>
      <trkpt lat="45.57228" lon="6.07174">
        <ele>1484.696</ele>
        <time>2020-09-19T12:55:23Z</time>
      </trkpt>
      <trkpt lat="45.57231" lon="6.07176">
        <ele>1484.058</ele>
        <time>2020-09-19T12:55:26Z</time>
      </trkpt>
      <trkpt lat="45.57231" lon="6.07176">
        <ele>1483.742</ele>
        <time>2020-09-19T12:55:27Z</time>
      </trkpt>
      <trkpt lat="45.57233" lon="6.07176">
        <ele>1483.716</ele>
        <time>2020-09-19T12:55:30Z</time>
      </trkpt>
      <trkpt lat="45.57234" lon="6.07176">
        <ele>1484.442</ele>
        <time>2020-09-19T12:55:31Z</time>
      </trkpt>
      <trkpt lat="45.57235" lon="6.07177">
        <ele>1484.207</ele>
        <time>2020-09-19T12:55:33Z</time>
      </trkpt>
      <trkpt lat="45.57241" lon="6.07177">
        <ele>1482.801</ele>
        <time>2020-09-19T12:55:38Z</time>
      </trkpt>
      <trkpt lat="45.57244" lon="6.07178">
        <ele>1481.758</ele>
        <time>2020-09-19T12:55:42Z</time>
      </trkpt>
      <trkpt lat="45.57251" lon="6.07184">
        <ele>1479.544</ele>
        <time>2020-09-19T12:55:53Z</time>
      </trkpt>
      <trkpt lat="45.57255" lon="6.07194">
        <ele>1478.112</ele>
        <time>2020-09-19T12:56:04Z</time>
      </trkpt>
      <trkpt lat="45.57256" lon="6.07197">
        <ele>1477.857</ele>
        <time>2020-09-19T12:56:08Z</time>
      </trkpt>
      <trkpt lat="45.5726" lon="6.072">
        <ele>1477.571</ele>
        <time>2020-09-19T12:56:13Z</time>
      </trkpt>
      <trkpt lat="45.5727" lon="6.07212">
        <ele>1475.682</ele>
        <time>2020-09-19T12:56:29Z</time>
      </trkpt>
      <trkpt lat="45.57271" lon="6.07213">
        <ele>1475.767</ele>
        <time>2020-09-19T12:56:31Z</time>
      </trkpt>
      <trkpt lat="45.57271" lon="6.07213">
        <ele>1475.002</ele>
        <time>2020-09-19T12:56:33Z</time>
      </trkpt>
      <trkpt lat="45.57275" lon="6.07213">
        <ele>1473.915</ele>
        <time>2020-09-19T12:56:38Z</time>
      </trkpt>
      <trkpt lat="45.57283" lon="6.07213">
        <ele>1472.346</ele>
        <time>2020-09-19T12:56:45Z</time>
      </trkpt>
      <trkpt lat="45.57284" lon="6.07212">
        <ele>1472.252</ele>
        <time>2020-09-19T12:56:48Z</time>
      </trkpt>
      <trkpt lat="45.57284" lon="6.07212">
        <ele>1471.343</ele>
        <time>2020-09-19T12:56:56Z</time>
      </trkpt>
      <trkpt lat="45.57281" lon="6.07209">
        <ele>1471.276</ele>
        <time>2020-09-19T12:56:57Z</time>
      </trkpt>
      <trkpt lat="45.57281" lon="6.07208">
        <ele>1471.174</ele>
        <time>2020-09-19T12:56:58Z</time>
      </trkpt>
      <trkpt lat="45.57281" lon="6.07207">
        <ele>1470.84</ele>
        <time>2020-09-19T12:56:59Z</time>
      </trkpt>
      <trkpt lat="45.57279" lon="6.07204">
        <ele>1469.582</ele>
        <time>2020-09-19T12:57:02Z</time>
      </trkpt>
      <trkpt lat="45.57279" lon="6.07204">
        <ele>1468.753</ele>
        <time>2020-09-19T12:57:03Z</time>
      </trkpt>
      <trkpt lat="45.57278" lon="6.07203">
        <ele>1467.724</ele>
        <time>2020-09-19T12:57:05Z</time>
      </trkpt>
      <trkpt lat="45.57278" lon="6.07204">
        <ele>1467.728</ele>
        <time>2020-09-19T12:57:07Z</time>
      </trkpt>
      <trkpt lat="45.57278" lon="6.07204">
        <ele>1467.728</ele>
        <time>2020-09-19T12:57:07Z</time>
      </trkpt>
      <trkpt lat="45.57277" lon="6.07204">
        <ele>1467.87</ele>
        <time>2020-09-19T12:57:08Z</time>
      </trkpt>
      <trkpt lat="45.57277" lon="6.07204">
        <ele>1467.92</ele>
        <time>2020-09-19T12:57:09Z</time>
      </trkpt>
      <trkpt lat="45.57277" lon="6.07204">
        <ele>1467.677</ele>
        <time>2020-09-19T12:57:20Z</time>
      </trkpt>
      <trkpt lat="45.57277" lon="6.07204">
        <ele>1467.407</ele>
        <time>2020-09-19T12:57:21Z</time>
      </trkpt>
      <trkpt lat="45.57277" lon="6.07204">
        <ele>1466.167</ele>
        <time>2020-09-19T12:57:23Z</time>
      </trkpt>
      <trkpt lat="45.57277" lon="6.07204">
        <ele>1464.617</ele>
        <time>2020-09-19T12:57:25Z</time>
      </trkpt>
      <trkpt lat="45.57277" lon="6.07205">
        <ele>1464.518</ele>
        <time>2020-09-19T12:57:26Z</time>
      </trkpt>
      <trkpt lat="45.57277" lon="6.07205">
        <ele>1464.988</ele>
        <time>2020-09-19T12:57:28Z</time>
      </trkpt>
      <trkpt lat="45.57277" lon="6.07205">
        <ele>1464.988</ele>
        <time>2020-09-19T12:57:28Z</time>
      </trkpt>
      <trkpt lat="45.57277" lon="6.07205">
        <ele>1465.177</ele>
        <time>2020-09-19T12:57:29Z</time>
      </trkpt>
      <trkpt lat="45.57277" lon="6.07205">
        <ele>1465.177</ele>
        <time>2020-09-19T12:57:29Z</time>
      </trkpt>
      <trkpt lat="45.57277" lon="6.07205">
        <ele>1464.71</ele>
        <time>2020-09-19T12:57:30Z</time>
      </trkpt>
      <trkpt lat="45.57277" lon="6.07205">
        <ele>1465.655</ele>
        <time>2020-09-19T12:58:19Z</time>
      </trkpt>
      <trkpt lat="45.57278" lon="6.07205">
        <ele>1466.348</ele>
        <time>2020-09-19T12:58:20Z</time>
      </trkpt>
      <trkpt lat="45.57278" lon="6.07205">
        <ele>1466.348</ele>
        <time>2020-09-19T12:58:20Z</time>
      </trkpt>
      <trkpt lat="45.57278" lon="6.07205">
        <ele>1466.645</ele>
        <time>2020-09-19T12:58:21Z</time>
      </trkpt>
      <trkpt lat="45.57278" lon="6.07205">
        <ele>1467.069</ele>
        <time>2020-09-19T12:58:27Z</time>
      </trkpt>
      <trkpt lat="45.57278" lon="6.07205">
        <ele>1467.325</ele>
        <time>2020-09-19T12:58:28Z</time>
      </trkpt>
      <trkpt lat="45.57278" lon="6.07205">
        <ele>1468.955</ele>
        <time>2020-09-19T12:58:31Z</time>
      </trkpt>
      <trkpt lat="45.57278" lon="6.07205">
        <ele>1468.955</ele>
        <time>2020-09-19T12:58:31Z</time>
      </trkpt>
      <trkpt lat="45.57278" lon="6.07204">
        <ele>1467.943</ele>
        <time>2020-09-19T12:58:32Z</time>
      </trkpt>
      <trkpt lat="45.57279" lon="6.07203">
        <ele>1467.243</ele>
        <time>2020-09-19T12:58:34Z</time>
      </trkpt>
      <trkpt lat="45.57279" lon="6.07203">
        <ele>1467.273</ele>
        <time>2020-09-19T12:58:36Z</time>
      </trkpt>
      <trkpt lat="45.57281" lon="6.072">
        <ele>1467.632</ele>
        <time>2020-09-19T12:58:37Z</time>
      </trkpt>
      <trkpt lat="45.57281" lon="6.072">
        <ele>1467.615</ele>
        <time>2020-09-19T12:58:38Z</time>
      </trkpt>
      <trkpt lat="45.57281" lon="6.072">
        <ele>1467.035</ele>
        <time>2020-09-19T12:58:59Z</time>
      </trkpt>
      <trkpt lat="45.57283" lon="6.07203">
        <ele>1467.1</ele>
        <time>2020-09-19T12:59:00Z</time>
      </trkpt>
      <trkpt lat="45.57282" lon="6.07203">
        <ele>1466.508</ele>
        <time>2020-09-19T12:59:01Z</time>
      </trkpt>
      <trkpt lat="45.57282" lon="6.07204">
        <ele>1466.388</ele>
        <time>2020-09-19T12:59:02Z</time>
      </trkpt>
      <trkpt lat="45.57283" lon="6.07205">
        <ele>1464.585</ele>
        <time>2020-09-19T12:59:04Z</time>
      </trkpt>
      <trkpt lat="45.57284" lon="6.07206">
        <ele>1463.019</ele>
        <time>2020-09-19T12:59:06Z</time>
      </trkpt>
      <trkpt lat="45.57284" lon="6.07206">
        <ele>1461.924</ele>
        <time>2020-09-19T12:59:08Z</time>
      </trkpt>
      <trkpt lat="45.57284" lon="6.07206">
        <ele>1461.831</ele>
        <time>2020-09-19T12:59:09Z</time>
      </trkpt>
      <trkpt lat="45.57284" lon="6.07206">
        <ele>1461.773</ele>
        <time>2020-09-19T12:59:53Z</time>
      </trkpt>
      <trkpt lat="45.57283" lon="6.07205">
        <ele>1462.107</ele>
        <time>2020-09-19T12:59:54Z</time>
      </trkpt>
      <trkpt lat="45.57283" lon="6.07205">
        <ele>1462.107</ele>
        <time>2020-09-19T12:59:54Z</time>
      </trkpt>
      <trkpt lat="45.57283" lon="6.07206">
        <ele>1462.328</ele>
        <time>2020-09-19T12:59:55Z</time>
      </trkpt>
      <trkpt lat="45.57285" lon="6.07209">
        <ele>1463.286</ele>
        <time>2020-09-19T12:59:59Z</time>
      </trkpt>
      <trkpt lat="45.57288" lon="6.07209">
        <ele>1463.775</ele>
        <time>2020-09-19T13:00:03Z</time>
      </trkpt>
      <trkpt lat="45.5729" lon="6.07209">
        <ele>1463.236</ele>
        <time>2020-09-19T13:00:07Z</time>
      </trkpt>
      <trkpt lat="45.5729" lon="6.07209">
        <ele>1463.277</ele>
        <time>2020-09-19T13:00:08Z</time>
      </trkpt>
      <trkpt lat="45.57291" lon="6.0721">
        <ele>1462.432</ele>
        <time>2020-09-19T13:00:09Z</time>
      </trkpt>
      <trkpt lat="45.57292" lon="6.0721">
        <ele>1463.295</ele>
        <time>2020-09-19T13:00:12Z</time>
      </trkpt>
      <trkpt lat="45.57292" lon="6.0721">
        <ele>1462.532</ele>
        <time>2020-09-19T13:00:13Z</time>
      </trkpt>
      <trkpt lat="45.57294" lon="6.0721">
        <ele>1461.643</ele>
        <time>2020-09-19T13:00:18Z</time>
      </trkpt>
      <trkpt lat="45.57295" lon="6.0721">
        <ele>1461.866</ele>
        <time>2020-09-19T13:00:20Z</time>
      </trkpt>
      <trkpt lat="45.57295" lon="6.0721">
        <ele>1462.229</ele>
        <time>2020-09-19T13:00:21Z</time>
      </trkpt>
      <trkpt lat="45.57297" lon="6.0721">
        <ele>1462.058</ele>
        <time>2020-09-19T13:00:22Z</time>
      </trkpt>
      <trkpt lat="45.573" lon="6.0721">
        <ele>1462.104</ele>
        <time>2020-09-19T13:00:28Z</time>
      </trkpt>
      <trkpt lat="45.57302" lon="6.0721">
        <ele>1461.535</ele>
        <time>2020-09-19T13:00:33Z</time>
      </trkpt>
      <trkpt lat="45.57302" lon="6.0721">
        <ele>1461.803</ele>
        <time>2020-09-19T13:00:34Z</time>
      </trkpt>
      <trkpt lat="45.57309" lon="6.07211">
        <ele>1459.716</ele>
        <time>2020-09-19T13:00:42Z</time>
      </trkpt>
      <trkpt lat="45.57314" lon="6.07213">
        <ele>1457.678</ele>
        <time>2020-09-19T13:00:48Z</time>
      </trkpt>
      <trkpt lat="45.57317" lon="6.07215">
        <ele>1456.26</ele>
        <time>2020-09-19T13:00:54Z</time>
      </trkpt>
      <trkpt lat="45.57319" lon="6.07215">
        <ele>1456.962</ele>
        <time>2020-09-19T13:00:56Z</time>
      </trkpt>
      <trkpt lat="45.57325" lon="6.07215">
        <ele>1456.246</ele>
        <time>2020-09-19T13:01:04Z</time>
      </trkpt>
      <trkpt lat="45.57335" lon="6.07215">
        <ele>1454.713</ele>
        <time>2020-09-19T13:01:17Z</time>
      </trkpt>
      <trkpt lat="45.57336" lon="6.07216">
        <ele>1454.093</ele>
        <time>2020-09-19T13:01:20Z</time>
      </trkpt>
      <trkpt lat="45.57337" lon="6.07217">
        <ele>1454.019</ele>
        <time>2020-09-19T13:01:25Z</time>
      </trkpt>
      <trkpt lat="45.57337" lon="6.07217">
        <ele>1454.019</ele>
        <time>2020-09-19T13:01:25Z</time>
      </trkpt>
      <trkpt lat="45.57337" lon="6.07218">
        <ele>1454.025</ele>
        <time>2020-09-19T13:01:26Z</time>
      </trkpt>
      <trkpt lat="45.57338" lon="6.07218">
        <ele>1454.137</ele>
        <time>2020-09-19T13:01:27Z</time>
      </trkpt>
      <trkpt lat="45.5734" lon="6.0722">
        <ele>1453.76</ele>
        <time>2020-09-19T13:01:30Z</time>
      </trkpt>
      <trkpt lat="45.5734" lon="6.0722">
        <ele>1453.908</ele>
        <time>2020-09-19T13:01:31Z</time>
      </trkpt>
      <trkpt lat="45.5734" lon="6.07221">
        <ele>1453.741</ele>
        <time>2020-09-19T13:01:32Z</time>
      </trkpt>
      <trkpt lat="45.57341" lon="6.07224">
        <ele>1453.231</ele>
        <time>2020-09-19T13:01:35Z</time>
      </trkpt>
      <trkpt lat="45.57342" lon="6.07224">
        <ele>1453.186</ele>
        <time>2020-09-19T13:01:36Z</time>
      </trkpt>
      <trkpt lat="45.57344" lon="6.07222">
        <ele>1451.86</ele>
        <time>2020-09-19T13:01:40Z</time>
      </trkpt>
      <trkpt lat="45.57345" lon="6.07218">
        <ele>1452.556</ele>
        <time>2020-09-19T13:01:43Z</time>
      </trkpt>
      <trkpt lat="45.57346" lon="6.07213">
        <ele>1452.435</ele>
        <time>2020-09-19T13:01:46Z</time>
      </trkpt>
      <trkpt lat="45.57346" lon="6.07209">
        <ele>1452.144</ele>
        <time>2020-09-19T13:01:48Z</time>
      </trkpt>
      <trkpt lat="45.57346" lon="6.07207">
        <ele>1451.83</ele>
        <time>2020-09-19T13:01:49Z</time>
      </trkpt>
      <trkpt lat="45.57347" lon="6.07205">
        <ele>1451.253</ele>
        <time>2020-09-19T13:01:52Z</time>
      </trkpt>
      <trkpt lat="45.57348" lon="6.07205">
        <ele>1450.603</ele>
        <time>2020-09-19T13:01:53Z</time>
      </trkpt>
      <trkpt lat="45.57348" lon="6.07205">
        <ele>1450.668</ele>
        <time>2020-09-19T13:01:54Z</time>
      </trkpt>
      <trkpt lat="45.57349" lon="6.07206">
        <ele>1450.723</ele>
        <time>2020-09-19T13:01:55Z</time>
      </trkpt>
      <trkpt lat="45.57349" lon="6.07206">
        <ele>1449.96</ele>
        <time>2020-09-19T13:01:56Z</time>
      </trkpt>
      <trkpt lat="45.5735" lon="6.07207">
        <ele>1450.047</ele>
        <time>2020-09-19T13:01:57Z</time>
      </trkpt>
      <trkpt lat="45.5735" lon="6.07207">
        <ele>1450.047</ele>
        <time>2020-09-19T13:01:57Z</time>
      </trkpt>
      <trkpt lat="45.5735" lon="6.07207">
        <ele>1450.198</ele>
        <time>2020-09-19T13:01:58Z</time>
      </trkpt>
      <trkpt lat="45.5735" lon="6.07207">
        <ele>1451.226</ele>
        <time>2020-09-19T13:02:03Z</time>
      </trkpt>
      <trkpt lat="45.57349" lon="6.07209">
        <ele>1450.743</ele>
        <time>2020-09-19T13:02:04Z</time>
      </trkpt>
      <trkpt lat="45.57349" lon="6.07209">
        <ele>1450.874</ele>
        <time>2020-09-19T13:02:05Z</time>
      </trkpt>
      <trkpt lat="45.57349" lon="6.07209">
        <ele>1450.821</ele>
        <time>2020-09-19T13:02:47Z</time>
      </trkpt>
      <trkpt lat="45.57349" lon="6.0721">
        <ele>1450.394</ele>
        <time>2020-09-19T13:02:48Z</time>
      </trkpt>
      <trkpt lat="45.57349" lon="6.0721">
        <ele>1450.428</ele>
        <time>2020-09-19T13:02:49Z</time>
      </trkpt>
      <trkpt lat="45.57349" lon="6.0721">
        <ele>1450.405</ele>
        <time>2020-09-19T13:02:53Z</time>
      </trkpt>
      <trkpt lat="45.57348" lon="6.0721">
        <ele>1450.094</ele>
        <time>2020-09-19T13:02:54Z</time>
      </trkpt>
      <trkpt lat="45.57348" lon="6.0721">
        <ele>1450.204</ele>
        <time>2020-09-19T13:02:55Z</time>
      </trkpt>
      <trkpt lat="45.57348" lon="6.0721">
        <ele>1450.221</ele>
        <time>2020-09-19T13:03:57Z</time>
      </trkpt>
      <trkpt lat="45.57348" lon="6.07209">
        <ele>1449.845</ele>
        <time>2020-09-19T13:03:58Z</time>
      </trkpt>
      <trkpt lat="45.57348" lon="6.07209">
        <ele>1449.732</ele>
        <time>2020-09-19T13:03:59Z</time>
      </trkpt>
      <trkpt lat="45.57348" lon="6.07209">
        <ele>1449.74</ele>
        <time>2020-09-19T13:04:01Z</time>
      </trkpt>
      <trkpt lat="45.57348" lon="6.07209">
        <ele>1450.275</ele>
        <time>2020-09-19T13:04:02Z</time>
      </trkpt>
      <trkpt lat="45.57348" lon="6.07209">
        <ele>1450.736</ele>
        <time>2020-09-19T13:04:03Z</time>
      </trkpt>
      <trkpt lat="45.57348" lon="6.07209">
        <ele>1450.926</ele>
        <time>2020-09-19T13:04:12Z</time>
      </trkpt>
      <trkpt lat="45.57347" lon="6.07207">
        <ele>1451.418</ele>
        <time>2020-09-19T13:04:13Z</time>
      </trkpt>
      <trkpt lat="45.57347" lon="6.07207">
        <ele>1451.475</ele>
        <time>2020-09-19T13:04:14Z</time>
      </trkpt>
      <trkpt lat="45.57347" lon="6.07207">
        <ele>1452.032</ele>
        <time>2020-09-19T13:04:20Z</time>
      </trkpt>
      <trkpt lat="45.57346" lon="6.07207">
        <ele>1452.894</ele>
        <time>2020-09-19T13:04:21Z</time>
      </trkpt>
      <trkpt lat="45.57346" lon="6.07203">
        <ele>1449.316</ele>
        <time>2020-09-19T13:04:27Z</time>
      </trkpt>
      <trkpt lat="45.57346" lon="6.07203">
        <ele>1448.527</ele>
        <time>2020-09-19T13:04:33Z</time>
      </trkpt>
      <trkpt lat="45.57347" lon="6.07203">
        <ele>1447.89</ele>
        <time>2020-09-19T13:04:34Z</time>
      </trkpt>
      <trkpt lat="45.57347" lon="6.07203">
        <ele>1447.725</ele>
        <time>2020-09-19T13:04:35Z</time>
      </trkpt>
      <trkpt lat="45.57347" lon="6.07203">
        <ele>1447.86</ele>
        <time>2020-09-19T13:04:45Z</time>
      </trkpt>
      <trkpt lat="45.57347" lon="6.07204">
        <ele>1447.186</ele>
        <time>2020-09-19T13:04:46Z</time>
      </trkpt>
      <trkpt lat="45.57347" lon="6.07204">
        <ele>1446.394</ele>
        <time>2020-09-19T13:04:47Z</time>
      </trkpt>
      <trkpt lat="45.57347" lon="6.07204">
        <ele>1446.394</ele>
        <time>2020-09-19T13:04:47Z</time>
      </trkpt>
      <trkpt lat="45.57347" lon="6.07202">
        <ele>1446.051</ele>
        <time>2020-09-19T13:04:48Z</time>
      </trkpt>
      <trkpt lat="45.57344" lon="6.07202">
        <ele>1445.938</ele>
        <time>2020-09-19T13:04:51Z</time>
      </trkpt>
      <trkpt lat="45.57342" lon="6.07203">
        <ele>1446.828</ele>
        <time>2020-09-19T13:04:53Z</time>
      </trkpt>
      <trkpt lat="45.57341" lon="6.07203">
        <ele>1447.687</ele>
        <time>2020-09-19T13:04:54Z</time>
      </trkpt>
      <trkpt lat="45.57337" lon="6.07204">
        <ele>1448.773</ele>
        <time>2020-09-19T13:04:58Z</time>
      </trkpt>
      <trkpt lat="45.57335" lon="6.07203">
        <ele>1449.037</ele>
        <time>2020-09-19T13:05:02Z</time>
      </trkpt>
      <trkpt lat="45.57334" lon="6.07202">
        <ele>1448.983</ele>
        <time>2020-09-19T13:05:06Z</time>
      </trkpt>
      <trkpt lat="45.57334" lon="6.07202">
        <ele>1449.365</ele>
        <time>2020-09-19T13:05:06Z</time>
      </trkpt>
      <trkpt lat="45.57334" lon="6.07202">
        <ele>1449.365</ele>
        <time>2020-09-19T13:05:06Z</time>
      </trkpt>
      <trkpt lat="45.57334" lon="6.07202">
        <ele>1449.354</ele>
        <time>2020-09-19T13:05:07Z</time>
      </trkpt>
      <trkpt lat="45.57334" lon="6.07202">
        <ele>1448.964</ele>
        <time>2020-09-19T13:05:20Z</time>
      </trkpt>
      <trkpt lat="45.57334" lon="6.07202">
        <ele>1449.165</ele>
        <time>2020-09-19T13:05:21Z</time>
      </trkpt>
      <trkpt lat="45.57335" lon="6.07202">
        <ele>1449.96</ele>
        <time>2020-09-19T13:05:22Z</time>
      </trkpt>
      <trkpt lat="45.57334" lon="6.07202">
        <ele>1449.574</ele>
        <time>2020-09-19T13:05:23Z</time>
      </trkpt>
      <trkpt lat="45.57334" lon="6.07202">
        <ele>1450.059</ele>
        <time>2020-09-19T13:05:24Z</time>
      </trkpt>
      <trkpt lat="45.57334" lon="6.07202">
        <ele>1449.991</ele>
        <time>2020-09-19T13:05:30Z</time>
      </trkpt>
      <trkpt lat="45.57334" lon="6.07202">
        <ele>1450.247</ele>
        <time>2020-09-19T13:05:31Z</time>
      </trkpt>
      <trkpt lat="45.57338" lon="6.07201">
        <ele>1449.964</ele>
        <time>2020-09-19T13:05:36Z</time>
      </trkpt>
      <trkpt lat="45.5734" lon="6.07201">
        <ele>1449.309</ele>
        <time>2020-09-19T13:05:39Z</time>
      </trkpt>
      <trkpt lat="45.5734" lon="6.07201">
        <ele>1449.309</ele>
        <time>2020-09-19T13:05:39Z</time>
      </trkpt>
      <trkpt lat="45.57341" lon="6.07202">
        <ele>1449.351</ele>
        <time>2020-09-19T13:05:40Z</time>
      </trkpt>
      <trkpt lat="45.57341" lon="6.07201">
        <ele>1449.282</ele>
        <time>2020-09-19T13:05:42Z</time>
      </trkpt>
      <trkpt lat="45.57341" lon="6.07201">
        <ele>1450.551</ele>
        <time>2020-09-19T13:05:45Z</time>
      </trkpt>
      <trkpt lat="45.57341" lon="6.07201">
        <ele>1450.159</ele>
        <time>2020-09-19T13:05:46Z</time>
      </trkpt>
      <trkpt lat="45.57341" lon="6.07201">
        <ele>1448.899</ele>
        <time>2020-09-19T13:05:47Z</time>
      </trkpt>
      <trkpt lat="45.57341" lon="6.07201">
        <ele>1448.899</ele>
        <time>2020-09-19T13:05:47Z</time>
      </trkpt>
      <trkpt lat="45.57341" lon="6.07201">
        <ele>1448.511</ele>
        <time>2020-09-19T13:05:48Z</time>
      </trkpt>
      <trkpt lat="45.57342" lon="6.07202">
        <ele>1449.124</ele>
        <time>2020-09-19T13:05:50Z</time>
      </trkpt>
      <trkpt lat="45.57342" lon="6.07202">
        <ele>1449.112</ele>
        <time>2020-09-19T13:06:00Z</time>
      </trkpt>
      <trkpt lat="45.57343" lon="6.07202">
        <ele>1448.874</ele>
        <time>2020-09-19T13:06:02Z</time>
      </trkpt>
      <trkpt lat="45.57343" lon="6.07202">
        <ele>1449.274</ele>
        <time>2020-09-19T13:06:03Z</time>
      </trkpt>
      <trkpt lat="45.5735" lon="6.07207">
        <ele>1447.144</ele>
        <time>2020-09-19T13:06:12Z</time>
      </trkpt>
      <trkpt lat="45.57358" lon="6.07212">
        <ele>1447.541</ele>
        <time>2020-09-19T13:06:21Z</time>
      </trkpt>
      <trkpt lat="45.5737" lon="6.07222">
        <ele>1445.517</ele>
        <time>2020-09-19T13:06:31Z</time>
      </trkpt>
      <trkpt lat="45.57385" lon="6.07234">
        <ele>1445.005</ele>
        <time>2020-09-19T13:06:45Z</time>
      </trkpt>
      <trkpt lat="45.57385" lon="6.07235">
        <ele>1444.066</ele>
        <time>2020-09-19T13:06:46Z</time>
      </trkpt>
      <trkpt lat="45.57385" lon="6.07235">
        <ele>1442.91</ele>
        <time>2020-09-19T13:06:47Z</time>
      </trkpt>
      <trkpt lat="45.57389" lon="6.07238">
        <ele>1440.876</ele>
        <time>2020-09-19T13:06:54Z</time>
      </trkpt>
      <trkpt lat="45.57414" lon="6.0725">
        <ele>1439.482</ele>
        <time>2020-09-19T13:07:20Z</time>
      </trkpt>
      <trkpt lat="45.57414" lon="6.0725">
        <ele>1439.543</ele>
        <time>2020-09-19T13:07:21Z</time>
      </trkpt>
      <trkpt lat="45.57454" lon="6.07269">
        <ele>1438.977</ele>
        <time>2020-09-19T13:08:00Z</time>
      </trkpt>
      <trkpt lat="45.57457" lon="6.07268">
        <ele>1438.628</ele>
        <time>2020-09-19T13:08:05Z</time>
      </trkpt>
      <trkpt lat="45.57457" lon="6.07268">
        <ele>1438.496</ele>
        <time>2020-09-19T13:08:06Z</time>
      </trkpt>
      <trkpt lat="45.57457" lon="6.07268">
        <ele>1438.658</ele>
        <time>2020-09-19T13:08:15Z</time>
      </trkpt>
      <trkpt lat="45.57457" lon="6.07268">
        <ele>1439.098</ele>
        <time>2020-09-19T13:08:16Z</time>
      </trkpt>
      <trkpt lat="45.5746" lon="6.0727">
        <ele>1439.543</ele>
        <time>2020-09-19T13:08:19Z</time>
      </trkpt>
      <trkpt lat="45.57464" lon="6.07273">
        <ele>1437.458</ele>
        <time>2020-09-19T13:08:23Z</time>
      </trkpt>
      <trkpt lat="45.57466" lon="6.07277">
        <ele>1438.824</ele>
        <time>2020-09-19T13:08:26Z</time>
      </trkpt>
      <trkpt lat="45.57469" lon="6.07281">
        <ele>1438.99</ele>
        <time>2020-09-19T13:08:29Z</time>
      </trkpt>
      <trkpt lat="45.57478" lon="6.07286">
        <ele>1439.451</ele>
        <time>2020-09-19T13:08:36Z</time>
      </trkpt>
      <trkpt lat="45.57481" lon="6.07288">
        <ele>1440.048</ele>
        <time>2020-09-19T13:08:39Z</time>
      </trkpt>
      <trkpt lat="45.57483" lon="6.07292">
        <ele>1440.569</ele>
        <time>2020-09-19T13:08:41Z</time>
      </trkpt>
      <trkpt lat="45.57484" lon="6.07296">
        <ele>1441.097</ele>
        <time>2020-09-19T13:08:43Z</time>
      </trkpt>
      <trkpt lat="45.57486" lon="6.07329">
        <ele>1441.095</ele>
        <time>2020-09-19T13:09:01Z</time>
      </trkpt>
      <trkpt lat="45.57489" lon="6.07339">
        <ele>1442.898</ele>
        <time>2020-09-19T13:09:07Z</time>
      </trkpt>
      <trkpt lat="45.57492" lon="6.07342">
        <ele>1442.534</ele>
        <time>2020-09-19T13:09:12Z</time>
      </trkpt>
      <trkpt lat="45.57498" lon="6.07347">
        <ele>1442.238</ele>
        <time>2020-09-19T13:09:18Z</time>
      </trkpt>
      <trkpt lat="45.57501" lon="6.07346">
        <ele>1442.564</ele>
        <time>2020-09-19T13:09:20Z</time>
      </trkpt>
      <trkpt lat="45.57504" lon="6.07347">
        <ele>1443.35</ele>
        <time>2020-09-19T13:09:23Z</time>
      </trkpt>
      <trkpt lat="45.57507" lon="6.0735">
        <ele>1443.529</ele>
        <time>2020-09-19T13:09:27Z</time>
      </trkpt>
      <trkpt lat="45.57509" lon="6.07355">
        <ele>1443.778</ele>
        <time>2020-09-19T13:09:30Z</time>
      </trkpt>
      <trkpt lat="45.57518" lon="6.07365">
        <ele>1444.466</ele>
        <time>2020-09-19T13:09:41Z</time>
      </trkpt>
      <trkpt lat="45.57519" lon="6.07366">
        <ele>1443.654</ele>
        <time>2020-09-19T13:09:43Z</time>
      </trkpt>
      <trkpt lat="45.57519" lon="6.07366">
        <ele>1443.618</ele>
        <time>2020-09-19T13:09:44Z</time>
      </trkpt>
      <trkpt lat="45.57519" lon="6.07366">
        <ele>1443.822</ele>
        <time>2020-09-19T13:09:45Z</time>
      </trkpt>
      <trkpt lat="45.57519" lon="6.07366">
        <ele>1443.822</ele>
        <time>2020-09-19T13:09:45Z</time>
      </trkpt>
      <trkpt lat="45.57519" lon="6.07366">
        <ele>1443.922</ele>
        <time>2020-09-19T13:09:46Z</time>
      </trkpt>
      <trkpt lat="45.57521" lon="6.07366">
        <ele>1444.424</ele>
        <time>2020-09-19T13:09:48Z</time>
      </trkpt>
      <trkpt lat="45.57523" lon="6.07369">
        <ele>1445.084</ele>
        <time>2020-09-19T13:09:51Z</time>
      </trkpt>
      <trkpt lat="45.57526" lon="6.07372">
        <ele>1445.388</ele>
        <time>2020-09-19T13:09:55Z</time>
      </trkpt>
      <trkpt lat="45.57528" lon="6.07375">
        <ele>1445.285</ele>
        <time>2020-09-19T13:09:59Z</time>
      </trkpt>
      <trkpt lat="45.5753" lon="6.07378">
        <ele>1445.232</ele>
        <time>2020-09-19T13:10:02Z</time>
      </trkpt>
      <trkpt lat="45.57535" lon="6.07382">
        <ele>1445.403</ele>
        <time>2020-09-19T13:10:09Z</time>
      </trkpt>
      <trkpt lat="45.57537" lon="6.07384">
        <ele>1445.979</ele>
        <time>2020-09-19T13:10:13Z</time>
      </trkpt>
      <trkpt lat="45.57539" lon="6.07388">
        <ele>1445.522</ele>
        <time>2020-09-19T13:10:16Z</time>
      </trkpt>
      <trkpt lat="45.57542" lon="6.0739">
        <ele>1446.034</ele>
        <time>2020-09-19T13:10:20Z</time>
      </trkpt>
      <trkpt lat="45.57547" lon="6.07394">
        <ele>1446.405</ele>
        <time>2020-09-19T13:10:27Z</time>
      </trkpt>
      <trkpt lat="45.57561" lon="6.07411">
        <ele>1447.88</ele>
        <time>2020-09-19T13:10:44Z</time>
      </trkpt>
      <trkpt lat="45.57561" lon="6.07411">
        <ele>1448.217</ele>
        <time>2020-09-19T13:10:45Z</time>
      </trkpt>
      <trkpt lat="45.57561" lon="6.07411">
        <ele>1448.086</ele>
        <time>2020-09-19T13:10:56Z</time>
      </trkpt>
      <trkpt lat="45.57562" lon="6.07412">
        <ele>1448.139</ele>
        <time>2020-09-19T13:10:57Z</time>
      </trkpt>
      <trkpt lat="45.57562" lon="6.07412">
        <ele>1448.584</ele>
        <time>2020-09-19T13:10:58Z</time>
      </trkpt>
      <trkpt lat="45.57563" lon="6.07412">
        <ele>1448.256</ele>
        <time>2020-09-19T13:11:00Z</time>
      </trkpt>
      <trkpt lat="45.57564" lon="6.07412">
        <ele>1448.247</ele>
        <time>2020-09-19T13:11:01Z</time>
      </trkpt>
      <trkpt lat="45.57565" lon="6.07413">
        <ele>1449.285</ele>
        <time>2020-09-19T13:11:04Z</time>
      </trkpt>
      <trkpt lat="45.57565" lon="6.07413">
        <ele>1449.285</ele>
        <time>2020-09-19T13:11:04Z</time>
      </trkpt>
      <trkpt lat="45.57566" lon="6.07413">
        <ele>1449.393</ele>
        <time>2020-09-19T13:11:05Z</time>
      </trkpt>
      <trkpt lat="45.57566" lon="6.07413">
        <ele>1448.839</ele>
        <time>2020-09-19T13:11:06Z</time>
      </trkpt>
      <trkpt lat="45.57569" lon="6.07414">
        <ele>1447.638</ele>
        <time>2020-09-19T13:11:10Z</time>
      </trkpt>
      <trkpt lat="45.57569" lon="6.07414">
        <ele>1447.761</ele>
        <time>2020-09-19T13:11:11Z</time>
      </trkpt>
      <trkpt lat="45.57571" lon="6.07417">
        <ele>1449.902</ele>
        <time>2020-09-19T13:11:14Z</time>
      </trkpt>
      <trkpt lat="45.57574" lon="6.07419">
        <ele>1449.863</ele>
        <time>2020-09-19T13:11:17Z</time>
      </trkpt>
      <trkpt lat="45.57577" lon="6.07421">
        <ele>1449.784</ele>
        <time>2020-09-19T13:11:20Z</time>
      </trkpt>
      <trkpt lat="45.57581" lon="6.07422">
        <ele>1450.105</ele>
        <time>2020-09-19T13:11:24Z</time>
      </trkpt>
      <trkpt lat="45.57591" lon="6.07422">
        <ele>1451.233</ele>
        <time>2020-09-19T13:11:35Z</time>
      </trkpt>
      <trkpt lat="45.57594" lon="6.07423">
        <ele>1451.786</ele>
        <time>2020-09-19T13:11:39Z</time>
      </trkpt>
      <trkpt lat="45.57595" lon="6.07423">
        <ele>1452.016</ele>
        <time>2020-09-19T13:11:41Z</time>
      </trkpt>
      <trkpt lat="45.576" lon="6.07422">
        <ele>1452.662</ele>
        <time>2020-09-19T13:11:47Z</time>
      </trkpt>
      <trkpt lat="45.57604" lon="6.07421">
        <ele>1452.637</ele>
        <time>2020-09-19T13:11:51Z</time>
      </trkpt>
      <trkpt lat="45.57612" lon="6.07425">
        <ele>1453</ele>
        <time>2020-09-19T13:12:00Z</time>
      </trkpt>
      <trkpt lat="45.57627" lon="6.07437">
        <ele>1450.94</ele>
        <time>2020-09-19T13:12:19Z</time>
      </trkpt>
      <trkpt lat="45.57627" lon="6.07437">
        <ele>1450.925</ele>
        <time>2020-09-19T13:12:20Z</time>
      </trkpt>
      <trkpt lat="45.57628" lon="6.07439">
        <ele>1451.087</ele>
        <time>2020-09-19T13:12:24Z</time>
      </trkpt>
      <trkpt lat="45.57628" lon="6.0744">
        <ele>1450.733</ele>
        <time>2020-09-19T13:12:25Z</time>
      </trkpt>
      <trkpt lat="45.57629" lon="6.0744">
        <ele>1450.66</ele>
        <time>2020-09-19T13:12:26Z</time>
      </trkpt>
      <trkpt lat="45.57631" lon="6.0744">
        <ele>1450.903</ele>
        <time>2020-09-19T13:12:29Z</time>
      </trkpt>
      <trkpt lat="45.57631" lon="6.0744">
        <ele>1450.722</ele>
        <time>2020-09-19T13:12:30Z</time>
      </trkpt>
      <trkpt lat="45.57631" lon="6.0744">
        <ele>1450.722</ele>
        <time>2020-09-19T13:12:30Z</time>
      </trkpt>
      <trkpt lat="45.57631" lon="6.07441">
        <ele>1450.682</ele>
        <time>2020-09-19T13:12:31Z</time>
      </trkpt>
      <trkpt lat="45.57632" lon="6.07441">
        <ele>1450.676</ele>
        <time>2020-09-19T13:12:32Z</time>
      </trkpt>
      <trkpt lat="45.57633" lon="6.07441">
        <ele>1451.029</ele>
        <time>2020-09-19T13:12:34Z</time>
      </trkpt>
      <trkpt lat="45.57637" lon="6.0744">
        <ele>1452.462</ele>
        <time>2020-09-19T13:12:38Z</time>
      </trkpt>
      <trkpt lat="45.57639" lon="6.0744">
        <ele>1452.089</ele>
        <time>2020-09-19T13:12:40Z</time>
      </trkpt>
      <trkpt lat="45.5764" lon="6.0744">
        <ele>1452.002</ele>
        <time>2020-09-19T13:12:42Z</time>
      </trkpt>
      <trkpt lat="45.57649" lon="6.07443">
        <ele>1450.564</ele>
        <time>2020-09-19T13:12:54Z</time>
      </trkpt>
      <trkpt lat="45.57651" lon="6.07442">
        <ele>1450.937</ele>
        <time>2020-09-19T13:12:57Z</time>
      </trkpt>
      <trkpt lat="45.57652" lon="6.07442">
        <ele>1451.197</ele>
        <time>2020-09-19T13:12:58Z</time>
      </trkpt>
      <trkpt lat="45.57659" lon="6.07446">
        <ele>1450.542</ele>
        <time>2020-09-19T13:13:06Z</time>
      </trkpt>
      <trkpt lat="45.57662" lon="6.07447">
        <ele>1450.514</ele>
        <time>2020-09-19T13:13:09Z</time>
      </trkpt>
      <trkpt lat="45.57664" lon="6.0745">
        <ele>1450.696</ele>
        <time>2020-09-19T13:13:13Z</time>
      </trkpt>
      <trkpt lat="45.5767" lon="6.07456">
        <ele>1450.249</ele>
        <time>2020-09-19T13:13:20Z</time>
      </trkpt>
      <trkpt lat="45.5768" lon="6.07465">
        <ele>1448.316</ele>
        <time>2020-09-19T13:13:34Z</time>
      </trkpt>
      <trkpt lat="45.57682" lon="6.07468">
        <ele>1448.057</ele>
        <time>2020-09-19T13:13:37Z</time>
      </trkpt>
      <trkpt lat="45.57684" lon="6.07471">
        <ele>1448.418</ele>
        <time>2020-09-19T13:13:40Z</time>
      </trkpt>
      <trkpt lat="45.57689" lon="6.07476">
        <ele>1447.965</ele>
        <time>2020-09-19T13:13:45Z</time>
      </trkpt>
      <trkpt lat="45.57693" lon="6.07479">
        <ele>1448.156</ele>
        <time>2020-09-19T13:13:51Z</time>
      </trkpt>
      <trkpt lat="45.57693" lon="6.07479">
        <ele>1448.156</ele>
        <time>2020-09-19T13:13:51Z</time>
      </trkpt>
      <trkpt lat="45.57693" lon="6.0748">
        <ele>1448.164</ele>
        <time>2020-09-19T13:13:52Z</time>
      </trkpt>
      <trkpt lat="45.57693" lon="6.07481">
        <ele>1448.432</ele>
        <time>2020-09-19T13:13:53Z</time>
      </trkpt>
      <trkpt lat="45.57696" lon="6.07482">
        <ele>1448.702</ele>
        <time>2020-09-19T13:13:57Z</time>
      </trkpt>
      <trkpt lat="45.57706" lon="6.07492">
        <ele>1447.542</ele>
        <time>2020-09-19T13:14:09Z</time>
      </trkpt>
      <trkpt lat="45.57709" lon="6.07495">
        <ele>1446.557</ele>
        <time>2020-09-19T13:14:13Z</time>
      </trkpt>
      <trkpt lat="45.5771" lon="6.07496">
        <ele>1446.313</ele>
        <time>2020-09-19T13:14:16Z</time>
      </trkpt>
      <trkpt lat="45.5771" lon="6.07496">
        <ele>1445.945</ele>
        <time>2020-09-19T13:14:18Z</time>
      </trkpt>
      <trkpt lat="45.57711" lon="6.07497">
        <ele>1445.684</ele>
        <time>2020-09-19T13:14:19Z</time>
      </trkpt>
      <trkpt lat="45.57711" lon="6.07497">
        <ele>1445.599</ele>
        <time>2020-09-19T13:14:20Z</time>
      </trkpt>
      <trkpt lat="45.57712" lon="6.07498">
        <ele>1445.423</ele>
        <time>2020-09-19T13:14:21Z</time>
      </trkpt>
      <trkpt lat="45.57713" lon="6.07501">
        <ele>1444.914</ele>
        <time>2020-09-19T13:14:23Z</time>
      </trkpt>
      <trkpt lat="45.57715" lon="6.07505">
        <ele>1445.258</ele>
        <time>2020-09-19T13:14:26Z</time>
      </trkpt>
      <trkpt lat="45.57718" lon="6.07507">
        <ele>1444.14</ele>
        <time>2020-09-19T13:14:29Z</time>
      </trkpt>
      <trkpt lat="45.5772" lon="6.07511">
        <ele>1443.622</ele>
        <time>2020-09-19T13:14:33Z</time>
      </trkpt>
      <trkpt lat="45.57723" lon="6.07517">
        <ele>1442.343</ele>
        <time>2020-09-19T13:14:38Z</time>
      </trkpt>
      <trkpt lat="45.57732" lon="6.07527">
        <ele>1442.398</ele>
        <time>2020-09-19T13:14:51Z</time>
      </trkpt>
      <trkpt lat="45.57742" lon="6.07533">
        <ele>1441.992</ele>
        <time>2020-09-19T13:15:03Z</time>
      </trkpt>
      <trkpt lat="45.57747" lon="6.07536">
        <ele>1441.646</ele>
        <time>2020-09-19T13:15:09Z</time>
      </trkpt>
      <trkpt lat="45.57751" lon="6.07537">
        <ele>1442.133</ele>
        <time>2020-09-19T13:15:13Z</time>
      </trkpt>
      <trkpt lat="45.57751" lon="6.07537">
        <ele>1442.359</ele>
        <time>2020-09-19T13:15:14Z</time>
      </trkpt>
      <trkpt lat="45.57751" lon="6.07537">
        <ele>1441.262</ele>
        <time>2020-09-19T13:15:46Z</time>
      </trkpt>
      <trkpt lat="45.57751" lon="6.07537">
        <ele>1441.216</ele>
        <time>2020-09-19T13:15:47Z</time>
      </trkpt>
      <trkpt lat="45.57751" lon="6.07537">
        <ele>1441.216</ele>
        <time>2020-09-19T13:15:47Z</time>
      </trkpt>
      <trkpt lat="45.57751" lon="6.07537">
        <ele>1441.2</ele>
        <time>2020-09-19T13:15:48Z</time>
      </trkpt>
      <trkpt lat="45.57751" lon="6.07537">
        <ele>1441.2</ele>
        <time>2020-09-19T13:15:48Z</time>
      </trkpt>
      <trkpt lat="45.57751" lon="6.07537">
        <ele>1441.624</ele>
        <time>2020-09-19T13:15:49Z</time>
      </trkpt>
      <trkpt lat="45.57751" lon="6.07537">
        <ele>1441.863</ele>
        <time>2020-09-19T13:15:51Z</time>
      </trkpt>
      <trkpt lat="45.57751" lon="6.07537">
        <ele>1442.321</ele>
        <time>2020-09-19T13:15:52Z</time>
      </trkpt>
      <trkpt lat="45.57751" lon="6.07537">
        <ele>1442.321</ele>
        <time>2020-09-19T13:15:52Z</time>
      </trkpt>
      <trkpt lat="45.57751" lon="6.07536">
        <ele>1442.232</ele>
        <time>2020-09-19T13:15:53Z</time>
      </trkpt>
      <trkpt lat="45.57751" lon="6.07535">
        <ele>1442.185</ele>
        <time>2020-09-19T13:15:54Z</time>
      </trkpt>
      <trkpt lat="45.57751" lon="6.07535">
        <ele>1442.177</ele>
        <time>2020-09-19T13:15:55Z</time>
      </trkpt>
      <trkpt lat="45.57751" lon="6.07535">
        <ele>1442.276</ele>
        <time>2020-09-19T13:17:42Z</time>
      </trkpt>
      <trkpt lat="45.57751" lon="6.07539">
        <ele>1441.374</ele>
        <time>2020-09-19T13:17:43Z</time>
      </trkpt>
      <trkpt lat="45.57752" lon="6.07536">
        <ele>1441.526</ele>
        <time>2020-09-19T13:17:46Z</time>
      </trkpt>
      <trkpt lat="45.57752" lon="6.07535">
        <ele>1441.31</ele>
        <time>2020-09-19T13:17:47Z</time>
      </trkpt>
      <trkpt lat="45.57752" lon="6.07535">
        <ele>1441.316</ele>
        <time>2020-09-19T13:17:48Z</time>
      </trkpt>
      <trkpt lat="45.57752" lon="6.07535">
        <ele>1441.192</ele>
        <time>2020-09-19T13:18:06Z</time>
      </trkpt>
      <trkpt lat="45.57753" lon="6.07534">
        <ele>1440.869</ele>
        <time>2020-09-19T13:18:07Z</time>
      </trkpt>
      <trkpt lat="45.57754" lon="6.07535">
        <ele>1442.218</ele>
        <time>2020-09-19T13:18:11Z</time>
      </trkpt>
      <trkpt lat="45.57754" lon="6.07536">
        <ele>1442.614</ele>
        <time>2020-09-19T13:18:13Z</time>
      </trkpt>
      <trkpt lat="45.57754" lon="6.07536">
        <ele>1442.587</ele>
        <time>2020-09-19T13:18:55Z</time>
      </trkpt>
      <trkpt lat="45.57755" lon="6.07536">
        <ele>1442.536</ele>
        <time>2020-09-19T13:18:56Z</time>
      </trkpt>
      <trkpt lat="45.57755" lon="6.07536">
        <ele>1442.536</ele>
        <time>2020-09-19T13:18:56Z</time>
      </trkpt>
      <trkpt lat="45.57755" lon="6.07536">
        <ele>1441.569</ele>
        <time>2020-09-19T13:18:57Z</time>
      </trkpt>
      <trkpt lat="45.57755" lon="6.07536">
        <ele>1441.737</ele>
        <time>2020-09-19T13:18:58Z</time>
      </trkpt>
      <trkpt lat="45.57755" lon="6.07536">
        <ele>1441.011</ele>
        <time>2020-09-19T13:18:59Z</time>
      </trkpt>
      <trkpt lat="45.57755" lon="6.07536">
        <ele>1441.325</ele>
        <time>2020-09-19T13:20:08Z</time>
      </trkpt>
      <trkpt lat="45.57755" lon="6.07537">
        <ele>1440.765</ele>
        <time>2020-09-19T13:20:09Z</time>
      </trkpt>
      <trkpt lat="45.57757" lon="6.07537">
        <ele>1439.557</ele>
        <time>2020-09-19T13:20:13Z</time>
      </trkpt>
      <trkpt lat="45.57757" lon="6.07537">
        <ele>1438.908</ele>
        <time>2020-09-19T13:20:15Z</time>
      </trkpt>
      <trkpt lat="45.57758" lon="6.07537">
        <ele>1438.969</ele>
        <time>2020-09-19T13:20:16Z</time>
      </trkpt>
      <trkpt lat="45.5776" lon="6.07536">
        <ele>1438.972</ele>
        <time>2020-09-19T13:20:18Z</time>
      </trkpt>
      <trkpt lat="45.57763" lon="6.07537">
        <ele>1439.301</ele>
        <time>2020-09-19T13:20:25Z</time>
      </trkpt>
      <trkpt lat="45.57766" lon="6.07538">
        <ele>1440.732</ele>
        <time>2020-09-19T13:20:28Z</time>
      </trkpt>
      <trkpt lat="45.57767" lon="6.07537">
        <ele>1438.362</ele>
        <time>2020-09-19T13:20:31Z</time>
      </trkpt>
      <trkpt lat="45.57767" lon="6.07537">
        <ele>1439.17</ele>
        <time>2020-09-19T13:20:33Z</time>
      </trkpt>
      <trkpt lat="45.5777" lon="6.07537">
        <ele>1439.248</ele>
        <time>2020-09-19T13:20:38Z</time>
      </trkpt>
      <trkpt lat="45.57775" lon="6.07535">
        <ele>1440.907</ele>
        <time>2020-09-19T13:20:43Z</time>
      </trkpt>
      <trkpt lat="45.5778" lon="6.0753">
        <ele>1440.913</ele>
        <time>2020-09-19T13:20:51Z</time>
      </trkpt>
      <trkpt lat="45.57793" lon="6.07515">
        <ele>1440.231</ele>
        <time>2020-09-19T13:21:10Z</time>
      </trkpt>
      <trkpt lat="45.57797" lon="6.07513">
        <ele>1439.828</ele>
        <time>2020-09-19T13:21:15Z</time>
      </trkpt>
      <trkpt lat="45.57808" lon="6.07513">
        <ele>1437.794</ele>
        <time>2020-09-19T13:21:30Z</time>
      </trkpt>
      <trkpt lat="45.57817" lon="6.07514">
        <ele>1435.666</ele>
        <time>2020-09-19T13:21:42Z</time>
      </trkpt>
      <trkpt lat="45.57825" lon="6.07514">
        <ele>1433.569</ele>
        <time>2020-09-19T13:21:53Z</time>
      </trkpt>
      <trkpt lat="45.57841" lon="6.07512">
        <ele>1432.636</ele>
        <time>2020-09-19T13:22:12Z</time>
      </trkpt>
      <trkpt lat="45.57843" lon="6.0751">
        <ele>1432.529</ele>
        <time>2020-09-19T13:22:14Z</time>
      </trkpt>
      <trkpt lat="45.57853" lon="6.07507">
        <ele>1432.912</ele>
        <time>2020-09-19T13:22:28Z</time>
      </trkpt>
      <trkpt lat="45.57854" lon="6.07507">
        <ele>1432.926</ele>
        <time>2020-09-19T13:22:29Z</time>
      </trkpt>
      <trkpt lat="45.57871" lon="6.07507">
        <ele>1430.775</ele>
        <time>2020-09-19T13:22:47Z</time>
      </trkpt>
      <trkpt lat="45.57873" lon="6.07507">
        <ele>1430.126</ele>
        <time>2020-09-19T13:22:52Z</time>
      </trkpt>
      <trkpt lat="45.57874" lon="6.07507">
        <ele>1429.992</ele>
        <time>2020-09-19T13:22:53Z</time>
      </trkpt>
      <trkpt lat="45.57878" lon="6.07506">
        <ele>1429.012</ele>
        <time>2020-09-19T13:22:58Z</time>
      </trkpt>
      <trkpt lat="45.57888" lon="6.07509">
        <ele>1426.974</ele>
        <time>2020-09-19T13:23:11Z</time>
      </trkpt>
      <trkpt lat="45.57893" lon="6.07511">
        <ele>1426.005</ele>
        <time>2020-09-19T13:23:17Z</time>
      </trkpt>
      <trkpt lat="45.57901" lon="6.07516">
        <ele>1423.946</ele>
        <time>2020-09-19T13:23:26Z</time>
      </trkpt>
      <trkpt lat="45.57909" lon="6.07519">
        <ele>1421.672</ele>
        <time>2020-09-19T13:23:35Z</time>
      </trkpt>
      <trkpt lat="45.57918" lon="6.07519">
        <ele>1420.251</ele>
        <time>2020-09-19T13:23:47Z</time>
      </trkpt>
      <trkpt lat="45.57919" lon="6.07519">
        <ele>1420.188</ele>
        <time>2020-09-19T13:23:48Z</time>
      </trkpt>
      <trkpt lat="45.57919" lon="6.07519">
        <ele>1420.142</ele>
        <time>2020-09-19T13:23:49Z</time>
      </trkpt>
      <trkpt lat="45.5792" lon="6.0752">
        <ele>1419.879</ele>
        <time>2020-09-19T13:23:50Z</time>
      </trkpt>
      <trkpt lat="45.57921" lon="6.07522">
        <ele>1419.884</ele>
        <time>2020-09-19T13:23:52Z</time>
      </trkpt>
      <trkpt lat="45.57924" lon="6.07524">
        <ele>1419.802</ele>
        <time>2020-09-19T13:23:55Z</time>
      </trkpt>
      <trkpt lat="45.57928" lon="6.07523">
        <ele>1419.056</ele>
        <time>2020-09-19T13:24:00Z</time>
      </trkpt>
      <trkpt lat="45.57935" lon="6.07517">
        <ele>1417.763</ele>
        <time>2020-09-19T13:24:09Z</time>
      </trkpt>
      <trkpt lat="45.57939" lon="6.07519">
        <ele>1416.577</ele>
        <time>2020-09-19T13:24:18Z</time>
      </trkpt>
      <trkpt lat="45.57938" lon="6.07522">
        <ele>1416.064</ele>
        <time>2020-09-19T13:24:21Z</time>
      </trkpt>
      <trkpt lat="45.57934" lon="6.07527">
        <ele>1414.143</ele>
        <time>2020-09-19T13:24:27Z</time>
      </trkpt>
      <trkpt lat="45.57934" lon="6.07527">
        <ele>1413.925</ele>
        <time>2020-09-19T13:24:28Z</time>
      </trkpt>
      <trkpt lat="45.57934" lon="6.07527">
        <ele>1413.238</ele>
        <time>2020-09-19T13:24:30Z</time>
      </trkpt>
      <trkpt lat="45.57933" lon="6.07525">
        <ele>1412.972</ele>
        <time>2020-09-19T13:24:31Z</time>
      </trkpt>
      <trkpt lat="45.57932" lon="6.07526">
        <ele>1413.1</ele>
        <time>2020-09-19T13:24:32Z</time>
      </trkpt>
      <trkpt lat="45.57925" lon="6.07535">
        <ele>1411.492</ele>
        <time>2020-09-19T13:24:43Z</time>
      </trkpt>
      <trkpt lat="45.5793" lon="6.0754">
        <ele>1410.78</ele>
        <time>2020-09-19T13:24:49Z</time>
      </trkpt>
      <trkpt lat="45.57942" lon="6.07541">
        <ele>1408.553</ele>
        <time>2020-09-19T13:24:59Z</time>
      </trkpt>
      <trkpt lat="45.57946" lon="6.07542">
        <ele>1408.044</ele>
        <time>2020-09-19T13:25:03Z</time>
      </trkpt>
      <trkpt lat="45.57959" lon="6.07536">
        <ele>1406.76</ele>
        <time>2020-09-19T13:25:16Z</time>
      </trkpt>
      <trkpt lat="45.57961" lon="6.07536">
        <ele>1406.827</ele>
        <time>2020-09-19T13:25:18Z</time>
      </trkpt>
      <trkpt lat="45.57962" lon="6.07535">
        <ele>1406.735</ele>
        <time>2020-09-19T13:25:20Z</time>
      </trkpt>
      <trkpt lat="45.57962" lon="6.07535">
        <ele>1406.735</ele>
        <time>2020-09-19T13:25:20Z</time>
      </trkpt>
      <trkpt lat="45.57962" lon="6.07535">
        <ele>1406.648</ele>
        <time>2020-09-19T13:25:21Z</time>
      </trkpt>
      <trkpt lat="45.57962" lon="6.07535">
        <ele>1406.731</ele>
        <time>2020-09-19T13:25:28Z</time>
      </trkpt>
      <trkpt lat="45.57964" lon="6.07535">
        <ele>1406.529</ele>
        <time>2020-09-19T13:25:29Z</time>
      </trkpt>
      <trkpt lat="45.57965" lon="6.07534">
        <ele>1406.572</ele>
        <time>2020-09-19T13:25:31Z</time>
      </trkpt>
      <trkpt lat="45.57968" lon="6.07532">
        <ele>1406.189</ele>
        <time>2020-09-19T13:25:35Z</time>
      </trkpt>
      <trkpt lat="45.57972" lon="6.07528">
        <ele>1407.151</ele>
        <time>2020-09-19T13:25:41Z</time>
      </trkpt>
      <trkpt lat="45.57973" lon="6.07528">
        <ele>1406.767</ele>
        <time>2020-09-19T13:25:42Z</time>
      </trkpt>
      <trkpt lat="45.57976" lon="6.07526">
        <ele>1404.289</ele>
        <time>2020-09-19T13:25:47Z</time>
      </trkpt>
      <trkpt lat="45.57977" lon="6.07531">
        <ele>1402.853</ele>
        <time>2020-09-19T13:25:52Z</time>
      </trkpt>
      <trkpt lat="45.5797" lon="6.07538">
        <ele>1400.825</ele>
        <time>2020-09-19T13:26:00Z</time>
      </trkpt>
      <trkpt lat="45.57968" lon="6.0754">
        <ele>1400.346</ele>
        <time>2020-09-19T13:26:03Z</time>
      </trkpt>
      <trkpt lat="45.57961" lon="6.07556">
        <ele>1398.4</ele>
        <time>2020-09-19T13:26:16Z</time>
      </trkpt>
      <trkpt lat="45.57963" lon="6.07558">
        <ele>1397.781</ele>
        <time>2020-09-19T13:26:19Z</time>
      </trkpt>
      <trkpt lat="45.57967" lon="6.07557">
        <ele>1397.309</ele>
        <time>2020-09-19T13:26:22Z</time>
      </trkpt>
      <trkpt lat="45.57984" lon="6.07548">
        <ele>1395.696</ele>
        <time>2020-09-19T13:26:41Z</time>
      </trkpt>
      <trkpt lat="45.57985" lon="6.07548">
        <ele>1395.645</ele>
        <time>2020-09-19T13:26:42Z</time>
      </trkpt>
      <trkpt lat="45.57986" lon="6.07548">
        <ele>1395.705</ele>
        <time>2020-09-19T13:26:43Z</time>
      </trkpt>
      <trkpt lat="45.57986" lon="6.07548">
        <ele>1395.44</ele>
        <time>2020-09-19T13:26:44Z</time>
      </trkpt>
      <trkpt lat="45.57989" lon="6.07556">
        <ele>1393.927</ele>
        <time>2020-09-19T13:26:52Z</time>
      </trkpt>
      <trkpt lat="45.57986" lon="6.07559">
        <ele>1393.836</ele>
        <time>2020-09-19T13:26:55Z</time>
      </trkpt>
      <trkpt lat="45.57973" lon="6.0757">
        <ele>1392.063</ele>
        <time>2020-09-19T13:27:10Z</time>
      </trkpt>
      <trkpt lat="45.57955" lon="6.07579">
        <ele>1390.302</ele>
        <time>2020-09-19T13:27:30Z</time>
      </trkpt>
      <trkpt lat="45.57949" lon="6.07581">
        <ele>1389.644</ele>
        <time>2020-09-19T13:27:36Z</time>
      </trkpt>
      <trkpt lat="45.57946" lon="6.07586">
        <ele>1389.551</ele>
        <time>2020-09-19T13:27:41Z</time>
      </trkpt>
      <trkpt lat="45.57943" lon="6.07589">
        <ele>1389.375</ele>
        <time>2020-09-19T13:27:46Z</time>
      </trkpt>
      <trkpt lat="45.5794" lon="6.07591">
        <ele>1389.285</ele>
        <time>2020-09-19T13:27:49Z</time>
      </trkpt>
      <trkpt lat="45.57937" lon="6.0759">
        <ele>1389.107</ele>
        <time>2020-09-19T13:27:51Z</time>
      </trkpt>
      <trkpt lat="45.57934" lon="6.07588">
        <ele>1388.967</ele>
        <time>2020-09-19T13:27:52Z</time>
      </trkpt>
      <trkpt lat="45.57932" lon="6.07585">
        <ele>1389.222</ele>
        <time>2020-09-19T13:27:53Z</time>
      </trkpt>
      <trkpt lat="45.5793" lon="6.07582">
        <ele>1388.99</ele>
        <time>2020-09-19T13:27:56Z</time>
      </trkpt>
      <trkpt lat="45.57923" lon="6.0758">
        <ele>1389.319</ele>
        <time>2020-09-19T13:28:02Z</time>
      </trkpt>
      <trkpt lat="45.57923" lon="6.07583">
        <ele>1389.038</ele>
        <time>2020-09-19T13:28:04Z</time>
      </trkpt>
      <trkpt lat="45.57923" lon="6.07584">
        <ele>1389.024</ele>
        <time>2020-09-19T13:28:05Z</time>
      </trkpt>
      <trkpt lat="45.57923" lon="6.07586">
        <ele>1389.248</ele>
        <time>2020-09-19T13:28:06Z</time>
      </trkpt>
      <trkpt lat="45.57921" lon="6.07588">
        <ele>1389.229</ele>
        <time>2020-09-19T13:28:09Z</time>
      </trkpt>
      <trkpt lat="45.5792" lon="6.07588">
        <ele>1389.382</ele>
        <time>2020-09-19T13:28:10Z</time>
      </trkpt>
      <trkpt lat="45.57919" lon="6.07587">
        <ele>1389.328</ele>
        <time>2020-09-19T13:28:12Z</time>
      </trkpt>
      <trkpt lat="45.57915" lon="6.07588">
        <ele>1389.14</ele>
        <time>2020-09-19T13:28:16Z</time>
      </trkpt>
      <trkpt lat="45.5791" lon="6.0759">
        <ele>1389.526</ele>
        <time>2020-09-19T13:28:19Z</time>
      </trkpt>
      <trkpt lat="45.57904" lon="6.07592">
        <ele>1389.347</ele>
        <time>2020-09-19T13:28:24Z</time>
      </trkpt>
      <trkpt lat="45.57898" lon="6.07599">
        <ele>1389.039</ele>
        <time>2020-09-19T13:28:31Z</time>
      </trkpt>
      <trkpt lat="45.57898" lon="6.07605">
        <ele>1388.9</ele>
        <time>2020-09-19T13:28:33Z</time>
      </trkpt>
      <trkpt lat="45.57899" lon="6.07608">
        <ele>1387.792</ele>
        <time>2020-09-19T13:28:36Z</time>
      </trkpt>
      <trkpt lat="45.57898" lon="6.07607">
        <ele>1387.28</ele>
        <time>2020-09-19T13:28:37Z</time>
      </trkpt>
      <trkpt lat="45.57898" lon="6.07606">
        <ele>1387.172</ele>
        <time>2020-09-19T13:28:38Z</time>
      </trkpt>
      <trkpt lat="45.57899" lon="6.07601">
        <ele>1387.03</ele>
        <time>2020-09-19T13:28:41Z</time>
      </trkpt>
      <trkpt lat="45.57898" lon="6.076">
        <ele>1386.978</ele>
        <time>2020-09-19T13:28:42Z</time>
      </trkpt>
      <trkpt lat="45.57895" lon="6.07601">
        <ele>1387.731</ele>
        <time>2020-09-19T13:28:46Z</time>
      </trkpt>
      <trkpt lat="45.57895" lon="6.07601">
        <ele>1387.488</ele>
        <time>2020-09-19T13:28:47Z</time>
      </trkpt>
      <trkpt lat="45.57894" lon="6.07602">
        <ele>1387.165</ele>
        <time>2020-09-19T13:28:50Z</time>
      </trkpt>
      <trkpt lat="45.5789" lon="6.07605">
        <ele>1387.116</ele>
        <time>2020-09-19T13:28:53Z</time>
      </trkpt>
      <trkpt lat="45.57888" lon="6.07609">
        <ele>1386.557</ele>
        <time>2020-09-19T13:28:55Z</time>
      </trkpt>
      <trkpt lat="45.57886" lon="6.07613">
        <ele>1385.706</ele>
        <time>2020-09-19T13:28:57Z</time>
      </trkpt>
      <trkpt lat="45.57885" lon="6.0762">
        <ele>1383.022</ele>
        <time>2020-09-19T13:29:03Z</time>
      </trkpt>
      <trkpt lat="45.57887" lon="6.07623">
        <ele>1382.443</ele>
        <time>2020-09-19T13:29:06Z</time>
      </trkpt>
      <trkpt lat="45.57887" lon="6.07626">
        <ele>1382.097</ele>
        <time>2020-09-19T13:29:09Z</time>
      </trkpt>
      <trkpt lat="45.57887" lon="6.07631">
        <ele>1381.755</ele>
        <time>2020-09-19T13:29:13Z</time>
      </trkpt>
      <trkpt lat="45.57885" lon="6.0764">
        <ele>1380.64</ele>
        <time>2020-09-19T13:29:22Z</time>
      </trkpt>
      <trkpt lat="45.57885" lon="6.07647">
        <ele>1378.983</ele>
        <time>2020-09-19T13:29:28Z</time>
      </trkpt>
      <trkpt lat="45.57885" lon="6.0765">
        <ele>1378.632</ele>
        <time>2020-09-19T13:29:31Z</time>
      </trkpt>
      <trkpt lat="45.57883" lon="6.07654">
        <ele>1378.483</ele>
        <time>2020-09-19T13:29:35Z</time>
      </trkpt>
      <trkpt lat="45.57883" lon="6.07655">
        <ele>1378.567</ele>
        <time>2020-09-19T13:29:36Z</time>
      </trkpt>
      <trkpt lat="45.57882" lon="6.0766">
        <ele>1377.835</ele>
        <time>2020-09-19T13:29:40Z</time>
      </trkpt>
      <trkpt lat="45.57877" lon="6.07691">
        <ele>1375.793</ele>
        <time>2020-09-19T13:29:59Z</time>
      </trkpt>
      <trkpt lat="45.57874" lon="6.07703">
        <ele>1373.313</ele>
        <time>2020-09-19T13:30:07Z</time>
      </trkpt>
      <trkpt lat="45.57871" lon="6.07709">
        <ele>1371.471</ele>
        <time>2020-09-19T13:30:15Z</time>
      </trkpt>
      <trkpt lat="45.57861" lon="6.0771">
        <ele>1370.636</ele>
        <time>2020-09-19T13:30:26Z</time>
      </trkpt>
      <trkpt lat="45.57857" lon="6.07706">
        <ele>1370.599</ele>
        <time>2020-09-19T13:30:32Z</time>
      </trkpt>
      <trkpt lat="45.57843" lon="6.0772">
        <ele>1370.034</ele>
        <time>2020-09-19T13:30:50Z</time>
      </trkpt>
      <trkpt lat="45.57841" lon="6.07725">
        <ele>1370.069</ele>
        <time>2020-09-19T13:30:53Z</time>
      </trkpt>
      <trkpt lat="45.57838" lon="6.07729">
        <ele>1369.883</ele>
        <time>2020-09-19T13:30:58Z</time>
      </trkpt>
      <trkpt lat="45.57836" lon="6.07732">
        <ele>1369.284</ele>
        <time>2020-09-19T13:31:02Z</time>
      </trkpt>
      <trkpt lat="45.57835" lon="6.07733">
        <ele>1369.066</ele>
        <time>2020-09-19T13:31:04Z</time>
      </trkpt>
      <trkpt lat="45.57835" lon="6.07733">
        <ele>1368.434</ele>
        <time>2020-09-19T13:31:25Z</time>
      </trkpt>
      <trkpt lat="45.57836" lon="6.07732">
        <ele>1368.471</ele>
        <time>2020-09-19T13:31:26Z</time>
      </trkpt>
      <trkpt lat="45.57835" lon="6.07736">
        <ele>1367.273</ele>
        <time>2020-09-19T13:31:30Z</time>
      </trkpt>
      <trkpt lat="45.57833" lon="6.07741">
        <ele>1364.897</ele>
        <time>2020-09-19T13:31:35Z</time>
      </trkpt>
      <trkpt lat="45.57832" lon="6.07747">
        <ele>1362.554</ele>
        <time>2020-09-19T13:31:41Z</time>
      </trkpt>
      <trkpt lat="45.5783" lon="6.07752">
        <ele>1361.77</ele>
        <time>2020-09-19T13:31:47Z</time>
      </trkpt>
      <trkpt lat="45.5783" lon="6.07752">
        <ele>1360.723</ele>
        <time>2020-09-19T13:31:53Z</time>
      </trkpt>
      <trkpt lat="45.57832" lon="6.07756">
        <ele>1360.89</ele>
        <time>2020-09-19T13:31:54Z</time>
      </trkpt>
      <trkpt lat="45.57833" lon="6.07757">
        <ele>1361.374</ele>
        <time>2020-09-19T13:31:56Z</time>
      </trkpt>
      <trkpt lat="45.57833" lon="6.07757">
        <ele>1361.267</ele>
        <time>2020-09-19T13:31:57Z</time>
      </trkpt>
      <trkpt lat="45.57833" lon="6.07757">
        <ele>1361.916</ele>
        <time>2020-09-19T13:32:14Z</time>
      </trkpt>
      <trkpt lat="45.57834" lon="6.0776">
        <ele>1361.183</ele>
        <time>2020-09-19T13:32:15Z</time>
      </trkpt>
      <trkpt lat="45.57834" lon="6.0776">
        <ele>1361.044</ele>
        <time>2020-09-19T13:32:16Z</time>
      </trkpt>
      <trkpt lat="45.57834" lon="6.0776">
        <ele>1360.303</ele>
        <time>2020-09-19T13:33:35Z</time>
      </trkpt>
      <trkpt lat="45.57832" lon="6.07761">
        <ele>1359.918</ele>
        <time>2020-09-19T13:33:36Z</time>
      </trkpt>
      <trkpt lat="45.57831" lon="6.07761">
        <ele>1359.572</ele>
        <time>2020-09-19T13:33:37Z</time>
      </trkpt>
      <trkpt lat="45.57828" lon="6.07764">
        <ele>1358.642</ele>
        <time>2020-09-19T13:33:40Z</time>
      </trkpt>
      <trkpt lat="45.57818" lon="6.07772">
        <ele>1358.445</ele>
        <time>2020-09-19T13:33:51Z</time>
      </trkpt>
      <trkpt lat="45.57809" lon="6.0778">
        <ele>1356.534</ele>
        <time>2020-09-19T13:34:02Z</time>
      </trkpt>
      <trkpt lat="45.57807" lon="6.0778">
        <ele>1356.334</ele>
        <time>2020-09-19T13:34:06Z</time>
      </trkpt>
      <trkpt lat="45.57807" lon="6.0778">
        <ele>1356.334</ele>
        <time>2020-09-19T13:34:06Z</time>
      </trkpt>
      <trkpt lat="45.57807" lon="6.0778">
        <ele>1355.892</ele>
        <time>2020-09-19T13:34:07Z</time>
      </trkpt>
      <trkpt lat="45.57807" lon="6.0778">
        <ele>1356.133</ele>
        <time>2020-09-19T13:34:08Z</time>
      </trkpt>
      <trkpt lat="45.57807" lon="6.0778">
        <ele>1354.116</ele>
        <time>2020-09-19T13:34:11Z</time>
      </trkpt>
      <trkpt lat="45.57808" lon="6.07781">
        <ele>1354.321</ele>
        <time>2020-09-19T13:34:12Z</time>
      </trkpt>
      <trkpt lat="45.57805" lon="6.0778">
        <ele>1353.418</ele>
        <time>2020-09-19T13:34:16Z</time>
      </trkpt>
      <trkpt lat="45.57802" lon="6.07781">
        <ele>1353.261</ele>
        <time>2020-09-19T13:34:20Z</time>
      </trkpt>
      <trkpt lat="45.57799" lon="6.07786">
        <ele>1353.094</ele>
        <time>2020-09-19T13:34:24Z</time>
      </trkpt>
      <trkpt lat="45.57797" lon="6.07787">
        <ele>1352.928</ele>
        <time>2020-09-19T13:34:27Z</time>
      </trkpt>
      <trkpt lat="45.57796" lon="6.07787">
        <ele>1353.223</ele>
        <time>2020-09-19T13:34:28Z</time>
      </trkpt>
      <trkpt lat="45.57796" lon="6.07787">
        <ele>1353.167</ele>
        <time>2020-09-19T13:34:29Z</time>
      </trkpt>
      <trkpt lat="45.57795" lon="6.07788">
        <ele>1353.393</ele>
        <time>2020-09-19T13:34:35Z</time>
      </trkpt>
      <trkpt lat="45.57794" lon="6.07788">
        <ele>1353.157</ele>
        <time>2020-09-19T13:34:37Z</time>
      </trkpt>
      <trkpt lat="45.5779" lon="6.07789">
        <ele>1353.662</ele>
        <time>2020-09-19T13:34:40Z</time>
      </trkpt>
      <trkpt lat="45.57785" lon="6.0779">
        <ele>1354.2</ele>
        <time>2020-09-19T13:34:44Z</time>
      </trkpt>
      <trkpt lat="45.57783" lon="6.07791">
        <ele>1353.837</ele>
        <time>2020-09-19T13:34:46Z</time>
      </trkpt>
      <trkpt lat="45.57778" lon="6.07789">
        <ele>1353.606</ele>
        <time>2020-09-19T13:34:50Z</time>
      </trkpt>
      <trkpt lat="45.57772" lon="6.0779">
        <ele>1353.946</ele>
        <time>2020-09-19T13:34:54Z</time>
      </trkpt>
      <trkpt lat="45.57768" lon="6.07791">
        <ele>1353.72</ele>
        <time>2020-09-19T13:34:57Z</time>
      </trkpt>
      <trkpt lat="45.57756" lon="6.07788">
        <ele>1353.297</ele>
        <time>2020-09-19T13:35:03Z</time>
      </trkpt>
      <trkpt lat="45.57753" lon="6.07787">
        <ele>1353.485</ele>
        <time>2020-09-19T13:35:06Z</time>
      </trkpt>
      <trkpt lat="45.57753" lon="6.07782">
        <ele>1353.644</ele>
        <time>2020-09-19T13:35:09Z</time>
      </trkpt>
      <trkpt lat="45.57752" lon="6.07779">
        <ele>1353.652</ele>
        <time>2020-09-19T13:35:15Z</time>
      </trkpt>
      <trkpt lat="45.5775" lon="6.07776">
        <ele>1353.485</ele>
        <time>2020-09-19T13:35:18Z</time>
      </trkpt>
      <trkpt lat="45.57747" lon="6.07775">
        <ele>1353.065</ele>
        <time>2020-09-19T13:35:21Z</time>
      </trkpt>
      <trkpt lat="45.57744" lon="6.07774">
        <ele>1352.003</ele>
        <time>2020-09-19T13:35:24Z</time>
      </trkpt>
      <trkpt lat="45.57742" lon="6.07773">
        <ele>1351.976</ele>
        <time>2020-09-19T13:35:27Z</time>
      </trkpt>
      <trkpt lat="45.57741" lon="6.07772">
        <ele>1351.748</ele>
        <time>2020-09-19T13:35:31Z</time>
      </trkpt>
      <trkpt lat="45.5774" lon="6.07771">
        <ele>1351.768</ele>
        <time>2020-09-19T13:35:32Z</time>
      </trkpt>
      <trkpt lat="45.5774" lon="6.07772">
        <ele>1351.703</ele>
        <time>2020-09-19T13:35:33Z</time>
      </trkpt>
      <trkpt lat="45.57736" lon="6.07775">
        <ele>1351.234</ele>
        <time>2020-09-19T13:35:36Z</time>
      </trkpt>
      <trkpt lat="45.57735" lon="6.07771">
        <ele>1349.468</ele>
        <time>2020-09-19T13:35:41Z</time>
      </trkpt>
      <trkpt lat="45.57735" lon="6.0777">
        <ele>1349.014</ele>
        <time>2020-09-19T13:35:42Z</time>
      </trkpt>
      <trkpt lat="45.57734" lon="6.07768">
        <ele>1348.9</ele>
        <time>2020-09-19T13:35:45Z</time>
      </trkpt>
      <trkpt lat="45.5773" lon="6.0777">
        <ele>1347.87</ele>
        <time>2020-09-19T13:35:50Z</time>
      </trkpt>
      <trkpt lat="45.57723" lon="6.07777">
        <ele>1346.055</ele>
        <time>2020-09-19T13:35:56Z</time>
      </trkpt>
      <trkpt lat="45.57719" lon="6.07777">
        <ele>1345.501</ele>
        <time>2020-09-19T13:36:00Z</time>
      </trkpt>
      <trkpt lat="45.57717" lon="6.07779">
        <ele>1345.317</ele>
        <time>2020-09-19T13:36:04Z</time>
      </trkpt>
      <trkpt lat="45.57711" lon="6.07781">
        <ele>1345.054</ele>
        <time>2020-09-19T13:36:09Z</time>
      </trkpt>
      <trkpt lat="45.57709" lon="6.07783">
        <ele>1344.289</ele>
        <time>2020-09-19T13:36:13Z</time>
      </trkpt>
      <trkpt lat="45.57706" lon="6.07784">
        <ele>1343.006</ele>
        <time>2020-09-19T13:36:17Z</time>
      </trkpt>
      <trkpt lat="45.57705" lon="6.07784">
        <ele>1342.638</ele>
        <time>2020-09-19T13:36:19Z</time>
      </trkpt>
      <trkpt lat="45.57704" lon="6.07784">
        <ele>1342.333</ele>
        <time>2020-09-19T13:36:22Z</time>
      </trkpt>
      <trkpt lat="45.57703" lon="6.07783">
        <ele>1342.548</ele>
        <time>2020-09-19T13:36:23Z</time>
      </trkpt>
      <trkpt lat="45.577" lon="6.07783">
        <ele>1343.21</ele>
        <time>2020-09-19T13:36:26Z</time>
      </trkpt>
      <trkpt lat="45.57695" lon="6.07785">
        <ele>1343.194</ele>
        <time>2020-09-19T13:36:29Z</time>
      </trkpt>
      <trkpt lat="45.57678" lon="6.07796">
        <ele>1341.882</ele>
        <time>2020-09-19T13:36:43Z</time>
      </trkpt>
      <trkpt lat="45.57675" lon="6.07797">
        <ele>1341.74</ele>
        <time>2020-09-19T13:36:45Z</time>
      </trkpt>
      <trkpt lat="45.57671" lon="6.07801">
        <ele>1341.44</ele>
        <time>2020-09-19T13:36:48Z</time>
      </trkpt>
      <trkpt lat="45.5767" lon="6.07801">
        <ele>1340.793</ele>
        <time>2020-09-19T13:36:50Z</time>
      </trkpt>
      <trkpt lat="45.57667" lon="6.07803">
        <ele>1340.626</ele>
        <time>2020-09-19T13:36:53Z</time>
      </trkpt>
      <trkpt lat="45.57666" lon="6.07804">
        <ele>1339.751</ele>
        <time>2020-09-19T13:36:56Z</time>
      </trkpt>
      <trkpt lat="45.57664" lon="6.07805">
        <ele>1339.717</ele>
        <time>2020-09-19T13:36:59Z</time>
      </trkpt>
      <trkpt lat="45.57655" lon="6.07807">
        <ele>1339.758</ele>
        <time>2020-09-19T13:37:07Z</time>
      </trkpt>
      <trkpt lat="45.57652" lon="6.07807">
        <ele>1339.216</ele>
        <time>2020-09-19T13:37:10Z</time>
      </trkpt>
      <trkpt lat="45.57646" lon="6.07804">
        <ele>1338.566</ele>
        <time>2020-09-19T13:37:16Z</time>
      </trkpt>
      <trkpt lat="45.57646" lon="6.07804">
        <ele>1338.425</ele>
        <time>2020-09-19T13:37:19Z</time>
      </trkpt>
      <trkpt lat="45.57646" lon="6.07804">
        <ele>1338.425</ele>
        <time>2020-09-19T13:37:19Z</time>
      </trkpt>
      <trkpt lat="45.57646" lon="6.07805">
        <ele>1338.916</ele>
        <time>2020-09-19T13:37:20Z</time>
      </trkpt>
      <trkpt lat="45.57646" lon="6.07806">
        <ele>1339.167</ele>
        <time>2020-09-19T13:37:21Z</time>
      </trkpt>
      <trkpt lat="45.57646" lon="6.07806">
        <ele>1338.507</ele>
        <time>2020-09-19T13:37:22Z</time>
      </trkpt>
      <trkpt lat="45.57646" lon="6.07808">
        <ele>1338.884</ele>
        <time>2020-09-19T13:37:23Z</time>
      </trkpt>
      <trkpt lat="45.57646" lon="6.07808">
        <ele>1338.625</ele>
        <time>2020-09-19T13:37:24Z</time>
      </trkpt>
      <trkpt lat="45.57646" lon="6.07808">
        <ele>1338.625</ele>
        <time>2020-09-19T13:37:24Z</time>
      </trkpt>
      <trkpt lat="45.57646" lon="6.07809">
        <ele>1338.775</ele>
        <time>2020-09-19T13:37:25Z</time>
      </trkpt>
      <trkpt lat="45.57646" lon="6.07809">
        <ele>1338.814</ele>
        <time>2020-09-19T13:37:26Z</time>
      </trkpt>
      <trkpt lat="45.57646" lon="6.07809">
        <ele>1338.814</ele>
        <time>2020-09-19T13:37:26Z</time>
      </trkpt>
      <trkpt lat="45.57646" lon="6.07808">
        <ele>1337.691</ele>
        <time>2020-09-19T13:37:27Z</time>
      </trkpt>
      <trkpt lat="45.57646" lon="6.07807">
        <ele>1337.602</ele>
        <time>2020-09-19T13:37:30Z</time>
      </trkpt>
      <trkpt lat="45.57646" lon="6.07807">
        <ele>1337.583</ele>
        <time>2020-09-19T13:37:31Z</time>
      </trkpt>
      <trkpt lat="45.57646" lon="6.07807">
        <ele>1338.326</ele>
        <time>2020-09-19T13:37:48Z</time>
      </trkpt>
      <trkpt lat="45.57647" lon="6.07804">
        <ele>1338.28</ele>
        <time>2020-09-19T13:37:49Z</time>
      </trkpt>
      <trkpt lat="45.57646" lon="6.07804">
        <ele>1337.74</ele>
        <time>2020-09-19T13:37:50Z</time>
      </trkpt>
      <trkpt lat="45.57645" lon="6.07803">
        <ele>1337.555</ele>
        <time>2020-09-19T13:37:52Z</time>
      </trkpt>
      <trkpt lat="45.57644" lon="6.07802">
        <ele>1336.116</ele>
        <time>2020-09-19T13:37:56Z</time>
      </trkpt>
      <trkpt lat="45.57643" lon="6.07802">
        <ele>1336.042</ele>
        <time>2020-09-19T13:37:57Z</time>
      </trkpt>
      <trkpt lat="45.57641" lon="6.07799">
        <ele>1334.689</ele>
        <time>2020-09-19T13:38:00Z</time>
      </trkpt>
      <trkpt lat="45.57638" lon="6.07799">
        <ele>1334.377</ele>
        <time>2020-09-19T13:38:05Z</time>
      </trkpt>
      <trkpt lat="45.57637" lon="6.07799">
        <ele>1332.911</ele>
        <time>2020-09-19T13:38:07Z</time>
      </trkpt>
      <trkpt lat="45.57638" lon="6.07799">
        <ele>1330.919</ele>
        <time>2020-09-19T13:38:10Z</time>
      </trkpt>
      <trkpt lat="45.5764" lon="6.07803">
        <ele>1330.875</ele>
        <time>2020-09-19T13:38:14Z</time>
      </trkpt>
      <trkpt lat="45.57643" lon="6.07808">
        <ele>1331.449</ele>
        <time>2020-09-19T13:38:18Z</time>
      </trkpt>
      <trkpt lat="45.57645" lon="6.0781">
        <ele>1330.184</ele>
        <time>2020-09-19T13:38:22Z</time>
      </trkpt>
      <trkpt lat="45.57664" lon="6.07821">
        <ele>1330.895</ele>
        <time>2020-09-19T13:38:43Z</time>
      </trkpt>
      <trkpt lat="45.5768" lon="6.07822">
        <ele>1330.226</ele>
        <time>2020-09-19T13:39:00Z</time>
      </trkpt>
      <trkpt lat="45.57684" lon="6.07822">
        <ele>1329.608</ele>
        <time>2020-09-19T13:39:04Z</time>
      </trkpt>
      <trkpt lat="45.57687" lon="6.07824">
        <ele>1329.537</ele>
        <time>2020-09-19T13:39:07Z</time>
      </trkpt>
      <trkpt lat="45.5769" lon="6.07825">
        <ele>1329.896</ele>
        <time>2020-09-19T13:39:10Z</time>
      </trkpt>
      <trkpt lat="45.57693" lon="6.07824">
        <ele>1329.39</ele>
        <time>2020-09-19T13:39:13Z</time>
      </trkpt>
      <trkpt lat="45.57697" lon="6.07824">
        <ele>1328.677</ele>
        <time>2020-09-19T13:39:16Z</time>
      </trkpt>
      <trkpt lat="45.57699" lon="6.07821">
        <ele>1328.419</ele>
        <time>2020-09-19T13:39:20Z</time>
      </trkpt>
      <trkpt lat="45.577" lon="6.07818">
        <ele>1328.399</ele>
        <time>2020-09-19T13:39:23Z</time>
      </trkpt>
      <trkpt lat="45.57701" lon="6.07817">
        <ele>1328.029</ele>
        <time>2020-09-19T13:39:24Z</time>
      </trkpt>
      <trkpt lat="45.57704" lon="6.07815">
        <ele>1327.47</ele>
        <time>2020-09-19T13:39:27Z</time>
      </trkpt>
      <trkpt lat="45.57712" lon="6.07813">
        <ele>1326.707</ele>
        <time>2020-09-19T13:39:38Z</time>
      </trkpt>
      <trkpt lat="45.57714" lon="6.07814">
        <ele>1327.581</ele>
        <time>2020-09-19T13:39:41Z</time>
      </trkpt>
      <trkpt lat="45.57715" lon="6.07814">
        <ele>1327.328</ele>
        <time>2020-09-19T13:39:42Z</time>
      </trkpt>
      <trkpt lat="45.57715" lon="6.07814">
        <ele>1327.028</ele>
        <time>2020-09-19T13:39:43Z</time>
      </trkpt>
      <trkpt lat="45.57717" lon="6.07814">
        <ele>1326.637</ele>
        <time>2020-09-19T13:39:46Z</time>
      </trkpt>
      <trkpt lat="45.57719" lon="6.07817">
        <ele>1326.475</ele>
        <time>2020-09-19T13:39:49Z</time>
      </trkpt>
      <trkpt lat="45.57719" lon="6.07817">
        <ele>1326.475</ele>
        <time>2020-09-19T13:39:49Z</time>
      </trkpt>
      <trkpt lat="45.5772" lon="6.07818">
        <ele>1326.372</ele>
        <time>2020-09-19T13:39:50Z</time>
      </trkpt>
      <trkpt lat="45.57724" lon="6.07821">
        <ele>1326.524</ele>
        <time>2020-09-19T13:39:55Z</time>
      </trkpt>
      <trkpt lat="45.57728" lon="6.07823">
        <ele>1326.724</ele>
        <time>2020-09-19T13:39:59Z</time>
      </trkpt>
      <trkpt lat="45.5773" lon="6.07827">
        <ele>1326.544</ele>
        <time>2020-09-19T13:40:02Z</time>
      </trkpt>
      <trkpt lat="45.57733" lon="6.07832">
        <ele>1326.149</ele>
        <time>2020-09-19T13:40:05Z</time>
      </trkpt>
      <trkpt lat="45.57733" lon="6.07838">
        <ele>1324.948</ele>
        <time>2020-09-19T13:40:10Z</time>
      </trkpt>
      <trkpt lat="45.57733" lon="6.07838">
        <ele>1324.796</ele>
        <time>2020-09-19T13:40:11Z</time>
      </trkpt>
      <trkpt lat="45.57733" lon="6.07838">
        <ele>1324.796</ele>
        <time>2020-09-19T13:40:11Z</time>
      </trkpt>
      <trkpt lat="45.57733" lon="6.07838">
        <ele>1324.748</ele>
        <time>2020-09-19T13:40:12Z</time>
      </trkpt>
      <trkpt lat="45.57733" lon="6.07837">
        <ele>1324.904</ele>
        <time>2020-09-19T13:40:14Z</time>
      </trkpt>
      <trkpt lat="45.57733" lon="6.07836">
        <ele>1324.875</ele>
        <time>2020-09-19T13:40:15Z</time>
      </trkpt>
      <trkpt lat="45.57735" lon="6.07836">
        <ele>1324.876</ele>
        <time>2020-09-19T13:40:18Z</time>
      </trkpt>
      <trkpt lat="45.57734" lon="6.07839">
        <ele>1323.498</ele>
        <time>2020-09-19T13:40:20Z</time>
      </trkpt>
      <trkpt lat="45.57734" lon="6.0784">
        <ele>1323.07</ele>
        <time>2020-09-19T13:40:21Z</time>
      </trkpt>
      <trkpt lat="45.57734" lon="6.0784">
        <ele>1323.07</ele>
        <time>2020-09-19T13:40:21Z</time>
      </trkpt>
      <trkpt lat="45.57734" lon="6.07842">
        <ele>1322.939</ele>
        <time>2020-09-19T13:40:22Z</time>
      </trkpt>
      <trkpt lat="45.57734" lon="6.07847">
        <ele>1322.696</ele>
        <time>2020-09-19T13:40:24Z</time>
      </trkpt>
      <trkpt lat="45.57734" lon="6.07848">
        <ele>1321.969</ele>
        <time>2020-09-19T13:40:25Z</time>
      </trkpt>
      <trkpt lat="45.57736" lon="6.07852">
        <ele>1319.511</ele>
        <time>2020-09-19T13:40:29Z</time>
      </trkpt>
      <trkpt lat="45.57736" lon="6.07852">
        <ele>1319.004</ele>
        <time>2020-09-19T13:40:30Z</time>
      </trkpt>
      <trkpt lat="45.57737" lon="6.07853">
        <ele>1319.529</ele>
        <time>2020-09-19T13:40:33Z</time>
      </trkpt>
      <trkpt lat="45.57737" lon="6.07857">
        <ele>1318.254</ele>
        <time>2020-09-19T13:40:39Z</time>
      </trkpt>
      <trkpt lat="45.57737" lon="6.07857">
        <ele>1317.857</ele>
        <time>2020-09-19T13:40:40Z</time>
      </trkpt>
      <trkpt lat="45.57737" lon="6.07858">
        <ele>1316.783</ele>
        <time>2020-09-19T13:40:43Z</time>
      </trkpt>
      <trkpt lat="45.57738" lon="6.0786">
        <ele>1317.191</ele>
        <time>2020-09-19T13:40:45Z</time>
      </trkpt>
      <trkpt lat="45.57739" lon="6.07862">
        <ele>1317.001</ele>
        <time>2020-09-19T13:40:48Z</time>
      </trkpt>
      <trkpt lat="45.57739" lon="6.07863">
        <ele>1317.145</ele>
        <time>2020-09-19T13:40:50Z</time>
      </trkpt>
      <trkpt lat="45.57739" lon="6.07863">
        <ele>1317.145</ele>
        <time>2020-09-19T13:40:50Z</time>
      </trkpt>
      <trkpt lat="45.57739" lon="6.07863">
        <ele>1317.383</ele>
        <time>2020-09-19T13:40:51Z</time>
      </trkpt>
      <trkpt lat="45.57741" lon="6.07865">
        <ele>1317.282</ele>
        <time>2020-09-19T13:40:55Z</time>
      </trkpt>
      <trkpt lat="45.57742" lon="6.07868">
        <ele>1316.939</ele>
        <time>2020-09-19T13:40:59Z</time>
      </trkpt>
      <trkpt lat="45.57748" lon="6.07876">
        <ele>1314.467</ele>
        <time>2020-09-19T13:41:08Z</time>
      </trkpt>
      <trkpt lat="45.57749" lon="6.07878">
        <ele>1314.589</ele>
        <time>2020-09-19T13:41:09Z</time>
      </trkpt>
      <trkpt lat="45.5775" lon="6.0788">
        <ele>1314.961</ele>
        <time>2020-09-19T13:41:11Z</time>
      </trkpt>
      <trkpt lat="45.57752" lon="6.07882">
        <ele>1314.643</ele>
        <time>2020-09-19T13:41:13Z</time>
      </trkpt>
      <trkpt lat="45.57753" lon="6.07884">
        <ele>1314.388</ele>
        <time>2020-09-19T13:41:15Z</time>
      </trkpt>
      <trkpt lat="45.57755" lon="6.07888">
        <ele>1314.453</ele>
        <time>2020-09-19T13:41:18Z</time>
      </trkpt>
      <trkpt lat="45.57759" lon="6.07902">
        <ele>1315.029</ele>
        <time>2020-09-19T13:41:29Z</time>
      </trkpt>
      <trkpt lat="45.57763" lon="6.0791">
        <ele>1313.603</ele>
        <time>2020-09-19T13:41:39Z</time>
      </trkpt>
      <trkpt lat="45.57765" lon="6.07912">
        <ele>1312.792</ele>
        <time>2020-09-19T13:41:42Z</time>
      </trkpt>
      <trkpt lat="45.57766" lon="6.07913">
        <ele>1311.71</ele>
        <time>2020-09-19T13:41:44Z</time>
      </trkpt>
      <trkpt lat="45.57767" lon="6.07914">
        <ele>1311.743</ele>
        <time>2020-09-19T13:41:45Z</time>
      </trkpt>
      <trkpt lat="45.57769" lon="6.07918">
        <ele>1311.091</ele>
        <time>2020-09-19T13:41:50Z</time>
      </trkpt>
      <trkpt lat="45.57775" lon="6.07926">
        <ele>1309.043</ele>
        <time>2020-09-19T13:41:58Z</time>
      </trkpt>
      <trkpt lat="45.57777" lon="6.07928">
        <ele>1308.006</ele>
        <time>2020-09-19T13:42:01Z</time>
      </trkpt>
      <trkpt lat="45.5778" lon="6.07931">
        <ele>1307.603</ele>
        <time>2020-09-19T13:42:05Z</time>
      </trkpt>
      <trkpt lat="45.57783" lon="6.07934">
        <ele>1307.124</ele>
        <time>2020-09-19T13:42:09Z</time>
      </trkpt>
      <trkpt lat="45.57785" lon="6.07936">
        <ele>1305.825</ele>
        <time>2020-09-19T13:42:12Z</time>
      </trkpt>
      <trkpt lat="45.57786" lon="6.07937">
        <ele>1305.757</ele>
        <time>2020-09-19T13:42:13Z</time>
      </trkpt>
      <trkpt lat="45.57787" lon="6.07938">
        <ele>1306.029</ele>
        <time>2020-09-19T13:42:14Z</time>
      </trkpt>
      <trkpt lat="45.57795" lon="6.07945">
        <ele>1304.631</ele>
        <time>2020-09-19T13:42:23Z</time>
      </trkpt>
      <trkpt lat="45.57796" lon="6.07945">
        <ele>1304.434</ele>
        <time>2020-09-19T13:42:28Z</time>
      </trkpt>
      <trkpt lat="45.57797" lon="6.07947">
        <ele>1303.561</ele>
        <time>2020-09-19T13:42:32Z</time>
      </trkpt>
      <trkpt lat="45.57798" lon="6.07947">
        <ele>1303.234</ele>
        <time>2020-09-19T13:42:34Z</time>
      </trkpt>
      <trkpt lat="45.578" lon="6.07947">
        <ele>1302.656</ele>
        <time>2020-09-19T13:42:36Z</time>
      </trkpt>
      <trkpt lat="45.57802" lon="6.07947">
        <ele>1302.732</ele>
        <time>2020-09-19T13:42:38Z</time>
      </trkpt>
      <trkpt lat="45.57806" lon="6.07947">
        <ele>1302.439</ele>
        <time>2020-09-19T13:42:41Z</time>
      </trkpt>
      <trkpt lat="45.5781" lon="6.07946">
        <ele>1301.51</ele>
        <time>2020-09-19T13:42:45Z</time>
      </trkpt>
      <trkpt lat="45.57819" lon="6.07941">
        <ele>1300.987</ele>
        <time>2020-09-19T13:42:52Z</time>
      </trkpt>
      <trkpt lat="45.57825" lon="6.07938">
        <ele>1301.241</ele>
        <time>2020-09-19T13:42:56Z</time>
      </trkpt>
      <trkpt lat="45.5783" lon="6.07931">
        <ele>1301.667</ele>
        <time>2020-09-19T13:43:04Z</time>
      </trkpt>
      <trkpt lat="45.57831" lon="6.0793">
        <ele>1301.699</ele>
        <time>2020-09-19T13:43:05Z</time>
      </trkpt>
      <trkpt lat="45.57834" lon="6.07927">
        <ele>1301.202</ele>
        <time>2020-09-19T13:43:08Z</time>
      </trkpt>
      <trkpt lat="45.57846" lon="6.07919">
        <ele>1301.121</ele>
        <time>2020-09-19T13:43:15Z</time>
      </trkpt>
      <trkpt lat="45.5785" lon="6.07916">
        <ele>1300.723</ele>
        <time>2020-09-19T13:43:18Z</time>
      </trkpt>
      <trkpt lat="45.5785" lon="6.07912">
        <ele>1301.549</ele>
        <time>2020-09-19T13:43:21Z</time>
      </trkpt>
      <trkpt lat="45.5785" lon="6.07907">
        <ele>1301.975</ele>
        <time>2020-09-19T13:43:24Z</time>
      </trkpt>
      <trkpt lat="45.57853" lon="6.07896">
        <ele>1302.517</ele>
        <time>2020-09-19T13:43:27Z</time>
      </trkpt>
      <trkpt lat="45.57857" lon="6.07894">
        <ele>1302.873</ele>
        <time>2020-09-19T13:43:29Z</time>
      </trkpt>
      <trkpt lat="45.57855" lon="6.07896">
        <ele>1302.068</ele>
        <time>2020-09-19T13:43:31Z</time>
      </trkpt>
      <trkpt lat="45.57854" lon="6.07897">
        <ele>1301.928</ele>
        <time>2020-09-19T13:43:32Z</time>
      </trkpt>
      <trkpt lat="45.57855" lon="6.07898">
        <ele>1301.91</ele>
        <time>2020-09-19T13:43:33Z</time>
      </trkpt>
      <trkpt lat="45.57861" lon="6.07898">
        <ele>1301.689</ele>
        <time>2020-09-19T13:43:35Z</time>
      </trkpt>
      <trkpt lat="45.57867" lon="6.07896">
        <ele>1301.723</ele>
        <time>2020-09-19T13:43:37Z</time>
      </trkpt>
      <trkpt lat="45.57867" lon="6.07896">
        <ele>1301.761</ele>
        <time>2020-09-19T13:43:38Z</time>
      </trkpt>
      <trkpt lat="45.57867" lon="6.07895">
        <ele>1301.833</ele>
        <time>2020-09-19T13:43:40Z</time>
      </trkpt>
      <trkpt lat="45.57869" lon="6.07893">
        <ele>1301.878</ele>
        <time>2020-09-19T13:43:43Z</time>
      </trkpt>
      <trkpt lat="45.57869" lon="6.07893">
        <ele>1301.878</ele>
        <time>2020-09-19T13:43:43Z</time>
      </trkpt>
      <trkpt lat="45.5787" lon="6.07892">
        <ele>1301.73</ele>
        <time>2020-09-19T13:43:44Z</time>
      </trkpt>
      <trkpt lat="45.5787" lon="6.07892">
        <ele>1301.914</ele>
        <time>2020-09-19T13:43:45Z</time>
      </trkpt>
      <trkpt lat="45.5787" lon="6.07891">
        <ele>1301.914</ele>
        <time>2020-09-19T13:43:46Z</time>
      </trkpt>
      <trkpt lat="45.57873" lon="6.07891">
        <ele>1302.194</ele>
        <time>2020-09-19T13:43:52Z</time>
      </trkpt>
      <trkpt lat="45.57873" lon="6.07892">
        <ele>1302.206</ele>
        <time>2020-09-19T13:43:53Z</time>
      </trkpt>
      <trkpt lat="45.57873" lon="6.07892">
        <ele>1302.172</ele>
        <time>2020-09-19T13:43:54Z</time>
      </trkpt>
      <trkpt lat="45.57873" lon="6.07892">
        <ele>1302.172</ele>
        <time>2020-09-19T13:43:54Z</time>
      </trkpt>
      <trkpt lat="45.57873" lon="6.07892">
        <ele>1302.237</ele>
        <time>2020-09-19T13:43:55Z</time>
      </trkpt>
      <trkpt lat="45.57872" lon="6.07893">
        <ele>1301.228</ele>
        <time>2020-09-19T13:43:58Z</time>
      </trkpt>
      <trkpt lat="45.57872" lon="6.07893">
        <ele>1301.228</ele>
        <time>2020-09-19T13:43:58Z</time>
      </trkpt>
      <trkpt lat="45.57871" lon="6.07894">
        <ele>1301.54</ele>
        <time>2020-09-19T13:43:59Z</time>
      </trkpt>
      <trkpt lat="45.57868" lon="6.07896">
        <ele>1300.015</ele>
        <time>2020-09-19T13:44:02Z</time>
      </trkpt>
      <trkpt lat="45.57867" lon="6.07897">
        <ele>1300.303</ele>
        <time>2020-09-19T13:44:03Z</time>
      </trkpt>
      <trkpt lat="45.57867" lon="6.07897">
        <ele>1299.935</ele>
        <time>2020-09-19T13:44:03Z</time>
      </trkpt>
      <trkpt lat="45.57867" lon="6.07897">
        <ele>1299.935</ele>
        <time>2020-09-19T13:44:03Z</time>
      </trkpt>
      <trkpt lat="45.57866" lon="6.07897">
        <ele>1299.516</ele>
        <time>2020-09-19T13:44:04Z</time>
      </trkpt>
      <trkpt lat="45.57863" lon="6.07896">
        <ele>1299.154</ele>
        <time>2020-09-19T13:44:07Z</time>
      </trkpt>
      <trkpt lat="45.57863" lon="6.07896">
        <ele>1299.154</ele>
        <time>2020-09-19T13:44:07Z</time>
      </trkpt>
      <trkpt lat="45.57862" lon="6.07896">
        <ele>1299.158</ele>
        <time>2020-09-19T13:44:08Z</time>
      </trkpt>
      <trkpt lat="45.5786" lon="6.07896">
        <ele>1299.142</ele>
        <time>2020-09-19T13:44:10Z</time>
      </trkpt>
      <trkpt lat="45.5786" lon="6.07896">
        <ele>1299.051</ele>
        <time>2020-09-19T13:44:11Z</time>
      </trkpt>
      <trkpt lat="45.5786" lon="6.07896">
        <ele>1299.278</ele>
        <time>2020-09-19T13:44:12Z</time>
      </trkpt>
      <trkpt lat="45.5786" lon="6.07896">
        <ele>1299.278</ele>
        <time>2020-09-19T13:44:12Z</time>
      </trkpt>
      <trkpt lat="45.57857" lon="6.07896">
        <ele>1299.108</ele>
        <time>2020-09-19T13:44:13Z</time>
      </trkpt>
      <trkpt lat="45.57857" lon="6.07896">
        <ele>1299.304</ele>
        <time>2020-09-19T13:44:14Z</time>
      </trkpt>
      <trkpt lat="45.57857" lon="6.07896">
        <ele>1299.304</ele>
        <time>2020-09-19T13:44:14Z</time>
      </trkpt>
      <trkpt lat="45.57855" lon="6.07896">
        <ele>1299.407</ele>
        <time>2020-09-19T13:44:15Z</time>
      </trkpt>
      <trkpt lat="45.57855" lon="6.07896">
        <ele>1299.407</ele>
        <time>2020-09-19T13:44:15Z</time>
      </trkpt>
      <trkpt lat="45.57855" lon="6.07896">
        <ele>1299.615</ele>
        <time>2020-09-19T13:44:16Z</time>
      </trkpt>
      <trkpt lat="45.57855" lon="6.07896">
        <ele>1298.951</ele>
        <time>2020-09-19T13:44:19Z</time>
      </trkpt>
      <trkpt lat="45.57854" lon="6.07898">
        <ele>1298.786</ele>
        <time>2020-09-19T13:44:19Z</time>
      </trkpt>
      <trkpt lat="45.57852" lon="6.07899">
        <ele>1299.007</ele>
        <time>2020-09-19T13:44:23Z</time>
      </trkpt>
      <trkpt lat="45.5785" lon="6.07903">
        <ele>1299.216</ele>
        <time>2020-09-19T13:44:26Z</time>
      </trkpt>
      <trkpt lat="45.57851" lon="6.07905">
        <ele>1299.316</ele>
        <time>2020-09-19T13:44:28Z</time>
      </trkpt>
      <trkpt lat="45.57851" lon="6.07906">
        <ele>1299.341</ele>
        <time>2020-09-19T13:44:29Z</time>
      </trkpt>
      <trkpt lat="45.57851" lon="6.07906">
        <ele>1299.341</ele>
        <time>2020-09-19T13:44:29Z</time>
      </trkpt>
      <trkpt lat="45.57851" lon="6.07907">
        <ele>1299.17</ele>
        <time>2020-09-19T13:44:30Z</time>
      </trkpt>
      <trkpt lat="45.57851" lon="6.07909">
        <ele>1298.957</ele>
        <time>2020-09-19T13:44:33Z</time>
      </trkpt>
      <trkpt lat="45.5785" lon="6.07913">
        <ele>1298.708</ele>
        <time>2020-09-19T13:44:36Z</time>
      </trkpt>
      <trkpt lat="45.57847" lon="6.07917">
        <ele>1298.006</ele>
        <time>2020-09-19T13:44:38Z</time>
      </trkpt>
      <trkpt lat="45.57843" lon="6.0792">
        <ele>1296.053</ele>
        <time>2020-09-19T13:44:41Z</time>
      </trkpt>
      <trkpt lat="45.57843" lon="6.07921">
        <ele>1296.418</ele>
        <time>2020-09-19T13:44:43Z</time>
      </trkpt>
      <trkpt lat="45.57844" lon="6.07921">
        <ele>1296.106</ele>
        <time>2020-09-19T13:44:45Z</time>
      </trkpt>
      <trkpt lat="45.57844" lon="6.07921">
        <ele>1296.106</ele>
        <time>2020-09-19T13:44:45Z</time>
      </trkpt>
      <trkpt lat="45.57846" lon="6.0792">
        <ele>1296.094</ele>
        <time>2020-09-19T13:44:46Z</time>
      </trkpt>
      <trkpt lat="45.57847" lon="6.0792">
        <ele>1294.403</ele>
        <time>2020-09-19T13:44:47Z</time>
      </trkpt>
      <trkpt lat="45.57847" lon="6.07919">
        <ele>1294.883</ele>
        <time>2020-09-19T13:44:48Z</time>
      </trkpt>
      <trkpt lat="45.57847" lon="6.07919">
        <ele>1294.883</ele>
        <time>2020-09-19T13:44:48Z</time>
      </trkpt>
      <trkpt lat="45.57848" lon="6.07919">
        <ele>1295.715</ele>
        <time>2020-09-19T13:44:49Z</time>
      </trkpt>
      <trkpt lat="45.57849" lon="6.07919">
        <ele>1295.736</ele>
        <time>2020-09-19T13:44:50Z</time>
      </trkpt>
      <trkpt lat="45.5785" lon="6.07917">
        <ele>1295.669</ele>
        <time>2020-09-19T13:44:53Z</time>
      </trkpt>
      <trkpt lat="45.5785" lon="6.07916">
        <ele>1295.876</ele>
        <time>2020-09-19T13:44:54Z</time>
      </trkpt>
      <trkpt lat="45.57851" lon="6.07913">
        <ele>1295.372</ele>
        <time>2020-09-19T13:44:57Z</time>
      </trkpt>
      <trkpt lat="45.57852" lon="6.07911">
        <ele>1295.553</ele>
        <time>2020-09-19T13:44:59Z</time>
      </trkpt>
      <trkpt lat="45.57854" lon="6.07909">
        <ele>1294.762</ele>
        <time>2020-09-19T13:45:03Z</time>
      </trkpt>
      <trkpt lat="45.5786" lon="6.07906">
        <ele>1293.803</ele>
        <time>2020-09-19T13:45:07Z</time>
      </trkpt>
      <trkpt lat="45.57862" lon="6.07903">
        <ele>1296.29</ele>
        <time>2020-09-19T13:45:11Z</time>
      </trkpt>
      <trkpt lat="45.57862" lon="6.07902">
        <ele>1296.045</ele>
        <time>2020-09-19T13:45:13Z</time>
      </trkpt>
      <trkpt lat="45.57862" lon="6.07902">
        <ele>1296.045</ele>
        <time>2020-09-19T13:45:13Z</time>
      </trkpt>
      <trkpt lat="45.57863" lon="6.07902">
        <ele>1296.727</ele>
        <time>2020-09-19T13:45:14Z</time>
      </trkpt>
      <trkpt lat="45.57864" lon="6.07899">
        <ele>1296.427</ele>
        <time>2020-09-19T13:45:17Z</time>
      </trkpt>
      <trkpt lat="45.57865" lon="6.07898">
        <ele>1297.114</ele>
        <time>2020-09-19T13:45:21Z</time>
      </trkpt>
      <trkpt lat="45.57866" lon="6.07898">
        <ele>1296.246</ele>
        <time>2020-09-19T13:45:22Z</time>
      </trkpt>
      <trkpt lat="45.57867" lon="6.07898">
        <ele>1296.909</ele>
        <time>2020-09-19T13:45:23Z</time>
      </trkpt>
      <trkpt lat="45.57867" lon="6.07898">
        <ele>1297.461</ele>
        <time>2020-09-19T13:45:24Z</time>
      </trkpt>
      <trkpt lat="45.57868" lon="6.07897">
        <ele>1297.887</ele>
        <time>2020-09-19T13:45:25Z</time>
      </trkpt>
      <trkpt lat="45.57868" lon="6.07897">
        <ele>1298.655</ele>
        <time>2020-09-19T13:45:26Z</time>
      </trkpt>
      <trkpt lat="45.57868" lon="6.07897">
        <ele>1298.655</ele>
        <time>2020-09-19T13:45:26Z</time>
      </trkpt>
      <trkpt lat="45.57869" lon="6.07896">
        <ele>1298.459</ele>
        <time>2020-09-19T13:45:27Z</time>
      </trkpt>
      <trkpt lat="45.57872" lon="6.07893">
        <ele>1296.496</ele>
        <time>2020-09-19T13:45:31Z</time>
      </trkpt>
      <trkpt lat="45.57873" lon="6.07893">
        <ele>1296.75</ele>
        <time>2020-09-19T13:45:32Z</time>
      </trkpt>
      <trkpt lat="45.57875" lon="6.0789">
        <ele>1295.799</ele>
        <time>2020-09-19T13:45:38Z</time>
      </trkpt>
      <trkpt lat="45.57875" lon="6.0789">
        <ele>1296.195</ele>
        <time>2020-09-19T13:45:39Z</time>
      </trkpt>
      <trkpt lat="45.57875" lon="6.0789">
        <ele>1294.554</ele>
        <time>2020-09-19T13:45:43Z</time>
      </trkpt>
      <trkpt lat="45.57876" lon="6.0789">
        <ele>1293.422</ele>
        <time>2020-09-19T13:45:44Z</time>
      </trkpt>
      <trkpt lat="45.57876" lon="6.0789">
        <ele>1293.422</ele>
        <time>2020-09-19T13:45:44Z</time>
      </trkpt>
      <trkpt lat="45.57876" lon="6.0789">
        <ele>1293.616</ele>
        <time>2020-09-19T13:45:45Z</time>
      </trkpt>
      <trkpt lat="45.57876" lon="6.0789">
        <ele>1293.501</ele>
        <time>2020-09-19T13:45:46Z</time>
      </trkpt>
      <trkpt lat="45.57876" lon="6.07891">
        <ele>1293.416</ele>
        <time>2020-09-19T13:45:47Z</time>
      </trkpt>
      <trkpt lat="45.57875" lon="6.07891">
        <ele>1292.96</ele>
        <time>2020-09-19T13:45:50Z</time>
      </trkpt>
      <trkpt lat="45.57875" lon="6.07891">
        <ele>1292.654</ele>
        <time>2020-09-19T13:45:51Z</time>
      </trkpt>
      <trkpt lat="45.57875" lon="6.0789">
        <ele>1292.543</ele>
        <time>2020-09-19T13:45:52Z</time>
      </trkpt>
      <trkpt lat="45.57875" lon="6.0789">
        <ele>1292.634</ele>
        <time>2020-09-19T13:45:53Z</time>
      </trkpt>
      <trkpt lat="45.57875" lon="6.0789">
        <ele>1292.409</ele>
        <time>2020-09-19T13:46:26Z</time>
      </trkpt>
      <trkpt lat="45.57876" lon="6.07889">
        <ele>1292.921</ele>
        <time>2020-09-19T13:46:27Z</time>
      </trkpt>
      <trkpt lat="45.57875" lon="6.07889">
        <ele>1293.915</ele>
        <time>2020-09-19T13:46:30Z</time>
      </trkpt>
      <trkpt lat="45.57873" lon="6.07895">
        <ele>1292.984</ele>
        <time>2020-09-19T13:48:29Z</time>
      </trkpt>
      <trkpt lat="45.57873" lon="6.07895">
        <ele>1292.919</ele>
        <time>2020-09-19T13:48:30Z</time>
      </trkpt>
      <trkpt lat="45.57874" lon="6.07896">
        <ele>1293.432</ele>
        <time>2020-09-19T13:48:31Z</time>
      </trkpt>
      <trkpt lat="45.57874" lon="6.07896">
        <ele>1293.54</ele>
        <time>2020-09-19T13:48:32Z</time>
      </trkpt>
      <trkpt lat="45.57876" lon="6.07897">
        <ele>1293.466</ele>
        <time>2020-09-19T13:48:35Z</time>
      </trkpt>
      <trkpt lat="45.57876" lon="6.07897">
        <ele>1293.925</ele>
        <time>2020-09-19T13:48:36Z</time>
      </trkpt>
      <trkpt lat="45.57877" lon="6.07897">
        <ele>1293.866</ele>
        <time>2020-09-19T13:48:37Z</time>
      </trkpt>
      <trkpt lat="45.57877" lon="6.07898">
        <ele>1294.051</ele>
        <time>2020-09-19T13:48:39Z</time>
      </trkpt>
      <trkpt lat="45.57877" lon="6.07898">
        <ele>1294.051</ele>
        <time>2020-09-19T13:48:39Z</time>
      </trkpt>
      <trkpt lat="45.57878" lon="6.07898">
        <ele>1294.124</ele>
        <time>2020-09-19T13:48:40Z</time>
      </trkpt>
      <trkpt lat="45.57879" lon="6.07898">
        <ele>1294.507</ele>
        <time>2020-09-19T13:48:41Z</time>
      </trkpt>
      <trkpt lat="45.57887" lon="6.07899">
        <ele>1294.751</ele>
        <time>2020-09-19T13:48:48Z</time>
      </trkpt>
      <trkpt lat="45.5789" lon="6.07899">
        <ele>1291.195</ele>
        <time>2020-09-19T13:48:51Z</time>
      </trkpt>
      <trkpt lat="45.57891" lon="6.07898">
        <ele>1289.045</ele>
        <time>2020-09-19T13:48:54Z</time>
      </trkpt>
      <trkpt lat="45.57891" lon="6.07897">
        <ele>1289.391</ele>
        <time>2020-09-19T13:49:00Z</time>
      </trkpt>
      <trkpt lat="45.57895" lon="6.07902">
        <ele>1287.92</ele>
        <time>2020-09-19T13:49:05Z</time>
      </trkpt>
      <trkpt lat="45.57897" lon="6.07908">
        <ele>1287.186</ele>
        <time>2020-09-19T13:49:10Z</time>
      </trkpt>
      <trkpt lat="45.57898" lon="6.07911">
        <ele>1286.439</ele>
        <time>2020-09-19T13:49:15Z</time>
      </trkpt>
      <trkpt lat="45.57899" lon="6.07912">
        <ele>1286.53</ele>
        <time>2020-09-19T13:49:16Z</time>
      </trkpt>
      <trkpt lat="45.57902" lon="6.07915">
        <ele>1285.923</ele>
        <time>2020-09-19T13:49:20Z</time>
      </trkpt>
      <trkpt lat="45.57906" lon="6.0792">
        <ele>1285.521</ele>
        <time>2020-09-19T13:49:24Z</time>
      </trkpt>
      <trkpt lat="45.57915" lon="6.07934">
        <ele>1283.432</ele>
        <time>2020-09-19T13:49:38Z</time>
      </trkpt>
      <trkpt lat="45.57915" lon="6.07935">
        <ele>1283.443</ele>
        <time>2020-09-19T13:49:40Z</time>
      </trkpt>
      <trkpt lat="45.57916" lon="6.07933">
        <ele>1283.421</ele>
        <time>2020-09-19T13:49:43Z</time>
      </trkpt>
      <trkpt lat="45.57916" lon="6.07935">
        <ele>1283.115</ele>
        <time>2020-09-19T13:49:45Z</time>
      </trkpt>
      <trkpt lat="45.57926" lon="6.07953">
        <ele>1283.036</ele>
        <time>2020-09-19T13:50:02Z</time>
      </trkpt>
      <trkpt lat="45.57928" lon="6.07956">
        <ele>1282.825</ele>
        <time>2020-09-19T13:50:06Z</time>
      </trkpt>
      <trkpt lat="45.57932" lon="6.07959">
        <ele>1282.801</ele>
        <time>2020-09-19T13:50:10Z</time>
      </trkpt>
      <trkpt lat="45.57931" lon="6.07965">
        <ele>1281.365</ele>
        <time>2020-09-19T13:50:14Z</time>
      </trkpt>
      <trkpt lat="45.57932" lon="6.07969">
        <ele>1280.699</ele>
        <time>2020-09-19T13:50:19Z</time>
      </trkpt>
      <trkpt lat="45.57941" lon="6.07978">
        <ele>1279.97</ele>
        <time>2020-09-19T13:50:31Z</time>
      </trkpt>
      <trkpt lat="45.57944" lon="6.07983">
        <ele>1279.398</ele>
        <time>2020-09-19T13:50:35Z</time>
      </trkpt>
      <trkpt lat="45.57947" lon="6.07988">
        <ele>1278.474</ele>
        <time>2020-09-19T13:50:40Z</time>
      </trkpt>
      <trkpt lat="45.57946" lon="6.07995">
        <ele>1276.886</ele>
        <time>2020-09-19T13:50:44Z</time>
      </trkpt>
      <trkpt lat="45.57945" lon="6.07997">
        <ele>1276.634</ele>
        <time>2020-09-19T13:50:45Z</time>
      </trkpt>
      <trkpt lat="45.57948" lon="6.08">
        <ele>1274.996</ele>
        <time>2020-09-19T13:50:49Z</time>
      </trkpt>
      <trkpt lat="45.5795" lon="6.08003">
        <ele>1274.987</ele>
        <time>2020-09-19T13:50:53Z</time>
      </trkpt>
      <trkpt lat="45.5795" lon="6.08003">
        <ele>1275.14</ele>
        <time>2020-09-19T13:50:54Z</time>
      </trkpt>
      <trkpt lat="45.57958" lon="6.08011">
        <ele>1273.921</ele>
        <time>2020-09-19T13:51:05Z</time>
      </trkpt>
      <trkpt lat="45.57965" lon="6.08016">
        <ele>1271.456</ele>
        <time>2020-09-19T13:51:11Z</time>
      </trkpt>
      <trkpt lat="45.5797" lon="6.08017">
        <ele>1270.863</ele>
        <time>2020-09-19T13:51:14Z</time>
      </trkpt>
      <trkpt lat="45.57973" lon="6.0802">
        <ele>1271.134</ele>
        <time>2020-09-19T13:51:18Z</time>
      </trkpt>
      <trkpt lat="45.57982" lon="6.08028">
        <ele>1270.002</ele>
        <time>2020-09-19T13:51:33Z</time>
      </trkpt>
      <trkpt lat="45.57985" lon="6.08031">
        <ele>1270.567</ele>
        <time>2020-09-19T13:51:36Z</time>
      </trkpt>
      <trkpt lat="45.57989" lon="6.08033">
        <ele>1270.223</ele>
        <time>2020-09-19T13:51:38Z</time>
      </trkpt>
      <trkpt lat="45.58001" lon="6.08039">
        <ele>1269.803</ele>
        <time>2020-09-19T13:51:48Z</time>
      </trkpt>
      <trkpt lat="45.58002" lon="6.08041">
        <ele>1269.759</ele>
        <time>2020-09-19T13:51:51Z</time>
      </trkpt>
      <trkpt lat="45.58003" lon="6.08042">
        <ele>1269.787</ele>
        <time>2020-09-19T13:51:53Z</time>
      </trkpt>
      <trkpt lat="45.58004" lon="6.08042">
        <ele>1269.228</ele>
        <time>2020-09-19T13:51:54Z</time>
      </trkpt>
      <trkpt lat="45.58004" lon="6.08047">
        <ele>1267.667</ele>
        <time>2020-09-19T13:51:58Z</time>
      </trkpt>
      <trkpt lat="45.58007" lon="6.08053">
        <ele>1266.557</ele>
        <time>2020-09-19T13:52:05Z</time>
      </trkpt>
      <trkpt lat="45.58006" lon="6.08057">
        <ele>1264.911</ele>
        <time>2020-09-19T13:52:09Z</time>
      </trkpt>
      <trkpt lat="45.58003" lon="6.0806">
        <ele>1263.679</ele>
        <time>2020-09-19T13:52:12Z</time>
      </trkpt>
      <trkpt lat="45.58002" lon="6.08061">
        <ele>1263.294</ele>
        <time>2020-09-19T13:52:13Z</time>
      </trkpt>
      <trkpt lat="45.58" lon="6.08064">
        <ele>1262.182</ele>
        <time>2020-09-19T13:52:16Z</time>
      </trkpt>
      <trkpt lat="45.57998" lon="6.08065">
        <ele>1261.836</ele>
        <time>2020-09-19T13:52:18Z</time>
      </trkpt>
      <trkpt lat="45.57997" lon="6.08066">
        <ele>1261.487</ele>
        <time>2020-09-19T13:52:19Z</time>
      </trkpt>
      <trkpt lat="45.57994" lon="6.08068">
        <ele>1260.756</ele>
        <time>2020-09-19T13:52:21Z</time>
      </trkpt>
      <trkpt lat="45.5799" lon="6.0807">
        <ele>1260.408</ele>
        <time>2020-09-19T13:52:25Z</time>
      </trkpt>
      <trkpt lat="45.57987" lon="6.08069">
        <ele>1260.178</ele>
        <time>2020-09-19T13:52:28Z</time>
      </trkpt>
      <trkpt lat="45.57986" lon="6.08066">
        <ele>1260.157</ele>
        <time>2020-09-19T13:52:29Z</time>
      </trkpt>
      <trkpt lat="45.57986" lon="6.08062">
        <ele>1259.818</ele>
        <time>2020-09-19T13:52:31Z</time>
      </trkpt>
      <trkpt lat="45.57986" lon="6.08062">
        <ele>1259.685</ele>
        <time>2020-09-19T13:52:32Z</time>
      </trkpt>
      <trkpt lat="45.57987" lon="6.08057">
        <ele>1259.595</ele>
        <time>2020-09-19T13:52:33Z</time>
      </trkpt>
      <trkpt lat="45.57987" lon="6.08057">
        <ele>1259.123</ele>
        <time>2020-09-19T13:52:35Z</time>
      </trkpt>
      <trkpt lat="45.57984" lon="6.08059">
        <ele>1256.945</ele>
        <time>2020-09-19T13:52:39Z</time>
      </trkpt>
      <trkpt lat="45.57982" lon="6.08062">
        <ele>1256.697</ele>
        <time>2020-09-19T13:52:41Z</time>
      </trkpt>
      <trkpt lat="45.57979" lon="6.08064">
        <ele>1255.729</ele>
        <time>2020-09-19T13:52:44Z</time>
      </trkpt>
      <trkpt lat="45.57974" lon="6.08062">
        <ele>1254.928</ele>
        <time>2020-09-19T13:52:47Z</time>
      </trkpt>
      <trkpt lat="45.57966" lon="6.08059">
        <ele>1253.261</ele>
        <time>2020-09-19T13:52:54Z</time>
      </trkpt>
      <trkpt lat="45.57961" lon="6.0806">
        <ele>1252.419</ele>
        <time>2020-09-19T13:53:01Z</time>
      </trkpt>
      <trkpt lat="45.57958" lon="6.08057">
        <ele>1252.47</ele>
        <time>2020-09-19T13:53:03Z</time>
      </trkpt>
      <trkpt lat="45.57953" lon="6.08049">
        <ele>1253.373</ele>
        <time>2020-09-19T13:53:08Z</time>
      </trkpt>
      <trkpt lat="45.57952" lon="6.08046">
        <ele>1252.659</ele>
        <time>2020-09-19T13:53:12Z</time>
      </trkpt>
      <trkpt lat="45.57952" lon="6.08046">
        <ele>1252.764</ele>
        <time>2020-09-19T13:53:13Z</time>
      </trkpt>
      <trkpt lat="45.57952" lon="6.08046">
        <ele>1252.479</ele>
        <time>2020-09-19T13:53:14Z</time>
      </trkpt>
      <trkpt lat="45.57952" lon="6.08046">
        <ele>1252.479</ele>
        <time>2020-09-19T13:53:14Z</time>
      </trkpt>
      <trkpt lat="45.57952" lon="6.08045">
        <ele>1252.598</ele>
        <time>2020-09-19T13:53:15Z</time>
      </trkpt>
      <trkpt lat="45.57951" lon="6.08044">
        <ele>1252.499</ele>
        <time>2020-09-19T13:53:16Z</time>
      </trkpt>
      <trkpt lat="45.57948" lon="6.08044">
        <ele>1251.996</ele>
        <time>2020-09-19T13:53:19Z</time>
      </trkpt>
      <trkpt lat="45.57946" lon="6.08045">
        <ele>1252.2</ele>
        <time>2020-09-19T13:53:23Z</time>
      </trkpt>
      <trkpt lat="45.57945" lon="6.08045">
        <ele>1252.063</ele>
        <time>2020-09-19T13:53:24Z</time>
      </trkpt>
      <trkpt lat="45.57942" lon="6.08041">
        <ele>1251.681</ele>
        <time>2020-09-19T13:53:27Z</time>
      </trkpt>
      <trkpt lat="45.57942" lon="6.08034">
        <ele>1252.065</ele>
        <time>2020-09-19T13:53:29Z</time>
      </trkpt>
      <trkpt lat="45.57939" lon="6.08023">
        <ele>1252.161</ele>
        <time>2020-09-19T13:53:32Z</time>
      </trkpt>
      <trkpt lat="45.57936" lon="6.08021">
        <ele>1251.905</ele>
        <time>2020-09-19T13:53:35Z</time>
      </trkpt>
      <trkpt lat="45.57932" lon="6.08021">
        <ele>1252.541</ele>
        <time>2020-09-19T13:53:44Z</time>
      </trkpt>
      <trkpt lat="45.57927" lon="6.08021">
        <ele>1252.25</ele>
        <time>2020-09-19T13:53:48Z</time>
      </trkpt>
      <trkpt lat="45.57924" lon="6.0802">
        <ele>1252.197</ele>
        <time>2020-09-19T13:53:50Z</time>
      </trkpt>
      <trkpt lat="45.57915" lon="6.0802">
        <ele>1252.257</ele>
        <time>2020-09-19T13:53:52Z</time>
      </trkpt>
      <trkpt lat="45.57912" lon="6.08019">
        <ele>1252.129</ele>
        <time>2020-09-19T13:53:53Z</time>
      </trkpt>
      <trkpt lat="45.5791" lon="6.08016">
        <ele>1252.451</ele>
        <time>2020-09-19T13:53:55Z</time>
      </trkpt>
      <trkpt lat="45.5791" lon="6.08015">
        <ele>1252.226</ele>
        <time>2020-09-19T13:53:57Z</time>
      </trkpt>
      <trkpt lat="45.57912" lon="6.08017">
        <ele>1252.639</ele>
        <time>2020-09-19T13:54:00Z</time>
      </trkpt>
      <trkpt lat="45.57907" lon="6.0802">
        <ele>1252.36</ele>
        <time>2020-09-19T13:54:02Z</time>
      </trkpt>
      <trkpt lat="45.57902" lon="6.08021">
        <ele>1251.535</ele>
        <time>2020-09-19T13:54:04Z</time>
      </trkpt>
      <trkpt lat="45.57895" lon="6.08017">
        <ele>1251.44</ele>
        <time>2020-09-19T13:54:06Z</time>
      </trkpt>
      <trkpt lat="45.57894" lon="6.08012">
        <ele>1251.008</ele>
        <time>2020-09-19T13:54:08Z</time>
      </trkpt>
      <trkpt lat="45.57895" lon="6.08013">
        <ele>1251.145</ele>
        <time>2020-09-19T13:54:09Z</time>
      </trkpt>
      <trkpt lat="45.57917" lon="6.08019">
        <ele>1250.508</ele>
        <time>2020-09-19T13:54:10Z</time>
      </trkpt>
      <trkpt lat="45.57924" lon="6.08017">
        <ele>1251.102</ele>
        <time>2020-09-19T13:54:11Z</time>
      </trkpt>
      <trkpt lat="45.5793" lon="6.08012">
        <ele>1251.367</ele>
        <time>2020-09-19T13:54:12Z</time>
      </trkpt>
      <trkpt lat="45.57938" lon="6.07999">
        <ele>1251.79</ele>
        <time>2020-09-19T13:54:15Z</time>
      </trkpt>
      <trkpt lat="45.57937" lon="6.07994">
        <ele>1251.464</ele>
        <time>2020-09-19T13:54:17Z</time>
      </trkpt>
      <trkpt lat="45.57949" lon="6.0797">
        <ele>1251.993</ele>
        <time>2020-09-19T13:54:22Z</time>
      </trkpt>
      <trkpt lat="45.57951" lon="6.07958">
        <ele>1252.582</ele>
        <time>2020-09-19T13:54:24Z</time>
      </trkpt>
      <trkpt lat="45.5795" lon="6.07955">
        <ele>1252.864</ele>
        <time>2020-09-19T13:54:25Z</time>
      </trkpt>
      <trkpt lat="45.57921" lon="6.07952">
        <ele>1253.274</ele>
        <time>2020-09-19T13:54:27Z</time>
      </trkpt>
      <trkpt lat="45.57913" lon="6.07955">
        <ele>1253.053</ele>
        <time>2020-09-19T13:54:28Z</time>
      </trkpt>
      <trkpt lat="45.57905" lon="6.07957">
        <ele>1252.751</ele>
        <time>2020-09-19T13:54:29Z</time>
      </trkpt>
      <trkpt lat="45.5789" lon="6.07965">
        <ele>1251.672</ele>
        <time>2020-09-19T13:54:32Z</time>
      </trkpt>
      <trkpt lat="45.57887" lon="6.07969">
        <ele>1252.106</ele>
        <time>2020-09-19T13:54:33Z</time>
      </trkpt>
      <trkpt lat="45.57879" lon="6.07987">
        <ele>1251.69</ele>
        <time>2020-09-19T13:54:38Z</time>
      </trkpt>
      <trkpt lat="45.57881" lon="6.0799">
        <ele>1250.973</ele>
        <time>2020-09-19T13:54:40Z</time>
      </trkpt>
      <trkpt lat="45.57882" lon="6.07991">
        <ele>1250.885</ele>
        <time>2020-09-19T13:54:41Z</time>
      </trkpt>
      <trkpt lat="45.57885" lon="6.07991">
        <ele>1250.516</ele>
        <time>2020-09-19T13:54:44Z</time>
      </trkpt>
      <trkpt lat="45.57887" lon="6.07988">
        <ele>1250.932</ele>
        <time>2020-09-19T13:54:48Z</time>
      </trkpt>
      <trkpt lat="45.57887" lon="6.07988">
        <ele>1250.862</ele>
        <time>2020-09-19T13:54:49Z</time>
      </trkpt>
      <trkpt lat="45.57887" lon="6.07988">
        <ele>1250.786</ele>
        <time>2020-09-19T13:54:51Z</time>
      </trkpt>
      <trkpt lat="45.57889" lon="6.07985">
        <ele>1250.47</ele>
        <time>2020-09-19T13:54:52Z</time>
      </trkpt>
      <trkpt lat="45.57889" lon="6.07985">
        <ele>1251.007</ele>
        <time>2020-09-19T13:54:54Z</time>
      </trkpt>
      <trkpt lat="45.57889" lon="6.07985">
        <ele>1250.991</ele>
        <time>2020-09-19T13:54:56Z</time>
      </trkpt>
      <trkpt lat="45.57888" lon="6.07983">
        <ele>1250.319</ele>
        <time>2020-09-19T13:54:57Z</time>
      </trkpt>
      <trkpt lat="45.57888" lon="6.07983">
        <ele>1250.364</ele>
        <time>2020-09-19T13:54:58Z</time>
      </trkpt>
      <trkpt lat="45.57888" lon="6.07983">
        <ele>1250.71</ele>
        <time>2020-09-19T13:55:13Z</time>
      </trkpt>
      <trkpt lat="45.57887" lon="6.07983">
        <ele>1250.517</ele>
        <time>2020-09-19T13:55:14Z</time>
      </trkpt>
      <trkpt lat="45.57885" lon="6.07985">
        <ele>1250.112</ele>
        <time>2020-09-19T13:55:16Z</time>
      </trkpt>
      <trkpt lat="45.57882" lon="6.07989">
        <ele>1249.439</ele>
        <time>2020-09-19T13:55:18Z</time>
      </trkpt>
      <trkpt lat="45.57873" lon="6.07999">
        <ele>1250.359</ele>
        <time>2020-09-19T13:55:23Z</time>
      </trkpt>
      <trkpt lat="45.57867" lon="6.08014">
        <ele>1249.354</ele>
        <time>2020-09-19T13:55:31Z</time>
      </trkpt>
      <trkpt lat="45.57866" lon="6.08018">
        <ele>1247.71</ele>
        <time>2020-09-19T13:55:35Z</time>
      </trkpt>
      <trkpt lat="45.57867" lon="6.08026">
        <ele>1246.744</ele>
        <time>2020-09-19T13:55:39Z</time>
      </trkpt>
      <trkpt lat="45.57866" lon="6.0803">
        <ele>1246.672</ele>
        <time>2020-09-19T13:55:42Z</time>
      </trkpt>
      <trkpt lat="45.57864" lon="6.08033">
        <ele>1247.408</ele>
        <time>2020-09-19T13:55:46Z</time>
      </trkpt>
      <trkpt lat="45.5786" lon="6.08037">
        <ele>1245.967</ele>
        <time>2020-09-19T13:55:51Z</time>
      </trkpt>
      <trkpt lat="45.57861" lon="6.08038">
        <ele>1245.658</ele>
        <time>2020-09-19T13:55:52Z</time>
      </trkpt>
      <trkpt lat="45.57863" lon="6.08042">
        <ele>1245.652</ele>
        <time>2020-09-19T13:55:54Z</time>
      </trkpt>
      <trkpt lat="45.57864" lon="6.08044">
        <ele>1245.893</ele>
        <time>2020-09-19T13:55:57Z</time>
      </trkpt>
      <trkpt lat="45.57864" lon="6.08045">
        <ele>1246.033</ele>
        <time>2020-09-19T13:55:58Z</time>
      </trkpt>
      <trkpt lat="45.57863" lon="6.08045">
        <ele>1246.226</ele>
        <time>2020-09-19T13:55:59Z</time>
      </trkpt>
      <trkpt lat="45.57862" lon="6.08046">
        <ele>1246.265</ele>
        <time>2020-09-19T13:56:00Z</time>
      </trkpt>
      <trkpt lat="45.57862" lon="6.08048">
        <ele>1245.244</ele>
        <time>2020-09-19T13:56:02Z</time>
      </trkpt>
      <trkpt lat="45.57862" lon="6.08048">
        <ele>1245.247</ele>
        <time>2020-09-19T13:56:03Z</time>
      </trkpt>
      <trkpt lat="45.57862" lon="6.08048">
        <ele>1245.247</ele>
        <time>2020-09-19T13:56:03Z</time>
      </trkpt>
      <trkpt lat="45.57863" lon="6.08049">
        <ele>1244.879</ele>
        <time>2020-09-19T13:56:04Z</time>
      </trkpt>
      <trkpt lat="45.57863" lon="6.08051">
        <ele>1244.415</ele>
        <time>2020-09-19T13:56:06Z</time>
      </trkpt>
      <trkpt lat="45.5786" lon="6.08071">
        <ele>1242.302</ele>
        <time>2020-09-19T13:56:23Z</time>
      </trkpt>
      <trkpt lat="45.57856" lon="6.08076">
        <ele>1239.18</ele>
        <time>2020-09-19T13:56:28Z</time>
      </trkpt>
      <trkpt lat="45.57852" lon="6.08079">
        <ele>1237.105</ele>
        <time>2020-09-19T13:56:33Z</time>
      </trkpt>
      <trkpt lat="45.57849" lon="6.0808">
        <ele>1235.116</ele>
        <time>2020-09-19T13:56:36Z</time>
      </trkpt>
      <trkpt lat="45.57841" lon="6.08084">
        <ele>1233.654</ele>
        <time>2020-09-19T13:56:42Z</time>
      </trkpt>
      <trkpt lat="45.5784" lon="6.08087">
        <ele>1233.622</ele>
        <time>2020-09-19T13:56:45Z</time>
      </trkpt>
      <trkpt lat="45.57841" lon="6.08093">
        <ele>1233.312</ele>
        <time>2020-09-19T13:56:48Z</time>
      </trkpt>
      <trkpt lat="45.57839" lon="6.08101">
        <ele>1232.255</ele>
        <time>2020-09-19T13:56:52Z</time>
      </trkpt>
      <trkpt lat="45.57833" lon="6.08117">
        <ele>1231.556</ele>
        <time>2020-09-19T13:57:00Z</time>
      </trkpt>
      <trkpt lat="45.57829" lon="6.08121">
        <ele>1231.888</ele>
        <time>2020-09-19T13:57:03Z</time>
      </trkpt>
      <trkpt lat="45.57813" lon="6.08125">
        <ele>1229.812</ele>
        <time>2020-09-19T13:57:18Z</time>
      </trkpt>
      <trkpt lat="45.57801" lon="6.08127">
        <ele>1228.498</ele>
        <time>2020-09-19T13:57:29Z</time>
      </trkpt>
      <trkpt lat="45.57795" lon="6.08129">
        <ele>1228.303</ele>
        <time>2020-09-19T13:57:34Z</time>
      </trkpt>
      <trkpt lat="45.57792" lon="6.08129">
        <ele>1227.901</ele>
        <time>2020-09-19T13:57:38Z</time>
      </trkpt>
      <trkpt lat="45.57788" lon="6.08128">
        <ele>1227.4</ele>
        <time>2020-09-19T13:57:42Z</time>
      </trkpt>
      <trkpt lat="45.57787" lon="6.08128">
        <ele>1227.465</ele>
        <time>2020-09-19T13:57:44Z</time>
      </trkpt>
      <trkpt lat="45.57785" lon="6.08129">
        <ele>1227.049</ele>
        <time>2020-09-19T13:57:46Z</time>
      </trkpt>
      <trkpt lat="45.57781" lon="6.0813">
        <ele>1226.275</ele>
        <time>2020-09-19T13:57:51Z</time>
      </trkpt>
      <trkpt lat="45.57778" lon="6.08129">
        <ele>1225.84</ele>
        <time>2020-09-19T13:57:54Z</time>
      </trkpt>
      <trkpt lat="45.57777" lon="6.0813">
        <ele>1225.879</ele>
        <time>2020-09-19T13:57:56Z</time>
      </trkpt>
      <trkpt lat="45.57775" lon="6.08131">
        <ele>1225.272</ele>
        <time>2020-09-19T13:58:00Z</time>
      </trkpt>
      <trkpt lat="45.57773" lon="6.08131">
        <ele>1225.223</ele>
        <time>2020-09-19T13:58:01Z</time>
      </trkpt>
      <trkpt lat="45.57768" lon="6.0813">
        <ele>1224.371</ele>
        <time>2020-09-19T13:58:05Z</time>
      </trkpt>
      <trkpt lat="45.57766" lon="6.08127">
        <ele>1224.699</ele>
        <time>2020-09-19T13:58:07Z</time>
      </trkpt>
      <trkpt lat="45.5776" lon="6.08121">
        <ele>1224.681</ele>
        <time>2020-09-19T13:58:11Z</time>
      </trkpt>
      <trkpt lat="45.5775" lon="6.08112">
        <ele>1225.254</ele>
        <time>2020-09-19T13:58:16Z</time>
      </trkpt>
      <trkpt lat="45.57749" lon="6.08114">
        <ele>1225.08</ele>
        <time>2020-09-19T13:58:18Z</time>
      </trkpt>
      <trkpt lat="45.57749" lon="6.08115">
        <ele>1224.53</ele>
        <time>2020-09-19T13:58:20Z</time>
      </trkpt>
      <trkpt lat="45.57749" lon="6.08116">
        <ele>1224.673</ele>
        <time>2020-09-19T13:58:21Z</time>
      </trkpt>
      <trkpt lat="45.57749" lon="6.08117">
        <ele>1224.659</ele>
        <time>2020-09-19T13:58:22Z</time>
      </trkpt>
      <trkpt lat="45.57748" lon="6.08117">
        <ele>1224.399</ele>
        <time>2020-09-19T13:58:23Z</time>
      </trkpt>
      <trkpt lat="45.57748" lon="6.08117">
        <ele>1224.399</ele>
        <time>2020-09-19T13:58:23Z</time>
      </trkpt>
      <trkpt lat="45.57748" lon="6.08117">
        <ele>1224.211</ele>
        <time>2020-09-19T13:58:24Z</time>
      </trkpt>
      <trkpt lat="45.57747" lon="6.08116">
        <ele>1224.031</ele>
        <time>2020-09-19T13:58:25Z</time>
      </trkpt>
      <trkpt lat="45.57743" lon="6.08115">
        <ele>1223.383</ele>
        <time>2020-09-19T13:58:30Z</time>
      </trkpt>
      <trkpt lat="45.57742" lon="6.0811">
        <ele>1223.313</ele>
        <time>2020-09-19T13:58:32Z</time>
      </trkpt>
      <trkpt lat="45.5774" lon="6.08107">
        <ele>1223.404</ele>
        <time>2020-09-19T13:58:33Z</time>
      </trkpt>
      <trkpt lat="45.57736" lon="6.08106">
        <ele>1223.212</ele>
        <time>2020-09-19T13:58:34Z</time>
      </trkpt>
      <trkpt lat="45.57731" lon="6.08105">
        <ele>1223.517</ele>
        <time>2020-09-19T13:58:35Z</time>
      </trkpt>
      <trkpt lat="45.57725" lon="6.08105">
        <ele>1222.639</ele>
        <time>2020-09-19T13:58:38Z</time>
      </trkpt>
      <trkpt lat="45.57725" lon="6.0811">
        <ele>1222.402</ele>
        <time>2020-09-19T13:58:42Z</time>
      </trkpt>
      <trkpt lat="45.5772" lon="6.08111">
        <ele>1222.429</ele>
        <time>2020-09-19T13:58:45Z</time>
      </trkpt>
      <trkpt lat="45.57716" lon="6.08103">
        <ele>1222.047</ele>
        <time>2020-09-19T13:58:49Z</time>
      </trkpt>
      <trkpt lat="45.57714" lon="6.08098">
        <ele>1222.337</ele>
        <time>2020-09-19T13:58:50Z</time>
      </trkpt>
      <trkpt lat="45.57711" lon="6.08093">
        <ele>1222.53</ele>
        <time>2020-09-19T13:58:51Z</time>
      </trkpt>
      <trkpt lat="45.57708" lon="6.08089">
        <ele>1222.998</ele>
        <time>2020-09-19T13:58:52Z</time>
      </trkpt>
      <trkpt lat="45.57706" lon="6.08085">
        <ele>1222.556</ele>
        <time>2020-09-19T13:58:54Z</time>
      </trkpt>
      <trkpt lat="45.57707" lon="6.08084">
        <ele>1222.54</ele>
        <time>2020-09-19T13:58:55Z</time>
      </trkpt>
      <trkpt lat="45.57708" lon="6.08079">
        <ele>1222.25</ele>
        <time>2020-09-19T13:58:56Z</time>
      </trkpt>
      <trkpt lat="45.57706" lon="6.0807">
        <ele>1222.689</ele>
        <time>2020-09-19T13:58:59Z</time>
      </trkpt>
      <trkpt lat="45.57705" lon="6.08067">
        <ele>1222.329</ele>
        <time>2020-09-19T13:59:02Z</time>
      </trkpt>
      <trkpt lat="45.57709" lon="6.0807">
        <ele>1221.973</ele>
        <time>2020-09-19T13:59:05Z</time>
      </trkpt>
      <trkpt lat="45.57707" lon="6.08073">
        <ele>1221.706</ele>
        <time>2020-09-19T13:59:07Z</time>
      </trkpt>
      <trkpt lat="45.57704" lon="6.08074">
        <ele>1221.389</ele>
        <time>2020-09-19T13:59:09Z</time>
      </trkpt>
      <trkpt lat="45.57702" lon="6.08073">
        <ele>1221.385</ele>
        <time>2020-09-19T13:59:12Z</time>
      </trkpt>
      <trkpt lat="45.57702" lon="6.08073">
        <ele>1221.338</ele>
        <time>2020-09-19T13:59:13Z</time>
      </trkpt>
      <trkpt lat="45.57701" lon="6.08071">
        <ele>1221.462</ele>
        <time>2020-09-19T13:59:14Z</time>
      </trkpt>
      <trkpt lat="45.57701" lon="6.08071">
        <ele>1221.462</ele>
        <time>2020-09-19T13:59:14Z</time>
      </trkpt>
      <trkpt lat="45.57701" lon="6.0807">
        <ele>1221.422</ele>
        <time>2020-09-19T13:59:15Z</time>
      </trkpt>
      <trkpt lat="45.57699" lon="6.08067">
        <ele>1221.564</ele>
        <time>2020-09-19T13:59:19Z</time>
      </trkpt>
      <trkpt lat="45.57699" lon="6.08066">
        <ele>1221.115</ele>
        <time>2020-09-19T13:59:20Z</time>
      </trkpt>
      <trkpt lat="45.57698" lon="6.08066">
        <ele>1220.924</ele>
        <time>2020-09-19T13:59:21Z</time>
      </trkpt>
      <trkpt lat="45.57694" lon="6.08064">
        <ele>1220.374</ele>
        <time>2020-09-19T13:59:24Z</time>
      </trkpt>
      <trkpt lat="45.57689" lon="6.08061">
        <ele>1220.547</ele>
        <time>2020-09-19T13:59:28Z</time>
      </trkpt>
      <trkpt lat="45.57684" lon="6.08059">
        <ele>1220.772</ele>
        <time>2020-09-19T13:59:33Z</time>
      </trkpt>
      <trkpt lat="45.57673" lon="6.08052">
        <ele>1221.27</ele>
        <time>2020-09-19T13:59:39Z</time>
      </trkpt>
      <trkpt lat="45.57668" lon="6.08049">
        <ele>1221.221</ele>
        <time>2020-09-19T13:59:42Z</time>
      </trkpt>
      <trkpt lat="45.57665" lon="6.08052">
        <ele>1221.467</ele>
        <time>2020-09-19T13:59:45Z</time>
      </trkpt>
      <trkpt lat="45.57662" lon="6.08058">
        <ele>1221.796</ele>
        <time>2020-09-19T13:59:50Z</time>
      </trkpt>
      <trkpt lat="45.57658" lon="6.08064">
        <ele>1221.072</ele>
        <time>2020-09-19T13:59:54Z</time>
      </trkpt>
      <trkpt lat="45.57655" lon="6.08066">
        <ele>1221.01</ele>
        <time>2020-09-19T13:59:57Z</time>
      </trkpt>
      <trkpt lat="45.57654" lon="6.08066">
        <ele>1221.41</ele>
        <time>2020-09-19T13:59:59Z</time>
      </trkpt>
      <trkpt lat="45.57653" lon="6.08067">
        <ele>1221.111</ele>
        <time>2020-09-19T14:00:00Z</time>
      </trkpt>
      <trkpt lat="45.5765" lon="6.08068">
        <ele>1221.175</ele>
        <time>2020-09-19T14:00:02Z</time>
      </trkpt>
      <trkpt lat="45.57641" lon="6.08078">
        <ele>1221.489</ele>
        <time>2020-09-19T14:00:08Z</time>
      </trkpt>
      <trkpt lat="45.5764" lon="6.08081">
        <ele>1220.916</ele>
        <time>2020-09-19T14:00:10Z</time>
      </trkpt>
      <trkpt lat="45.57641" lon="6.08079">
        <ele>1221.016</ele>
        <time>2020-09-19T14:00:11Z</time>
      </trkpt>
      <trkpt lat="45.5764" lon="6.08073">
        <ele>1221.077</ele>
        <time>2020-09-19T14:00:13Z</time>
      </trkpt>
      <trkpt lat="45.57638" lon="6.0807">
        <ele>1221.106</ele>
        <time>2020-09-19T14:00:14Z</time>
      </trkpt>
      <trkpt lat="45.57638" lon="6.0807">
        <ele>1220.88</ele>
        <time>2020-09-19T14:00:15Z</time>
      </trkpt>
      <trkpt lat="45.57638" lon="6.0807">
        <ele>1220.88</ele>
        <time>2020-09-19T14:00:15Z</time>
      </trkpt>
      <trkpt lat="45.57638" lon="6.08067">
        <ele>1220.849</ele>
        <time>2020-09-19T14:00:16Z</time>
      </trkpt>
      <trkpt lat="45.57638" lon="6.08064">
        <ele>1221.143</ele>
        <time>2020-09-19T14:00:19Z</time>
      </trkpt>
      <trkpt lat="45.57637" lon="6.08065">
        <ele>1221.043</ele>
        <time>2020-09-19T14:00:20Z</time>
      </trkpt>
      <trkpt lat="45.57636" lon="6.08065">
        <ele>1220.998</ele>
        <time>2020-09-19T14:00:21Z</time>
      </trkpt>
      <trkpt lat="45.57633" lon="6.08067">
        <ele>1220.348</ele>
        <time>2020-09-19T14:00:23Z</time>
      </trkpt>
      <trkpt lat="45.57629" lon="6.08072">
        <ele>1219.985</ele>
        <time>2020-09-19T14:00:25Z</time>
      </trkpt>
      <trkpt lat="45.57624" lon="6.0807">
        <ele>1219.758</ele>
        <time>2020-09-19T14:00:27Z</time>
      </trkpt>
      <trkpt lat="45.5762" lon="6.08068">
        <ele>1219.932</ele>
        <time>2020-09-19T14:00:28Z</time>
      </trkpt>
      <trkpt lat="45.57617" lon="6.08068">
        <ele>1219.876</ele>
        <time>2020-09-19T14:00:30Z</time>
      </trkpt>
      <trkpt lat="45.57615" lon="6.08064">
        <ele>1219.971</ele>
        <time>2020-09-19T14:00:32Z</time>
      </trkpt>
      <trkpt lat="45.57614" lon="6.08059">
        <ele>1220.404</ele>
        <time>2020-09-19T14:00:34Z</time>
      </trkpt>
      <trkpt lat="45.57615" lon="6.08057">
        <ele>1220.343</ele>
        <time>2020-09-19T14:00:35Z</time>
      </trkpt>
      <trkpt lat="45.57618" lon="6.08056">
        <ele>1220.498</ele>
        <time>2020-09-19T14:00:38Z</time>
      </trkpt>
      <trkpt lat="45.57617" lon="6.08064">
        <ele>1220.21</ele>
        <time>2020-09-19T14:00:40Z</time>
      </trkpt>
      <trkpt lat="45.57615" lon="6.08067">
        <ele>1219.906</ele>
        <time>2020-09-19T14:00:41Z</time>
      </trkpt>
      <trkpt lat="45.5761" lon="6.08068">
        <ele>1219.399</ele>
        <time>2020-09-19T14:00:43Z</time>
      </trkpt>
      <trkpt lat="45.57607" lon="6.08071">
        <ele>1219.146</ele>
        <time>2020-09-19T14:00:46Z</time>
      </trkpt>
      <trkpt lat="45.57607" lon="6.08077">
        <ele>1218.829</ele>
        <time>2020-09-19T14:00:48Z</time>
      </trkpt>
      <trkpt lat="45.57603" lon="6.08083">
        <ele>1218.708</ele>
        <time>2020-09-19T14:00:51Z</time>
      </trkpt>
      <trkpt lat="45.57599" lon="6.08082">
        <ele>1217.958</ele>
        <time>2020-09-19T14:00:53Z</time>
      </trkpt>
      <trkpt lat="45.57598" lon="6.0808">
        <ele>1218.091</ele>
        <time>2020-09-19T14:00:54Z</time>
      </trkpt>
      <trkpt lat="45.57597" lon="6.08076">
        <ele>1218.13</ele>
        <time>2020-09-19T14:00:55Z</time>
      </trkpt>
      <trkpt lat="45.57596" lon="6.08072">
        <ele>1218.309</ele>
        <time>2020-09-19T14:00:56Z</time>
      </trkpt>
      <trkpt lat="45.57595" lon="6.08073">
        <ele>1218.047</ele>
        <time>2020-09-19T14:00:58Z</time>
      </trkpt>
      <trkpt lat="45.57594" lon="6.08076">
        <ele>1217.923</ele>
        <time>2020-09-19T14:01:00Z</time>
      </trkpt>
      <trkpt lat="45.57594" lon="6.08083">
        <ele>1216.975</ele>
        <time>2020-09-19T14:01:06Z</time>
      </trkpt>
      <trkpt lat="45.57594" lon="6.08084">
        <ele>1216.616</ele>
        <time>2020-09-19T14:01:08Z</time>
      </trkpt>
      <trkpt lat="45.57594" lon="6.08084">
        <ele>1216.616</ele>
        <time>2020-09-19T14:01:08Z</time>
      </trkpt>
      <trkpt lat="45.57595" lon="6.08085">
        <ele>1216.325</ele>
        <time>2020-09-19T14:01:09Z</time>
      </trkpt>
      <trkpt lat="45.57595" lon="6.08085">
        <ele>1216.447</ele>
        <time>2020-09-19T14:01:10Z</time>
      </trkpt>
      <trkpt lat="45.57596" lon="6.08082">
        <ele>1215.091</ele>
        <time>2020-09-19T14:01:15Z</time>
      </trkpt>
      <trkpt lat="45.57595" lon="6.08082">
        <ele>1215.148</ele>
        <time>2020-09-19T14:01:16Z</time>
      </trkpt>
      <trkpt lat="45.57596" lon="6.08078">
        <ele>1215.154</ele>
        <time>2020-09-19T14:01:18Z</time>
      </trkpt>
      <trkpt lat="45.57597" lon="6.08076">
        <ele>1215.486</ele>
        <time>2020-09-19T14:01:19Z</time>
      </trkpt>
      <trkpt lat="45.57597" lon="6.08075">
        <ele>1216.031</ele>
        <time>2020-09-19T14:01:22Z</time>
      </trkpt>
      <trkpt lat="45.57597" lon="6.08075">
        <ele>1216.031</ele>
        <time>2020-09-19T14:01:22Z</time>
      </trkpt>
      <trkpt lat="45.57598" lon="6.08077">
        <ele>1215.365</ele>
        <time>2020-09-19T14:01:23Z</time>
      </trkpt>
      <trkpt lat="45.57598" lon="6.08078">
        <ele>1214.538</ele>
        <time>2020-09-19T14:01:24Z</time>
      </trkpt>
      <trkpt lat="45.576" lon="6.08081">
        <ele>1213.951</ele>
        <time>2020-09-19T14:01:25Z</time>
      </trkpt>
      <trkpt lat="45.57601" lon="6.08083">
        <ele>1214.267</ele>
        <time>2020-09-19T14:01:26Z</time>
      </trkpt>
      <trkpt lat="45.576" lon="6.08084">
        <ele>1214.341</ele>
        <time>2020-09-19T14:01:27Z</time>
      </trkpt>
      <trkpt lat="45.576" lon="6.08085">
        <ele>1213.957</ele>
        <time>2020-09-19T14:01:28Z</time>
      </trkpt>
      <trkpt lat="45.57601" lon="6.08085">
        <ele>1211.973</ele>
        <time>2020-09-19T14:01:31Z</time>
      </trkpt>
      <trkpt lat="45.57602" lon="6.08085">
        <ele>1212.142</ele>
        <time>2020-09-19T14:01:32Z</time>
      </trkpt>
      <trkpt lat="45.57602" lon="6.08085">
        <ele>1212.052</ele>
        <time>2020-09-19T14:01:33Z</time>
      </trkpt>
      <trkpt lat="45.57602" lon="6.08085">
        <ele>1211.811</ele>
        <time>2020-09-19T14:01:34Z</time>
      </trkpt>
      <trkpt lat="45.57607" lon="6.08083">
        <ele>1211.59</ele>
        <time>2020-09-19T14:01:38Z</time>
      </trkpt>
      <trkpt lat="45.57607" lon="6.08083">
        <ele>1211.129</ele>
        <time>2020-09-19T14:01:41Z</time>
      </trkpt>
      <trkpt lat="45.57608" lon="6.08081">
        <ele>1210.684</ele>
        <time>2020-09-19T14:01:42Z</time>
      </trkpt>
      <trkpt lat="45.57608" lon="6.08081">
        <ele>1209.663</ele>
        <time>2020-09-19T14:01:45Z</time>
      </trkpt>
      <trkpt lat="45.57608" lon="6.08081">
        <ele>1209.556</ele>
        <time>2020-09-19T14:01:48Z</time>
      </trkpt>
      <trkpt lat="45.57608" lon="6.08079">
        <ele>1211.228</ele>
        <time>2020-09-19T14:01:49Z</time>
      </trkpt>
      <trkpt lat="45.57607" lon="6.08078">
        <ele>1210.877</ele>
        <time>2020-09-19T14:01:50Z</time>
      </trkpt>
      <trkpt lat="45.57604" lon="6.08077">
        <ele>1209.212</ele>
        <time>2020-09-19T14:01:52Z</time>
      </trkpt>
      <trkpt lat="45.57604" lon="6.08076">
        <ele>1209.922</ele>
        <time>2020-09-19T14:01:53Z</time>
      </trkpt>
      <trkpt lat="45.57603" lon="6.08076">
        <ele>1209.653</ele>
        <time>2020-09-19T14:01:54Z</time>
      </trkpt>
      <trkpt lat="45.57603" lon="6.08076">
        <ele>1209.653</ele>
        <time>2020-09-19T14:01:54Z</time>
      </trkpt>
      <trkpt lat="45.57603" lon="6.08076">
        <ele>1207.617</ele>
        <time>2020-09-19T14:01:55Z</time>
      </trkpt>
      <trkpt lat="45.57603" lon="6.08076">
        <ele>1207.617</ele>
        <time>2020-09-19T14:01:55Z</time>
      </trkpt>
      <trkpt lat="45.57605" lon="6.08075">
        <ele>1208.858</ele>
        <time>2020-09-19T14:01:56Z</time>
      </trkpt>
      <trkpt lat="45.57605" lon="6.08075">
        <ele>1208.858</ele>
        <time>2020-09-19T14:01:56Z</time>
      </trkpt>
      <trkpt lat="45.57605" lon="6.08075">
        <ele>1208.619</ele>
        <time>2020-09-19T14:01:57Z</time>
      </trkpt>
      <trkpt lat="45.57605" lon="6.08075">
        <ele>1200.553</ele>
        <time>2020-09-19T14:02:05Z</time>
      </trkpt>
      <trkpt lat="45.57604" lon="6.08075">
        <ele>1205.624</ele>
        <time>2020-09-19T14:02:06Z</time>
      </trkpt>
      <trkpt lat="45.57602" lon="6.0808">
        <ele>1200.354</ele>
        <time>2020-09-19T14:02:09Z</time>
      </trkpt>
      <trkpt lat="45.57601" lon="6.08083">
        <ele>1198.298</ele>
        <time>2020-09-19T14:02:11Z</time>
      </trkpt>
      <trkpt lat="45.57601" lon="6.08083">
        <ele>1198.298</ele>
        <time>2020-09-19T14:02:11Z</time>
      </trkpt>
      <trkpt lat="45.57601" lon="6.08083">
        <ele>1197.219</ele>
        <time>2020-09-19T14:02:12Z</time>
      </trkpt>
      <trkpt lat="45.57601" lon="6.08083">
        <ele>1197.219</ele>
        <time>2020-09-19T14:02:12Z</time>
      </trkpt>
      <trkpt lat="45.576" lon="6.08084">
        <ele>1200.873</ele>
        <time>2020-09-19T14:02:13Z</time>
      </trkpt>
      <trkpt lat="45.576" lon="6.08084">
        <ele>1201.093</ele>
        <time>2020-09-19T14:02:14Z</time>
      </trkpt>
      <trkpt lat="45.576" lon="6.08084">
        <ele>1201.093</ele>
        <time>2020-09-19T14:02:14Z</time>
      </trkpt>
      <trkpt lat="45.576" lon="6.08085">
        <ele>1201.178</ele>
        <time>2020-09-19T14:02:15Z</time>
      </trkpt>
      <trkpt lat="45.576" lon="6.08085">
        <ele>1200.623</ele>
        <time>2020-09-19T14:02:16Z</time>
      </trkpt>
      <trkpt lat="45.57598" lon="6.08082">
        <ele>1200.135</ele>
        <time>2020-09-19T14:02:25Z</time>
      </trkpt>
      <trkpt lat="45.57594" lon="6.08082">
        <ele>1200.146</ele>
        <time>2020-09-19T14:02:29Z</time>
      </trkpt>
      <trkpt lat="45.57594" lon="6.08076">
        <ele>1199.945</ele>
        <time>2020-09-19T14:02:33Z</time>
      </trkpt>
      <trkpt lat="45.57592" lon="6.08068">
        <ele>1200.494</ele>
        <time>2020-09-19T14:02:36Z</time>
      </trkpt>
      <trkpt lat="45.57589" lon="6.08066">
        <ele>1200.421</ele>
        <time>2020-09-19T14:02:38Z</time>
      </trkpt>
      <trkpt lat="45.57589" lon="6.08067">
        <ele>1199.686</ele>
        <time>2020-09-19T14:02:39Z</time>
      </trkpt>
      <trkpt lat="45.57587" lon="6.08071">
        <ele>1201.243</ele>
        <time>2020-09-19T14:02:41Z</time>
      </trkpt>
      <trkpt lat="45.57584" lon="6.08077">
        <ele>1200.561</ele>
        <time>2020-09-19T14:02:45Z</time>
      </trkpt>
      <trkpt lat="45.57582" lon="6.08079">
        <ele>1199.567</ele>
        <time>2020-09-19T14:02:47Z</time>
      </trkpt>
      <trkpt lat="45.57575" lon="6.08079">
        <ele>1199.454</ele>
        <time>2020-09-19T14:02:51Z</time>
      </trkpt>
      <trkpt lat="45.57571" lon="6.08079">
        <ele>1197.705</ele>
        <time>2020-09-19T14:02:54Z</time>
      </trkpt>
      <trkpt lat="45.57563" lon="6.08081">
        <ele>1197.932</ele>
        <time>2020-09-19T14:03:02Z</time>
      </trkpt>
      <trkpt lat="45.57561" lon="6.08078">
        <ele>1198.125</ele>
        <time>2020-09-19T14:03:04Z</time>
      </trkpt>
      <trkpt lat="45.57558" lon="6.0808">
        <ele>1196.894</ele>
        <time>2020-09-19T14:03:08Z</time>
      </trkpt>
      <trkpt lat="45.57555" lon="6.0808">
        <ele>1197.006</ele>
        <time>2020-09-19T14:03:11Z</time>
      </trkpt>
      <trkpt lat="45.5755" lon="6.08075">
        <ele>1196.659</ele>
        <time>2020-09-19T14:03:14Z</time>
      </trkpt>
      <trkpt lat="45.57546" lon="6.08073">
        <ele>1196.577</ele>
        <time>2020-09-19T14:03:16Z</time>
      </trkpt>
      <trkpt lat="45.57543" lon="6.0807">
        <ele>1197.691</ele>
        <time>2020-09-19T14:03:19Z</time>
      </trkpt>
      <trkpt lat="45.5754" lon="6.08072">
        <ele>1197.327</ele>
        <time>2020-09-19T14:03:22Z</time>
      </trkpt>
      <trkpt lat="45.5753" lon="6.08079">
        <ele>1196.574</ele>
        <time>2020-09-19T14:03:30Z</time>
      </trkpt>
      <trkpt lat="45.57527" lon="6.08079">
        <ele>1195.551</ele>
        <time>2020-09-19T14:03:33Z</time>
      </trkpt>
      <trkpt lat="45.57524" lon="6.08075">
        <ele>1195.456</ele>
        <time>2020-09-19T14:03:35Z</time>
      </trkpt>
      <trkpt lat="45.57515" lon="6.08068">
        <ele>1196.592</ele>
        <time>2020-09-19T14:03:41Z</time>
      </trkpt>
      <trkpt lat="45.57512" lon="6.08069">
        <ele>1197.453</ele>
        <time>2020-09-19T14:03:44Z</time>
      </trkpt>
      <trkpt lat="45.57508" lon="6.08073">
        <ele>1195.33</ele>
        <time>2020-09-19T14:03:50Z</time>
      </trkpt>
      <trkpt lat="45.57505" lon="6.08074">
        <ele>1194.745</ele>
        <time>2020-09-19T14:03:54Z</time>
      </trkpt>
      <trkpt lat="45.57499" lon="6.08075">
        <ele>1193.153</ele>
        <time>2020-09-19T14:04:02Z</time>
      </trkpt>
      <trkpt lat="45.57495" lon="6.08075">
        <ele>1192.856</ele>
        <time>2020-09-19T14:04:06Z</time>
      </trkpt>
      <trkpt lat="45.57487" lon="6.08074">
        <ele>1193.983</ele>
        <time>2020-09-19T14:04:11Z</time>
      </trkpt>
      <trkpt lat="45.57481" lon="6.08076">
        <ele>1193.971</ele>
        <time>2020-09-19T14:04:15Z</time>
      </trkpt>
      <trkpt lat="45.57479" lon="6.08077">
        <ele>1194.297</ele>
        <time>2020-09-19T14:04:19Z</time>
      </trkpt>
      <trkpt lat="45.57479" lon="6.08077">
        <ele>1193.434</ele>
        <time>2020-09-19T14:04:20Z</time>
      </trkpt>
      <trkpt lat="45.57475" lon="6.08078">
        <ele>1191.93</ele>
        <time>2020-09-19T14:04:25Z</time>
      </trkpt>
      <trkpt lat="45.57473" lon="6.08078">
        <ele>1191.497</ele>
        <time>2020-09-19T14:04:27Z</time>
      </trkpt>
      <trkpt lat="45.57473" lon="6.08078">
        <ele>1190.868</ele>
        <time>2020-09-19T14:04:29Z</time>
      </trkpt>
      <trkpt lat="45.57472" lon="6.08076">
        <ele>1191.433</ele>
        <time>2020-09-19T14:04:31Z</time>
      </trkpt>
      <trkpt lat="45.5747" lon="6.08072">
        <ele>1191.448</ele>
        <time>2020-09-19T14:04:34Z</time>
      </trkpt>
      <trkpt lat="45.57469" lon="6.08071">
        <ele>1190.639</ele>
        <time>2020-09-19T14:04:36Z</time>
      </trkpt>
      <trkpt lat="45.57468" lon="6.0807">
        <ele>1190.46</ele>
        <time>2020-09-19T14:04:37Z</time>
      </trkpt>
      <trkpt lat="45.57467" lon="6.08066">
        <ele>1189.918</ele>
        <time>2020-09-19T14:04:41Z</time>
      </trkpt>
      <trkpt lat="45.57467" lon="6.08064">
        <ele>1189.961</ele>
        <time>2020-09-19T14:04:42Z</time>
      </trkpt>
      <trkpt lat="45.57466" lon="6.0806">
        <ele>1190.279</ele>
        <time>2020-09-19T14:04:45Z</time>
      </trkpt>
      <trkpt lat="45.57465" lon="6.08053">
        <ele>1189.537</ele>
        <time>2020-09-19T14:04:49Z</time>
      </trkpt>
      <trkpt lat="45.57466" lon="6.08046">
        <ele>1189.655</ele>
        <time>2020-09-19T14:04:53Z</time>
      </trkpt>
      <trkpt lat="45.57469" lon="6.08042">
        <ele>1189.232</ele>
        <time>2020-09-19T14:04:56Z</time>
      </trkpt>
      <trkpt lat="45.57472" lon="6.08033">
        <ele>1189.93</ele>
        <time>2020-09-19T14:05:02Z</time>
      </trkpt>
      <trkpt lat="45.57473" lon="6.08031">
        <ele>1189.985</ele>
        <time>2020-09-19T14:05:04Z</time>
      </trkpt>
      <trkpt lat="45.57472" lon="6.08028">
        <ele>1190.143</ele>
        <time>2020-09-19T14:05:06Z</time>
      </trkpt>
      <trkpt lat="45.57473" lon="6.08023">
        <ele>1190.584</ele>
        <time>2020-09-19T14:05:10Z</time>
      </trkpt>
      <trkpt lat="45.57473" lon="6.08019">
        <ele>1191.067</ele>
        <time>2020-09-19T14:05:13Z</time>
      </trkpt>
      <trkpt lat="45.57471" lon="6.08015">
        <ele>1191.392</ele>
        <time>2020-09-19T14:05:16Z</time>
      </trkpt>
      <trkpt lat="45.57467" lon="6.08">
        <ele>1192.38</ele>
        <time>2020-09-19T14:05:20Z</time>
      </trkpt>
      <trkpt lat="45.5746" lon="6.07989">
        <ele>1192.141</ele>
        <time>2020-09-19T14:05:23Z</time>
      </trkpt>
      <trkpt lat="45.57457" lon="6.07989">
        <ele>1192.637</ele>
        <time>2020-09-19T14:05:24Z</time>
      </trkpt>
      <trkpt lat="45.57456" lon="6.0799">
        <ele>1193.127</ele>
        <time>2020-09-19T14:05:25Z</time>
      </trkpt>
      <trkpt lat="45.57455" lon="6.07992">
        <ele>1192.97</ele>
        <time>2020-09-19T14:05:26Z</time>
      </trkpt>
      <trkpt lat="45.57455" lon="6.07994">
        <ele>1192.632</ele>
        <time>2020-09-19T14:05:28Z</time>
      </trkpt>
      <trkpt lat="45.57453" lon="6.07999">
        <ele>1191.825</ele>
        <time>2020-09-19T14:05:31Z</time>
      </trkpt>
      <trkpt lat="45.57435" lon="6.08022">
        <ele>1190.35</ele>
        <time>2020-09-19T14:05:44Z</time>
      </trkpt>
      <trkpt lat="45.57436" lon="6.08022">
        <ele>1190.34</ele>
        <time>2020-09-19T14:05:46Z</time>
      </trkpt>
      <trkpt lat="45.57436" lon="6.08021">
        <ele>1190.072</ele>
        <time>2020-09-19T14:05:47Z</time>
      </trkpt>
      <trkpt lat="45.57429" lon="6.08027">
        <ele>1189.474</ele>
        <time>2020-09-19T14:06:00Z</time>
      </trkpt>
      <trkpt lat="45.5743" lon="6.08028">
        <ele>1188.793</ele>
        <time>2020-09-19T14:06:01Z</time>
      </trkpt>
      <trkpt lat="45.5743" lon="6.08028">
        <ele>1188.793</ele>
        <time>2020-09-19T14:06:01Z</time>
      </trkpt>
      <trkpt lat="45.5743" lon="6.08029">
        <ele>1188.78</ele>
        <time>2020-09-19T14:06:02Z</time>
      </trkpt>
      <trkpt lat="45.57431" lon="6.0803">
        <ele>1188.355</ele>
        <time>2020-09-19T14:06:03Z</time>
      </trkpt>
      <trkpt lat="45.57432" lon="6.0803">
        <ele>1188.125</ele>
        <time>2020-09-19T14:06:04Z</time>
      </trkpt>
      <trkpt lat="45.57432" lon="6.0803">
        <ele>1188.193</ele>
        <time>2020-09-19T14:06:05Z</time>
      </trkpt>
      <trkpt lat="45.57432" lon="6.0803">
        <ele>1188.193</ele>
        <time>2020-09-19T14:06:05Z</time>
      </trkpt>
      <trkpt lat="45.57432" lon="6.0803">
        <ele>1188.167</ele>
        <time>2020-09-19T14:06:06Z</time>
      </trkpt>
      <trkpt lat="45.5743" lon="6.08033">
        <ele>1187.533</ele>
        <time>2020-09-19T14:06:10Z</time>
      </trkpt>
      <trkpt lat="45.57427" lon="6.08036">
        <ele>1187.29</ele>
        <time>2020-09-19T14:06:12Z</time>
      </trkpt>
      <trkpt lat="45.57423" lon="6.08037">
        <ele>1187.314</ele>
        <time>2020-09-19T14:06:14Z</time>
      </trkpt>
      <trkpt lat="45.57418" lon="6.08041">
        <ele>1186.883</ele>
        <time>2020-09-19T14:06:18Z</time>
      </trkpt>
      <trkpt lat="45.57417" lon="6.08043">
        <ele>1186.782</ele>
        <time>2020-09-19T14:06:20Z</time>
      </trkpt>
      <trkpt lat="45.57416" lon="6.08044">
        <ele>1186.58</ele>
        <time>2020-09-19T14:06:21Z</time>
      </trkpt>
      <trkpt lat="45.57413" lon="6.08047">
        <ele>1186.31</ele>
        <time>2020-09-19T14:06:23Z</time>
      </trkpt>
      <trkpt lat="45.57407" lon="6.08052">
        <ele>1185.277</ele>
        <time>2020-09-19T14:06:28Z</time>
      </trkpt>
      <trkpt lat="45.57405" lon="6.08054">
        <ele>1184.978</ele>
        <time>2020-09-19T14:06:30Z</time>
      </trkpt>
      <trkpt lat="45.57402" lon="6.08056">
        <ele>1184.53</ele>
        <time>2020-09-19T14:06:34Z</time>
      </trkpt>
      <trkpt lat="45.57395" lon="6.08058">
        <ele>1183.996</ele>
        <time>2020-09-19T14:06:41Z</time>
      </trkpt>
      <trkpt lat="45.57392" lon="6.08061">
        <ele>1183.56</ele>
        <time>2020-09-19T14:06:46Z</time>
      </trkpt>
      <trkpt lat="45.5739" lon="6.08064">
        <ele>1183.496</ele>
        <time>2020-09-19T14:06:50Z</time>
      </trkpt>
      <trkpt lat="45.57388" lon="6.08065">
        <ele>1182.823</ele>
        <time>2020-09-19T14:06:53Z</time>
      </trkpt>
      <trkpt lat="45.57387" lon="6.08065">
        <ele>1182.606</ele>
        <time>2020-09-19T14:06:54Z</time>
      </trkpt>
      <trkpt lat="45.57379" lon="6.0807">
        <ele>1182.254</ele>
        <time>2020-09-19T14:06:58Z</time>
      </trkpt>
      <trkpt lat="45.57369" lon="6.08076">
        <ele>1181.032</ele>
        <time>2020-09-19T14:07:04Z</time>
      </trkpt>
      <trkpt lat="45.57366" lon="6.08087">
        <ele>1179.187</ele>
        <time>2020-09-19T14:07:08Z</time>
      </trkpt>
      <trkpt lat="45.57363" lon="6.08088">
        <ele>1178.826</ele>
        <time>2020-09-19T14:07:10Z</time>
      </trkpt>
      <trkpt lat="45.57359" lon="6.08094">
        <ele>1177.746</ele>
        <time>2020-09-19T14:07:14Z</time>
      </trkpt>
      <trkpt lat="45.57358" lon="6.08095">
        <ele>1177.59</ele>
        <time>2020-09-19T14:07:15Z</time>
      </trkpt>
      <trkpt lat="45.57355" lon="6.08092">
        <ele>1176.735</ele>
        <time>2020-09-19T14:07:17Z</time>
      </trkpt>
      <trkpt lat="45.57353" lon="6.08087">
        <ele>1177.122</ele>
        <time>2020-09-19T14:07:19Z</time>
      </trkpt>
      <trkpt lat="45.57352" lon="6.08085">
        <ele>1176.939</ele>
        <time>2020-09-19T14:07:20Z</time>
      </trkpt>
      <trkpt lat="45.5735" lon="6.08079">
        <ele>1177.426</ele>
        <time>2020-09-19T14:07:22Z</time>
      </trkpt>
      <trkpt lat="45.57347" lon="6.08072">
        <ele>1177.812</ele>
        <time>2020-09-19T14:07:24Z</time>
      </trkpt>
      <trkpt lat="45.57347" lon="6.08071">
        <ele>1177.744</ele>
        <time>2020-09-19T14:07:25Z</time>
      </trkpt>
      <trkpt lat="45.57348" lon="6.08072">
        <ele>1177.584</ele>
        <time>2020-09-19T14:07:26Z</time>
      </trkpt>
      <trkpt lat="45.57348" lon="6.08071">
        <ele>1177.194</ele>
        <time>2020-09-19T14:07:27Z</time>
      </trkpt>
      <trkpt lat="45.5735" lon="6.08074">
        <ele>1177</ele>
        <time>2020-09-19T14:07:28Z</time>
      </trkpt>
      <trkpt lat="45.57351" lon="6.08078">
        <ele>1176.994</ele>
        <time>2020-09-19T14:07:30Z</time>
      </trkpt>
      <trkpt lat="45.57348" lon="6.08083">
        <ele>1176.431</ele>
        <time>2020-09-19T14:07:32Z</time>
      </trkpt>
      <trkpt lat="45.57345" lon="6.08084">
        <ele>1176.117</ele>
        <time>2020-09-19T14:07:33Z</time>
      </trkpt>
      <trkpt lat="45.57343" lon="6.08081">
        <ele>1175.483</ele>
        <time>2020-09-19T14:07:35Z</time>
      </trkpt>
      <trkpt lat="45.5734" lon="6.08076">
        <ele>1175.67</ele>
        <time>2020-09-19T14:07:37Z</time>
      </trkpt>
      <trkpt lat="45.57339" lon="6.08073">
        <ele>1176.369</ele>
        <time>2020-09-19T14:07:39Z</time>
      </trkpt>
      <trkpt lat="45.57339" lon="6.08074">
        <ele>1176.217</ele>
        <time>2020-09-19T14:07:40Z</time>
      </trkpt>
      <trkpt lat="45.57338" lon="6.08076">
        <ele>1176.121</ele>
        <time>2020-09-19T14:07:41Z</time>
      </trkpt>
      <trkpt lat="45.57335" lon="6.08081">
        <ele>1175.573</ele>
        <time>2020-09-19T14:07:43Z</time>
      </trkpt>
      <trkpt lat="45.5733" lon="6.08085">
        <ele>1174.311</ele>
        <time>2020-09-19T14:07:46Z</time>
      </trkpt>
      <trkpt lat="45.57326" lon="6.08086">
        <ele>1174.266</ele>
        <time>2020-09-19T14:07:49Z</time>
      </trkpt>
      <trkpt lat="45.57323" lon="6.08086">
        <ele>1174.795</ele>
        <time>2020-09-19T14:07:52Z</time>
      </trkpt>
      <trkpt lat="45.57316" lon="6.08087">
        <ele>1174.53</ele>
        <time>2020-09-19T14:07:56Z</time>
      </trkpt>
      <trkpt lat="45.57309" lon="6.08085">
        <ele>1174.269</ele>
        <time>2020-09-19T14:07:59Z</time>
      </trkpt>
      <trkpt lat="45.57309" lon="6.08084">
        <ele>1174.518</ele>
        <time>2020-09-19T14:08:00Z</time>
      </trkpt>
      <trkpt lat="45.57309" lon="6.08082">
        <ele>1174.112</ele>
        <time>2020-09-19T14:08:03Z</time>
      </trkpt>
      <trkpt lat="45.57309" lon="6.08082">
        <ele>1174.112</ele>
        <time>2020-09-19T14:08:03Z</time>
      </trkpt>
      <trkpt lat="45.5731" lon="6.0808">
        <ele>1174.211</ele>
        <time>2020-09-19T14:08:04Z</time>
      </trkpt>
      <trkpt lat="45.57312" lon="6.08079">
        <ele>1174.366</ele>
        <time>2020-09-19T14:08:05Z</time>
      </trkpt>
      <trkpt lat="45.57311" lon="6.08075">
        <ele>1174.582</ele>
        <time>2020-09-19T14:08:08Z</time>
      </trkpt>
      <trkpt lat="45.5731" lon="6.08073">
        <ele>1173.939</ele>
        <time>2020-09-19T14:08:12Z</time>
      </trkpt>
      <trkpt lat="45.57309" lon="6.08072">
        <ele>1174.205</ele>
        <time>2020-09-19T14:08:15Z</time>
      </trkpt>
      <trkpt lat="45.57309" lon="6.08073">
        <ele>1173.163</ele>
        <time>2020-09-19T14:08:20Z</time>
      </trkpt>
      <trkpt lat="45.57309" lon="6.08073">
        <ele>1173.163</ele>
        <time>2020-09-19T14:08:20Z</time>
      </trkpt>
      <trkpt lat="45.57309" lon="6.08073">
        <ele>1173.382</ele>
        <time>2020-09-19T14:08:21Z</time>
      </trkpt>
      <trkpt lat="45.57307" lon="6.08072">
        <ele>1173.16</ele>
        <time>2020-09-19T14:08:23Z</time>
      </trkpt>
      <trkpt lat="45.57294" lon="6.08067">
        <ele>1172.024</ele>
        <time>2020-09-19T14:08:32Z</time>
      </trkpt>
      <trkpt lat="45.5729" lon="6.08065">
        <ele>1171.509</ele>
        <time>2020-09-19T14:08:35Z</time>
      </trkpt>
      <trkpt lat="45.57287" lon="6.08063">
        <ele>1170.742</ele>
        <time>2020-09-19T14:08:39Z</time>
      </trkpt>
      <trkpt lat="45.57284" lon="6.0806">
        <ele>1169.515</ele>
        <time>2020-09-19T14:08:42Z</time>
      </trkpt>
      <trkpt lat="45.57283" lon="6.08058">
        <ele>1169.291</ele>
        <time>2020-09-19T14:08:43Z</time>
      </trkpt>
      <trkpt lat="45.57282" lon="6.08057">
        <ele>1168.549</ele>
        <time>2020-09-19T14:08:44Z</time>
      </trkpt>
      <trkpt lat="45.57281" lon="6.08051">
        <ele>1167.99</ele>
        <time>2020-09-19T14:08:47Z</time>
      </trkpt>
      <trkpt lat="45.57278" lon="6.08035">
        <ele>1168.176</ele>
        <time>2020-09-19T14:08:55Z</time>
      </trkpt>
      <trkpt lat="45.57281" lon="6.08032">
        <ele>1167.993</ele>
        <time>2020-09-19T14:08:56Z</time>
      </trkpt>
      <trkpt lat="45.57286" lon="6.08026">
        <ele>1168.45</ele>
        <time>2020-09-19T14:08:59Z</time>
      </trkpt>
      <trkpt lat="45.57283" lon="6.08021">
        <ele>1169.318</ele>
        <time>2020-09-19T14:09:03Z</time>
      </trkpt>
      <trkpt lat="45.57279" lon="6.0802">
        <ele>1168.634</ele>
        <time>2020-09-19T14:09:04Z</time>
      </trkpt>
      <trkpt lat="45.57276" lon="6.08017">
        <ele>1167.237</ele>
        <time>2020-09-19T14:09:07Z</time>
      </trkpt>
      <trkpt lat="45.57277" lon="6.08015">
        <ele>1166.832</ele>
        <time>2020-09-19T14:09:09Z</time>
      </trkpt>
      <trkpt lat="45.57277" lon="6.08012">
        <ele>1166.385</ele>
        <time>2020-09-19T14:09:15Z</time>
      </trkpt>
      <trkpt lat="45.57276" lon="6.08009">
        <ele>1166.266</ele>
        <time>2020-09-19T14:09:19Z</time>
      </trkpt>
      <trkpt lat="45.57276" lon="6.08007">
        <ele>1166.456</ele>
        <time>2020-09-19T14:09:21Z</time>
      </trkpt>
      <trkpt lat="45.57276" lon="6.08003">
        <ele>1166.389</ele>
        <time>2020-09-19T14:09:23Z</time>
      </trkpt>
      <trkpt lat="45.57273" lon="6.08">
        <ele>1166.275</ele>
        <time>2020-09-19T14:09:25Z</time>
      </trkpt>
      <trkpt lat="45.5727" lon="6.07994">
        <ele>1166.124</ele>
        <time>2020-09-19T14:09:28Z</time>
      </trkpt>
      <trkpt lat="45.57269" lon="6.07989">
        <ele>1166.31</ele>
        <time>2020-09-19T14:09:30Z</time>
      </trkpt>
      <trkpt lat="45.57268" lon="6.07985">
        <ele>1166.199</ele>
        <time>2020-09-19T14:09:33Z</time>
      </trkpt>
      <trkpt lat="45.57269" lon="6.07981">
        <ele>1166.06</ele>
        <time>2020-09-19T14:09:36Z</time>
      </trkpt>
      <trkpt lat="45.5727" lon="6.07979">
        <ele>1165.56</ele>
        <time>2020-09-19T14:09:39Z</time>
      </trkpt>
      <trkpt lat="45.5727" lon="6.07979">
        <ele>1165.728</ele>
        <time>2020-09-19T14:09:40Z</time>
      </trkpt>
      <trkpt lat="45.57267" lon="6.07976">
        <ele>1165.838</ele>
        <time>2020-09-19T14:09:43Z</time>
      </trkpt>
      <trkpt lat="45.57266" lon="6.07974">
        <ele>1165.636</ele>
        <time>2020-09-19T14:09:45Z</time>
      </trkpt>
      <trkpt lat="45.57265" lon="6.07973">
        <ele>1165.397</ele>
        <time>2020-09-19T14:09:46Z</time>
      </trkpt>
      <trkpt lat="45.57268" lon="6.0797">
        <ele>1164.996</ele>
        <time>2020-09-19T14:09:49Z</time>
      </trkpt>
      <trkpt lat="45.57269" lon="6.07968">
        <ele>1165.139</ele>
        <time>2020-09-19T14:09:50Z</time>
      </trkpt>
      <trkpt lat="45.5727" lon="6.07966">
        <ele>1165.254</ele>
        <time>2020-09-19T14:09:52Z</time>
      </trkpt>
      <trkpt lat="45.57272" lon="6.07964">
        <ele>1165.213</ele>
        <time>2020-09-19T14:09:53Z</time>
      </trkpt>
      <trkpt lat="45.57275" lon="6.07962">
        <ele>1165.266</ele>
        <time>2020-09-19T14:09:54Z</time>
      </trkpt>
      <trkpt lat="45.57279" lon="6.07951">
        <ele>1164.962</ele>
        <time>2020-09-19T14:09:59Z</time>
      </trkpt>
      <trkpt lat="45.57277" lon="6.07946">
        <ele>1165.382</ele>
        <time>2020-09-19T14:10:02Z</time>
      </trkpt>
      <trkpt lat="45.57276" lon="6.07941">
        <ele>1165.495</ele>
        <time>2020-09-19T14:10:05Z</time>
      </trkpt>
      <trkpt lat="45.57273" lon="6.07937">
        <ele>1164.945</ele>
        <time>2020-09-19T14:10:09Z</time>
      </trkpt>
      <trkpt lat="45.57274" lon="6.07933">
        <ele>1164.701</ele>
        <time>2020-09-19T14:10:12Z</time>
      </trkpt>
      <trkpt lat="45.57273" lon="6.07927">
        <ele>1164.605</ele>
        <time>2020-09-19T14:10:14Z</time>
      </trkpt>
      <trkpt lat="45.57272" lon="6.07926">
        <ele>1164.584</ele>
        <time>2020-09-19T14:10:15Z</time>
      </trkpt>
      <trkpt lat="45.57266" lon="6.07925">
        <ele>1164.474</ele>
        <time>2020-09-19T14:10:17Z</time>
      </trkpt>
      <trkpt lat="45.57263" lon="6.07925">
        <ele>1164.521</ele>
        <time>2020-09-19T14:10:18Z</time>
      </trkpt>
      <trkpt lat="45.57258" lon="6.07927">
        <ele>1164.498</ele>
        <time>2020-09-19T14:10:20Z</time>
      </trkpt>
      <trkpt lat="45.57256" lon="6.07932">
        <ele>1163.392</ele>
        <time>2020-09-19T14:10:22Z</time>
      </trkpt>
      <trkpt lat="45.57254" lon="6.07937">
        <ele>1162.955</ele>
        <time>2020-09-19T14:10:24Z</time>
      </trkpt>
      <trkpt lat="45.57252" lon="6.07943">
        <ele>1161.976</ele>
        <time>2020-09-19T14:10:26Z</time>
      </trkpt>
      <trkpt lat="45.57249" lon="6.07953">
        <ele>1161.115</ele>
        <time>2020-09-19T14:10:32Z</time>
      </trkpt>
      <trkpt lat="45.57249" lon="6.07955">
        <ele>1160.537</ele>
        <time>2020-09-19T14:10:34Z</time>
      </trkpt>
      <trkpt lat="45.57246" lon="6.07968">
        <ele>1159.833</ele>
        <time>2020-09-19T14:10:45Z</time>
      </trkpt>
      <trkpt lat="45.57242" lon="6.07972">
        <ele>1160.652</ele>
        <time>2020-09-19T14:10:49Z</time>
      </trkpt>
      <trkpt lat="45.57242" lon="6.07972">
        <ele>1160.556</ele>
        <time>2020-09-19T14:10:50Z</time>
      </trkpt>
      <trkpt lat="45.57242" lon="6.07973">
        <ele>1160.517</ele>
        <time>2020-09-19T14:10:52Z</time>
      </trkpt>
      <trkpt lat="45.57243" lon="6.07978">
        <ele>1159.276</ele>
        <time>2020-09-19T14:10:56Z</time>
      </trkpt>
      <trkpt lat="45.57243" lon="6.07978">
        <ele>1158.616</ele>
        <time>2020-09-19T14:10:57Z</time>
      </trkpt>
      <trkpt lat="45.5724" lon="6.07981">
        <ele>1157.746</ele>
        <time>2020-09-19T14:11:02Z</time>
      </trkpt>
      <trkpt lat="45.57241" lon="6.07982">
        <ele>1157.343</ele>
        <time>2020-09-19T14:11:04Z</time>
      </trkpt>
      <trkpt lat="45.57244" lon="6.07987">
        <ele>1156.603</ele>
        <time>2020-09-19T14:11:06Z</time>
      </trkpt>
      <trkpt lat="45.57245" lon="6.07993">
        <ele>1156.158</ele>
        <time>2020-09-19T14:11:08Z</time>
      </trkpt>
      <trkpt lat="45.57244" lon="6.07996">
        <ele>1154.6</ele>
        <time>2020-09-19T14:11:10Z</time>
      </trkpt>
      <trkpt lat="45.57241" lon="6.07996">
        <ele>1153.842</ele>
        <time>2020-09-19T14:11:12Z</time>
      </trkpt>
      <trkpt lat="45.57238" lon="6.07995">
        <ele>1153.501</ele>
        <time>2020-09-19T14:11:15Z</time>
      </trkpt>
      <trkpt lat="45.57229" lon="6.08002">
        <ele>1152.523</ele>
        <time>2020-09-19T14:11:30Z</time>
      </trkpt>
      <trkpt lat="45.57225" lon="6.08003">
        <ele>1153.411</ele>
        <time>2020-09-19T14:11:33Z</time>
      </trkpt>
      <trkpt lat="45.57224" lon="6.08005">
        <ele>1154.302</ele>
        <time>2020-09-19T14:11:35Z</time>
      </trkpt>
      <trkpt lat="45.57224" lon="6.08007">
        <ele>1151.34</ele>
        <time>2020-09-19T14:11:39Z</time>
      </trkpt>
      <trkpt lat="45.57223" lon="6.08008">
        <ele>1151.406</ele>
        <time>2020-09-19T14:11:40Z</time>
      </trkpt>
      <trkpt lat="45.57222" lon="6.08014">
        <ele>1152.16</ele>
        <time>2020-09-19T14:11:47Z</time>
      </trkpt>
      <trkpt lat="45.57223" lon="6.08017">
        <ele>1152.139</ele>
        <time>2020-09-19T14:11:49Z</time>
      </trkpt>
      <trkpt lat="45.57224" lon="6.08018">
        <ele>1151.601</ele>
        <time>2020-09-19T14:11:50Z</time>
      </trkpt>
      <trkpt lat="45.57222" lon="6.08021">
        <ele>1152.076</ele>
        <time>2020-09-19T14:11:53Z</time>
      </trkpt>
      <trkpt lat="45.5722" lon="6.08025">
        <ele>1153.739</ele>
        <time>2020-09-19T14:11:56Z</time>
      </trkpt>
      <trkpt lat="45.57217" lon="6.08028">
        <ele>1155.733</ele>
        <time>2020-09-19T14:11:59Z</time>
      </trkpt>
      <trkpt lat="45.57216" lon="6.08032">
        <ele>1155.391</ele>
        <time>2020-09-19T14:12:03Z</time>
      </trkpt>
      <trkpt lat="45.57216" lon="6.08034">
        <ele>1155.709</ele>
        <time>2020-09-19T14:12:05Z</time>
      </trkpt>
      <trkpt lat="45.57212" lon="6.08041">
        <ele>1156.782</ele>
        <time>2020-09-19T14:12:11Z</time>
      </trkpt>
      <trkpt lat="45.57208" lon="6.08044">
        <ele>1158.67</ele>
        <time>2020-09-19T14:12:14Z</time>
      </trkpt>
      <trkpt lat="45.57194" lon="6.08055">
        <ele>1156.661</ele>
        <time>2020-09-19T14:12:25Z</time>
      </trkpt>
      <trkpt lat="45.57189" lon="6.08058">
        <ele>1157.348</ele>
        <time>2020-09-19T14:12:30Z</time>
      </trkpt>
      <trkpt lat="45.57184" lon="6.08057">
        <ele>1156.746</ele>
        <time>2020-09-19T14:12:33Z</time>
      </trkpt>
      <trkpt lat="45.57182" lon="6.08062">
        <ele>1157.041</ele>
        <time>2020-09-19T14:12:36Z</time>
      </trkpt>
      <trkpt lat="45.57176" lon="6.08076">
        <ele>1156.115</ele>
        <time>2020-09-19T14:12:41Z</time>
      </trkpt>
      <trkpt lat="45.57176" lon="6.08075">
        <ele>1156.433</ele>
        <time>2020-09-19T14:12:42Z</time>
      </trkpt>
      <trkpt lat="45.57174" lon="6.08072">
        <ele>1156.504</ele>
        <time>2020-09-19T14:12:44Z</time>
      </trkpt>
      <trkpt lat="45.57169" lon="6.08068">
        <ele>1156.814</ele>
        <time>2020-09-19T14:12:48Z</time>
      </trkpt>
      <trkpt lat="45.57147" lon="6.0807">
        <ele>1156.675</ele>
        <time>2020-09-19T14:13:12Z</time>
      </trkpt>
      <trkpt lat="45.57143" lon="6.08069">
        <ele>1156.85</ele>
        <time>2020-09-19T14:13:15Z</time>
      </trkpt>
      <trkpt lat="45.57139" lon="6.08068">
        <ele>1156.989</ele>
        <time>2020-09-19T14:13:19Z</time>
      </trkpt>
      <trkpt lat="45.57135" lon="6.08073">
        <ele>1156.525</ele>
        <time>2020-09-19T14:13:25Z</time>
      </trkpt>
      <trkpt lat="45.57132" lon="6.08077">
        <ele>1156.077</ele>
        <time>2020-09-19T14:13:29Z</time>
      </trkpt>
      <trkpt lat="45.57129" lon="6.08076">
        <ele>1155.79</ele>
        <time>2020-09-19T14:13:31Z</time>
      </trkpt>
      <trkpt lat="45.57127" lon="6.08073">
        <ele>1155.842</ele>
        <time>2020-09-19T14:13:32Z</time>
      </trkpt>
      <trkpt lat="45.57124" lon="6.08073">
        <ele>1155.577</ele>
        <time>2020-09-19T14:13:35Z</time>
      </trkpt>
      <trkpt lat="45.57124" lon="6.08072">
        <ele>1155.665</ele>
        <time>2020-09-19T14:13:37Z</time>
      </trkpt>
      <trkpt lat="45.57125" lon="6.08071">
        <ele>1156.133</ele>
        <time>2020-09-19T14:13:39Z</time>
      </trkpt>
      <trkpt lat="45.57125" lon="6.0807">
        <ele>1156.686</ele>
        <time>2020-09-19T14:13:40Z</time>
      </trkpt>
      <trkpt lat="45.57128" lon="6.08071">
        <ele>1156.917</ele>
        <time>2020-09-19T14:13:42Z</time>
      </trkpt>
      <trkpt lat="45.57128" lon="6.08072">
        <ele>1157.07</ele>
        <time>2020-09-19T14:13:44Z</time>
      </trkpt>
      <trkpt lat="45.57128" lon="6.08072">
        <ele>1157.07</ele>
        <time>2020-09-19T14:13:44Z</time>
      </trkpt>
      <trkpt lat="45.5713" lon="6.08073">
        <ele>1156.728</ele>
        <time>2020-09-19T14:13:45Z</time>
      </trkpt>
      <trkpt lat="45.5713" lon="6.08073">
        <ele>1156.728</ele>
        <time>2020-09-19T14:13:45Z</time>
      </trkpt>
      <trkpt lat="45.57131" lon="6.08072">
        <ele>1157.016</ele>
        <time>2020-09-19T14:13:46Z</time>
      </trkpt>
      <trkpt lat="45.57134" lon="6.08069">
        <ele>1156.291</ele>
        <time>2020-09-19T14:13:48Z</time>
      </trkpt>
      <trkpt lat="45.57136" lon="6.08069">
        <ele>1156.082</ele>
        <time>2020-09-19T14:13:49Z</time>
      </trkpt>
      <trkpt lat="45.57136" lon="6.08069">
        <ele>1155.933</ele>
        <time>2020-09-19T14:13:50Z</time>
      </trkpt>
      <trkpt lat="45.57136" lon="6.08069">
        <ele>1155.79</ele>
        <time>2020-09-19T14:13:51Z</time>
      </trkpt>
      <trkpt lat="45.57136" lon="6.08069">
        <ele>1155.133</ele>
        <time>2020-09-19T14:13:53Z</time>
      </trkpt>
      <trkpt lat="45.57138" lon="6.08069">
        <ele>1154.774</ele>
        <time>2020-09-19T14:13:54Z</time>
      </trkpt>
      <trkpt lat="45.57138" lon="6.08067">
        <ele>1154.706</ele>
        <time>2020-09-19T14:13:55Z</time>
      </trkpt>
      <trkpt lat="45.57138" lon="6.08067">
        <ele>1154.314</ele>
        <time>2020-09-19T14:13:56Z</time>
      </trkpt>
      <trkpt lat="45.57138" lon="6.08067">
        <ele>1154.03</ele>
        <time>2020-09-19T14:14:12Z</time>
      </trkpt>
      <trkpt lat="45.57141" lon="6.08066">
        <ele>1154.51</ele>
        <time>2020-09-19T14:14:13Z</time>
      </trkpt>
      <trkpt lat="45.57141" lon="6.08066">
        <ele>1153.757</ele>
        <time>2020-09-19T14:14:14Z</time>
      </trkpt>
      <trkpt lat="45.57141" lon="6.08066">
        <ele>1153.685</ele>
        <time>2020-09-19T14:14:15Z</time>
      </trkpt>
      <trkpt lat="45.57141" lon="6.08066">
        <ele>1153.685</ele>
        <time>2020-09-19T14:14:15Z</time>
      </trkpt>
      <trkpt lat="45.57141" lon="6.08068">
        <ele>1153.594</ele>
        <time>2020-09-19T14:14:16Z</time>
      </trkpt>
      <trkpt lat="45.57141" lon="6.08068">
        <ele>1153.594</ele>
        <time>2020-09-19T14:14:16Z</time>
      </trkpt>
      <trkpt lat="45.57141" lon="6.08068">
        <ele>1153.87</ele>
        <time>2020-09-19T14:14:17Z</time>
      </trkpt>
      <trkpt lat="45.57141" lon="6.08068">
        <ele>1153.107</ele>
        <time>2020-09-19T14:14:23Z</time>
      </trkpt>
      <trkpt lat="45.57141" lon="6.0807">
        <ele>1152.232</ele>
        <time>2020-09-19T14:14:24Z</time>
      </trkpt>
      <trkpt lat="45.5714" lon="6.0807">
        <ele>1151.401</ele>
        <time>2020-09-19T14:14:27Z</time>
      </trkpt>
      <trkpt lat="45.5714" lon="6.0807">
        <ele>1151.401</ele>
        <time>2020-09-19T14:14:27Z</time>
      </trkpt>
      <trkpt lat="45.5714" lon="6.0807">
        <ele>1150.764</ele>
        <time>2020-09-19T14:14:28Z</time>
      </trkpt>
      <trkpt lat="45.5714" lon="6.0807">
        <ele>1150.764</ele>
        <time>2020-09-19T14:14:28Z</time>
      </trkpt>
      <trkpt lat="45.5714" lon="6.08072">
        <ele>1151.236</ele>
        <time>2020-09-19T14:14:29Z</time>
      </trkpt>
      <trkpt lat="45.5714" lon="6.08072">
        <ele>1150.602</ele>
        <time>2020-09-19T14:14:30Z</time>
      </trkpt>
      <trkpt lat="45.5714" lon="6.08072">
        <ele>1151.228</ele>
        <time>2020-09-19T14:14:31Z</time>
      </trkpt>
      <trkpt lat="45.57141" lon="6.08074">
        <ele>1151.592</ele>
        <time>2020-09-19T14:14:32Z</time>
      </trkpt>
      <trkpt lat="45.57141" lon="6.08074">
        <ele>1152.61</ele>
        <time>2020-09-19T14:14:33Z</time>
      </trkpt>
      <trkpt lat="45.57141" lon="6.08074">
        <ele>1152.61</ele>
        <time>2020-09-19T14:14:33Z</time>
      </trkpt>
      <trkpt lat="45.57142" lon="6.08078">
        <ele>1151.65</ele>
        <time>2020-09-19T14:14:34Z</time>
      </trkpt>
      <trkpt lat="45.57139" lon="6.08087">
        <ele>1150.89</ele>
        <time>2020-09-19T14:14:38Z</time>
      </trkpt>
      <trkpt lat="45.5714" lon="6.08088">
        <ele>1151.17</ele>
        <time>2020-09-19T14:14:40Z</time>
      </trkpt>
      <trkpt lat="45.5714" lon="6.08088">
        <ele>1151.17</ele>
        <time>2020-09-19T14:14:40Z</time>
      </trkpt>
      <trkpt lat="45.57141" lon="6.08088">
        <ele>1151.582</ele>
        <time>2020-09-19T14:14:41Z</time>
      </trkpt>
      <trkpt lat="45.57143" lon="6.08089">
        <ele>1151.656</ele>
        <time>2020-09-19T14:14:43Z</time>
      </trkpt>
      <trkpt lat="45.57143" lon="6.08089">
        <ele>1151.766</ele>
        <time>2020-09-19T14:14:44Z</time>
      </trkpt>
      <trkpt lat="45.57143" lon="6.0809">
        <ele>1151.808</ele>
        <time>2020-09-19T14:14:46Z</time>
      </trkpt>
      <trkpt lat="45.57143" lon="6.0809">
        <ele>1151.3</ele>
        <time>2020-09-19T14:15:07Z</time>
      </trkpt>
      <trkpt lat="45.57142" lon="6.08087">
        <ele>1151.165</ele>
        <time>2020-09-19T14:15:08Z</time>
      </trkpt>
      <trkpt lat="45.57142" lon="6.08087">
        <ele>1151.165</ele>
        <time>2020-09-19T14:15:08Z</time>
      </trkpt>
      <trkpt lat="45.57142" lon="6.08087">
        <ele>1151.063</ele>
        <time>2020-09-19T14:15:09Z</time>
      </trkpt>
      <trkpt lat="45.57142" lon="6.08087">
        <ele>1151.063</ele>
        <time>2020-09-19T14:15:09Z</time>
      </trkpt>
      <trkpt lat="45.57141" lon="6.08087">
        <ele>1151.582</ele>
        <time>2020-09-19T14:15:10Z</time>
      </trkpt>
      <trkpt lat="45.57141" lon="6.08087">
        <ele>1151.582</ele>
        <time>2020-09-19T14:15:10Z</time>
      </trkpt>
      <trkpt lat="45.5714" lon="6.08086">
        <ele>1150.557</ele>
        <time>2020-09-19T14:15:11Z</time>
      </trkpt>
      <trkpt lat="45.57138" lon="6.08084">
        <ele>1149.835</ele>
        <time>2020-09-19T14:15:12Z</time>
      </trkpt>
      <trkpt lat="45.57138" lon="6.08084">
        <ele>1148.883</ele>
        <time>2020-09-19T14:15:13Z</time>
      </trkpt>
      <trkpt lat="45.57138" lon="6.08084">
        <ele>1149.532</ele>
        <time>2020-09-19T14:15:54Z</time>
      </trkpt>
      <trkpt lat="45.57139" lon="6.08083">
        <ele>1147.827</ele>
        <time>2020-09-19T14:15:55Z</time>
      </trkpt>
      <trkpt lat="45.5714" lon="6.08082">
        <ele>1148.266</ele>
        <time>2020-09-19T14:15:57Z</time>
      </trkpt>
      <trkpt lat="45.5714" lon="6.08082">
        <ele>1149.682</ele>
        <time>2020-09-19T14:16:07Z</time>
      </trkpt>
      <trkpt lat="45.57142" lon="6.08077">
        <ele>1150.313</ele>
        <time>2020-09-19T14:16:08Z</time>
      </trkpt>
      <trkpt lat="45.57139" lon="6.08075">
        <ele>1151.997</ele>
        <time>2020-09-19T14:16:11Z</time>
      </trkpt>
      <trkpt lat="45.57139" lon="6.08075">
        <ele>1151.857</ele>
        <time>2020-09-19T14:16:12Z</time>
      </trkpt>
      <trkpt lat="45.57139" lon="6.08075">
        <ele>1151.112</ele>
        <time>2020-09-19T14:16:16Z</time>
      </trkpt>
      <trkpt lat="45.57138" lon="6.08075">
        <ele>1151.037</ele>
        <time>2020-09-19T14:16:17Z</time>
      </trkpt>
      <trkpt lat="45.57139" lon="6.08075">
        <ele>1150.481</ele>
        <time>2020-09-19T14:16:18Z</time>
      </trkpt>
      <trkpt lat="45.57139" lon="6.08075">
        <ele>1149.959</ele>
        <time>2020-09-19T14:16:19Z</time>
      </trkpt>
      <trkpt lat="45.57139" lon="6.08075">
        <ele>1149.051</ele>
        <time>2020-09-19T14:16:20Z</time>
      </trkpt>
      <trkpt lat="45.57142" lon="6.08082">
        <ele>1148.302</ele>
        <time>2020-09-19T14:16:21Z</time>
      </trkpt>
      <trkpt lat="45.57142" lon="6.08082">
        <ele>1148.302</ele>
        <time>2020-09-19T14:16:21Z</time>
      </trkpt>
      <trkpt lat="45.57142" lon="6.08082">
        <ele>1148.251</ele>
        <time>2020-09-19T14:16:22Z</time>
      </trkpt>
      <trkpt lat="45.57142" lon="6.08082">
        <ele>1148.434</ele>
        <time>2020-09-19T14:16:27Z</time>
      </trkpt>
      <trkpt lat="45.57144" lon="6.08087">
        <ele>1148.616</ele>
        <time>2020-09-19T14:16:28Z</time>
      </trkpt>
      <trkpt lat="45.57144" lon="6.08087">
        <ele>1148.616</ele>
        <time>2020-09-19T14:16:28Z</time>
      </trkpt>
      <trkpt lat="45.57143" lon="6.08086">
        <ele>1148.241</ele>
        <time>2020-09-19T14:16:29Z</time>
      </trkpt>
      <trkpt lat="45.5714" lon="6.08081">
        <ele>1148.676</ele>
        <time>2020-09-19T14:16:33Z</time>
      </trkpt>
      <trkpt lat="45.5714" lon="6.08081">
        <ele>1148.676</ele>
        <time>2020-09-19T14:16:33Z</time>
      </trkpt>
      <trkpt lat="45.5714" lon="6.08082">
        <ele>1148.544</ele>
        <time>2020-09-19T14:16:34Z</time>
      </trkpt>
      <trkpt lat="45.5714" lon="6.08082">
        <ele>1148.183</ele>
        <time>2020-09-19T14:16:35Z</time>
      </trkpt>
      <trkpt lat="45.5714" lon="6.08082">
        <ele>1148.183</ele>
        <time>2020-09-19T14:16:35Z</time>
      </trkpt>
      <trkpt lat="45.5714" lon="6.08083">
        <ele>1147.905</ele>
        <time>2020-09-19T14:16:36Z</time>
      </trkpt>
      <trkpt lat="45.5714" lon="6.08083">
        <ele>1148.216</ele>
        <time>2020-09-19T14:16:37Z</time>
      </trkpt>
      <trkpt lat="45.5714" lon="6.08083">
        <ele>1148.479</ele>
        <time>2020-09-19T14:16:39Z</time>
      </trkpt>
      <trkpt lat="45.5714" lon="6.08085">
        <ele>1149.131</ele>
        <time>2020-09-19T14:16:40Z</time>
      </trkpt>
      <trkpt lat="45.57139" lon="6.08084">
        <ele>1149.164</ele>
        <time>2020-09-19T14:16:42Z</time>
      </trkpt>
      <trkpt lat="45.57139" lon="6.08083">
        <ele>1148.753</ele>
        <time>2020-09-19T14:16:43Z</time>
      </trkpt>
      <trkpt lat="45.57139" lon="6.08078">
        <ele>1147.489</ele>
        <time>2020-09-19T14:16:47Z</time>
      </trkpt>
      <trkpt lat="45.57137" lon="6.08078">
        <ele>1147.224</ele>
        <time>2020-09-19T14:16:48Z</time>
      </trkpt>
      <trkpt lat="45.57135" lon="6.08075">
        <ele>1147.827</ele>
        <time>2020-09-19T14:16:50Z</time>
      </trkpt>
      <trkpt lat="45.57127" lon="6.08069">
        <ele>1147.639</ele>
        <time>2020-09-19T14:16:57Z</time>
      </trkpt>
      <trkpt lat="45.57124" lon="6.08066">
        <ele>1148.898</ele>
        <time>2020-09-19T14:17:02Z</time>
      </trkpt>
      <trkpt lat="45.57121" lon="6.08065">
        <ele>1146.63</ele>
        <time>2020-09-19T14:17:05Z</time>
      </trkpt>
      <trkpt lat="45.57119" lon="6.08067">
        <ele>1147.324</ele>
        <time>2020-09-19T14:17:08Z</time>
      </trkpt>
      <trkpt lat="45.57116" lon="6.0807">
        <ele>1147.324</ele>
        <time>2020-09-19T14:17:12Z</time>
      </trkpt>
      <trkpt lat="45.57112" lon="6.08072">
        <ele>1146.148</ele>
        <time>2020-09-19T14:17:16Z</time>
      </trkpt>
      <trkpt lat="45.57105" lon="6.08076">
        <ele>1146.528</ele>
        <time>2020-09-19T14:17:22Z</time>
      </trkpt>
      <trkpt lat="45.57101" lon="6.08074">
        <ele>1145.673</ele>
        <time>2020-09-19T14:17:25Z</time>
      </trkpt>
      <trkpt lat="45.57096" lon="6.08073">
        <ele>1147.939</ele>
        <time>2020-09-19T14:17:27Z</time>
      </trkpt>
      <trkpt lat="45.5709" lon="6.08071">
        <ele>1148.689</ele>
        <time>2020-09-19T14:17:33Z</time>
      </trkpt>
      <trkpt lat="45.57088" lon="6.08069">
        <ele>1146.927</ele>
        <time>2020-09-19T14:17:36Z</time>
      </trkpt>
      <trkpt lat="45.57089" lon="6.08069">
        <ele>1148.012</ele>
        <time>2020-09-19T14:17:37Z</time>
      </trkpt>
      <trkpt lat="45.57089" lon="6.08069">
        <ele>1148.012</ele>
        <time>2020-09-19T14:17:37Z</time>
      </trkpt>
      <trkpt lat="45.57088" lon="6.08068">
        <ele>1147.445</ele>
        <time>2020-09-19T14:17:38Z</time>
      </trkpt>
      <trkpt lat="45.57087" lon="6.08067">
        <ele>1147.773</ele>
        <time>2020-09-19T14:17:39Z</time>
      </trkpt>
      <trkpt lat="45.57087" lon="6.08067">
        <ele>1147.619</ele>
        <time>2020-09-19T14:17:40Z</time>
      </trkpt>
      <trkpt lat="45.57084" lon="6.08072">
        <ele>1147.044</ele>
        <time>2020-09-19T14:17:44Z</time>
      </trkpt>
      <trkpt lat="45.57078" lon="6.08081">
        <ele>1146.758</ele>
        <time>2020-09-19T14:17:50Z</time>
      </trkpt>
      <trkpt lat="45.57069" lon="6.08086">
        <ele>1146.865</ele>
        <time>2020-09-19T14:17:56Z</time>
      </trkpt>
      <trkpt lat="45.57065" lon="6.08095">
        <ele>1145.223</ele>
        <time>2020-09-19T14:18:10Z</time>
      </trkpt>
      <trkpt lat="45.57063" lon="6.08099">
        <ele>1144.402</ele>
        <time>2020-09-19T14:18:14Z</time>
      </trkpt>
      <trkpt lat="45.57058" lon="6.08102">
        <ele>1144.934</ele>
        <time>2020-09-19T14:18:18Z</time>
      </trkpt>
      <trkpt lat="45.57051" lon="6.08115">
        <ele>1144.105</ele>
        <time>2020-09-19T14:18:26Z</time>
      </trkpt>
      <trkpt lat="45.57051" lon="6.08117">
        <ele>1144.089</ele>
        <time>2020-09-19T14:18:28Z</time>
      </trkpt>
      <trkpt lat="45.57048" lon="6.08119">
        <ele>1143.593</ele>
        <time>2020-09-19T14:18:31Z</time>
      </trkpt>
      <trkpt lat="45.57046" lon="6.0812">
        <ele>1143.634</ele>
        <time>2020-09-19T14:18:33Z</time>
      </trkpt>
      <trkpt lat="45.57038" lon="6.08124">
        <ele>1143.322</ele>
        <time>2020-09-19T14:18:43Z</time>
      </trkpt>
      <trkpt lat="45.57035" lon="6.08126">
        <ele>1142.983</ele>
        <time>2020-09-19T14:18:48Z</time>
      </trkpt>
      <trkpt lat="45.57033" lon="6.0813">
        <ele>1143.275</ele>
        <time>2020-09-19T14:18:53Z</time>
      </trkpt>
      <trkpt lat="45.57031" lon="6.0813">
        <ele>1142.864</ele>
        <time>2020-09-19T14:18:56Z</time>
      </trkpt>
      <trkpt lat="45.57028" lon="6.08131">
        <ele>1142.516</ele>
        <time>2020-09-19T14:18:58Z</time>
      </trkpt>
      <trkpt lat="45.57023" lon="6.08135">
        <ele>1141.676</ele>
        <time>2020-09-19T14:19:01Z</time>
      </trkpt>
      <trkpt lat="45.57014" lon="6.08141">
        <ele>1141.033</ele>
        <time>2020-09-19T14:19:09Z</time>
      </trkpt>
      <trkpt lat="45.57004" lon="6.0815">
        <ele>1141.106</ele>
        <time>2020-09-19T14:19:22Z</time>
      </trkpt>
      <trkpt lat="45.57" lon="6.08156">
        <ele>1140.295</ele>
        <time>2020-09-19T14:19:27Z</time>
      </trkpt>
      <trkpt lat="45.56992" lon="6.08158">
        <ele>1140.819</ele>
        <time>2020-09-19T14:19:35Z</time>
      </trkpt>
      <trkpt lat="45.56989" lon="6.0816">
        <ele>1140.501</ele>
        <time>2020-09-19T14:19:38Z</time>
      </trkpt>
      <trkpt lat="45.56985" lon="6.0816">
        <ele>1140.339</ele>
        <time>2020-09-19T14:19:41Z</time>
      </trkpt>
      <trkpt lat="45.56981" lon="6.08158">
        <ele>1141.002</ele>
        <time>2020-09-19T14:19:47Z</time>
      </trkpt>
      <trkpt lat="45.5698" lon="6.08159">
        <ele>1140.622</ele>
        <time>2020-09-19T14:19:48Z</time>
      </trkpt>
      <trkpt lat="45.5698" lon="6.08159">
        <ele>1140.158</ele>
        <time>2020-09-19T14:19:49Z</time>
      </trkpt>
      <trkpt lat="45.5698" lon="6.08159">
        <ele>1140.528</ele>
        <time>2020-09-19T14:19:50Z</time>
      </trkpt>
      <trkpt lat="45.56979" lon="6.08158">
        <ele>1140.823</ele>
        <time>2020-09-19T14:19:51Z</time>
      </trkpt>
      <trkpt lat="45.56978" lon="6.08158">
        <ele>1140.978</ele>
        <time>2020-09-19T14:19:52Z</time>
      </trkpt>
      <trkpt lat="45.56975" lon="6.08156">
        <ele>1140.976</ele>
        <time>2020-09-19T14:19:55Z</time>
      </trkpt>
      <trkpt lat="45.56972" lon="6.08151">
        <ele>1141.675</ele>
        <time>2020-09-19T14:19:58Z</time>
      </trkpt>
      <trkpt lat="45.56969" lon="6.08149">
        <ele>1142.602</ele>
        <time>2020-09-19T14:20:00Z</time>
      </trkpt>
      <trkpt lat="45.5696" lon="6.08145">
        <ele>1142.388</ele>
        <time>2020-09-19T14:20:06Z</time>
      </trkpt>
      <trkpt lat="45.56954" lon="6.08145">
        <ele>1140.719</ele>
        <time>2020-09-19T14:20:12Z</time>
      </trkpt>
      <trkpt lat="45.56952" lon="6.08143">
        <ele>1140.407</ele>
        <time>2020-09-19T14:20:17Z</time>
      </trkpt>
      <trkpt lat="45.5695" lon="6.08141">
        <ele>1140.388</ele>
        <time>2020-09-19T14:20:18Z</time>
      </trkpt>
      <trkpt lat="45.56947" lon="6.08143">
        <ele>1140.764</ele>
        <time>2020-09-19T14:20:21Z</time>
      </trkpt>
      <trkpt lat="45.56951" lon="6.08152">
        <ele>1140.539</ele>
        <time>2020-09-19T14:20:23Z</time>
      </trkpt>
      <trkpt lat="45.56949" lon="6.08156">
        <ele>1139.58</ele>
        <time>2020-09-19T14:20:25Z</time>
      </trkpt>
      <trkpt lat="45.56945" lon="6.08159">
        <ele>1139.117</ele>
        <time>2020-09-19T14:20:27Z</time>
      </trkpt>
      <trkpt lat="45.56942" lon="6.08159">
        <ele>1139.052</ele>
        <time>2020-09-19T14:20:28Z</time>
      </trkpt>
      <trkpt lat="45.56939" lon="6.08158">
        <ele>1139.117</ele>
        <time>2020-09-19T14:20:29Z</time>
      </trkpt>
      <trkpt lat="45.56935" lon="6.08154">
        <ele>1138.951</ele>
        <time>2020-09-19T14:20:30Z</time>
      </trkpt>
      <trkpt lat="45.56931" lon="6.08147">
        <ele>1139.182</ele>
        <time>2020-09-19T14:20:32Z</time>
      </trkpt>
      <trkpt lat="45.56932" lon="6.08142">
        <ele>1138.879</ele>
        <time>2020-09-19T14:20:35Z</time>
      </trkpt>
      <trkpt lat="45.56935" lon="6.0814">
        <ele>1138.95</ele>
        <time>2020-09-19T14:20:38Z</time>
      </trkpt>
      <trkpt lat="45.56932" lon="6.08141">
        <ele>1138.545</ele>
        <time>2020-09-19T14:20:41Z</time>
      </trkpt>
      <trkpt lat="45.5693" lon="6.08141">
        <ele>1138.233</ele>
        <time>2020-09-19T14:20:42Z</time>
      </trkpt>
      <trkpt lat="45.56926" lon="6.08145">
        <ele>1138.125</ele>
        <time>2020-09-19T14:20:46Z</time>
      </trkpt>
      <trkpt lat="45.56926" lon="6.0815">
        <ele>1137.824</ele>
        <time>2020-09-19T14:20:50Z</time>
      </trkpt>
      <trkpt lat="45.56926" lon="6.08158">
        <ele>1137.244</ele>
        <time>2020-09-19T14:20:56Z</time>
      </trkpt>
      <trkpt lat="45.56925" lon="6.08168">
        <ele>1138.075</ele>
        <time>2020-09-19T14:21:05Z</time>
      </trkpt>
      <trkpt lat="45.56926" lon="6.08172">
        <ele>1137.044</ele>
        <time>2020-09-19T14:21:10Z</time>
      </trkpt>
      <trkpt lat="45.56927" lon="6.08176">
        <ele>1135.64</ele>
        <time>2020-09-19T14:21:14Z</time>
      </trkpt>
      <trkpt lat="45.56929" lon="6.08187">
        <ele>1135.1</ele>
        <time>2020-09-19T14:21:23Z</time>
      </trkpt>
      <trkpt lat="45.5693" lon="6.08196">
        <ele>1135.113</ele>
        <time>2020-09-19T14:21:28Z</time>
      </trkpt>
      <trkpt lat="45.56933" lon="6.08201">
        <ele>1136.078</ele>
        <time>2020-09-19T14:21:32Z</time>
      </trkpt>
      <trkpt lat="45.56933" lon="6.08202">
        <ele>1136.271</ele>
        <time>2020-09-19T14:21:33Z</time>
      </trkpt>
      <trkpt lat="45.56933" lon="6.08206">
        <ele>1137.208</ele>
        <time>2020-09-19T14:21:36Z</time>
      </trkpt>
      <trkpt lat="45.56931" lon="6.08214">
        <ele>1138.306</ele>
        <time>2020-09-19T14:21:43Z</time>
      </trkpt>
      <trkpt lat="45.56931" lon="6.08219">
        <ele>1137.152</ele>
        <time>2020-09-19T14:21:48Z</time>
      </trkpt>
      <trkpt lat="45.56932" lon="6.08225">
        <ele>1134.657</ele>
        <time>2020-09-19T14:21:53Z</time>
      </trkpt>
      <trkpt lat="45.56929" lon="6.08227">
        <ele>1134.779</ele>
        <time>2020-09-19T14:21:57Z</time>
      </trkpt>
      <trkpt lat="45.56927" lon="6.0823">
        <ele>1135.174</ele>
        <time>2020-09-19T14:22:02Z</time>
      </trkpt>
      <trkpt lat="45.56925" lon="6.08231">
        <ele>1136.645</ele>
        <time>2020-09-19T14:22:06Z</time>
      </trkpt>
      <trkpt lat="45.56922" lon="6.08232">
        <ele>1136.712</ele>
        <time>2020-09-19T14:22:08Z</time>
      </trkpt>
      <trkpt lat="45.56917" lon="6.08238">
        <ele>1138.244</ele>
        <time>2020-09-19T14:22:14Z</time>
      </trkpt>
      <trkpt lat="45.56913" lon="6.08238">
        <ele>1138.531</ele>
        <time>2020-09-19T14:22:19Z</time>
      </trkpt>
      <trkpt lat="45.56911" lon="6.08238">
        <ele>1139.617</ele>
        <time>2020-09-19T14:22:21Z</time>
      </trkpt>
      <trkpt lat="45.5691" lon="6.08238">
        <ele>1139.598</ele>
        <time>2020-09-19T14:22:22Z</time>
      </trkpt>
      <trkpt lat="45.56907" lon="6.08238">
        <ele>1140.813</ele>
        <time>2020-09-19T14:22:25Z</time>
      </trkpt>
      <trkpt lat="45.56905" lon="6.08237">
        <ele>1141.032</ele>
        <time>2020-09-19T14:22:26Z</time>
      </trkpt>
      <trkpt lat="45.569" lon="6.08237">
        <ele>1142.585</ele>
        <time>2020-09-19T14:22:31Z</time>
      </trkpt>
      <trkpt lat="45.569" lon="6.08237">
        <ele>1142.727</ele>
        <time>2020-09-19T14:22:32Z</time>
      </trkpt>
      <trkpt lat="45.569" lon="6.08237">
        <ele>1142.727</ele>
        <time>2020-09-19T14:22:32Z</time>
      </trkpt>
      <trkpt lat="45.569" lon="6.08236">
        <ele>1142.591</ele>
        <time>2020-09-19T14:22:33Z</time>
      </trkpt>
      <trkpt lat="45.569" lon="6.08238">
        <ele>1143.168</ele>
        <time>2020-09-19T14:22:35Z</time>
      </trkpt>
      <trkpt lat="45.569" lon="6.08238">
        <ele>1142.359</ele>
        <time>2020-09-19T14:22:36Z</time>
      </trkpt>
      <trkpt lat="45.569" lon="6.08238">
        <ele>1142.359</ele>
        <time>2020-09-19T14:22:36Z</time>
      </trkpt>
      <trkpt lat="45.56899" lon="6.08237">
        <ele>1142.851</ele>
        <time>2020-09-19T14:22:37Z</time>
      </trkpt>
      <trkpt lat="45.56897" lon="6.08237">
        <ele>1144.165</ele>
        <time>2020-09-19T14:22:40Z</time>
      </trkpt>
      <trkpt lat="45.56897" lon="6.08237">
        <ele>1144.165</ele>
        <time>2020-09-19T14:22:40Z</time>
      </trkpt>
      <trkpt lat="45.56898" lon="6.08237">
        <ele>1144.103</ele>
        <time>2020-09-19T14:22:41Z</time>
      </trkpt>
      <trkpt lat="45.56898" lon="6.08237">
        <ele>1144.103</ele>
        <time>2020-09-19T14:22:41Z</time>
      </trkpt>
      <trkpt lat="45.56898" lon="6.08237">
        <ele>1144.127</ele>
        <time>2020-09-19T14:22:42Z</time>
      </trkpt>
      <trkpt lat="45.56897" lon="6.08238">
        <ele>1144.397</ele>
        <time>2020-09-19T14:22:45Z</time>
      </trkpt>
      <trkpt lat="45.56895" lon="6.08241">
        <ele>1144.753</ele>
        <time>2020-09-19T14:22:47Z</time>
      </trkpt>
      <trkpt lat="45.56892" lon="6.08247">
        <ele>1144.426</ele>
        <time>2020-09-19T14:22:50Z</time>
      </trkpt>
      <trkpt lat="45.56889" lon="6.08248">
        <ele>1142.205</ele>
        <time>2020-09-19T14:22:52Z</time>
      </trkpt>
      <trkpt lat="45.56887" lon="6.08247">
        <ele>1142.594</ele>
        <time>2020-09-19T14:22:54Z</time>
      </trkpt>
      <trkpt lat="45.56884" lon="6.08247">
        <ele>1141.432</ele>
        <time>2020-09-19T14:22:58Z</time>
      </trkpt>
      <trkpt lat="45.56882" lon="6.08251">
        <ele>1144.222</ele>
        <time>2020-09-19T14:23:05Z</time>
      </trkpt>
      <trkpt lat="45.56876" lon="6.08255">
        <ele>1145.468</ele>
        <time>2020-09-19T14:23:09Z</time>
      </trkpt>
      <trkpt lat="45.56873" lon="6.08258">
        <ele>1144.108</ele>
        <time>2020-09-19T14:23:12Z</time>
      </trkpt>
      <trkpt lat="45.56872" lon="6.08259">
        <ele>1143.477</ele>
        <time>2020-09-19T14:23:15Z</time>
      </trkpt>
      <trkpt lat="45.56871" lon="6.0826">
        <ele>1143.741</ele>
        <time>2020-09-19T14:23:17Z</time>
      </trkpt>
      <trkpt lat="45.5687" lon="6.0826">
        <ele>1144.106</ele>
        <time>2020-09-19T14:23:18Z</time>
      </trkpt>
      <trkpt lat="45.5687" lon="6.08261">
        <ele>1144.768</ele>
        <time>2020-09-19T14:23:19Z</time>
      </trkpt>
      <trkpt lat="45.56869" lon="6.08261">
        <ele>1144.371</ele>
        <time>2020-09-19T14:23:20Z</time>
      </trkpt>
      <trkpt lat="45.56869" lon="6.08262">
        <ele>1143.73</ele>
        <time>2020-09-19T14:23:22Z</time>
      </trkpt>
      <trkpt lat="45.56867" lon="6.08265">
        <ele>1144.354</ele>
        <time>2020-09-19T14:23:25Z</time>
      </trkpt>
      <trkpt lat="45.56859" lon="6.08273">
        <ele>1145.556</ele>
        <time>2020-09-19T14:23:34Z</time>
      </trkpt>
      <trkpt lat="45.56852" lon="6.08282">
        <ele>1148.407</ele>
        <time>2020-09-19T14:23:43Z</time>
      </trkpt>
      <trkpt lat="45.56845" lon="6.08283">
        <ele>1148.76</ele>
        <time>2020-09-19T14:23:49Z</time>
      </trkpt>
      <trkpt lat="45.56832" lon="6.08282">
        <ele>1149.107</ele>
        <time>2020-09-19T14:24:00Z</time>
      </trkpt>
      <trkpt lat="45.5683" lon="6.08282">
        <ele>1150.133</ele>
        <time>2020-09-19T14:24:02Z</time>
      </trkpt>
      <trkpt lat="45.56825" lon="6.08283">
        <ele>1150.615</ele>
        <time>2020-09-19T14:24:08Z</time>
      </trkpt>
      <trkpt lat="45.56822" lon="6.08281">
        <ele>1150.564</ele>
        <time>2020-09-19T14:24:11Z</time>
      </trkpt>
      <trkpt lat="45.56818" lon="6.0828">
        <ele>1152.267</ele>
        <time>2020-09-19T14:24:15Z</time>
      </trkpt>
      <trkpt lat="45.56814" lon="6.08279">
        <ele>1152.205</ele>
        <time>2020-09-19T14:24:19Z</time>
      </trkpt>
      <trkpt lat="45.5681" lon="6.08278">
        <ele>1153.884</ele>
        <time>2020-09-19T14:24:23Z</time>
      </trkpt>
      <trkpt lat="45.56801" lon="6.08282">
        <ele>1154.212</ele>
        <time>2020-09-19T14:24:35Z</time>
      </trkpt>
      <trkpt lat="45.56796" lon="6.08286">
        <ele>1153.465</ele>
        <time>2020-09-19T14:24:42Z</time>
      </trkpt>
      <trkpt lat="45.56779" lon="6.08286">
        <ele>1154.409</ele>
        <time>2020-09-19T14:24:58Z</time>
      </trkpt>
      <trkpt lat="45.56777" lon="6.08288">
        <ele>1153.603</ele>
        <time>2020-09-19T14:25:02Z</time>
      </trkpt>
      <trkpt lat="45.56774" lon="6.0829">
        <ele>1153.741</ele>
        <time>2020-09-19T14:25:09Z</time>
      </trkpt>
      <trkpt lat="45.56773" lon="6.08289">
        <ele>1153.418</ele>
        <time>2020-09-19T14:25:11Z</time>
      </trkpt>
      <trkpt lat="45.56771" lon="6.08285">
        <ele>1153.348</ele>
        <time>2020-09-19T14:25:16Z</time>
      </trkpt>
      <trkpt lat="45.56766" lon="6.08282">
        <ele>1153.377</ele>
        <time>2020-09-19T14:25:22Z</time>
      </trkpt>
      <trkpt lat="45.56763" lon="6.08282">
        <ele>1154.205</ele>
        <time>2020-09-19T14:25:25Z</time>
      </trkpt>
      <trkpt lat="45.56763" lon="6.08283">
        <ele>1153.852</ele>
        <time>2020-09-19T14:25:26Z</time>
      </trkpt>
      <trkpt lat="45.56761" lon="6.08283">
        <ele>1153.293</ele>
        <time>2020-09-19T14:25:28Z</time>
      </trkpt>
      <trkpt lat="45.56761" lon="6.08283">
        <ele>1153.452</ele>
        <time>2020-09-19T14:25:29Z</time>
      </trkpt>
      <trkpt lat="45.5676" lon="6.08282">
        <ele>1153.506</ele>
        <time>2020-09-19T14:25:30Z</time>
      </trkpt>
      <trkpt lat="45.56758" lon="6.0828">
        <ele>1153.73</ele>
        <time>2020-09-19T14:25:32Z</time>
      </trkpt>
      <trkpt lat="45.56754" lon="6.08276">
        <ele>1153.2</ele>
        <time>2020-09-19T14:25:37Z</time>
      </trkpt>
      <trkpt lat="45.56754" lon="6.08275">
        <ele>1153.131</ele>
        <time>2020-09-19T14:25:38Z</time>
      </trkpt>
      <trkpt lat="45.56744" lon="6.08268">
        <ele>1152.799</ele>
        <time>2020-09-19T14:25:47Z</time>
      </trkpt>
      <trkpt lat="45.56743" lon="6.08268">
        <ele>1153.302</ele>
        <time>2020-09-19T14:25:48Z</time>
      </trkpt>
      <trkpt lat="45.56739" lon="6.08266">
        <ele>1153.815</ele>
        <time>2020-09-19T14:25:52Z</time>
      </trkpt>
      <trkpt lat="45.56736" lon="6.08266">
        <ele>1153.713</ele>
        <time>2020-09-19T14:25:55Z</time>
      </trkpt>
      <trkpt lat="45.56735" lon="6.08266">
        <ele>1154.237</ele>
        <time>2020-09-19T14:25:58Z</time>
      </trkpt>
      <trkpt lat="45.56736" lon="6.08262">
        <ele>1153.393</ele>
        <time>2020-09-19T14:26:02Z</time>
      </trkpt>
      <trkpt lat="45.56734" lon="6.08258">
        <ele>1153.511</ele>
        <time>2020-09-19T14:26:04Z</time>
      </trkpt>
      <trkpt lat="45.56732" lon="6.08256">
        <ele>1153.743</ele>
        <time>2020-09-19T14:26:06Z</time>
      </trkpt>
      <trkpt lat="45.5672" lon="6.08256">
        <ele>1154.44</ele>
        <time>2020-09-19T14:26:14Z</time>
      </trkpt>
      <trkpt lat="45.56705" lon="6.08255">
        <ele>1154.649</ele>
        <time>2020-09-19T14:26:27Z</time>
      </trkpt>
      <trkpt lat="45.56703" lon="6.08255">
        <ele>1155.1</ele>
        <time>2020-09-19T14:26:31Z</time>
      </trkpt>
      <trkpt lat="45.56703" lon="6.08253">
        <ele>1156.056</ele>
        <time>2020-09-19T14:26:34Z</time>
      </trkpt>
      <trkpt lat="45.56703" lon="6.08253">
        <ele>1157.391</ele>
        <time>2020-09-19T14:26:37Z</time>
      </trkpt>
      <trkpt lat="45.56702" lon="6.08252">
        <ele>1157.621</ele>
        <time>2020-09-19T14:26:38Z</time>
      </trkpt>
      <trkpt lat="45.56698" lon="6.08248">
        <ele>1157.001</ele>
        <time>2020-09-19T14:26:43Z</time>
      </trkpt>
      <trkpt lat="45.56696" lon="6.08248">
        <ele>1157.476</ele>
        <time>2020-09-19T14:26:45Z</time>
      </trkpt>
      <trkpt lat="45.56688" lon="6.0825">
        <ele>1156.848</ele>
        <time>2020-09-19T14:26:47Z</time>
      </trkpt>
      <trkpt lat="45.5668" lon="6.08251">
        <ele>1157.371</ele>
        <time>2020-09-19T14:26:50Z</time>
      </trkpt>
      <trkpt lat="45.56679" lon="6.0825">
        <ele>1157.494</ele>
        <time>2020-09-19T14:26:51Z</time>
      </trkpt>
      <trkpt lat="45.56674" lon="6.08249">
        <ele>1157.487</ele>
        <time>2020-09-19T14:26:54Z</time>
      </trkpt>
      <trkpt lat="45.56671" lon="6.0825">
        <ele>1157.234</ele>
        <time>2020-09-19T14:26:56Z</time>
      </trkpt>
      <trkpt lat="45.56666" lon="6.0825">
        <ele>1157.902</ele>
        <time>2020-09-19T14:27:03Z</time>
      </trkpt>
      <trkpt lat="45.56665" lon="6.0825">
        <ele>1157.659</ele>
        <time>2020-09-19T14:27:05Z</time>
      </trkpt>
      <trkpt lat="45.56665" lon="6.0825">
        <ele>1157.659</ele>
        <time>2020-09-19T14:27:05Z</time>
      </trkpt>
      <trkpt lat="45.56665" lon="6.08249">
        <ele>1157.852</ele>
        <time>2020-09-19T14:27:06Z</time>
      </trkpt>
      <trkpt lat="45.56664" lon="6.0825">
        <ele>1157.676</ele>
        <time>2020-09-19T14:27:07Z</time>
      </trkpt>
      <trkpt lat="45.56664" lon="6.0825">
        <ele>1157.676</ele>
        <time>2020-09-19T14:27:07Z</time>
      </trkpt>
      <trkpt lat="45.56664" lon="6.0825">
        <ele>1158.026</ele>
        <time>2020-09-19T14:27:08Z</time>
      </trkpt>
      <trkpt lat="45.56664" lon="6.0825">
        <ele>1157.913</ele>
        <time>2020-09-19T14:27:09Z</time>
      </trkpt>
      <trkpt lat="45.56664" lon="6.0825">
        <ele>1157.907</ele>
        <time>2020-09-19T14:27:10Z</time>
      </trkpt>
      <trkpt lat="45.56664" lon="6.0825">
        <ele>1157.999</ele>
        <time>2020-09-19T14:27:11Z</time>
      </trkpt>
      <trkpt lat="45.56664" lon="6.0825">
        <ele>1157.999</ele>
        <time>2020-09-19T14:27:11Z</time>
      </trkpt>
      <trkpt lat="45.56663" lon="6.0825">
        <ele>1157.993</ele>
        <time>2020-09-19T14:27:12Z</time>
      </trkpt>
      <trkpt lat="45.5666" lon="6.08253">
        <ele>1157.439</ele>
        <time>2020-09-19T14:27:15Z</time>
      </trkpt>
      <trkpt lat="45.5666" lon="6.08253">
        <ele>1157.37</ele>
        <time>2020-09-19T14:27:16Z</time>
      </trkpt>
      <trkpt lat="45.56658" lon="6.08256">
        <ele>1158.459</ele>
        <time>2020-09-19T14:27:20Z</time>
      </trkpt>
      <trkpt lat="45.56656" lon="6.08257">
        <ele>1158.613</ele>
        <time>2020-09-19T14:27:22Z</time>
      </trkpt>
      <trkpt lat="45.56653" lon="6.08255">
        <ele>1158.764</ele>
        <time>2020-09-19T14:27:25Z</time>
      </trkpt>
      <trkpt lat="45.56648" lon="6.08254">
        <ele>1160.227</ele>
        <time>2020-09-19T14:27:27Z</time>
      </trkpt>
      <trkpt lat="45.56641" lon="6.08254">
        <ele>1159.085</ele>
        <time>2020-09-19T14:27:31Z</time>
      </trkpt>
      <trkpt lat="45.56634" lon="6.08253">
        <ele>1158.762</ele>
        <time>2020-09-19T14:27:39Z</time>
      </trkpt>
      <trkpt lat="45.56626" lon="6.0825">
        <ele>1159.286</ele>
        <time>2020-09-19T14:27:46Z</time>
      </trkpt>
      <trkpt lat="45.56617" lon="6.08251">
        <ele>1158.764</ele>
        <time>2020-09-19T14:27:54Z</time>
      </trkpt>
      <trkpt lat="45.56608" lon="6.08247">
        <ele>1159.446</ele>
        <time>2020-09-19T14:28:01Z</time>
      </trkpt>
      <trkpt lat="45.56605" lon="6.08247">
        <ele>1160.152</ele>
        <time>2020-09-19T14:28:05Z</time>
      </trkpt>
      <trkpt lat="45.566" lon="6.08249">
        <ele>1160.66</ele>
        <time>2020-09-19T14:28:12Z</time>
      </trkpt>
      <trkpt lat="45.56597" lon="6.08247">
        <ele>1160.347</ele>
        <time>2020-09-19T14:28:15Z</time>
      </trkpt>
      <trkpt lat="45.56591" lon="6.08243">
        <ele>1159.896</ele>
        <time>2020-09-19T14:28:23Z</time>
      </trkpt>
      <trkpt lat="45.56588" lon="6.08244">
        <ele>1160.278</ele>
        <time>2020-09-19T14:28:25Z</time>
      </trkpt>
      <trkpt lat="45.5658" lon="6.08246">
        <ele>1159.711</ele>
        <time>2020-09-19T14:28:31Z</time>
      </trkpt>
      <trkpt lat="45.56574" lon="6.08249">
        <ele>1161.903</ele>
        <time>2020-09-19T14:28:36Z</time>
      </trkpt>
      <trkpt lat="45.56573" lon="6.08254">
        <ele>1160.511</ele>
        <time>2020-09-19T14:28:39Z</time>
      </trkpt>
      <trkpt lat="45.56573" lon="6.08257">
        <ele>1160.491</ele>
        <time>2020-09-19T14:28:41Z</time>
      </trkpt>
      <trkpt lat="45.56576" lon="6.0826">
        <ele>1161.864</ele>
        <time>2020-09-19T14:28:43Z</time>
      </trkpt>
      <trkpt lat="45.56579" lon="6.08267">
        <ele>1163.453</ele>
        <time>2020-09-19T14:28:48Z</time>
      </trkpt>
      <trkpt lat="45.56579" lon="6.08274">
        <ele>1164.015</ele>
        <time>2020-09-19T14:28:51Z</time>
      </trkpt>
      <trkpt lat="45.56578" lon="6.08281">
        <ele>1164.29</ele>
        <time>2020-09-19T14:28:55Z</time>
      </trkpt>
      <trkpt lat="45.5658" lon="6.08284">
        <ele>1164.368</ele>
        <time>2020-09-19T14:28:58Z</time>
      </trkpt>
      <trkpt lat="45.56582" lon="6.08289">
        <ele>1165.934</ele>
        <time>2020-09-19T14:29:01Z</time>
      </trkpt>
      <trkpt lat="45.56582" lon="6.08292">
        <ele>1166.968</ele>
        <time>2020-09-19T14:29:04Z</time>
      </trkpt>
      <trkpt lat="45.56582" lon="6.08295">
        <ele>1166.792</ele>
        <time>2020-09-19T14:29:06Z</time>
      </trkpt>
      <trkpt lat="45.56584" lon="6.08301">
        <ele>1167.68</ele>
        <time>2020-09-19T14:29:10Z</time>
      </trkpt>
      <trkpt lat="45.56594" lon="6.08308">
        <ele>1168.806</ele>
        <time>2020-09-19T14:29:17Z</time>
      </trkpt>
      <trkpt lat="45.56598" lon="6.08309">
        <ele>1168.835</ele>
        <time>2020-09-19T14:29:19Z</time>
      </trkpt>
      <trkpt lat="45.56604" lon="6.08312">
        <ele>1169.954</ele>
        <time>2020-09-19T14:29:23Z</time>
      </trkpt>
      <trkpt lat="45.56605" lon="6.08317">
        <ele>1169.938</ele>
        <time>2020-09-19T14:29:27Z</time>
      </trkpt>
      <trkpt lat="45.56607" lon="6.0832">
        <ele>1171.098</ele>
        <time>2020-09-19T14:29:30Z</time>
      </trkpt>
      <trkpt lat="45.56623" lon="6.08328">
        <ele>1173.156</ele>
        <time>2020-09-19T14:29:43Z</time>
      </trkpt>
      <trkpt lat="45.56625" lon="6.08333">
        <ele>1172.985</ele>
        <time>2020-09-19T14:29:47Z</time>
      </trkpt>
      <trkpt lat="45.56628" lon="6.08339">
        <ele>1172.274</ele>
        <time>2020-09-19T14:29:51Z</time>
      </trkpt>
      <trkpt lat="45.56631" lon="6.08344">
        <ele>1172.632</ele>
        <time>2020-09-19T14:29:55Z</time>
      </trkpt>
      <trkpt lat="45.56631" lon="6.08348">
        <ele>1172.729</ele>
        <time>2020-09-19T14:29:58Z</time>
      </trkpt>
      <trkpt lat="45.56632" lon="6.08354">
        <ele>1173.425</ele>
        <time>2020-09-19T14:30:02Z</time>
      </trkpt>
      <trkpt lat="45.56634" lon="6.08357">
        <ele>1173.908</ele>
        <time>2020-09-19T14:30:05Z</time>
      </trkpt>
      <trkpt lat="45.56636" lon="6.08358">
        <ele>1174.228</ele>
        <time>2020-09-19T14:30:07Z</time>
      </trkpt>
      <trkpt lat="45.56641" lon="6.08356">
        <ele>1174.241</ele>
        <time>2020-09-19T14:30:09Z</time>
      </trkpt>
      <trkpt lat="45.56649" lon="6.0835">
        <ele>1174.883</ele>
        <time>2020-09-19T14:30:15Z</time>
      </trkpt>
      <trkpt lat="45.56662" lon="6.08346">
        <ele>1174.92</ele>
        <time>2020-09-19T14:30:19Z</time>
      </trkpt>
      <trkpt lat="45.56666" lon="6.08349">
        <ele>1174.962</ele>
        <time>2020-09-19T14:30:21Z</time>
      </trkpt>
      <trkpt lat="45.56666" lon="6.08356">
        <ele>1174.967</ele>
        <time>2020-09-19T14:30:23Z</time>
      </trkpt>
      <trkpt lat="45.56665" lon="6.08361">
        <ele>1175.007</ele>
        <time>2020-09-19T14:30:25Z</time>
      </trkpt>
      <trkpt lat="45.56665" lon="6.08362">
        <ele>1175.031</ele>
        <time>2020-09-19T14:30:26Z</time>
      </trkpt>
      <trkpt lat="45.56664" lon="6.08367">
        <ele>1175.471</ele>
        <time>2020-09-19T14:30:29Z</time>
      </trkpt>
      <trkpt lat="45.56663" lon="6.08369">
        <ele>1175.181</ele>
        <time>2020-09-19T14:30:30Z</time>
      </trkpt>
      <trkpt lat="45.56664" lon="6.08375">
        <ele>1175.765</ele>
        <time>2020-09-19T14:30:33Z</time>
      </trkpt>
      <trkpt lat="45.56664" lon="6.08381">
        <ele>1175.867</ele>
        <time>2020-09-19T14:30:36Z</time>
      </trkpt>
      <trkpt lat="45.56664" lon="6.08384">
        <ele>1176.151</ele>
        <time>2020-09-19T14:30:37Z</time>
      </trkpt>
      <trkpt lat="45.56661" lon="6.08391">
        <ele>1176.646</ele>
        <time>2020-09-19T14:30:39Z</time>
      </trkpt>
      <trkpt lat="45.56659" lon="6.08396">
        <ele>1176.867</ele>
        <time>2020-09-19T14:30:41Z</time>
      </trkpt>
      <trkpt lat="45.56661" lon="6.08398">
        <ele>1177.376</ele>
        <time>2020-09-19T14:30:43Z</time>
      </trkpt>
      <trkpt lat="45.56665" lon="6.08399">
        <ele>1177.414</ele>
        <time>2020-09-19T14:30:45Z</time>
      </trkpt>
      <trkpt lat="45.56672" lon="6.08397">
        <ele>1176.997</ele>
        <time>2020-09-19T14:30:49Z</time>
      </trkpt>
      <trkpt lat="45.56674" lon="6.08398">
        <ele>1176.807</ele>
        <time>2020-09-19T14:30:51Z</time>
      </trkpt>
      <trkpt lat="45.56677" lon="6.08397">
        <ele>1177.015</ele>
        <time>2020-09-19T14:30:54Z</time>
      </trkpt>
      <trkpt lat="45.56681" lon="6.08399">
        <ele>1177.383</ele>
        <time>2020-09-19T14:30:57Z</time>
      </trkpt>
      <trkpt lat="45.56686" lon="6.08399">
        <ele>1176.884</ele>
        <time>2020-09-19T14:30:59Z</time>
      </trkpt>
      <trkpt lat="45.56692" lon="6.08399">
        <ele>1177.537</ele>
        <time>2020-09-19T14:31:02Z</time>
      </trkpt>
      <trkpt lat="45.56698" lon="6.08403">
        <ele>1177.61</ele>
        <time>2020-09-19T14:31:06Z</time>
      </trkpt>
      <trkpt lat="45.567" lon="6.08405">
        <ele>1178.168</ele>
        <time>2020-09-19T14:31:09Z</time>
      </trkpt>
      <trkpt lat="45.567" lon="6.08405">
        <ele>1178.308</ele>
        <time>2020-09-19T14:31:11Z</time>
      </trkpt>
      <trkpt lat="45.567" lon="6.08406">
        <ele>1178.835</ele>
        <time>2020-09-19T14:31:12Z</time>
      </trkpt>
      <trkpt lat="45.56701" lon="6.08407">
        <ele>1178.563</ele>
        <time>2020-09-19T14:31:15Z</time>
      </trkpt>
      <trkpt lat="45.56709" lon="6.08411">
        <ele>1177.64</ele>
        <time>2020-09-19T14:31:23Z</time>
      </trkpt>
      <trkpt lat="45.5671" lon="6.08411">
        <ele>1177.591</ele>
        <time>2020-09-19T14:31:24Z</time>
      </trkpt>
      <trkpt lat="45.56711" lon="6.08412">
        <ele>1176.737</ele>
        <time>2020-09-19T14:31:26Z</time>
      </trkpt>
      <trkpt lat="45.56711" lon="6.08413">
        <ele>1176.336</ele>
        <time>2020-09-19T14:31:27Z</time>
      </trkpt>
      <trkpt lat="45.56719" lon="6.08417">
        <ele>1177.242</ele>
        <time>2020-09-19T14:31:34Z</time>
      </trkpt>
      <trkpt lat="45.56722" lon="6.08419">
        <ele>1177.571</ele>
        <time>2020-09-19T14:31:37Z</time>
      </trkpt>
      <trkpt lat="45.56724" lon="6.08424">
        <ele>1177.632</ele>
        <time>2020-09-19T14:31:39Z</time>
      </trkpt>
      <trkpt lat="45.56728" lon="6.08433">
        <ele>1177.791</ele>
        <time>2020-09-19T14:31:44Z</time>
      </trkpt>
      <trkpt lat="45.56731" lon="6.08434">
        <ele>1178.007</ele>
        <time>2020-09-19T14:31:46Z</time>
      </trkpt>
      <trkpt lat="45.56732" lon="6.08434">
        <ele>1178.073</ele>
        <time>2020-09-19T14:31:47Z</time>
      </trkpt>
      <trkpt lat="45.56736" lon="6.08435">
        <ele>1177.77</ele>
        <time>2020-09-19T14:31:50Z</time>
      </trkpt>
      <trkpt lat="45.56737" lon="6.08435">
        <ele>1177.593</ele>
        <time>2020-09-19T14:31:51Z</time>
      </trkpt>
      <trkpt lat="45.56738" lon="6.08435">
        <ele>1178.15</ele>
        <time>2020-09-19T14:31:53Z</time>
      </trkpt>
      <trkpt lat="45.56738" lon="6.08435">
        <ele>1178.11</ele>
        <time>2020-09-19T14:31:54Z</time>
      </trkpt>
      <trkpt lat="45.56739" lon="6.08434">
        <ele>1178.077</ele>
        <time>2020-09-19T14:31:55Z</time>
      </trkpt>
      <trkpt lat="45.56744" lon="6.08435">
        <ele>1177.515</ele>
        <time>2020-09-19T14:32:01Z</time>
      </trkpt>
      <trkpt lat="45.56746" lon="6.08437">
        <ele>1176.965</ele>
        <time>2020-09-19T14:32:04Z</time>
      </trkpt>
      <trkpt lat="45.56748" lon="6.08438">
        <ele>1176.588</ele>
        <time>2020-09-19T14:32:06Z</time>
      </trkpt>
      <trkpt lat="45.56757" lon="6.08438">
        <ele>1176.317</ele>
        <time>2020-09-19T14:32:11Z</time>
      </trkpt>
      <trkpt lat="45.56762" lon="6.0844">
        <ele>1176.05</ele>
        <time>2020-09-19T14:32:15Z</time>
      </trkpt>
      <trkpt lat="45.56762" lon="6.0844">
        <ele>1176.05</ele>
        <time>2020-09-19T14:32:16Z</time>
      </trkpt>
      <trkpt lat="45.56764" lon="6.08441">
        <ele>1175.88</ele>
        <time>2020-09-19T14:32:17Z</time>
      </trkpt>
      <trkpt lat="45.56765" lon="6.08443">
        <ele>1176.175</ele>
        <time>2020-09-19T14:32:18Z</time>
      </trkpt>
      <trkpt lat="45.56766" lon="6.08444">
        <ele>1175.857</ele>
        <time>2020-09-19T14:32:19Z</time>
      </trkpt>
      <trkpt lat="45.56767" lon="6.08446">
        <ele>1175.381</ele>
        <time>2020-09-19T14:32:21Z</time>
      </trkpt>
      <trkpt lat="45.56769" lon="6.08448">
        <ele>1174.479</ele>
        <time>2020-09-19T14:32:26Z</time>
      </trkpt>
      <trkpt lat="45.56769" lon="6.08448">
        <ele>1174.479</ele>
        <time>2020-09-19T14:32:26Z</time>
      </trkpt>
      <trkpt lat="45.56769" lon="6.08449">
        <ele>1173.555</ele>
        <time>2020-09-19T14:32:27Z</time>
      </trkpt>
      <trkpt lat="45.56768" lon="6.08451">
        <ele>1173.956</ele>
        <time>2020-09-19T14:32:29Z</time>
      </trkpt>
      <trkpt lat="45.56771" lon="6.08454">
        <ele>1174.254</ele>
        <time>2020-09-19T14:32:31Z</time>
      </trkpt>
      <trkpt lat="45.56774" lon="6.08454">
        <ele>1174.293</ele>
        <time>2020-09-19T14:32:32Z</time>
      </trkpt>
      <trkpt lat="45.56786" lon="6.08459">
        <ele>1174.808</ele>
        <time>2020-09-19T14:32:35Z</time>
      </trkpt>
      <trkpt lat="45.56806" lon="6.08467">
        <ele>1173.71</ele>
        <time>2020-09-19T14:32:41Z</time>
      </trkpt>
      <trkpt lat="45.56815" lon="6.08469">
        <ele>1174.287</ele>
        <time>2020-09-19T14:32:46Z</time>
      </trkpt>
      <trkpt lat="45.56817" lon="6.08471">
        <ele>1174.227</ele>
        <time>2020-09-19T14:32:49Z</time>
      </trkpt>
      <trkpt lat="45.56817" lon="6.08475">
        <ele>1172.476</ele>
        <time>2020-09-19T14:32:52Z</time>
      </trkpt>
      <trkpt lat="45.56818" lon="6.08476">
        <ele>1172.104</ele>
        <time>2020-09-19T14:32:56Z</time>
      </trkpt>
      <trkpt lat="45.5682" lon="6.08472">
        <ele>1171.843</ele>
        <time>2020-09-19T14:32:57Z</time>
      </trkpt>
      <trkpt lat="45.56823" lon="6.08477">
        <ele>1171.374</ele>
        <time>2020-09-19T14:33:01Z</time>
      </trkpt>
      <trkpt lat="45.56821" lon="6.0848">
        <ele>1171.17</ele>
        <time>2020-09-19T14:33:02Z</time>
      </trkpt>
      <trkpt lat="45.56819" lon="6.08492">
        <ele>1171.179</ele>
        <time>2020-09-19T14:33:06Z</time>
      </trkpt>
      <trkpt lat="45.56823" lon="6.08494">
        <ele>1171.036</ele>
        <time>2020-09-19T14:33:09Z</time>
      </trkpt>
      <trkpt lat="45.56828" lon="6.08496">
        <ele>1171.007</ele>
        <time>2020-09-19T14:33:11Z</time>
      </trkpt>
      <trkpt lat="45.56833" lon="6.08501">
        <ele>1171.249</ele>
        <time>2020-09-19T14:33:14Z</time>
      </trkpt>
      <trkpt lat="45.56837" lon="6.08501">
        <ele>1170.92</ele>
        <time>2020-09-19T14:33:16Z</time>
      </trkpt>
      <trkpt lat="45.56837" lon="6.08499">
        <ele>1170.656</ele>
        <time>2020-09-19T14:33:19Z</time>
      </trkpt>
      <trkpt lat="45.56836" lon="6.08502">
        <ele>1170.707</ele>
        <time>2020-09-19T14:33:21Z</time>
      </trkpt>
      <trkpt lat="45.56835" lon="6.08503">
        <ele>1170.569</ele>
        <time>2020-09-19T14:33:22Z</time>
      </trkpt>
      <trkpt lat="45.56837" lon="6.08504">
        <ele>1170.984</ele>
        <time>2020-09-19T14:33:25Z</time>
      </trkpt>
      <trkpt lat="45.56841" lon="6.08504">
        <ele>1170.566</ele>
        <time>2020-09-19T14:33:30Z</time>
      </trkpt>
      <trkpt lat="45.56842" lon="6.08505">
        <ele>1170.598</ele>
        <time>2020-09-19T14:33:31Z</time>
      </trkpt>
      <trkpt lat="45.56843" lon="6.08505">
        <ele>1170.279</ele>
        <time>2020-09-19T14:33:32Z</time>
      </trkpt>
      <trkpt lat="45.56845" lon="6.08502">
        <ele>1170.307</ele>
        <time>2020-09-19T14:33:35Z</time>
      </trkpt>
      <trkpt lat="45.56849" lon="6.08495">
        <ele>1170.737</ele>
        <time>2020-09-19T14:33:41Z</time>
      </trkpt>
      <trkpt lat="45.5685" lon="6.08495">
        <ele>1170.869</ele>
        <time>2020-09-19T14:33:42Z</time>
      </trkpt>
      <trkpt lat="45.56851" lon="6.08494">
        <ele>1170.785</ele>
        <time>2020-09-19T14:33:46Z</time>
      </trkpt>
      <trkpt lat="45.56853" lon="6.08493">
        <ele>1170.714</ele>
        <time>2020-09-19T14:33:47Z</time>
      </trkpt>
      <trkpt lat="45.56857" lon="6.08492">
        <ele>1170.697</ele>
        <time>2020-09-19T14:33:49Z</time>
      </trkpt>
      <trkpt lat="45.56863" lon="6.08493">
        <ele>1170.774</ele>
        <time>2020-09-19T14:33:51Z</time>
      </trkpt>
      <trkpt lat="45.56867" lon="6.08491">
        <ele>1170.401</ele>
        <time>2020-09-19T14:33:54Z</time>
      </trkpt>
      <trkpt lat="45.56867" lon="6.0849">
        <ele>1170.489</ele>
        <time>2020-09-19T14:33:55Z</time>
      </trkpt>
      <trkpt lat="45.56868" lon="6.08489">
        <ele>1170.641</ele>
        <time>2020-09-19T14:33:56Z</time>
      </trkpt>
      <trkpt lat="45.56871" lon="6.0849">
        <ele>1170.422</ele>
        <time>2020-09-19T14:34:00Z</time>
      </trkpt>
      <trkpt lat="45.56876" lon="6.08494">
        <ele>1169.334</ele>
        <time>2020-09-19T14:34:05Z</time>
      </trkpt>
      <trkpt lat="45.56881" lon="6.08496">
        <ele>1169.722</ele>
        <time>2020-09-19T14:34:07Z</time>
      </trkpt>
      <trkpt lat="45.56889" lon="6.08497">
        <ele>1170.364</ele>
        <time>2020-09-19T14:34:09Z</time>
      </trkpt>
      <trkpt lat="45.56893" lon="6.08499">
        <ele>1169.841</ele>
        <time>2020-09-19T14:34:11Z</time>
      </trkpt>
      <trkpt lat="45.56899" lon="6.08506">
        <ele>1170.057</ele>
        <time>2020-09-19T14:34:15Z</time>
      </trkpt>
      <trkpt lat="45.56899" lon="6.08508">
        <ele>1170.26</ele>
        <time>2020-09-19T14:34:16Z</time>
      </trkpt>
      <trkpt lat="45.56901" lon="6.0851">
        <ele>1170.601</ele>
        <time>2020-09-19T14:34:18Z</time>
      </trkpt>
      <trkpt lat="45.56905" lon="6.08509">
        <ele>1171.034</ele>
        <time>2020-09-19T14:34:23Z</time>
      </trkpt>
      <trkpt lat="45.56908" lon="6.08511">
        <ele>1171.165</ele>
        <time>2020-09-19T14:34:28Z</time>
      </trkpt>
      <trkpt lat="45.56909" lon="6.08511">
        <ele>1171.181</ele>
        <time>2020-09-19T14:34:30Z</time>
      </trkpt>
      <trkpt lat="45.56915" lon="6.08507">
        <ele>1171.468</ele>
        <time>2020-09-19T14:34:35Z</time>
      </trkpt>
      <trkpt lat="45.56918" lon="6.08506">
        <ele>1171.29</ele>
        <time>2020-09-19T14:34:37Z</time>
      </trkpt>
      <trkpt lat="45.5693" lon="6.08503">
        <ele>1170.726</ele>
        <time>2020-09-19T14:34:48Z</time>
      </trkpt>
      <trkpt lat="45.56933" lon="6.08504">
        <ele>1170.742</ele>
        <time>2020-09-19T14:34:50Z</time>
      </trkpt>
      <trkpt lat="45.56934" lon="6.08504">
        <ele>1170.984</ele>
        <time>2020-09-19T14:34:51Z</time>
      </trkpt>
      <trkpt lat="45.56937" lon="6.08503">
        <ele>1170.351</ele>
        <time>2020-09-19T14:34:54Z</time>
      </trkpt>
      <trkpt lat="45.56944" lon="6.08502">
        <ele>1169.284</ele>
        <time>2020-09-19T14:35:02Z</time>
      </trkpt>
      <trkpt lat="45.56951" lon="6.08499">
        <ele>1167.926</ele>
        <time>2020-09-19T14:35:10Z</time>
      </trkpt>
      <trkpt lat="45.5696" lon="6.08483">
        <ele>1166.785</ele>
        <time>2020-09-19T14:35:20Z</time>
      </trkpt>
      <trkpt lat="45.56962" lon="6.0848">
        <ele>1166.914</ele>
        <time>2020-09-19T14:35:22Z</time>
      </trkpt>
      <trkpt lat="45.56965" lon="6.08479">
        <ele>1166.918</ele>
        <time>2020-09-19T14:35:24Z</time>
      </trkpt>
      <trkpt lat="45.56968" lon="6.08479">
        <ele>1166.383</ele>
        <time>2020-09-19T14:35:27Z</time>
      </trkpt>
      <trkpt lat="45.5697" lon="6.08478">
        <ele>1166.064</ele>
        <time>2020-09-19T14:35:30Z</time>
      </trkpt>
      <trkpt lat="45.56973" lon="6.08478">
        <ele>1166.341</ele>
        <time>2020-09-19T14:35:34Z</time>
      </trkpt>
      <trkpt lat="45.56975" lon="6.08475">
        <ele>1165.877</ele>
        <time>2020-09-19T14:35:37Z</time>
      </trkpt>
      <trkpt lat="45.56976" lon="6.08474">
        <ele>1165.731</ele>
        <time>2020-09-19T14:35:38Z</time>
      </trkpt>
      <trkpt lat="45.56979" lon="6.08473">
        <ele>1166.375</ele>
        <time>2020-09-19T14:35:41Z</time>
      </trkpt>
      <trkpt lat="45.56987" lon="6.08471">
        <ele>1166.543</ele>
        <time>2020-09-19T14:35:47Z</time>
      </trkpt>
      <trkpt lat="45.56989" lon="6.08469">
        <ele>1166.217</ele>
        <time>2020-09-19T14:35:50Z</time>
      </trkpt>
      <trkpt lat="45.5699" lon="6.08468">
        <ele>1166.509</ele>
        <time>2020-09-19T14:35:51Z</time>
      </trkpt>
      <trkpt lat="45.56997" lon="6.08466">
        <ele>1166.148</ele>
        <time>2020-09-19T14:35:57Z</time>
      </trkpt>
      <trkpt lat="45.57" lon="6.08464">
        <ele>1166.131</ele>
        <time>2020-09-19T14:35:59Z</time>
      </trkpt>
      <trkpt lat="45.57002" lon="6.08462">
        <ele>1166.232</ele>
        <time>2020-09-19T14:36:01Z</time>
      </trkpt>
      <trkpt lat="45.57002" lon="6.08462">
        <ele>1166.162</ele>
        <time>2020-09-19T14:36:02Z</time>
      </trkpt>
      <trkpt lat="45.57005" lon="6.0846">
        <ele>1166.499</ele>
        <time>2020-09-19T14:36:04Z</time>
      </trkpt>
      <trkpt lat="45.57007" lon="6.0846">
        <ele>1166.645</ele>
        <time>2020-09-19T14:36:06Z</time>
      </trkpt>
      <trkpt lat="45.57009" lon="6.08459">
        <ele>1167.202</ele>
        <time>2020-09-19T14:36:08Z</time>
      </trkpt>
      <trkpt lat="45.57016" lon="6.08457">
        <ele>1166.793</ele>
        <time>2020-09-19T14:36:13Z</time>
      </trkpt>
      <trkpt lat="45.57016" lon="6.08457">
        <ele>1166.721</ele>
        <time>2020-09-19T14:36:14Z</time>
      </trkpt>
      <trkpt lat="45.57017" lon="6.08457">
        <ele>1166.965</ele>
        <time>2020-09-19T14:36:15Z</time>
      </trkpt>
      <trkpt lat="45.57021" lon="6.08455">
        <ele>1167.037</ele>
        <time>2020-09-19T14:36:18Z</time>
      </trkpt>
      <trkpt lat="45.57029" lon="6.08456">
        <ele>1166.804</ele>
        <time>2020-09-19T14:36:25Z</time>
      </trkpt>
      <trkpt lat="45.57043" lon="6.08461">
        <ele>1165.717</ele>
        <time>2020-09-19T14:36:37Z</time>
      </trkpt>
      <trkpt lat="45.57045" lon="6.08462">
        <ele>1165.503</ele>
        <time>2020-09-19T14:36:40Z</time>
      </trkpt>
      <trkpt lat="45.57045" lon="6.08463">
        <ele>1165.573</ele>
        <time>2020-09-19T14:36:42Z</time>
      </trkpt>
      <trkpt lat="45.57045" lon="6.08463">
        <ele>1165.573</ele>
        <time>2020-09-19T14:36:42Z</time>
      </trkpt>
      <trkpt lat="45.57045" lon="6.08464">
        <ele>1165.511</ele>
        <time>2020-09-19T14:36:43Z</time>
      </trkpt>
      <trkpt lat="45.57046" lon="6.08464">
        <ele>1165.662</ele>
        <time>2020-09-19T14:36:44Z</time>
      </trkpt>
      <trkpt lat="45.57046" lon="6.08464">
        <ele>1165.714</ele>
        <time>2020-09-19T14:36:45Z</time>
      </trkpt>
      <trkpt lat="45.57048" lon="6.08466">
        <ele>1166.248</ele>
        <time>2020-09-19T14:36:48Z</time>
      </trkpt>
      <trkpt lat="45.57049" lon="6.08469">
        <ele>1166.529</ele>
        <time>2020-09-19T14:36:51Z</time>
      </trkpt>
      <trkpt lat="45.57049" lon="6.08469">
        <ele>1165.867</ele>
        <time>2020-09-19T14:36:53Z</time>
      </trkpt>
      <trkpt lat="45.5705" lon="6.08476">
        <ele>1165.435</ele>
        <time>2020-09-19T14:36:54Z</time>
      </trkpt>
      <trkpt lat="45.5705" lon="6.08476">
        <ele>1165.442</ele>
        <time>2020-09-19T14:36:55Z</time>
      </trkpt>
      <trkpt lat="45.5705" lon="6.08477">
        <ele>1165.271</ele>
        <time>2020-09-19T14:36:56Z</time>
      </trkpt>
      <trkpt lat="45.57049" lon="6.08477">
        <ele>1165.245</ele>
        <time>2020-09-19T14:36:58Z</time>
      </trkpt>
      <trkpt lat="45.57049" lon="6.08474">
        <ele>1165.355</ele>
        <time>2020-09-19T14:36:59Z</time>
      </trkpt>
      <trkpt lat="45.57049" lon="6.08474">
        <ele>1165.42</ele>
        <time>2020-09-19T14:37:00Z</time>
      </trkpt>
      <trkpt lat="45.57049" lon="6.08474">
        <ele>1165.413</ele>
        <time>2020-09-19T14:37:02Z</time>
      </trkpt>
      <trkpt lat="45.57051" lon="6.08471">
        <ele>1165.932</ele>
        <time>2020-09-19T14:37:03Z</time>
      </trkpt>
      <trkpt lat="45.57051" lon="6.08471">
        <ele>1165.932</ele>
        <time>2020-09-19T14:37:03Z</time>
      </trkpt>
      <trkpt lat="45.57053" lon="6.08471">
        <ele>1166.533</ele>
        <time>2020-09-19T14:37:04Z</time>
      </trkpt>
      <trkpt lat="45.5705" lon="6.0847">
        <ele>1165.439</ele>
        <time>2020-09-19T14:37:06Z</time>
      </trkpt>
      <trkpt lat="45.57049" lon="6.08471">
        <ele>1165.683</ele>
        <time>2020-09-19T14:37:08Z</time>
      </trkpt>
      <trkpt lat="45.57049" lon="6.08471">
        <ele>1165.683</ele>
        <time>2020-09-19T14:37:08Z</time>
      </trkpt>
      <trkpt lat="45.57049" lon="6.08473">
        <ele>1166.611</ele>
        <time>2020-09-19T14:37:09Z</time>
      </trkpt>
      <trkpt lat="45.57052" lon="6.08474">
        <ele>1164.794</ele>
        <time>2020-09-19T14:37:11Z</time>
      </trkpt>
      <trkpt lat="45.57053" lon="6.08475">
        <ele>1164.662</ele>
        <time>2020-09-19T14:37:13Z</time>
      </trkpt>
      <trkpt lat="45.57053" lon="6.08475">
        <ele>1165.366</ele>
        <time>2020-09-19T14:37:14Z</time>
      </trkpt>
      <trkpt lat="45.57054" lon="6.08476">
        <ele>1164.683</ele>
        <time>2020-09-19T14:37:15Z</time>
      </trkpt>
      <trkpt lat="45.57052" lon="6.08476">
        <ele>1165.968</ele>
        <time>2020-09-19T14:37:18Z</time>
      </trkpt>
      <trkpt lat="45.57052" lon="6.08475">
        <ele>1165.379</ele>
        <time>2020-09-19T14:37:21Z</time>
      </trkpt>
      <trkpt lat="45.57052" lon="6.08475">
        <ele>1165.379</ele>
        <time>2020-09-19T14:37:30Z</time>
      </trkpt>
    </trkseg>
  </trk>
</gpx>